<?xml version="1.0"?>
<gpx
 version="1.0"
 creator="Satmap Active 10"
 xmlns:xsi="http://www.w3.org/2001/XMLSchema-instance"
 xmlns="http://www.topografix.com/GPX/1/0"
 xsi:schemaLocation="http://www.topografix.com/GPX/1/0 http://www.topografix.com/GPX/1/0/gpx.xsd">
<time>2012-03-25T14:37:34Z</time>
<trk>
<name>User Track</name>
<desc>Track 1</desc>
<number>1</number>
<trkseg>
<trkpt lat="58.768991" lon="05.678790"><ele>37</ele><time>2012-03-25T14:37:34Z</time><cmt>0.0 kmh</cmt></trkpt>
<trkpt lat="58.768294" lon="05.679505"><ele>35</ele><time>2012-03-25T14:39:23Z</time><cmt>5.0 kmh</cmt></trkpt>
<trkpt lat="58.768245" lon="05.679583"><ele>8</ele><time>2012-03-25T14:42:41Z</time><cmt>5.0 kmh</cmt></trkpt>
<trkpt lat="58.768245" lon="05.679581"><ele>8</ele><time>2012-03-25T14:42:42Z</time><cmt>5.0 kmh</cmt></trkpt>
<trkpt lat="58.768245" lon="05.679579"><ele>8</ele><time>2012-03-25T14:42:43Z</time><cmt>0.4 kmh</cmt></trkpt>
<trkpt lat="58.768244" lon="05.679577"><ele>8</ele><time>2012-03-25T14:42:45Z</time><cmt>0.2 kmh</cmt></trkpt>
<trkpt lat="58.768244" lon="05.679575"><ele>8</ele><time>2012-03-25T14:42:46Z</time><cmt>0.0 kmh</cmt></trkpt>
<trkpt lat="58.768243" lon="05.679574"><ele>8</ele><time>2012-03-25T14:42:47Z</time><cmt>0.2 kmh</cmt></trkpt>
<trkpt lat="58.768243" lon="05.679572"><ele>8</ele><time>2012-03-25T14:42:47Z</time><cmt>0.4 kmh</cmt></trkpt>
<trkpt lat="58.768243" lon="05.679571"><ele>8</ele><time>2012-03-25T14:42:48Z</time><cmt>0.4 kmh</cmt></trkpt>
<trkpt lat="58.768243" lon="05.679569"><ele>8</ele><time>2012-03-25T14:42:49Z</time><cmt>0.5 kmh</cmt></trkpt>
<trkpt lat="58.768243" lon="05.679568"><ele>8</ele><time>2012-03-25T14:42:51Z</time><cmt>0.4 kmh</cmt></trkpt>
<trkpt lat="58.768243" lon="05.679567"><ele>8</ele><time>2012-03-25T14:42:52Z</time><cmt>0.4 kmh</cmt></trkpt>
<trkpt lat="58.768242" lon="05.679565"><ele>8</ele><time>2012-03-25T14:42:53Z</time><cmt>0.2 kmh</cmt></trkpt>
<trkpt lat="58.768242" lon="05.679564"><ele>8</ele><time>2012-03-25T14:42:53Z</time><cmt>0.0 kmh</cmt></trkpt>
<trkpt lat="58.768244" lon="05.679563"><ele>9</ele><time>2012-03-25T14:42:54Z</time><cmt>0.3 kmh</cmt></trkpt>
<trkpt lat="58.768246" lon="05.679560"><ele>9</ele><time>2012-03-25T14:42:55Z</time><cmt>0.8 kmh</cmt></trkpt>
<trkpt lat="58.768247" lon="05.679559"><ele>9</ele><time>2012-03-25T14:42:57Z</time><cmt>0.7 kmh</cmt></trkpt>
<trkpt lat="58.768249" lon="05.679557"><ele>9</ele><time>2012-03-25T14:42:58Z</time><cmt>0.7 kmh</cmt></trkpt>
<trkpt lat="58.768251" lon="05.679556"><ele>9</ele><time>2012-03-25T14:42:59Z</time><cmt>0.7 kmh</cmt></trkpt>
<trkpt lat="58.768251" lon="05.679555"><ele>10</ele><time>2012-03-25T14:42:59Z</time><cmt>0.3 kmh</cmt></trkpt>
<trkpt lat="58.768250" lon="05.679554"><ele>10</ele><time>2012-03-25T14:43:00Z</time><cmt>0.0 kmh</cmt></trkpt>
<trkpt lat="58.768250" lon="05.679554"><ele>10</ele><time>2012-03-25T14:43:01Z</time><cmt>0.0 kmh</cmt></trkpt>
<trkpt lat="58.768248" lon="05.679554"><ele>10</ele><time>2012-03-25T14:43:02Z</time><cmt>0.3 kmh</cmt></trkpt>
<trkpt lat="58.768248" lon="05.679554"><ele>10</ele><time>2012-03-25T14:43:04Z</time><cmt>0.2 kmh</cmt></trkpt>
<trkpt lat="58.768249" lon="05.679553"><ele>10</ele><time>2012-03-25T14:43:05Z</time><cmt>0.0 kmh</cmt></trkpt>
<trkpt lat="58.768249" lon="05.679553"><ele>10</ele><time>2012-03-25T14:43:05Z</time><cmt>0.0 kmh</cmt></trkpt>
<trkpt lat="58.768250" lon="05.679552"><ele>11</ele><time>2012-03-25T14:43:06Z</time><cmt>0.0 kmh</cmt></trkpt>
<trkpt lat="58.768251" lon="05.679552"><ele>11</ele><time>2012-03-25T14:43:07Z</time><cmt>0.3 kmh</cmt></trkpt>
<trkpt lat="58.768253" lon="05.679551"><ele>11</ele><time>2012-03-25T14:43:08Z</time><cmt>0.8 kmh</cmt></trkpt>
<trkpt lat="58.768255" lon="05.679550"><ele>11</ele><time>2012-03-25T14:43:10Z</time><cmt>0.7 kmh</cmt></trkpt>
<trkpt lat="58.768258" lon="05.679550"><ele>11</ele><time>2012-03-25T14:43:11Z</time><cmt>0.8 kmh</cmt></trkpt>
<trkpt lat="58.768260" lon="05.679550"><ele>12</ele><time>2012-03-25T14:43:12Z</time><cmt>1.1 kmh</cmt></trkpt>
<trkpt lat="58.768262" lon="05.679550"><ele>12</ele><time>2012-03-25T14:43:12Z</time><cmt>1.0 kmh</cmt></trkpt>
<trkpt lat="58.768264" lon="05.679551"><ele>12</ele><time>2012-03-25T14:43:13Z</time><cmt>0.9 kmh</cmt></trkpt>
<trkpt lat="58.768264" lon="05.679551"><ele>13</ele><time>2012-03-25T14:43:14Z</time><cmt>0.4 kmh</cmt></trkpt>
<trkpt lat="58.768264" lon="05.679552"><ele>13</ele><time>2012-03-25T14:43:16Z</time><cmt>0.0 kmh</cmt></trkpt>
<trkpt lat="58.768265" lon="05.679552"><ele>13</ele><time>2012-03-25T14:43:17Z</time><cmt>0.2 kmh</cmt></trkpt>
<trkpt lat="58.768265" lon="05.679553"><ele>14</ele><time>2012-03-25T14:43:18Z</time><cmt>0.3 kmh</cmt></trkpt>
<trkpt lat="58.768262" lon="05.679552"><ele>14</ele><time>2012-03-25T14:43:18Z</time><cmt>0.5 kmh</cmt></trkpt>
<trkpt lat="58.768259" lon="05.679551"><ele>14</ele><time>2012-03-25T14:43:19Z</time><cmt>1.3 kmh</cmt></trkpt>
<trkpt lat="58.768255" lon="05.679549"><ele>14</ele><time>2012-03-25T14:43:20Z</time><cmt>1.6 kmh</cmt></trkpt>
<trkpt lat="58.768252" lon="05.679547"><ele>14</ele><time>2012-03-25T14:43:22Z</time><cmt>1.2 kmh</cmt></trkpt>
<trkpt lat="58.768251" lon="05.679546"><ele>14</ele><time>2012-03-25T14:43:23Z</time><cmt>0.8 kmh</cmt></trkpt>
<trkpt lat="58.768254" lon="05.679546"><ele>15</ele><time>2012-03-25T14:43:24Z</time><cmt>1.0 kmh</cmt></trkpt>
<trkpt lat="58.768256" lon="05.679546"><ele>15</ele><time>2012-03-25T14:43:24Z</time><cmt>1.1 kmh</cmt></trkpt>
<trkpt lat="58.768257" lon="05.679547"><ele>15</ele><time>2012-03-25T14:43:25Z</time><cmt>0.3 kmh</cmt></trkpt>
<trkpt lat="58.768259" lon="05.679548"><ele>15</ele><time>2012-03-25T14:43:26Z</time><cmt>0.4 kmh</cmt></trkpt>
<trkpt lat="58.768260" lon="05.679550"><ele>15</ele><time>2012-03-25T14:43:28Z</time><cmt>0.5 kmh</cmt></trkpt>
<trkpt lat="58.768260" lon="05.679551"><ele>15</ele><time>2012-03-25T14:43:29Z</time><cmt>0.2 kmh</cmt></trkpt>
<trkpt lat="58.768259" lon="05.679553"><ele>16</ele><time>2012-03-25T14:43:30Z</time><cmt>0.0 kmh</cmt></trkpt>
<trkpt lat="58.768258" lon="05.679554"><ele>16</ele><time>2012-03-25T14:43:30Z</time><cmt>0.3 kmh</cmt></trkpt>
<trkpt lat="58.768256" lon="05.679556"><ele>16</ele><time>2012-03-25T14:43:31Z</time><cmt>0.8 kmh</cmt></trkpt>
<trkpt lat="58.768253" lon="05.679559"><ele>16</ele><time>2012-03-25T14:43:32Z</time><cmt>1.2 kmh</cmt></trkpt>
<trkpt lat="58.768250" lon="05.679565"><ele>16</ele><time>2012-03-25T14:43:33Z</time><cmt>1.6 kmh</cmt></trkpt>
<trkpt lat="58.768252" lon="05.679571"><ele>16</ele><time>2012-03-25T14:43:35Z</time><cmt>1.2 kmh</cmt></trkpt>
<trkpt lat="58.768255" lon="05.679576"><ele>16</ele><time>2012-03-25T14:43:36Z</time><cmt>1.3 kmh</cmt></trkpt>
<trkpt lat="58.768258" lon="05.679581"><ele>16</ele><time>2012-03-25T14:43:36Z</time><cmt>1.8 kmh</cmt></trkpt>
<trkpt lat="58.768263" lon="05.679586"><ele>16</ele><time>2012-03-25T14:43:37Z</time><cmt>2.0 kmh</cmt></trkpt>
<trkpt lat="58.768267" lon="05.679590"><ele>16</ele><time>2012-03-25T14:43:38Z</time><cmt>2.1 kmh</cmt></trkpt>
<trkpt lat="58.768272" lon="05.679593"><ele>16</ele><time>2012-03-25T14:43:39Z</time><cmt>2.1 kmh</cmt></trkpt>
<trkpt lat="58.768275" lon="05.679597"><ele>16</ele><time>2012-03-25T14:43:41Z</time><cmt>1.5 kmh</cmt></trkpt>
<trkpt lat="58.768279" lon="05.679600"><ele>16</ele><time>2012-03-25T14:43:42Z</time><cmt>1.3 kmh</cmt></trkpt>
<trkpt lat="58.768281" lon="05.679604"><ele>16</ele><time>2012-03-25T14:43:43Z</time><cmt>1.4 kmh</cmt></trkpt>
<trkpt lat="58.768282" lon="05.679608"><ele>17</ele><time>2012-03-25T14:43:43Z</time><cmt>1.1 kmh</cmt></trkpt>
<trkpt lat="58.768282" lon="05.679611"><ele>17</ele><time>2012-03-25T14:43:44Z</time><cmt>0.9 kmh</cmt></trkpt>
<trkpt lat="58.768289" lon="05.679612"><ele>17</ele><time>2012-03-25T14:43:45Z</time><cmt>1.8 kmh</cmt></trkpt>
<trkpt lat="58.768298" lon="05.679614"><ele>17</ele><time>2012-03-25T14:43:47Z</time><cmt>2.7 kmh</cmt></trkpt>
<trkpt lat="58.768307" lon="05.679615"><ele>17</ele><time>2012-03-25T14:43:48Z</time><cmt>3.3 kmh</cmt></trkpt>
<trkpt lat="58.768315" lon="05.679617"><ele>18</ele><time>2012-03-25T14:43:49Z</time><cmt>3.8 kmh</cmt></trkpt>
<trkpt lat="58.768320" lon="05.679619"><ele>18</ele><time>2012-03-25T14:43:49Z</time><cmt>2.6 kmh</cmt></trkpt>
<trkpt lat="58.768322" lon="05.679622"><ele>18</ele><time>2012-03-25T14:43:50Z</time><cmt>1.6 kmh</cmt></trkpt>
<trkpt lat="58.768324" lon="05.679626"><ele>19</ele><time>2012-03-25T14:43:51Z</time><cmt>1.1 kmh</cmt></trkpt>
<trkpt lat="58.768325" lon="05.679632"><ele>19</ele><time>2012-03-25T14:43:53Z</time><cmt>1.0 kmh</cmt></trkpt>
<trkpt lat="58.768326" lon="05.679638"><ele>19</ele><time>2012-03-25T14:43:54Z</time><cmt>1.2 kmh</cmt></trkpt>
<trkpt lat="58.768329" lon="05.679645"><ele>20</ele><time>2012-03-25T14:43:55Z</time><cmt>1.8 kmh</cmt></trkpt>
<trkpt lat="58.768333" lon="05.679651"><ele>20</ele><time>2012-03-25T14:43:55Z</time><cmt>2.2 kmh</cmt></trkpt>
<trkpt lat="58.768338" lon="05.679654"><ele>20</ele><time>2012-03-25T14:43:56Z</time><cmt>2.2 kmh</cmt></trkpt>
<trkpt lat="58.768341" lon="05.679656"><ele>21</ele><time>2012-03-25T14:43:57Z</time><cmt>1.8 kmh</cmt></trkpt>
<trkpt lat="58.768344" lon="05.679657"><ele>21</ele><time>2012-03-25T14:43:58Z</time><cmt>1.3 kmh</cmt></trkpt>
<trkpt lat="58.768345" lon="05.679658"><ele>21</ele><time>2012-03-25T14:44:00Z</time><cmt>0.7 kmh</cmt></trkpt>
<trkpt lat="58.768347" lon="05.679658"><ele>22</ele><time>2012-03-25T14:44:01Z</time><cmt>0.6 kmh</cmt></trkpt>
<trkpt lat="58.768349" lon="05.679657"><ele>22</ele><time>2012-03-25T14:44:01Z</time><cmt>0.8 kmh</cmt></trkpt>
<trkpt lat="58.768351" lon="05.679655"><ele>22</ele><time>2012-03-25T14:44:02Z</time><cmt>0.9 kmh</cmt></trkpt>
<trkpt lat="58.768353" lon="05.679654"><ele>23</ele><time>2012-03-25T14:44:03Z</time><cmt>0.9 kmh</cmt></trkpt>
<trkpt lat="58.768354" lon="05.679652"><ele>23</ele><time>2012-03-25T14:44:04Z</time><cmt>0.9 kmh</cmt></trkpt>
<trkpt lat="58.768360" lon="05.679649"><ele>23</ele><time>2012-03-25T14:44:06Z</time><cmt>1.3 kmh</cmt></trkpt>
<trkpt lat="58.768366" lon="05.679646"><ele>24</ele><time>2012-03-25T14:44:07Z</time><cmt>2.1 kmh</cmt></trkpt>
<trkpt lat="58.768372" lon="05.679644"><ele>24</ele><time>2012-03-25T14:44:07Z</time><cmt>2.8 kmh</cmt></trkpt>
<trkpt lat="58.768379" lon="05.679642"><ele>25</ele><time>2012-03-25T14:44:08Z</time><cmt>2.8 kmh</cmt></trkpt>
<trkpt lat="58.768385" lon="05.679641"><ele>25</ele><time>2012-03-25T14:44:09Z</time><cmt>2.8 kmh</cmt></trkpt>
<trkpt lat="58.768391" lon="05.679639"><ele>26</ele><time>2012-03-25T14:44:10Z</time><cmt>2.7 kmh</cmt></trkpt>
<trkpt lat="58.768397" lon="05.679638"><ele>26</ele><time>2012-03-25T14:44:12Z</time><cmt>2.1 kmh</cmt></trkpt>
<trkpt lat="58.768402" lon="05.679637"><ele>27</ele><time>2012-03-25T14:44:13Z</time><cmt>1.9 kmh</cmt></trkpt>
<trkpt lat="58.768406" lon="05.679635"><ele>28</ele><time>2012-03-25T14:44:14Z</time><cmt>2.0 kmh</cmt></trkpt>
<trkpt lat="58.768410" lon="05.679633"><ele>28</ele><time>2012-03-25T14:44:14Z</time><cmt>1.6 kmh</cmt></trkpt>
<trkpt lat="58.768413" lon="05.679634"><ele>29</ele><time>2012-03-25T14:44:15Z</time><cmt>1.4 kmh</cmt></trkpt>
<trkpt lat="58.768415" lon="05.679633"><ele>29</ele><time>2012-03-25T14:44:16Z</time><cmt>1.2 kmh</cmt></trkpt>
<trkpt lat="58.768417" lon="05.679634"><ele>30</ele><time>2012-03-25T14:44:18Z</time><cmt>0.7 kmh</cmt></trkpt>
<trkpt lat="58.768419" lon="05.679636"><ele>30</ele><time>2012-03-25T14:44:19Z</time><cmt>0.6 kmh</cmt></trkpt>
<trkpt lat="58.768419" lon="05.679637"><ele>31</ele><time>2012-03-25T14:44:20Z</time><cmt>0.4 kmh</cmt></trkpt>
<trkpt lat="58.768420" lon="05.679637"><ele>31</ele><time>2012-03-25T14:44:20Z</time><cmt>0.0 kmh</cmt></trkpt>
<trkpt lat="58.768420" lon="05.679638"><ele>32</ele><time>2012-03-25T14:44:21Z</time><cmt>0.0 kmh</cmt></trkpt>
<trkpt lat="58.768421" lon="05.679639"><ele>32</ele><time>2012-03-25T14:44:22Z</time><cmt>0.0 kmh</cmt></trkpt>
<trkpt lat="58.768421" lon="05.679640"><ele>32</ele><time>2012-03-25T14:44:24Z</time><cmt>0.1 kmh</cmt></trkpt>
<trkpt lat="58.768422" lon="05.679642"><ele>33</ele><time>2012-03-25T14:44:25Z</time><cmt>0.4 kmh</cmt></trkpt>
<trkpt lat="58.768421" lon="05.679643"><ele>33</ele><time>2012-03-25T14:44:26Z</time><cmt>0.3 kmh</cmt></trkpt>
<trkpt lat="58.768421" lon="05.679643"><ele>33</ele><time>2012-03-25T14:44:26Z</time><cmt>0.2 kmh</cmt></trkpt>
<trkpt lat="58.768420" lon="05.679644"><ele>33</ele><time>2012-03-25T14:44:27Z</time><cmt>0.2 kmh</cmt></trkpt>
<trkpt lat="58.768418" lon="05.679643"><ele>33</ele><time>2012-03-25T14:44:28Z</time><cmt>0.4 kmh</cmt></trkpt>
<trkpt lat="58.768416" lon="05.679640"><ele>34</ele><time>2012-03-25T14:44:30Z</time><cmt>0.8 kmh</cmt></trkpt>
<trkpt lat="58.768414" lon="05.679637"><ele>34</ele><time>2012-03-25T14:44:31Z</time><cmt>0.9 kmh</cmt></trkpt>
<trkpt lat="58.768412" lon="05.679636"><ele>34</ele><time>2012-03-25T14:44:32Z</time><cmt>0.9 kmh</cmt></trkpt>
<trkpt lat="58.768411" lon="05.679635"><ele>34</ele><time>2012-03-25T14:44:32Z</time><cmt>0.6 kmh</cmt></trkpt>
<trkpt lat="58.768411" lon="05.679634"><ele>34</ele><time>2012-03-25T14:44:33Z</time><cmt>0.5 kmh</cmt></trkpt>
<trkpt lat="58.768411" lon="05.679634"><ele>34</ele><time>2012-03-25T14:44:34Z</time><cmt>0.3 kmh</cmt></trkpt>
<trkpt lat="58.768409" lon="05.679629"><ele>34</ele><time>2012-03-25T14:44:35Z</time><cmt>0.7 kmh</cmt></trkpt>
<trkpt lat="58.768407" lon="05.679622"><ele>34</ele><time>2012-03-25T14:44:37Z</time><cmt>1.2 kmh</cmt></trkpt>
<trkpt lat="58.768405" lon="05.679617"><ele>34</ele><time>2012-03-25T14:44:38Z</time><cmt>1.3 kmh</cmt></trkpt>
<trkpt lat="58.768403" lon="05.679611"><ele>34</ele><time>2012-03-25T14:44:38Z</time><cmt>1.5 kmh</cmt></trkpt>
<trkpt lat="58.768402" lon="05.679608"><ele>34</ele><time>2012-03-25T14:44:39Z</time><cmt>1.1 kmh</cmt></trkpt>
<trkpt lat="58.768401" lon="05.679606"><ele>34</ele><time>2012-03-25T14:44:40Z</time><cmt>0.7 kmh</cmt></trkpt>
<trkpt lat="58.768400" lon="05.679605"><ele>33</ele><time>2012-03-25T14:44:41Z</time><cmt>0.6 kmh</cmt></trkpt>
<trkpt lat="58.768400" lon="05.679603"><ele>33</ele><time>2012-03-25T14:44:43Z</time><cmt>0.2 kmh</cmt></trkpt>
<trkpt lat="58.768399" lon="05.679602"><ele>33</ele><time>2012-03-25T14:44:44Z</time><cmt>0.0 kmh</cmt></trkpt>
<trkpt lat="58.768398" lon="05.679601"><ele>33</ele><time>2012-03-25T14:44:45Z</time><cmt>0.0 kmh</cmt></trkpt>
<trkpt lat="58.768398" lon="05.679601"><ele>33</ele><time>2012-03-25T14:44:45Z</time><cmt>0.0 kmh</cmt></trkpt>
<trkpt lat="58.768344" lon="05.679582"><ele>33</ele><time>2012-03-25T14:45:23Z</time><cmt>5.0 kmh</cmt></trkpt>
<trkpt lat="58.768344" lon="05.679581"><ele>33</ele><time>2012-03-25T14:45:24Z</time><cmt>5.0 kmh</cmt></trkpt>
<trkpt lat="58.768344" lon="05.679581"><ele>33</ele><time>2012-03-25T14:45:26Z</time><cmt>0.0 kmh</cmt></trkpt>
<trkpt lat="58.768344" lon="05.679581"><ele>33</ele><time>2012-03-25T14:45:27Z</time><cmt>0.0 kmh</cmt></trkpt>
<trkpt lat="58.768344" lon="05.679581"><ele>33</ele><time>2012-03-25T14:45:28Z</time><cmt>0.0 kmh</cmt></trkpt>
<trkpt lat="58.768345" lon="05.679581"><ele>33</ele><time>2012-03-25T14:45:28Z</time><cmt>0.0 kmh</cmt></trkpt>
<trkpt lat="58.768346" lon="05.679580"><ele>33</ele><time>2012-03-25T14:45:29Z</time><cmt>0.3 kmh</cmt></trkpt>
<trkpt lat="58.768347" lon="05.679580"><ele>33</ele><time>2012-03-25T14:45:30Z</time><cmt>0.5 kmh</cmt></trkpt>
<trkpt lat="58.768348" lon="05.679580"><ele>34</ele><time>2012-03-25T14:45:32Z</time><cmt>0.4 kmh</cmt></trkpt>
<trkpt lat="58.768349" lon="05.679580"><ele>34</ele><time>2012-03-25T14:45:33Z</time><cmt>0.4 kmh</cmt></trkpt>
<trkpt lat="58.768350" lon="05.679580"><ele>34</ele><time>2012-03-25T14:45:34Z</time><cmt>0.4 kmh</cmt></trkpt>
<trkpt lat="58.768351" lon="05.679580"><ele>34</ele><time>2012-03-25T14:45:34Z</time><cmt>0.4 kmh</cmt></trkpt>
<trkpt lat="58.768352" lon="05.679580"><ele>34</ele><time>2012-03-25T14:45:35Z</time><cmt>0.4 kmh</cmt></trkpt>
<trkpt lat="58.768353" lon="05.679580"><ele>34</ele><time>2012-03-25T14:45:36Z</time><cmt>0.2 kmh</cmt></trkpt>
<trkpt lat="58.768353" lon="05.679580"><ele>34</ele><time>2012-03-25T14:45:37Z</time><cmt>0.0 kmh</cmt></trkpt>
<trkpt lat="58.768353" lon="05.679581"><ele>34</ele><time>2012-03-25T14:45:39Z</time><cmt>0.0 kmh</cmt></trkpt>
<trkpt lat="58.768353" lon="05.679581"><ele>34</ele><time>2012-03-25T14:45:40Z</time><cmt>0.0 kmh</cmt></trkpt>
<trkpt lat="58.768354" lon="05.679582"><ele>34</ele><time>2012-03-25T14:45:40Z</time><cmt>0.0 kmh</cmt></trkpt>
<trkpt lat="58.768354" lon="05.679583"><ele>34</ele><time>2012-03-25T14:45:41Z</time><cmt>0.3 kmh</cmt></trkpt>
<trkpt lat="58.768355" lon="05.679585"><ele>34</ele><time>2012-03-25T14:45:42Z</time><cmt>0.5 kmh</cmt></trkpt>
<trkpt lat="58.768356" lon="05.679586"><ele>34</ele><time>2012-03-25T14:45:43Z</time><cmt>0.3 kmh</cmt></trkpt>
<trkpt lat="58.768356" lon="05.679586"><ele>34</ele><time>2012-03-25T14:45:45Z</time><cmt>0.0 kmh</cmt></trkpt>
<trkpt lat="58.768357" lon="05.679587"><ele>34</ele><time>2012-03-25T14:45:46Z</time><cmt>0.0 kmh</cmt></trkpt>
<trkpt lat="58.768357" lon="05.679588"><ele>34</ele><time>2012-03-25T14:45:47Z</time><cmt>0.2 kmh</cmt></trkpt>
<trkpt lat="58.768358" lon="05.679589"><ele>34</ele><time>2012-03-25T14:45:47Z</time><cmt>0.2 kmh</cmt></trkpt>
<trkpt lat="58.768358" lon="05.679591"><ele>34</ele><time>2012-03-25T14:45:48Z</time><cmt>0.3 kmh</cmt></trkpt>
<trkpt lat="58.768359" lon="05.679592"><ele>34</ele><time>2012-03-25T14:45:49Z</time><cmt>0.3 kmh</cmt></trkpt>
<trkpt lat="58.768360" lon="05.679594"><ele>34</ele><time>2012-03-25T14:45:51Z</time><cmt>0.2 kmh</cmt></trkpt>
<trkpt lat="58.768360" lon="05.679597"><ele>34</ele><time>2012-03-25T14:45:52Z</time><cmt>0.5 kmh</cmt></trkpt>
<trkpt lat="58.768361" lon="05.679598"><ele>33</ele><time>2012-03-25T14:45:53Z</time><cmt>0.6 kmh</cmt></trkpt>
<trkpt lat="58.768361" lon="05.679599"><ele>33</ele><time>2012-03-25T14:45:53Z</time><cmt>0.3 kmh</cmt></trkpt>
<trkpt lat="58.768361" lon="05.679601"><ele>33</ele><time>2012-03-25T14:45:54Z</time><cmt>0.0 kmh</cmt></trkpt>
<trkpt lat="58.768361" lon="05.679602"><ele>33</ele><time>2012-03-25T14:45:55Z</time><cmt>0.2 kmh</cmt></trkpt>
<trkpt lat="58.768362" lon="05.679604"><ele>33</ele><time>2012-03-25T14:45:57Z</time><cmt>0.4 kmh</cmt></trkpt>
<trkpt lat="58.768362" lon="05.679606"><ele>33</ele><time>2012-03-25T14:45:58Z</time><cmt>0.5 kmh</cmt></trkpt>
<trkpt lat="58.768363" lon="05.679608"><ele>33</ele><time>2012-03-25T14:45:59Z</time><cmt>0.6 kmh</cmt></trkpt>
<trkpt lat="58.768364" lon="05.679610"><ele>33</ele><time>2012-03-25T14:45:59Z</time><cmt>0.6 kmh</cmt></trkpt>
<trkpt lat="58.768364" lon="05.679612"><ele>33</ele><time>2012-03-25T14:46:00Z</time><cmt>0.6 kmh</cmt></trkpt>
<trkpt lat="58.768365" lon="05.679614"><ele>33</ele><time>2012-03-25T14:46:01Z</time><cmt>0.5 kmh</cmt></trkpt>
<trkpt lat="58.768365" lon="05.679615"><ele>33</ele><time>2012-03-25T14:46:03Z</time><cmt>0.2 kmh</cmt></trkpt>
<trkpt lat="58.768366" lon="05.679617"><ele>33</ele><time>2012-03-25T14:46:04Z</time><cmt>0.0 kmh</cmt></trkpt>
<trkpt lat="58.768367" lon="05.679620"><ele>32</ele><time>2012-03-25T14:46:05Z</time><cmt>0.3 kmh</cmt></trkpt>
<trkpt lat="58.768368" lon="05.679622"><ele>32</ele><time>2012-03-25T14:46:05Z</time><cmt>0.3 kmh</cmt></trkpt>
<trkpt lat="58.768368" lon="05.679623"><ele>32</ele><time>2012-03-25T14:46:06Z</time><cmt>0.3 kmh</cmt></trkpt>
<trkpt lat="58.768369" lon="05.679625"><ele>32</ele><time>2012-03-25T14:46:07Z</time><cmt>0.5 kmh</cmt></trkpt>
<trkpt lat="58.768369" lon="05.679627"><ele>32</ele><time>2012-03-25T14:46:08Z</time><cmt>0.5 kmh</cmt></trkpt>
<trkpt lat="58.768369" lon="05.679628"><ele>32</ele><time>2012-03-25T14:46:10Z</time><cmt>0.4 kmh</cmt></trkpt>
<trkpt lat="58.768370" lon="05.679630"><ele>32</ele><time>2012-03-25T14:46:11Z</time><cmt>0.4 kmh</cmt></trkpt>
<trkpt lat="58.768370" lon="05.679631"><ele>32</ele><time>2012-03-25T14:46:11Z</time><cmt>0.3 kmh</cmt></trkpt>
<trkpt lat="58.768370" lon="05.679632"><ele>31</ele><time>2012-03-25T14:46:12Z</time><cmt>0.0 kmh</cmt></trkpt>
<trkpt lat="58.768370" lon="05.679633"><ele>31</ele><time>2012-03-25T14:46:13Z</time><cmt>0.0 kmh</cmt></trkpt>
<trkpt lat="58.768371" lon="05.679634"><ele>31</ele><time>2012-03-25T14:46:14Z</time><cmt>0.3 kmh</cmt></trkpt>
<trkpt lat="58.768371" lon="05.679636"><ele>31</ele><time>2012-03-25T14:46:16Z</time><cmt>0.4 kmh</cmt></trkpt>
<trkpt lat="58.768372" lon="05.679637"><ele>31</ele><time>2012-03-25T14:46:17Z</time><cmt>0.1 kmh</cmt></trkpt>
<trkpt lat="58.768372" lon="05.679638"><ele>31</ele><time>2012-03-25T14:46:18Z</time><cmt>0.0 kmh</cmt></trkpt>
<trkpt lat="58.768372" lon="05.679639"><ele>31</ele><time>2012-03-25T14:46:18Z</time><cmt>0.0 kmh</cmt></trkpt>
<trkpt lat="58.768373" lon="05.679640"><ele>31</ele><time>2012-03-25T14:46:19Z</time><cmt>0.0 kmh</cmt></trkpt>
<trkpt lat="58.768373" lon="05.679640"><ele>30</ele><time>2012-03-25T14:46:20Z</time><cmt>0.0 kmh</cmt></trkpt>
<trkpt lat="58.768373" lon="05.679641"><ele>30</ele><time>2012-03-25T14:46:22Z</time><cmt>0.0 kmh</cmt></trkpt>
<trkpt lat="58.768373" lon="05.679642"><ele>30</ele><time>2012-03-25T14:46:23Z</time><cmt>0.0 kmh</cmt></trkpt>
<trkpt lat="58.768373" lon="05.679642"><ele>30</ele><time>2012-03-25T14:46:24Z</time><cmt>0.0 kmh</cmt></trkpt>
<trkpt lat="58.768373" lon="05.679643"><ele>30</ele><time>2012-03-25T14:46:24Z</time><cmt>0.0 kmh</cmt></trkpt>
<trkpt lat="58.768373" lon="05.679644"><ele>30</ele><time>2012-03-25T14:46:25Z</time><cmt>0.0 kmh</cmt></trkpt>
<trkpt lat="58.768373" lon="05.679644"><ele>30</ele><time>2012-03-25T14:46:26Z</time><cmt>0.0 kmh</cmt></trkpt>
<trkpt lat="58.768373" lon="05.679645"><ele>30</ele><time>2012-03-25T14:46:28Z</time><cmt>0.0 kmh</cmt></trkpt>
<trkpt lat="58.768373" lon="05.679645"><ele>29</ele><time>2012-03-25T14:46:29Z</time><cmt>0.0 kmh</cmt></trkpt>
<trkpt lat="58.768373" lon="05.679646"><ele>29</ele><time>2012-03-25T14:46:30Z</time><cmt>0.2 kmh</cmt></trkpt>
<trkpt lat="58.768373" lon="05.679647"><ele>29</ele><time>2012-03-25T14:46:30Z</time><cmt>0.2 kmh</cmt></trkpt>
<trkpt lat="58.768373" lon="05.679648"><ele>29</ele><time>2012-03-25T14:46:31Z</time><cmt>0.2 kmh</cmt></trkpt>
<trkpt lat="58.768373" lon="05.679648"><ele>29</ele><time>2012-03-25T14:46:32Z</time><cmt>0.2 kmh</cmt></trkpt>
<trkpt lat="58.768373" lon="05.679649"><ele>29</ele><time>2012-03-25T14:46:34Z</time><cmt>0.0 kmh</cmt></trkpt>
<trkpt lat="58.768373" lon="05.679650"><ele>29</ele><time>2012-03-25T14:46:35Z</time><cmt>0.0 kmh</cmt></trkpt>
<trkpt lat="58.768373" lon="05.679650"><ele>29</ele><time>2012-03-25T14:46:36Z</time><cmt>0.0 kmh</cmt></trkpt>
<trkpt lat="58.768373" lon="05.679650"><ele>29</ele><time>2012-03-25T14:46:36Z</time><cmt>0.0 kmh</cmt></trkpt>
<trkpt lat="58.768373" lon="05.679651"><ele>29</ele><time>2012-03-25T14:46:37Z</time><cmt>0.0 kmh</cmt></trkpt>
<trkpt lat="58.768372" lon="05.679651"><ele>29</ele><time>2012-03-25T14:46:38Z</time><cmt>0.3 kmh</cmt></trkpt>
<trkpt lat="58.768372" lon="05.679651"><ele>29</ele><time>2012-03-25T14:46:40Z</time><cmt>0.2 kmh</cmt></trkpt>
<trkpt lat="58.768371" lon="05.679651"><ele>29</ele><time>2012-03-25T14:46:41Z</time><cmt>0.0 kmh</cmt></trkpt>
<trkpt lat="58.768370" lon="05.679651"><ele>29</ele><time>2012-03-25T14:46:42Z</time><cmt>0.0 kmh</cmt></trkpt>
<trkpt lat="58.768370" lon="05.679651"><ele>29</ele><time>2012-03-25T14:46:42Z</time><cmt>0.0 kmh</cmt></trkpt>
<trkpt lat="58.768369" lon="05.679651"><ele>29</ele><time>2012-03-25T14:46:43Z</time><cmt>0.2 kmh</cmt></trkpt>
<trkpt lat="58.768367" lon="05.679651"><ele>29</ele><time>2012-03-25T14:46:44Z</time><cmt>0.5 kmh</cmt></trkpt>
<trkpt lat="58.768365" lon="05.679651"><ele>29</ele><time>2012-03-25T14:46:45Z</time><cmt>0.7 kmh</cmt></trkpt>
<trkpt lat="58.768363" lon="05.679650"><ele>29</ele><time>2012-03-25T14:46:47Z</time><cmt>0.7 kmh</cmt></trkpt>
<trkpt lat="58.768362" lon="05.679650"><ele>29</ele><time>2012-03-25T14:46:48Z</time><cmt>0.6 kmh</cmt></trkpt>
<trkpt lat="58.768361" lon="05.679650"><ele>29</ele><time>2012-03-25T14:46:48Z</time><cmt>0.5 kmh</cmt></trkpt>
<trkpt lat="58.768361" lon="05.679650"><ele>29</ele><time>2012-03-25T14:46:49Z</time><cmt>0.3 kmh</cmt></trkpt>
<trkpt lat="58.768360" lon="05.679650"><ele>29</ele><time>2012-03-25T14:46:50Z</time><cmt>0.0 kmh</cmt></trkpt>
<trkpt lat="58.768360" lon="05.679650"><ele>29</ele><time>2012-03-25T14:46:51Z</time><cmt>0.0 kmh</cmt></trkpt>
<trkpt lat="58.768360" lon="05.679650"><ele>29</ele><time>2012-03-25T14:46:53Z</time><cmt>0.0 kmh</cmt></trkpt>
<trkpt lat="58.768358" lon="05.679651"><ele>29</ele><time>2012-03-25T14:46:54Z</time><cmt>0.4 kmh</cmt></trkpt>
<trkpt lat="58.768355" lon="05.679653"><ele>29</ele><time>2012-03-25T14:46:55Z</time><cmt>1.2 kmh</cmt></trkpt>
<trkpt lat="58.768353" lon="05.679654"><ele>29</ele><time>2012-03-25T14:46:55Z</time><cmt>1.1 kmh</cmt></trkpt>
<trkpt lat="58.768351" lon="05.679655"><ele>29</ele><time>2012-03-25T14:46:56Z</time><cmt>0.7 kmh</cmt></trkpt>
<trkpt lat="58.768349" lon="05.679657"><ele>29</ele><time>2012-03-25T14:46:57Z</time><cmt>0.9 kmh</cmt></trkpt>
<trkpt lat="58.768346" lon="05.679658"><ele>29</ele><time>2012-03-25T14:46:59Z</time><cmt>0.8 kmh</cmt></trkpt>
<trkpt lat="58.768345" lon="05.679659"><ele>29</ele><time>2012-03-25T14:47:00Z</time><cmt>0.7 kmh</cmt></trkpt>
<trkpt lat="58.768344" lon="05.679659"><ele>29</ele><time>2012-03-25T14:47:01Z</time><cmt>0.6 kmh</cmt></trkpt>
<trkpt lat="58.768343" lon="05.679659"><ele>29</ele><time>2012-03-25T14:47:01Z</time><cmt>0.2 kmh</cmt></trkpt>
<trkpt lat="58.768342" lon="05.679660"><ele>29</ele><time>2012-03-25T14:47:02Z</time><cmt>0.3 kmh</cmt></trkpt>
<trkpt lat="58.768341" lon="05.679660"><ele>29</ele><time>2012-03-25T14:47:03Z</time><cmt>0.5 kmh</cmt></trkpt>
<trkpt lat="58.768341" lon="05.679660"><ele>29</ele><time>2012-03-25T14:47:05Z</time><cmt>0.2 kmh</cmt></trkpt>
<trkpt lat="58.768341" lon="05.679659"><ele>29</ele><time>2012-03-25T14:47:06Z</time><cmt>0.0 kmh</cmt></trkpt>
<trkpt lat="58.768342" lon="05.679659"><ele>29</ele><time>2012-03-25T14:47:07Z</time><cmt>0.0 kmh</cmt></trkpt>
<trkpt lat="58.768342" lon="05.679658"><ele>29</ele><time>2012-03-25T14:47:07Z</time><cmt>0.0 kmh</cmt></trkpt>
<trkpt lat="58.768343" lon="05.679657"><ele>29</ele><time>2012-03-25T14:47:08Z</time><cmt>0.0 kmh</cmt></trkpt>
<trkpt lat="58.768344" lon="05.679657"><ele>29</ele><time>2012-03-25T14:47:09Z</time><cmt>0.0 kmh</cmt></trkpt>
<trkpt lat="58.768344" lon="05.679657"><ele>29</ele><time>2012-03-25T14:47:11Z</time><cmt>0.0 kmh</cmt></trkpt>
<trkpt lat="58.768345" lon="05.679657"><ele>29</ele><time>2012-03-25T14:47:12Z</time><cmt>0.0 kmh</cmt></trkpt>
<trkpt lat="58.768345" lon="05.679656"><ele>29</ele><time>2012-03-25T14:47:13Z</time><cmt>0.0 kmh</cmt></trkpt>
<trkpt lat="58.768346" lon="05.679655"><ele>29</ele><time>2012-03-25T14:47:13Z</time><cmt>0.0 kmh</cmt></trkpt>
<trkpt lat="58.768379" lon="05.679632"><ele>32</ele><time>2012-03-25T14:47:30Z</time><cmt>5.0 kmh</cmt></trkpt>
<trkpt lat="58.768380" lon="05.679631"><ele>32</ele><time>2012-03-25T14:47:31Z</time><cmt>5.0 kmh</cmt></trkpt>
<trkpt lat="58.768381" lon="05.679631"><ele>32</ele><time>2012-03-25T14:47:32Z</time><cmt>0.3 kmh</cmt></trkpt>
<trkpt lat="58.768383" lon="05.679629"><ele>32</ele><time>2012-03-25T14:47:32Z</time><cmt>0.7 kmh</cmt></trkpt>
<trkpt lat="58.768385" lon="05.679628"><ele>33</ele><time>2012-03-25T14:47:33Z</time><cmt>0.9 kmh</cmt></trkpt>
<trkpt lat="58.768386" lon="05.679627"><ele>33</ele><time>2012-03-25T14:47:34Z</time><cmt>0.7 kmh</cmt></trkpt>
<trkpt lat="58.768386" lon="05.679627"><ele>33</ele><time>2012-03-25T14:47:36Z</time><cmt>0.2 kmh</cmt></trkpt>
<trkpt lat="58.768386" lon="05.679626"><ele>33</ele><time>2012-03-25T14:47:37Z</time><cmt>0.1 kmh</cmt></trkpt>
<trkpt lat="58.768385" lon="05.679627"><ele>34</ele><time>2012-03-25T14:47:38Z</time><cmt>0.6 kmh</cmt></trkpt>
<trkpt lat="58.768385" lon="05.679626"><ele>34</ele><time>2012-03-25T14:47:38Z</time><cmt>0.4 kmh</cmt></trkpt>
<trkpt lat="58.768383" lon="05.679627"><ele>34</ele><time>2012-03-25T14:47:39Z</time><cmt>0.4 kmh</cmt></trkpt>
<trkpt lat="58.768382" lon="05.679627"><ele>34</ele><time>2012-03-25T14:47:40Z</time><cmt>0.6 kmh</cmt></trkpt>
<trkpt lat="58.768381" lon="05.679628"><ele>34</ele><time>2012-03-25T14:47:41Z</time><cmt>0.5 kmh</cmt></trkpt>
<trkpt lat="58.768380" lon="05.679628"><ele>35</ele><time>2012-03-25T14:47:43Z</time><cmt>0.2 kmh</cmt></trkpt>
<trkpt lat="58.768379" lon="05.679628"><ele>35</ele><time>2012-03-25T14:47:44Z</time><cmt>0.0 kmh</cmt></trkpt>
<trkpt lat="58.768379" lon="05.679629"><ele>35</ele><time>2012-03-25T14:47:44Z</time><cmt>0.0 kmh</cmt></trkpt>
<trkpt lat="58.768381" lon="05.679629"><ele>35</ele><time>2012-03-25T14:47:45Z</time><cmt>0.6 kmh</cmt></trkpt>
<trkpt lat="58.768384" lon="05.679630"><ele>35</ele><time>2012-03-25T14:47:46Z</time><cmt>1.1 kmh</cmt></trkpt>
<trkpt lat="58.768387" lon="05.679631"><ele>35</ele><time>2012-03-25T14:47:47Z</time><cmt>1.2 kmh</cmt></trkpt>
<trkpt lat="58.768390" lon="05.679632"><ele>35</ele><time>2012-03-25T14:47:49Z</time><cmt>1.1 kmh</cmt></trkpt>
<trkpt lat="58.768393" lon="05.679633"><ele>35</ele><time>2012-03-25T14:47:50Z</time><cmt>1.2 kmh</cmt></trkpt>
<trkpt lat="58.768395" lon="05.679634"><ele>35</ele><time>2012-03-25T14:47:50Z</time><cmt>1.3 kmh</cmt></trkpt>
<trkpt lat="58.768396" lon="05.679635"><ele>36</ele><time>2012-03-25T14:47:51Z</time><cmt>0.8 kmh</cmt></trkpt>
<trkpt lat="58.768396" lon="05.679637"><ele>36</ele><time>2012-03-25T14:47:52Z</time><cmt>0.5 kmh</cmt></trkpt>
<trkpt lat="58.768397" lon="05.679638"><ele>36</ele><time>2012-03-25T14:47:53Z</time><cmt>0.3 kmh</cmt></trkpt>
<trkpt lat="58.768396" lon="05.679639"><ele>36</ele><time>2012-03-25T14:47:55Z</time><cmt>0.0 kmh</cmt></trkpt>
<trkpt lat="58.768395" lon="05.679639"><ele>36</ele><time>2012-03-25T14:47:56Z</time><cmt>0.1 kmh</cmt></trkpt>
<trkpt lat="58.768393" lon="05.679639"><ele>36</ele><time>2012-03-25T14:47:57Z</time><cmt>0.6 kmh</cmt></trkpt>
<trkpt lat="58.768392" lon="05.679639"><ele>36</ele><time>2012-03-25T14:47:57Z</time><cmt>0.6 kmh</cmt></trkpt>
<trkpt lat="58.768393" lon="05.679639"><ele>36</ele><time>2012-03-25T14:47:58Z</time><cmt>0.2 kmh</cmt></trkpt>
<trkpt lat="58.768395" lon="05.679639"><ele>36</ele><time>2012-03-25T14:47:59Z</time><cmt>0.5 kmh</cmt></trkpt>
<trkpt lat="58.768397" lon="05.679639"><ele>36</ele><time>2012-03-25T14:48:01Z</time><cmt>0.8 kmh</cmt></trkpt>
<trkpt lat="58.768401" lon="05.679639"><ele>36</ele><time>2012-03-25T14:48:02Z</time><cmt>1.1 kmh</cmt></trkpt>
<trkpt lat="58.768403" lon="05.679638"><ele>36</ele><time>2012-03-25T14:48:03Z</time><cmt>1.3 kmh</cmt></trkpt>
<trkpt lat="58.768406" lon="05.679638"><ele>36</ele><time>2012-03-25T14:48:03Z</time><cmt>1.1 kmh</cmt></trkpt>
<trkpt lat="58.768409" lon="05.679638"><ele>37</ele><time>2012-03-25T14:48:04Z</time><cmt>1.2 kmh</cmt></trkpt>
<trkpt lat="58.768411" lon="05.679638"><ele>37</ele><time>2012-03-25T14:48:05Z</time><cmt>1.1 kmh</cmt></trkpt>
<trkpt lat="58.768412" lon="05.679638"><ele>37</ele><time>2012-03-25T14:48:07Z</time><cmt>0.6 kmh</cmt></trkpt>
<trkpt lat="58.768414" lon="05.679638"><ele>37</ele><time>2012-03-25T14:48:08Z</time><cmt>0.4 kmh</cmt></trkpt>
<trkpt lat="58.768414" lon="05.679637"><ele>37</ele><time>2012-03-25T14:48:09Z</time><cmt>0.5 kmh</cmt></trkpt>
<trkpt lat="58.768414" lon="05.679637"><ele>37</ele><time>2012-03-25T14:48:09Z</time><cmt>0.2 kmh</cmt></trkpt>
<trkpt lat="58.768413" lon="05.679636"><ele>37</ele><time>2012-03-25T14:48:10Z</time><cmt>0.3 kmh</cmt></trkpt>
<trkpt lat="58.768411" lon="05.679636"><ele>37</ele><time>2012-03-25T14:48:11Z</time><cmt>0.5 kmh</cmt></trkpt>
<trkpt lat="58.768410" lon="05.679636"><ele>37</ele><time>2012-03-25T14:48:13Z</time><cmt>0.5 kmh</cmt></trkpt>
<trkpt lat="58.768409" lon="05.679636"><ele>37</ele><time>2012-03-25T14:48:14Z</time><cmt>0.4 kmh</cmt></trkpt>
<trkpt lat="58.768408" lon="05.679635"><ele>37</ele><time>2012-03-25T14:48:15Z</time><cmt>0.2 kmh</cmt></trkpt>
<trkpt lat="58.768407" lon="05.679635"><ele>37</ele><time>2012-03-25T14:48:15Z</time><cmt>0.2 kmh</cmt></trkpt>
<trkpt lat="58.768406" lon="05.679635"><ele>37</ele><time>2012-03-25T14:48:16Z</time><cmt>0.2 kmh</cmt></trkpt>
<trkpt lat="58.768405" lon="05.679634"><ele>37</ele><time>2012-03-25T14:48:17Z</time><cmt>0.0 kmh</cmt></trkpt>
<trkpt lat="58.768404" lon="05.679634"><ele>37</ele><time>2012-03-25T14:48:18Z</time><cmt>0.3 kmh</cmt></trkpt>
<trkpt lat="58.768403" lon="05.679634"><ele>37</ele><time>2012-03-25T14:48:20Z</time><cmt>0.4 kmh</cmt></trkpt>
<trkpt lat="58.768401" lon="05.679633"><ele>37</ele><time>2012-03-25T14:48:21Z</time><cmt>0.4 kmh</cmt></trkpt>
<trkpt lat="58.768400" lon="05.679633"><ele>37</ele><time>2012-03-25T14:48:21Z</time><cmt>0.5 kmh</cmt></trkpt>
<trkpt lat="58.768398" lon="05.679633"><ele>37</ele><time>2012-03-25T14:48:22Z</time><cmt>0.7 kmh</cmt></trkpt>
<trkpt lat="58.768397" lon="05.679633"><ele>37</ele><time>2012-03-25T14:48:23Z</time><cmt>0.7 kmh</cmt></trkpt>
<trkpt lat="58.768395" lon="05.679634"><ele>37</ele><time>2012-03-25T14:48:24Z</time><cmt>0.6 kmh</cmt></trkpt>
<trkpt lat="58.768393" lon="05.679634"><ele>37</ele><time>2012-03-25T14:48:26Z</time><cmt>0.6 kmh</cmt></trkpt>
<trkpt lat="58.768392" lon="05.679635"><ele>37</ele><time>2012-03-25T14:48:27Z</time><cmt>0.6 kmh</cmt></trkpt>
<trkpt lat="58.768390" lon="05.679636"><ele>37</ele><time>2012-03-25T14:48:28Z</time><cmt>0.7 kmh</cmt></trkpt>
<trkpt lat="58.768388" lon="05.679637"><ele>37</ele><time>2012-03-25T14:48:28Z</time><cmt>0.8 kmh</cmt></trkpt>
<trkpt lat="58.768386" lon="05.679638"><ele>36</ele><time>2012-03-25T14:48:29Z</time><cmt>0.8 kmh</cmt></trkpt>
<trkpt lat="58.768385" lon="05.679638"><ele>36</ele><time>2012-03-25T14:48:30Z</time><cmt>0.7 kmh</cmt></trkpt>
<trkpt lat="58.768383" lon="05.679639"><ele>36</ele><time>2012-03-25T14:48:32Z</time><cmt>0.6 kmh</cmt></trkpt>
<trkpt lat="58.768381" lon="05.679639"><ele>36</ele><time>2012-03-25T14:48:33Z</time><cmt>0.7 kmh</cmt></trkpt>
<trkpt lat="58.768379" lon="05.679640"><ele>36</ele><time>2012-03-25T14:48:34Z</time><cmt>0.9 kmh</cmt></trkpt>
<trkpt lat="58.768377" lon="05.679640"><ele>36</ele><time>2012-03-25T14:48:34Z</time><cmt>0.8 kmh</cmt></trkpt>
<trkpt lat="58.768375" lon="05.679640"><ele>35</ele><time>2012-03-25T14:48:35Z</time><cmt>0.8 kmh</cmt></trkpt>
<trkpt lat="58.768375" lon="05.679640"><ele>35</ele><time>2012-03-25T14:48:36Z</time><cmt>0.5 kmh</cmt></trkpt>
<trkpt lat="58.768376" lon="05.679637"><ele>35</ele><time>2012-03-25T14:48:38Z</time><cmt>0.5 kmh</cmt></trkpt>
<trkpt lat="58.768377" lon="05.679634"><ele>35</ele><time>2012-03-25T14:48:39Z</time><cmt>0.5 kmh</cmt></trkpt>
<trkpt lat="58.768379" lon="05.679635"><ele>35</ele><time>2012-03-25T14:48:40Z</time><cmt>0.8 kmh</cmt></trkpt>
<trkpt lat="58.768378" lon="05.679635"><ele>35</ele><time>2012-03-25T14:48:40Z</time><cmt>0.4 kmh</cmt></trkpt>
<trkpt lat="58.768377" lon="05.679632"><ele>35</ele><time>2012-03-25T14:48:41Z</time><cmt>0.5 kmh</cmt></trkpt>
<trkpt lat="58.768375" lon="05.679628"><ele>35</ele><time>2012-03-25T14:48:42Z</time><cmt>1.0 kmh</cmt></trkpt>
<trkpt lat="58.768373" lon="05.679624"><ele>35</ele><time>2012-03-25T14:48:44Z</time><cmt>1.0 kmh</cmt></trkpt>
<trkpt lat="58.768371" lon="05.679558"><ele>14</ele><time>2012-03-25T14:50:14Z</time><cmt>4.3 kmh</cmt></trkpt>
<trkpt lat="58.768376" lon="05.679552"><ele>14</ele><time>2012-03-25T14:50:14Z</time><cmt>5.0 kmh</cmt></trkpt>
<trkpt lat="58.768382" lon="05.679543"><ele>14</ele><time>2012-03-25T14:50:15Z</time><cmt>2.9 kmh</cmt></trkpt>
<trkpt lat="58.768385" lon="05.679537"><ele>14</ele><time>2012-03-25T14:50:16Z</time><cmt>2.7 kmh</cmt></trkpt>
<trkpt lat="58.768392" lon="05.679534"><ele>14</ele><time>2012-03-25T14:50:18Z</time><cmt>2.0 kmh</cmt></trkpt>
<trkpt lat="58.768397" lon="05.679533"><ele>14</ele><time>2012-03-25T14:50:19Z</time><cmt>2.0 kmh</cmt></trkpt>
<trkpt lat="58.768401" lon="05.679532"><ele>14</ele><time>2012-03-25T14:50:20Z</time><cmt>2.1 kmh</cmt></trkpt>
<trkpt lat="58.768403" lon="05.679533"><ele>14</ele><time>2012-03-25T14:50:20Z</time><cmt>1.3 kmh</cmt></trkpt>
<trkpt lat="58.768404" lon="05.679532"><ele>14</ele><time>2012-03-25T14:50:21Z</time><cmt>0.3 kmh</cmt></trkpt>
<trkpt lat="58.768403" lon="05.679531"><ele>14</ele><time>2012-03-25T14:50:22Z</time><cmt>0.2 kmh</cmt></trkpt>
<trkpt lat="58.768402" lon="05.679531"><ele>14</ele><time>2012-03-25T14:50:24Z</time><cmt>0.4 kmh</cmt></trkpt>
<trkpt lat="58.768401" lon="05.679530"><ele>14</ele><time>2012-03-25T14:50:25Z</time><cmt>0.4 kmh</cmt></trkpt>
<trkpt lat="58.768401" lon="05.679528"><ele>14</ele><time>2012-03-25T14:50:26Z</time><cmt>0.5 kmh</cmt></trkpt>
<trkpt lat="58.768402" lon="05.679526"><ele>15</ele><time>2012-03-25T14:50:26Z</time><cmt>0.4 kmh</cmt></trkpt>
<trkpt lat="58.768403" lon="05.679524"><ele>15</ele><time>2012-03-25T14:50:27Z</time><cmt>0.6 kmh</cmt></trkpt>
<trkpt lat="58.768406" lon="05.679522"><ele>15</ele><time>2012-03-25T14:50:28Z</time><cmt>1.2 kmh</cmt></trkpt>
<trkpt lat="58.768408" lon="05.679522"><ele>15</ele><time>2012-03-25T14:50:30Z</time><cmt>0.9 kmh</cmt></trkpt>
<trkpt lat="58.768411" lon="05.679522"><ele>15</ele><time>2012-03-25T14:50:31Z</time><cmt>0.8 kmh</cmt></trkpt>
<trkpt lat="58.768413" lon="05.679521"><ele>16</ele><time>2012-03-25T14:50:32Z</time><cmt>1.0 kmh</cmt></trkpt>
<trkpt lat="58.768415" lon="05.679519"><ele>16</ele><time>2012-03-25T14:50:32Z</time><cmt>0.8 kmh</cmt></trkpt>
<trkpt lat="58.768416" lon="05.679518"><ele>16</ele><time>2012-03-25T14:50:33Z</time><cmt>0.7 kmh</cmt></trkpt>
<trkpt lat="58.768430" lon="05.679515"><ele>19</ele><time>2012-03-25T14:50:44Z</time><cmt>2.4 kmh</cmt></trkpt>
<trkpt lat="58.768427" lon="05.679516"><ele>19</ele><time>2012-03-25T14:50:45Z</time><cmt>3.6 kmh</cmt></trkpt>
<trkpt lat="58.768423" lon="05.679518"><ele>20</ele><time>2012-03-25T14:50:45Z</time><cmt>1.4 kmh</cmt></trkpt>
<trkpt lat="58.768419" lon="05.679519"><ele>20</ele><time>2012-03-25T14:50:46Z</time><cmt>1.8 kmh</cmt></trkpt>
<trkpt lat="58.768416" lon="05.679520"><ele>20</ele><time>2012-03-25T14:50:47Z</time><cmt>1.6 kmh</cmt></trkpt>
<trkpt lat="58.768413" lon="05.679521"><ele>20</ele><time>2012-03-25T14:50:49Z</time><cmt>1.1 kmh</cmt></trkpt>
<trkpt lat="58.768411" lon="05.679522"><ele>20</ele><time>2012-03-25T14:50:50Z</time><cmt>0.9 kmh</cmt></trkpt>
<trkpt lat="58.768414" lon="05.679523"><ele>20</ele><time>2012-03-25T14:50:51Z</time><cmt>0.9 kmh</cmt></trkpt>
<trkpt lat="58.768417" lon="05.679525"><ele>20</ele><time>2012-03-25T14:50:51Z</time><cmt>1.1 kmh</cmt></trkpt>
<trkpt lat="58.768420" lon="05.679528"><ele>21</ele><time>2012-03-25T14:50:52Z</time><cmt>1.4 kmh</cmt></trkpt>
<trkpt lat="58.768424" lon="05.679530"><ele>21</ele><time>2012-03-25T14:50:53Z</time><cmt>1.6 kmh</cmt></trkpt>
<trkpt lat="58.768428" lon="05.679532"><ele>21</ele><time>2012-03-25T14:50:55Z</time><cmt>1.4 kmh</cmt></trkpt>
<trkpt lat="58.768431" lon="05.679534"><ele>21</ele><time>2012-03-25T14:50:56Z</time><cmt>1.4 kmh</cmt></trkpt>
<trkpt lat="58.768433" lon="05.679536"><ele>21</ele><time>2012-03-25T14:50:57Z</time><cmt>1.2 kmh</cmt></trkpt>
<trkpt lat="58.768436" lon="05.679537"><ele>22</ele><time>2012-03-25T14:50:57Z</time><cmt>1.1 kmh</cmt></trkpt>
<trkpt lat="58.768440" lon="05.679538"><ele>22</ele><time>2012-03-25T14:50:58Z</time><cmt>1.4 kmh</cmt></trkpt>
<trkpt lat="58.768443" lon="05.679538"><ele>22</ele><time>2012-03-25T14:50:59Z</time><cmt>1.5 kmh</cmt></trkpt>
<trkpt lat="58.768449" lon="05.679538"><ele>23</ele><time>2012-03-25T14:51:01Z</time><cmt>1.5 kmh</cmt></trkpt>
<trkpt lat="58.768451" lon="05.679537"><ele>23</ele><time>2012-03-25T14:51:02Z</time><cmt>1.3 kmh</cmt></trkpt>
<trkpt lat="58.768454" lon="05.679537"><ele>23</ele><time>2012-03-25T14:51:03Z</time><cmt>1.1 kmh</cmt></trkpt>
<trkpt lat="58.768456" lon="05.679536"><ele>23</ele><time>2012-03-25T14:51:03Z</time><cmt>1.1 kmh</cmt></trkpt>
<trkpt lat="58.768456" lon="05.679537"><ele>24</ele><time>2012-03-25T14:51:04Z</time><cmt>0.6 kmh</cmt></trkpt>
<trkpt lat="58.768455" lon="05.679537"><ele>24</ele><time>2012-03-25T14:51:05Z</time><cmt>0.6 kmh</cmt></trkpt>
<trkpt lat="58.768454" lon="05.679538"><ele>24</ele><time>2012-03-25T14:51:06Z</time><cmt>0.6 kmh</cmt></trkpt>
<trkpt lat="58.768459" lon="05.679537"><ele>26</ele><time>2012-03-25T14:51:16Z</time><cmt>0.8 kmh</cmt></trkpt>
<trkpt lat="58.768468" lon="05.679535"><ele>26</ele><time>2012-03-25T14:51:17Z</time><cmt>3.0 kmh</cmt></trkpt>
<trkpt lat="58.768474" lon="05.679534"><ele>26</ele><time>2012-03-25T14:51:18Z</time><cmt>3.2 kmh</cmt></trkpt>
<trkpt lat="58.768480" lon="05.679535"><ele>26</ele><time>2012-03-25T14:51:20Z</time><cmt>2.2 kmh</cmt></trkpt>
<trkpt lat="58.768488" lon="05.679536"><ele>26</ele><time>2012-03-25T14:51:21Z</time><cmt>2.3 kmh</cmt></trkpt>
<trkpt lat="58.768497" lon="05.679537"><ele>26</ele><time>2012-03-25T14:51:22Z</time><cmt>5.1 kmh</cmt></trkpt>
<trkpt lat="58.768508" lon="05.679538"><ele>26</ele><time>2012-03-25T14:51:22Z</time><cmt>5.0 kmh</cmt></trkpt>
<trkpt lat="58.768519" lon="05.679539"><ele>26</ele><time>2012-03-25T14:51:23Z</time><cmt>5.4 kmh</cmt></trkpt>
<trkpt lat="58.768530" lon="05.679541"><ele>26</ele><time>2012-03-25T14:51:24Z</time><cmt>5.5 kmh</cmt></trkpt>
<trkpt lat="58.768542" lon="05.679542"><ele>26</ele><time>2012-03-25T14:51:26Z</time><cmt>6.0 kmh</cmt></trkpt>
<trkpt lat="58.768555" lon="05.679544"><ele>26</ele><time>2012-03-25T14:51:27Z</time><cmt>6.0 kmh</cmt></trkpt>
<trkpt lat="58.768568" lon="05.679546"><ele>26</ele><time>2012-03-25T14:51:28Z</time><cmt>6.4 kmh</cmt></trkpt>
<trkpt lat="58.768581" lon="05.679548"><ele>26</ele><time>2012-03-25T14:51:28Z</time><cmt>6.0 kmh</cmt></trkpt>
<trkpt lat="58.768594" lon="05.679551"><ele>26</ele><time>2012-03-25T14:51:29Z</time><cmt>5.7 kmh</cmt></trkpt>
<trkpt lat="58.768607" lon="05.679554"><ele>26</ele><time>2012-03-25T14:51:30Z</time><cmt>5.3 kmh</cmt></trkpt>
<trkpt lat="58.768618" lon="05.679558"><ele>26</ele><time>2012-03-25T14:51:32Z</time><cmt>5.3 kmh</cmt></trkpt>
<trkpt lat="58.768628" lon="05.679561"><ele>26</ele><time>2012-03-25T14:51:33Z</time><cmt>3.8 kmh</cmt></trkpt>
<trkpt lat="58.768638" lon="05.679565"><ele>25</ele><time>2012-03-25T14:51:34Z</time><cmt>4.4 kmh</cmt></trkpt>
<trkpt lat="58.768647" lon="05.679569"><ele>25</ele><time>2012-03-25T14:51:34Z</time><cmt>4.2 kmh</cmt></trkpt>
<trkpt lat="58.768656" lon="05.679573"><ele>25</ele><time>2012-03-25T14:51:35Z</time><cmt>4.0 kmh</cmt></trkpt>
<trkpt lat="58.768665" lon="05.679579"><ele>25</ele><time>2012-03-25T14:51:36Z</time><cmt>3.9 kmh</cmt></trkpt>
<trkpt lat="58.768674" lon="05.679585"><ele>25</ele><time>2012-03-25T14:51:37Z</time><cmt>4.2 kmh</cmt></trkpt>
<trkpt lat="58.768684" lon="05.679595"><ele>25</ele><time>2012-03-25T14:51:39Z</time><cmt>5.1 kmh</cmt></trkpt>
<trkpt lat="58.768695" lon="05.679607"><ele>25</ele><time>2012-03-25T14:51:40Z</time><cmt>5.4 kmh</cmt></trkpt>
<trkpt lat="58.768705" lon="05.679621"><ele>25</ele><time>2012-03-25T14:51:40Z</time><cmt>5.8 kmh</cmt></trkpt>
<trkpt lat="58.768716" lon="05.679639"><ele>24</ele><time>2012-03-25T14:51:41Z</time><cmt>6.6 kmh</cmt></trkpt>
<trkpt lat="58.768728" lon="05.679660"><ele>24</ele><time>2012-03-25T14:51:42Z</time><cmt>7.2 kmh</cmt></trkpt>
<trkpt lat="58.768741" lon="05.679684"><ele>24</ele><time>2012-03-25T14:51:43Z</time><cmt>7.8 kmh</cmt></trkpt>
<trkpt lat="58.768754" lon="05.679711"><ele>24</ele><time>2012-03-25T14:51:45Z</time><cmt>8.1 kmh</cmt></trkpt>
<trkpt lat="58.768768" lon="05.679738"><ele>24</ele><time>2012-03-25T14:51:46Z</time><cmt>8.2 kmh</cmt></trkpt>
<trkpt lat="58.768782" lon="05.679765"><ele>24</ele><time>2012-03-25T14:51:47Z</time><cmt>8.2 kmh</cmt></trkpt>
<trkpt lat="58.768797" lon="05.679791"><ele>24</ele><time>2012-03-25T14:51:47Z</time><cmt>8.3 kmh</cmt></trkpt>
<trkpt lat="58.768812" lon="05.679816"><ele>24</ele><time>2012-03-25T14:51:48Z</time><cmt>8.0 kmh</cmt></trkpt>
<trkpt lat="58.768827" lon="05.679840"><ele>24</ele><time>2012-03-25T14:51:49Z</time><cmt>8.1 kmh</cmt></trkpt>
<trkpt lat="58.768843" lon="05.679863"><ele>24</ele><time>2012-03-25T14:51:51Z</time><cmt>7.8 kmh</cmt></trkpt>
<trkpt lat="58.768859" lon="05.679885"><ele>24</ele><time>2012-03-25T14:51:52Z</time><cmt>8.2 kmh</cmt></trkpt>
<trkpt lat="58.768875" lon="05.679907"><ele>24</ele><time>2012-03-25T14:51:53Z</time><cmt>8.0 kmh</cmt></trkpt>
<trkpt lat="58.768891" lon="05.679928"><ele>24</ele><time>2012-03-25T14:51:53Z</time><cmt>7.8 kmh</cmt></trkpt>
<trkpt lat="58.768907" lon="05.679949"><ele>24</ele><time>2012-03-25T14:51:54Z</time><cmt>7.5 kmh</cmt></trkpt>
<trkpt lat="58.768922" lon="05.679969"><ele>24</ele><time>2012-03-25T14:51:55Z</time><cmt>7.7 kmh</cmt></trkpt>
<trkpt lat="58.768936" lon="05.679991"><ele>24</ele><time>2012-03-25T14:51:57Z</time><cmt>7.4 kmh</cmt></trkpt>
<trkpt lat="58.768951" lon="05.680012"><ele>24</ele><time>2012-03-25T14:51:58Z</time><cmt>7.4 kmh</cmt></trkpt>
<trkpt lat="58.768965" lon="05.680033"><ele>24</ele><time>2012-03-25T14:51:59Z</time><cmt>7.6 kmh</cmt></trkpt>
<trkpt lat="58.768980" lon="05.680055"><ele>24</ele><time>2012-03-25T14:51:59Z</time><cmt>7.6 kmh</cmt></trkpt>
<trkpt lat="58.768995" lon="05.680075"><ele>24</ele><time>2012-03-25T14:52:00Z</time><cmt>7.4 kmh</cmt></trkpt>
<trkpt lat="58.769010" lon="05.680096"><ele>24</ele><time>2012-03-25T14:52:01Z</time><cmt>7.5 kmh</cmt></trkpt>
<trkpt lat="58.769024" lon="05.680115"><ele>24</ele><time>2012-03-25T14:52:03Z</time><cmt>6.8 kmh</cmt></trkpt>
<trkpt lat="58.769038" lon="05.680132"><ele>24</ele><time>2012-03-25T14:52:04Z</time><cmt>6.2 kmh</cmt></trkpt>
<trkpt lat="58.769050" lon="05.680148"><ele>24</ele><time>2012-03-25T14:52:05Z</time><cmt>5.8 kmh</cmt></trkpt>
<trkpt lat="58.769061" lon="05.680165"><ele>24</ele><time>2012-03-25T14:52:05Z</time><cmt>5.4 kmh</cmt></trkpt>
<trkpt lat="58.769071" lon="05.680181"><ele>24</ele><time>2012-03-25T14:52:06Z</time><cmt>5.1 kmh</cmt></trkpt>
<trkpt lat="58.769080" lon="05.680197"><ele>24</ele><time>2012-03-25T14:52:07Z</time><cmt>5.1 kmh</cmt></trkpt>
<trkpt lat="58.769088" lon="05.680213"><ele>24</ele><time>2012-03-25T14:52:09Z</time><cmt>4.2 kmh</cmt></trkpt>
<trkpt lat="58.769096" lon="05.680230"><ele>24</ele><time>2012-03-25T14:52:10Z</time><cmt>4.1 kmh</cmt></trkpt>
<trkpt lat="58.769103" lon="05.680249"><ele>24</ele><time>2012-03-25T14:52:11Z</time><cmt>5.0 kmh</cmt></trkpt>
<trkpt lat="58.769110" lon="05.680270"><ele>24</ele><time>2012-03-25T14:52:11Z</time><cmt>5.8 kmh</cmt></trkpt>
<trkpt lat="58.769118" lon="05.680292"><ele>24</ele><time>2012-03-25T14:52:12Z</time><cmt>6.3 kmh</cmt></trkpt>
<trkpt lat="58.769126" lon="05.680318"><ele>24</ele><time>2012-03-25T14:52:13Z</time><cmt>6.7 kmh</cmt></trkpt>
<trkpt lat="58.769133" lon="05.680346"><ele>24</ele><time>2012-03-25T14:52:14Z</time><cmt>6.6 kmh</cmt></trkpt>
<trkpt lat="58.769141" lon="05.680374"><ele>24</ele><time>2012-03-25T14:52:16Z</time><cmt>6.6 kmh</cmt></trkpt>
<trkpt lat="58.769148" lon="05.680402"><ele>24</ele><time>2012-03-25T14:52:17Z</time><cmt>6.6 kmh</cmt></trkpt>
<trkpt lat="58.769154" lon="05.680431"><ele>24</ele><time>2012-03-25T14:52:18Z</time><cmt>6.6 kmh</cmt></trkpt>
<trkpt lat="58.769160" lon="05.680459"><ele>24</ele><time>2012-03-25T14:52:18Z</time><cmt>6.5 kmh</cmt></trkpt>
<trkpt lat="58.769166" lon="05.680489"><ele>24</ele><time>2012-03-25T14:52:19Z</time><cmt>6.7 kmh</cmt></trkpt>
<trkpt lat="58.769171" lon="05.680519"><ele>24</ele><time>2012-03-25T14:52:20Z</time><cmt>7.1 kmh</cmt></trkpt>
<trkpt lat="58.769177" lon="05.680551"><ele>24</ele><time>2012-03-25T14:52:22Z</time><cmt>6.9 kmh</cmt></trkpt>
<trkpt lat="58.769182" lon="05.680582"><ele>24</ele><time>2012-03-25T14:52:23Z</time><cmt>6.8 kmh</cmt></trkpt>
<trkpt lat="58.769188" lon="05.680613"><ele>24</ele><time>2012-03-25T14:52:24Z</time><cmt>6.8 kmh</cmt></trkpt>
<trkpt lat="58.769193" lon="05.680644"><ele>24</ele><time>2012-03-25T14:52:24Z</time><cmt>6.7 kmh</cmt></trkpt>
<trkpt lat="58.769198" lon="05.680675"><ele>24</ele><time>2012-03-25T14:52:25Z</time><cmt>6.9 kmh</cmt></trkpt>
<trkpt lat="58.769203" lon="05.680705"><ele>24</ele><time>2012-03-25T14:52:26Z</time><cmt>6.6 kmh</cmt></trkpt>
<trkpt lat="58.769208" lon="05.680735"><ele>24</ele><time>2012-03-25T14:52:28Z</time><cmt>6.7 kmh</cmt></trkpt>
<trkpt lat="58.769213" lon="05.680766"><ele>24</ele><time>2012-03-25T14:52:29Z</time><cmt>6.6 kmh</cmt></trkpt>
<trkpt lat="58.769218" lon="05.680796"><ele>24</ele><time>2012-03-25T14:52:30Z</time><cmt>6.5 kmh</cmt></trkpt>
<trkpt lat="58.769222" lon="05.680826"><ele>24</ele><time>2012-03-25T14:52:30Z</time><cmt>6.4 kmh</cmt></trkpt>
<trkpt lat="58.769226" lon="05.680855"><ele>24</ele><time>2012-03-25T14:52:31Z</time><cmt>6.3 kmh</cmt></trkpt>
<trkpt lat="58.769229" lon="05.680885"><ele>24</ele><time>2012-03-25T14:52:32Z</time><cmt>6.2 kmh</cmt></trkpt>
<trkpt lat="58.769232" lon="05.680914"><ele>24</ele><time>2012-03-25T14:52:34Z</time><cmt>6.1 kmh</cmt></trkpt>
<trkpt lat="58.769234" lon="05.680942"><ele>24</ele><time>2012-03-25T14:52:35Z</time><cmt>6.0 kmh</cmt></trkpt>
<trkpt lat="58.769236" lon="05.680971"><ele>24</ele><time>2012-03-25T14:52:36Z</time><cmt>6.3 kmh</cmt></trkpt>
<trkpt lat="58.769239" lon="05.681001"><ele>24</ele><time>2012-03-25T14:52:36Z</time><cmt>6.2 kmh</cmt></trkpt>
<trkpt lat="58.769241" lon="05.681030"><ele>24</ele><time>2012-03-25T14:52:37Z</time><cmt>6.1 kmh</cmt></trkpt>
<trkpt lat="58.769244" lon="05.681059"><ele>24</ele><time>2012-03-25T14:52:38Z</time><cmt>6.5 kmh</cmt></trkpt>
<trkpt lat="58.769248" lon="05.681089"><ele>24</ele><time>2012-03-25T14:52:39Z</time><cmt>6.4 kmh</cmt></trkpt>
<trkpt lat="58.769252" lon="05.681119"><ele>24</ele><time>2012-03-25T14:52:41Z</time><cmt>6.6 kmh</cmt></trkpt>
<trkpt lat="58.769256" lon="05.681150"><ele>24</ele><time>2012-03-25T14:52:42Z</time><cmt>6.6 kmh</cmt></trkpt>
<trkpt lat="58.769261" lon="05.681179"><ele>24</ele><time>2012-03-25T14:52:42Z</time><cmt>6.5 kmh</cmt></trkpt>
<trkpt lat="58.769265" lon="05.681209"><ele>24</ele><time>2012-03-25T14:52:43Z</time><cmt>6.6 kmh</cmt></trkpt>
<trkpt lat="58.769271" lon="05.681239"><ele>23</ele><time>2012-03-25T14:52:44Z</time><cmt>6.5 kmh</cmt></trkpt>
<trkpt lat="58.769276" lon="05.681269"><ele>23</ele><time>2012-03-25T14:52:45Z</time><cmt>6.8 kmh</cmt></trkpt>
<trkpt lat="58.769282" lon="05.681299"><ele>23</ele><time>2012-03-25T14:52:47Z</time><cmt>6.7 kmh</cmt></trkpt>
<trkpt lat="58.769288" lon="05.681330"><ele>23</ele><time>2012-03-25T14:52:48Z</time><cmt>6.9 kmh</cmt></trkpt>
<trkpt lat="58.769294" lon="05.681360"><ele>23</ele><time>2012-03-25T14:52:49Z</time><cmt>6.7 kmh</cmt></trkpt>
<trkpt lat="58.769300" lon="05.681390"><ele>23</ele><time>2012-03-25T14:52:49Z</time><cmt>6.9 kmh</cmt></trkpt>
<trkpt lat="58.769306" lon="05.681421"><ele>23</ele><time>2012-03-25T14:52:50Z</time><cmt>6.7 kmh</cmt></trkpt>
<trkpt lat="58.769313" lon="05.681451"><ele>23</ele><time>2012-03-25T14:52:51Z</time><cmt>6.8 kmh</cmt></trkpt>
<trkpt lat="58.769320" lon="05.681480"><ele>23</ele><time>2012-03-25T14:52:53Z</time><cmt>6.4 kmh</cmt></trkpt>
<trkpt lat="58.769327" lon="05.681509"><ele>23</ele><time>2012-03-25T14:52:54Z</time><cmt>6.8 kmh</cmt></trkpt>
<trkpt lat="58.769334" lon="05.681537"><ele>23</ele><time>2012-03-25T14:52:55Z</time><cmt>6.3 kmh</cmt></trkpt>
<trkpt lat="58.769342" lon="05.681566"><ele>23</ele><time>2012-03-25T14:52:55Z</time><cmt>6.6 kmh</cmt></trkpt>
<trkpt lat="58.769349" lon="05.681594"><ele>23</ele><time>2012-03-25T14:52:56Z</time><cmt>6.4 kmh</cmt></trkpt>
<trkpt lat="58.769356" lon="05.681621"><ele>23</ele><time>2012-03-25T14:52:57Z</time><cmt>6.0 kmh</cmt></trkpt>
<trkpt lat="58.769363" lon="05.681645"><ele>23</ele><time>2012-03-25T14:52:59Z</time><cmt>5.2 kmh</cmt></trkpt>
<trkpt lat="58.769369" lon="05.681666"><ele>23</ele><time>2012-03-25T14:53:00Z</time><cmt>5.2 kmh</cmt></trkpt>
<trkpt lat="58.769374" lon="05.681686"><ele>23</ele><time>2012-03-25T14:53:01Z</time><cmt>5.0 kmh</cmt></trkpt>
<trkpt lat="58.769380" lon="05.681706"><ele>23</ele><time>2012-03-25T14:53:01Z</time><cmt>5.0 kmh</cmt></trkpt>
<trkpt lat="58.769385" lon="05.681728"><ele>23</ele><time>2012-03-25T14:53:02Z</time><cmt>5.1 kmh</cmt></trkpt>
<trkpt lat="58.769390" lon="05.681749"><ele>23</ele><time>2012-03-25T14:53:03Z</time><cmt>5.1 kmh</cmt></trkpt>
<trkpt lat="58.769395" lon="05.681770"><ele>23</ele><time>2012-03-25T14:53:05Z</time><cmt>4.2 kmh</cmt></trkpt>
<trkpt lat="58.769399" lon="05.681788"><ele>23</ele><time>2012-03-25T14:53:06Z</time><cmt>3.8 kmh</cmt></trkpt>
<trkpt lat="58.769403" lon="05.681806"><ele>23</ele><time>2012-03-25T14:53:07Z</time><cmt>4.4 kmh</cmt></trkpt>
<trkpt lat="58.769406" lon="05.681822"><ele>23</ele><time>2012-03-25T14:53:07Z</time><cmt>4.1 kmh</cmt></trkpt>
<trkpt lat="58.769409" lon="05.681837"><ele>23</ele><time>2012-03-25T14:53:08Z</time><cmt>3.7 kmh</cmt></trkpt>
<trkpt lat="58.769411" lon="05.681851"><ele>23</ele><time>2012-03-25T14:53:09Z</time><cmt>3.4 kmh</cmt></trkpt>
<trkpt lat="58.769413" lon="05.681865"><ele>23</ele><time>2012-03-25T14:53:10Z</time><cmt>3.2 kmh</cmt></trkpt>
<trkpt lat="58.769414" lon="05.681877"><ele>23</ele><time>2012-03-25T14:53:12Z</time><cmt>2.4 kmh</cmt></trkpt>
<trkpt lat="58.769415" lon="05.681888"><ele>23</ele><time>2012-03-25T14:53:13Z</time><cmt>2.2 kmh</cmt></trkpt>
<trkpt lat="58.769416" lon="05.681898"><ele>23</ele><time>2012-03-25T14:53:13Z</time><cmt>2.3 kmh</cmt></trkpt>
<trkpt lat="58.769417" lon="05.681906"><ele>23</ele><time>2012-03-25T14:53:14Z</time><cmt>2.0 kmh</cmt></trkpt>
<trkpt lat="58.769417" lon="05.681915"><ele>23</ele><time>2012-03-25T14:53:15Z</time><cmt>1.9 kmh</cmt></trkpt>
<trkpt lat="58.769417" lon="05.681922"><ele>23</ele><time>2012-03-25T14:53:16Z</time><cmt>1.8 kmh</cmt></trkpt>
<trkpt lat="58.769417" lon="05.681929"><ele>23</ele><time>2012-03-25T14:53:18Z</time><cmt>1.3 kmh</cmt></trkpt>
<trkpt lat="58.769417" lon="05.681934"><ele>23</ele><time>2012-03-25T14:53:19Z</time><cmt>1.0 kmh</cmt></trkpt>
<trkpt lat="58.769416" lon="05.681940"><ele>23</ele><time>2012-03-25T14:53:20Z</time><cmt>1.2 kmh</cmt></trkpt>
<trkpt lat="58.769415" lon="05.681944"><ele>23</ele><time>2012-03-25T14:53:20Z</time><cmt>1.1 kmh</cmt></trkpt>
<trkpt lat="58.769413" lon="05.681944"><ele>23</ele><time>2012-03-25T14:53:21Z</time><cmt>1.0 kmh</cmt></trkpt>
<trkpt lat="58.769410" lon="05.681945"><ele>23</ele><time>2012-03-25T14:53:22Z</time><cmt>1.1 kmh</cmt></trkpt>
<trkpt lat="58.769408" lon="05.681947"><ele>23</ele><time>2012-03-25T14:53:24Z</time><cmt>0.9 kmh</cmt></trkpt>
<trkpt lat="58.769406" lon="05.681948"><ele>23</ele><time>2012-03-25T14:53:25Z</time><cmt>0.7 kmh</cmt></trkpt>
<trkpt lat="58.769404" lon="05.681946"><ele>23</ele><time>2012-03-25T14:53:26Z</time><cmt>0.9 kmh</cmt></trkpt>
<trkpt lat="58.769402" lon="05.681946"><ele>23</ele><time>2012-03-25T14:53:26Z</time><cmt>0.8 kmh</cmt></trkpt>
<trkpt lat="58.769401" lon="05.681950"><ele>23</ele><time>2012-03-25T14:53:27Z</time><cmt>1.0 kmh</cmt></trkpt>
<trkpt lat="58.769399" lon="05.681958"><ele>23</ele><time>2012-03-25T14:53:28Z</time><cmt>1.5 kmh</cmt></trkpt>
<trkpt lat="58.769397" lon="05.681966"><ele>23</ele><time>2012-03-25T14:53:30Z</time><cmt>1.5 kmh</cmt></trkpt>
<trkpt lat="58.769395" lon="05.681971"><ele>23</ele><time>2012-03-25T14:53:31Z</time><cmt>1.4 kmh</cmt></trkpt>
<trkpt lat="58.769393" lon="05.681974"><ele>23</ele><time>2012-03-25T14:53:32Z</time><cmt>1.3 kmh</cmt></trkpt>
<trkpt lat="58.769391" lon="05.681975"><ele>23</ele><time>2012-03-25T14:53:32Z</time><cmt>1.0 kmh</cmt></trkpt>
<trkpt lat="58.769389" lon="05.681974"><ele>23</ele><time>2012-03-25T14:53:33Z</time><cmt>0.8 kmh</cmt></trkpt>
<trkpt lat="58.769387" lon="05.681971"><ele>23</ele><time>2012-03-25T14:53:34Z</time><cmt>1.0 kmh</cmt></trkpt>
<trkpt lat="58.769385" lon="05.681967"><ele>23</ele><time>2012-03-25T14:53:36Z</time><cmt>1.1 kmh</cmt></trkpt>
<trkpt lat="58.769382" lon="05.681960"><ele>23</ele><time>2012-03-25T14:53:37Z</time><cmt>1.3 kmh</cmt></trkpt>
<trkpt lat="58.769380" lon="05.681952"><ele>23</ele><time>2012-03-25T14:53:38Z</time><cmt>1.9 kmh</cmt></trkpt>
<trkpt lat="58.769378" lon="05.681944"><ele>23</ele><time>2012-03-25T14:53:38Z</time><cmt>2.1 kmh</cmt></trkpt>
<trkpt lat="58.769375" lon="05.681938"><ele>23</ele><time>2012-03-25T14:53:39Z</time><cmt>2.0 kmh</cmt></trkpt>
<trkpt lat="58.769372" lon="05.681937"><ele>23</ele><time>2012-03-25T14:53:40Z</time><cmt>1.6 kmh</cmt></trkpt>
<trkpt lat="58.769367" lon="05.681941"><ele>23</ele><time>2012-03-25T14:53:41Z</time><cmt>1.7 kmh</cmt></trkpt>
<trkpt lat="58.769362" lon="05.681948"><ele>23</ele><time>2012-03-25T14:53:43Z</time><cmt>2.0 kmh</cmt></trkpt>
<trkpt lat="58.769355" lon="05.681958"><ele>23</ele><time>2012-03-25T14:53:44Z</time><cmt>2.6 kmh</cmt></trkpt>
<trkpt lat="58.769346" lon="05.681968"><ele>23</ele><time>2012-03-25T14:53:44Z</time><cmt>4.0 kmh</cmt></trkpt>
<trkpt lat="58.769336" lon="05.681980"><ele>23</ele><time>2012-03-25T14:53:45Z</time><cmt>5.2 kmh</cmt></trkpt>
<trkpt lat="58.769324" lon="05.681992"><ele>23</ele><time>2012-03-25T14:53:46Z</time><cmt>5.6 kmh</cmt></trkpt>
<trkpt lat="58.769310" lon="05.682005"><ele>23</ele><time>2012-03-25T14:53:47Z</time><cmt>6.1 kmh</cmt></trkpt>
<trkpt lat="58.769296" lon="05.682017"><ele>23</ele><time>2012-03-25T14:53:49Z</time><cmt>6.4 kmh</cmt></trkpt>
<trkpt lat="58.769281" lon="05.682030"><ele>23</ele><time>2012-03-25T14:53:50Z</time><cmt>6.6 kmh</cmt></trkpt>
<trkpt lat="58.769265" lon="05.682043"><ele>23</ele><time>2012-03-25T14:53:51Z</time><cmt>6.6 kmh</cmt></trkpt>
<trkpt lat="58.769250" lon="05.682056"><ele>23</ele><time>2012-03-25T14:53:51Z</time><cmt>6.8 kmh</cmt></trkpt>
<trkpt lat="58.769233" lon="05.682068"><ele>23</ele><time>2012-03-25T14:53:52Z</time><cmt>7.0 kmh</cmt></trkpt>
<trkpt lat="58.769217" lon="05.682081"><ele>23</ele><time>2012-03-25T14:53:53Z</time><cmt>7.1 kmh</cmt></trkpt>
<trkpt lat="58.769200" lon="05.682093"><ele>23</ele><time>2012-03-25T14:53:55Z</time><cmt>6.9 kmh</cmt></trkpt>
<trkpt lat="58.769184" lon="05.682106"><ele>23</ele><time>2012-03-25T14:53:56Z</time><cmt>7.3 kmh</cmt></trkpt>
<trkpt lat="58.769166" lon="05.682120"><ele>23</ele><time>2012-03-25T14:53:57Z</time><cmt>7.8 kmh</cmt></trkpt>
<trkpt lat="58.769148" lon="05.682135"><ele>23</ele><time>2012-03-25T14:53:57Z</time><cmt>7.6 kmh</cmt></trkpt>
<trkpt lat="58.769131" lon="05.682149"><ele>23</ele><time>2012-03-25T14:53:58Z</time><cmt>7.5 kmh</cmt></trkpt>
<trkpt lat="58.769114" lon="05.682164"><ele>23</ele><time>2012-03-25T14:53:59Z</time><cmt>7.3 kmh</cmt></trkpt>
<trkpt lat="58.769097" lon="05.682178"><ele>23</ele><time>2012-03-25T14:54:01Z</time><cmt>7.5 kmh</cmt></trkpt>
<trkpt lat="58.769079" lon="05.682192"><ele>23</ele><time>2012-03-25T14:54:02Z</time><cmt>7.3 kmh</cmt></trkpt>
<trkpt lat="58.769062" lon="05.682205"><ele>23</ele><time>2012-03-25T14:54:03Z</time><cmt>7.2 kmh</cmt></trkpt>
<trkpt lat="58.769045" lon="05.682219"><ele>23</ele><time>2012-03-25T14:54:03Z</time><cmt>7.4 kmh</cmt></trkpt>
<trkpt lat="58.769028" lon="05.682232"><ele>23</ele><time>2012-03-25T14:54:04Z</time><cmt>7.3 kmh</cmt></trkpt>
<trkpt lat="58.769011" lon="05.682246"><ele>23</ele><time>2012-03-25T14:54:05Z</time><cmt>7.2 kmh</cmt></trkpt>
<trkpt lat="58.768994" lon="05.682261"><ele>23</ele><time>2012-03-25T14:54:07Z</time><cmt>7.5 kmh</cmt></trkpt>
<trkpt lat="58.768977" lon="05.682276"><ele>23</ele><time>2012-03-25T14:54:08Z</time><cmt>7.4 kmh</cmt></trkpt>
<trkpt lat="58.768961" lon="05.682291"><ele>23</ele><time>2012-03-25T14:54:09Z</time><cmt>7.0 kmh</cmt></trkpt>
<trkpt lat="58.768944" lon="05.682305"><ele>23</ele><time>2012-03-25T14:54:09Z</time><cmt>7.1 kmh</cmt></trkpt>
<trkpt lat="58.768928" lon="05.682319"><ele>23</ele><time>2012-03-25T14:54:10Z</time><cmt>7.1 kmh</cmt></trkpt>
<trkpt lat="58.768912" lon="05.682333"><ele>23</ele><time>2012-03-25T14:54:11Z</time><cmt>7.1 kmh</cmt></trkpt>
<trkpt lat="58.768896" lon="05.682347"><ele>23</ele><time>2012-03-25T14:54:13Z</time><cmt>7.0 kmh</cmt></trkpt>
<trkpt lat="58.768879" lon="05.682361"><ele>23</ele><time>2012-03-25T14:54:14Z</time><cmt>6.7 kmh</cmt></trkpt>
<trkpt lat="58.768864" lon="05.682374"><ele>23</ele><time>2012-03-25T14:54:15Z</time><cmt>6.2 kmh</cmt></trkpt>
<trkpt lat="58.768851" lon="05.682385"><ele>23</ele><time>2012-03-25T14:54:15Z</time><cmt>5.1 kmh</cmt></trkpt>
<trkpt lat="58.768841" lon="05.682394"><ele>23</ele><time>2012-03-25T14:54:16Z</time><cmt>5.1 kmh</cmt></trkpt>
<trkpt lat="58.768835" lon="05.682400"><ele>23</ele><time>2012-03-25T14:54:17Z</time><cmt>3.9 kmh</cmt></trkpt>
<trkpt lat="58.768831" lon="05.682403"><ele>23</ele><time>2012-03-25T14:54:18Z</time><cmt>2.2 kmh</cmt></trkpt>
<trkpt lat="58.768830" lon="05.682402"><ele>23</ele><time>2012-03-25T14:54:20Z</time><cmt>0.8 kmh</cmt></trkpt>
<trkpt lat="58.768830" lon="05.682397"><ele>23</ele><time>2012-03-25T14:54:21Z</time><cmt>0.6 kmh</cmt></trkpt>
<trkpt lat="58.768831" lon="05.682388"><ele>23</ele><time>2012-03-25T14:54:21Z</time><cmt>1.5 kmh</cmt></trkpt>
<trkpt lat="58.768832" lon="05.682377"><ele>23</ele><time>2012-03-25T14:54:22Z</time><cmt>2.3 kmh</cmt></trkpt>
<trkpt lat="58.768832" lon="05.682368"><ele>23</ele><time>2012-03-25T14:54:23Z</time><cmt>2.3 kmh</cmt></trkpt>
<trkpt lat="58.768833" lon="05.682365"><ele>23</ele><time>2012-03-25T14:54:24Z</time><cmt>1.4 kmh</cmt></trkpt>
<trkpt lat="58.768834" lon="05.682367"><ele>23</ele><time>2012-03-25T14:54:26Z</time><cmt>0.5 kmh</cmt></trkpt>
<trkpt lat="58.768836" lon="05.682371"><ele>23</ele><time>2012-03-25T14:54:27Z</time><cmt>0.7 kmh</cmt></trkpt>
<trkpt lat="58.768838" lon="05.682376"><ele>23</ele><time>2012-03-25T14:54:28Z</time><cmt>1.4 kmh</cmt></trkpt>
<trkpt lat="58.768840" lon="05.682380"><ele>23</ele><time>2012-03-25T14:54:28Z</time><cmt>1.4 kmh</cmt></trkpt>
<trkpt lat="58.768841" lon="05.682382"><ele>23</ele><time>2012-03-25T14:54:29Z</time><cmt>0.8 kmh</cmt></trkpt>
<trkpt lat="58.768843" lon="05.682385"><ele>23</ele><time>2012-03-25T14:54:30Z</time><cmt>0.9 kmh</cmt></trkpt>
<trkpt lat="58.768847" lon="05.682390"><ele>23</ele><time>2012-03-25T14:54:32Z</time><cmt>1.3 kmh</cmt></trkpt>
<trkpt lat="58.768851" lon="05.682395"><ele>23</ele><time>2012-03-25T14:54:33Z</time><cmt>1.6 kmh</cmt></trkpt>
<trkpt lat="58.768852" lon="05.682398"><ele>23</ele><time>2012-03-25T14:54:34Z</time><cmt>1.5 kmh</cmt></trkpt>
<trkpt lat="58.768852" lon="05.682399"><ele>23</ele><time>2012-03-25T14:54:34Z</time><cmt>0.8 kmh</cmt></trkpt>
<trkpt lat="58.768851" lon="05.682400"><ele>23</ele><time>2012-03-25T14:54:35Z</time><cmt>0.4 kmh</cmt></trkpt>
<trkpt lat="58.768850" lon="05.682402"><ele>23</ele><time>2012-03-25T14:54:36Z</time><cmt>0.6 kmh</cmt></trkpt>
<trkpt lat="58.768848" lon="05.682403"><ele>23</ele><time>2012-03-25T14:54:38Z</time><cmt>0.7 kmh</cmt></trkpt>
<trkpt lat="58.768845" lon="05.682405"><ele>23</ele><time>2012-03-25T14:54:39Z</time><cmt>0.9 kmh</cmt></trkpt>
<trkpt lat="58.768841" lon="05.682407"><ele>23</ele><time>2012-03-25T14:54:40Z</time><cmt>1.5 kmh</cmt></trkpt>
<trkpt lat="58.768838" lon="05.682410"><ele>23</ele><time>2012-03-25T14:54:40Z</time><cmt>1.6 kmh</cmt></trkpt>
<trkpt lat="58.768835" lon="05.682413"><ele>23</ele><time>2012-03-25T14:54:41Z</time><cmt>1.6 kmh</cmt></trkpt>
<trkpt lat="58.768831" lon="05.682417"><ele>23</ele><time>2012-03-25T14:54:42Z</time><cmt>1.7 kmh</cmt></trkpt>
<trkpt lat="58.768827" lon="05.682420"><ele>23</ele><time>2012-03-25T14:54:44Z</time><cmt>1.5 kmh</cmt></trkpt>
<trkpt lat="58.768822" lon="05.682424"><ele>23</ele><time>2012-03-25T14:54:45Z</time><cmt>1.7 kmh</cmt></trkpt>
<trkpt lat="58.768817" lon="05.682428"><ele>23</ele><time>2012-03-25T14:54:46Z</time><cmt>2.3 kmh</cmt></trkpt>
<trkpt lat="58.768811" lon="05.682433"><ele>23</ele><time>2012-03-25T14:54:46Z</time><cmt>2.5 kmh</cmt></trkpt>
<trkpt lat="58.768805" lon="05.682438"><ele>23</ele><time>2012-03-25T14:54:47Z</time><cmt>2.7 kmh</cmt></trkpt>
<trkpt lat="58.768798" lon="05.682443"><ele>23</ele><time>2012-03-25T14:54:48Z</time><cmt>3.0 kmh</cmt></trkpt>
<trkpt lat="58.768791" lon="05.682448"><ele>23</ele><time>2012-03-25T14:54:49Z</time><cmt>3.3 kmh</cmt></trkpt>
<trkpt lat="58.768783" lon="05.682453"><ele>23</ele><time>2012-03-25T14:54:51Z</time><cmt>2.8 kmh</cmt></trkpt>
<trkpt lat="58.768775" lon="05.682458"><ele>23</ele><time>2012-03-25T14:54:52Z</time><cmt>2.9 kmh</cmt></trkpt>
<trkpt lat="58.768767" lon="05.682463"><ele>23</ele><time>2012-03-25T14:54:52Z</time><cmt>3.6 kmh</cmt></trkpt>
<trkpt lat="58.768759" lon="05.682467"><ele>23</ele><time>2012-03-25T14:54:53Z</time><cmt>3.5 kmh</cmt></trkpt>
<trkpt lat="58.768751" lon="05.682470"><ele>23</ele><time>2012-03-25T14:54:54Z</time><cmt>3.4 kmh</cmt></trkpt>
<trkpt lat="58.768744" lon="05.682473"><ele>23</ele><time>2012-03-25T14:54:55Z</time><cmt>3.3 kmh</cmt></trkpt>
<trkpt lat="58.768737" lon="05.682474"><ele>23</ele><time>2012-03-25T14:54:57Z</time><cmt>2.5 kmh</cmt></trkpt>
<trkpt lat="58.768730" lon="05.682475"><ele>23</ele><time>2012-03-25T14:54:58Z</time><cmt>2.5 kmh</cmt></trkpt>
<trkpt lat="58.768723" lon="05.682476"><ele>23</ele><time>2012-03-25T14:54:59Z</time><cmt>3.0 kmh</cmt></trkpt>
<trkpt lat="58.768716" lon="05.682475"><ele>23</ele><time>2012-03-25T14:54:59Z</time><cmt>2.9 kmh</cmt></trkpt>
<trkpt lat="58.768710" lon="05.682475"><ele>23</ele><time>2012-03-25T14:55:00Z</time><cmt>2.8 kmh</cmt></trkpt>
<trkpt lat="58.768703" lon="05.682474"><ele>23</ele><time>2012-03-25T14:55:01Z</time><cmt>2.7 kmh</cmt></trkpt>
<trkpt lat="58.768698" lon="05.682472"><ele>24</ele><time>2012-03-25T14:55:03Z</time><cmt>2.1 kmh</cmt></trkpt>
<trkpt lat="58.768692" lon="05.682471"><ele>24</ele><time>2012-03-25T14:55:04Z</time><cmt>2.0 kmh</cmt></trkpt>
<trkpt lat="58.768686" lon="05.682469"><ele>24</ele><time>2012-03-25T14:55:05Z</time><cmt>2.4 kmh</cmt></trkpt>
<trkpt lat="58.768681" lon="05.682466"><ele>24</ele><time>2012-03-25T14:55:05Z</time><cmt>2.4 kmh</cmt></trkpt>
<trkpt lat="58.768676" lon="05.682465"><ele>24</ele><time>2012-03-25T14:55:06Z</time><cmt>2.3 kmh</cmt></trkpt>
<trkpt lat="58.768673" lon="05.682467"><ele>24</ele><time>2012-03-25T14:55:07Z</time><cmt>1.8 kmh</cmt></trkpt>
<trkpt lat="58.768671" lon="05.682472"><ele>24</ele><time>2012-03-25T14:55:09Z</time><cmt>1.2 kmh</cmt></trkpt>
<trkpt lat="58.768669" lon="05.682481"><ele>24</ele><time>2012-03-25T14:55:10Z</time><cmt>1.4 kmh</cmt></trkpt>
<trkpt lat="58.768666" lon="05.682493"><ele>24</ele><time>2012-03-25T14:55:11Z</time><cmt>2.5 kmh</cmt></trkpt>
<trkpt lat="58.768663" lon="05.682507"><ele>24</ele><time>2012-03-25T14:55:11Z</time><cmt>3.2 kmh</cmt></trkpt>
<trkpt lat="58.768658" lon="05.682522"><ele>24</ele><time>2012-03-25T14:55:12Z</time><cmt>3.7 kmh</cmt></trkpt>
<trkpt lat="58.768653" lon="05.682538"><ele>24</ele><time>2012-03-25T14:55:13Z</time><cmt>4.1 kmh</cmt></trkpt>
<trkpt lat="58.768647" lon="05.682554"><ele>24</ele><time>2012-03-25T14:55:15Z</time><cmt>3.5 kmh</cmt></trkpt>
<trkpt lat="58.768641" lon="05.682569"><ele>24</ele><time>2012-03-25T14:55:16Z</time><cmt>3.5 kmh</cmt></trkpt>
<trkpt lat="58.768634" lon="05.682581"><ele>24</ele><time>2012-03-25T14:55:17Z</time><cmt>4.1 kmh</cmt></trkpt>
<trkpt lat="58.768627" lon="05.682592"><ele>24</ele><time>2012-03-25T14:55:17Z</time><cmt>4.0 kmh</cmt></trkpt>
<trkpt lat="58.768618" lon="05.682604"><ele>24</ele><time>2012-03-25T14:55:18Z</time><cmt>4.2 kmh</cmt></trkpt>
<trkpt lat="58.768609" lon="05.682614"><ele>24</ele><time>2012-03-25T14:55:19Z</time><cmt>4.6 kmh</cmt></trkpt>
<trkpt lat="58.768598" lon="05.682624"><ele>24</ele><time>2012-03-25T14:55:20Z</time><cmt>4.9 kmh</cmt></trkpt>
<trkpt lat="58.768589" lon="05.682632"><ele>24</ele><time>2012-03-25T14:55:22Z</time><cmt>3.7 kmh</cmt></trkpt>
<trkpt lat="58.768582" lon="05.682638"><ele>24</ele><time>2012-03-25T14:55:23Z</time><cmt>3.2 kmh</cmt></trkpt>
<trkpt lat="58.768575" lon="05.682644"><ele>24</ele><time>2012-03-25T14:55:23Z</time><cmt>3.2 kmh</cmt></trkpt>
<trkpt lat="58.768570" lon="05.682649"><ele>24</ele><time>2012-03-25T14:55:24Z</time><cmt>2.7 kmh</cmt></trkpt>
<trkpt lat="58.768567" lon="05.682652"><ele>24</ele><time>2012-03-25T14:55:25Z</time><cmt>2.0 kmh</cmt></trkpt>
<trkpt lat="58.768566" lon="05.682652"><ele>24</ele><time>2012-03-25T14:55:26Z</time><cmt>1.0 kmh</cmt></trkpt>
<trkpt lat="58.768566" lon="05.682650"><ele>24</ele><time>2012-03-25T14:55:28Z</time><cmt>0.4 kmh</cmt></trkpt>
<trkpt lat="58.768566" lon="05.682647"><ele>24</ele><time>2012-03-25T14:55:29Z</time><cmt>0.5 kmh</cmt></trkpt>
<trkpt lat="58.768566" lon="05.682647"><ele>24</ele><time>2012-03-25T14:55:30Z</time><cmt>0.4 kmh</cmt></trkpt>
<trkpt lat="58.768566" lon="05.682651"><ele>24</ele><time>2012-03-25T14:55:30Z</time><cmt>0.4 kmh</cmt></trkpt>
<trkpt lat="58.768565" lon="05.682656"><ele>24</ele><time>2012-03-25T14:55:31Z</time><cmt>1.0 kmh</cmt></trkpt>
<trkpt lat="58.768564" lon="05.682660"><ele>24</ele><time>2012-03-25T14:55:32Z</time><cmt>1.1 kmh</cmt></trkpt>
<trkpt lat="58.768564" lon="05.682665"><ele>24</ele><time>2012-03-25T14:55:34Z</time><cmt>0.8 kmh</cmt></trkpt>
<trkpt lat="58.768564" lon="05.682673"><ele>24</ele><time>2012-03-25T14:55:35Z</time><cmt>1.1 kmh</cmt></trkpt>
<trkpt lat="58.768564" lon="05.682680"><ele>24</ele><time>2012-03-25T14:55:36Z</time><cmt>1.6 kmh</cmt></trkpt>
<trkpt lat="58.768564" lon="05.682686"><ele>24</ele><time>2012-03-25T14:55:36Z</time><cmt>1.4 kmh</cmt></trkpt>
<trkpt lat="58.768564" lon="05.682690"><ele>24</ele><time>2012-03-25T14:55:37Z</time><cmt>1.1 kmh</cmt></trkpt>
<trkpt lat="58.768565" lon="05.682694"><ele>24</ele><time>2012-03-25T14:55:38Z</time><cmt>0.9 kmh</cmt></trkpt>
<trkpt lat="58.768567" lon="05.682699"><ele>24</ele><time>2012-03-25T14:55:40Z</time><cmt>0.8 kmh</cmt></trkpt>
<trkpt lat="58.768568" lon="05.682702"><ele>24</ele><time>2012-03-25T14:55:41Z</time><cmt>0.9 kmh</cmt></trkpt>
<trkpt lat="58.768568" lon="05.682704"><ele>24</ele><time>2012-03-25T14:55:42Z</time><cmt>0.7 kmh</cmt></trkpt>
<trkpt lat="58.768569" lon="05.682707"><ele>24</ele><time>2012-03-25T14:55:42Z</time><cmt>0.6 kmh</cmt></trkpt>
<trkpt lat="58.768571" lon="05.682715"><ele>24</ele><time>2012-03-25T14:55:43Z</time><cmt>1.3 kmh</cmt></trkpt>
<trkpt lat="58.768574" lon="05.682727"><ele>24</ele><time>2012-03-25T14:55:44Z</time><cmt>2.4 kmh</cmt></trkpt>
<trkpt lat="58.768579" lon="05.682741"><ele>24</ele><time>2012-03-25T14:55:46Z</time><cmt>2.7 kmh</cmt></trkpt>
<trkpt lat="58.768584" lon="05.682759"><ele>24</ele><time>2012-03-25T14:55:47Z</time><cmt>3.3 kmh</cmt></trkpt>
<trkpt lat="58.768591" lon="05.682778"><ele>24</ele><time>2012-03-25T14:55:48Z</time><cmt>5.2 kmh</cmt></trkpt>
<trkpt lat="58.768598" lon="05.682800"><ele>24</ele><time>2012-03-25T14:55:48Z</time><cmt>5.6 kmh</cmt></trkpt>
<trkpt lat="58.768606" lon="05.682823"><ele>24</ele><time>2012-03-25T14:55:49Z</time><cmt>6.2 kmh</cmt></trkpt>
<trkpt lat="58.768616" lon="05.682847"><ele>24</ele><time>2012-03-25T14:55:50Z</time><cmt>6.3 kmh</cmt></trkpt>
<trkpt lat="58.768626" lon="05.682871"><ele>24</ele><time>2012-03-25T14:55:51Z</time><cmt>6.8 kmh</cmt></trkpt>
<trkpt lat="58.768636" lon="05.682896"><ele>24</ele><time>2012-03-25T14:55:53Z</time><cmt>6.8 kmh</cmt></trkpt>
<trkpt lat="58.768648" lon="05.682922"><ele>24</ele><time>2012-03-25T14:55:54Z</time><cmt>7.2 kmh</cmt></trkpt>
<trkpt lat="58.768659" lon="05.682948"><ele>24</ele><time>2012-03-25T14:55:54Z</time><cmt>7.0 kmh</cmt></trkpt>
<trkpt lat="58.768670" lon="05.682973"><ele>24</ele><time>2012-03-25T14:55:55Z</time><cmt>6.6 kmh</cmt></trkpt>
<trkpt lat="58.768681" lon="05.682996"><ele>24</ele><time>2012-03-25T14:55:56Z</time><cmt>6.1 kmh</cmt></trkpt>
<trkpt lat="58.768691" lon="05.683017"><ele>24</ele><time>2012-03-25T14:55:57Z</time><cmt>5.7 kmh</cmt></trkpt>
<trkpt lat="58.768701" lon="05.683035"><ele>24</ele><time>2012-03-25T14:55:59Z</time><cmt>5.1 kmh</cmt></trkpt>
<trkpt lat="58.768711" lon="05.683051"><ele>24</ele><time>2012-03-25T14:56:00Z</time><cmt>5.1 kmh</cmt></trkpt>
<trkpt lat="58.768721" lon="05.683066"><ele>24</ele><time>2012-03-25T14:56:01Z</time><cmt>5.3 kmh</cmt></trkpt>
<trkpt lat="58.768731" lon="05.683082"><ele>24</ele><time>2012-03-25T14:56:01Z</time><cmt>5.5 kmh</cmt></trkpt>
<trkpt lat="58.768742" lon="05.683099"><ele>24</ele><time>2012-03-25T14:56:02Z</time><cmt>6.2 kmh</cmt></trkpt>
<trkpt lat="58.768754" lon="05.683118"><ele>24</ele><time>2012-03-25T14:56:03Z</time><cmt>6.3 kmh</cmt></trkpt>
<trkpt lat="58.768766" lon="05.683138"><ele>24</ele><time>2012-03-25T14:56:05Z</time><cmt>6.8 kmh</cmt></trkpt>
<trkpt lat="58.768779" lon="05.683159"><ele>24</ele><time>2012-03-25T14:56:06Z</time><cmt>6.8 kmh</cmt></trkpt>
<trkpt lat="58.768792" lon="05.683181"><ele>24</ele><time>2012-03-25T14:56:07Z</time><cmt>7.1 kmh</cmt></trkpt>
<trkpt lat="58.768805" lon="05.683203"><ele>24</ele><time>2012-03-25T14:56:07Z</time><cmt>6.8 kmh</cmt></trkpt>
<trkpt lat="58.768818" lon="05.683225"><ele>24</ele><time>2012-03-25T14:56:08Z</time><cmt>7.2 kmh</cmt></trkpt>
<trkpt lat="58.768831" lon="05.683248"><ele>24</ele><time>2012-03-25T14:56:09Z</time><cmt>6.8 kmh</cmt></trkpt>
<trkpt lat="58.768843" lon="05.683269"><ele>24</ele><time>2012-03-25T14:56:11Z</time><cmt>6.4 kmh</cmt></trkpt>
<trkpt lat="58.768855" lon="05.683289"><ele>24</ele><time>2012-03-25T14:56:12Z</time><cmt>6.0 kmh</cmt></trkpt>
<trkpt lat="58.768866" lon="05.683308"><ele>24</ele><time>2012-03-25T14:56:13Z</time><cmt>5.6 kmh</cmt></trkpt>
<trkpt lat="58.768876" lon="05.683324"><ele>24</ele><time>2012-03-25T14:56:13Z</time><cmt>5.3 kmh</cmt></trkpt>
<trkpt lat="58.768886" lon="05.683340"><ele>24</ele><time>2012-03-25T14:56:14Z</time><cmt>5.3 kmh</cmt></trkpt>
<trkpt lat="58.768896" lon="05.683354"><ele>24</ele><time>2012-03-25T14:56:15Z</time><cmt>5.0 kmh</cmt></trkpt>
<trkpt lat="58.768905" lon="05.683367"><ele>24</ele><time>2012-03-25T14:56:17Z</time><cmt>4.0 kmh</cmt></trkpt>
<trkpt lat="58.768913" lon="05.683379"><ele>24</ele><time>2012-03-25T14:56:18Z</time><cmt>3.7 kmh</cmt></trkpt>
<trkpt lat="58.768921" lon="05.683390"><ele>24</ele><time>2012-03-25T14:56:19Z</time><cmt>4.4 kmh</cmt></trkpt>
<trkpt lat="58.768929" lon="05.683399"><ele>24</ele><time>2012-03-25T14:56:19Z</time><cmt>4.1 kmh</cmt></trkpt>
<trkpt lat="58.768936" lon="05.683408"><ele>24</ele><time>2012-03-25T14:56:20Z</time><cmt>3.9 kmh</cmt></trkpt>
<trkpt lat="58.768943" lon="05.683416"><ele>24</ele><time>2012-03-25T14:56:21Z</time><cmt>3.6 kmh</cmt></trkpt>
<trkpt lat="58.768950" lon="05.683424"><ele>24</ele><time>2012-03-25T14:56:22Z</time><cmt>3.4 kmh</cmt></trkpt>
<trkpt lat="58.768956" lon="05.683431"><ele>24</ele><time>2012-03-25T14:56:24Z</time><cmt>2.6 kmh</cmt></trkpt>
<trkpt lat="58.768962" lon="05.683438"><ele>24</ele><time>2012-03-25T14:56:25Z</time><cmt>2.5 kmh</cmt></trkpt>
<trkpt lat="58.768967" lon="05.683444"><ele>24</ele><time>2012-03-25T14:56:25Z</time><cmt>2.9 kmh</cmt></trkpt>
<trkpt lat="58.768973" lon="05.683451"><ele>24</ele><time>2012-03-25T14:56:26Z</time><cmt>2.8 kmh</cmt></trkpt>
<trkpt lat="58.768979" lon="05.683459"><ele>24</ele><time>2012-03-25T14:56:27Z</time><cmt>2.9 kmh</cmt></trkpt>
<trkpt lat="58.768986" lon="05.683469"><ele>24</ele><time>2012-03-25T14:56:28Z</time><cmt>3.5 kmh</cmt></trkpt>
<trkpt lat="58.768995" lon="05.683481"><ele>24</ele><time>2012-03-25T14:56:30Z</time><cmt>3.4 kmh</cmt></trkpt>
<trkpt lat="58.769005" lon="05.683494"><ele>24</ele><time>2012-03-25T14:56:31Z</time><cmt>5.0 kmh</cmt></trkpt>
<trkpt lat="58.769015" lon="05.683509"><ele>24</ele><time>2012-03-25T14:56:32Z</time><cmt>5.8 kmh</cmt></trkpt>
<trkpt lat="58.769027" lon="05.683525"><ele>24</ele><time>2012-03-25T14:56:32Z</time><cmt>5.9 kmh</cmt></trkpt>
<trkpt lat="58.769038" lon="05.683543"><ele>24</ele><time>2012-03-25T14:56:33Z</time><cmt>6.3 kmh</cmt></trkpt>
<trkpt lat="58.769050" lon="05.683562"><ele>24</ele><time>2012-03-25T14:56:34Z</time><cmt>6.2 kmh</cmt></trkpt>
<trkpt lat="58.769062" lon="05.683581"><ele>24</ele><time>2012-03-25T14:56:36Z</time><cmt>6.5 kmh</cmt></trkpt>
<trkpt lat="58.769075" lon="05.683601"><ele>24</ele><time>2012-03-25T14:56:37Z</time><cmt>6.5 kmh</cmt></trkpt>
<trkpt lat="58.769087" lon="05.683621"><ele>24</ele><time>2012-03-25T14:56:38Z</time><cmt>6.7 kmh</cmt></trkpt>
<trkpt lat="58.769099" lon="05.683642"><ele>24</ele><time>2012-03-25T14:56:38Z</time><cmt>6.5 kmh</cmt></trkpt>
<trkpt lat="58.769111" lon="05.683664"><ele>24</ele><time>2012-03-25T14:56:39Z</time><cmt>6.8 kmh</cmt></trkpt>
<trkpt lat="58.769123" lon="05.683685"><ele>24</ele><time>2012-03-25T14:56:40Z</time><cmt>6.7 kmh</cmt></trkpt>
<trkpt lat="58.769136" lon="05.683708"><ele>24</ele><time>2012-03-25T14:56:42Z</time><cmt>6.9 kmh</cmt></trkpt>
<trkpt lat="58.769149" lon="05.683731"><ele>24</ele><time>2012-03-25T14:56:43Z</time><cmt>7.3 kmh</cmt></trkpt>
<trkpt lat="58.769162" lon="05.683755"><ele>24</ele><time>2012-03-25T14:56:44Z</time><cmt>7.6 kmh</cmt></trkpt>
<trkpt lat="58.769175" lon="05.683779"><ele>24</ele><time>2012-03-25T14:56:44Z</time><cmt>7.6 kmh</cmt></trkpt>
<trkpt lat="58.769189" lon="05.683804"><ele>24</ele><time>2012-03-25T14:56:45Z</time><cmt>7.6 kmh</cmt></trkpt>
<trkpt lat="58.769203" lon="05.683828"><ele>24</ele><time>2012-03-25T14:56:46Z</time><cmt>7.6 kmh</cmt></trkpt>
<trkpt lat="58.769216" lon="05.683853"><ele>24</ele><time>2012-03-25T14:56:48Z</time><cmt>7.6 kmh</cmt></trkpt>
<trkpt lat="58.769230" lon="05.683877"><ele>24</ele><time>2012-03-25T14:56:49Z</time><cmt>7.7 kmh</cmt></trkpt>
<trkpt lat="58.769244" lon="05.683902"><ele>24</ele><time>2012-03-25T14:56:50Z</time><cmt>7.6 kmh</cmt></trkpt>
<trkpt lat="58.769258" lon="05.683927"><ele>24</ele><time>2012-03-25T14:56:50Z</time><cmt>7.7 kmh</cmt></trkpt>
<trkpt lat="58.769272" lon="05.683952"><ele>24</ele><time>2012-03-25T14:56:51Z</time><cmt>7.6 kmh</cmt></trkpt>
<trkpt lat="58.769285" lon="05.683977"><ele>24</ele><time>2012-03-25T14:56:52Z</time><cmt>7.7 kmh</cmt></trkpt>
<trkpt lat="58.769299" lon="05.684002"><ele>24</ele><time>2012-03-25T14:56:53Z</time><cmt>7.6 kmh</cmt></trkpt>
<trkpt lat="58.769312" lon="05.684027"><ele>24</ele><time>2012-03-25T14:56:55Z</time><cmt>7.5 kmh</cmt></trkpt>
<trkpt lat="58.769325" lon="05.684052"><ele>24</ele><time>2012-03-25T14:56:56Z</time><cmt>7.4 kmh</cmt></trkpt>
<trkpt lat="58.769339" lon="05.684078"><ele>24</ele><time>2012-03-25T14:56:56Z</time><cmt>7.8 kmh</cmt></trkpt>
<trkpt lat="58.769352" lon="05.684103"><ele>24</ele><time>2012-03-25T14:56:57Z</time><cmt>7.5 kmh</cmt></trkpt>
<trkpt lat="58.769365" lon="05.684129"><ele>24</ele><time>2012-03-25T14:56:58Z</time><cmt>7.6 kmh</cmt></trkpt>
<trkpt lat="58.769378" lon="05.684155"><ele>24</ele><time>2012-03-25T14:56:59Z</time><cmt>7.5 kmh</cmt></trkpt>
<trkpt lat="58.769391" lon="05.684180"><ele>24</ele><time>2012-03-25T14:57:01Z</time><cmt>7.6 kmh</cmt></trkpt>
<trkpt lat="58.769405" lon="05.684206"><ele>24</ele><time>2012-03-25T14:57:02Z</time><cmt>7.7 kmh</cmt></trkpt>
<trkpt lat="58.769418" lon="05.684232"><ele>24</ele><time>2012-03-25T14:57:03Z</time><cmt>7.7 kmh</cmt></trkpt>
<trkpt lat="58.769432" lon="05.684257"><ele>24</ele><time>2012-03-25T14:57:03Z</time><cmt>7.7 kmh</cmt></trkpt>
<trkpt lat="58.769445" lon="05.684283"><ele>24</ele><time>2012-03-25T14:57:04Z</time><cmt>7.7 kmh</cmt></trkpt>
<trkpt lat="58.769459" lon="05.684309"><ele>24</ele><time>2012-03-25T14:57:05Z</time><cmt>7.8 kmh</cmt></trkpt>
<trkpt lat="58.769472" lon="05.684335"><ele>24</ele><time>2012-03-25T14:57:07Z</time><cmt>7.6 kmh</cmt></trkpt>
<trkpt lat="58.769485" lon="05.684361"><ele>24</ele><time>2012-03-25T14:57:08Z</time><cmt>7.7 kmh</cmt></trkpt>
<trkpt lat="58.769498" lon="05.684388"><ele>24</ele><time>2012-03-25T14:57:09Z</time><cmt>7.8 kmh</cmt></trkpt>
<trkpt lat="58.769512" lon="05.684415"><ele>24</ele><time>2012-03-25T14:57:09Z</time><cmt>8.0 kmh</cmt></trkpt>
<trkpt lat="58.769526" lon="05.684442"><ele>24</ele><time>2012-03-25T14:57:10Z</time><cmt>7.9 kmh</cmt></trkpt>
<trkpt lat="58.769540" lon="05.684468"><ele>24</ele><time>2012-03-25T14:57:11Z</time><cmt>8.0 kmh</cmt></trkpt>
<trkpt lat="58.769554" lon="05.684494"><ele>24</ele><time>2012-03-25T14:57:13Z</time><cmt>7.8 kmh</cmt></trkpt>
<trkpt lat="58.769567" lon="05.684521"><ele>24</ele><time>2012-03-25T14:57:14Z</time><cmt>7.9 kmh</cmt></trkpt>
<trkpt lat="58.769581" lon="05.684547"><ele>24</ele><time>2012-03-25T14:57:15Z</time><cmt>7.7 kmh</cmt></trkpt>
<trkpt lat="58.769595" lon="05.684573"><ele>24</ele><time>2012-03-25T14:57:15Z</time><cmt>7.7 kmh</cmt></trkpt>
<trkpt lat="58.769609" lon="05.684599"><ele>24</ele><time>2012-03-25T14:57:16Z</time><cmt>7.7 kmh</cmt></trkpt>
<trkpt lat="58.769622" lon="05.684625"><ele>24</ele><time>2012-03-25T14:57:17Z</time><cmt>7.7 kmh</cmt></trkpt>
<trkpt lat="58.769636" lon="05.684651"><ele>24</ele><time>2012-03-25T14:57:19Z</time><cmt>7.8 kmh</cmt></trkpt>
<trkpt lat="58.769649" lon="05.684677"><ele>24</ele><time>2012-03-25T14:57:20Z</time><cmt>7.8 kmh</cmt></trkpt>
<trkpt lat="58.769663" lon="05.684703"><ele>24</ele><time>2012-03-25T14:57:21Z</time><cmt>7.7 kmh</cmt></trkpt>
<trkpt lat="58.769676" lon="05.684729"><ele>24</ele><time>2012-03-25T14:57:21Z</time><cmt>7.5 kmh</cmt></trkpt>
<trkpt lat="58.769690" lon="05.684754"><ele>24</ele><time>2012-03-25T14:57:22Z</time><cmt>7.6 kmh</cmt></trkpt>
<trkpt lat="58.769703" lon="05.684778"><ele>24</ele><time>2012-03-25T14:57:23Z</time><cmt>7.3 kmh</cmt></trkpt>
<trkpt lat="58.769716" lon="05.684802"><ele>24</ele><time>2012-03-25T14:57:24Z</time><cmt>7.4 kmh</cmt></trkpt>
<trkpt lat="58.769729" lon="05.684826"><ele>24</ele><time>2012-03-25T14:57:26Z</time><cmt>7.2 kmh</cmt></trkpt>
<trkpt lat="58.769742" lon="05.684849"><ele>24</ele><time>2012-03-25T14:57:27Z</time><cmt>7.4 kmh</cmt></trkpt>
<trkpt lat="58.769756" lon="05.684873"><ele>24</ele><time>2012-03-25T14:57:27Z</time><cmt>7.3 kmh</cmt></trkpt>
<trkpt lat="58.769768" lon="05.684897"><ele>24</ele><time>2012-03-25T14:57:28Z</time><cmt>7.2 kmh</cmt></trkpt>
<trkpt lat="58.769781" lon="05.684922"><ele>24</ele><time>2012-03-25T14:57:29Z</time><cmt>7.3 kmh</cmt></trkpt>
<trkpt lat="58.769794" lon="05.684946"><ele>24</ele><time>2012-03-25T14:57:30Z</time><cmt>7.2 kmh</cmt></trkpt>
<trkpt lat="58.769807" lon="05.684969"><ele>24</ele><time>2012-03-25T14:57:32Z</time><cmt>7.2 kmh</cmt></trkpt>
<trkpt lat="58.769820" lon="05.684992"><ele>24</ele><time>2012-03-25T14:57:33Z</time><cmt>7.5 kmh</cmt></trkpt>
<trkpt lat="58.769834" lon="05.685016"><ele>24</ele><time>2012-03-25T14:57:34Z</time><cmt>7.3 kmh</cmt></trkpt>
<trkpt lat="58.769848" lon="05.685039"><ele>24</ele><time>2012-03-25T14:57:34Z</time><cmt>7.5 kmh</cmt></trkpt>
<trkpt lat="58.769861" lon="05.685063"><ele>24</ele><time>2012-03-25T14:57:35Z</time><cmt>7.4 kmh</cmt></trkpt>
<trkpt lat="58.769875" lon="05.685086"><ele>24</ele><time>2012-03-25T14:57:36Z</time><cmt>7.2 kmh</cmt></trkpt>
<trkpt lat="58.769888" lon="05.685109"><ele>24</ele><time>2012-03-25T14:57:38Z</time><cmt>7.4 kmh</cmt></trkpt>
<trkpt lat="58.769901" lon="05.685132"><ele>24</ele><time>2012-03-25T14:57:39Z</time><cmt>7.1 kmh</cmt></trkpt>
<trkpt lat="58.769915" lon="05.685156"><ele>24</ele><time>2012-03-25T14:57:40Z</time><cmt>7.3 kmh</cmt></trkpt>
<trkpt lat="58.769928" lon="05.685179"><ele>24</ele><time>2012-03-25T14:57:40Z</time><cmt>7.1 kmh</cmt></trkpt>
<trkpt lat="58.769941" lon="05.685202"><ele>24</ele><time>2012-03-25T14:57:41Z</time><cmt>7.5 kmh</cmt></trkpt>
<trkpt lat="58.769954" lon="05.685227"><ele>24</ele><time>2012-03-25T14:57:42Z</time><cmt>7.5 kmh</cmt></trkpt>
<trkpt lat="58.769968" lon="05.685251"><ele>24</ele><time>2012-03-25T14:57:44Z</time><cmt>7.5 kmh</cmt></trkpt>
<trkpt lat="58.769981" lon="05.685275"><ele>24</ele><time>2012-03-25T14:57:45Z</time><cmt>7.4 kmh</cmt></trkpt>
<trkpt lat="58.769995" lon="05.685298"><ele>24</ele><time>2012-03-25T14:57:46Z</time><cmt>7.5 kmh</cmt></trkpt>
<trkpt lat="58.770008" lon="05.685322"><ele>24</ele><time>2012-03-25T14:57:46Z</time><cmt>7.3 kmh</cmt></trkpt>
<trkpt lat="58.770022" lon="05.685345"><ele>24</ele><time>2012-03-25T14:57:47Z</time><cmt>7.4 kmh</cmt></trkpt>
<trkpt lat="58.770035" lon="05.685368"><ele>24</ele><time>2012-03-25T14:57:48Z</time><cmt>7.2 kmh</cmt></trkpt>
<trkpt lat="58.770048" lon="05.685391"><ele>24</ele><time>2012-03-25T14:57:50Z</time><cmt>7.6 kmh</cmt></trkpt>
<trkpt lat="58.770061" lon="05.685415"><ele>24</ele><time>2012-03-25T14:57:51Z</time><cmt>7.3 kmh</cmt></trkpt>
<trkpt lat="58.770074" lon="05.685440"><ele>24</ele><time>2012-03-25T14:57:52Z</time><cmt>7.3 kmh</cmt></trkpt>
<trkpt lat="58.770087" lon="05.685464"><ele>24</ele><time>2012-03-25T14:57:52Z</time><cmt>7.3 kmh</cmt></trkpt>
<trkpt lat="58.770100" lon="05.685487"><ele>24</ele><time>2012-03-25T14:57:53Z</time><cmt>7.3 kmh</cmt></trkpt>
<trkpt lat="58.770113" lon="05.685510"><ele>24</ele><time>2012-03-25T14:57:54Z</time><cmt>7.5 kmh</cmt></trkpt>
<trkpt lat="58.770127" lon="05.685533"><ele>24</ele><time>2012-03-25T14:57:55Z</time><cmt>7.7 kmh</cmt></trkpt>
<trkpt lat="58.770140" lon="05.685556"><ele>24</ele><time>2012-03-25T14:57:57Z</time><cmt>7.5 kmh</cmt></trkpt>
<trkpt lat="58.770154" lon="05.685578"><ele>24</ele><time>2012-03-25T14:57:58Z</time><cmt>7.7 kmh</cmt></trkpt>
<trkpt lat="58.770168" lon="05.685602"><ele>24</ele><time>2012-03-25T14:57:58Z</time><cmt>7.6 kmh</cmt></trkpt>
<trkpt lat="58.770183" lon="05.685626"><ele>24</ele><time>2012-03-25T14:57:59Z</time><cmt>7.5 kmh</cmt></trkpt>
<trkpt lat="58.770197" lon="05.685649"><ele>24</ele><time>2012-03-25T14:58:00Z</time><cmt>7.6 kmh</cmt></trkpt>
<trkpt lat="58.770211" lon="05.685672"><ele>24</ele><time>2012-03-25T14:58:01Z</time><cmt>7.3 kmh</cmt></trkpt>
<trkpt lat="58.770224" lon="05.685695"><ele>24</ele><time>2012-03-25T14:58:03Z</time><cmt>7.3 kmh</cmt></trkpt>
<trkpt lat="58.770238" lon="05.685717"><ele>24</ele><time>2012-03-25T14:58:04Z</time><cmt>7.1 kmh</cmt></trkpt>
<trkpt lat="58.770251" lon="05.685740"><ele>24</ele><time>2012-03-25T14:58:05Z</time><cmt>7.2 kmh</cmt></trkpt>
<trkpt lat="58.770264" lon="05.685763"><ele>24</ele><time>2012-03-25T14:58:05Z</time><cmt>7.1 kmh</cmt></trkpt>
<trkpt lat="58.770277" lon="05.685785"><ele>24</ele><time>2012-03-25T14:58:06Z</time><cmt>7.1 kmh</cmt></trkpt>
<trkpt lat="58.770290" lon="05.685808"><ele>24</ele><time>2012-03-25T14:58:07Z</time><cmt>7.1 kmh</cmt></trkpt>
<trkpt lat="58.770302" lon="05.685830"><ele>24</ele><time>2012-03-25T14:58:09Z</time><cmt>7.0 kmh</cmt></trkpt>
<trkpt lat="58.770314" lon="05.685853"><ele>24</ele><time>2012-03-25T14:58:10Z</time><cmt>7.2 kmh</cmt></trkpt>
<trkpt lat="58.770328" lon="05.685875"><ele>24</ele><time>2012-03-25T14:58:11Z</time><cmt>7.5 kmh</cmt></trkpt>
<trkpt lat="58.770341" lon="05.685898"><ele>24</ele><time>2012-03-25T14:58:11Z</time><cmt>7.3 kmh</cmt></trkpt>
<trkpt lat="58.770354" lon="05.685920"><ele>24</ele><time>2012-03-25T14:58:12Z</time><cmt>7.2 kmh</cmt></trkpt>
<trkpt lat="58.770367" lon="05.685942"><ele>24</ele><time>2012-03-25T14:58:13Z</time><cmt>7.2 kmh</cmt></trkpt>
<trkpt lat="58.770381" lon="05.685964"><ele>24</ele><time>2012-03-25T14:58:15Z</time><cmt>7.3 kmh</cmt></trkpt>
<trkpt lat="58.770394" lon="05.685986"><ele>24</ele><time>2012-03-25T14:58:16Z</time><cmt>7.1 kmh</cmt></trkpt>
<trkpt lat="58.770407" lon="05.686009"><ele>24</ele><time>2012-03-25T14:58:17Z</time><cmt>7.3 kmh</cmt></trkpt>
<trkpt lat="58.770420" lon="05.686032"><ele>24</ele><time>2012-03-25T14:58:17Z</time><cmt>7.1 kmh</cmt></trkpt>
<trkpt lat="58.770432" lon="05.686055"><ele>24</ele><time>2012-03-25T14:58:18Z</time><cmt>7.2 kmh</cmt></trkpt>
<trkpt lat="58.770444" lon="05.686079"><ele>24</ele><time>2012-03-25T14:58:19Z</time><cmt>7.2 kmh</cmt></trkpt>
<trkpt lat="58.770457" lon="05.686102"><ele>24</ele><time>2012-03-25T14:58:21Z</time><cmt>7.1 kmh</cmt></trkpt>
<trkpt lat="58.770469" lon="05.686125"><ele>24</ele><time>2012-03-25T14:58:22Z</time><cmt>6.9 kmh</cmt></trkpt>
<trkpt lat="58.770481" lon="05.686148"><ele>24</ele><time>2012-03-25T14:58:23Z</time><cmt>6.9 kmh</cmt></trkpt>
<trkpt lat="58.770493" lon="05.686171"><ele>24</ele><time>2012-03-25T14:58:23Z</time><cmt>6.8 kmh</cmt></trkpt>
<trkpt lat="58.770505" lon="05.686194"><ele>24</ele><time>2012-03-25T14:58:24Z</time><cmt>6.6 kmh</cmt></trkpt>
<trkpt lat="58.770517" lon="05.686216"><ele>24</ele><time>2012-03-25T14:58:25Z</time><cmt>6.7 kmh</cmt></trkpt>
<trkpt lat="58.770528" lon="05.686239"><ele>24</ele><time>2012-03-25T14:58:26Z</time><cmt>6.7 kmh</cmt></trkpt>
<trkpt lat="58.770540" lon="05.686262"><ele>24</ele><time>2012-03-25T14:58:28Z</time><cmt>6.7 kmh</cmt></trkpt>
<trkpt lat="58.770552" lon="05.686285"><ele>24</ele><time>2012-03-25T14:58:29Z</time><cmt>6.7 kmh</cmt></trkpt>
<trkpt lat="58.770563" lon="05.686309"><ele>24</ele><time>2012-03-25T14:58:29Z</time><cmt>6.9 kmh</cmt></trkpt>
<trkpt lat="58.770575" lon="05.686333"><ele>24</ele><time>2012-03-25T14:58:30Z</time><cmt>7.3 kmh</cmt></trkpt>
<trkpt lat="58.770586" lon="05.686358"><ele>24</ele><time>2012-03-25T14:58:31Z</time><cmt>7.2 kmh</cmt></trkpt>
<trkpt lat="58.770598" lon="05.686383"><ele>24</ele><time>2012-03-25T14:58:32Z</time><cmt>7.2 kmh</cmt></trkpt>
<trkpt lat="58.770610" lon="05.686408"><ele>24</ele><time>2012-03-25T14:58:34Z</time><cmt>7.3 kmh</cmt></trkpt>
<trkpt lat="58.770623" lon="05.686433"><ele>24</ele><time>2012-03-25T14:58:35Z</time><cmt>7.1 kmh</cmt></trkpt>
<trkpt lat="58.770634" lon="05.686457"><ele>24</ele><time>2012-03-25T14:58:36Z</time><cmt>7.3 kmh</cmt></trkpt>
<trkpt lat="58.770647" lon="05.686482"><ele>24</ele><time>2012-03-25T14:58:36Z</time><cmt>7.3 kmh</cmt></trkpt>
<trkpt lat="58.770658" lon="05.686507"><ele>24</ele><time>2012-03-25T14:58:37Z</time><cmt>7.1 kmh</cmt></trkpt>
<trkpt lat="58.770670" lon="05.686533"><ele>24</ele><time>2012-03-25T14:58:38Z</time><cmt>7.1 kmh</cmt></trkpt>
<trkpt lat="58.770682" lon="05.686558"><ele>24</ele><time>2012-03-25T14:58:40Z</time><cmt>7.1 kmh</cmt></trkpt>
<trkpt lat="58.770694" lon="05.686583"><ele>24</ele><time>2012-03-25T14:58:41Z</time><cmt>7.1 kmh</cmt></trkpt>
<trkpt lat="58.770706" lon="05.686609"><ele>24</ele><time>2012-03-25T14:58:42Z</time><cmt>7.3 kmh</cmt></trkpt>
<trkpt lat="58.770717" lon="05.686636"><ele>24</ele><time>2012-03-25T14:58:42Z</time><cmt>7.4 kmh</cmt></trkpt>
<trkpt lat="58.770729" lon="05.686663"><ele>24</ele><time>2012-03-25T14:58:43Z</time><cmt>7.3 kmh</cmt></trkpt>
<trkpt lat="58.770741" lon="05.686689"><ele>24</ele><time>2012-03-25T14:58:44Z</time><cmt>7.5 kmh</cmt></trkpt>
<trkpt lat="58.770753" lon="05.686715"><ele>24</ele><time>2012-03-25T14:58:46Z</time><cmt>7.3 kmh</cmt></trkpt>
<trkpt lat="58.770766" lon="05.686741"><ele>24</ele><time>2012-03-25T14:58:47Z</time><cmt>7.4 kmh</cmt></trkpt>
<trkpt lat="58.770778" lon="05.686765"><ele>24</ele><time>2012-03-25T14:58:48Z</time><cmt>7.3 kmh</cmt></trkpt>
<trkpt lat="58.770791" lon="05.686790"><ele>24</ele><time>2012-03-25T14:58:48Z</time><cmt>7.3 kmh</cmt></trkpt>
<trkpt lat="58.770804" lon="05.686814"><ele>24</ele><time>2012-03-25T14:58:49Z</time><cmt>7.2 kmh</cmt></trkpt>
<trkpt lat="58.770817" lon="05.686839"><ele>24</ele><time>2012-03-25T14:58:50Z</time><cmt>7.3 kmh</cmt></trkpt>
<trkpt lat="58.770829" lon="05.686863"><ele>24</ele><time>2012-03-25T14:58:52Z</time><cmt>7.2 kmh</cmt></trkpt>
<trkpt lat="58.770842" lon="05.686888"><ele>24</ele><time>2012-03-25T14:58:53Z</time><cmt>7.4 kmh</cmt></trkpt>
<trkpt lat="58.770855" lon="05.686913"><ele>24</ele><time>2012-03-25T14:58:54Z</time><cmt>7.4 kmh</cmt></trkpt>
<trkpt lat="58.770867" lon="05.686939"><ele>24</ele><time>2012-03-25T14:58:54Z</time><cmt>7.5 kmh</cmt></trkpt>
<trkpt lat="58.770880" lon="05.686964"><ele>24</ele><time>2012-03-25T14:58:55Z</time><cmt>7.5 kmh</cmt></trkpt>
<trkpt lat="58.770893" lon="05.686989"><ele>24</ele><time>2012-03-25T14:58:56Z</time><cmt>7.6 kmh</cmt></trkpt>
<trkpt lat="58.770906" lon="05.687014"><ele>24</ele><time>2012-03-25T14:58:57Z</time><cmt>7.5 kmh</cmt></trkpt>
<trkpt lat="58.770919" lon="05.687039"><ele>24</ele><time>2012-03-25T14:58:59Z</time><cmt>7.5 kmh</cmt></trkpt>
<trkpt lat="58.770932" lon="05.687064"><ele>24</ele><time>2012-03-25T14:59:00Z</time><cmt>7.3 kmh</cmt></trkpt>
<trkpt lat="58.770945" lon="05.687089"><ele>24</ele><time>2012-03-25T14:59:00Z</time><cmt>7.3 kmh</cmt></trkpt>
<trkpt lat="58.770958" lon="05.687114"><ele>24</ele><time>2012-03-25T14:59:01Z</time><cmt>7.3 kmh</cmt></trkpt>
<trkpt lat="58.770970" lon="05.687139"><ele>24</ele><time>2012-03-25T14:59:02Z</time><cmt>7.3 kmh</cmt></trkpt>
<trkpt lat="58.770983" lon="05.687165"><ele>24</ele><time>2012-03-25T14:59:03Z</time><cmt>7.5 kmh</cmt></trkpt>
<trkpt lat="58.770995" lon="05.687190"><ele>24</ele><time>2012-03-25T14:59:05Z</time><cmt>7.4 kmh</cmt></trkpt>
<trkpt lat="58.771008" lon="05.687216"><ele>24</ele><time>2012-03-25T14:59:06Z</time><cmt>7.6 kmh</cmt></trkpt>
<trkpt lat="58.771020" lon="05.687244"><ele>24</ele><time>2012-03-25T14:59:07Z</time><cmt>7.6 kmh</cmt></trkpt>
<trkpt lat="58.771033" lon="05.687271"><ele>24</ele><time>2012-03-25T14:59:07Z</time><cmt>7.6 kmh</cmt></trkpt>
<trkpt lat="58.771045" lon="05.687297"><ele>24</ele><time>2012-03-25T14:59:08Z</time><cmt>7.3 kmh</cmt></trkpt>
<trkpt lat="58.771057" lon="05.687323"><ele>24</ele><time>2012-03-25T14:59:09Z</time><cmt>7.4 kmh</cmt></trkpt>
<trkpt lat="58.771069" lon="05.687348"><ele>24</ele><time>2012-03-25T14:59:11Z</time><cmt>7.2 kmh</cmt></trkpt>
<trkpt lat="58.771081" lon="05.687374"><ele>24</ele><time>2012-03-25T14:59:12Z</time><cmt>7.4 kmh</cmt></trkpt>
<trkpt lat="58.771093" lon="05.687400"><ele>24</ele><time>2012-03-25T14:59:13Z</time><cmt>7.3 kmh</cmt></trkpt>
<trkpt lat="58.771105" lon="05.687426"><ele>24</ele><time>2012-03-25T14:59:13Z</time><cmt>7.3 kmh</cmt></trkpt>
<trkpt lat="58.771117" lon="05.687452"><ele>24</ele><time>2012-03-25T14:59:14Z</time><cmt>7.2 kmh</cmt></trkpt>
<trkpt lat="58.771128" lon="05.687478"><ele>24</ele><time>2012-03-25T14:59:15Z</time><cmt>7.2 kmh</cmt></trkpt>
<trkpt lat="58.771139" lon="05.687504"><ele>24</ele><time>2012-03-25T14:59:17Z</time><cmt>7.1 kmh</cmt></trkpt>
<trkpt lat="58.771151" lon="05.687530"><ele>24</ele><time>2012-03-25T14:59:18Z</time><cmt>7.2 kmh</cmt></trkpt>
<trkpt lat="58.771163" lon="05.687556"><ele>24</ele><time>2012-03-25T14:59:19Z</time><cmt>7.2 kmh</cmt></trkpt>
<trkpt lat="58.771174" lon="05.687582"><ele>24</ele><time>2012-03-25T14:59:19Z</time><cmt>7.2 kmh</cmt></trkpt>
<trkpt lat="58.771185" lon="05.687608"><ele>24</ele><time>2012-03-25T14:59:20Z</time><cmt>7.2 kmh</cmt></trkpt>
<trkpt lat="58.771197" lon="05.687634"><ele>24</ele><time>2012-03-25T14:59:21Z</time><cmt>7.3 kmh</cmt></trkpt>
<trkpt lat="58.771209" lon="05.687660"><ele>24</ele><time>2012-03-25T14:59:23Z</time><cmt>7.1 kmh</cmt></trkpt>
<trkpt lat="58.771220" lon="05.687685"><ele>24</ele><time>2012-03-25T14:59:24Z</time><cmt>7.2 kmh</cmt></trkpt>
<trkpt lat="58.771232" lon="05.687711"><ele>24</ele><time>2012-03-25T14:59:25Z</time><cmt>7.2 kmh</cmt></trkpt>
<trkpt lat="58.771244" lon="05.687736"><ele>24</ele><time>2012-03-25T14:59:25Z</time><cmt>7.2 kmh</cmt></trkpt>
<trkpt lat="58.771256" lon="05.687762"><ele>24</ele><time>2012-03-25T14:59:26Z</time><cmt>7.2 kmh</cmt></trkpt>
<trkpt lat="58.771268" lon="05.687786"><ele>24</ele><time>2012-03-25T14:59:27Z</time><cmt>7.0 kmh</cmt></trkpt>
<trkpt lat="58.771280" lon="05.687811"><ele>24</ele><time>2012-03-25T14:59:28Z</time><cmt>7.1 kmh</cmt></trkpt>
<trkpt lat="58.771292" lon="05.687835"><ele>24</ele><time>2012-03-25T14:59:30Z</time><cmt>6.9 kmh</cmt></trkpt>
<trkpt lat="58.771303" lon="05.687860"><ele>24</ele><time>2012-03-25T14:59:31Z</time><cmt>7.1 kmh</cmt></trkpt>
<trkpt lat="58.771315" lon="05.687884"><ele>24</ele><time>2012-03-25T14:59:31Z</time><cmt>6.9 kmh</cmt></trkpt>
<trkpt lat="58.771326" lon="05.687908"><ele>24</ele><time>2012-03-25T14:59:32Z</time><cmt>6.8 kmh</cmt></trkpt>
<trkpt lat="58.771337" lon="05.687932"><ele>24</ele><time>2012-03-25T14:59:33Z</time><cmt>6.7 kmh</cmt></trkpt>
<trkpt lat="58.771348" lon="05.687956"><ele>24</ele><time>2012-03-25T14:59:34Z</time><cmt>6.6 kmh</cmt></trkpt>
<trkpt lat="58.771358" lon="05.687979"><ele>24</ele><time>2012-03-25T14:59:36Z</time><cmt>6.4 kmh</cmt></trkpt>
<trkpt lat="58.771369" lon="05.688001"><ele>24</ele><time>2012-03-25T14:59:37Z</time><cmt>6.6 kmh</cmt></trkpt>
<trkpt lat="58.771380" lon="05.688024"><ele>24</ele><time>2012-03-25T14:59:38Z</time><cmt>6.7 kmh</cmt></trkpt>
<trkpt lat="58.771392" lon="05.688046"><ele>24</ele><time>2012-03-25T14:59:38Z</time><cmt>6.7 kmh</cmt></trkpt>
<trkpt lat="58.771403" lon="05.688068"><ele>24</ele><time>2012-03-25T14:59:39Z</time><cmt>6.6 kmh</cmt></trkpt>
<trkpt lat="58.771415" lon="05.688090"><ele>24</ele><time>2012-03-25T14:59:40Z</time><cmt>6.8 kmh</cmt></trkpt>
<trkpt lat="58.771426" lon="05.688113"><ele>24</ele><time>2012-03-25T14:59:42Z</time><cmt>6.6 kmh</cmt></trkpt>
<trkpt lat="58.771437" lon="05.688135"><ele>24</ele><time>2012-03-25T14:59:43Z</time><cmt>6.7 kmh</cmt></trkpt>
<trkpt lat="58.771449" lon="05.688158"><ele>24</ele><time>2012-03-25T14:59:44Z</time><cmt>6.6 kmh</cmt></trkpt>
<trkpt lat="58.771460" lon="05.688181"><ele>24</ele><time>2012-03-25T14:59:44Z</time><cmt>6.7 kmh</cmt></trkpt>
<trkpt lat="58.771472" lon="05.688205"><ele>24</ele><time>2012-03-25T14:59:45Z</time><cmt>6.8 kmh</cmt></trkpt>
<trkpt lat="58.771483" lon="05.688229"><ele>24</ele><time>2012-03-25T14:59:46Z</time><cmt>6.8 kmh</cmt></trkpt>
<trkpt lat="58.771493" lon="05.688254"><ele>24</ele><time>2012-03-25T14:59:48Z</time><cmt>6.7 kmh</cmt></trkpt>
<trkpt lat="58.771504" lon="05.688279"><ele>24</ele><time>2012-03-25T14:59:49Z</time><cmt>6.7 kmh</cmt></trkpt>
<trkpt lat="58.771514" lon="05.688303"><ele>24</ele><time>2012-03-25T14:59:50Z</time><cmt>6.8 kmh</cmt></trkpt>
<trkpt lat="58.771525" lon="05.688327"><ele>24</ele><time>2012-03-25T14:59:50Z</time><cmt>6.6 kmh</cmt></trkpt>
<trkpt lat="58.771536" lon="05.688351"><ele>24</ele><time>2012-03-25T14:59:51Z</time><cmt>6.7 kmh</cmt></trkpt>
<trkpt lat="58.771547" lon="05.688375"><ele>24</ele><time>2012-03-25T14:59:52Z</time><cmt>6.6 kmh</cmt></trkpt>
<trkpt lat="58.771558" lon="05.688398"><ele>24</ele><time>2012-03-25T14:59:54Z</time><cmt>6.8 kmh</cmt></trkpt>
<trkpt lat="58.771569" lon="05.688422"><ele>24</ele><time>2012-03-25T14:59:55Z</time><cmt>6.8 kmh</cmt></trkpt>
<trkpt lat="58.771580" lon="05.688446"><ele>24</ele><time>2012-03-25T14:59:56Z</time><cmt>6.9 kmh</cmt></trkpt>
<trkpt lat="58.771592" lon="05.688471"><ele>24</ele><time>2012-03-25T14:59:56Z</time><cmt>7.0 kmh</cmt></trkpt>
<trkpt lat="58.771603" lon="05.688496"><ele>24</ele><time>2012-03-25T14:59:57Z</time><cmt>7.2 kmh</cmt></trkpt>
<trkpt lat="58.771615" lon="05.688521"><ele>24</ele><time>2012-03-25T14:59:58Z</time><cmt>7.2 kmh</cmt></trkpt>
<trkpt lat="58.771627" lon="05.688546"><ele>24</ele><time>2012-03-25T14:59:59Z</time><cmt>7.3 kmh</cmt></trkpt>
<trkpt lat="58.771639" lon="05.688571"><ele>24</ele><time>2012-03-25T15:00:01Z</time><cmt>7.2 kmh</cmt></trkpt>
<trkpt lat="58.771651" lon="05.688596"><ele>24</ele><time>2012-03-25T15:00:02Z</time><cmt>7.2 kmh</cmt></trkpt>
<trkpt lat="58.771663" lon="05.688620"><ele>24</ele><time>2012-03-25T15:00:02Z</time><cmt>7.1 kmh</cmt></trkpt>
<trkpt lat="58.771676" lon="05.688645"><ele>24</ele><time>2012-03-25T15:00:03Z</time><cmt>7.3 kmh</cmt></trkpt>
<trkpt lat="58.771688" lon="05.688670"><ele>24</ele><time>2012-03-25T15:00:04Z</time><cmt>7.2 kmh</cmt></trkpt>
<trkpt lat="58.771700" lon="05.688694"><ele>24</ele><time>2012-03-25T15:00:05Z</time><cmt>7.3 kmh</cmt></trkpt>
<trkpt lat="58.771713" lon="05.688719"><ele>24</ele><time>2012-03-25T15:00:07Z</time><cmt>7.5 kmh</cmt></trkpt>
<trkpt lat="58.771725" lon="05.688744"><ele>24</ele><time>2012-03-25T15:00:08Z</time><cmt>7.2 kmh</cmt></trkpt>
<trkpt lat="58.771738" lon="05.688769"><ele>24</ele><time>2012-03-25T15:00:09Z</time><cmt>7.5 kmh</cmt></trkpt>
<trkpt lat="58.771751" lon="05.688794"><ele>24</ele><time>2012-03-25T15:00:09Z</time><cmt>7.4 kmh</cmt></trkpt>
<trkpt lat="58.771763" lon="05.688819"><ele>24</ele><time>2012-03-25T15:00:10Z</time><cmt>7.5 kmh</cmt></trkpt>
<trkpt lat="58.771776" lon="05.688845"><ele>24</ele><time>2012-03-25T15:00:11Z</time><cmt>7.4 kmh</cmt></trkpt>
<trkpt lat="58.771789" lon="05.688870"><ele>24</ele><time>2012-03-25T15:00:13Z</time><cmt>7.4 kmh</cmt></trkpt>
<trkpt lat="58.771802" lon="05.688895"><ele>24</ele><time>2012-03-25T15:00:14Z</time><cmt>7.4 kmh</cmt></trkpt>
<trkpt lat="58.771814" lon="05.688921"><ele>24</ele><time>2012-03-25T15:00:15Z</time><cmt>7.5 kmh</cmt></trkpt>
<trkpt lat="58.771827" lon="05.688946"><ele>24</ele><time>2012-03-25T15:00:15Z</time><cmt>7.4 kmh</cmt></trkpt>
<trkpt lat="58.771840" lon="05.688971"><ele>24</ele><time>2012-03-25T15:00:16Z</time><cmt>7.6 kmh</cmt></trkpt>
<trkpt lat="58.771854" lon="05.688995"><ele>24</ele><time>2012-03-25T15:00:17Z</time><cmt>7.5 kmh</cmt></trkpt>
<trkpt lat="58.771867" lon="05.689020"><ele>24</ele><time>2012-03-25T15:00:19Z</time><cmt>7.5 kmh</cmt></trkpt>
<trkpt lat="58.771880" lon="05.689044"><ele>24</ele><time>2012-03-25T15:00:20Z</time><cmt>7.5 kmh</cmt></trkpt>
<trkpt lat="58.771894" lon="05.689067"><ele>24</ele><time>2012-03-25T15:00:21Z</time><cmt>7.5 kmh</cmt></trkpt>
<trkpt lat="58.771907" lon="05.689090"><ele>24</ele><time>2012-03-25T15:00:21Z</time><cmt>7.7 kmh</cmt></trkpt>
<trkpt lat="58.771921" lon="05.689115"><ele>24</ele><time>2012-03-25T15:00:22Z</time><cmt>7.7 kmh</cmt></trkpt>
<trkpt lat="58.771935" lon="05.689138"><ele>24</ele><time>2012-03-25T15:00:23Z</time><cmt>7.7 kmh</cmt></trkpt>
<trkpt lat="58.771950" lon="05.689162"><ele>24</ele><time>2012-03-25T15:00:25Z</time><cmt>7.7 kmh</cmt></trkpt>
<trkpt lat="58.771964" lon="05.689185"><ele>24</ele><time>2012-03-25T15:00:26Z</time><cmt>7.7 kmh</cmt></trkpt>
<trkpt lat="58.771979" lon="05.689208"><ele>24</ele><time>2012-03-25T15:00:27Z</time><cmt>7.3 kmh</cmt></trkpt>
<trkpt lat="58.771992" lon="05.689230"><ele>24</ele><time>2012-03-25T15:00:27Z</time><cmt>6.9 kmh</cmt></trkpt>
<trkpt lat="58.772005" lon="05.689251"><ele>24</ele><time>2012-03-25T15:00:28Z</time><cmt>6.4 kmh</cmt></trkpt>
<trkpt lat="58.772016" lon="05.689272"><ele>24</ele><time>2012-03-25T15:00:29Z</time><cmt>6.0 kmh</cmt></trkpt>
<trkpt lat="58.772027" lon="05.689290"><ele>24</ele><time>2012-03-25T15:00:30Z</time><cmt>5.5 kmh</cmt></trkpt>
<trkpt lat="58.772037" lon="05.689308"><ele>24</ele><time>2012-03-25T15:00:32Z</time><cmt>5.3 kmh</cmt></trkpt>
<trkpt lat="58.772047" lon="05.689325"><ele>24</ele><time>2012-03-25T15:00:33Z</time><cmt>5.3 kmh</cmt></trkpt>
<trkpt lat="58.772055" lon="05.689341"><ele>24</ele><time>2012-03-25T15:00:33Z</time><cmt>5.0 kmh</cmt></trkpt>
<trkpt lat="58.772063" lon="05.689356"><ele>24</ele><time>2012-03-25T15:00:34Z</time><cmt>5.0 kmh</cmt></trkpt>
<trkpt lat="58.772071" lon="05.689370"><ele>24</ele><time>2012-03-25T15:00:35Z</time><cmt>4.7 kmh</cmt></trkpt>
<trkpt lat="58.772077" lon="05.689384"><ele>24</ele><time>2012-03-25T15:00:36Z</time><cmt>4.4 kmh</cmt></trkpt>
<trkpt lat="58.772084" lon="05.689397"><ele>24</ele><time>2012-03-25T15:00:38Z</time><cmt>3.3 kmh</cmt></trkpt>
<trkpt lat="58.772090" lon="05.689409"><ele>24</ele><time>2012-03-25T15:00:39Z</time><cmt>3.2 kmh</cmt></trkpt>
<trkpt lat="58.772097" lon="05.689421"><ele>24</ele><time>2012-03-25T15:00:40Z</time><cmt>3.9 kmh</cmt></trkpt>
<trkpt lat="58.772104" lon="05.689434"><ele>24</ele><time>2012-03-25T15:00:40Z</time><cmt>4.0 kmh</cmt></trkpt>
<trkpt lat="58.772112" lon="05.689448"><ele>24</ele><time>2012-03-25T15:00:41Z</time><cmt>4.5 kmh</cmt></trkpt>
<trkpt lat="58.772121" lon="05.689463"><ele>24</ele><time>2012-03-25T15:00:42Z</time><cmt>5.1 kmh</cmt></trkpt>
<trkpt lat="58.772131" lon="05.689479"><ele>24</ele><time>2012-03-25T15:00:44Z</time><cmt>5.6 kmh</cmt></trkpt>
<trkpt lat="58.772140" lon="05.689497"><ele>24</ele><time>2012-03-25T15:00:45Z</time><cmt>5.7 kmh</cmt></trkpt>
<trkpt lat="58.772150" lon="05.689514"><ele>24</ele><time>2012-03-25T15:00:46Z</time><cmt>5.3 kmh</cmt></trkpt>
<trkpt lat="58.772159" lon="05.689528"><ele>24</ele><time>2012-03-25T15:00:46Z</time><cmt>5.3 kmh</cmt></trkpt>
<trkpt lat="58.772168" lon="05.689542"><ele>24</ele><time>2012-03-25T15:00:47Z</time><cmt>5.0 kmh</cmt></trkpt>
<trkpt lat="58.772177" lon="05.689555"><ele>24</ele><time>2012-03-25T15:00:48Z</time><cmt>4.9 kmh</cmt></trkpt>
<trkpt lat="58.772185" lon="05.689568"><ele>24</ele><time>2012-03-25T15:00:50Z</time><cmt>3.8 kmh</cmt></trkpt>
<trkpt lat="58.772193" lon="05.689580"><ele>24</ele><time>2012-03-25T15:00:51Z</time><cmt>3.5 kmh</cmt></trkpt>
<trkpt lat="58.772201" lon="05.689591"><ele>24</ele><time>2012-03-25T15:00:52Z</time><cmt>4.3 kmh</cmt></trkpt>
<trkpt lat="58.772208" lon="05.689602"><ele>24</ele><time>2012-03-25T15:00:52Z</time><cmt>4.2 kmh</cmt></trkpt>
<trkpt lat="58.772217" lon="05.689614"><ele>24</ele><time>2012-03-25T15:00:53Z</time><cmt>4.3 kmh</cmt></trkpt>
<trkpt lat="58.772226" lon="05.689625"><ele>24</ele><time>2012-03-25T15:00:54Z</time><cmt>4.5 kmh</cmt></trkpt>
<trkpt lat="58.772235" lon="05.689637"><ele>24</ele><time>2012-03-25T15:00:56Z</time><cmt>3.7 kmh</cmt></trkpt>
<trkpt lat="58.772245" lon="05.689651"><ele>24</ele><time>2012-03-25T15:00:57Z</time><cmt>5.7 kmh</cmt></trkpt>
<trkpt lat="58.772256" lon="05.689666"><ele>24</ele><time>2012-03-25T15:00:58Z</time><cmt>5.9 kmh</cmt></trkpt>
<trkpt lat="58.772269" lon="05.689681"><ele>24</ele><time>2012-03-25T15:00:58Z</time><cmt>6.0 kmh</cmt></trkpt>
<trkpt lat="58.772281" lon="05.689697"><ele>24</ele><time>2012-03-25T15:00:59Z</time><cmt>6.3 kmh</cmt></trkpt>
<trkpt lat="58.772293" lon="05.689713"><ele>24</ele><time>2012-03-25T15:01:00Z</time><cmt>5.8 kmh</cmt></trkpt>
<trkpt lat="58.772305" lon="05.689729"><ele>24</ele><time>2012-03-25T15:01:01Z</time><cmt>5.4 kmh</cmt></trkpt>
<trkpt lat="58.772315" lon="05.689743"><ele>24</ele><time>2012-03-25T15:01:03Z</time><cmt>5.1 kmh</cmt></trkpt>
<trkpt lat="58.772324" lon="05.689757"><ele>24</ele><time>2012-03-25T15:01:04Z</time><cmt>5.1 kmh</cmt></trkpt>
<trkpt lat="58.772333" lon="05.689771"><ele>24</ele><time>2012-03-25T15:01:04Z</time><cmt>5.0 kmh</cmt></trkpt>
<trkpt lat="58.772341" lon="05.689784"><ele>24</ele><time>2012-03-25T15:01:05Z</time><cmt>4.7 kmh</cmt></trkpt>
<trkpt lat="58.772349" lon="05.689796"><ele>24</ele><time>2012-03-25T15:01:06Z</time><cmt>4.5 kmh</cmt></trkpt>
<trkpt lat="58.772357" lon="05.689808"><ele>24</ele><time>2012-03-25T15:01:07Z</time><cmt>4.3 kmh</cmt></trkpt>
<trkpt lat="58.772366" lon="05.689821"><ele>24</ele><time>2012-03-25T15:01:09Z</time><cmt>5.0 kmh</cmt></trkpt>
<trkpt lat="58.772376" lon="05.689836"><ele>24</ele><time>2012-03-25T15:01:10Z</time><cmt>5.8 kmh</cmt></trkpt>
<trkpt lat="58.772388" lon="05.689852"><ele>24</ele><time>2012-03-25T15:01:11Z</time><cmt>6.3 kmh</cmt></trkpt>
<trkpt lat="58.772401" lon="05.689870"><ele>24</ele><time>2012-03-25T15:01:11Z</time><cmt>6.6 kmh</cmt></trkpt>
<trkpt lat="58.772414" lon="05.689889"><ele>24</ele><time>2012-03-25T15:01:12Z</time><cmt>6.9 kmh</cmt></trkpt>
<trkpt lat="58.772428" lon="05.689908"><ele>24</ele><time>2012-03-25T15:01:13Z</time><cmt>6.9 kmh</cmt></trkpt>
<trkpt lat="58.772442" lon="05.689928"><ele>24</ele><time>2012-03-25T15:01:15Z</time><cmt>7.2 kmh</cmt></trkpt>
<trkpt lat="58.772456" lon="05.689949"><ele>24</ele><time>2012-03-25T15:01:16Z</time><cmt>7.2 kmh</cmt></trkpt>
<trkpt lat="58.772469" lon="05.689972"><ele>24</ele><time>2012-03-25T15:01:17Z</time><cmt>7.3 kmh</cmt></trkpt>
<trkpt lat="58.772482" lon="05.689995"><ele>24</ele><time>2012-03-25T15:01:17Z</time><cmt>7.3 kmh</cmt></trkpt>
<trkpt lat="58.772496" lon="05.690018"><ele>24</ele><time>2012-03-25T15:01:18Z</time><cmt>7.5 kmh</cmt></trkpt>
<trkpt lat="58.772509" lon="05.690042"><ele>24</ele><time>2012-03-25T15:01:19Z</time><cmt>7.5 kmh</cmt></trkpt>
<trkpt lat="58.772523" lon="05.690064"><ele>24</ele><time>2012-03-25T15:01:21Z</time><cmt>7.3 kmh</cmt></trkpt>
<trkpt lat="58.772537" lon="05.690086"><ele>24</ele><time>2012-03-25T15:01:22Z</time><cmt>7.3 kmh</cmt></trkpt>
<trkpt lat="58.772551" lon="05.690108"><ele>24</ele><time>2012-03-25T15:01:23Z</time><cmt>7.5 kmh</cmt></trkpt>
<trkpt lat="58.772566" lon="05.690131"><ele>24</ele><time>2012-03-25T15:01:23Z</time><cmt>7.5 kmh</cmt></trkpt>
<trkpt lat="58.772580" lon="05.690153"><ele>24</ele><time>2012-03-25T15:01:24Z</time><cmt>7.5 kmh</cmt></trkpt>
<trkpt lat="58.772594" lon="05.690176"><ele>24</ele><time>2012-03-25T15:01:25Z</time><cmt>7.4 kmh</cmt></trkpt>
<trkpt lat="58.772608" lon="05.690199"><ele>24</ele><time>2012-03-25T15:01:27Z</time><cmt>7.4 kmh</cmt></trkpt>
<trkpt lat="58.772621" lon="05.690223"><ele>24</ele><time>2012-03-25T15:01:28Z</time><cmt>7.3 kmh</cmt></trkpt>
<trkpt lat="58.772635" lon="05.690245"><ele>24</ele><time>2012-03-25T15:01:29Z</time><cmt>7.1 kmh</cmt></trkpt>
<trkpt lat="58.772648" lon="05.690267"><ele>24</ele><time>2012-03-25T15:01:29Z</time><cmt>7.1 kmh</cmt></trkpt>
<trkpt lat="58.772661" lon="05.690288"><ele>24</ele><time>2012-03-25T15:01:30Z</time><cmt>7.1 kmh</cmt></trkpt>
<trkpt lat="58.772675" lon="05.690311"><ele>24</ele><time>2012-03-25T15:01:31Z</time><cmt>7.2 kmh</cmt></trkpt>
<trkpt lat="58.772688" lon="05.690333"><ele>24</ele><time>2012-03-25T15:01:32Z</time><cmt>7.5 kmh</cmt></trkpt>
<trkpt lat="58.772702" lon="05.690357"><ele>24</ele><time>2012-03-25T15:01:34Z</time><cmt>7.6 kmh</cmt></trkpt>
<trkpt lat="58.772716" lon="05.690379"><ele>24</ele><time>2012-03-25T15:01:35Z</time><cmt>7.1 kmh</cmt></trkpt>
<trkpt lat="58.772729" lon="05.690402"><ele>24</ele><time>2012-03-25T15:01:35Z</time><cmt>7.4 kmh</cmt></trkpt>
<trkpt lat="58.772742" lon="05.690426"><ele>24</ele><time>2012-03-25T15:01:36Z</time><cmt>7.4 kmh</cmt></trkpt>
<trkpt lat="58.772755" lon="05.690450"><ele>24</ele><time>2012-03-25T15:01:37Z</time><cmt>7.3 kmh</cmt></trkpt>
<trkpt lat="58.772768" lon="05.690473"><ele>24</ele><time>2012-03-25T15:01:38Z</time><cmt>7.4 kmh</cmt></trkpt>
<trkpt lat="58.772782" lon="05.690497"><ele>24</ele><time>2012-03-25T15:01:40Z</time><cmt>7.5 kmh</cmt></trkpt>
<trkpt lat="58.772796" lon="05.690521"><ele>24</ele><time>2012-03-25T15:01:41Z</time><cmt>7.7 kmh</cmt></trkpt>
<trkpt lat="58.772810" lon="05.690545"><ele>24</ele><time>2012-03-25T15:01:42Z</time><cmt>7.6 kmh</cmt></trkpt>
<trkpt lat="58.772823" lon="05.690569"><ele>24</ele><time>2012-03-25T15:01:42Z</time><cmt>7.3 kmh</cmt></trkpt>
<trkpt lat="58.772837" lon="05.690592"><ele>24</ele><time>2012-03-25T15:01:43Z</time><cmt>7.5 kmh</cmt></trkpt>
<trkpt lat="58.772851" lon="05.690615"><ele>24</ele><time>2012-03-25T15:01:44Z</time><cmt>7.6 kmh</cmt></trkpt>
<trkpt lat="58.772865" lon="05.690638"><ele>24</ele><time>2012-03-25T15:01:46Z</time><cmt>7.5 kmh</cmt></trkpt>
<trkpt lat="58.772880" lon="05.690662"><ele>24</ele><time>2012-03-25T15:01:47Z</time><cmt>7.8 kmh</cmt></trkpt>
<trkpt lat="58.772894" lon="05.690687"><ele>24</ele><time>2012-03-25T15:01:48Z</time><cmt>7.8 kmh</cmt></trkpt>
<trkpt lat="58.772908" lon="05.690711"><ele>24</ele><time>2012-03-25T15:01:48Z</time><cmt>8.0 kmh</cmt></trkpt>
<trkpt lat="58.772923" lon="05.690736"><ele>24</ele><time>2012-03-25T15:01:49Z</time><cmt>8.0 kmh</cmt></trkpt>
<trkpt lat="58.772938" lon="05.690762"><ele>24</ele><time>2012-03-25T15:01:50Z</time><cmt>8.3 kmh</cmt></trkpt>
<trkpt lat="58.772953" lon="05.690788"><ele>24</ele><time>2012-03-25T15:01:52Z</time><cmt>8.0 kmh</cmt></trkpt>
<trkpt lat="58.772968" lon="05.690814"><ele>24</ele><time>2012-03-25T15:01:53Z</time><cmt>8.3 kmh</cmt></trkpt>
<trkpt lat="58.772983" lon="05.690840"><ele>24</ele><time>2012-03-25T15:01:54Z</time><cmt>8.1 kmh</cmt></trkpt>
<trkpt lat="58.772998" lon="05.690864"><ele>24</ele><time>2012-03-25T15:01:54Z</time><cmt>8.1 kmh</cmt></trkpt>
<trkpt lat="58.773012" lon="05.690889"><ele>24</ele><time>2012-03-25T15:01:55Z</time><cmt>8.0 kmh</cmt></trkpt>
<trkpt lat="58.773027" lon="05.690914"><ele>24</ele><time>2012-03-25T15:01:56Z</time><cmt>7.8 kmh</cmt></trkpt>
<trkpt lat="58.773041" lon="05.690940"><ele>24</ele><time>2012-03-25T15:01:58Z</time><cmt>7.8 kmh</cmt></trkpt>
<trkpt lat="58.773056" lon="05.690965"><ele>24</ele><time>2012-03-25T15:01:59Z</time><cmt>7.7 kmh</cmt></trkpt>
<trkpt lat="58.773069" lon="05.690991"><ele>24</ele><time>2012-03-25T15:02:00Z</time><cmt>7.7 kmh</cmt></trkpt>
<trkpt lat="58.773083" lon="05.691016"><ele>24</ele><time>2012-03-25T15:02:00Z</time><cmt>7.7 kmh</cmt></trkpt>
<trkpt lat="58.773096" lon="05.691042"><ele>24</ele><time>2012-03-25T15:02:01Z</time><cmt>7.7 kmh</cmt></trkpt>
<trkpt lat="58.773110" lon="05.691067"><ele>24</ele><time>2012-03-25T15:02:02Z</time><cmt>7.5 kmh</cmt></trkpt>
<trkpt lat="58.773123" lon="05.691091"><ele>24</ele><time>2012-03-25T15:02:03Z</time><cmt>7.8 kmh</cmt></trkpt>
<trkpt lat="58.773136" lon="05.691117"><ele>24</ele><time>2012-03-25T15:02:05Z</time><cmt>7.5 kmh</cmt></trkpt>
<trkpt lat="58.773150" lon="05.691142"><ele>24</ele><time>2012-03-25T15:02:06Z</time><cmt>7.6 kmh</cmt></trkpt>
<trkpt lat="58.773163" lon="05.691168"><ele>24</ele><time>2012-03-25T15:02:06Z</time><cmt>7.5 kmh</cmt></trkpt>
<trkpt lat="58.773175" lon="05.691194"><ele>24</ele><time>2012-03-25T15:02:07Z</time><cmt>7.5 kmh</cmt></trkpt>
<trkpt lat="58.773188" lon="05.691219"><ele>24</ele><time>2012-03-25T15:02:08Z</time><cmt>7.5 kmh</cmt></trkpt>
<trkpt lat="58.773201" lon="05.691244"><ele>24</ele><time>2012-03-25T15:02:09Z</time><cmt>7.4 kmh</cmt></trkpt>
<trkpt lat="58.773214" lon="05.691270"><ele>24</ele><time>2012-03-25T15:02:11Z</time><cmt>7.6 kmh</cmt></trkpt>
<trkpt lat="58.773227" lon="05.691295"><ele>24</ele><time>2012-03-25T15:02:12Z</time><cmt>7.3 kmh</cmt></trkpt>
<trkpt lat="58.773240" lon="05.691320"><ele>24</ele><time>2012-03-25T15:02:13Z</time><cmt>7.5 kmh</cmt></trkpt>
<trkpt lat="58.773253" lon="05.691344"><ele>24</ele><time>2012-03-25T15:02:13Z</time><cmt>7.1 kmh</cmt></trkpt>
<trkpt lat="58.773266" lon="05.691368"><ele>24</ele><time>2012-03-25T15:02:14Z</time><cmt>7.4 kmh</cmt></trkpt>
<trkpt lat="58.773279" lon="05.691391"><ele>24</ele><time>2012-03-25T15:02:15Z</time><cmt>7.2 kmh</cmt></trkpt>
<trkpt lat="58.773291" lon="05.691415"><ele>24</ele><time>2012-03-25T15:02:17Z</time><cmt>7.4 kmh</cmt></trkpt>
<trkpt lat="58.773305" lon="05.691439"><ele>24</ele><time>2012-03-25T15:02:18Z</time><cmt>7.3 kmh</cmt></trkpt>
<trkpt lat="58.773318" lon="05.691462"><ele>24</ele><time>2012-03-25T15:02:19Z</time><cmt>7.3 kmh</cmt></trkpt>
<trkpt lat="58.773331" lon="05.691485"><ele>24</ele><time>2012-03-25T15:02:19Z</time><cmt>7.2 kmh</cmt></trkpt>
<trkpt lat="58.773344" lon="05.691509"><ele>24</ele><time>2012-03-25T15:02:20Z</time><cmt>7.2 kmh</cmt></trkpt>
<trkpt lat="58.773357" lon="05.691532"><ele>24</ele><time>2012-03-25T15:02:21Z</time><cmt>6.9 kmh</cmt></trkpt>
<trkpt lat="58.773370" lon="05.691554"><ele>24</ele><time>2012-03-25T15:02:23Z</time><cmt>7.1 kmh</cmt></trkpt>
<trkpt lat="58.773383" lon="05.691575"><ele>24</ele><time>2012-03-25T15:02:24Z</time><cmt>7.0 kmh</cmt></trkpt>
<trkpt lat="58.773396" lon="05.691597"><ele>24</ele><time>2012-03-25T15:02:25Z</time><cmt>7.0 kmh</cmt></trkpt>
<trkpt lat="58.773408" lon="05.691619"><ele>24</ele><time>2012-03-25T15:02:25Z</time><cmt>6.9 kmh</cmt></trkpt>
<trkpt lat="58.773421" lon="05.691641"><ele>24</ele><time>2012-03-25T15:02:26Z</time><cmt>6.9 kmh</cmt></trkpt>
<trkpt lat="58.773434" lon="05.691663"><ele>24</ele><time>2012-03-25T15:02:27Z</time><cmt>7.1 kmh</cmt></trkpt>
<trkpt lat="58.773447" lon="05.691685"><ele>24</ele><time>2012-03-25T15:02:29Z</time><cmt>7.0 kmh</cmt></trkpt>
<trkpt lat="58.773461" lon="05.691706"><ele>24</ele><time>2012-03-25T15:02:30Z</time><cmt>7.1 kmh</cmt></trkpt>
<trkpt lat="58.773474" lon="05.691728"><ele>24</ele><time>2012-03-25T15:02:31Z</time><cmt>6.9 kmh</cmt></trkpt>
<trkpt lat="58.773487" lon="05.691749"><ele>24</ele><time>2012-03-25T15:02:31Z</time><cmt>7.1 kmh</cmt></trkpt>
<trkpt lat="58.773499" lon="05.691771"><ele>24</ele><time>2012-03-25T15:02:32Z</time><cmt>6.9 kmh</cmt></trkpt>
<trkpt lat="58.773512" lon="05.691793"><ele>24</ele><time>2012-03-25T15:02:33Z</time><cmt>6.9 kmh</cmt></trkpt>
<trkpt lat="58.773524" lon="05.691815"><ele>24</ele><time>2012-03-25T15:02:35Z</time><cmt>7.0 kmh</cmt></trkpt>
<trkpt lat="58.773537" lon="05.691838"><ele>24</ele><time>2012-03-25T15:02:36Z</time><cmt>7.1 kmh</cmt></trkpt>
<trkpt lat="58.773551" lon="05.691860"><ele>24</ele><time>2012-03-25T15:02:37Z</time><cmt>6.9 kmh</cmt></trkpt>
<trkpt lat="58.773563" lon="05.691882"><ele>24</ele><time>2012-03-25T15:02:37Z</time><cmt>7.1 kmh</cmt></trkpt>
<trkpt lat="58.773575" lon="05.691905"><ele>24</ele><time>2012-03-25T15:02:38Z</time><cmt>7.2 kmh</cmt></trkpt>
<trkpt lat="58.773588" lon="05.691927"><ele>24</ele><time>2012-03-25T15:02:39Z</time><cmt>7.0 kmh</cmt></trkpt>
<trkpt lat="58.773601" lon="05.691950"><ele>24</ele><time>2012-03-25T15:02:40Z</time><cmt>7.1 kmh</cmt></trkpt>
<trkpt lat="58.773614" lon="05.691971"><ele>24</ele><time>2012-03-25T15:02:42Z</time><cmt>7.0 kmh</cmt></trkpt>
<trkpt lat="58.773627" lon="05.691993"><ele>24</ele><time>2012-03-25T15:02:43Z</time><cmt>7.1 kmh</cmt></trkpt>
<trkpt lat="58.773641" lon="05.692015"><ele>24</ele><time>2012-03-25T15:02:44Z</time><cmt>6.9 kmh</cmt></trkpt>
<trkpt lat="58.773653" lon="05.692036"><ele>24</ele><time>2012-03-25T15:02:44Z</time><cmt>6.9 kmh</cmt></trkpt>
<trkpt lat="58.773667" lon="05.692056"><ele>24</ele><time>2012-03-25T15:02:45Z</time><cmt>6.7 kmh</cmt></trkpt>
<trkpt lat="58.773680" lon="05.692077"><ele>24</ele><time>2012-03-25T15:02:46Z</time><cmt>6.9 kmh</cmt></trkpt>
<trkpt lat="58.773693" lon="05.692097"><ele>24</ele><time>2012-03-25T15:02:48Z</time><cmt>6.7 kmh</cmt></trkpt>
<trkpt lat="58.773707" lon="05.692117"><ele>24</ele><time>2012-03-25T15:02:49Z</time><cmt>6.9 kmh</cmt></trkpt>
<trkpt lat="58.773720" lon="05.692137"><ele>24</ele><time>2012-03-25T15:02:50Z</time><cmt>6.7 kmh</cmt></trkpt>
<trkpt lat="58.773733" lon="05.692157"><ele>24</ele><time>2012-03-25T15:02:50Z</time><cmt>6.7 kmh</cmt></trkpt>
<trkpt lat="58.773746" lon="05.692177"><ele>24</ele><time>2012-03-25T15:02:51Z</time><cmt>6.7 kmh</cmt></trkpt>
<trkpt lat="58.773759" lon="05.692197"><ele>24</ele><time>2012-03-25T15:02:52Z</time><cmt>6.8 kmh</cmt></trkpt>
<trkpt lat="58.773772" lon="05.692217"><ele>24</ele><time>2012-03-25T15:02:54Z</time><cmt>6.8 kmh</cmt></trkpt>
<trkpt lat="58.773786" lon="05.692237"><ele>24</ele><time>2012-03-25T15:02:55Z</time><cmt>6.9 kmh</cmt></trkpt>
<trkpt lat="58.773800" lon="05.692256"><ele>24</ele><time>2012-03-25T15:02:56Z</time><cmt>6.8 kmh</cmt></trkpt>
<trkpt lat="58.773814" lon="05.692275"><ele>24</ele><time>2012-03-25T15:02:56Z</time><cmt>6.9 kmh</cmt></trkpt>
<trkpt lat="58.773828" lon="05.692293"><ele>24</ele><time>2012-03-25T15:02:57Z</time><cmt>6.8 kmh</cmt></trkpt>
<trkpt lat="58.773841" lon="05.692312"><ele>24</ele><time>2012-03-25T15:02:58Z</time><cmt>6.9 kmh</cmt></trkpt>
<trkpt lat="58.773856" lon="05.692330"><ele>24</ele><time>2012-03-25T15:03:00Z</time><cmt>6.8 kmh</cmt></trkpt>
<trkpt lat="58.773869" lon="05.692348"><ele>24</ele><time>2012-03-25T15:03:01Z</time><cmt>6.9 kmh</cmt></trkpt>
<trkpt lat="58.773884" lon="05.692367"><ele>24</ele><time>2012-03-25T15:03:02Z</time><cmt>6.8 kmh</cmt></trkpt>
<trkpt lat="58.773898" lon="05.692385"><ele>24</ele><time>2012-03-25T15:03:02Z</time><cmt>6.9 kmh</cmt></trkpt>
<trkpt lat="58.773911" lon="05.692403"><ele>24</ele><time>2012-03-25T15:03:03Z</time><cmt>6.9 kmh</cmt></trkpt>
<trkpt lat="58.773925" lon="05.692422"><ele>24</ele><time>2012-03-25T15:03:04Z</time><cmt>6.9 kmh</cmt></trkpt>
<trkpt lat="58.773940" lon="05.692440"><ele>24</ele><time>2012-03-25T15:03:05Z</time><cmt>6.8 kmh</cmt></trkpt>
<trkpt lat="58.773954" lon="05.692458"><ele>24</ele><time>2012-03-25T15:03:07Z</time><cmt>6.8 kmh</cmt></trkpt>
<trkpt lat="58.773968" lon="05.692477"><ele>24</ele><time>2012-03-25T15:03:08Z</time><cmt>6.9 kmh</cmt></trkpt>
<trkpt lat="58.773982" lon="05.692494"><ele>24</ele><time>2012-03-25T15:03:08Z</time><cmt>6.9 kmh</cmt></trkpt>
<trkpt lat="58.773996" lon="05.692512"><ele>24</ele><time>2012-03-25T15:03:09Z</time><cmt>6.9 kmh</cmt></trkpt>
<trkpt lat="58.774011" lon="05.692528"><ele>24</ele><time>2012-03-25T15:03:10Z</time><cmt>6.9 kmh</cmt></trkpt>
<trkpt lat="58.774026" lon="05.692545"><ele>24</ele><time>2012-03-25T15:03:11Z</time><cmt>6.9 kmh</cmt></trkpt>
<trkpt lat="58.774041" lon="05.692561"><ele>24</ele><time>2012-03-25T15:03:13Z</time><cmt>6.6 kmh</cmt></trkpt>
<trkpt lat="58.774056" lon="05.692578"><ele>24</ele><time>2012-03-25T15:03:14Z</time><cmt>6.8 kmh</cmt></trkpt>
<trkpt lat="58.774070" lon="05.692593"><ele>24</ele><time>2012-03-25T15:03:15Z</time><cmt>6.7 kmh</cmt></trkpt>
<trkpt lat="58.774084" lon="05.692607"><ele>24</ele><time>2012-03-25T15:03:15Z</time><cmt>6.7 kmh</cmt></trkpt>
<trkpt lat="58.774099" lon="05.692622"><ele>24</ele><time>2012-03-25T15:03:16Z</time><cmt>6.6 kmh</cmt></trkpt>
<trkpt lat="58.774113" lon="05.692638"><ele>24</ele><time>2012-03-25T15:03:17Z</time><cmt>6.8 kmh</cmt></trkpt>
<trkpt lat="58.774127" lon="05.692654"><ele>24</ele><time>2012-03-25T15:03:19Z</time><cmt>6.7 kmh</cmt></trkpt>
<trkpt lat="58.774141" lon="05.692670"><ele>24</ele><time>2012-03-25T15:03:20Z</time><cmt>6.8 kmh</cmt></trkpt>
<trkpt lat="58.774155" lon="05.692686"><ele>24</ele><time>2012-03-25T15:03:21Z</time><cmt>6.6 kmh</cmt></trkpt>
<trkpt lat="58.774168" lon="05.692703"><ele>24</ele><time>2012-03-25T15:03:21Z</time><cmt>6.7 kmh</cmt></trkpt>
<trkpt lat="58.774182" lon="05.692720"><ele>24</ele><time>2012-03-25T15:03:22Z</time><cmt>6.6 kmh</cmt></trkpt>
<trkpt lat="58.774195" lon="05.692737"><ele>24</ele><time>2012-03-25T15:03:23Z</time><cmt>6.3 kmh</cmt></trkpt>
<trkpt lat="58.774207" lon="05.692756"><ele>24</ele><time>2012-03-25T15:03:25Z</time><cmt>6.4 kmh</cmt></trkpt>
<trkpt lat="58.774219" lon="05.692776"><ele>24</ele><time>2012-03-25T15:03:26Z</time><cmt>6.4 kmh</cmt></trkpt>
<trkpt lat="58.774231" lon="05.692797"><ele>24</ele><time>2012-03-25T15:03:27Z</time><cmt>6.4 kmh</cmt></trkpt>
<trkpt lat="58.774241" lon="05.692819"><ele>24</ele><time>2012-03-25T15:03:27Z</time><cmt>6.3 kmh</cmt></trkpt>
<trkpt lat="58.774251" lon="05.692842"><ele>24</ele><time>2012-03-25T15:03:28Z</time><cmt>5.8 kmh</cmt></trkpt>
<trkpt lat="58.774259" lon="05.692864"><ele>24</ele><time>2012-03-25T15:03:29Z</time><cmt>5.4 kmh</cmt></trkpt>
<trkpt lat="58.774265" lon="05.692886"><ele>24</ele><time>2012-03-25T15:03:31Z</time><cmt>5.0 kmh</cmt></trkpt>
<trkpt lat="58.774271" lon="05.692907"><ele>24</ele><time>2012-03-25T15:03:32Z</time><cmt>5.0 kmh</cmt></trkpt>
<trkpt lat="58.774277" lon="05.692927"><ele>24</ele><time>2012-03-25T15:03:33Z</time><cmt>5.0 kmh</cmt></trkpt>
<trkpt lat="58.774283" lon="05.692947"><ele>24</ele><time>2012-03-25T15:03:33Z</time><cmt>5.0 kmh</cmt></trkpt>
<trkpt lat="58.774289" lon="05.692969"><ele>24</ele><time>2012-03-25T15:03:34Z</time><cmt>5.5 kmh</cmt></trkpt>
<trkpt lat="58.774296" lon="05.692992"><ele>24</ele><time>2012-03-25T15:03:35Z</time><cmt>5.7 kmh</cmt></trkpt>
<trkpt lat="58.774302" lon="05.693018"><ele>24</ele><time>2012-03-25T15:03:37Z</time><cmt>6.3 kmh</cmt></trkpt>
<trkpt lat="58.774310" lon="05.693045"><ele>24</ele><time>2012-03-25T15:03:38Z</time><cmt>6.6 kmh</cmt></trkpt>
<trkpt lat="58.774317" lon="05.693074"><ele>24</ele><time>2012-03-25T15:03:39Z</time><cmt>7.2 kmh</cmt></trkpt>
<trkpt lat="58.774325" lon="05.693105"><ele>24</ele><time>2012-03-25T15:03:39Z</time><cmt>7.2 kmh</cmt></trkpt>
<trkpt lat="58.774332" lon="05.693136"><ele>24</ele><time>2012-03-25T15:03:40Z</time><cmt>7.4 kmh</cmt></trkpt>
<trkpt lat="58.774340" lon="05.693169"><ele>24</ele><time>2012-03-25T15:03:41Z</time><cmt>7.3 kmh</cmt></trkpt>
<trkpt lat="58.774347" lon="05.693201"><ele>24</ele><time>2012-03-25T15:03:42Z</time><cmt>7.4 kmh</cmt></trkpt>
<trkpt lat="58.774354" lon="05.693234"><ele>24</ele><time>2012-03-25T15:03:44Z</time><cmt>7.4 kmh</cmt></trkpt>
<trkpt lat="58.774360" lon="05.693268"><ele>24</ele><time>2012-03-25T15:03:45Z</time><cmt>7.5 kmh</cmt></trkpt>
<trkpt lat="58.774366" lon="05.693301"><ele>24</ele><time>2012-03-25T15:03:45Z</time><cmt>7.5 kmh</cmt></trkpt>
<trkpt lat="58.774372" lon="05.693336"><ele>24</ele><time>2012-03-25T15:03:46Z</time><cmt>7.6 kmh</cmt></trkpt>
<trkpt lat="58.774377" lon="05.693371"><ele>24</ele><time>2012-03-25T15:03:47Z</time><cmt>7.6 kmh</cmt></trkpt>
<trkpt lat="58.774382" lon="05.693405"><ele>24</ele><time>2012-03-25T15:03:48Z</time><cmt>7.5 kmh</cmt></trkpt>
<trkpt lat="58.774387" lon="05.693440"><ele>24</ele><time>2012-03-25T15:03:50Z</time><cmt>7.7 kmh</cmt></trkpt>
<trkpt lat="58.774391" lon="05.693476"><ele>24</ele><time>2012-03-25T15:03:51Z</time><cmt>7.5 kmh</cmt></trkpt>
<trkpt lat="58.774396" lon="05.693510"><ele>24</ele><time>2012-03-25T15:03:52Z</time><cmt>7.5 kmh</cmt></trkpt>
<trkpt lat="58.774400" lon="05.693544"><ele>24</ele><time>2012-03-25T15:03:52Z</time><cmt>7.2 kmh</cmt></trkpt>
<trkpt lat="58.774404" lon="05.693578"><ele>24</ele><time>2012-03-25T15:03:53Z</time><cmt>7.3 kmh</cmt></trkpt>
<trkpt lat="58.774408" lon="05.693612"><ele>24</ele><time>2012-03-25T15:03:54Z</time><cmt>7.1 kmh</cmt></trkpt>
<trkpt lat="58.774412" lon="05.693645"><ele>24</ele><time>2012-03-25T15:03:56Z</time><cmt>7.1 kmh</cmt></trkpt>
<trkpt lat="58.774415" lon="05.693678"><ele>24</ele><time>2012-03-25T15:03:57Z</time><cmt>7.2 kmh</cmt></trkpt>
<trkpt lat="58.774419" lon="05.693711"><ele>24</ele><time>2012-03-25T15:03:58Z</time><cmt>6.9 kmh</cmt></trkpt>
<trkpt lat="58.774422" lon="05.693743"><ele>24</ele><time>2012-03-25T15:03:58Z</time><cmt>6.9 kmh</cmt></trkpt>
<trkpt lat="58.774426" lon="05.693775"><ele>24</ele><time>2012-03-25T15:03:59Z</time><cmt>6.5 kmh</cmt></trkpt>
<trkpt lat="58.774429" lon="05.693804"><ele>24</ele><time>2012-03-25T15:04:00Z</time><cmt>6.1 kmh</cmt></trkpt>
<trkpt lat="58.774432" lon="05.693832"><ele>24</ele><time>2012-03-25T15:04:02Z</time><cmt>5.9 kmh</cmt></trkpt>
<trkpt lat="58.774435" lon="05.693860"><ele>24</ele><time>2012-03-25T15:04:03Z</time><cmt>6.1 kmh</cmt></trkpt>
<trkpt lat="58.774438" lon="05.693889"><ele>24</ele><time>2012-03-25T15:04:04Z</time><cmt>6.2 kmh</cmt></trkpt>
<trkpt lat="58.774441" lon="05.693918"><ele>24</ele><time>2012-03-25T15:04:04Z</time><cmt>6.3 kmh</cmt></trkpt>
<trkpt lat="58.774444" lon="05.693947"><ele>24</ele><time>2012-03-25T15:04:05Z</time><cmt>6.2 kmh</cmt></trkpt>
<trkpt lat="58.774447" lon="05.693976"><ele>24</ele><time>2012-03-25T15:04:06Z</time><cmt>6.4 kmh</cmt></trkpt>
<trkpt lat="58.774451" lon="05.694006"><ele>24</ele><time>2012-03-25T15:04:08Z</time><cmt>6.6 kmh</cmt></trkpt>
<trkpt lat="58.774455" lon="05.694036"><ele>24</ele><time>2012-03-25T15:04:09Z</time><cmt>6.8 kmh</cmt></trkpt>
<trkpt lat="58.774459" lon="05.694067"><ele>24</ele><time>2012-03-25T15:04:10Z</time><cmt>6.7 kmh</cmt></trkpt>
<trkpt lat="58.774463" lon="05.694099"><ele>24</ele><time>2012-03-25T15:04:10Z</time><cmt>6.9 kmh</cmt></trkpt>
<trkpt lat="58.774467" lon="05.694130"><ele>24</ele><time>2012-03-25T15:04:11Z</time><cmt>6.7 kmh</cmt></trkpt>
<trkpt lat="58.774472" lon="05.694160"><ele>24</ele><time>2012-03-25T15:04:12Z</time><cmt>6.5 kmh</cmt></trkpt>
<trkpt lat="58.774477" lon="05.694189"><ele>24</ele><time>2012-03-25T15:04:13Z</time><cmt>6.0 kmh</cmt></trkpt>
<trkpt lat="58.774482" lon="05.694215"><ele>24</ele><time>2012-03-25T15:04:15Z</time><cmt>5.7 kmh</cmt></trkpt>
<trkpt lat="58.774488" lon="05.694240"><ele>24</ele><time>2012-03-25T15:04:16Z</time><cmt>5.3 kmh</cmt></trkpt>
<trkpt lat="58.774493" lon="05.694265"><ele>24</ele><time>2012-03-25T15:04:17Z</time><cmt>5.6 kmh</cmt></trkpt>
<trkpt lat="58.774498" lon="05.694290"><ele>24</ele><time>2012-03-25T15:04:17Z</time><cmt>5.7 kmh</cmt></trkpt>
<trkpt lat="58.774504" lon="05.694315"><ele>24</ele><time>2012-03-25T15:04:18Z</time><cmt>5.9 kmh</cmt></trkpt>
<trkpt lat="58.774509" lon="05.694341"><ele>24</ele><time>2012-03-25T15:04:19Z</time><cmt>6.0 kmh</cmt></trkpt>
<trkpt lat="58.774515" lon="05.694369"><ele>24</ele><time>2012-03-25T15:04:21Z</time><cmt>6.3 kmh</cmt></trkpt>
<trkpt lat="58.774520" lon="05.694397"><ele>24</ele><time>2012-03-25T15:04:22Z</time><cmt>6.3 kmh</cmt></trkpt>
<trkpt lat="58.774526" lon="05.694426"><ele>24</ele><time>2012-03-25T15:04:23Z</time><cmt>6.6 kmh</cmt></trkpt>
<trkpt lat="58.774531" lon="05.694456"><ele>24</ele><time>2012-03-25T15:04:23Z</time><cmt>6.7 kmh</cmt></trkpt>
<trkpt lat="58.774536" lon="05.694487"><ele>24</ele><time>2012-03-25T15:04:24Z</time><cmt>6.7 kmh</cmt></trkpt>
<trkpt lat="58.774541" lon="05.694517"><ele>24</ele><time>2012-03-25T15:04:25Z</time><cmt>6.7 kmh</cmt></trkpt>
<trkpt lat="58.774546" lon="05.694548"><ele>24</ele><time>2012-03-25T15:04:27Z</time><cmt>6.7 kmh</cmt></trkpt>
<trkpt lat="58.774551" lon="05.694579"><ele>24</ele><time>2012-03-25T15:04:28Z</time><cmt>6.8 kmh</cmt></trkpt>
<trkpt lat="58.774556" lon="05.694610"><ele>24</ele><time>2012-03-25T15:04:29Z</time><cmt>7.0 kmh</cmt></trkpt>
<trkpt lat="58.774561" lon="05.694642"><ele>24</ele><time>2012-03-25T15:04:29Z</time><cmt>7.0 kmh</cmt></trkpt>
<trkpt lat="58.774567" lon="05.694674"><ele>24</ele><time>2012-03-25T15:04:30Z</time><cmt>7.1 kmh</cmt></trkpt>
<trkpt lat="58.774573" lon="05.694706"><ele>24</ele><time>2012-03-25T15:04:31Z</time><cmt>7.1 kmh</cmt></trkpt>
<trkpt lat="58.774579" lon="05.694738"><ele>24</ele><time>2012-03-25T15:04:33Z</time><cmt>7.4 kmh</cmt></trkpt>
<trkpt lat="58.774585" lon="05.694771"><ele>24</ele><time>2012-03-25T15:04:34Z</time><cmt>7.2 kmh</cmt></trkpt>
<trkpt lat="58.774591" lon="05.694804"><ele>24</ele><time>2012-03-25T15:04:35Z</time><cmt>7.1 kmh</cmt></trkpt>
<trkpt lat="58.774597" lon="05.694836"><ele>24</ele><time>2012-03-25T15:04:35Z</time><cmt>7.0 kmh</cmt></trkpt>
<trkpt lat="58.774603" lon="05.694867"><ele>24</ele><time>2012-03-25T15:04:36Z</time><cmt>7.1 kmh</cmt></trkpt>
<trkpt lat="58.774609" lon="05.694899"><ele>24</ele><time>2012-03-25T15:04:37Z</time><cmt>6.9 kmh</cmt></trkpt>
<trkpt lat="58.774614" lon="05.694931"><ele>24</ele><time>2012-03-25T15:04:39Z</time><cmt>7.0 kmh</cmt></trkpt>
<trkpt lat="58.774620" lon="05.694962"><ele>24</ele><time>2012-03-25T15:04:40Z</time><cmt>6.9 kmh</cmt></trkpt>
<trkpt lat="58.774625" lon="05.694994"><ele>24</ele><time>2012-03-25T15:04:41Z</time><cmt>6.8 kmh</cmt></trkpt>
<trkpt lat="58.774630" lon="05.695025"><ele>24</ele><time>2012-03-25T15:04:41Z</time><cmt>6.8 kmh</cmt></trkpt>
<trkpt lat="58.774635" lon="05.695056"><ele>24</ele><time>2012-03-25T15:04:42Z</time><cmt>6.7 kmh</cmt></trkpt>
<trkpt lat="58.774640" lon="05.695087"><ele>24</ele><time>2012-03-25T15:04:43Z</time><cmt>6.9 kmh</cmt></trkpt>
<trkpt lat="58.774646" lon="05.695118"><ele>24</ele><time>2012-03-25T15:04:44Z</time><cmt>6.8 kmh</cmt></trkpt>
<trkpt lat="58.774651" lon="05.695149"><ele>24</ele><time>2012-03-25T15:04:46Z</time><cmt>6.8 kmh</cmt></trkpt>
<trkpt lat="58.774657" lon="05.695179"><ele>24</ele><time>2012-03-25T15:04:47Z</time><cmt>6.8 kmh</cmt></trkpt>
<trkpt lat="58.774663" lon="05.695211"><ele>24</ele><time>2012-03-25T15:04:48Z</time><cmt>7.0 kmh</cmt></trkpt>
<trkpt lat="58.774668" lon="05.695242"><ele>24</ele><time>2012-03-25T15:04:48Z</time><cmt>7.0 kmh</cmt></trkpt>
<trkpt lat="58.774674" lon="05.695274"><ele>24</ele><time>2012-03-25T15:04:49Z</time><cmt>7.2 kmh</cmt></trkpt>
<trkpt lat="58.774680" lon="05.695306"><ele>24</ele><time>2012-03-25T15:04:50Z</time><cmt>7.1 kmh</cmt></trkpt>
<trkpt lat="58.774687" lon="05.695338"><ele>24</ele><time>2012-03-25T15:04:52Z</time><cmt>7.2 kmh</cmt></trkpt>
<trkpt lat="58.774693" lon="05.695370"><ele>24</ele><time>2012-03-25T15:04:53Z</time><cmt>7.1 kmh</cmt></trkpt>
<trkpt lat="58.774699" lon="05.695403"><ele>24</ele><time>2012-03-25T15:04:54Z</time><cmt>7.2 kmh</cmt></trkpt>
<trkpt lat="58.774706" lon="05.695435"><ele>24</ele><time>2012-03-25T15:04:54Z</time><cmt>7.2 kmh</cmt></trkpt>
<trkpt lat="58.774712" lon="05.695467"><ele>24</ele><time>2012-03-25T15:04:55Z</time><cmt>7.1 kmh</cmt></trkpt>
<trkpt lat="58.774718" lon="05.695499"><ele>24</ele><time>2012-03-25T15:04:56Z</time><cmt>7.1 kmh</cmt></trkpt>
<trkpt lat="58.774725" lon="05.695531"><ele>24</ele><time>2012-03-25T15:04:58Z</time><cmt>7.1 kmh</cmt></trkpt>
<trkpt lat="58.774731" lon="05.695563"><ele>24</ele><time>2012-03-25T15:04:59Z</time><cmt>7.2 kmh</cmt></trkpt>
<trkpt lat="58.774737" lon="05.695596"><ele>24</ele><time>2012-03-25T15:05:00Z</time><cmt>7.2 kmh</cmt></trkpt>
<trkpt lat="58.774743" lon="05.695628"><ele>24</ele><time>2012-03-25T15:05:00Z</time><cmt>7.3 kmh</cmt></trkpt>
<trkpt lat="58.774750" lon="05.695661"><ele>24</ele><time>2012-03-25T15:05:01Z</time><cmt>7.1 kmh</cmt></trkpt>
<trkpt lat="58.774756" lon="05.695693"><ele>24</ele><time>2012-03-25T15:05:02Z</time><cmt>7.2 kmh</cmt></trkpt>
<trkpt lat="58.774762" lon="05.695726"><ele>24</ele><time>2012-03-25T15:05:04Z</time><cmt>7.2 kmh</cmt></trkpt>
<trkpt lat="58.774768" lon="05.695759"><ele>24</ele><time>2012-03-25T15:05:05Z</time><cmt>7.3 kmh</cmt></trkpt>
<trkpt lat="58.774774" lon="05.695792"><ele>24</ele><time>2012-03-25T15:05:06Z</time><cmt>7.2 kmh</cmt></trkpt>
<trkpt lat="58.774780" lon="05.695824"><ele>24</ele><time>2012-03-25T15:05:06Z</time><cmt>7.2 kmh</cmt></trkpt>
<trkpt lat="58.774786" lon="05.695858"><ele>24</ele><time>2012-03-25T15:05:07Z</time><cmt>7.3 kmh</cmt></trkpt>
<trkpt lat="58.774792" lon="05.695891"><ele>24</ele><time>2012-03-25T15:05:08Z</time><cmt>7.4 kmh</cmt></trkpt>
<trkpt lat="58.774798" lon="05.695924"><ele>24</ele><time>2012-03-25T15:05:10Z</time><cmt>7.3 kmh</cmt></trkpt>
<trkpt lat="58.774804" lon="05.695957"><ele>24</ele><time>2012-03-25T15:05:11Z</time><cmt>7.3 kmh</cmt></trkpt>
<trkpt lat="58.774810" lon="05.695991"><ele>24</ele><time>2012-03-25T15:05:12Z</time><cmt>7.5 kmh</cmt></trkpt>
<trkpt lat="58.774816" lon="05.696025"><ele>24</ele><time>2012-03-25T15:05:12Z</time><cmt>7.5 kmh</cmt></trkpt>
<trkpt lat="58.774821" lon="05.696059"><ele>24</ele><time>2012-03-25T15:05:13Z</time><cmt>7.5 kmh</cmt></trkpt>
<trkpt lat="58.774826" lon="05.696094"><ele>23</ele><time>2012-03-25T15:05:14Z</time><cmt>7.4 kmh</cmt></trkpt>
<trkpt lat="58.774832" lon="05.696127"><ele>23</ele><time>2012-03-25T15:05:15Z</time><cmt>7.4 kmh</cmt></trkpt>
<trkpt lat="58.774838" lon="05.696161"><ele>23</ele><time>2012-03-25T15:05:17Z</time><cmt>7.2 kmh</cmt></trkpt>
<trkpt lat="58.774845" lon="05.696194"><ele>23</ele><time>2012-03-25T15:05:18Z</time><cmt>7.3 kmh</cmt></trkpt>
<trkpt lat="58.774852" lon="05.696226"><ele>23</ele><time>2012-03-25T15:05:19Z</time><cmt>7.3 kmh</cmt></trkpt>
<trkpt lat="58.774859" lon="05.696258"><ele>23</ele><time>2012-03-25T15:05:19Z</time><cmt>7.3 kmh</cmt></trkpt>
<trkpt lat="58.774866" lon="05.696290"><ele>23</ele><time>2012-03-25T15:05:20Z</time><cmt>7.1 kmh</cmt></trkpt>
<trkpt lat="58.774873" lon="05.696322"><ele>23</ele><time>2012-03-25T15:05:21Z</time><cmt>7.4 kmh</cmt></trkpt>
<trkpt lat="58.774880" lon="05.696354"><ele>23</ele><time>2012-03-25T15:05:23Z</time><cmt>7.3 kmh</cmt></trkpt>
<trkpt lat="58.774888" lon="05.696387"><ele>23</ele><time>2012-03-25T15:05:24Z</time><cmt>7.3 kmh</cmt></trkpt>
<trkpt lat="58.774895" lon="05.696419"><ele>23</ele><time>2012-03-25T15:05:25Z</time><cmt>7.5 kmh</cmt></trkpt>
<trkpt lat="58.774903" lon="05.696451"><ele>23</ele><time>2012-03-25T15:05:25Z</time><cmt>7.2 kmh</cmt></trkpt>
<trkpt lat="58.774911" lon="05.696482"><ele>23</ele><time>2012-03-25T15:05:26Z</time><cmt>7.2 kmh</cmt></trkpt>
<trkpt lat="58.774919" lon="05.696513"><ele>23</ele><time>2012-03-25T15:05:27Z</time><cmt>6.8 kmh</cmt></trkpt>
<trkpt lat="58.774927" lon="05.696543"><ele>23</ele><time>2012-03-25T15:05:29Z</time><cmt>7.1 kmh</cmt></trkpt>
<trkpt lat="58.774936" lon="05.696573"><ele>23</ele><time>2012-03-25T15:05:30Z</time><cmt>6.9 kmh</cmt></trkpt>
<trkpt lat="58.774944" lon="05.696601"><ele>23</ele><time>2012-03-25T15:05:31Z</time><cmt>6.2 kmh</cmt></trkpt>
<trkpt lat="58.774952" lon="05.696627"><ele>23</ele><time>2012-03-25T15:05:31Z</time><cmt>5.9 kmh</cmt></trkpt>
<trkpt lat="58.774960" lon="05.696651"><ele>23</ele><time>2012-03-25T15:05:32Z</time><cmt>5.5 kmh</cmt></trkpt>
<trkpt lat="58.774968" lon="05.696674"><ele>23</ele><time>2012-03-25T15:05:33Z</time><cmt>5.6 kmh</cmt></trkpt>
<trkpt lat="58.774976" lon="05.696697"><ele>23</ele><time>2012-03-25T15:05:35Z</time><cmt>6.0 kmh</cmt></trkpt>
<trkpt lat="58.774985" lon="05.696720"><ele>23</ele><time>2012-03-25T15:05:36Z</time><cmt>6.0 kmh</cmt></trkpt>
<trkpt lat="58.774993" lon="05.696746"><ele>23</ele><time>2012-03-25T15:05:37Z</time><cmt>6.6 kmh</cmt></trkpt>
<trkpt lat="58.775002" lon="05.696772"><ele>23</ele><time>2012-03-25T15:05:37Z</time><cmt>6.3 kmh</cmt></trkpt>
<trkpt lat="58.775010" lon="05.696800"><ele>23</ele><time>2012-03-25T15:05:38Z</time><cmt>6.8 kmh</cmt></trkpt>
<trkpt lat="58.775018" lon="05.696828"><ele>23</ele><time>2012-03-25T15:05:39Z</time><cmt>6.5 kmh</cmt></trkpt>
<trkpt lat="58.775025" lon="05.696857"><ele>23</ele><time>2012-03-25T15:05:41Z</time><cmt>6.7 kmh</cmt></trkpt>
<trkpt lat="58.775031" lon="05.696887"><ele>23</ele><time>2012-03-25T15:05:42Z</time><cmt>6.8 kmh</cmt></trkpt>
<trkpt lat="58.775036" lon="05.696918"><ele>23</ele><time>2012-03-25T15:05:43Z</time><cmt>6.8 kmh</cmt></trkpt>
<trkpt lat="58.775040" lon="05.696951"><ele>23</ele><time>2012-03-25T15:05:43Z</time><cmt>7.1 kmh</cmt></trkpt>
<trkpt lat="58.775045" lon="05.696983"><ele>23</ele><time>2012-03-25T15:05:44Z</time><cmt>6.8 kmh</cmt></trkpt>
<trkpt lat="58.775048" lon="05.697015"><ele>23</ele><time>2012-03-25T15:05:45Z</time><cmt>6.8 kmh</cmt></trkpt>
<trkpt lat="58.775052" lon="05.697047"><ele>23</ele><time>2012-03-25T15:05:46Z</time><cmt>6.8 kmh</cmt></trkpt>
<trkpt lat="58.775056" lon="05.697078"><ele>23</ele><time>2012-03-25T15:05:48Z</time><cmt>6.7 kmh</cmt></trkpt>
<trkpt lat="58.775059" lon="05.697110"><ele>23</ele><time>2012-03-25T15:05:49Z</time><cmt>6.9 kmh</cmt></trkpt>
<trkpt lat="58.775063" lon="05.697141"><ele>23</ele><time>2012-03-25T15:05:49Z</time><cmt>6.8 kmh</cmt></trkpt>
<trkpt lat="58.775067" lon="05.697173"><ele>23</ele><time>2012-03-25T15:05:50Z</time><cmt>7.0 kmh</cmt></trkpt>
<trkpt lat="58.775071" lon="05.697205"><ele>23</ele><time>2012-03-25T15:05:51Z</time><cmt>6.8 kmh</cmt></trkpt>
<trkpt lat="58.775075" lon="05.697238"><ele>23</ele><time>2012-03-25T15:05:52Z</time><cmt>7.1 kmh</cmt></trkpt>
<trkpt lat="58.775078" lon="05.697270"><ele>23</ele><time>2012-03-25T15:05:54Z</time><cmt>6.9 kmh</cmt></trkpt>
<trkpt lat="58.775082" lon="05.697303"><ele>23</ele><time>2012-03-25T15:05:55Z</time><cmt>7.2 kmh</cmt></trkpt>
<trkpt lat="58.775085" lon="05.697337"><ele>23</ele><time>2012-03-25T15:05:56Z</time><cmt>7.0 kmh</cmt></trkpt>
<trkpt lat="58.775089" lon="05.697370"><ele>23</ele><time>2012-03-25T15:05:56Z</time><cmt>7.1 kmh</cmt></trkpt>
<trkpt lat="58.775092" lon="05.697402"><ele>23</ele><time>2012-03-25T15:05:57Z</time><cmt>6.7 kmh</cmt></trkpt>
<trkpt lat="58.775095" lon="05.697434"><ele>23</ele><time>2012-03-25T15:05:58Z</time><cmt>6.9 kmh</cmt></trkpt>
<trkpt lat="58.775098" lon="05.697465"><ele>23</ele><time>2012-03-25T15:06:00Z</time><cmt>6.5 kmh</cmt></trkpt>
<trkpt lat="58.775102" lon="05.697495"><ele>23</ele><time>2012-03-25T15:06:01Z</time><cmt>5.9 kmh</cmt></trkpt>
<trkpt lat="58.775105" lon="05.697521"><ele>23</ele><time>2012-03-25T15:06:02Z</time><cmt>5.4 kmh</cmt></trkpt>
<trkpt lat="58.775109" lon="05.697546"><ele>23</ele><time>2012-03-25T15:06:02Z</time><cmt>5.1 kmh</cmt></trkpt>
<trkpt lat="58.775113" lon="05.697569"><ele>23</ele><time>2012-03-25T15:06:03Z</time><cmt>5.1 kmh</cmt></trkpt>
<trkpt lat="58.775116" lon="05.697591"><ele>23</ele><time>2012-03-25T15:06:04Z</time><cmt>5.0 kmh</cmt></trkpt>
<trkpt lat="58.775120" lon="05.697612"><ele>23</ele><time>2012-03-25T15:06:06Z</time><cmt>4.1 kmh</cmt></trkpt>
<trkpt lat="58.775124" lon="05.697632"><ele>23</ele><time>2012-03-25T15:06:07Z</time><cmt>4.0 kmh</cmt></trkpt>
<trkpt lat="58.775127" lon="05.697652"><ele>23</ele><time>2012-03-25T15:06:08Z</time><cmt>4.7 kmh</cmt></trkpt>
<trkpt lat="58.775130" lon="05.697671"><ele>23</ele><time>2012-03-25T15:06:08Z</time><cmt>4.5 kmh</cmt></trkpt>
<trkpt lat="58.775133" lon="05.697688"><ele>23</ele><time>2012-03-25T15:06:09Z</time><cmt>4.3 kmh</cmt></trkpt>
<trkpt lat="58.775135" lon="05.697705"><ele>23</ele><time>2012-03-25T15:06:10Z</time><cmt>4.0 kmh</cmt></trkpt>
<trkpt lat="58.775137" lon="05.697722"><ele>23</ele><time>2012-03-25T15:06:12Z</time><cmt>3.1 kmh</cmt></trkpt>
<trkpt lat="58.775139" lon="05.697737"><ele>23</ele><time>2012-03-25T15:06:13Z</time><cmt>3.0 kmh</cmt></trkpt>
<trkpt lat="58.775141" lon="05.697753"><ele>23</ele><time>2012-03-25T15:06:14Z</time><cmt>3.6 kmh</cmt></trkpt>
<trkpt lat="58.775143" lon="05.697768"><ele>23</ele><time>2012-03-25T15:06:14Z</time><cmt>3.4 kmh</cmt></trkpt>
<trkpt lat="58.775144" lon="05.697782"><ele>23</ele><time>2012-03-25T15:06:15Z</time><cmt>3.3 kmh</cmt></trkpt>
<trkpt lat="58.775145" lon="05.697796"><ele>23</ele><time>2012-03-25T15:06:16Z</time><cmt>3.2 kmh</cmt></trkpt>
<trkpt lat="58.775146" lon="05.697810"><ele>23</ele><time>2012-03-25T15:06:17Z</time><cmt>3.1 kmh</cmt></trkpt>
<trkpt lat="58.775146" lon="05.697823"><ele>23</ele><time>2012-03-25T15:06:19Z</time><cmt>2.4 kmh</cmt></trkpt>
<trkpt lat="58.775147" lon="05.697836"><ele>23</ele><time>2012-03-25T15:06:20Z</time><cmt>2.4 kmh</cmt></trkpt>
<trkpt lat="58.775147" lon="05.697848"><ele>23</ele><time>2012-03-25T15:06:20Z</time><cmt>2.8 kmh</cmt></trkpt>
<trkpt lat="58.775147" lon="05.697861"><ele>23</ele><time>2012-03-25T15:06:21Z</time><cmt>2.7 kmh</cmt></trkpt>
<trkpt lat="58.775146" lon="05.697873"><ele>23</ele><time>2012-03-25T15:06:22Z</time><cmt>2.7 kmh</cmt></trkpt>
<trkpt lat="58.775146" lon="05.697884"><ele>23</ele><time>2012-03-25T15:06:23Z</time><cmt>2.6 kmh</cmt></trkpt>
<trkpt lat="58.775145" lon="05.697895"><ele>23</ele><time>2012-03-25T15:06:25Z</time><cmt>2.1 kmh</cmt></trkpt>
<trkpt lat="58.775144" lon="05.697906"><ele>23</ele><time>2012-03-25T15:06:26Z</time><cmt>2.0 kmh</cmt></trkpt>
<trkpt lat="58.775143" lon="05.697917"><ele>23</ele><time>2012-03-25T15:06:27Z</time><cmt>2.5 kmh</cmt></trkpt>
<trkpt lat="58.775142" lon="05.697928"><ele>23</ele><time>2012-03-25T15:06:27Z</time><cmt>2.4 kmh</cmt></trkpt>
<trkpt lat="58.775141" lon="05.697938"><ele>23</ele><time>2012-03-25T15:06:28Z</time><cmt>2.3 kmh</cmt></trkpt>
<trkpt lat="58.775140" lon="05.697948"><ele>23</ele><time>2012-03-25T15:06:29Z</time><cmt>2.3 kmh</cmt></trkpt>
<trkpt lat="58.775139" lon="05.697957"><ele>23</ele><time>2012-03-25T15:06:31Z</time><cmt>1.8 kmh</cmt></trkpt>
<trkpt lat="58.775138" lon="05.697966"><ele>23</ele><time>2012-03-25T15:06:32Z</time><cmt>1.7 kmh</cmt></trkpt>
<trkpt lat="58.775137" lon="05.697976"><ele>23</ele><time>2012-03-25T15:06:33Z</time><cmt>2.2 kmh</cmt></trkpt>
<trkpt lat="58.775136" lon="05.697989"><ele>23</ele><time>2012-03-25T15:06:33Z</time><cmt>2.6 kmh</cmt></trkpt>
<trkpt lat="58.775135" lon="05.698004"><ele>23</ele><time>2012-03-25T15:06:34Z</time><cmt>3.2 kmh</cmt></trkpt>
<trkpt lat="58.775133" lon="05.698022"><ele>23</ele><time>2012-03-25T15:06:35Z</time><cmt>3.8 kmh</cmt></trkpt>
<trkpt lat="58.775132" lon="05.698043"><ele>23</ele><time>2012-03-25T15:06:37Z</time><cmt>3.5 kmh</cmt></trkpt>
<trkpt lat="58.775130" lon="05.698066"><ele>23</ele><time>2012-03-25T15:06:38Z</time><cmt>5.3 kmh</cmt></trkpt>
<trkpt lat="58.775127" lon="05.698092"><ele>23</ele><time>2012-03-25T15:06:39Z</time><cmt>6.0 kmh</cmt></trkpt>
<trkpt lat="58.775124" lon="05.698120"><ele>23</ele><time>2012-03-25T15:06:39Z</time><cmt>6.2 kmh</cmt></trkpt>
<trkpt lat="58.775121" lon="05.698150"><ele>23</ele><time>2012-03-25T15:06:40Z</time><cmt>6.8 kmh</cmt></trkpt>
<trkpt lat="58.775117" lon="05.698181"><ele>23</ele><time>2012-03-25T15:06:41Z</time><cmt>6.8 kmh</cmt></trkpt>
<trkpt lat="58.775112" lon="05.698213"><ele>23</ele><time>2012-03-25T15:06:43Z</time><cmt>7.1 kmh</cmt></trkpt>
<trkpt lat="58.775108" lon="05.698246"><ele>23</ele><time>2012-03-25T15:06:44Z</time><cmt>7.1 kmh</cmt></trkpt>
<trkpt lat="58.775102" lon="05.698278"><ele>23</ele><time>2012-03-25T15:06:45Z</time><cmt>7.2 kmh</cmt></trkpt>
<trkpt lat="58.775096" lon="05.698310"><ele>23</ele><time>2012-03-25T15:06:45Z</time><cmt>7.1 kmh</cmt></trkpt>
<trkpt lat="58.775090" lon="05.698342"><ele>23</ele><time>2012-03-25T15:06:46Z</time><cmt>7.1 kmh</cmt></trkpt>
<trkpt lat="58.775083" lon="05.698374"><ele>23</ele><time>2012-03-25T15:06:47Z</time><cmt>7.1 kmh</cmt></trkpt>
<trkpt lat="58.775076" lon="05.698405"><ele>23</ele><time>2012-03-25T15:06:48Z</time><cmt>7.3 kmh</cmt></trkpt>
<trkpt lat="58.775069" lon="05.698437"><ele>23</ele><time>2012-03-25T15:06:50Z</time><cmt>7.1 kmh</cmt></trkpt>
<trkpt lat="58.775062" lon="05.698467"><ele>23</ele><time>2012-03-25T15:06:51Z</time><cmt>7.1 kmh</cmt></trkpt>
<trkpt lat="58.775055" lon="05.698498"><ele>23</ele><time>2012-03-25T15:06:51Z</time><cmt>7.1 kmh</cmt></trkpt>
<trkpt lat="58.775047" lon="05.698528"><ele>23</ele><time>2012-03-25T15:06:52Z</time><cmt>7.0 kmh</cmt></trkpt>
<trkpt lat="58.775039" lon="05.698557"><ele>23</ele><time>2012-03-25T15:06:53Z</time><cmt>7.0 kmh</cmt></trkpt>
<trkpt lat="58.775031" lon="05.698586"><ele>24</ele><time>2012-03-25T15:06:54Z</time><cmt>6.8 kmh</cmt></trkpt>
<trkpt lat="58.775023" lon="05.698614"><ele>24</ele><time>2012-03-25T15:06:56Z</time><cmt>7.1 kmh</cmt></trkpt>
<trkpt lat="58.775014" lon="05.698644"><ele>24</ele><time>2012-03-25T15:06:57Z</time><cmt>7.0 kmh</cmt></trkpt>
<trkpt lat="58.775005" lon="05.698674"><ele>24</ele><time>2012-03-25T15:06:58Z</time><cmt>7.3 kmh</cmt></trkpt>
<trkpt lat="58.774996" lon="05.698702"><ele>24</ele><time>2012-03-25T15:06:58Z</time><cmt>7.2 kmh</cmt></trkpt>
<trkpt lat="58.774987" lon="05.698732"><ele>24</ele><time>2012-03-25T15:06:59Z</time><cmt>7.3 kmh</cmt></trkpt>
<trkpt lat="58.774978" lon="05.698761"><ele>24</ele><time>2012-03-25T15:07:00Z</time><cmt>7.4 kmh</cmt></trkpt>
<trkpt lat="58.774968" lon="05.698790"><ele>24</ele><time>2012-03-25T15:07:02Z</time><cmt>7.7 kmh</cmt></trkpt>
<trkpt lat="58.774958" lon="05.698820"><ele>24</ele><time>2012-03-25T15:07:03Z</time><cmt>7.5 kmh</cmt></trkpt>
<trkpt lat="58.774948" lon="05.698850"><ele>24</ele><time>2012-03-25T15:07:04Z</time><cmt>7.7 kmh</cmt></trkpt>
<trkpt lat="58.774937" lon="05.698880"><ele>24</ele><time>2012-03-25T15:07:04Z</time><cmt>7.6 kmh</cmt></trkpt>
<trkpt lat="58.774926" lon="05.698911"><ele>24</ele><time>2012-03-25T15:07:05Z</time><cmt>8.0 kmh</cmt></trkpt>
<trkpt lat="58.774916" lon="05.698942"><ele>24</ele><time>2012-03-25T15:07:06Z</time><cmt>7.9 kmh</cmt></trkpt>
<trkpt lat="58.774905" lon="05.698973"><ele>24</ele><time>2012-03-25T15:07:08Z</time><cmt>8.0 kmh</cmt></trkpt>
<trkpt lat="58.774893" lon="05.699004"><ele>24</ele><time>2012-03-25T15:07:09Z</time><cmt>8.0 kmh</cmt></trkpt>
<trkpt lat="58.774882" lon="05.699035"><ele>24</ele><time>2012-03-25T15:07:10Z</time><cmt>8.1 kmh</cmt></trkpt>
<trkpt lat="58.774870" lon="05.699067"><ele>24</ele><time>2012-03-25T15:07:10Z</time><cmt>8.3 kmh</cmt></trkpt>
<trkpt lat="58.774858" lon="05.699100"><ele>24</ele><time>2012-03-25T15:07:11Z</time><cmt>8.5 kmh</cmt></trkpt>
<trkpt lat="58.774846" lon="05.699132"><ele>24</ele><time>2012-03-25T15:07:12Z</time><cmt>8.1 kmh</cmt></trkpt>
<trkpt lat="58.774834" lon="05.699164"><ele>24</ele><time>2012-03-25T15:07:14Z</time><cmt>8.0 kmh</cmt></trkpt>
<trkpt lat="58.774822" lon="05.699197"><ele>24</ele><time>2012-03-25T15:07:15Z</time><cmt>8.2 kmh</cmt></trkpt>
<trkpt lat="58.774811" lon="05.699228"><ele>24</ele><time>2012-03-25T15:07:16Z</time><cmt>8.0 kmh</cmt></trkpt>
<trkpt lat="58.774800" lon="05.699259"><ele>24</ele><time>2012-03-25T15:07:16Z</time><cmt>7.9 kmh</cmt></trkpt>
<trkpt lat="58.774788" lon="05.699290"><ele>24</ele><time>2012-03-25T15:07:17Z</time><cmt>8.0 kmh</cmt></trkpt>
<trkpt lat="58.774777" lon="05.699320"><ele>24</ele><time>2012-03-25T15:07:18Z</time><cmt>8.0 kmh</cmt></trkpt>
<trkpt lat="58.774766" lon="05.699350"><ele>24</ele><time>2012-03-25T15:07:19Z</time><cmt>8.0 kmh</cmt></trkpt>
<trkpt lat="58.774755" lon="05.699380"><ele>24</ele><time>2012-03-25T15:07:21Z</time><cmt>7.8 kmh</cmt></trkpt>
<trkpt lat="58.774745" lon="05.699409"><ele>24</ele><time>2012-03-25T15:07:22Z</time><cmt>7.7 kmh</cmt></trkpt>
<trkpt lat="58.774734" lon="05.699438"><ele>24</ele><time>2012-03-25T15:07:22Z</time><cmt>7.7 kmh</cmt></trkpt>
<trkpt lat="58.774723" lon="05.699469"><ele>24</ele><time>2012-03-25T15:07:23Z</time><cmt>8.1 kmh</cmt></trkpt>
<trkpt lat="58.774713" lon="05.699500"><ele>24</ele><time>2012-03-25T15:07:24Z</time><cmt>7.7 kmh</cmt></trkpt>
<trkpt lat="58.774703" lon="05.699529"><ele>24</ele><time>2012-03-25T15:07:25Z</time><cmt>7.6 kmh</cmt></trkpt>
<trkpt lat="58.774693" lon="05.699561"><ele>24</ele><time>2012-03-25T15:07:27Z</time><cmt>7.6 kmh</cmt></trkpt>
<trkpt lat="58.774682" lon="05.699592"><ele>24</ele><time>2012-03-25T15:07:28Z</time><cmt>7.6 kmh</cmt></trkpt>
<trkpt lat="58.774672" lon="05.699622"><ele>24</ele><time>2012-03-25T15:07:29Z</time><cmt>7.4 kmh</cmt></trkpt>
<trkpt lat="58.774662" lon="05.699654"><ele>24</ele><time>2012-03-25T15:07:29Z</time><cmt>7.4 kmh</cmt></trkpt>
<trkpt lat="58.774652" lon="05.699684"><ele>24</ele><time>2012-03-25T15:07:30Z</time><cmt>7.6 kmh</cmt></trkpt>
<trkpt lat="58.774642" lon="05.699715"><ele>24</ele><time>2012-03-25T15:07:31Z</time><cmt>7.5 kmh</cmt></trkpt>
<trkpt lat="58.774632" lon="05.699746"><ele>24</ele><time>2012-03-25T15:07:33Z</time><cmt>7.7 kmh</cmt></trkpt>
<trkpt lat="58.774622" lon="05.699779"><ele>24</ele><time>2012-03-25T15:07:34Z</time><cmt>7.7 kmh</cmt></trkpt>
<trkpt lat="58.774613" lon="05.699811"><ele>24</ele><time>2012-03-25T15:07:35Z</time><cmt>7.7 kmh</cmt></trkpt>
<trkpt lat="58.774604" lon="05.699842"><ele>24</ele><time>2012-03-25T15:07:35Z</time><cmt>7.5 kmh</cmt></trkpt>
<trkpt lat="58.774594" lon="05.699876"><ele>24</ele><time>2012-03-25T15:07:36Z</time><cmt>7.9 kmh</cmt></trkpt>
<trkpt lat="58.774585" lon="05.699909"><ele>24</ele><time>2012-03-25T15:07:37Z</time><cmt>7.7 kmh</cmt></trkpt>
<trkpt lat="58.774576" lon="05.699942"><ele>25</ele><time>2012-03-25T15:07:39Z</time><cmt>7.8 kmh</cmt></trkpt>
<trkpt lat="58.774567" lon="05.699976"><ele>25</ele><time>2012-03-25T15:07:40Z</time><cmt>7.6 kmh</cmt></trkpt>
<trkpt lat="58.774557" lon="05.700011"><ele>25</ele><time>2012-03-25T15:07:41Z</time><cmt>7.5 kmh</cmt></trkpt>
<trkpt lat="58.774549" lon="05.700045"><ele>25</ele><time>2012-03-25T15:07:41Z</time><cmt>7.6 kmh</cmt></trkpt>
<trkpt lat="58.774541" lon="05.700078"><ele>25</ele><time>2012-03-25T15:07:42Z</time><cmt>7.4 kmh</cmt></trkpt>
<trkpt lat="58.774532" lon="05.700112"><ele>25</ele><time>2012-03-25T15:07:43Z</time><cmt>7.3 kmh</cmt></trkpt>
<trkpt lat="58.774523" lon="05.700145"><ele>25</ele><time>2012-03-25T15:07:45Z</time><cmt>7.3 kmh</cmt></trkpt>
<trkpt lat="58.774515" lon="05.700177"><ele>24</ele><time>2012-03-25T15:07:46Z</time><cmt>7.1 kmh</cmt></trkpt>
<trkpt lat="58.774507" lon="05.700208"><ele>24</ele><time>2012-03-25T15:07:47Z</time><cmt>7.0 kmh</cmt></trkpt>
<trkpt lat="58.774500" lon="05.700240"><ele>24</ele><time>2012-03-25T15:07:47Z</time><cmt>7.3 kmh</cmt></trkpt>
<trkpt lat="58.774492" lon="05.700272"><ele>24</ele><time>2012-03-25T15:07:48Z</time><cmt>7.5 kmh</cmt></trkpt>
<trkpt lat="58.774485" lon="05.700305"><ele>24</ele><time>2012-03-25T15:07:49Z</time><cmt>7.3 kmh</cmt></trkpt>
<trkpt lat="58.774477" lon="05.700337"><ele>24</ele><time>2012-03-25T15:07:50Z</time><cmt>7.3 kmh</cmt></trkpt>
<trkpt lat="58.774470" lon="05.700371"><ele>24</ele><time>2012-03-25T15:07:52Z</time><cmt>7.5 kmh</cmt></trkpt>
<trkpt lat="58.774463" lon="05.700404"><ele>24</ele><time>2012-03-25T15:07:53Z</time><cmt>7.2 kmh</cmt></trkpt>
<trkpt lat="58.774456" lon="05.700437"><ele>24</ele><time>2012-03-25T15:07:53Z</time><cmt>7.4 kmh</cmt></trkpt>
<trkpt lat="58.774450" lon="05.700471"><ele>24</ele><time>2012-03-25T15:07:54Z</time><cmt>7.4 kmh</cmt></trkpt>
<trkpt lat="58.774443" lon="05.700506"><ele>24</ele><time>2012-03-25T15:07:55Z</time><cmt>7.6 kmh</cmt></trkpt>
<trkpt lat="58.774437" lon="05.700540"><ele>24</ele><time>2012-03-25T15:07:56Z</time><cmt>7.3 kmh</cmt></trkpt>
<trkpt lat="58.774431" lon="05.700574"><ele>24</ele><time>2012-03-25T15:07:58Z</time><cmt>7.6 kmh</cmt></trkpt>
<trkpt lat="58.774425" lon="05.700609"><ele>24</ele><time>2012-03-25T15:07:59Z</time><cmt>7.6 kmh</cmt></trkpt>
<trkpt lat="58.774420" lon="05.700646"><ele>24</ele><time>2012-03-25T15:08:00Z</time><cmt>7.8 kmh</cmt></trkpt>
<trkpt lat="58.774415" lon="05.700682"><ele>24</ele><time>2012-03-25T15:08:00Z</time><cmt>7.6 kmh</cmt></trkpt>
<trkpt lat="58.774410" lon="05.700717"><ele>24</ele><time>2012-03-25T15:08:01Z</time><cmt>7.5 kmh</cmt></trkpt>
<trkpt lat="58.774405" lon="05.700753"><ele>24</ele><time>2012-03-25T15:08:02Z</time><cmt>7.5 kmh</cmt></trkpt>
<trkpt lat="58.774400" lon="05.700788"><ele>24</ele><time>2012-03-25T15:08:04Z</time><cmt>7.3 kmh</cmt></trkpt>
<trkpt lat="58.774395" lon="05.700822"><ele>24</ele><time>2012-03-25T15:08:05Z</time><cmt>7.3 kmh</cmt></trkpt>
<trkpt lat="58.774390" lon="05.700856"><ele>24</ele><time>2012-03-25T15:08:06Z</time><cmt>7.3 kmh</cmt></trkpt>
<trkpt lat="58.774385" lon="05.700889"><ele>24</ele><time>2012-03-25T15:08:06Z</time><cmt>6.9 kmh</cmt></trkpt>
<trkpt lat="58.774380" lon="05.700921"><ele>24</ele><time>2012-03-25T15:08:07Z</time><cmt>6.5 kmh</cmt></trkpt>
<trkpt lat="58.774375" lon="05.700950"><ele>24</ele><time>2012-03-25T15:08:08Z</time><cmt>6.1 kmh</cmt></trkpt>
<trkpt lat="58.774370" lon="05.700978"><ele>24</ele><time>2012-03-25T15:08:10Z</time><cmt>5.9 kmh</cmt></trkpt>
<trkpt lat="58.774366" lon="05.701005"><ele>24</ele><time>2012-03-25T15:08:11Z</time><cmt>5.6 kmh</cmt></trkpt>
<trkpt lat="58.774362" lon="05.701032"><ele>24</ele><time>2012-03-25T15:08:12Z</time><cmt>5.4 kmh</cmt></trkpt>
<trkpt lat="58.774357" lon="05.701056"><ele>24</ele><time>2012-03-25T15:08:12Z</time><cmt>5.1 kmh</cmt></trkpt>
<trkpt lat="58.774353" lon="05.701080"><ele>24</ele><time>2012-03-25T15:08:13Z</time><cmt>5.1 kmh</cmt></trkpt>
<trkpt lat="58.774349" lon="05.701102"><ele>24</ele><time>2012-03-25T15:08:14Z</time><cmt>5.0 kmh</cmt></trkpt>
<trkpt lat="58.774344" lon="05.701124"><ele>24</ele><time>2012-03-25T15:08:16Z</time><cmt>4.2 kmh</cmt></trkpt>
<trkpt lat="58.774340" lon="05.701144"><ele>24</ele><time>2012-03-25T15:08:17Z</time><cmt>4.0 kmh</cmt></trkpt>
<trkpt lat="58.774338" lon="05.701157"><ele>24</ele><time>2012-03-25T15:08:18Z</time><cmt>4.0 kmh</cmt></trkpt>
<trkpt lat="58.774334" lon="05.701174"><ele>24</ele><time>2012-03-25T15:08:18Z</time><cmt>3.6 kmh</cmt></trkpt>
<trkpt lat="58.774330" lon="05.701191"><ele>24</ele><time>2012-03-25T15:08:19Z</time><cmt>4.2 kmh</cmt></trkpt>
<trkpt lat="58.774327" lon="05.701208"><ele>24</ele><time>2012-03-25T15:08:20Z</time><cmt>4.1 kmh</cmt></trkpt>
<trkpt lat="58.774324" lon="05.701223"><ele>24</ele><time>2012-03-25T15:08:21Z</time><cmt>3.9 kmh</cmt></trkpt>
<trkpt lat="58.774321" lon="05.701238"><ele>24</ele><time>2012-03-25T15:08:23Z</time><cmt>3.0 kmh</cmt></trkpt>
<trkpt lat="58.774319" lon="05.701253"><ele>24</ele><time>2012-03-25T15:08:24Z</time><cmt>2.8 kmh</cmt></trkpt>
<trkpt lat="58.774316" lon="05.701267"><ele>24</ele><time>2012-03-25T15:08:24Z</time><cmt>3.3 kmh</cmt></trkpt>
<trkpt lat="58.774314" lon="05.701280"><ele>24</ele><time>2012-03-25T15:08:25Z</time><cmt>3.2 kmh</cmt></trkpt>
<trkpt lat="58.774312" lon="05.701293"><ele>24</ele><time>2012-03-25T15:08:26Z</time><cmt>3.1 kmh</cmt></trkpt>
<trkpt lat="58.774310" lon="05.701305"><ele>24</ele><time>2012-03-25T15:08:27Z</time><cmt>3.0 kmh</cmt></trkpt>
<trkpt lat="58.774308" lon="05.701317"><ele>24</ele><time>2012-03-25T15:08:29Z</time><cmt>2.3 kmh</cmt></trkpt>
<trkpt lat="58.774306" lon="05.701328"><ele>24</ele><time>2012-03-25T15:08:30Z</time><cmt>2.2 kmh</cmt></trkpt>
<trkpt lat="58.774303" lon="05.701343"><ele>24</ele><time>2012-03-25T15:08:31Z</time><cmt>3.1 kmh</cmt></trkpt>
<trkpt lat="58.774302" lon="05.701354"><ele>24</ele><time>2012-03-25T15:08:31Z</time><cmt>3.0 kmh</cmt></trkpt>
<trkpt lat="58.774300" lon="05.701364"><ele>24</ele><time>2012-03-25T15:08:32Z</time><cmt>2.4 kmh</cmt></trkpt>
<trkpt lat="58.774298" lon="05.701374"><ele>24</ele><time>2012-03-25T15:08:33Z</time><cmt>2.3 kmh</cmt></trkpt>
<trkpt lat="58.774297" lon="05.701383"><ele>24</ele><time>2012-03-25T15:08:35Z</time><cmt>1.7 kmh</cmt></trkpt>
<trkpt lat="58.774296" lon="05.701391"><ele>24</ele><time>2012-03-25T15:08:36Z</time><cmt>1.7 kmh</cmt></trkpt>
<trkpt lat="58.774294" lon="05.701400"><ele>24</ele><time>2012-03-25T15:08:37Z</time><cmt>2.0 kmh</cmt></trkpt>
<trkpt lat="58.774293" lon="05.701408"><ele>24</ele><time>2012-03-25T15:08:37Z</time><cmt>2.0 kmh</cmt></trkpt>
<trkpt lat="58.774292" lon="05.701416"><ele>24</ele><time>2012-03-25T15:08:38Z</time><cmt>1.9 kmh</cmt></trkpt>
<trkpt lat="58.774290" lon="05.701424"><ele>24</ele><time>2012-03-25T15:08:39Z</time><cmt>1.9 kmh</cmt></trkpt>
<trkpt lat="58.774289" lon="05.701431"><ele>24</ele><time>2012-03-25T15:08:41Z</time><cmt>1.4 kmh</cmt></trkpt>
<trkpt lat="58.774288" lon="05.701439"><ele>25</ele><time>2012-03-25T15:08:42Z</time><cmt>1.4 kmh</cmt></trkpt>
<trkpt lat="58.774286" lon="05.701449"><ele>25</ele><time>2012-03-25T15:08:43Z</time><cmt>2.0 kmh</cmt></trkpt>
<trkpt lat="58.774284" lon="05.701462"><ele>25</ele><time>2012-03-25T15:08:43Z</time><cmt>2.6 kmh</cmt></trkpt>
<trkpt lat="58.774282" lon="05.701477"><ele>25</ele><time>2012-03-25T15:08:44Z</time><cmt>3.2 kmh</cmt></trkpt>
<trkpt lat="58.774280" lon="05.701496"><ele>25</ele><time>2012-03-25T15:08:45Z</time><cmt>3.9 kmh</cmt></trkpt>
<trkpt lat="58.774277" lon="05.701517"><ele>25</ele><time>2012-03-25T15:08:47Z</time><cmt>3.6 kmh</cmt></trkpt>
<trkpt lat="58.774274" lon="05.701540"><ele>25</ele><time>2012-03-25T15:08:48Z</time><cmt>5.5 kmh</cmt></trkpt>
<trkpt lat="58.774270" lon="05.701565"><ele>25</ele><time>2012-03-25T15:08:49Z</time><cmt>5.9 kmh</cmt></trkpt>
<trkpt lat="58.774265" lon="05.701592"><ele>25</ele><time>2012-03-25T15:08:49Z</time><cmt>6.3 kmh</cmt></trkpt>
<trkpt lat="58.774260" lon="05.701621"><ele>25</ele><time>2012-03-25T15:08:50Z</time><cmt>6.4 kmh</cmt></trkpt>
<trkpt lat="58.774255" lon="05.701650"><ele>25</ele><time>2012-03-25T15:08:51Z</time><cmt>6.7 kmh</cmt></trkpt>
<trkpt lat="58.774250" lon="05.701679"><ele>26</ele><time>2012-03-25T15:08:52Z</time><cmt>6.6 kmh</cmt></trkpt>
<trkpt lat="58.774244" lon="05.701709"><ele>26</ele><time>2012-03-25T15:08:54Z</time><cmt>6.7 kmh</cmt></trkpt>
<trkpt lat="58.774239" lon="05.701739"><ele>26</ele><time>2012-03-25T15:08:55Z</time><cmt>6.8 kmh</cmt></trkpt>
<trkpt lat="58.774233" lon="05.701770"><ele>26</ele><time>2012-03-25T15:08:56Z</time><cmt>6.9 kmh</cmt></trkpt>
<trkpt lat="58.774227" lon="05.701800"><ele>26</ele><time>2012-03-25T15:08:56Z</time><cmt>7.1 kmh</cmt></trkpt>
<trkpt lat="58.774221" lon="05.701830"><ele>26</ele><time>2012-03-25T15:08:57Z</time><cmt>7.1 kmh</cmt></trkpt>
<trkpt lat="58.774214" lon="05.701861"><ele>26</ele><time>2012-03-25T15:08:58Z</time><cmt>6.9 kmh</cmt></trkpt>
<trkpt lat="58.774208" lon="05.701892"><ele>26</ele><time>2012-03-25T15:09:00Z</time><cmt>7.0 kmh</cmt></trkpt>
<trkpt lat="58.774202" lon="05.701923"><ele>26</ele><time>2012-03-25T15:09:01Z</time><cmt>7.0 kmh</cmt></trkpt>
<trkpt lat="58.774196" lon="05.701956"><ele>26</ele><time>2012-03-25T15:09:02Z</time><cmt>6.8 kmh</cmt></trkpt>
<trkpt lat="58.774190" lon="05.701986"><ele>26</ele><time>2012-03-25T15:09:02Z</time><cmt>6.8 kmh</cmt></trkpt>
<trkpt lat="58.774183" lon="05.702017"><ele>26</ele><time>2012-03-25T15:09:03Z</time><cmt>6.8 kmh</cmt></trkpt>
<trkpt lat="58.774176" lon="05.702048"><ele>26</ele><time>2012-03-25T15:09:04Z</time><cmt>7.0 kmh</cmt></trkpt>
<trkpt lat="58.774170" lon="05.702080"><ele>26</ele><time>2012-03-25T15:09:06Z</time><cmt>7.1 kmh</cmt></trkpt>
<trkpt lat="58.774165" lon="05.702113"><ele>26</ele><time>2012-03-25T15:09:07Z</time><cmt>7.1 kmh</cmt></trkpt>
<trkpt lat="58.774161" lon="05.702146"><ele>26</ele><time>2012-03-25T15:09:08Z</time><cmt>7.0 kmh</cmt></trkpt>
<trkpt lat="58.774156" lon="05.702178"><ele>26</ele><time>2012-03-25T15:09:08Z</time><cmt>7.1 kmh</cmt></trkpt>
<trkpt lat="58.774152" lon="05.702211"><ele>26</ele><time>2012-03-25T15:09:09Z</time><cmt>7.0 kmh</cmt></trkpt>
<trkpt lat="58.774148" lon="05.702244"><ele>26</ele><time>2012-03-25T15:09:10Z</time><cmt>7.2 kmh</cmt></trkpt>
<trkpt lat="58.774143" lon="05.702276"><ele>26</ele><time>2012-03-25T15:09:12Z</time><cmt>7.1 kmh</cmt></trkpt>
<trkpt lat="58.774139" lon="05.702309"><ele>26</ele><time>2012-03-25T15:09:13Z</time><cmt>7.2 kmh</cmt></trkpt>
<trkpt lat="58.774135" lon="05.702343"><ele>26</ele><time>2012-03-25T15:09:14Z</time><cmt>7.1 kmh</cmt></trkpt>
<trkpt lat="58.774132" lon="05.702376"><ele>26</ele><time>2012-03-25T15:09:14Z</time><cmt>7.1 kmh</cmt></trkpt>
<trkpt lat="58.774128" lon="05.702409"><ele>26</ele><time>2012-03-25T15:09:15Z</time><cmt>7.1 kmh</cmt></trkpt>
<trkpt lat="58.774125" lon="05.702443"><ele>26</ele><time>2012-03-25T15:09:16Z</time><cmt>7.1 kmh</cmt></trkpt>
<trkpt lat="58.774122" lon="05.702475"><ele>26</ele><time>2012-03-25T15:09:18Z</time><cmt>6.8 kmh</cmt></trkpt>
<trkpt lat="58.774118" lon="05.702507"><ele>26</ele><time>2012-03-25T15:09:19Z</time><cmt>7.0 kmh</cmt></trkpt>
<trkpt lat="58.774115" lon="05.702540"><ele>26</ele><time>2012-03-25T15:09:20Z</time><cmt>6.9 kmh</cmt></trkpt>
<trkpt lat="58.774112" lon="05.702573"><ele>26</ele><time>2012-03-25T15:09:20Z</time><cmt>6.9 kmh</cmt></trkpt>
<trkpt lat="58.774109" lon="05.702605"><ele>26</ele><time>2012-03-25T15:09:21Z</time><cmt>7.0 kmh</cmt></trkpt>
<trkpt lat="58.774107" lon="05.702638"><ele>26</ele><time>2012-03-25T15:09:22Z</time><cmt>7.0 kmh</cmt></trkpt>
<trkpt lat="58.774105" lon="05.702672"><ele>26</ele><time>2012-03-25T15:09:23Z</time><cmt>7.0 kmh</cmt></trkpt>
<trkpt lat="58.774103" lon="05.702704"><ele>26</ele><time>2012-03-25T15:09:25Z</time><cmt>6.9 kmh</cmt></trkpt>
<trkpt lat="58.774102" lon="05.702737"><ele>26</ele><time>2012-03-25T15:09:26Z</time><cmt>6.8 kmh</cmt></trkpt>
<trkpt lat="58.774100" lon="05.702770"><ele>26</ele><time>2012-03-25T15:09:26Z</time><cmt>6.9 kmh</cmt></trkpt>
<trkpt lat="58.774099" lon="05.702803"><ele>26</ele><time>2012-03-25T15:09:27Z</time><cmt>7.2 kmh</cmt></trkpt>
<trkpt lat="58.774098" lon="05.702837"><ele>26</ele><time>2012-03-25T15:09:28Z</time><cmt>7.0 kmh</cmt></trkpt>
<trkpt lat="58.774098" lon="05.702871"><ele>26</ele><time>2012-03-25T15:09:29Z</time><cmt>7.1 kmh</cmt></trkpt>
<trkpt lat="58.774098" lon="05.702905"><ele>26</ele><time>2012-03-25T15:09:31Z</time><cmt>6.8 kmh</cmt></trkpt>
<trkpt lat="58.774098" lon="05.702938"><ele>26</ele><time>2012-03-25T15:09:32Z</time><cmt>7.0 kmh</cmt></trkpt>
<trkpt lat="58.774098" lon="05.702971"><ele>26</ele><time>2012-03-25T15:09:33Z</time><cmt>6.7 kmh</cmt></trkpt>
<trkpt lat="58.774099" lon="05.703003"><ele>26</ele><time>2012-03-25T15:09:33Z</time><cmt>6.9 kmh</cmt></trkpt>
<trkpt lat="58.774100" lon="05.703036"><ele>26</ele><time>2012-03-25T15:09:34Z</time><cmt>6.7 kmh</cmt></trkpt>
<trkpt lat="58.774101" lon="05.703068"><ele>26</ele><time>2012-03-25T15:09:35Z</time><cmt>6.9 kmh</cmt></trkpt>
<trkpt lat="58.774102" lon="05.703101"><ele>26</ele><time>2012-03-25T15:09:37Z</time><cmt>6.6 kmh</cmt></trkpt>
<trkpt lat="58.774104" lon="05.703133"><ele>26</ele><time>2012-03-25T15:09:38Z</time><cmt>6.9 kmh</cmt></trkpt>
<trkpt lat="58.774105" lon="05.703165"><ele>26</ele><time>2012-03-25T15:09:39Z</time><cmt>6.6 kmh</cmt></trkpt>
<trkpt lat="58.774107" lon="05.703197"><ele>26</ele><time>2012-03-25T15:09:39Z</time><cmt>6.8 kmh</cmt></trkpt>
<trkpt lat="58.774108" lon="05.703230"><ele>26</ele><time>2012-03-25T15:09:40Z</time><cmt>6.7 kmh</cmt></trkpt>
<trkpt lat="58.774110" lon="05.703262"><ele>26</ele><time>2012-03-25T15:09:41Z</time><cmt>6.8 kmh</cmt></trkpt>
<trkpt lat="58.774112" lon="05.703293"><ele>26</ele><time>2012-03-25T15:09:43Z</time><cmt>6.7 kmh</cmt></trkpt>
<trkpt lat="58.774114" lon="05.703326"><ele>26</ele><time>2012-03-25T15:09:44Z</time><cmt>6.8 kmh</cmt></trkpt>
<trkpt lat="58.774117" lon="05.703358"><ele>26</ele><time>2012-03-25T15:09:45Z</time><cmt>6.7 kmh</cmt></trkpt>
<trkpt lat="58.774119" lon="05.703390"><ele>26</ele><time>2012-03-25T15:09:45Z</time><cmt>6.7 kmh</cmt></trkpt>
<trkpt lat="58.774121" lon="05.703422"><ele>26</ele><time>2012-03-25T15:09:46Z</time><cmt>6.6 kmh</cmt></trkpt>
<trkpt lat="58.774124" lon="05.703454"><ele>26</ele><time>2012-03-25T15:09:47Z</time><cmt>6.9 kmh</cmt></trkpt>
<trkpt lat="58.774127" lon="05.703487"><ele>26</ele><time>2012-03-25T15:09:49Z</time><cmt>7.2 kmh</cmt></trkpt>
<trkpt lat="58.774131" lon="05.703521"><ele>26</ele><time>2012-03-25T15:09:50Z</time><cmt>7.2 kmh</cmt></trkpt>
<trkpt lat="58.774134" lon="05.703556"><ele>26</ele><time>2012-03-25T15:09:51Z</time><cmt>7.5 kmh</cmt></trkpt>
<trkpt lat="58.774137" lon="05.703591"><ele>26</ele><time>2012-03-25T15:09:51Z</time><cmt>7.6 kmh</cmt></trkpt>
<trkpt lat="58.774141" lon="05.703627"><ele>26</ele><time>2012-03-25T15:09:52Z</time><cmt>7.7 kmh</cmt></trkpt>
<trkpt lat="58.774144" lon="05.703663"><ele>26</ele><time>2012-03-25T15:09:53Z</time><cmt>7.6 kmh</cmt></trkpt>
<trkpt lat="58.774146" lon="05.703700"><ele>26</ele><time>2012-03-25T15:09:54Z</time><cmt>7.6 kmh</cmt></trkpt>
<trkpt lat="58.774149" lon="05.703735"><ele>26</ele><time>2012-03-25T15:09:56Z</time><cmt>7.3 kmh</cmt></trkpt>
<trkpt lat="58.774151" lon="05.703770"><ele>26</ele><time>2012-03-25T15:09:57Z</time><cmt>7.3 kmh</cmt></trkpt>
<trkpt lat="58.774153" lon="05.703805"><ele>26</ele><time>2012-03-25T15:09:57Z</time><cmt>7.3 kmh</cmt></trkpt>
<trkpt lat="58.774155" lon="05.703840"><ele>26</ele><time>2012-03-25T15:09:58Z</time><cmt>7.3 kmh</cmt></trkpt>
<trkpt lat="58.774158" lon="05.703875"><ele>26</ele><time>2012-03-25T15:09:59Z</time><cmt>7.3 kmh</cmt></trkpt>
<trkpt lat="58.774160" lon="05.703910"><ele>26</ele><time>2012-03-25T15:10:00Z</time><cmt>7.4 kmh</cmt></trkpt>
<trkpt lat="58.774162" lon="05.703945"><ele>26</ele><time>2012-03-25T15:10:02Z</time><cmt>7.1 kmh</cmt></trkpt>
<trkpt lat="58.774164" lon="05.703978"><ele>26</ele><time>2012-03-25T15:10:03Z</time><cmt>6.7 kmh</cmt></trkpt>
<trkpt lat="58.774166" lon="05.704010"><ele>26</ele><time>2012-03-25T15:10:04Z</time><cmt>6.6 kmh</cmt></trkpt>
<trkpt lat="58.774168" lon="05.704043"><ele>26</ele><time>2012-03-25T15:10:04Z</time><cmt>6.9 kmh</cmt></trkpt>
<trkpt lat="58.774169" lon="05.704075"><ele>26</ele><time>2012-03-25T15:10:05Z</time><cmt>6.8 kmh</cmt></trkpt>
<trkpt lat="58.774171" lon="05.704109"><ele>26</ele><time>2012-03-25T15:10:06Z</time><cmt>7.2 kmh</cmt></trkpt>
<trkpt lat="58.774172" lon="05.704143"><ele>26</ele><time>2012-03-25T15:10:08Z</time><cmt>7.3 kmh</cmt></trkpt>
<trkpt lat="58.774174" lon="05.704177"><ele>26</ele><time>2012-03-25T15:10:09Z</time><cmt>7.3 kmh</cmt></trkpt>
<trkpt lat="58.774175" lon="05.704212"><ele>26</ele><time>2012-03-25T15:10:10Z</time><cmt>7.1 kmh</cmt></trkpt>
<trkpt lat="58.774176" lon="05.704246"><ele>26</ele><time>2012-03-25T15:10:10Z</time><cmt>6.9 kmh</cmt></trkpt>
<trkpt lat="58.774177" lon="05.704278"><ele>26</ele><time>2012-03-25T15:10:11Z</time><cmt>6.8 kmh</cmt></trkpt>
<trkpt lat="58.774178" lon="05.704312"><ele>26</ele><time>2012-03-25T15:10:12Z</time><cmt>7.0 kmh</cmt></trkpt>
<trkpt lat="58.774178" lon="05.704344"><ele>26</ele><time>2012-03-25T15:10:14Z</time><cmt>6.7 kmh</cmt></trkpt>
<trkpt lat="58.774179" lon="05.704376"><ele>26</ele><time>2012-03-25T15:10:15Z</time><cmt>6.3 kmh</cmt></trkpt>
<trkpt lat="58.774179" lon="05.704405"><ele>26</ele><time>2012-03-25T15:10:16Z</time><cmt>6.0 kmh</cmt></trkpt>
<trkpt lat="58.774179" lon="05.704434"><ele>26</ele><time>2012-03-25T15:10:16Z</time><cmt>5.7 kmh</cmt></trkpt>
<trkpt lat="58.774179" lon="05.704460"><ele>26</ele><time>2012-03-25T15:10:17Z</time><cmt>5.4 kmh</cmt></trkpt>
<trkpt lat="58.774178" lon="05.704486"><ele>26</ele><time>2012-03-25T15:10:18Z</time><cmt>5.1 kmh</cmt></trkpt>
<trkpt lat="58.774178" lon="05.704510"><ele>26</ele><time>2012-03-25T15:10:20Z</time><cmt>5.1 kmh</cmt></trkpt>
<trkpt lat="58.774178" lon="05.704533"><ele>26</ele><time>2012-03-25T15:10:21Z</time><cmt>5.1 kmh</cmt></trkpt>
<trkpt lat="58.774178" lon="05.704558"><ele>26</ele><time>2012-03-25T15:10:22Z</time><cmt>5.3 kmh</cmt></trkpt>
<trkpt lat="58.774178" lon="05.704583"><ele>26</ele><time>2012-03-25T15:10:22Z</time><cmt>5.5 kmh</cmt></trkpt>
<trkpt lat="58.774178" lon="05.704610"><ele>26</ele><time>2012-03-25T15:10:23Z</time><cmt>5.7 kmh</cmt></trkpt>
<trkpt lat="58.774178" lon="05.704637"><ele>26</ele><time>2012-03-25T15:10:24Z</time><cmt>5.9 kmh</cmt></trkpt>
<trkpt lat="58.774178" lon="05.704666"><ele>26</ele><time>2012-03-25T15:10:25Z</time><cmt>6.0 kmh</cmt></trkpt>
<trkpt lat="58.774178" lon="05.704695"><ele>26</ele><time>2012-03-25T15:10:27Z</time><cmt>6.2 kmh</cmt></trkpt>
<trkpt lat="58.774178" lon="05.704724"><ele>26</ele><time>2012-03-25T15:10:28Z</time><cmt>6.2 kmh</cmt></trkpt>
<trkpt lat="58.774178" lon="05.704754"><ele>25</ele><time>2012-03-25T15:10:28Z</time><cmt>6.3 kmh</cmt></trkpt>
<trkpt lat="58.774178" lon="05.704784"><ele>25</ele><time>2012-03-25T15:10:29Z</time><cmt>6.4 kmh</cmt></trkpt>
<trkpt lat="58.774178" lon="05.704809"><ele>25</ele><time>2012-03-25T15:10:30Z</time><cmt>6.5 kmh</cmt></trkpt>
<trkpt lat="58.774177" lon="05.704838"><ele>25</ele><time>2012-03-25T15:10:31Z</time><cmt>5.8 kmh</cmt></trkpt>
<trkpt lat="58.774177" lon="05.704865"><ele>25</ele><time>2012-03-25T15:10:33Z</time><cmt>5.3 kmh</cmt></trkpt>
<trkpt lat="58.774177" lon="05.704891"><ele>25</ele><time>2012-03-25T15:10:34Z</time><cmt>5.3 kmh</cmt></trkpt>
<trkpt lat="58.774177" lon="05.704915"><ele>25</ele><time>2012-03-25T15:10:35Z</time><cmt>5.3 kmh</cmt></trkpt>
<trkpt lat="58.774178" lon="05.704937"><ele>25</ele><time>2012-03-25T15:10:35Z</time><cmt>5.0 kmh</cmt></trkpt>
<trkpt lat="58.774179" lon="05.704964"><ele>25</ele><time>2012-03-25T15:10:36Z</time><cmt>5.0 kmh</cmt></trkpt>
<trkpt lat="58.774181" lon="05.704986"><ele>25</ele><time>2012-03-25T15:10:37Z</time><cmt>5.0 kmh</cmt></trkpt>
<trkpt lat="58.774182" lon="05.705010"><ele>25</ele><time>2012-03-25T15:10:39Z</time><cmt>5.0 kmh</cmt></trkpt>
<trkpt lat="58.774185" lon="05.705033"><ele>25</ele><time>2012-03-25T15:10:40Z</time><cmt>5.2 kmh</cmt></trkpt>
<trkpt lat="58.774187" lon="05.705058"><ele>25</ele><time>2012-03-25T15:10:41Z</time><cmt>5.3 kmh</cmt></trkpt>
<trkpt lat="58.774190" lon="05.705084"><ele>25</ele><time>2012-03-25T15:10:41Z</time><cmt>5.8 kmh</cmt></trkpt>
<trkpt lat="58.774192" lon="05.705110"><ele>25</ele><time>2012-03-25T15:10:42Z</time><cmt>5.7 kmh</cmt></trkpt>
<trkpt lat="58.774195" lon="05.705138"><ele>25</ele><time>2012-03-25T15:10:43Z</time><cmt>6.2 kmh</cmt></trkpt>
<trkpt lat="58.774197" lon="05.705167"><ele>25</ele><time>2012-03-25T15:10:45Z</time><cmt>6.1 kmh</cmt></trkpt>
<trkpt lat="58.774199" lon="05.705197"><ele>25</ele><time>2012-03-25T15:10:46Z</time><cmt>6.7 kmh</cmt></trkpt>
<trkpt lat="58.774201" lon="05.705229"><ele>25</ele><time>2012-03-25T15:10:47Z</time><cmt>6.5 kmh</cmt></trkpt>
<trkpt lat="58.774203" lon="05.705261"><ele>25</ele><time>2012-03-25T15:10:47Z</time><cmt>6.9 kmh</cmt></trkpt>
<trkpt lat="58.774204" lon="05.705293"><ele>25</ele><time>2012-03-25T15:10:48Z</time><cmt>6.8 kmh</cmt></trkpt>
<trkpt lat="58.774205" lon="05.705327"><ele>25</ele><time>2012-03-25T15:10:49Z</time><cmt>7.2 kmh</cmt></trkpt>
<trkpt lat="58.774206" lon="05.705360"><ele>25</ele><time>2012-03-25T15:10:51Z</time><cmt>6.9 kmh</cmt></trkpt>
<trkpt lat="58.774206" lon="05.705393"><ele>25</ele><time>2012-03-25T15:10:52Z</time><cmt>6.8 kmh</cmt></trkpt>
<trkpt lat="58.774207" lon="05.705425"><ele>25</ele><time>2012-03-25T15:10:53Z</time><cmt>6.3 kmh</cmt></trkpt>
<trkpt lat="58.774208" lon="05.705455"><ele>25</ele><time>2012-03-25T15:10:53Z</time><cmt>6.1 kmh</cmt></trkpt>
<trkpt lat="58.774210" lon="05.705483"><ele>25</ele><time>2012-03-25T15:10:54Z</time><cmt>5.8 kmh</cmt></trkpt>
<trkpt lat="58.774213" lon="05.705510"><ele>25</ele><time>2012-03-25T15:10:55Z</time><cmt>5.4 kmh</cmt></trkpt>
<trkpt lat="58.774216" lon="05.705535"><ele>25</ele><time>2012-03-25T15:10:57Z</time><cmt>5.4 kmh</cmt></trkpt>
<trkpt lat="58.774219" lon="05.705558"><ele>25</ele><time>2012-03-25T15:10:58Z</time><cmt>4.4 kmh</cmt></trkpt>
<trkpt lat="58.774223" lon="05.705578"><ele>25</ele><time>2012-03-25T15:10:59Z</time><cmt>5.0 kmh</cmt></trkpt>
<trkpt lat="58.774227" lon="05.705597"><ele>25</ele><time>2012-03-25T15:10:59Z</time><cmt>4.8 kmh</cmt></trkpt>
<trkpt lat="58.774232" lon="05.705615"><ele>25</ele><time>2012-03-25T15:11:00Z</time><cmt>4.5 kmh</cmt></trkpt>
<trkpt lat="58.774236" lon="05.705631"><ele>25</ele><time>2012-03-25T15:11:01Z</time><cmt>4.2 kmh</cmt></trkpt>
<trkpt lat="58.774240" lon="05.705647"><ele>25</ele><time>2012-03-25T15:11:02Z</time><cmt>4.0 kmh</cmt></trkpt>
<trkpt lat="58.774245" lon="05.705661"><ele>25</ele><time>2012-03-25T15:11:04Z</time><cmt>3.0 kmh</cmt></trkpt>
<trkpt lat="58.774249" lon="05.705675"><ele>25</ele><time>2012-03-25T15:11:05Z</time><cmt>2.9 kmh</cmt></trkpt>
<trkpt lat="58.774254" lon="05.705687"><ele>25</ele><time>2012-03-25T15:11:06Z</time><cmt>3.5 kmh</cmt></trkpt>
<trkpt lat="58.774258" lon="05.705699"><ele>25</ele><time>2012-03-25T15:11:06Z</time><cmt>3.3 kmh</cmt></trkpt>
<trkpt lat="58.774262" lon="05.705710"><ele>25</ele><time>2012-03-25T15:11:07Z</time><cmt>3.1 kmh</cmt></trkpt>
<trkpt lat="58.774266" lon="05.705721"><ele>25</ele><time>2012-03-25T15:11:08Z</time><cmt>3.0 kmh</cmt></trkpt>
<trkpt lat="58.774269" lon="05.705731"><ele>25</ele><time>2012-03-25T15:11:10Z</time><cmt>2.3 kmh</cmt></trkpt>
<trkpt lat="58.774273" lon="05.705740"><ele>25</ele><time>2012-03-25T15:11:11Z</time><cmt>2.2 kmh</cmt></trkpt>
<trkpt lat="58.774277" lon="05.705749"><ele>25</ele><time>2012-03-25T15:11:12Z</time><cmt>2.6 kmh</cmt></trkpt>
<trkpt lat="58.774280" lon="05.705758"><ele>25</ele><time>2012-03-25T15:11:12Z</time><cmt>2.5 kmh</cmt></trkpt>
<trkpt lat="58.774283" lon="05.705766"><ele>25</ele><time>2012-03-25T15:11:13Z</time><cmt>2.4 kmh</cmt></trkpt>
<trkpt lat="58.774286" lon="05.705773"><ele>25</ele><time>2012-03-25T15:11:14Z</time><cmt>2.2 kmh</cmt></trkpt>
<trkpt lat="58.774290" lon="05.705781"><ele>25</ele><time>2012-03-25T15:11:16Z</time><cmt>1.7 kmh</cmt></trkpt>
<trkpt lat="58.774293" lon="05.705787"><ele>25</ele><time>2012-03-25T15:11:17Z</time><cmt>1.6 kmh</cmt></trkpt>
<trkpt lat="58.774295" lon="05.705794"><ele>25</ele><time>2012-03-25T15:11:18Z</time><cmt>2.0 kmh</cmt></trkpt>
<trkpt lat="58.774298" lon="05.705800"><ele>25</ele><time>2012-03-25T15:11:18Z</time><cmt>1.9 kmh</cmt></trkpt>
<trkpt lat="58.774301" lon="05.705806"><ele>25</ele><time>2012-03-25T15:11:19Z</time><cmt>1.8 kmh</cmt></trkpt>
<trkpt lat="58.774304" lon="05.705811"><ele>25</ele><time>2012-03-25T15:11:20Z</time><cmt>1.7 kmh</cmt></trkpt>
<trkpt lat="58.774307" lon="05.705815"><ele>25</ele><time>2012-03-25T15:11:22Z</time><cmt>1.3 kmh</cmt></trkpt>
<trkpt lat="58.774310" lon="05.705820"><ele>25</ele><time>2012-03-25T15:11:23Z</time><cmt>1.3 kmh</cmt></trkpt>
<trkpt lat="58.774312" lon="05.705825"><ele>25</ele><time>2012-03-25T15:11:24Z</time><cmt>1.6 kmh</cmt></trkpt>
<trkpt lat="58.774315" lon="05.705829"><ele>25</ele><time>2012-03-25T15:11:24Z</time><cmt>1.5 kmh</cmt></trkpt>
<trkpt lat="58.774317" lon="05.705833"><ele>25</ele><time>2012-03-25T15:11:25Z</time><cmt>1.4 kmh</cmt></trkpt>
<trkpt lat="58.774320" lon="05.705837"><ele>25</ele><time>2012-03-25T15:11:26Z</time><cmt>1.4 kmh</cmt></trkpt>
<trkpt lat="58.774322" lon="05.705840"><ele>26</ele><time>2012-03-25T15:11:27Z</time><cmt>1.3 kmh</cmt></trkpt>
<trkpt lat="58.774324" lon="05.705844"><ele>26</ele><time>2012-03-25T15:11:29Z</time><cmt>1.0 kmh</cmt></trkpt>
<trkpt lat="58.774326" lon="05.705847"><ele>26</ele><time>2012-03-25T15:11:30Z</time><cmt>0.9 kmh</cmt></trkpt>
<trkpt lat="58.774327" lon="05.705851"><ele>26</ele><time>2012-03-25T15:11:30Z</time><cmt>1.1 kmh</cmt></trkpt>
<trkpt lat="58.774329" lon="05.705855"><ele>26</ele><time>2012-03-25T15:11:31Z</time><cmt>1.1 kmh</cmt></trkpt>
<trkpt lat="58.774330" lon="05.705859"><ele>26</ele><time>2012-03-25T15:11:32Z</time><cmt>1.0 kmh</cmt></trkpt>
<trkpt lat="58.774331" lon="05.705863"><ele>26</ele><time>2012-03-25T15:11:33Z</time><cmt>0.9 kmh</cmt></trkpt>
<trkpt lat="58.774332" lon="05.705867"><ele>26</ele><time>2012-03-25T15:11:35Z</time><cmt>0.8 kmh</cmt></trkpt>
<trkpt lat="58.774333" lon="05.705870"><ele>26</ele><time>2012-03-25T15:11:36Z</time><cmt>0.8 kmh</cmt></trkpt>
<trkpt lat="58.774334" lon="05.705873"><ele>26</ele><time>2012-03-25T15:11:37Z</time><cmt>0.9 kmh</cmt></trkpt>
<trkpt lat="58.774335" lon="05.705876"><ele>26</ele><time>2012-03-25T15:11:37Z</time><cmt>0.7 kmh</cmt></trkpt>
<trkpt lat="58.774335" lon="05.705880"><ele>26</ele><time>2012-03-25T15:11:38Z</time><cmt>0.7 kmh</cmt></trkpt>
<trkpt lat="58.774336" lon="05.705883"><ele>26</ele><time>2012-03-25T15:11:39Z</time><cmt>0.7 kmh</cmt></trkpt>
<trkpt lat="58.774337" lon="05.705886"><ele>26</ele><time>2012-03-25T15:11:41Z</time><cmt>0.5 kmh</cmt></trkpt>
<trkpt lat="58.774337" lon="05.705889"><ele>26</ele><time>2012-03-25T15:11:42Z</time><cmt>0.5 kmh</cmt></trkpt>
<trkpt lat="58.774338" lon="05.705891"><ele>26</ele><time>2012-03-25T15:11:43Z</time><cmt>0.7 kmh</cmt></trkpt>
<trkpt lat="58.774338" lon="05.705894"><ele>26</ele><time>2012-03-25T15:11:43Z</time><cmt>0.7 kmh</cmt></trkpt>
<trkpt lat="58.774338" lon="05.705897"><ele>26</ele><time>2012-03-25T15:11:44Z</time><cmt>0.6 kmh</cmt></trkpt>
<trkpt lat="58.774339" lon="05.705900"><ele>26</ele><time>2012-03-25T15:11:45Z</time><cmt>0.5 kmh</cmt></trkpt>
<trkpt lat="58.774338" lon="05.705904"><ele>26</ele><time>2012-03-25T15:11:47Z</time><cmt>0.6 kmh</cmt></trkpt>
<trkpt lat="58.774338" lon="05.705907"><ele>26</ele><time>2012-03-25T15:11:48Z</time><cmt>0.6 kmh</cmt></trkpt>
<trkpt lat="58.774338" lon="05.705909"><ele>26</ele><time>2012-03-25T15:11:49Z</time><cmt>0.6 kmh</cmt></trkpt>
<trkpt lat="58.774339" lon="05.705911"><ele>26</ele><time>2012-03-25T15:11:49Z</time><cmt>0.5 kmh</cmt></trkpt>
<trkpt lat="58.774338" lon="05.705915"><ele>26</ele><time>2012-03-25T15:11:50Z</time><cmt>0.7 kmh</cmt></trkpt>
<trkpt lat="58.774338" lon="05.705918"><ele>26</ele><time>2012-03-25T15:11:51Z</time><cmt>0.7 kmh</cmt></trkpt>
<trkpt lat="58.774337" lon="05.705919"><ele>26</ele><time>2012-03-25T15:11:53Z</time><cmt>0.4 kmh</cmt></trkpt>
<trkpt lat="58.774335" lon="05.705920"><ele>26</ele><time>2012-03-25T15:11:54Z</time><cmt>0.5 kmh</cmt></trkpt>
<trkpt lat="58.774332" lon="05.705919"><ele>26</ele><time>2012-03-25T15:11:55Z</time><cmt>1.1 kmh</cmt></trkpt>
<trkpt lat="58.774330" lon="05.705919"><ele>26</ele><time>2012-03-25T15:11:55Z</time><cmt>1.1 kmh</cmt></trkpt>
<trkpt lat="58.774328" lon="05.705921"><ele>26</ele><time>2012-03-25T15:11:56Z</time><cmt>0.9 kmh</cmt></trkpt>
<trkpt lat="58.774327" lon="05.705928"><ele>26</ele><time>2012-03-25T15:11:57Z</time><cmt>1.3 kmh</cmt></trkpt>
<trkpt lat="58.774326" lon="05.705940"><ele>26</ele><time>2012-03-25T15:11:59Z</time><cmt>1.8 kmh</cmt></trkpt>
<trkpt lat="58.774325" lon="05.705957"><ele>26</ele><time>2012-03-25T15:12:00Z</time><cmt>2.6 kmh</cmt></trkpt>
<trkpt lat="58.774323" lon="05.705977"><ele>26</ele><time>2012-03-25T15:12:01Z</time><cmt>4.2 kmh</cmt></trkpt>
<trkpt lat="58.774321" lon="05.706000"><ele>26</ele><time>2012-03-25T15:12:01Z</time><cmt>5.3 kmh</cmt></trkpt>
<trkpt lat="58.774318" lon="05.706025"><ele>26</ele><time>2012-03-25T15:12:02Z</time><cmt>5.7 kmh</cmt></trkpt>
<trkpt lat="58.774315" lon="05.706053"><ele>26</ele><time>2012-03-25T15:12:03Z</time><cmt>6.3 kmh</cmt></trkpt>
<trkpt lat="58.774311" lon="05.706082"><ele>26</ele><time>2012-03-25T15:12:04Z</time><cmt>6.6 kmh</cmt></trkpt>
<trkpt lat="58.774307" lon="05.706113"><ele>26</ele><time>2012-03-25T15:12:06Z</time><cmt>6.9 kmh</cmt></trkpt>
<trkpt lat="58.774304" lon="05.706145"><ele>26</ele><time>2012-03-25T15:12:07Z</time><cmt>7.0 kmh</cmt></trkpt>
<trkpt lat="58.774300" lon="05.706178"><ele>26</ele><time>2012-03-25T15:12:08Z</time><cmt>7.3 kmh</cmt></trkpt>
<trkpt lat="58.774296" lon="05.706212"><ele>26</ele><time>2012-03-25T15:12:08Z</time><cmt>7.3 kmh</cmt></trkpt>
<trkpt lat="58.774292" lon="05.706246"><ele>26</ele><time>2012-03-25T15:12:09Z</time><cmt>7.6 kmh</cmt></trkpt>
<trkpt lat="58.774288" lon="05.706281"><ele>26</ele><time>2012-03-25T15:12:10Z</time><cmt>7.4 kmh</cmt></trkpt>
<trkpt lat="58.774284" lon="05.706316"><ele>26</ele><time>2012-03-25T15:12:12Z</time><cmt>7.7 kmh</cmt></trkpt>
<trkpt lat="58.774280" lon="05.706351"><ele>26</ele><time>2012-03-25T15:12:13Z</time><cmt>7.5 kmh</cmt></trkpt>
<trkpt lat="58.774276" lon="05.706385"><ele>26</ele><time>2012-03-25T15:12:14Z</time><cmt>7.0 kmh</cmt></trkpt>
<trkpt lat="58.774274" lon="05.706417"><ele>26</ele><time>2012-03-25T15:12:14Z</time><cmt>6.5 kmh</cmt></trkpt>
<trkpt lat="58.774272" lon="05.706447"><ele>26</ele><time>2012-03-25T15:12:15Z</time><cmt>6.2 kmh</cmt></trkpt>
<trkpt lat="58.774270" lon="05.706476"><ele>26</ele><time>2012-03-25T15:12:16Z</time><cmt>6.0 kmh</cmt></trkpt>
<trkpt lat="58.774268" lon="05.706506"><ele>26</ele><time>2012-03-25T15:12:18Z</time><cmt>6.4 kmh</cmt></trkpt>
<trkpt lat="58.774267" lon="05.706536"><ele>26</ele><time>2012-03-25T15:12:19Z</time><cmt>6.5 kmh</cmt></trkpt>
<trkpt lat="58.774264" lon="05.706567"><ele>26</ele><time>2012-03-25T15:12:20Z</time><cmt>6.8 kmh</cmt></trkpt>
<trkpt lat="58.774262" lon="05.706600"><ele>26</ele><time>2012-03-25T15:12:20Z</time><cmt>7.1 kmh</cmt></trkpt>
<trkpt lat="58.774259" lon="05.706633"><ele>26</ele><time>2012-03-25T15:12:21Z</time><cmt>7.2 kmh</cmt></trkpt>
<trkpt lat="58.774256" lon="05.706667"><ele>26</ele><time>2012-03-25T15:12:22Z</time><cmt>7.3 kmh</cmt></trkpt>
<trkpt lat="58.774252" lon="05.706701"><ele>26</ele><time>2012-03-25T15:12:24Z</time><cmt>7.2 kmh</cmt></trkpt>
<trkpt lat="58.774249" lon="05.706735"><ele>26</ele><time>2012-03-25T15:12:25Z</time><cmt>7.2 kmh</cmt></trkpt>
<trkpt lat="58.774245" lon="05.706769"><ele>26</ele><time>2012-03-25T15:12:26Z</time><cmt>7.2 kmh</cmt></trkpt>
<trkpt lat="58.774241" lon="05.706802"><ele>26</ele><time>2012-03-25T15:12:26Z</time><cmt>7.2 kmh</cmt></trkpt>
<trkpt lat="58.774238" lon="05.706837"><ele>26</ele><time>2012-03-25T15:12:27Z</time><cmt>7.4 kmh</cmt></trkpt>
<trkpt lat="58.774234" lon="05.706871"><ele>26</ele><time>2012-03-25T15:12:28Z</time><cmt>7.2 kmh</cmt></trkpt>
<trkpt lat="58.774229" lon="05.706904"><ele>26</ele><time>2012-03-25T15:12:29Z</time><cmt>7.3 kmh</cmt></trkpt>
<trkpt lat="58.774225" lon="05.706938"><ele>26</ele><time>2012-03-25T15:12:31Z</time><cmt>7.3 kmh</cmt></trkpt>
<trkpt lat="58.774221" lon="05.706973"><ele>26</ele><time>2012-03-25T15:12:32Z</time><cmt>7.5 kmh</cmt></trkpt>
<trkpt lat="58.774217" lon="05.707008"><ele>26</ele><time>2012-03-25T15:12:32Z</time><cmt>7.7 kmh</cmt></trkpt>
<trkpt lat="58.774213" lon="05.707043"><ele>26</ele><time>2012-03-25T15:12:33Z</time><cmt>7.6 kmh</cmt></trkpt>
<trkpt lat="58.774208" lon="05.707078"><ele>26</ele><time>2012-03-25T15:12:34Z</time><cmt>7.6 kmh</cmt></trkpt>
<trkpt lat="58.774204" lon="05.707114"><ele>26</ele><time>2012-03-25T15:12:35Z</time><cmt>7.5 kmh</cmt></trkpt>
<trkpt lat="58.774200" lon="05.707149"><ele>26</ele><time>2012-03-25T15:12:37Z</time><cmt>7.5 kmh</cmt></trkpt>
<trkpt lat="58.774196" lon="05.707184"><ele>26</ele><time>2012-03-25T15:12:38Z</time><cmt>7.5 kmh</cmt></trkpt>
<trkpt lat="58.774192" lon="05.707219"><ele>25</ele><time>2012-03-25T15:12:39Z</time><cmt>7.6 kmh</cmt></trkpt>
<trkpt lat="58.774188" lon="05.707254"><ele>25</ele><time>2012-03-25T15:12:39Z</time><cmt>7.5 kmh</cmt></trkpt>
<trkpt lat="58.774183" lon="05.707289"><ele>25</ele><time>2012-03-25T15:12:40Z</time><cmt>7.5 kmh</cmt></trkpt>
<trkpt lat="58.774179" lon="05.707323"><ele>25</ele><time>2012-03-25T15:12:41Z</time><cmt>7.3 kmh</cmt></trkpt>
<trkpt lat="58.774175" lon="05.707358"><ele>25</ele><time>2012-03-25T15:12:43Z</time><cmt>7.5 kmh</cmt></trkpt>
<trkpt lat="58.774171" lon="05.707392"><ele>25</ele><time>2012-03-25T15:12:44Z</time><cmt>7.3 kmh</cmt></trkpt>
<trkpt lat="58.774167" lon="05.707427"><ele>25</ele><time>2012-03-25T15:12:45Z</time><cmt>7.7 kmh</cmt></trkpt>
<trkpt lat="58.774164" lon="05.707462"><ele>25</ele><time>2012-03-25T15:12:45Z</time><cmt>7.3 kmh</cmt></trkpt>
<trkpt lat="58.774160" lon="05.707497"><ele>25</ele><time>2012-03-25T15:12:46Z</time><cmt>7.5 kmh</cmt></trkpt>
<trkpt lat="58.774155" lon="05.707531"><ele>25</ele><time>2012-03-25T15:12:47Z</time><cmt>7.3 kmh</cmt></trkpt>
<trkpt lat="58.774152" lon="05.707566"><ele>25</ele><time>2012-03-25T15:12:49Z</time><cmt>7.5 kmh</cmt></trkpt>
<trkpt lat="58.774148" lon="05.707600"><ele>25</ele><time>2012-03-25T15:12:50Z</time><cmt>7.2 kmh</cmt></trkpt>
<trkpt lat="58.774143" lon="05.707632"><ele>25</ele><time>2012-03-25T15:12:51Z</time><cmt>7.1 kmh</cmt></trkpt>
<trkpt lat="58.774139" lon="05.707666"><ele>25</ele><time>2012-03-25T15:12:51Z</time><cmt>7.4 kmh</cmt></trkpt>
<trkpt lat="58.774135" lon="05.707700"><ele>25</ele><time>2012-03-25T15:12:52Z</time><cmt>7.6 kmh</cmt></trkpt>
<trkpt lat="58.774131" lon="05.707735"><ele>25</ele><time>2012-03-25T15:12:53Z</time><cmt>7.3 kmh</cmt></trkpt>
<trkpt lat="58.774128" lon="05.707769"><ele>25</ele><time>2012-03-25T15:12:55Z</time><cmt>7.3 kmh</cmt></trkpt>
<trkpt lat="58.774125" lon="05.707800"><ele>25</ele><time>2012-03-25T15:12:56Z</time><cmt>7.4 kmh</cmt></trkpt>
<trkpt lat="58.774122" lon="05.707834"><ele>25</ele><time>2012-03-25T15:12:57Z</time><cmt>7.4 kmh</cmt></trkpt>
<trkpt lat="58.774119" lon="05.707869"><ele>25</ele><time>2012-03-25T15:12:57Z</time><cmt>7.2 kmh</cmt></trkpt>
<trkpt lat="58.774115" lon="05.707906"><ele>25</ele><time>2012-03-25T15:12:58Z</time><cmt>7.1 kmh</cmt></trkpt>
<trkpt lat="58.774111" lon="05.707940"><ele>25</ele><time>2012-03-25T15:12:59Z</time><cmt>7.3 kmh</cmt></trkpt>
<trkpt lat="58.774108" lon="05.707974"><ele>25</ele><time>2012-03-25T15:13:01Z</time><cmt>7.3 kmh</cmt></trkpt>
<trkpt lat="58.774104" lon="05.708009"><ele>25</ele><time>2012-03-25T15:13:02Z</time><cmt>7.3 kmh</cmt></trkpt>
<trkpt lat="58.774101" lon="05.708044"><ele>25</ele><time>2012-03-25T15:13:03Z</time><cmt>7.5 kmh</cmt></trkpt>
<trkpt lat="58.774097" lon="05.708078"><ele>25</ele><time>2012-03-25T15:13:03Z</time><cmt>7.2 kmh</cmt></trkpt>
<trkpt lat="58.774093" lon="05.708113"><ele>25</ele><time>2012-03-25T15:13:04Z</time><cmt>7.5 kmh</cmt></trkpt>
<trkpt lat="58.774089" lon="05.708147"><ele>25</ele><time>2012-03-25T15:13:05Z</time><cmt>7.3 kmh</cmt></trkpt>
<trkpt lat="58.774086" lon="05.708182"><ele>25</ele><time>2012-03-25T15:13:06Z</time><cmt>7.4 kmh</cmt></trkpt>
<trkpt lat="58.774082" lon="05.708216"><ele>25</ele><time>2012-03-25T15:13:08Z</time><cmt>7.2 kmh</cmt></trkpt>
<trkpt lat="58.774079" lon="05.708251"><ele>25</ele><time>2012-03-25T15:13:09Z</time><cmt>7.4 kmh</cmt></trkpt>
<trkpt lat="58.774075" lon="05.708286"><ele>25</ele><time>2012-03-25T15:13:10Z</time><cmt>7.4 kmh</cmt></trkpt>
<trkpt lat="58.774071" lon="05.708322"><ele>25</ele><time>2012-03-25T15:13:10Z</time><cmt>7.6 kmh</cmt></trkpt>
<trkpt lat="58.774068" lon="05.708357"><ele>25</ele><time>2012-03-25T15:13:11Z</time><cmt>7.6 kmh</cmt></trkpt>
<trkpt lat="58.774065" lon="05.708393"><ele>25</ele><time>2012-03-25T15:13:12Z</time><cmt>7.6 kmh</cmt></trkpt>
<trkpt lat="58.774061" lon="05.708429"><ele>25</ele><time>2012-03-25T15:13:14Z</time><cmt>7.6 kmh</cmt></trkpt>
<trkpt lat="58.774058" lon="05.708465"><ele>25</ele><time>2012-03-25T15:13:15Z</time><cmt>7.6 kmh</cmt></trkpt>
<trkpt lat="58.774055" lon="05.708500"><ele>25</ele><time>2012-03-25T15:13:16Z</time><cmt>7.6 kmh</cmt></trkpt>
<trkpt lat="58.774052" lon="05.708536"><ele>25</ele><time>2012-03-25T15:13:16Z</time><cmt>7.6 kmh</cmt></trkpt>
<trkpt lat="58.774048" lon="05.708571"><ele>25</ele><time>2012-03-25T15:13:17Z</time><cmt>7.6 kmh</cmt></trkpt>
<trkpt lat="58.774044" lon="05.708606"><ele>25</ele><time>2012-03-25T15:13:18Z</time><cmt>7.6 kmh</cmt></trkpt>
<trkpt lat="58.774040" lon="05.708641"><ele>25</ele><time>2012-03-25T15:13:20Z</time><cmt>7.7 kmh</cmt></trkpt>
<trkpt lat="58.774036" lon="05.708677"><ele>25</ele><time>2012-03-25T15:13:21Z</time><cmt>7.6 kmh</cmt></trkpt>
<trkpt lat="58.774032" lon="05.708713"><ele>25</ele><time>2012-03-25T15:13:22Z</time><cmt>7.7 kmh</cmt></trkpt>
<trkpt lat="58.774027" lon="05.708749"><ele>25</ele><time>2012-03-25T15:13:22Z</time><cmt>7.8 kmh</cmt></trkpt>
<trkpt lat="58.774023" lon="05.708786"><ele>25</ele><time>2012-03-25T15:13:23Z</time><cmt>8.0 kmh</cmt></trkpt>
<trkpt lat="58.774019" lon="05.708823"><ele>25</ele><time>2012-03-25T15:13:24Z</time><cmt>8.1 kmh</cmt></trkpt>
<trkpt lat="58.774015" lon="05.708861"><ele>25</ele><time>2012-03-25T15:13:26Z</time><cmt>8.1 kmh</cmt></trkpt>
<trkpt lat="58.774011" lon="05.708898"><ele>25</ele><time>2012-03-25T15:13:27Z</time><cmt>8.0 kmh</cmt></trkpt>
<trkpt lat="58.774007" lon="05.708936"><ele>25</ele><time>2012-03-25T15:13:28Z</time><cmt>7.9 kmh</cmt></trkpt>
<trkpt lat="58.774003" lon="05.708973"><ele>25</ele><time>2012-03-25T15:13:28Z</time><cmt>7.9 kmh</cmt></trkpt>
<trkpt lat="58.773999" lon="05.709010"><ele>25</ele><time>2012-03-25T15:13:29Z</time><cmt>7.9 kmh</cmt></trkpt>
<trkpt lat="58.773996" lon="05.709047"><ele>25</ele><time>2012-03-25T15:13:30Z</time><cmt>7.8 kmh</cmt></trkpt>
<trkpt lat="58.773992" lon="05.709083"><ele>25</ele><time>2012-03-25T15:13:32Z</time><cmt>7.7 kmh</cmt></trkpt>
<trkpt lat="58.773989" lon="05.709119"><ele>25</ele><time>2012-03-25T15:13:33Z</time><cmt>7.7 kmh</cmt></trkpt>
<trkpt lat="58.773985" lon="05.709155"><ele>25</ele><time>2012-03-25T15:13:34Z</time><cmt>7.7 kmh</cmt></trkpt>
<trkpt lat="58.773982" lon="05.709190"><ele>25</ele><time>2012-03-25T15:13:34Z</time><cmt>7.6 kmh</cmt></trkpt>
<trkpt lat="58.773978" lon="05.709226"><ele>25</ele><time>2012-03-25T15:13:35Z</time><cmt>7.7 kmh</cmt></trkpt>
<trkpt lat="58.773975" lon="05.709262"><ele>25</ele><time>2012-03-25T15:13:36Z</time><cmt>7.7 kmh</cmt></trkpt>
<trkpt lat="58.773972" lon="05.709298"><ele>25</ele><time>2012-03-25T15:13:37Z</time><cmt>7.6 kmh</cmt></trkpt>
<trkpt lat="58.773969" lon="05.709334"><ele>25</ele><time>2012-03-25T15:13:39Z</time><cmt>7.8 kmh</cmt></trkpt>
<trkpt lat="58.773967" lon="05.709371"><ele>25</ele><time>2012-03-25T15:13:40Z</time><cmt>7.6 kmh</cmt></trkpt>
<trkpt lat="58.773964" lon="05.709408"><ele>25</ele><time>2012-03-25T15:13:41Z</time><cmt>7.8 kmh</cmt></trkpt>
<trkpt lat="58.773961" lon="05.709445"><ele>25</ele><time>2012-03-25T15:13:41Z</time><cmt>7.8 kmh</cmt></trkpt>
<trkpt lat="58.773958" lon="05.709482"><ele>25</ele><time>2012-03-25T15:13:42Z</time><cmt>8.1 kmh</cmt></trkpt>
<trkpt lat="58.773956" lon="05.709520"><ele>25</ele><time>2012-03-25T15:13:43Z</time><cmt>8.0 kmh</cmt></trkpt>
<trkpt lat="58.773953" lon="05.709558"><ele>25</ele><time>2012-03-25T15:13:45Z</time><cmt>8.0 kmh</cmt></trkpt>
<trkpt lat="58.773951" lon="05.709596"><ele>25</ele><time>2012-03-25T15:13:46Z</time><cmt>7.9 kmh</cmt></trkpt>
<trkpt lat="58.773949" lon="05.709634"><ele>25</ele><time>2012-03-25T15:13:47Z</time><cmt>7.9 kmh</cmt></trkpt>
<trkpt lat="58.773947" lon="05.709671"><ele>25</ele><time>2012-03-25T15:13:47Z</time><cmt>7.8 kmh</cmt></trkpt>
<trkpt lat="58.773945" lon="05.709708"><ele>25</ele><time>2012-03-25T15:13:48Z</time><cmt>7.7 kmh</cmt></trkpt>
<trkpt lat="58.773943" lon="05.709745"><ele>25</ele><time>2012-03-25T15:13:49Z</time><cmt>7.6 kmh</cmt></trkpt>
<trkpt lat="58.773942" lon="05.709782"><ele>25</ele><time>2012-03-25T15:13:51Z</time><cmt>7.7 kmh</cmt></trkpt>
<trkpt lat="58.773942" lon="05.709818"><ele>25</ele><time>2012-03-25T15:13:52Z</time><cmt>7.6 kmh</cmt></trkpt>
<trkpt lat="58.773941" lon="05.709854"><ele>25</ele><time>2012-03-25T15:13:53Z</time><cmt>7.5 kmh</cmt></trkpt>
<trkpt lat="58.773941" lon="05.709890"><ele>25</ele><time>2012-03-25T15:13:53Z</time><cmt>7.5 kmh</cmt></trkpt>
<trkpt lat="58.773941" lon="05.709925"><ele>25</ele><time>2012-03-25T15:13:54Z</time><cmt>7.2 kmh</cmt></trkpt>
<trkpt lat="58.773941" lon="05.709959"><ele>25</ele><time>2012-03-25T15:13:55Z</time><cmt>6.7 kmh</cmt></trkpt>
<trkpt lat="58.773941" lon="05.709991"><ele>25</ele><time>2012-03-25T15:13:57Z</time><cmt>6.4 kmh</cmt></trkpt>
<trkpt lat="58.773941" lon="05.710021"><ele>25</ele><time>2012-03-25T15:13:58Z</time><cmt>6.0 kmh</cmt></trkpt>
<trkpt lat="58.773940" lon="05.710049"><ele>25</ele><time>2012-03-25T15:13:59Z</time><cmt>5.8 kmh</cmt></trkpt>
<trkpt lat="58.773940" lon="05.710077"><ele>25</ele><time>2012-03-25T15:13:59Z</time><cmt>5.5 kmh</cmt></trkpt>
<trkpt lat="58.773940" lon="05.710102"><ele>25</ele><time>2012-03-25T15:14:00Z</time><cmt>5.3 kmh</cmt></trkpt>
<trkpt lat="58.773940" lon="05.710127"><ele>25</ele><time>2012-03-25T15:14:01Z</time><cmt>5.1 kmh</cmt></trkpt>
<trkpt lat="58.773939" lon="05.710151"><ele>25</ele><time>2012-03-25T15:14:03Z</time><cmt>5.1 kmh</cmt></trkpt>
<trkpt lat="58.773939" lon="05.710174"><ele>25</ele><time>2012-03-25T15:14:04Z</time><cmt>4.2 kmh</cmt></trkpt>
<trkpt lat="58.773939" lon="05.710196"><ele>25</ele><time>2012-03-25T15:14:05Z</time><cmt>5.0 kmh</cmt></trkpt>
<trkpt lat="58.773938" lon="05.710217"><ele>25</ele><time>2012-03-25T15:14:05Z</time><cmt>4.9 kmh</cmt></trkpt>
<trkpt lat="58.773938" lon="05.710237"><ele>25</ele><time>2012-03-25T15:14:06Z</time><cmt>4.7 kmh</cmt></trkpt>
<trkpt lat="58.773938" lon="05.710257"><ele>25</ele><time>2012-03-25T15:14:07Z</time><cmt>4.5 kmh</cmt></trkpt>
<trkpt lat="58.773937" lon="05.710276"><ele>25</ele><time>2012-03-25T15:14:08Z</time><cmt>4.3 kmh</cmt></trkpt>
<trkpt lat="58.773937" lon="05.710294"><ele>25</ele><time>2012-03-25T15:14:10Z</time><cmt>3.3 kmh</cmt></trkpt>
<trkpt lat="58.773936" lon="05.710311"><ele>25</ele><time>2012-03-25T15:14:11Z</time><cmt>3.2 kmh</cmt></trkpt>
<trkpt lat="58.773936" lon="05.710328"><ele>25</ele><time>2012-03-25T15:14:11Z</time><cmt>3.9 kmh</cmt></trkpt>
<trkpt lat="58.773935" lon="05.710345"><ele>25</ele><time>2012-03-25T15:14:12Z</time><cmt>3.8 kmh</cmt></trkpt>
<trkpt lat="58.773934" lon="05.710361"><ele>25</ele><time>2012-03-25T15:14:13Z</time><cmt>3.7 kmh</cmt></trkpt>
<trkpt lat="58.773933" lon="05.710377"><ele>25</ele><time>2012-03-25T15:14:14Z</time><cmt>3.6 kmh</cmt></trkpt>
<trkpt lat="58.773933" lon="05.710392"><ele>25</ele><time>2012-03-25T15:14:16Z</time><cmt>2.8 kmh</cmt></trkpt>
<trkpt lat="58.773931" lon="05.710408"><ele>25</ele><time>2012-03-25T15:14:17Z</time><cmt>2.8 kmh</cmt></trkpt>
<trkpt lat="58.773930" lon="05.710422"><ele>25</ele><time>2012-03-25T15:14:18Z</time><cmt>3.4 kmh</cmt></trkpt>
<trkpt lat="58.773929" lon="05.710437"><ele>24</ele><time>2012-03-25T15:14:18Z</time><cmt>3.3 kmh</cmt></trkpt>
<trkpt lat="58.773928" lon="05.710451"><ele>24</ele><time>2012-03-25T15:14:19Z</time><cmt>3.3 kmh</cmt></trkpt>
<trkpt lat="58.773927" lon="05.710465"><ele>24</ele><time>2012-03-25T15:14:20Z</time><cmt>3.2 kmh</cmt></trkpt>
<trkpt lat="58.773926" lon="05.710478"><ele>24</ele><time>2012-03-25T15:14:22Z</time><cmt>2.5 kmh</cmt></trkpt>
<trkpt lat="58.773925" lon="05.710492"><ele>24</ele><time>2012-03-25T15:14:23Z</time><cmt>2.5 kmh</cmt></trkpt>
<trkpt lat="58.773924" lon="05.710505"><ele>24</ele><time>2012-03-25T15:14:24Z</time><cmt>3.0 kmh</cmt></trkpt>
<trkpt lat="58.773923" lon="05.710517"><ele>24</ele><time>2012-03-25T15:14:24Z</time><cmt>2.9 kmh</cmt></trkpt>
<trkpt lat="58.773922" lon="05.710532"><ele>24</ele><time>2012-03-25T15:14:25Z</time><cmt>3.0 kmh</cmt></trkpt>
<trkpt lat="58.773921" lon="05.710549"><ele>24</ele><time>2012-03-25T15:14:26Z</time><cmt>3.6 kmh</cmt></trkpt>
<trkpt lat="58.773921" lon="05.710570"><ele>24</ele><time>2012-03-25T15:14:28Z</time><cmt>3.5 kmh</cmt></trkpt>
<trkpt lat="58.773921" lon="05.710594"><ele>24</ele><time>2012-03-25T15:14:29Z</time><cmt>5.2 kmh</cmt></trkpt>
<trkpt lat="58.773922" lon="05.710619"><ele>24</ele><time>2012-03-25T15:14:30Z</time><cmt>5.5 kmh</cmt></trkpt>
<trkpt lat="58.773922" lon="05.710645"><ele>24</ele><time>2012-03-25T15:14:30Z</time><cmt>5.8 kmh</cmt></trkpt>
<trkpt lat="58.773922" lon="05.710673"><ele>24</ele><time>2012-03-25T15:14:31Z</time><cmt>6.0 kmh</cmt></trkpt>
<trkpt lat="58.773923" lon="05.710702"><ele>24</ele><time>2012-03-25T15:14:32Z</time><cmt>6.0 kmh</cmt></trkpt>
<trkpt lat="58.773924" lon="05.710731"><ele>24</ele><time>2012-03-25T15:14:34Z</time><cmt>6.4 kmh</cmt></trkpt>
<trkpt lat="58.773924" lon="05.710762"><ele>24</ele><time>2012-03-25T15:14:35Z</time><cmt>6.7 kmh</cmt></trkpt>
<trkpt lat="58.773925" lon="05.710793"><ele>24</ele><time>2012-03-25T15:14:36Z</time><cmt>6.7 kmh</cmt></trkpt>
<trkpt lat="58.773926" lon="05.710825"><ele>24</ele><time>2012-03-25T15:14:36Z</time><cmt>6.6 kmh</cmt></trkpt>
<trkpt lat="58.773927" lon="05.710857"><ele>24</ele><time>2012-03-25T15:14:37Z</time><cmt>6.7 kmh</cmt></trkpt>
<trkpt lat="58.773928" lon="05.710890"><ele>24</ele><time>2012-03-25T15:14:38Z</time><cmt>6.7 kmh</cmt></trkpt>
<trkpt lat="58.773930" lon="05.710922"><ele>24</ele><time>2012-03-25T15:14:39Z</time><cmt>6.8 kmh</cmt></trkpt>
<trkpt lat="58.773931" lon="05.710954"><ele>24</ele><time>2012-03-25T15:14:41Z</time><cmt>6.9 kmh</cmt></trkpt>
<trkpt lat="58.773933" lon="05.710987"><ele>24</ele><time>2012-03-25T15:14:42Z</time><cmt>7.1 kmh</cmt></trkpt>
<trkpt lat="58.773935" lon="05.711021"><ele>24</ele><time>2012-03-25T15:14:42Z</time><cmt>7.1 kmh</cmt></trkpt>
<trkpt lat="58.773937" lon="05.711055"><ele>24</ele><time>2012-03-25T15:14:43Z</time><cmt>7.1 kmh</cmt></trkpt>
<trkpt lat="58.773939" lon="05.711090"><ele>24</ele><time>2012-03-25T15:14:44Z</time><cmt>7.2 kmh</cmt></trkpt>
<trkpt lat="58.773940" lon="05.711124"><ele>24</ele><time>2012-03-25T15:14:45Z</time><cmt>7.2 kmh</cmt></trkpt>
<trkpt lat="58.773942" lon="05.711159"><ele>24</ele><time>2012-03-25T15:14:47Z</time><cmt>7.2 kmh</cmt></trkpt>
<trkpt lat="58.773944" lon="05.711193"><ele>24</ele><time>2012-03-25T15:14:48Z</time><cmt>7.1 kmh</cmt></trkpt>
<trkpt lat="58.773946" lon="05.711228"><ele>24</ele><time>2012-03-25T15:14:49Z</time><cmt>7.2 kmh</cmt></trkpt>
<trkpt lat="58.773948" lon="05.711262"><ele>24</ele><time>2012-03-25T15:14:49Z</time><cmt>7.2 kmh</cmt></trkpt>
<trkpt lat="58.773950" lon="05.711296"><ele>24</ele><time>2012-03-25T15:14:50Z</time><cmt>7.3 kmh</cmt></trkpt>
<trkpt lat="58.773953" lon="05.711331"><ele>24</ele><time>2012-03-25T15:14:51Z</time><cmt>7.2 kmh</cmt></trkpt>
<trkpt lat="58.773955" lon="05.711365"><ele>24</ele><time>2012-03-25T15:14:53Z</time><cmt>7.2 kmh</cmt></trkpt>
<trkpt lat="58.773957" lon="05.711400"><ele>24</ele><time>2012-03-25T15:14:54Z</time><cmt>7.1 kmh</cmt></trkpt>
<trkpt lat="58.773960" lon="05.711434"><ele>24</ele><time>2012-03-25T15:14:55Z</time><cmt>7.0 kmh</cmt></trkpt>
<trkpt lat="58.773962" lon="05.711468"><ele>24</ele><time>2012-03-25T15:14:55Z</time><cmt>7.2 kmh</cmt></trkpt>
<trkpt lat="58.773965" lon="05.711502"><ele>24</ele><time>2012-03-25T15:14:56Z</time><cmt>7.1 kmh</cmt></trkpt>
<trkpt lat="58.773967" lon="05.711536"><ele>24</ele><time>2012-03-25T15:14:57Z</time><cmt>7.1 kmh</cmt></trkpt>
<trkpt lat="58.773970" lon="05.711571"><ele>24</ele><time>2012-03-25T15:14:59Z</time><cmt>7.2 kmh</cmt></trkpt>
<trkpt lat="58.773973" lon="05.711605"><ele>24</ele><time>2012-03-25T15:15:00Z</time><cmt>7.2 kmh</cmt></trkpt>
<trkpt lat="58.773976" lon="05.711640"><ele>24</ele><time>2012-03-25T15:15:01Z</time><cmt>7.4 kmh</cmt></trkpt>
<trkpt lat="58.773979" lon="05.711676"><ele>24</ele><time>2012-03-25T15:15:01Z</time><cmt>7.4 kmh</cmt></trkpt>
<trkpt lat="58.773982" lon="05.711711"><ele>24</ele><time>2012-03-25T15:15:02Z</time><cmt>7.4 kmh</cmt></trkpt>
<trkpt lat="58.773985" lon="05.711747"><ele>24</ele><time>2012-03-25T15:15:03Z</time><cmt>7.6 kmh</cmt></trkpt>
<trkpt lat="58.773989" lon="05.711783"><ele>24</ele><time>2012-03-25T15:15:05Z</time><cmt>7.4 kmh</cmt></trkpt>
<trkpt lat="58.773992" lon="05.711817"><ele>24</ele><time>2012-03-25T15:15:06Z</time><cmt>7.5 kmh</cmt></trkpt>
<trkpt lat="58.773995" lon="05.711852"><ele>24</ele><time>2012-03-25T15:15:07Z</time><cmt>7.4 kmh</cmt></trkpt>
<trkpt lat="58.773999" lon="05.711887"><ele>24</ele><time>2012-03-25T15:15:07Z</time><cmt>7.4 kmh</cmt></trkpt>
<trkpt lat="58.774002" lon="05.711922"><ele>24</ele><time>2012-03-25T15:15:08Z</time><cmt>7.3 kmh</cmt></trkpt>
<trkpt lat="58.774006" lon="05.711956"><ele>24</ele><time>2012-03-25T15:15:09Z</time><cmt>7.3 kmh</cmt></trkpt>
<trkpt lat="58.774009" lon="05.711991"><ele>24</ele><time>2012-03-25T15:15:10Z</time><cmt>7.2 kmh</cmt></trkpt>
<trkpt lat="58.774013" lon="05.712025"><ele>24</ele><time>2012-03-25T15:15:12Z</time><cmt>7.3 kmh</cmt></trkpt>
<trkpt lat="58.774017" lon="05.712059"><ele>24</ele><time>2012-03-25T15:15:13Z</time><cmt>7.2 kmh</cmt></trkpt>
<trkpt lat="58.774021" lon="05.712092"><ele>24</ele><time>2012-03-25T15:15:13Z</time><cmt>7.2 kmh</cmt></trkpt>
<trkpt lat="58.774025" lon="05.712126"><ele>24</ele><time>2012-03-25T15:15:14Z</time><cmt>6.9 kmh</cmt></trkpt>
<trkpt lat="58.774029" lon="05.712158"><ele>24</ele><time>2012-03-25T15:15:15Z</time><cmt>6.7 kmh</cmt></trkpt>
<trkpt lat="58.774032" lon="05.712188"><ele>24</ele><time>2012-03-25T15:15:16Z</time><cmt>6.3 kmh</cmt></trkpt>
<trkpt lat="58.774036" lon="05.712217"><ele>24</ele><time>2012-03-25T15:15:18Z</time><cmt>5.9 kmh</cmt></trkpt>
<trkpt lat="58.774040" lon="05.712243"><ele>24</ele><time>2012-03-25T15:15:19Z</time><cmt>5.5 kmh</cmt></trkpt>
<trkpt lat="58.774044" lon="05.712270"><ele>24</ele><time>2012-03-25T15:15:20Z</time><cmt>6.2 kmh</cmt></trkpt>
<trkpt lat="58.774048" lon="05.712298"><ele>24</ele><time>2012-03-25T15:15:20Z</time><cmt>5.9 kmh</cmt></trkpt>
<trkpt lat="58.774053" lon="05.712326"><ele>24</ele><time>2012-03-25T15:15:21Z</time><cmt>6.3 kmh</cmt></trkpt>
<trkpt lat="58.774057" lon="05.712354"><ele>24</ele><time>2012-03-25T15:15:22Z</time><cmt>6.2 kmh</cmt></trkpt>
<trkpt lat="58.774061" lon="05.712383"><ele>24</ele><time>2012-03-25T15:15:24Z</time><cmt>6.4 kmh</cmt></trkpt>
<trkpt lat="58.774065" lon="05.712412"><ele>24</ele><time>2012-03-25T15:15:25Z</time><cmt>6.2 kmh</cmt></trkpt>
<trkpt lat="58.774069" lon="05.712441"><ele>24</ele><time>2012-03-25T15:15:26Z</time><cmt>6.6 kmh</cmt></trkpt>
<trkpt lat="58.774073" lon="05.712471"><ele>24</ele><time>2012-03-25T15:15:26Z</time><cmt>6.3 kmh</cmt></trkpt>
<trkpt lat="58.774076" lon="05.712501"><ele>24</ele><time>2012-03-25T15:15:27Z</time><cmt>6.8 kmh</cmt></trkpt>
<trkpt lat="58.774080" lon="05.712533"><ele>24</ele><time>2012-03-25T15:15:28Z</time><cmt>6.6 kmh</cmt></trkpt>
<trkpt lat="58.774083" lon="05.712565"><ele>24</ele><time>2012-03-25T15:15:30Z</time><cmt>7.1 kmh</cmt></trkpt>
<trkpt lat="58.774086" lon="05.712597"><ele>24</ele><time>2012-03-25T15:15:31Z</time><cmt>6.6 kmh</cmt></trkpt>
<trkpt lat="58.774089" lon="05.712629"><ele>24</ele><time>2012-03-25T15:15:32Z</time><cmt>7.1 kmh</cmt></trkpt>
<trkpt lat="58.774091" lon="05.712662"><ele>24</ele><time>2012-03-25T15:15:32Z</time><cmt>6.8 kmh</cmt></trkpt>
<trkpt lat="58.774093" lon="05.712695"><ele>24</ele><time>2012-03-25T15:15:33Z</time><cmt>7.3 kmh</cmt></trkpt>
<trkpt lat="58.774095" lon="05.712729"><ele>24</ele><time>2012-03-25T15:15:34Z</time><cmt>7.1 kmh</cmt></trkpt>
<trkpt lat="58.774097" lon="05.712763"><ele>24</ele><time>2012-03-25T15:15:36Z</time><cmt>7.5 kmh</cmt></trkpt>
<trkpt lat="58.774099" lon="05.712798"><ele>24</ele><time>2012-03-25T15:15:37Z</time><cmt>7.3 kmh</cmt></trkpt>
<trkpt lat="58.774101" lon="05.712834"><ele>24</ele><time>2012-03-25T15:15:38Z</time><cmt>7.7 kmh</cmt></trkpt>
<trkpt lat="58.774104" lon="05.712869"><ele>24</ele><time>2012-03-25T15:15:38Z</time><cmt>7.4 kmh</cmt></trkpt>
<trkpt lat="58.774106" lon="05.712905"><ele>24</ele><time>2012-03-25T15:15:39Z</time><cmt>7.6 kmh</cmt></trkpt>
<trkpt lat="58.774107" lon="05.712941"><ele>24</ele><time>2012-03-25T15:15:40Z</time><cmt>7.5 kmh</cmt></trkpt>
<trkpt lat="58.774109" lon="05.712977"><ele>24</ele><time>2012-03-25T15:15:41Z</time><cmt>7.4 kmh</cmt></trkpt>
<trkpt lat="58.774110" lon="05.713012"><ele>24</ele><time>2012-03-25T15:15:43Z</time><cmt>7.4 kmh</cmt></trkpt>
<trkpt lat="58.774110" lon="05.713048"><ele>24</ele><time>2012-03-25T15:15:44Z</time><cmt>7.5 kmh</cmt></trkpt>
<trkpt lat="58.774111" lon="05.713083"><ele>24</ele><time>2012-03-25T15:15:44Z</time><cmt>7.3 kmh</cmt></trkpt>
<trkpt lat="58.774112" lon="05.713119"><ele>24</ele><time>2012-03-25T15:15:45Z</time><cmt>7.5 kmh</cmt></trkpt>
<trkpt lat="58.774112" lon="05.713155"><ele>24</ele><time>2012-03-25T15:15:46Z</time><cmt>7.5 kmh</cmt></trkpt>
<trkpt lat="58.774112" lon="05.713191"><ele>24</ele><time>2012-03-25T15:15:47Z</time><cmt>7.7 kmh</cmt></trkpt>
<trkpt lat="58.774112" lon="05.713228"><ele>24</ele><time>2012-03-25T15:15:49Z</time><cmt>7.9 kmh</cmt></trkpt>
<trkpt lat="58.774112" lon="05.713266"><ele>24</ele><time>2012-03-25T15:15:50Z</time><cmt>8.0 kmh</cmt></trkpt>
<trkpt lat="58.774112" lon="05.713303"><ele>24</ele><time>2012-03-25T15:15:51Z</time><cmt>7.8 kmh</cmt></trkpt>
<trkpt lat="58.774112" lon="05.713341"><ele>24</ele><time>2012-03-25T15:15:51Z</time><cmt>7.8 kmh</cmt></trkpt>
<trkpt lat="58.774112" lon="05.713378"><ele>24</ele><time>2012-03-25T15:15:52Z</time><cmt>7.6 kmh</cmt></trkpt>
<trkpt lat="58.774112" lon="05.713413"><ele>24</ele><time>2012-03-25T15:15:53Z</time><cmt>7.4 kmh</cmt></trkpt>
<trkpt lat="58.774112" lon="05.713447"><ele>24</ele><time>2012-03-25T15:15:55Z</time><cmt>6.7 kmh</cmt></trkpt>
<trkpt lat="58.774113" lon="05.713479"><ele>24</ele><time>2012-03-25T15:15:56Z</time><cmt>6.3 kmh</cmt></trkpt>
<trkpt lat="58.774114" lon="05.713507"><ele>24</ele><time>2012-03-25T15:15:57Z</time><cmt>5.7 kmh</cmt></trkpt>
<trkpt lat="58.774116" lon="05.713533"><ele>24</ele><time>2012-03-25T15:15:57Z</time><cmt>5.1 kmh</cmt></trkpt>
<trkpt lat="58.774118" lon="05.713557"><ele>24</ele><time>2012-03-25T15:15:58Z</time><cmt>5.1 kmh</cmt></trkpt>
<trkpt lat="58.774119" lon="05.713579"><ele>24</ele><time>2012-03-25T15:15:59Z</time><cmt>5.0 kmh</cmt></trkpt>
<trkpt lat="58.774121" lon="05.713599"><ele>24</ele><time>2012-03-25T15:16:01Z</time><cmt>3.8 kmh</cmt></trkpt>
<trkpt lat="58.774122" lon="05.713619"><ele>24</ele><time>2012-03-25T15:16:02Z</time><cmt>3.6 kmh</cmt></trkpt>
<trkpt lat="58.774123" lon="05.713637"><ele>24</ele><time>2012-03-25T15:16:03Z</time><cmt>4.3 kmh</cmt></trkpt>
<trkpt lat="58.774124" lon="05.713655"><ele>24</ele><time>2012-03-25T15:16:03Z</time><cmt>4.1 kmh</cmt></trkpt>
<trkpt lat="58.774125" lon="05.713672"><ele>24</ele><time>2012-03-25T15:16:04Z</time><cmt>3.9 kmh</cmt></trkpt>
<trkpt lat="58.774126" lon="05.713688"><ele>24</ele><time>2012-03-25T15:16:05Z</time><cmt>3.7 kmh</cmt></trkpt>
<trkpt lat="58.774128" lon="05.713703"><ele>24</ele><time>2012-03-25T15:16:07Z</time><cmt>2.8 kmh</cmt></trkpt>
<trkpt lat="58.774129" lon="05.713717"><ele>24</ele><time>2012-03-25T15:16:08Z</time><cmt>2.7 kmh</cmt></trkpt>
<trkpt lat="58.774131" lon="05.713730"><ele>24</ele><time>2012-03-25T15:16:09Z</time><cmt>3.1 kmh</cmt></trkpt>
<trkpt lat="58.774132" lon="05.713742"><ele>24</ele><time>2012-03-25T15:16:09Z</time><cmt>2.9 kmh</cmt></trkpt>
<trkpt lat="58.774133" lon="05.713754"><ele>24</ele><time>2012-03-25T15:16:10Z</time><cmt>2.6 kmh</cmt></trkpt>
<trkpt lat="58.774134" lon="05.713764"><ele>24</ele><time>2012-03-25T15:16:11Z</time><cmt>2.5 kmh</cmt></trkpt>
<trkpt lat="58.774135" lon="05.713775"><ele>24</ele><time>2012-03-25T15:16:12Z</time><cmt>2.4 kmh</cmt></trkpt>
<trkpt lat="58.774136" lon="05.713784"><ele>24</ele><time>2012-03-25T15:16:14Z</time><cmt>1.9 kmh</cmt></trkpt>
<trkpt lat="58.774137" lon="05.713794"><ele>24</ele><time>2012-03-25T15:16:15Z</time><cmt>1.8 kmh</cmt></trkpt>
<trkpt lat="58.774138" lon="05.713803"><ele>24</ele><time>2012-03-25T15:16:15Z</time><cmt>2.1 kmh</cmt></trkpt>
<trkpt lat="58.774139" lon="05.713812"><ele>24</ele><time>2012-03-25T15:16:16Z</time><cmt>2.1 kmh</cmt></trkpt>
<trkpt lat="58.774139" lon="05.713821"><ele>24</ele><time>2012-03-25T15:16:17Z</time><cmt>2.0 kmh</cmt></trkpt>
<trkpt lat="58.774140" lon="05.713829"><ele>24</ele><time>2012-03-25T15:16:18Z</time><cmt>1.9 kmh</cmt></trkpt>
<trkpt lat="58.774141" lon="05.713837"><ele>24</ele><time>2012-03-25T15:16:20Z</time><cmt>1.5 kmh</cmt></trkpt>
<trkpt lat="58.774141" lon="05.713844"><ele>24</ele><time>2012-03-25T15:16:21Z</time><cmt>1.4 kmh</cmt></trkpt>
<trkpt lat="58.774142" lon="05.713852"><ele>24</ele><time>2012-03-25T15:16:22Z</time><cmt>1.7 kmh</cmt></trkpt>
<trkpt lat="58.774142" lon="05.713859"><ele>24</ele><time>2012-03-25T15:16:22Z</time><cmt>1.6 kmh</cmt></trkpt>
<trkpt lat="58.774143" lon="05.713865"><ele>24</ele><time>2012-03-25T15:16:23Z</time><cmt>1.4 kmh</cmt></trkpt>
<trkpt lat="58.774143" lon="05.713871"><ele>24</ele><time>2012-03-25T15:16:24Z</time><cmt>1.4 kmh</cmt></trkpt>
<trkpt lat="58.774143" lon="05.713877"><ele>24</ele><time>2012-03-25T15:16:26Z</time><cmt>1.1 kmh</cmt></trkpt>
<trkpt lat="58.774143" lon="05.713884"><ele>24</ele><time>2012-03-25T15:16:27Z</time><cmt>1.2 kmh</cmt></trkpt>
<trkpt lat="58.774143" lon="05.713894"><ele>24</ele><time>2012-03-25T15:16:28Z</time><cmt>1.9 kmh</cmt></trkpt>
<trkpt lat="58.774144" lon="05.713907"><ele>24</ele><time>2012-03-25T15:16:28Z</time><cmt>2.5 kmh</cmt></trkpt>
<trkpt lat="58.774146" lon="05.713923"><ele>24</ele><time>2012-03-25T15:16:29Z</time><cmt>3.2 kmh</cmt></trkpt>
<trkpt lat="58.774147" lon="05.713942"><ele>24</ele><time>2012-03-25T15:16:30Z</time><cmt>4.0 kmh</cmt></trkpt>
<trkpt lat="58.774149" lon="05.713963"><ele>24</ele><time>2012-03-25T15:16:32Z</time><cmt>5.0 kmh</cmt></trkpt>
<trkpt lat="58.774150" lon="05.713987"><ele>24</ele><time>2012-03-25T15:16:33Z</time><cmt>5.3 kmh</cmt></trkpt>
<trkpt lat="58.774151" lon="05.714012"><ele>24</ele><time>2012-03-25T15:16:34Z</time><cmt>5.7 kmh</cmt></trkpt>
<trkpt lat="58.774151" lon="05.714040"><ele>24</ele><time>2012-03-25T15:16:34Z</time><cmt>5.8 kmh</cmt></trkpt>
<trkpt lat="58.774152" lon="05.714068"><ele>24</ele><time>2012-03-25T15:16:35Z</time><cmt>6.1 kmh</cmt></trkpt>
<trkpt lat="58.774151" lon="05.714097"><ele>24</ele><time>2012-03-25T15:16:36Z</time><cmt>6.3 kmh</cmt></trkpt>
<trkpt lat="58.774149" lon="05.714127"><ele>24</ele><time>2012-03-25T15:16:38Z</time><cmt>6.3 kmh</cmt></trkpt>
<trkpt lat="58.774146" lon="05.714157"><ele>24</ele><time>2012-03-25T15:16:39Z</time><cmt>6.4 kmh</cmt></trkpt>
<trkpt lat="58.774142" lon="05.714187"><ele>24</ele><time>2012-03-25T15:16:40Z</time><cmt>6.7 kmh</cmt></trkpt>
<trkpt lat="58.774137" lon="05.714217"><ele>24</ele><time>2012-03-25T15:16:40Z</time><cmt>6.7 kmh</cmt></trkpt>
<trkpt lat="58.774131" lon="05.714248"><ele>24</ele><time>2012-03-25T15:16:41Z</time><cmt>7.2 kmh</cmt></trkpt>
<trkpt lat="58.774125" lon="05.714279"><ele>24</ele><time>2012-03-25T15:16:42Z</time><cmt>7.3 kmh</cmt></trkpt>
<trkpt lat="58.774117" lon="05.714311"><ele>24</ele><time>2012-03-25T15:16:43Z</time><cmt>7.2 kmh</cmt></trkpt>
<trkpt lat="58.774109" lon="05.714341"><ele>24</ele><time>2012-03-25T15:16:45Z</time><cmt>7.0 kmh</cmt></trkpt>
<trkpt lat="58.774101" lon="05.714370"><ele>24</ele><time>2012-03-25T15:16:46Z</time><cmt>7.1 kmh</cmt></trkpt>
<trkpt lat="58.774092" lon="05.714399"><ele>24</ele><time>2012-03-25T15:16:46Z</time><cmt>7.0 kmh</cmt></trkpt>
<trkpt lat="58.774083" lon="05.714429"><ele>24</ele><time>2012-03-25T15:16:47Z</time><cmt>7.7 kmh</cmt></trkpt>
<trkpt lat="58.774073" lon="05.714461"><ele>24</ele><time>2012-03-25T15:16:48Z</time><cmt>8.0 kmh</cmt></trkpt>
<trkpt lat="58.774063" lon="05.714494"><ele>24</ele><time>2012-03-25T15:16:49Z</time><cmt>7.9 kmh</cmt></trkpt>
<trkpt lat="58.774053" lon="05.714525"><ele>24</ele><time>2012-03-25T15:16:51Z</time><cmt>7.7 kmh</cmt></trkpt>
<trkpt lat="58.774043" lon="05.714556"><ele>24</ele><time>2012-03-25T15:16:52Z</time><cmt>7.9 kmh</cmt></trkpt>
<trkpt lat="58.774033" lon="05.714588"><ele>24</ele><time>2012-03-25T15:16:53Z</time><cmt>7.7 kmh</cmt></trkpt>
<trkpt lat="58.774022" lon="05.714620"><ele>24</ele><time>2012-03-25T15:16:53Z</time><cmt>7.9 kmh</cmt></trkpt>
<trkpt lat="58.774012" lon="05.714652"><ele>24</ele><time>2012-03-25T15:16:54Z</time><cmt>8.0 kmh</cmt></trkpt>
<trkpt lat="58.774001" lon="05.714684"><ele>24</ele><time>2012-03-25T15:16:55Z</time><cmt>8.0 kmh</cmt></trkpt>
<trkpt lat="58.773990" lon="05.714716"><ele>24</ele><time>2012-03-25T15:16:57Z</time><cmt>8.3 kmh</cmt></trkpt>
<trkpt lat="58.773978" lon="05.714749"><ele>24</ele><time>2012-03-25T15:16:58Z</time><cmt>8.2 kmh</cmt></trkpt>
<trkpt lat="58.773967" lon="05.714781"><ele>24</ele><time>2012-03-25T15:16:59Z</time><cmt>8.0 kmh</cmt></trkpt>
<trkpt lat="58.773956" lon="05.714813"><ele>24</ele><time>2012-03-25T15:16:59Z</time><cmt>8.0 kmh</cmt></trkpt>
<trkpt lat="58.773944" lon="05.714845"><ele>24</ele><time>2012-03-25T15:17:00Z</time><cmt>8.0 kmh</cmt></trkpt>
<trkpt lat="58.773933" lon="05.714876"><ele>24</ele><time>2012-03-25T15:17:01Z</time><cmt>7.9 kmh</cmt></trkpt>
<trkpt lat="58.773922" lon="05.714907"><ele>24</ele><time>2012-03-25T15:17:03Z</time><cmt>7.8 kmh</cmt></trkpt>
<trkpt lat="58.773911" lon="05.714937"><ele>24</ele><time>2012-03-25T15:17:04Z</time><cmt>7.6 kmh</cmt></trkpt>
<trkpt lat="58.773899" lon="05.714967"><ele>24</ele><time>2012-03-25T15:17:05Z</time><cmt>7.6 kmh</cmt></trkpt>
<trkpt lat="58.773888" lon="05.714997"><ele>24</ele><time>2012-03-25T15:17:05Z</time><cmt>7.3 kmh</cmt></trkpt>
<trkpt lat="58.773877" lon="05.715025"><ele>24</ele><time>2012-03-25T15:17:06Z</time><cmt>7.5 kmh</cmt></trkpt>
<trkpt lat="58.773865" lon="05.715053"><ele>24</ele><time>2012-03-25T15:17:07Z</time><cmt>7.3 kmh</cmt></trkpt>
<trkpt lat="58.773854" lon="05.715081"><ele>24</ele><time>2012-03-25T15:17:09Z</time><cmt>7.6 kmh</cmt></trkpt>
<trkpt lat="58.773842" lon="05.715110"><ele>24</ele><time>2012-03-25T15:17:10Z</time><cmt>7.6 kmh</cmt></trkpt>
<trkpt lat="58.773831" lon="05.715140"><ele>24</ele><time>2012-03-25T15:17:11Z</time><cmt>7.7 kmh</cmt></trkpt>
<trkpt lat="58.773820" lon="05.715170"><ele>24</ele><time>2012-03-25T15:17:11Z</time><cmt>7.8 kmh</cmt></trkpt>
<trkpt lat="58.773808" lon="05.715200"><ele>24</ele><time>2012-03-25T15:17:12Z</time><cmt>8.1 kmh</cmt></trkpt>
<trkpt lat="58.773795" lon="05.715230"><ele>24</ele><time>2012-03-25T15:17:13Z</time><cmt>7.8 kmh</cmt></trkpt>
<trkpt lat="58.773782" lon="05.715260"><ele>24</ele><time>2012-03-25T15:17:15Z</time><cmt>7.8 kmh</cmt></trkpt>
<trkpt lat="58.773769" lon="05.715287"><ele>24</ele><time>2012-03-25T15:17:16Z</time><cmt>7.5 kmh</cmt></trkpt>
<trkpt lat="58.773757" lon="05.715312"><ele>24</ele><time>2012-03-25T15:17:17Z</time><cmt>8.0 kmh</cmt></trkpt>
<trkpt lat="58.773744" lon="05.715339"><ele>24</ele><time>2012-03-25T15:17:17Z</time><cmt>7.8 kmh</cmt></trkpt>
<trkpt lat="58.773730" lon="05.715365"><ele>24</ele><time>2012-03-25T15:17:18Z</time><cmt>7.8 kmh</cmt></trkpt>
<trkpt lat="58.773716" lon="05.715390"><ele>24</ele><time>2012-03-25T15:17:19Z</time><cmt>7.7 kmh</cmt></trkpt>
<trkpt lat="58.773701" lon="05.715414"><ele>24</ele><time>2012-03-25T15:17:20Z</time><cmt>7.5 kmh</cmt></trkpt>
<trkpt lat="58.773687" lon="05.715436"><ele>24</ele><time>2012-03-25T15:17:22Z</time><cmt>7.5 kmh</cmt></trkpt>
<trkpt lat="58.773673" lon="05.715458"><ele>24</ele><time>2012-03-25T15:17:23Z</time><cmt>7.3 kmh</cmt></trkpt>
<trkpt lat="58.773659" lon="05.715479"><ele>24</ele><time>2012-03-25T15:17:24Z</time><cmt>7.3 kmh</cmt></trkpt>
<trkpt lat="58.773645" lon="05.715500"><ele>24</ele><time>2012-03-25T15:17:24Z</time><cmt>7.1 kmh</cmt></trkpt>
<trkpt lat="58.773631" lon="05.715521"><ele>24</ele><time>2012-03-25T15:17:25Z</time><cmt>6.6 kmh</cmt></trkpt>
<trkpt lat="58.773619" lon="05.715541"><ele>24</ele><time>2012-03-25T15:17:26Z</time><cmt>6.3 kmh</cmt></trkpt>
<trkpt lat="58.773608" lon="05.715561"><ele>24</ele><time>2012-03-25T15:17:28Z</time><cmt>6.0 kmh</cmt></trkpt>
<trkpt lat="58.773598" lon="05.715582"><ele>24</ele><time>2012-03-25T15:17:29Z</time><cmt>5.6 kmh</cmt></trkpt>
<trkpt lat="58.773590" lon="05.715602"><ele>24</ele><time>2012-03-25T15:17:30Z</time><cmt>5.3 kmh</cmt></trkpt>
<trkpt lat="58.773583" lon="05.715621"><ele>24</ele><time>2012-03-25T15:17:30Z</time><cmt>5.3 kmh</cmt></trkpt>
<trkpt lat="58.773579" lon="05.715636"><ele>25</ele><time>2012-03-25T15:17:31Z</time><cmt>4.6 kmh</cmt></trkpt>
<trkpt lat="58.773574" lon="05.715651"><ele>25</ele><time>2012-03-25T15:17:32Z</time><cmt>3.8 kmh</cmt></trkpt>
<trkpt lat="58.773569" lon="05.715668"><ele>25</ele><time>2012-03-25T15:17:34Z</time><cmt>3.3 kmh</cmt></trkpt>
<trkpt lat="58.773563" lon="05.715685"><ele>25</ele><time>2012-03-25T15:17:35Z</time><cmt>3.7 kmh</cmt></trkpt>
<trkpt lat="58.773557" lon="05.715702"><ele>25</ele><time>2012-03-25T15:17:36Z</time><cmt>4.6 kmh</cmt></trkpt>
<trkpt lat="58.773551" lon="05.715718"><ele>25</ele><time>2012-03-25T15:17:36Z</time><cmt>4.5 kmh</cmt></trkpt>
<trkpt lat="58.773545" lon="05.715734"><ele>25</ele><time>2012-03-25T15:17:37Z</time><cmt>4.4 kmh</cmt></trkpt>
<trkpt lat="58.773539" lon="05.715748"><ele>25</ele><time>2012-03-25T15:17:38Z</time><cmt>4.2 kmh</cmt></trkpt>
<trkpt lat="58.773534" lon="05.715762"><ele>25</ele><time>2012-03-25T15:17:40Z</time><cmt>3.1 kmh</cmt></trkpt>
<trkpt lat="58.773527" lon="05.715777"><ele>25</ele><time>2012-03-25T15:17:41Z</time><cmt>3.3 kmh</cmt></trkpt>
<trkpt lat="58.773521" lon="05.715790"><ele>25</ele><time>2012-03-25T15:17:42Z</time><cmt>4.1 kmh</cmt></trkpt>
<trkpt lat="58.773516" lon="05.715802"><ele>25</ele><time>2012-03-25T15:17:42Z</time><cmt>3.7 kmh</cmt></trkpt>
<trkpt lat="58.773511" lon="05.715814"><ele>25</ele><time>2012-03-25T15:17:43Z</time><cmt>3.6 kmh</cmt></trkpt>
<trkpt lat="58.773506" lon="05.715825"><ele>25</ele><time>2012-03-25T15:17:44Z</time><cmt>3.3 kmh</cmt></trkpt>
<trkpt lat="58.773501" lon="05.715836"><ele>25</ele><time>2012-03-25T15:17:45Z</time><cmt>3.1 kmh</cmt></trkpt>
<trkpt lat="58.773497" lon="05.715847"><ele>25</ele><time>2012-03-25T15:17:47Z</time><cmt>2.5 kmh</cmt></trkpt>
<trkpt lat="58.773491" lon="05.715859"><ele>25</ele><time>2012-03-25T15:17:48Z</time><cmt>2.8 kmh</cmt></trkpt>
<trkpt lat="58.773486" lon="05.715871"><ele>25</ele><time>2012-03-25T15:17:48Z</time><cmt>3.7 kmh</cmt></trkpt>
<trkpt lat="58.773481" lon="05.715883"><ele>25</ele><time>2012-03-25T15:17:49Z</time><cmt>3.4 kmh</cmt></trkpt>
<trkpt lat="58.773476" lon="05.715894"><ele>25</ele><time>2012-03-25T15:17:50Z</time><cmt>3.2 kmh</cmt></trkpt>
<trkpt lat="58.773472" lon="05.715905"><ele>25</ele><time>2012-03-25T15:17:51Z</time><cmt>3.1 kmh</cmt></trkpt>
<trkpt lat="58.773467" lon="05.715916"><ele>25</ele><time>2012-03-25T15:17:53Z</time><cmt>2.6 kmh</cmt></trkpt>
<trkpt lat="58.773463" lon="05.715927"><ele>25</ele><time>2012-03-25T15:17:54Z</time><cmt>2.6 kmh</cmt></trkpt>
<trkpt lat="58.773458" lon="05.715937"><ele>25</ele><time>2012-03-25T15:17:55Z</time><cmt>3.0 kmh</cmt></trkpt>
<trkpt lat="58.773454" lon="05.715948"><ele>25</ele><time>2012-03-25T15:17:55Z</time><cmt>3.0 kmh</cmt></trkpt>
<trkpt lat="58.773449" lon="05.715958"><ele>25</ele><time>2012-03-25T15:17:56Z</time><cmt>3.0 kmh</cmt></trkpt>
<trkpt lat="58.773445" lon="05.715969"><ele>25</ele><time>2012-03-25T15:17:57Z</time><cmt>3.0 kmh</cmt></trkpt>
<trkpt lat="58.773440" lon="05.715979"><ele>25</ele><time>2012-03-25T15:17:59Z</time><cmt>2.4 kmh</cmt></trkpt>
<trkpt lat="58.773436" lon="05.715988"><ele>25</ele><time>2012-03-25T15:18:00Z</time><cmt>2.3 kmh</cmt></trkpt>
<trkpt lat="58.773432" lon="05.715997"><ele>25</ele><time>2012-03-25T15:18:01Z</time><cmt>2.8 kmh</cmt></trkpt>
<trkpt lat="58.773427" lon="05.716005"><ele>25</ele><time>2012-03-25T15:18:01Z</time><cmt>2.7 kmh</cmt></trkpt>
<trkpt lat="58.773423" lon="05.716013"><ele>25</ele><time>2012-03-25T15:18:02Z</time><cmt>2.5 kmh</cmt></trkpt>
<trkpt lat="58.773419" lon="05.716021"><ele>25</ele><time>2012-03-25T15:18:03Z</time><cmt>2.5 kmh</cmt></trkpt>
<trkpt lat="58.773416" lon="05.716030"><ele>25</ele><time>2012-03-25T15:18:05Z</time><cmt>2.0 kmh</cmt></trkpt>
<trkpt lat="58.773412" lon="05.716039"><ele>25</ele><time>2012-03-25T15:18:06Z</time><cmt>2.0 kmh</cmt></trkpt>
<trkpt lat="58.773408" lon="05.716047"><ele>25</ele><time>2012-03-25T15:18:07Z</time><cmt>2.5 kmh</cmt></trkpt>
<trkpt lat="58.773404" lon="05.716056"><ele>25</ele><time>2012-03-25T15:18:07Z</time><cmt>2.5 kmh</cmt></trkpt>
<trkpt lat="58.773400" lon="05.716064"><ele>25</ele><time>2012-03-25T15:18:08Z</time><cmt>2.5 kmh</cmt></trkpt>
<trkpt lat="58.773397" lon="05.716073"><ele>25</ele><time>2012-03-25T15:18:09Z</time><cmt>2.4 kmh</cmt></trkpt>
<trkpt lat="58.773393" lon="05.716081"><ele>24</ele><time>2012-03-25T15:18:11Z</time><cmt>2.0 kmh</cmt></trkpt>
<trkpt lat="58.773389" lon="05.716090"><ele>24</ele><time>2012-03-25T15:18:12Z</time><cmt>2.0 kmh</cmt></trkpt>
<trkpt lat="58.773386" lon="05.716098"><ele>24</ele><time>2012-03-25T15:18:13Z</time><cmt>2.5 kmh</cmt></trkpt>
<trkpt lat="58.773381" lon="05.716107"><ele>24</ele><time>2012-03-25T15:18:13Z</time><cmt>2.6 kmh</cmt></trkpt>
<trkpt lat="58.773378" lon="05.716114"><ele>24</ele><time>2012-03-25T15:18:14Z</time><cmt>2.4 kmh</cmt></trkpt>
<trkpt lat="58.773375" lon="05.716121"><ele>24</ele><time>2012-03-25T15:18:15Z</time><cmt>2.1 kmh</cmt></trkpt>
<trkpt lat="58.773371" lon="05.716129"><ele>24</ele><time>2012-03-25T15:18:16Z</time><cmt>2.3 kmh</cmt></trkpt>
<trkpt lat="58.773367" lon="05.716137"><ele>24</ele><time>2012-03-25T15:18:18Z</time><cmt>1.9 kmh</cmt></trkpt>
<trkpt lat="58.773364" lon="05.716146"><ele>24</ele><time>2012-03-25T15:18:19Z</time><cmt>1.9 kmh</cmt></trkpt>
<trkpt lat="58.773360" lon="05.716154"><ele>24</ele><time>2012-03-25T15:18:20Z</time><cmt>2.4 kmh</cmt></trkpt>
<trkpt lat="58.773357" lon="05.716162"><ele>24</ele><time>2012-03-25T15:18:20Z</time><cmt>2.4 kmh</cmt></trkpt>
<trkpt lat="58.773353" lon="05.716170"><ele>24</ele><time>2012-03-25T15:18:21Z</time><cmt>2.3 kmh</cmt></trkpt>
<trkpt lat="58.773350" lon="05.716178"><ele>24</ele><time>2012-03-25T15:18:22Z</time><cmt>2.3 kmh</cmt></trkpt>
<trkpt lat="58.773347" lon="05.716184"><ele>24</ele><time>2012-03-25T15:18:24Z</time><cmt>1.7 kmh</cmt></trkpt>
<trkpt lat="58.773344" lon="05.716191"><ele>24</ele><time>2012-03-25T15:18:25Z</time><cmt>1.7 kmh</cmt></trkpt>
<trkpt lat="58.773340" lon="05.716199"><ele>24</ele><time>2012-03-25T15:18:26Z</time><cmt>2.1 kmh</cmt></trkpt>
<trkpt lat="58.773337" lon="05.716205"><ele>24</ele><time>2012-03-25T15:18:26Z</time><cmt>2.1 kmh</cmt></trkpt>
<trkpt lat="58.773334" lon="05.716212"><ele>24</ele><time>2012-03-25T15:18:27Z</time><cmt>2.0 kmh</cmt></trkpt>
<trkpt lat="58.773331" lon="05.716219"><ele>24</ele><time>2012-03-25T15:18:28Z</time><cmt>2.0 kmh</cmt></trkpt>
<trkpt lat="58.773328" lon="05.716225"><ele>24</ele><time>2012-03-25T15:18:30Z</time><cmt>1.6 kmh</cmt></trkpt>
<trkpt lat="58.773324" lon="05.716232"><ele>24</ele><time>2012-03-25T15:18:31Z</time><cmt>1.6 kmh</cmt></trkpt>
<trkpt lat="58.773321" lon="05.716239"><ele>24</ele><time>2012-03-25T15:18:32Z</time><cmt>2.1 kmh</cmt></trkpt>
<trkpt lat="58.773318" lon="05.716246"><ele>24</ele><time>2012-03-25T15:18:32Z</time><cmt>2.1 kmh</cmt></trkpt>
<trkpt lat="58.773315" lon="05.716253"><ele>24</ele><time>2012-03-25T15:18:33Z</time><cmt>2.1 kmh</cmt></trkpt>
<trkpt lat="58.773312" lon="05.716260"><ele>24</ele><time>2012-03-25T15:18:34Z</time><cmt>2.0 kmh</cmt></trkpt>
<trkpt lat="58.773309" lon="05.716267"><ele>24</ele><time>2012-03-25T15:18:35Z</time><cmt>2.0 kmh</cmt></trkpt>
<trkpt lat="58.773306" lon="05.716273"><ele>24</ele><time>2012-03-25T15:18:37Z</time><cmt>1.6 kmh</cmt></trkpt>
<trkpt lat="58.773303" lon="05.716279"><ele>24</ele><time>2012-03-25T15:18:38Z</time><cmt>1.6 kmh</cmt></trkpt>
<trkpt lat="58.773300" lon="05.716286"><ele>24</ele><time>2012-03-25T15:18:38Z</time><cmt>2.0 kmh</cmt></trkpt>
<trkpt lat="58.773296" lon="05.716292"><ele>24</ele><time>2012-03-25T15:18:39Z</time><cmt>1.9 kmh</cmt></trkpt>
<trkpt lat="58.773293" lon="05.716298"><ele>24</ele><time>2012-03-25T15:18:40Z</time><cmt>1.9 kmh</cmt></trkpt>
<trkpt lat="58.773290" lon="05.716304"><ele>24</ele><time>2012-03-25T15:18:41Z</time><cmt>1.9 kmh</cmt></trkpt>
<trkpt lat="58.773287" lon="05.716310"><ele>24</ele><time>2012-03-25T15:18:43Z</time><cmt>1.5 kmh</cmt></trkpt>
<trkpt lat="58.773284" lon="05.716316"><ele>24</ele><time>2012-03-25T15:18:44Z</time><cmt>1.5 kmh</cmt></trkpt>
<trkpt lat="58.773281" lon="05.716322"><ele>24</ele><time>2012-03-25T15:18:45Z</time><cmt>1.8 kmh</cmt></trkpt>
<trkpt lat="58.773278" lon="05.716328"><ele>24</ele><time>2012-03-25T15:18:45Z</time><cmt>1.9 kmh</cmt></trkpt>
<trkpt lat="58.773275" lon="05.716334"><ele>24</ele><time>2012-03-25T15:18:46Z</time><cmt>1.9 kmh</cmt></trkpt>
<trkpt lat="58.773272" lon="05.716340"><ele>24</ele><time>2012-03-25T15:18:47Z</time><cmt>1.8 kmh</cmt></trkpt>
<trkpt lat="58.773269" lon="05.716346"><ele>24</ele><time>2012-03-25T15:18:49Z</time><cmt>1.4 kmh</cmt></trkpt>
<trkpt lat="58.773266" lon="05.716352"><ele>24</ele><time>2012-03-25T15:18:50Z</time><cmt>1.4 kmh</cmt></trkpt>
<trkpt lat="58.773263" lon="05.716358"><ele>24</ele><time>2012-03-25T15:18:51Z</time><cmt>1.8 kmh</cmt></trkpt>
<trkpt lat="58.773261" lon="05.716363"><ele>24</ele><time>2012-03-25T15:18:51Z</time><cmt>1.8 kmh</cmt></trkpt>
<trkpt lat="58.773258" lon="05.716369"><ele>24</ele><time>2012-03-25T15:18:52Z</time><cmt>1.8 kmh</cmt></trkpt>
<trkpt lat="58.773255" lon="05.716374"><ele>24</ele><time>2012-03-25T15:18:53Z</time><cmt>1.7 kmh</cmt></trkpt>
<trkpt lat="58.773252" lon="05.716380"><ele>24</ele><time>2012-03-25T15:18:55Z</time><cmt>1.4 kmh</cmt></trkpt>
<trkpt lat="58.773249" lon="05.716385"><ele>24</ele><time>2012-03-25T15:18:56Z</time><cmt>1.4 kmh</cmt></trkpt>
<trkpt lat="58.773247" lon="05.716391"><ele>24</ele><time>2012-03-25T15:18:57Z</time><cmt>1.7 kmh</cmt></trkpt>
<trkpt lat="58.773244" lon="05.716396"><ele>24</ele><time>2012-03-25T15:18:58Z</time><cmt>1.6 kmh</cmt></trkpt>
<trkpt lat="58.773241" lon="05.716402"><ele>24</ele><time>2012-03-25T15:18:58Z</time><cmt>1.7 kmh</cmt></trkpt>
<trkpt lat="58.773238" lon="05.716408"><ele>24</ele><time>2012-03-25T15:18:59Z</time><cmt>1.8 kmh</cmt></trkpt>
<trkpt lat="58.773235" lon="05.716414"><ele>24</ele><time>2012-03-25T15:19:00Z</time><cmt>1.8 kmh</cmt></trkpt>
<trkpt lat="58.773233" lon="05.716419"><ele>24</ele><time>2012-03-25T15:19:02Z</time><cmt>1.4 kmh</cmt></trkpt>
<trkpt lat="58.773230" lon="05.716425"><ele>24</ele><time>2012-03-25T15:19:03Z</time><cmt>1.4 kmh</cmt></trkpt>
<trkpt lat="58.773227" lon="05.716429"><ele>24</ele><time>2012-03-25T15:19:04Z</time><cmt>1.6 kmh</cmt></trkpt>
<trkpt lat="58.773224" lon="05.716434"><ele>24</ele><time>2012-03-25T15:19:04Z</time><cmt>1.5 kmh</cmt></trkpt>
<trkpt lat="58.773222" lon="05.716440"><ele>24</ele><time>2012-03-25T15:19:05Z</time><cmt>1.5 kmh</cmt></trkpt>
<trkpt lat="58.773219" lon="05.716446"><ele>24</ele><time>2012-03-25T15:19:06Z</time><cmt>1.7 kmh</cmt></trkpt>
<trkpt lat="58.773216" lon="05.716452"><ele>24</ele><time>2012-03-25T15:19:08Z</time><cmt>1.4 kmh</cmt></trkpt>
<trkpt lat="58.773214" lon="05.716458"><ele>24</ele><time>2012-03-25T15:19:09Z</time><cmt>1.5 kmh</cmt></trkpt>
<trkpt lat="58.773211" lon="05.716465"><ele>24</ele><time>2012-03-25T15:19:10Z</time><cmt>1.9 kmh</cmt></trkpt>
<trkpt lat="58.773208" lon="05.716471"><ele>24</ele><time>2012-03-25T15:19:10Z</time><cmt>1.9 kmh</cmt></trkpt>
<trkpt lat="58.773205" lon="05.716477"><ele>24</ele><time>2012-03-25T15:19:11Z</time><cmt>1.8 kmh</cmt></trkpt>
<trkpt lat="58.773202" lon="05.716483"><ele>24</ele><time>2012-03-25T15:19:12Z</time><cmt>1.8 kmh</cmt></trkpt>
<trkpt lat="58.773199" lon="05.716489"><ele>24</ele><time>2012-03-25T15:19:14Z</time><cmt>1.5 kmh</cmt></trkpt>
<trkpt lat="58.773196" lon="05.716495"><ele>24</ele><time>2012-03-25T15:19:15Z</time><cmt>1.5 kmh</cmt></trkpt>
<trkpt lat="58.773194" lon="05.716501"><ele>24</ele><time>2012-03-25T15:19:16Z</time><cmt>1.8 kmh</cmt></trkpt>
<trkpt lat="58.773191" lon="05.716507"><ele>24</ele><time>2012-03-25T15:19:16Z</time><cmt>1.7 kmh</cmt></trkpt>
<trkpt lat="58.773189" lon="05.716513"><ele>24</ele><time>2012-03-25T15:19:17Z</time><cmt>1.7 kmh</cmt></trkpt>
<trkpt lat="58.773186" lon="05.716519"><ele>24</ele><time>2012-03-25T15:19:18Z</time><cmt>1.7 kmh</cmt></trkpt>
<trkpt lat="58.773184" lon="05.716525"><ele>24</ele><time>2012-03-25T15:19:20Z</time><cmt>1.4 kmh</cmt></trkpt>
<trkpt lat="58.773181" lon="05.716531"><ele>24</ele><time>2012-03-25T15:19:21Z</time><cmt>1.4 kmh</cmt></trkpt>
<trkpt lat="58.773178" lon="05.716537"><ele>24</ele><time>2012-03-25T15:19:22Z</time><cmt>1.7 kmh</cmt></trkpt>
<trkpt lat="58.773176" lon="05.716543"><ele>24</ele><time>2012-03-25T15:19:22Z</time><cmt>1.8 kmh</cmt></trkpt>
<trkpt lat="58.773173" lon="05.716549"><ele>24</ele><time>2012-03-25T15:19:23Z</time><cmt>1.8 kmh</cmt></trkpt>
<trkpt lat="58.773170" lon="05.716555"><ele>24</ele><time>2012-03-25T15:19:24Z</time><cmt>1.8 kmh</cmt></trkpt>
<trkpt lat="58.773168" lon="05.716561"><ele>24</ele><time>2012-03-25T15:19:25Z</time><cmt>1.8 kmh</cmt></trkpt>
<trkpt lat="58.773165" lon="05.716567"><ele>24</ele><time>2012-03-25T15:19:27Z</time><cmt>1.4 kmh</cmt></trkpt>
<trkpt lat="58.773162" lon="05.716573"><ele>24</ele><time>2012-03-25T15:19:28Z</time><cmt>1.4 kmh</cmt></trkpt>
<trkpt lat="58.773159" lon="05.716579"><ele>24</ele><time>2012-03-25T15:19:29Z</time><cmt>1.8 kmh</cmt></trkpt>
<trkpt lat="58.773157" lon="05.716585"><ele>24</ele><time>2012-03-25T15:19:29Z</time><cmt>1.8 kmh</cmt></trkpt>
<trkpt lat="58.773154" lon="05.716591"><ele>24</ele><time>2012-03-25T15:19:30Z</time><cmt>1.8 kmh</cmt></trkpt>
<trkpt lat="58.773151" lon="05.716597"><ele>24</ele><time>2012-03-25T15:19:31Z</time><cmt>1.8 kmh</cmt></trkpt>
<trkpt lat="58.773149" lon="05.716603"><ele>24</ele><time>2012-03-25T15:19:33Z</time><cmt>1.4 kmh</cmt></trkpt>
<trkpt lat="58.773146" lon="05.716609"><ele>24</ele><time>2012-03-25T15:19:34Z</time><cmt>1.3 kmh</cmt></trkpt>
<trkpt lat="58.773144" lon="05.716613"><ele>24</ele><time>2012-03-25T15:19:35Z</time><cmt>1.5 kmh</cmt></trkpt>
<trkpt lat="58.773142" lon="05.716617"><ele>24</ele><time>2012-03-25T15:19:35Z</time><cmt>1.2 kmh</cmt></trkpt>
<trkpt lat="58.773140" lon="05.716622"><ele>24</ele><time>2012-03-25T15:19:36Z</time><cmt>1.3 kmh</cmt></trkpt>
<trkpt lat="58.773137" lon="05.716627"><ele>24</ele><time>2012-03-25T15:19:37Z</time><cmt>1.6 kmh</cmt></trkpt>
<trkpt lat="58.773135" lon="05.716633"><ele>24</ele><time>2012-03-25T15:19:39Z</time><cmt>1.4 kmh</cmt></trkpt>
<trkpt lat="58.773132" lon="05.716638"><ele>24</ele><time>2012-03-25T15:19:40Z</time><cmt>1.4 kmh</cmt></trkpt>
<trkpt lat="58.773130" lon="05.716644"><ele>24</ele><time>2012-03-25T15:19:41Z</time><cmt>1.7 kmh</cmt></trkpt>
<trkpt lat="58.773128" lon="05.716649"><ele>24</ele><time>2012-03-25T15:19:41Z</time><cmt>1.6 kmh</cmt></trkpt>
<trkpt lat="58.773125" lon="05.716655"><ele>24</ele><time>2012-03-25T15:19:42Z</time><cmt>1.6 kmh</cmt></trkpt>
<trkpt lat="58.773122" lon="05.716660"><ele>24</ele><time>2012-03-25T15:19:43Z</time><cmt>1.6 kmh</cmt></trkpt>
<trkpt lat="58.773120" lon="05.716666"><ele>24</ele><time>2012-03-25T15:19:45Z</time><cmt>1.3 kmh</cmt></trkpt>
<trkpt lat="58.773117" lon="05.716671"><ele>24</ele><time>2012-03-25T15:19:46Z</time><cmt>1.3 kmh</cmt></trkpt>
<trkpt lat="58.773115" lon="05.716676"><ele>24</ele><time>2012-03-25T15:19:47Z</time><cmt>1.6 kmh</cmt></trkpt>
<trkpt lat="58.773112" lon="05.716682"><ele>24</ele><time>2012-03-25T15:19:47Z</time><cmt>1.6 kmh</cmt></trkpt>
<trkpt lat="58.773110" lon="05.716687"><ele>24</ele><time>2012-03-25T15:19:48Z</time><cmt>1.6 kmh</cmt></trkpt>
<trkpt lat="58.773107" lon="05.716692"><ele>24</ele><time>2012-03-25T15:19:49Z</time><cmt>1.6 kmh</cmt></trkpt>
<trkpt lat="58.773104" lon="05.716697"><ele>24</ele><time>2012-03-25T15:19:50Z</time><cmt>1.6 kmh</cmt></trkpt>
<trkpt lat="58.773099" lon="05.716708"><ele>24</ele><time>2012-03-25T15:19:53Z</time><cmt>1.4 kmh</cmt></trkpt>
<trkpt lat="58.773097" lon="05.716713"><ele>24</ele><time>2012-03-25T15:19:54Z</time><cmt>1.3 kmh</cmt></trkpt>
<trkpt lat="58.773094" lon="05.716718"><ele>24</ele><time>2012-03-25T15:19:54Z</time><cmt>1.6 kmh</cmt></trkpt>
<trkpt lat="58.773092" lon="05.716724"><ele>25</ele><time>2012-03-25T15:19:55Z</time><cmt>1.7 kmh</cmt></trkpt>
<trkpt lat="58.773089" lon="05.716729"><ele>25</ele><time>2012-03-25T15:19:56Z</time><cmt>1.7 kmh</cmt></trkpt>
<trkpt lat="58.773087" lon="05.716734"><ele>25</ele><time>2012-03-25T15:19:58Z</time><cmt>1.3 kmh</cmt></trkpt>
<trkpt lat="58.773084" lon="05.716739"><ele>25</ele><time>2012-03-25T15:19:59Z</time><cmt>1.3 kmh</cmt></trkpt>
<trkpt lat="58.773081" lon="05.716745"><ele>25</ele><time>2012-03-25T15:20:00Z</time><cmt>1.6 kmh</cmt></trkpt>
<trkpt lat="58.773079" lon="05.716750"><ele>25</ele><time>2012-03-25T15:20:00Z</time><cmt>1.6 kmh</cmt></trkpt>
<trkpt lat="58.773076" lon="05.716755"><ele>25</ele><time>2012-03-25T15:20:02Z</time><cmt>1.6 kmh</cmt></trkpt>
<trkpt lat="58.773074" lon="05.716760"><ele>25</ele><time>2012-03-25T15:20:02Z</time><cmt>1.6 kmh</cmt></trkpt>
<trkpt lat="58.773071" lon="05.716766"><ele>25</ele><time>2012-03-25T15:20:04Z</time><cmt>1.3 kmh</cmt></trkpt>
<trkpt lat="58.773069" lon="05.716771"><ele>25</ele><time>2012-03-25T15:20:05Z</time><cmt>1.3 kmh</cmt></trkpt>
<trkpt lat="58.773067" lon="05.716776"><ele>25</ele><time>2012-03-25T15:20:06Z</time><cmt>1.6 kmh</cmt></trkpt>
<trkpt lat="58.773064" lon="05.716782"><ele>25</ele><time>2012-03-25T15:20:06Z</time><cmt>1.5 kmh</cmt></trkpt>
<trkpt lat="58.773062" lon="05.716787"><ele>25</ele><time>2012-03-25T15:20:08Z</time><cmt>1.5 kmh</cmt></trkpt>
<trkpt lat="58.773060" lon="05.716792"><ele>25</ele><time>2012-03-25T15:20:08Z</time><cmt>1.5 kmh</cmt></trkpt>
<trkpt lat="58.773057" lon="05.716798"><ele>25</ele><time>2012-03-25T15:20:10Z</time><cmt>1.2 kmh</cmt></trkpt>
<trkpt lat="58.773055" lon="05.716803"><ele>25</ele><time>2012-03-25T15:20:11Z</time><cmt>1.3 kmh</cmt></trkpt>
<trkpt lat="58.773053" lon="05.716808"><ele>25</ele><time>2012-03-25T15:20:12Z</time><cmt>1.6 kmh</cmt></trkpt>
<trkpt lat="58.773050" lon="05.716814"><ele>25</ele><time>2012-03-25T15:20:12Z</time><cmt>1.6 kmh</cmt></trkpt>
<trkpt lat="58.773048" lon="05.716819"><ele>25</ele><time>2012-03-25T15:20:14Z</time><cmt>1.5 kmh</cmt></trkpt>
<trkpt lat="58.773046" lon="05.716824"><ele>25</ele><time>2012-03-25T15:20:14Z</time><cmt>1.5 kmh</cmt></trkpt>
<trkpt lat="58.773043" lon="05.716830"><ele>25</ele><time>2012-03-25T15:20:15Z</time><cmt>1.6 kmh</cmt></trkpt>
<trkpt lat="58.773041" lon="05.716835"><ele>25</ele><time>2012-03-25T15:20:17Z</time><cmt>1.3 kmh</cmt></trkpt>
<trkpt lat="58.773039" lon="05.716840"><ele>25</ele><time>2012-03-25T15:20:18Z</time><cmt>1.2 kmh</cmt></trkpt>
<trkpt lat="58.773037" lon="05.716845"><ele>25</ele><time>2012-03-25T15:20:19Z</time><cmt>1.5 kmh</cmt></trkpt>
<trkpt lat="58.773034" lon="05.716850"><ele>25</ele><time>2012-03-25T15:20:19Z</time><cmt>1.5 kmh</cmt></trkpt>
<trkpt lat="58.773032" lon="05.716855"><ele>25</ele><time>2012-03-25T15:20:20Z</time><cmt>1.5 kmh</cmt></trkpt>
<trkpt lat="58.773030" lon="05.716860"><ele>25</ele><time>2012-03-25T15:20:21Z</time><cmt>1.5 kmh</cmt></trkpt>
<trkpt lat="58.773027" lon="05.716865"><ele>25</ele><time>2012-03-25T15:20:23Z</time><cmt>1.2 kmh</cmt></trkpt>
<trkpt lat="58.773025" lon="05.716871"><ele>25</ele><time>2012-03-25T15:20:24Z</time><cmt>1.3 kmh</cmt></trkpt>
<trkpt lat="58.773022" lon="05.716877"><ele>25</ele><time>2012-03-25T15:20:25Z</time><cmt>1.6 kmh</cmt></trkpt>
<trkpt lat="58.773020" lon="05.716883"><ele>25</ele><time>2012-03-25T15:20:26Z</time><cmt>1.6 kmh</cmt></trkpt>
<trkpt lat="58.773017" lon="05.716889"><ele>25</ele><time>2012-03-25T15:20:26Z</time><cmt>1.7 kmh</cmt></trkpt>
<trkpt lat="58.773015" lon="05.716894"><ele>25</ele><time>2012-03-25T15:20:27Z</time><cmt>1.7 kmh</cmt></trkpt>
<trkpt lat="58.773012" lon="05.716900"><ele>25</ele><time>2012-03-25T15:20:29Z</time><cmt>1.4 kmh</cmt></trkpt>
<trkpt lat="58.773009" lon="05.716906"><ele>26</ele><time>2012-03-25T15:20:30Z</time><cmt>1.4 kmh</cmt></trkpt>
<trkpt lat="58.773007" lon="05.716911"><ele>26</ele><time>2012-03-25T15:20:31Z</time><cmt>1.7 kmh</cmt></trkpt>
<trkpt lat="58.773005" lon="05.716917"><ele>26</ele><time>2012-03-25T15:20:31Z</time><cmt>1.6 kmh</cmt></trkpt>
<trkpt lat="58.773003" lon="05.716922"><ele>26</ele><time>2012-03-25T15:20:32Z</time><cmt>1.5 kmh</cmt></trkpt>
<trkpt lat="58.773001" lon="05.716927"><ele>26</ele><time>2012-03-25T15:20:33Z</time><cmt>1.5 kmh</cmt></trkpt>
<trkpt lat="58.772998" lon="05.716932"><ele>26</ele><time>2012-03-25T15:20:35Z</time><cmt>1.2 kmh</cmt></trkpt>
<trkpt lat="58.772996" lon="05.716937"><ele>26</ele><time>2012-03-25T15:20:36Z</time><cmt>1.2 kmh</cmt></trkpt>
<trkpt lat="58.772994" lon="05.716943"><ele>26</ele><time>2012-03-25T15:20:37Z</time><cmt>1.5 kmh</cmt></trkpt>
<trkpt lat="58.772991" lon="05.716948"><ele>26</ele><time>2012-03-25T15:20:37Z</time><cmt>1.6 kmh</cmt></trkpt>
<trkpt lat="58.772989" lon="05.716954"><ele>26</ele><time>2012-03-25T15:20:38Z</time><cmt>1.6 kmh</cmt></trkpt>
<trkpt lat="58.772986" lon="05.716959"><ele>26</ele><time>2012-03-25T15:20:39Z</time><cmt>1.6 kmh</cmt></trkpt>
<trkpt lat="58.772984" lon="05.716964"><ele>26</ele><time>2012-03-25T15:20:41Z</time><cmt>1.6 kmh</cmt></trkpt>
<trkpt lat="58.772981" lon="05.716969"><ele>26</ele><time>2012-03-25T15:20:42Z</time><cmt>1.3 kmh</cmt></trkpt>
<trkpt lat="58.772979" lon="05.716975"><ele>26</ele><time>2012-03-25T15:20:43Z</time><cmt>1.3 kmh</cmt></trkpt>
<trkpt lat="58.772977" lon="05.716980"><ele>26</ele><time>2012-03-25T15:20:44Z</time><cmt>1.6 kmh</cmt></trkpt>
<trkpt lat="58.772974" lon="05.716986"><ele>26</ele><time>2012-03-25T15:20:44Z</time><cmt>1.6 kmh</cmt></trkpt>
<trkpt lat="58.772972" lon="05.716991"><ele>26</ele><time>2012-03-25T15:20:45Z</time><cmt>1.7 kmh</cmt></trkpt>
<trkpt lat="58.772969" lon="05.716997"><ele>26</ele><time>2012-03-25T15:20:46Z</time><cmt>1.7 kmh</cmt></trkpt>
<trkpt lat="58.772966" lon="05.717003"><ele>26</ele><time>2012-03-25T15:20:48Z</time><cmt>1.4 kmh</cmt></trkpt>
<trkpt lat="58.772963" lon="05.717008"><ele>26</ele><time>2012-03-25T15:20:49Z</time><cmt>1.4 kmh</cmt></trkpt>
<trkpt lat="58.772961" lon="05.717014"><ele>26</ele><time>2012-03-25T15:20:50Z</time><cmt>1.7 kmh</cmt></trkpt>
<trkpt lat="58.772958" lon="05.717019"><ele>26</ele><time>2012-03-25T15:20:50Z</time><cmt>1.7 kmh</cmt></trkpt>
<trkpt lat="58.772952" lon="05.717031"><ele>26</ele><time>2012-03-25T15:20:53Z</time><cmt>1.7 kmh</cmt></trkpt>
<trkpt lat="58.772949" lon="05.717037"><ele>26</ele><time>2012-03-25T15:20:54Z</time><cmt>1.6 kmh</cmt></trkpt>
<trkpt lat="58.772946" lon="05.717043"><ele>26</ele><time>2012-03-25T15:20:55Z</time><cmt>1.5 kmh</cmt></trkpt>
<trkpt lat="58.772943" lon="05.717048"><ele>26</ele><time>2012-03-25T15:20:56Z</time><cmt>1.8 kmh</cmt></trkpt>
<trkpt lat="58.772940" lon="05.717054"><ele>26</ele><time>2012-03-25T15:20:56Z</time><cmt>1.7 kmh</cmt></trkpt>
<trkpt lat="58.772938" lon="05.717059"><ele>26</ele><time>2012-03-25T15:20:58Z</time><cmt>1.7 kmh</cmt></trkpt>
<trkpt lat="58.772935" lon="05.717064"><ele>26</ele><time>2012-03-25T15:20:58Z</time><cmt>1.7 kmh</cmt></trkpt>
<trkpt lat="58.772933" lon="05.717069"><ele>26</ele><time>2012-03-25T15:20:59Z</time><cmt>1.6 kmh</cmt></trkpt>
<trkpt lat="58.772931" lon="05.717074"><ele>26</ele><time>2012-03-25T15:21:01Z</time><cmt>1.2 kmh</cmt></trkpt>
<trkpt lat="58.772928" lon="05.717079"><ele>26</ele><time>2012-03-25T15:21:02Z</time><cmt>1.2 kmh</cmt></trkpt>
<trkpt lat="58.772926" lon="05.717085"><ele>26</ele><time>2012-03-25T15:21:03Z</time><cmt>1.6 kmh</cmt></trkpt>
<trkpt lat="58.772923" lon="05.717090"><ele>26</ele><time>2012-03-25T15:21:03Z</time><cmt>1.6 kmh</cmt></trkpt>
<trkpt lat="58.772921" lon="05.717094"><ele>26</ele><time>2012-03-25T15:21:04Z</time><cmt>1.6 kmh</cmt></trkpt>
<trkpt lat="58.772919" lon="05.717099"><ele>26</ele><time>2012-03-25T15:21:05Z</time><cmt>1.5 kmh</cmt></trkpt>
<trkpt lat="58.772916" lon="05.717104"><ele>26</ele><time>2012-03-25T15:21:07Z</time><cmt>1.2 kmh</cmt></trkpt>
<trkpt lat="58.772914" lon="05.717109"><ele>26</ele><time>2012-03-25T15:21:08Z</time><cmt>1.2 kmh</cmt></trkpt>
<trkpt lat="58.772911" lon="05.717115"><ele>26</ele><time>2012-03-25T15:21:09Z</time><cmt>1.5 kmh</cmt></trkpt>
<trkpt lat="58.772909" lon="05.717120"><ele>26</ele><time>2012-03-25T15:21:09Z</time><cmt>1.6 kmh</cmt></trkpt>
<trkpt lat="58.772906" lon="05.717125"><ele>26</ele><time>2012-03-25T15:21:10Z</time><cmt>1.5 kmh</cmt></trkpt>
<trkpt lat="58.772904" lon="05.717130"><ele>26</ele><time>2012-03-25T15:21:11Z</time><cmt>1.5 kmh</cmt></trkpt>
<trkpt lat="58.772901" lon="05.717135"><ele>26</ele><time>2012-03-25T15:21:13Z</time><cmt>1.3 kmh</cmt></trkpt>
<trkpt lat="58.772898" lon="05.717140"><ele>26</ele><time>2012-03-25T15:21:14Z</time><cmt>1.4 kmh</cmt></trkpt>
<trkpt lat="58.772895" lon="05.717145"><ele>26</ele><time>2012-03-25T15:21:15Z</time><cmt>1.7 kmh</cmt></trkpt>
<trkpt lat="58.772893" lon="05.717150"><ele>26</ele><time>2012-03-25T15:21:15Z</time><cmt>1.5 kmh</cmt></trkpt>
<trkpt lat="58.772891" lon="05.717155"><ele>26</ele><time>2012-03-25T15:21:17Z</time><cmt>1.4 kmh</cmt></trkpt>
<trkpt lat="58.772889" lon="05.717161"><ele>26</ele><time>2012-03-25T15:21:17Z</time><cmt>1.4 kmh</cmt></trkpt>
<trkpt lat="58.772886" lon="05.717166"><ele>26</ele><time>2012-03-25T15:21:19Z</time><cmt>1.3 kmh</cmt></trkpt>
<trkpt lat="58.772884" lon="05.717171"><ele>26</ele><time>2012-03-25T15:21:20Z</time><cmt>1.3 kmh</cmt></trkpt>
<trkpt lat="58.772881" lon="05.717175"><ele>26</ele><time>2012-03-25T15:21:21Z</time><cmt>1.5 kmh</cmt></trkpt>
<trkpt lat="58.772877" lon="05.717180"><ele>26</ele><time>2012-03-25T15:21:21Z</time><cmt>1.7 kmh</cmt></trkpt>
<trkpt lat="58.772874" lon="05.717185"><ele>26</ele><time>2012-03-25T15:21:22Z</time><cmt>1.9 kmh</cmt></trkpt>
<trkpt lat="58.772872" lon="05.717190"><ele>27</ele><time>2012-03-25T15:21:23Z</time><cmt>1.6 kmh</cmt></trkpt>
<trkpt lat="58.772870" lon="05.717193"><ele>27</ele><time>2012-03-25T15:21:24Z</time><cmt>1.2 kmh</cmt></trkpt>
<trkpt lat="58.772868" lon="05.717197"><ele>27</ele><time>2012-03-25T15:21:26Z</time><cmt>0.9 kmh</cmt></trkpt>
<trkpt lat="58.772867" lon="05.717202"><ele>27</ele><time>2012-03-25T15:21:27Z</time><cmt>1.0 kmh</cmt></trkpt>
<trkpt lat="58.772865" lon="05.717208"><ele>27</ele><time>2012-03-25T15:21:28Z</time><cmt>1.5 kmh</cmt></trkpt>
<trkpt lat="58.772861" lon="05.717211"><ele>27</ele><time>2012-03-25T15:21:28Z</time><cmt>1.6 kmh</cmt></trkpt>
<trkpt lat="58.772858" lon="05.717213"><ele>27</ele><time>2012-03-25T15:21:29Z</time><cmt>1.4 kmh</cmt></trkpt>
<trkpt lat="58.772856" lon="05.717217"><ele>27</ele><time>2012-03-25T15:21:30Z</time><cmt>1.3 kmh</cmt></trkpt>
<trkpt lat="58.772853" lon="05.717222"><ele>27</ele><time>2012-03-25T15:21:32Z</time><cmt>1.1 kmh</cmt></trkpt>
<trkpt lat="58.772851" lon="05.717227"><ele>27</ele><time>2012-03-25T15:21:33Z</time><cmt>1.3 kmh</cmt></trkpt>
<trkpt lat="58.772848" lon="05.717232"><ele>27</ele><time>2012-03-25T15:21:34Z</time><cmt>1.6 kmh</cmt></trkpt>
<trkpt lat="58.772846" lon="05.717236"><ele>27</ele><time>2012-03-25T15:21:34Z</time><cmt>1.5 kmh</cmt></trkpt>
<trkpt lat="58.772844" lon="05.717241"><ele>27</ele><time>2012-03-25T15:21:35Z</time><cmt>1.3 kmh</cmt></trkpt>
<trkpt lat="58.772841" lon="05.717246"><ele>27</ele><time>2012-03-25T15:21:36Z</time><cmt>1.5 kmh</cmt></trkpt>
<trkpt lat="58.772839" lon="05.717252"><ele>27</ele><time>2012-03-25T15:21:38Z</time><cmt>1.3 kmh</cmt></trkpt>
<trkpt lat="58.772836" lon="05.717257"><ele>27</ele><time>2012-03-25T15:21:39Z</time><cmt>1.3 kmh</cmt></trkpt>
<trkpt lat="58.772835" lon="05.717261"><ele>27</ele><time>2012-03-25T15:21:40Z</time><cmt>1.3 kmh</cmt></trkpt>
<trkpt lat="58.772830" lon="05.717265"><ele>27</ele><time>2012-03-25T15:21:40Z</time><cmt>1.6 kmh</cmt></trkpt>
<trkpt lat="58.772826" lon="05.717269"><ele>27</ele><time>2012-03-25T15:21:41Z</time><cmt>2.2 kmh</cmt></trkpt>
<trkpt lat="58.772822" lon="05.717275"><ele>27</ele><time>2012-03-25T15:21:42Z</time><cmt>2.2 kmh</cmt></trkpt>
<trkpt lat="58.772819" lon="05.717281"><ele>27</ele><time>2012-03-25T15:21:44Z</time><cmt>1.5 kmh</cmt></trkpt>
<trkpt lat="58.772816" lon="05.717286"><ele>27</ele><time>2012-03-25T15:21:45Z</time><cmt>1.4 kmh</cmt></trkpt>
<trkpt lat="58.772813" lon="05.717291"><ele>27</ele><time>2012-03-25T15:21:46Z</time><cmt>1.7 kmh</cmt></trkpt>
<trkpt lat="58.772810" lon="05.717297"><ele>27</ele><time>2012-03-25T15:21:46Z</time><cmt>1.7 kmh</cmt></trkpt>
<trkpt lat="58.772808" lon="05.717302"><ele>27</ele><time>2012-03-25T15:21:47Z</time><cmt>1.6 kmh</cmt></trkpt>
<trkpt lat="58.772805" lon="05.717307"><ele>27</ele><time>2012-03-25T15:21:48Z</time><cmt>1.6 kmh</cmt></trkpt>
<trkpt lat="58.772802" lon="05.717311"><ele>27</ele><time>2012-03-25T15:21:49Z</time><cmt>1.6 kmh</cmt></trkpt>
<trkpt lat="58.772799" lon="05.717314"><ele>27</ele><time>2012-03-25T15:21:51Z</time><cmt>1.2 kmh</cmt></trkpt>
<trkpt lat="58.772796" lon="05.717319"><ele>27</ele><time>2012-03-25T15:21:52Z</time><cmt>1.3 kmh</cmt></trkpt>
<trkpt lat="58.772792" lon="05.717324"><ele>27</ele><time>2012-03-25T15:21:53Z</time><cmt>2.0 kmh</cmt></trkpt>
<trkpt lat="58.772789" lon="05.717329"><ele>27</ele><time>2012-03-25T15:21:53Z</time><cmt>1.9 kmh</cmt></trkpt>
<trkpt lat="58.772786" lon="05.717334"><ele>27</ele><time>2012-03-25T15:21:54Z</time><cmt>1.8 kmh</cmt></trkpt>
<trkpt lat="58.772782" lon="05.717339"><ele>27</ele><time>2012-03-25T15:21:55Z</time><cmt>1.7 kmh</cmt></trkpt>
<trkpt lat="58.772779" lon="05.717344"><ele>27</ele><time>2012-03-25T15:21:57Z</time><cmt>1.4 kmh</cmt></trkpt>
<trkpt lat="58.772776" lon="05.717349"><ele>26</ele><time>2012-03-25T15:21:58Z</time><cmt>1.4 kmh</cmt></trkpt>
<trkpt lat="58.772774" lon="05.717353"><ele>26</ele><time>2012-03-25T15:21:59Z</time><cmt>1.4 kmh</cmt></trkpt>
<trkpt lat="58.772771" lon="05.717359"><ele>26</ele><time>2012-03-25T15:21:59Z</time><cmt>1.5 kmh</cmt></trkpt>
<trkpt lat="58.772769" lon="05.717364"><ele>26</ele><time>2012-03-25T15:22:00Z</time><cmt>1.8 kmh</cmt></trkpt>
<trkpt lat="58.772767" lon="05.717369"><ele>26</ele><time>2012-03-25T15:22:01Z</time><cmt>1.6 kmh</cmt></trkpt>
<trkpt lat="58.772765" lon="05.717374"><ele>26</ele><time>2012-03-25T15:22:03Z</time><cmt>1.1 kmh</cmt></trkpt>
<trkpt lat="58.772762" lon="05.717378"><ele>26</ele><time>2012-03-25T15:22:04Z</time><cmt>1.1 kmh</cmt></trkpt>
<trkpt lat="58.772759" lon="05.717382"><ele>26</ele><time>2012-03-25T15:22:05Z</time><cmt>1.5 kmh</cmt></trkpt>
<trkpt lat="58.772757" lon="05.717386"><ele>26</ele><time>2012-03-25T15:22:05Z</time><cmt>1.5 kmh</cmt></trkpt>
<trkpt lat="58.772754" lon="05.717390"><ele>26</ele><time>2012-03-25T15:22:06Z</time><cmt>1.4 kmh</cmt></trkpt>
<trkpt lat="58.772752" lon="05.717395"><ele>26</ele><time>2012-03-25T15:22:07Z</time><cmt>1.4 kmh</cmt></trkpt>
<trkpt lat="58.772749" lon="05.717399"><ele>27</ele><time>2012-03-25T15:22:09Z</time><cmt>1.2 kmh</cmt></trkpt>
<trkpt lat="58.772746" lon="05.717404"><ele>27</ele><time>2012-03-25T15:22:10Z</time><cmt>1.3 kmh</cmt></trkpt>
<trkpt lat="58.772743" lon="05.717408"><ele>27</ele><time>2012-03-25T15:22:11Z</time><cmt>1.6 kmh</cmt></trkpt>
<trkpt lat="58.772739" lon="05.717414"><ele>27</ele><time>2012-03-25T15:22:11Z</time><cmt>1.8 kmh</cmt></trkpt>
<trkpt lat="58.772733" lon="05.717421"><ele>27</ele><time>2012-03-25T15:22:12Z</time><cmt>2.5 kmh</cmt></trkpt>
<trkpt lat="58.772725" lon="05.717428"><ele>27</ele><time>2012-03-25T15:22:13Z</time><cmt>3.5 kmh</cmt></trkpt>
<trkpt lat="58.772715" lon="05.717435"><ele>27</ele><time>2012-03-25T15:22:14Z</time><cmt>4.2 kmh</cmt></trkpt>
<trkpt lat="58.772704" lon="05.717439"><ele>27</ele><time>2012-03-25T15:22:16Z</time><cmt>3.8 kmh</cmt></trkpt>
<trkpt lat="58.772692" lon="05.717442"><ele>27</ele><time>2012-03-25T15:22:17Z</time><cmt>5.3 kmh</cmt></trkpt>
<trkpt lat="58.772678" lon="05.717444"><ele>27</ele><time>2012-03-25T15:22:18Z</time><cmt>5.5 kmh</cmt></trkpt>
<trkpt lat="58.772665" lon="05.717442"><ele>27</ele><time>2012-03-25T15:22:18Z</time><cmt>5.4 kmh</cmt></trkpt>
<trkpt lat="58.772652" lon="05.717437"><ele>27</ele><time>2012-03-25T15:22:19Z</time><cmt>5.7 kmh</cmt></trkpt>
<trkpt lat="58.772639" lon="05.717429"><ele>27</ele><time>2012-03-25T15:22:20Z</time><cmt>5.6 kmh</cmt></trkpt>
<trkpt lat="58.772626" lon="05.717418"><ele>27</ele><time>2012-03-25T15:22:22Z</time><cmt>5.6 kmh</cmt></trkpt>
<trkpt lat="58.772613" lon="05.717404"><ele>26</ele><time>2012-03-25T15:22:23Z</time><cmt>6.0 kmh</cmt></trkpt>
<trkpt lat="58.772600" lon="05.717389"><ele>26</ele><time>2012-03-25T15:22:24Z</time><cmt>5.9 kmh</cmt></trkpt>
<trkpt lat="58.772589" lon="05.717371"><ele>26</ele><time>2012-03-25T15:22:24Z</time><cmt>6.0 kmh</cmt></trkpt>
<trkpt lat="58.772577" lon="05.717351"><ele>26</ele><time>2012-03-25T15:22:25Z</time><cmt>6.0 kmh</cmt></trkpt>
<trkpt lat="58.772567" lon="05.717329"><ele>26</ele><time>2012-03-25T15:22:26Z</time><cmt>6.3 kmh</cmt></trkpt>
<trkpt lat="58.772557" lon="05.717304"><ele>26</ele><time>2012-03-25T15:22:28Z</time><cmt>6.4 kmh</cmt></trkpt>
<trkpt lat="58.772546" lon="05.717278"><ele>26</ele><time>2012-03-25T15:22:29Z</time><cmt>6.8 kmh</cmt></trkpt>
<trkpt lat="58.772536" lon="05.717251"><ele>26</ele><time>2012-03-25T15:22:30Z</time><cmt>6.9 kmh</cmt></trkpt>
<trkpt lat="58.772526" lon="05.717222"><ele>26</ele><time>2012-03-25T15:22:30Z</time><cmt>7.2 kmh</cmt></trkpt>
<trkpt lat="58.772516" lon="05.717192"><ele>26</ele><time>2012-03-25T15:22:31Z</time><cmt>6.9 kmh</cmt></trkpt>
<trkpt lat="58.772506" lon="05.717163"><ele>26</ele><time>2012-03-25T15:22:32Z</time><cmt>7.2 kmh</cmt></trkpt>
<trkpt lat="58.772497" lon="05.717132"><ele>26</ele><time>2012-03-25T15:22:34Z</time><cmt>7.2 kmh</cmt></trkpt>
<trkpt lat="58.772487" lon="05.717102"><ele>26</ele><time>2012-03-25T15:22:35Z</time><cmt>7.3 kmh</cmt></trkpt>
<trkpt lat="58.772477" lon="05.717073"><ele>26</ele><time>2012-03-25T15:22:36Z</time><cmt>7.1 kmh</cmt></trkpt>
<trkpt lat="58.772466" lon="05.717045"><ele>26</ele><time>2012-03-25T15:22:36Z</time><cmt>7.0 kmh</cmt></trkpt>
<trkpt lat="58.772456" lon="05.717017"><ele>26</ele><time>2012-03-25T15:22:37Z</time><cmt>6.9 kmh</cmt></trkpt>
<trkpt lat="58.772446" lon="05.716989"><ele>26</ele><time>2012-03-25T15:22:38Z</time><cmt>7.2 kmh</cmt></trkpt>
<trkpt lat="58.772436" lon="05.716961"><ele>26</ele><time>2012-03-25T15:22:40Z</time><cmt>7.0 kmh</cmt></trkpt>
<trkpt lat="58.772426" lon="05.716933"><ele>26</ele><time>2012-03-25T15:22:41Z</time><cmt>7.1 kmh</cmt></trkpt>
<trkpt lat="58.772416" lon="05.716905"><ele>26</ele><time>2012-03-25T15:22:42Z</time><cmt>7.0 kmh</cmt></trkpt>
<trkpt lat="58.772405" lon="05.716877"><ele>26</ele><time>2012-03-25T15:22:42Z</time><cmt>7.1 kmh</cmt></trkpt>
<trkpt lat="58.772395" lon="05.716849"><ele>26</ele><time>2012-03-25T15:22:43Z</time><cmt>7.1 kmh</cmt></trkpt>
<trkpt lat="58.772384" lon="05.716821"><ele>26</ele><time>2012-03-25T15:22:44Z</time><cmt>7.0 kmh</cmt></trkpt>
<trkpt lat="58.772374" lon="05.716794"><ele>26</ele><time>2012-03-25T15:22:45Z</time><cmt>6.9 kmh</cmt></trkpt>
<trkpt lat="58.772363" lon="05.716766"><ele>26</ele><time>2012-03-25T15:22:47Z</time><cmt>7.0 kmh</cmt></trkpt>
<trkpt lat="58.772353" lon="05.716738"><ele>26</ele><time>2012-03-25T15:22:48Z</time><cmt>7.0 kmh</cmt></trkpt>
<trkpt lat="58.772343" lon="05.716710"><ele>26</ele><time>2012-03-25T15:22:49Z</time><cmt>7.0 kmh</cmt></trkpt>
<trkpt lat="58.772333" lon="05.716682"><ele>25</ele><time>2012-03-25T15:22:49Z</time><cmt>7.1 kmh</cmt></trkpt>
<trkpt lat="58.772323" lon="05.716653"><ele>25</ele><time>2012-03-25T15:22:50Z</time><cmt>6.8 kmh</cmt></trkpt>
<trkpt lat="58.772313" lon="05.716625"><ele>25</ele><time>2012-03-25T15:22:51Z</time><cmt>7.1 kmh</cmt></trkpt>
<trkpt lat="58.772303" lon="05.716596"><ele>25</ele><time>2012-03-25T15:22:53Z</time><cmt>6.9 kmh</cmt></trkpt>
<trkpt lat="58.772294" lon="05.716568"><ele>25</ele><time>2012-03-25T15:22:54Z</time><cmt>7.1 kmh</cmt></trkpt>
<trkpt lat="58.772284" lon="05.716540"><ele>25</ele><time>2012-03-25T15:22:55Z</time><cmt>6.8 kmh</cmt></trkpt>
<trkpt lat="58.772274" lon="05.716512"><ele>25</ele><time>2012-03-25T15:22:55Z</time><cmt>7.2 kmh</cmt></trkpt>
<trkpt lat="58.772264" lon="05.716484"><ele>25</ele><time>2012-03-25T15:22:56Z</time><cmt>7.0 kmh</cmt></trkpt>
<trkpt lat="58.772254" lon="05.716455"><ele>25</ele><time>2012-03-25T15:22:57Z</time><cmt>7.1 kmh</cmt></trkpt>
<trkpt lat="58.772244" lon="05.716425"><ele>25</ele><time>2012-03-25T15:22:59Z</time><cmt>7.2 kmh</cmt></trkpt>
<trkpt lat="58.772234" lon="05.716396"><ele>25</ele><time>2012-03-25T15:23:00Z</time><cmt>7.2 kmh</cmt></trkpt>
<trkpt lat="58.772223" lon="05.716367"><ele>25</ele><time>2012-03-25T15:23:01Z</time><cmt>7.3 kmh</cmt></trkpt>
<trkpt lat="58.772213" lon="05.716337"><ele>25</ele><time>2012-03-25T15:23:01Z</time><cmt>7.2 kmh</cmt></trkpt>
<trkpt lat="58.772202" lon="05.716309"><ele>25</ele><time>2012-03-25T15:23:02Z</time><cmt>7.1 kmh</cmt></trkpt>
<trkpt lat="58.772191" lon="05.716281"><ele>25</ele><time>2012-03-25T15:23:03Z</time><cmt>7.1 kmh</cmt></trkpt>
<trkpt lat="58.772180" lon="05.716254"><ele>25</ele><time>2012-03-25T15:23:05Z</time><cmt>7.2 kmh</cmt></trkpt>
<trkpt lat="58.772170" lon="05.716226"><ele>25</ele><time>2012-03-25T15:23:06Z</time><cmt>7.1 kmh</cmt></trkpt>
<trkpt lat="58.772159" lon="05.716198"><ele>25</ele><time>2012-03-25T15:23:07Z</time><cmt>7.2 kmh</cmt></trkpt>
<trkpt lat="58.772148" lon="05.716169"><ele>25</ele><time>2012-03-25T15:23:07Z</time><cmt>7.2 kmh</cmt></trkpt>
<trkpt lat="58.772138" lon="05.716139"><ele>25</ele><time>2012-03-25T15:23:08Z</time><cmt>7.2 kmh</cmt></trkpt>
<trkpt lat="58.772128" lon="05.716109"><ele>25</ele><time>2012-03-25T15:23:09Z</time><cmt>7.5 kmh</cmt></trkpt>
<trkpt lat="58.772118" lon="05.716079"><ele>25</ele><time>2012-03-25T15:23:11Z</time><cmt>7.3 kmh</cmt></trkpt>
<trkpt lat="58.772107" lon="05.716050"><ele>25</ele><time>2012-03-25T15:23:12Z</time><cmt>7.3 kmh</cmt></trkpt>
<trkpt lat="58.772097" lon="05.716020"><ele>25</ele><time>2012-03-25T15:23:13Z</time><cmt>7.4 kmh</cmt></trkpt>
<trkpt lat="58.772086" lon="05.715991"><ele>25</ele><time>2012-03-25T15:23:13Z</time><cmt>7.2 kmh</cmt></trkpt>
<trkpt lat="58.772076" lon="05.715962"><ele>25</ele><time>2012-03-25T15:23:14Z</time><cmt>7.3 kmh</cmt></trkpt>
<trkpt lat="58.772066" lon="05.715932"><ele>25</ele><time>2012-03-25T15:23:15Z</time><cmt>7.1 kmh</cmt></trkpt>
<trkpt lat="58.772057" lon="05.715903"><ele>25</ele><time>2012-03-25T15:23:16Z</time><cmt>7.2 kmh</cmt></trkpt>
<trkpt lat="58.772049" lon="05.715872"><ele>25</ele><time>2012-03-25T15:23:18Z</time><cmt>7.2 kmh</cmt></trkpt>
<trkpt lat="58.772041" lon="05.715841"><ele>25</ele><time>2012-03-25T15:23:19Z</time><cmt>7.0 kmh</cmt></trkpt>
<trkpt lat="58.772033" lon="05.715810"><ele>25</ele><time>2012-03-25T15:23:20Z</time><cmt>7.1 kmh</cmt></trkpt>
<trkpt lat="58.772027" lon="05.715778"><ele>25</ele><time>2012-03-25T15:23:20Z</time><cmt>7.3 kmh</cmt></trkpt>
<trkpt lat="58.772020" lon="05.715745"><ele>25</ele><time>2012-03-25T15:23:21Z</time><cmt>7.3 kmh</cmt></trkpt>
<trkpt lat="58.772014" lon="05.715712"><ele>25</ele><time>2012-03-25T15:23:22Z</time><cmt>7.0 kmh</cmt></trkpt>
<trkpt lat="58.772008" lon="05.715680"><ele>25</ele><time>2012-03-25T15:23:24Z</time><cmt>7.3 kmh</cmt></trkpt>
<trkpt lat="58.772002" lon="05.715646"><ele>25</ele><time>2012-03-25T15:23:25Z</time><cmt>7.2 kmh</cmt></trkpt>
<trkpt lat="58.771996" lon="05.715612"><ele>25</ele><time>2012-03-25T15:23:26Z</time><cmt>7.4 kmh</cmt></trkpt>
<trkpt lat="58.771990" lon="05.715578"><ele>25</ele><time>2012-03-25T15:23:26Z</time><cmt>7.5 kmh</cmt></trkpt>
<trkpt lat="58.771984" lon="05.715543"><ele>25</ele><time>2012-03-25T15:23:27Z</time><cmt>7.6 kmh</cmt></trkpt>
<trkpt lat="58.771978" lon="05.715508"><ele>25</ele><time>2012-03-25T15:23:28Z</time><cmt>7.5 kmh</cmt></trkpt>
<trkpt lat="58.771972" lon="05.715473"><ele>25</ele><time>2012-03-25T15:23:30Z</time><cmt>7.3 kmh</cmt></trkpt>
<trkpt lat="58.771965" lon="05.715440"><ele>25</ele><time>2012-03-25T15:23:31Z</time><cmt>7.1 kmh</cmt></trkpt>
<trkpt lat="58.771959" lon="05.715407"><ele>25</ele><time>2012-03-25T15:23:32Z</time><cmt>7.1 kmh</cmt></trkpt>
<trkpt lat="58.771954" lon="05.715374"><ele>25</ele><time>2012-03-25T15:23:32Z</time><cmt>7.2 kmh</cmt></trkpt>
<trkpt lat="58.771949" lon="05.715339"><ele>25</ele><time>2012-03-25T15:23:33Z</time><cmt>7.3 kmh</cmt></trkpt>
<trkpt lat="58.771944" lon="05.715306"><ele>25</ele><time>2012-03-25T15:23:34Z</time><cmt>7.1 kmh</cmt></trkpt>
<trkpt lat="58.771940" lon="05.715272"><ele>25</ele><time>2012-03-25T15:23:36Z</time><cmt>7.2 kmh</cmt></trkpt>
<trkpt lat="58.771935" lon="05.715239"><ele>25</ele><time>2012-03-25T15:23:37Z</time><cmt>6.8 kmh</cmt></trkpt>
<trkpt lat="58.771932" lon="05.715205"><ele>25</ele><time>2012-03-25T15:23:38Z</time><cmt>7.1 kmh</cmt></trkpt>
<trkpt lat="58.771928" lon="05.715172"><ele>25</ele><time>2012-03-25T15:23:38Z</time><cmt>6.9 kmh</cmt></trkpt>
<trkpt lat="58.771926" lon="05.715138"><ele>25</ele><time>2012-03-25T15:23:39Z</time><cmt>7.1 kmh</cmt></trkpt>
<trkpt lat="58.771924" lon="05.715104"><ele>25</ele><time>2012-03-25T15:23:40Z</time><cmt>7.0 kmh</cmt></trkpt>
<trkpt lat="58.771921" lon="05.715070"><ele>25</ele><time>2012-03-25T15:23:42Z</time><cmt>7.1 kmh</cmt></trkpt>
<trkpt lat="58.771919" lon="05.715035"><ele>25</ele><time>2012-03-25T15:23:43Z</time><cmt>7.1 kmh</cmt></trkpt>
<trkpt lat="58.771917" lon="05.715001"><ele>25</ele><time>2012-03-25T15:23:44Z</time><cmt>7.3 kmh</cmt></trkpt>
<trkpt lat="58.771915" lon="05.714966"><ele>25</ele><time>2012-03-25T15:23:44Z</time><cmt>7.1 kmh</cmt></trkpt>
<trkpt lat="58.771914" lon="05.714931"><ele>25</ele><time>2012-03-25T15:23:45Z</time><cmt>7.1 kmh</cmt></trkpt>
<trkpt lat="58.771913" lon="05.714897"><ele>24</ele><time>2012-03-25T15:23:46Z</time><cmt>6.9 kmh</cmt></trkpt>
<trkpt lat="58.771912" lon="05.714863"><ele>24</ele><time>2012-03-25T15:23:47Z</time><cmt>6.9 kmh</cmt></trkpt>
<trkpt lat="58.771911" lon="05.714829"><ele>24</ele><time>2012-03-25T15:23:49Z</time><cmt>6.8 kmh</cmt></trkpt>
<trkpt lat="58.771911" lon="05.714795"><ele>24</ele><time>2012-03-25T15:23:50Z</time><cmt>6.9 kmh</cmt></trkpt>
<trkpt lat="58.771910" lon="05.714761"><ele>24</ele><time>2012-03-25T15:23:51Z</time><cmt>6.8 kmh</cmt></trkpt>
<trkpt lat="58.771910" lon="05.714728"><ele>24</ele><time>2012-03-25T15:23:51Z</time><cmt>6.8 kmh</cmt></trkpt>
<trkpt lat="58.771910" lon="05.714695"><ele>24</ele><time>2012-03-25T15:23:52Z</time><cmt>6.8 kmh</cmt></trkpt>
<trkpt lat="58.771910" lon="05.714661"><ele>24</ele><time>2012-03-25T15:23:53Z</time><cmt>7.0 kmh</cmt></trkpt>
<trkpt lat="58.771911" lon="05.714627"><ele>24</ele><time>2012-03-25T15:23:55Z</time><cmt>7.1 kmh</cmt></trkpt>
<trkpt lat="58.771912" lon="05.714591"><ele>24</ele><time>2012-03-25T15:23:56Z</time><cmt>7.4 kmh</cmt></trkpt>
<trkpt lat="58.771913" lon="05.714555"><ele>24</ele><time>2012-03-25T15:23:57Z</time><cmt>7.2 kmh</cmt></trkpt>
<trkpt lat="58.771915" lon="05.714519"><ele>24</ele><time>2012-03-25T15:23:57Z</time><cmt>7.1 kmh</cmt></trkpt>
<trkpt lat="58.771916" lon="05.714484"><ele>24</ele><time>2012-03-25T15:23:58Z</time><cmt>7.1 kmh</cmt></trkpt>
<trkpt lat="58.771918" lon="05.714449"><ele>24</ele><time>2012-03-25T15:23:59Z</time><cmt>6.8 kmh</cmt></trkpt>
<trkpt lat="58.771920" lon="05.714415"><ele>24</ele><time>2012-03-25T15:24:01Z</time><cmt>6.9 kmh</cmt></trkpt>
<trkpt lat="58.771921" lon="05.714382"><ele>24</ele><time>2012-03-25T15:24:02Z</time><cmt>6.6 kmh</cmt></trkpt>
<trkpt lat="58.771924" lon="05.714348"><ele>24</ele><time>2012-03-25T15:24:03Z</time><cmt>6.6 kmh</cmt></trkpt>
<trkpt lat="58.771927" lon="05.714315"><ele>24</ele><time>2012-03-25T15:24:03Z</time><cmt>6.9 kmh</cmt></trkpt>
<trkpt lat="58.771931" lon="05.714281"><ele>24</ele><time>2012-03-25T15:24:04Z</time><cmt>6.7 kmh</cmt></trkpt>
<trkpt lat="58.771935" lon="05.714247"><ele>24</ele><time>2012-03-25T15:24:05Z</time><cmt>6.9 kmh</cmt></trkpt>
<trkpt lat="58.771939" lon="05.714213"><ele>24</ele><time>2012-03-25T15:24:07Z</time><cmt>6.8 kmh</cmt></trkpt>
<trkpt lat="58.771943" lon="05.714180"><ele>24</ele><time>2012-03-25T15:24:08Z</time><cmt>6.7 kmh</cmt></trkpt>
<trkpt lat="58.771947" lon="05.714147"><ele>24</ele><time>2012-03-25T15:24:09Z</time><cmt>6.6 kmh</cmt></trkpt>
<trkpt lat="58.771952" lon="05.714114"><ele>24</ele><time>2012-03-25T15:24:09Z</time><cmt>6.6 kmh</cmt></trkpt>
<trkpt lat="58.771956" lon="05.714082"><ele>24</ele><time>2012-03-25T15:24:10Z</time><cmt>6.6 kmh</cmt></trkpt>
<trkpt lat="58.771960" lon="05.714050"><ele>24</ele><time>2012-03-25T15:24:11Z</time><cmt>6.1 kmh</cmt></trkpt>
<trkpt lat="58.771964" lon="05.714017"><ele>24</ele><time>2012-03-25T15:24:13Z</time><cmt>6.7 kmh</cmt></trkpt>
<trkpt lat="58.771969" lon="05.713985"><ele>24</ele><time>2012-03-25T15:24:14Z</time><cmt>6.1 kmh</cmt></trkpt>
<trkpt lat="58.771974" lon="05.713954"><ele>24</ele><time>2012-03-25T15:24:15Z</time><cmt>6.4 kmh</cmt></trkpt>
<trkpt lat="58.771978" lon="05.713923"><ele>24</ele><time>2012-03-25T15:24:15Z</time><cmt>6.3 kmh</cmt></trkpt>
<trkpt lat="58.771984" lon="05.713893"><ele>24</ele><time>2012-03-25T15:24:16Z</time><cmt>6.4 kmh</cmt></trkpt>
<trkpt lat="58.771990" lon="05.713863"><ele>24</ele><time>2012-03-25T15:24:17Z</time><cmt>6.1 kmh</cmt></trkpt>
<trkpt lat="58.771995" lon="05.713833"><ele>24</ele><time>2012-03-25T15:24:18Z</time><cmt>6.2 kmh</cmt></trkpt>
<trkpt lat="58.772000" lon="05.713804"><ele>25</ele><time>2012-03-25T15:24:20Z</time><cmt>6.1 kmh</cmt></trkpt>
<trkpt lat="58.772005" lon="05.713774"><ele>25</ele><time>2012-03-25T15:24:21Z</time><cmt>6.2 kmh</cmt></trkpt>
<trkpt lat="58.772010" lon="05.713744"><ele>25</ele><time>2012-03-25T15:24:22Z</time><cmt>6.2 kmh</cmt></trkpt>
<trkpt lat="58.772015" lon="05.713715"><ele>25</ele><time>2012-03-25T15:24:22Z</time><cmt>6.2 kmh</cmt></trkpt>
<trkpt lat="58.772021" lon="05.713686"><ele>25</ele><time>2012-03-25T15:24:23Z</time><cmt>5.8 kmh</cmt></trkpt>
<trkpt lat="58.772026" lon="05.713659"><ele>25</ele><time>2012-03-25T15:24:24Z</time><cmt>5.3 kmh</cmt></trkpt>
<trkpt lat="58.772032" lon="05.713635"><ele>25</ele><time>2012-03-25T15:24:26Z</time><cmt>5.3 kmh</cmt></trkpt>
<trkpt lat="58.772037" lon="05.713612"><ele>25</ele><time>2012-03-25T15:24:27Z</time><cmt>4.6 kmh</cmt></trkpt>
<trkpt lat="58.772043" lon="05.713592"><ele>25</ele><time>2012-03-25T15:24:28Z</time><cmt>5.0 kmh</cmt></trkpt>
<trkpt lat="58.772049" lon="05.713573"><ele>25</ele><time>2012-03-25T15:24:28Z</time><cmt>5.0 kmh</cmt></trkpt>
<trkpt lat="58.772054" lon="05.713555"><ele>26</ele><time>2012-03-25T15:24:29Z</time><cmt>4.8 kmh</cmt></trkpt>
<trkpt lat="58.772060" lon="05.713540"><ele>26</ele><time>2012-03-25T15:24:30Z</time><cmt>4.4 kmh</cmt></trkpt>
<trkpt lat="58.772064" lon="05.713526"><ele>26</ele><time>2012-03-25T15:24:32Z</time><cmt>3.1 kmh</cmt></trkpt>
<trkpt lat="58.772069" lon="05.713515"><ele>26</ele><time>2012-03-25T15:24:33Z</time><cmt>2.7 kmh</cmt></trkpt>
<trkpt lat="58.772072" lon="05.713506"><ele>26</ele><time>2012-03-25T15:24:34Z</time><cmt>2.8 kmh</cmt></trkpt>
<trkpt lat="58.772076" lon="05.713500"><ele>26</ele><time>2012-03-25T15:24:34Z</time><cmt>2.3 kmh</cmt></trkpt>
<trkpt lat="58.772079" lon="05.713494"><ele>26</ele><time>2012-03-25T15:24:35Z</time><cmt>2.0 kmh</cmt></trkpt>
<trkpt lat="58.772084" lon="05.713487"><ele>26</ele><time>2012-03-25T15:24:36Z</time><cmt>2.3 kmh</cmt></trkpt>
<trkpt lat="58.772088" lon="05.713481"><ele>26</ele><time>2012-03-25T15:24:38Z</time><cmt>2.0 kmh</cmt></trkpt>
<trkpt lat="58.772093" lon="05.713478"><ele>26</ele><time>2012-03-25T15:24:39Z</time><cmt>1.8 kmh</cmt></trkpt>
<trkpt lat="58.772096" lon="05.713475"><ele>26</ele><time>2012-03-25T15:24:40Z</time><cmt>1.8 kmh</cmt></trkpt>
<trkpt lat="58.772100" lon="05.713473"><ele>26</ele><time>2012-03-25T15:24:40Z</time><cmt>1.7 kmh</cmt></trkpt>
<trkpt lat="58.772106" lon="05.713468"><ele>26</ele><time>2012-03-25T15:24:41Z</time><cmt>2.1 kmh</cmt></trkpt>
<trkpt lat="58.772112" lon="05.713465"><ele>26</ele><time>2012-03-25T15:24:42Z</time><cmt>2.8 kmh</cmt></trkpt>
<trkpt lat="58.772119" lon="05.713463"><ele>26</ele><time>2012-03-25T15:24:44Z</time><cmt>2.4 kmh</cmt></trkpt>
<trkpt lat="58.772125" lon="05.713460"><ele>26</ele><time>2012-03-25T15:24:45Z</time><cmt>2.2 kmh</cmt></trkpt>
<trkpt lat="58.772130" lon="05.713458"><ele>26</ele><time>2012-03-25T15:24:46Z</time><cmt>2.4 kmh</cmt></trkpt>
<trkpt lat="58.772136" lon="05.713456"><ele>26</ele><time>2012-03-25T15:24:46Z</time><cmt>2.4 kmh</cmt></trkpt>
<trkpt lat="58.772142" lon="05.713453"><ele>26</ele><time>2012-03-25T15:24:47Z</time><cmt>2.6 kmh</cmt></trkpt>
<trkpt lat="58.772148" lon="05.713449"><ele>26</ele><time>2012-03-25T15:24:48Z</time><cmt>2.7 kmh</cmt></trkpt>
<trkpt lat="58.772155" lon="05.713445"><ele>26</ele><time>2012-03-25T15:24:49Z</time><cmt>2.9 kmh</cmt></trkpt>
<trkpt lat="58.772160" lon="05.713444"><ele>26</ele><time>2012-03-25T15:24:51Z</time><cmt>2.1 kmh</cmt></trkpt>
<trkpt lat="58.772166" lon="05.713443"><ele>26</ele><time>2012-03-25T15:24:52Z</time><cmt>1.9 kmh</cmt></trkpt>
<trkpt lat="58.772173" lon="05.713442"><ele>26</ele><time>2012-03-25T15:24:53Z</time><cmt>2.8 kmh</cmt></trkpt>
<trkpt lat="58.772181" lon="05.713442"><ele>26</ele><time>2012-03-25T15:24:53Z</time><cmt>3.2 kmh</cmt></trkpt>
<trkpt lat="58.772189" lon="05.713441"><ele>26</ele><time>2012-03-25T15:24:54Z</time><cmt>3.4 kmh</cmt></trkpt>
<trkpt lat="58.772200" lon="05.713438"><ele>26</ele><time>2012-03-25T15:24:55Z</time><cmt>4.2 kmh</cmt></trkpt>
<trkpt lat="58.772209" lon="05.713436"><ele>26</ele><time>2012-03-25T15:24:57Z</time><cmt>3.6 kmh</cmt></trkpt>
<trkpt lat="58.772218" lon="05.713434"><ele>26</ele><time>2012-03-25T15:24:58Z</time><cmt>3.1 kmh</cmt></trkpt>
<trkpt lat="58.772226" lon="05.713433"><ele>26</ele><time>2012-03-25T15:24:59Z</time><cmt>3.5 kmh</cmt></trkpt>
<trkpt lat="58.772232" lon="05.713432"><ele>26</ele><time>2012-03-25T15:24:59Z</time><cmt>3.2 kmh</cmt></trkpt>
<trkpt lat="58.772239" lon="05.713431"><ele>26</ele><time>2012-03-25T15:25:00Z</time><cmt>2.8 kmh</cmt></trkpt>
<trkpt lat="58.772244" lon="05.713432"><ele>27</ele><time>2012-03-25T15:25:01Z</time><cmt>2.5 kmh</cmt></trkpt>
<trkpt lat="58.772249" lon="05.713432"><ele>27</ele><time>2012-03-25T15:25:03Z</time><cmt>1.7 kmh</cmt></trkpt>
<trkpt lat="58.772254" lon="05.713433"><ele>27</ele><time>2012-03-25T15:25:04Z</time><cmt>1.7 kmh</cmt></trkpt>
<trkpt lat="58.772262" lon="05.713431"><ele>27</ele><time>2012-03-25T15:25:05Z</time><cmt>2.8 kmh</cmt></trkpt>
<trkpt lat="58.772271" lon="05.713428"><ele>27</ele><time>2012-03-25T15:25:05Z</time><cmt>3.7 kmh</cmt></trkpt>
<trkpt lat="58.772280" lon="05.713426"><ele>27</ele><time>2012-03-25T15:25:06Z</time><cmt>4.0 kmh</cmt></trkpt>
<trkpt lat="58.772289" lon="05.713424"><ele>27</ele><time>2012-03-25T15:25:07Z</time><cmt>4.0 kmh</cmt></trkpt>
<trkpt lat="58.772297" lon="05.713423"><ele>27</ele><time>2012-03-25T15:25:09Z</time><cmt>3.0 kmh</cmt></trkpt>
<trkpt lat="58.772306" lon="05.713423"><ele>27</ele><time>2012-03-25T15:25:10Z</time><cmt>3.0 kmh</cmt></trkpt>
<trkpt lat="58.772315" lon="05.713422"><ele>27</ele><time>2012-03-25T15:25:11Z</time><cmt>3.8 kmh</cmt></trkpt>
<trkpt lat="58.772324" lon="05.713422"><ele>28</ele><time>2012-03-25T15:25:11Z</time><cmt>3.8 kmh</cmt></trkpt>
<trkpt lat="58.772332" lon="05.713422"><ele>28</ele><time>2012-03-25T15:25:12Z</time><cmt>3.6 kmh</cmt></trkpt>
<trkpt lat="58.772341" lon="05.713423"><ele>28</ele><time>2012-03-25T15:25:13Z</time><cmt>3.6 kmh</cmt></trkpt>
<trkpt lat="58.772348" lon="05.713424"><ele>28</ele><time>2012-03-25T15:25:15Z</time><cmt>2.8 kmh</cmt></trkpt>
<trkpt lat="58.772357" lon="05.713424"><ele>28</ele><time>2012-03-25T15:25:16Z</time><cmt>2.9 kmh</cmt></trkpt>
<trkpt lat="58.772366" lon="05.713424"><ele>28</ele><time>2012-03-25T15:25:17Z</time><cmt>3.8 kmh</cmt></trkpt>
<trkpt lat="58.772375" lon="05.713424"><ele>29</ele><time>2012-03-25T15:25:17Z</time><cmt>3.8 kmh</cmt></trkpt>
<trkpt lat="58.772380" lon="05.713426"><ele>29</ele><time>2012-03-25T15:25:18Z</time><cmt>3.2 kmh</cmt></trkpt>
<trkpt lat="58.772384" lon="05.713427"><ele>29</ele><time>2012-03-25T15:25:19Z</time><cmt>2.1 kmh</cmt></trkpt>
<trkpt lat="58.772389" lon="05.713428"><ele>30</ele><time>2012-03-25T15:25:21Z</time><cmt>1.5 kmh</cmt></trkpt>
<trkpt lat="58.772392" lon="05.713429"><ele>30</ele><time>2012-03-25T15:25:22Z</time><cmt>1.4 kmh</cmt></trkpt>
<trkpt lat="58.772395" lon="05.713430"><ele>30</ele><time>2012-03-25T15:25:23Z</time><cmt>1.3 kmh</cmt></trkpt>
<trkpt lat="58.772397" lon="05.713430"><ele>31</ele><time>2012-03-25T15:25:23Z</time><cmt>1.0 kmh</cmt></trkpt>
<trkpt lat="58.772399" lon="05.713430"><ele>31</ele><time>2012-03-25T15:25:24Z</time><cmt>0.9 kmh</cmt></trkpt>
<trkpt lat="58.772402" lon="05.713432"><ele>31</ele><time>2012-03-25T15:25:25Z</time><cmt>1.1 kmh</cmt></trkpt>
<trkpt lat="58.772406" lon="05.713435"><ele>32</ele><time>2012-03-25T15:25:26Z</time><cmt>1.6 kmh</cmt></trkpt>
<trkpt lat="58.772410" lon="05.713439"><ele>32</ele><time>2012-03-25T15:25:28Z</time><cmt>1.5 kmh</cmt></trkpt>
<trkpt lat="58.772415" lon="05.713442"><ele>33</ele><time>2012-03-25T15:25:29Z</time><cmt>1.6 kmh</cmt></trkpt>
<trkpt lat="58.772419" lon="05.713445"><ele>33</ele><time>2012-03-25T15:25:30Z</time><cmt>2.1 kmh</cmt></trkpt>
<trkpt lat="58.772423" lon="05.713449"><ele>33</ele><time>2012-03-25T15:25:30Z</time><cmt>2.0 kmh</cmt></trkpt>
<trkpt lat="58.772424" lon="05.713455"><ele>34</ele><time>2012-03-25T15:25:31Z</time><cmt>1.7 kmh</cmt></trkpt>
<trkpt lat="58.772425" lon="05.713458"><ele>34</ele><time>2012-03-25T15:25:32Z</time><cmt>1.0 kmh</cmt></trkpt>
<trkpt lat="58.772426" lon="05.713459"><ele>34</ele><time>2012-03-25T15:25:34Z</time><cmt>0.4 kmh</cmt></trkpt>
<trkpt lat="58.772427" lon="05.713460"><ele>35</ele><time>2012-03-25T15:25:35Z</time><cmt>0.4 kmh</cmt></trkpt>
<trkpt lat="58.772428" lon="05.713459"><ele>35</ele><time>2012-03-25T15:25:36Z</time><cmt>0.5 kmh</cmt></trkpt>
<trkpt lat="58.772429" lon="05.713460"><ele>35</ele><time>2012-03-25T15:25:36Z</time><cmt>0.6 kmh</cmt></trkpt>
<trkpt lat="58.772431" lon="05.713460"><ele>35</ele><time>2012-03-25T15:25:37Z</time><cmt>0.7 kmh</cmt></trkpt>
<trkpt lat="58.772433" lon="05.713460"><ele>35</ele><time>2012-03-25T15:25:38Z</time><cmt>0.8 kmh</cmt></trkpt>
<trkpt lat="58.772435" lon="05.713458"><ele>35</ele><time>2012-03-25T15:25:40Z</time><cmt>0.7 kmh</cmt></trkpt>
<trkpt lat="58.772437" lon="05.713456"><ele>36</ele><time>2012-03-25T15:25:41Z</time><cmt>0.7 kmh</cmt></trkpt>
<trkpt lat="58.772439" lon="05.713454"><ele>36</ele><time>2012-03-25T15:25:42Z</time><cmt>1.0 kmh</cmt></trkpt>
<trkpt lat="58.772441" lon="05.713452"><ele>36</ele><time>2012-03-25T15:25:42Z</time><cmt>0.9 kmh</cmt></trkpt>
<trkpt lat="58.772442" lon="05.713450"><ele>36</ele><time>2012-03-25T15:25:43Z</time><cmt>0.8 kmh</cmt></trkpt>
<trkpt lat="58.772444" lon="05.713447"><ele>36</ele><time>2012-03-25T15:25:44Z</time><cmt>0.9 kmh</cmt></trkpt>
<trkpt lat="58.772444" lon="05.713445"><ele>36</ele><time>2012-03-25T15:25:46Z</time><cmt>0.6 kmh</cmt></trkpt>
<trkpt lat="58.772442" lon="05.713448"><ele>36</ele><time>2012-03-25T15:25:47Z</time><cmt>0.5 kmh</cmt></trkpt>
<trkpt lat="58.772440" lon="05.713450"><ele>36</ele><time>2012-03-25T15:25:48Z</time><cmt>0.9 kmh</cmt></trkpt>
<trkpt lat="58.772437" lon="05.713452"><ele>36</ele><time>2012-03-25T15:25:48Z</time><cmt>1.1 kmh</cmt></trkpt>
<trkpt lat="58.772434" lon="05.713453"><ele>37</ele><time>2012-03-25T15:25:49Z</time><cmt>1.4 kmh</cmt></trkpt>
<trkpt lat="58.772431" lon="05.713453"><ele>37</ele><time>2012-03-25T15:25:50Z</time><cmt>1.4 kmh</cmt></trkpt>
<trkpt lat="58.772428" lon="05.713452"><ele>37</ele><time>2012-03-25T15:25:52Z</time><cmt>1.1 kmh</cmt></trkpt>
<trkpt lat="58.772425" lon="05.713450"><ele>37</ele><time>2012-03-25T15:25:53Z</time><cmt>1.1 kmh</cmt></trkpt>
<trkpt lat="58.772422" lon="05.713449"><ele>37</ele><time>2012-03-25T15:25:54Z</time><cmt>1.3 kmh</cmt></trkpt>
<trkpt lat="58.772418" lon="05.713449"><ele>37</ele><time>2012-03-25T15:25:54Z</time><cmt>1.4 kmh</cmt></trkpt>
<trkpt lat="58.772414" lon="05.713450"><ele>37</ele><time>2012-03-25T15:25:55Z</time><cmt>1.6 kmh</cmt></trkpt>
<trkpt lat="58.772410" lon="05.713452"><ele>36</ele><time>2012-03-25T15:25:56Z</time><cmt>1.7 kmh</cmt></trkpt>
<trkpt lat="58.772406" lon="05.713453"><ele>36</ele><time>2012-03-25T15:25:57Z</time><cmt>1.9 kmh</cmt></trkpt>
<trkpt lat="58.772402" lon="05.713454"><ele>36</ele><time>2012-03-25T15:25:59Z</time><cmt>1.4 kmh</cmt></trkpt>
<trkpt lat="58.772398" lon="05.713453"><ele>36</ele><time>2012-03-25T15:26:00Z</time><cmt>1.3 kmh</cmt></trkpt>
<trkpt lat="58.772394" lon="05.713453"><ele>36</ele><time>2012-03-25T15:26:01Z</time><cmt>1.7 kmh</cmt></trkpt>
<trkpt lat="58.772390" lon="05.713454"><ele>36</ele><time>2012-03-25T15:26:01Z</time><cmt>1.7 kmh</cmt></trkpt>
<trkpt lat="58.772386" lon="05.713455"><ele>36</ele><time>2012-03-25T15:26:02Z</time><cmt>1.8 kmh</cmt></trkpt>
<trkpt lat="58.772382" lon="05.713457"><ele>36</ele><time>2012-03-25T15:26:03Z</time><cmt>1.7 kmh</cmt></trkpt>
<trkpt lat="58.772378" lon="05.713457"><ele>35</ele><time>2012-03-25T15:26:05Z</time><cmt>1.4 kmh</cmt></trkpt>
<trkpt lat="58.772375" lon="05.713457"><ele>35</ele><time>2012-03-25T15:26:06Z</time><cmt>1.4 kmh</cmt></trkpt>
<trkpt lat="58.772371" lon="05.713455"><ele>35</ele><time>2012-03-25T15:26:07Z</time><cmt>1.6 kmh</cmt></trkpt>
<trkpt lat="58.772368" lon="05.713453"><ele>35</ele><time>2012-03-25T15:26:07Z</time><cmt>1.4 kmh</cmt></trkpt>
<trkpt lat="58.772365" lon="05.713452"><ele>35</ele><time>2012-03-25T15:26:08Z</time><cmt>1.3 kmh</cmt></trkpt>
<trkpt lat="58.772363" lon="05.713451"><ele>35</ele><time>2012-03-25T15:26:09Z</time><cmt>1.1 kmh</cmt></trkpt>
<trkpt lat="58.772361" lon="05.713451"><ele>35</ele><time>2012-03-25T15:26:11Z</time><cmt>0.8 kmh</cmt></trkpt>
<trkpt lat="58.772359" lon="05.713452"><ele>34</ele><time>2012-03-25T15:26:12Z</time><cmt>0.8 kmh</cmt></trkpt>
<trkpt lat="58.772357" lon="05.713451"><ele>34</ele><time>2012-03-25T15:26:13Z</time><cmt>0.9 kmh</cmt></trkpt>
<trkpt lat="58.772354" lon="05.713450"><ele>34</ele><time>2012-03-25T15:26:13Z</time><cmt>1.0 kmh</cmt></trkpt>
<trkpt lat="58.772351" lon="05.713449"><ele>34</ele><time>2012-03-25T15:26:14Z</time><cmt>1.0 kmh</cmt></trkpt>
<trkpt lat="58.772349" lon="05.713449"><ele>34</ele><time>2012-03-25T15:26:15Z</time><cmt>1.0 kmh</cmt></trkpt>
<trkpt lat="58.772346" lon="05.713450"><ele>34</ele><time>2012-03-25T15:26:17Z</time><cmt>0.9 kmh</cmt></trkpt>
<trkpt lat="58.772343" lon="05.713452"><ele>34</ele><time>2012-03-25T15:26:18Z</time><cmt>1.0 kmh</cmt></trkpt>
<trkpt lat="58.772341" lon="05.713452"><ele>34</ele><time>2012-03-25T15:26:19Z</time><cmt>1.1 kmh</cmt></trkpt>
<trkpt lat="58.772339" lon="05.713452"><ele>34</ele><time>2012-03-25T15:26:19Z</time><cmt>0.8 kmh</cmt></trkpt>
<trkpt lat="58.772338" lon="05.713451"><ele>33</ele><time>2012-03-25T15:26:20Z</time><cmt>0.7 kmh</cmt></trkpt>
<trkpt lat="58.772337" lon="05.713450"><ele>33</ele><time>2012-03-25T15:26:21Z</time><cmt>0.5 kmh</cmt></trkpt>
<trkpt lat="58.772338" lon="05.713446"><ele>33</ele><time>2012-03-25T15:26:23Z</time><cmt>0.6 kmh</cmt></trkpt>
<trkpt lat="58.772340" lon="05.713443"><ele>33</ele><time>2012-03-25T15:26:24Z</time><cmt>0.8 kmh</cmt></trkpt>
<trkpt lat="58.772339" lon="05.713442"><ele>33</ele><time>2012-03-25T15:26:25Z</time><cmt>0.5 kmh</cmt></trkpt>
<trkpt lat="58.772338" lon="05.713442"><ele>33</ele><time>2012-03-25T15:26:25Z</time><cmt>0.3 kmh</cmt></trkpt>
<trkpt lat="58.772334" lon="05.713445"><ele>33</ele><time>2012-03-25T15:26:26Z</time><cmt>1.1 kmh</cmt></trkpt>
<trkpt lat="58.772332" lon="05.713446"><ele>33</ele><time>2012-03-25T15:26:27Z</time><cmt>1.4 kmh</cmt></trkpt>
<trkpt lat="58.772330" lon="05.713447"><ele>33</ele><time>2012-03-25T15:26:28Z</time><cmt>1.0 kmh</cmt></trkpt>
<trkpt lat="58.772329" lon="05.713447"><ele>33</ele><time>2012-03-25T15:26:30Z</time><cmt>0.5 kmh</cmt></trkpt>
<trkpt lat="58.772329" lon="05.713445"><ele>33</ele><time>2012-03-25T15:26:31Z</time><cmt>0.4 kmh</cmt></trkpt>
<trkpt lat="58.772327" lon="05.713444"><ele>33</ele><time>2012-03-25T15:26:32Z</time><cmt>0.6 kmh</cmt></trkpt>
<trkpt lat="58.772326" lon="05.713444"><ele>33</ele><time>2012-03-25T15:26:32Z</time><cmt>0.6 kmh</cmt></trkpt>
<trkpt lat="58.772325" lon="05.713443"><ele>33</ele><time>2012-03-25T15:26:33Z</time><cmt>0.5 kmh</cmt></trkpt>
<trkpt lat="58.772325" lon="05.713441"><ele>33</ele><time>2012-03-25T15:26:34Z</time><cmt>0.5 kmh</cmt></trkpt>
<trkpt lat="58.772324" lon="05.713439"><ele>33</ele><time>2012-03-25T15:26:36Z</time><cmt>0.4 kmh</cmt></trkpt>
<trkpt lat="58.772324" lon="05.713438"><ele>33</ele><time>2012-03-25T15:26:37Z</time><cmt>0.2 kmh</cmt></trkpt>
<trkpt lat="58.772323" lon="05.713437"><ele>33</ele><time>2012-03-25T15:26:38Z</time><cmt>0.0 kmh</cmt></trkpt>
<trkpt lat="58.772322" lon="05.713436"><ele>33</ele><time>2012-03-25T15:26:38Z</time><cmt>0.2 kmh</cmt></trkpt>
<trkpt lat="58.772321" lon="05.713436"><ele>33</ele><time>2012-03-25T15:26:39Z</time><cmt>0.4 kmh</cmt></trkpt>
<trkpt lat="58.772320" lon="05.713436"><ele>33</ele><time>2012-03-25T15:26:40Z</time><cmt>0.5 kmh</cmt></trkpt>
<trkpt lat="58.772319" lon="05.713436"><ele>33</ele><time>2012-03-25T15:26:42Z</time><cmt>0.4 kmh</cmt></trkpt>
<trkpt lat="58.772317" lon="05.713437"><ele>33</ele><time>2012-03-25T15:26:43Z</time><cmt>0.5 kmh</cmt></trkpt>
<trkpt lat="58.772316" lon="05.713437"><ele>33</ele><time>2012-03-25T15:26:44Z</time><cmt>0.5 kmh</cmt></trkpt>
<trkpt lat="58.772315" lon="05.713437"><ele>33</ele><time>2012-03-25T15:26:44Z</time><cmt>0.2 kmh</cmt></trkpt>
<trkpt lat="58.772314" lon="05.713437"><ele>33</ele><time>2012-03-25T15:26:45Z</time><cmt>0.3 kmh</cmt></trkpt>
<trkpt lat="58.772313" lon="05.713437"><ele>32</ele><time>2012-03-25T15:26:46Z</time><cmt>0.4 kmh</cmt></trkpt>
<trkpt lat="58.772313" lon="05.713435"><ele>32</ele><time>2012-03-25T15:26:48Z</time><cmt>0.3 kmh</cmt></trkpt>
<trkpt lat="58.772312" lon="05.713433"><ele>32</ele><time>2012-03-25T15:26:49Z</time><cmt>0.4 kmh</cmt></trkpt>
<trkpt lat="58.772312" lon="05.713433"><ele>32</ele><time>2012-03-25T15:26:50Z</time><cmt>0.4 kmh</cmt></trkpt>
<trkpt lat="58.772311" lon="05.713433"><ele>32</ele><time>2012-03-25T15:26:50Z</time><cmt>0.4 kmh</cmt></trkpt>
<trkpt lat="58.772310" lon="05.713434"><ele>32</ele><time>2012-03-25T15:26:51Z</time><cmt>0.4 kmh</cmt></trkpt>
<trkpt lat="58.772309" lon="05.713436"><ele>32</ele><time>2012-03-25T15:26:52Z</time><cmt>0.5 kmh</cmt></trkpt>
<trkpt lat="58.772308" lon="05.713436"><ele>32</ele><time>2012-03-25T15:26:54Z</time><cmt>0.4 kmh</cmt></trkpt>
<trkpt lat="58.772306" lon="05.713437"><ele>32</ele><time>2012-03-25T15:26:55Z</time><cmt>0.4 kmh</cmt></trkpt>
<trkpt lat="58.772305" lon="05.713439"><ele>32</ele><time>2012-03-25T15:26:56Z</time><cmt>0.7 kmh</cmt></trkpt>
<trkpt lat="58.772303" lon="05.713440"><ele>32</ele><time>2012-03-25T15:26:56Z</time><cmt>0.6 kmh</cmt></trkpt>
<trkpt lat="58.772302" lon="05.713441"><ele>32</ele><time>2012-03-25T15:26:57Z</time><cmt>0.5 kmh</cmt></trkpt>
<trkpt lat="58.772301" lon="05.713443"><ele>31</ele><time>2012-03-25T15:26:58Z</time><cmt>0.6 kmh</cmt></trkpt>
<trkpt lat="58.772299" lon="05.713446"><ele>31</ele><time>2012-03-25T15:26:59Z</time><cmt>0.8 kmh</cmt></trkpt>
<trkpt lat="58.772298" lon="05.713447"><ele>31</ele><time>2012-03-25T15:27:01Z</time><cmt>0.5 kmh</cmt></trkpt>
<trkpt lat="58.772297" lon="05.713447"><ele>31</ele><time>2012-03-25T15:27:02Z</time><cmt>0.1 kmh</cmt></trkpt>
<trkpt lat="58.772297" lon="05.713446"><ele>31</ele><time>2012-03-25T15:27:03Z</time><cmt>0.3 kmh</cmt></trkpt>
<trkpt lat="58.772297" lon="05.713445"><ele>31</ele><time>2012-03-25T15:27:03Z</time><cmt>0.5 kmh</cmt></trkpt>
<trkpt lat="58.772297" lon="05.713444"><ele>31</ele><time>2012-03-25T15:27:04Z</time><cmt>0.5 kmh</cmt></trkpt>
<trkpt lat="58.772296" lon="05.713445"><ele>31</ele><time>2012-03-25T15:27:05Z</time><cmt>0.5 kmh</cmt></trkpt>
<trkpt lat="58.772294" lon="05.713448"><ele>31</ele><time>2012-03-25T15:27:07Z</time><cmt>0.6 kmh</cmt></trkpt>
<trkpt lat="58.772292" lon="05.713452"><ele>30</ele><time>2012-03-25T15:27:08Z</time><cmt>0.9 kmh</cmt></trkpt>
<trkpt lat="58.772291" lon="05.713453"><ele>30</ele><time>2012-03-25T15:27:09Z</time><cmt>1.0 kmh</cmt></trkpt>
<trkpt lat="58.772290" lon="05.713453"><ele>30</ele><time>2012-03-25T15:27:09Z</time><cmt>0.3 kmh</cmt></trkpt>
<trkpt lat="58.772290" lon="05.713452"><ele>30</ele><time>2012-03-25T15:27:10Z</time><cmt>0.2 kmh</cmt></trkpt>
<trkpt lat="58.772290" lon="05.713450"><ele>30</ele><time>2012-03-25T15:27:11Z</time><cmt>0.2 kmh</cmt></trkpt>
<trkpt lat="58.772290" lon="05.713448"><ele>30</ele><time>2012-03-25T15:27:13Z</time><cmt>0.0 kmh</cmt></trkpt>
<trkpt lat="58.772290" lon="05.713447"><ele>30</ele><time>2012-03-25T15:27:14Z</time><cmt>0.0 kmh</cmt></trkpt>
<trkpt lat="58.772290" lon="05.713446"><ele>30</ele><time>2012-03-25T15:27:15Z</time><cmt>0.0 kmh</cmt></trkpt>
<trkpt lat="58.772290" lon="05.713445"><ele>29</ele><time>2012-03-25T15:27:15Z</time><cmt>0.0 kmh</cmt></trkpt>
<trkpt lat="58.772291" lon="05.713442"><ele>29</ele><time>2012-03-25T15:27:16Z</time><cmt>0.3 kmh</cmt></trkpt>
<trkpt lat="58.772291" lon="05.713441"><ele>29</ele><time>2012-03-25T15:27:17Z</time><cmt>0.3 kmh</cmt></trkpt>
<trkpt lat="58.772290" lon="05.713441"><ele>29</ele><time>2012-03-25T15:27:19Z</time><cmt>0.0 kmh</cmt></trkpt>
<trkpt lat="58.772290" lon="05.713442"><ele>29</ele><time>2012-03-25T15:27:20Z</time><cmt>0.0 kmh</cmt></trkpt>
<trkpt lat="58.772289" lon="05.713445"><ele>29</ele><time>2012-03-25T15:27:21Z</time><cmt>0.3 kmh</cmt></trkpt>
<trkpt lat="58.772288" lon="05.713448"><ele>29</ele><time>2012-03-25T15:27:21Z</time><cmt>0.8 kmh</cmt></trkpt>
<trkpt lat="58.772286" lon="05.713450"><ele>29</ele><time>2012-03-25T15:27:22Z</time><cmt>0.8 kmh</cmt></trkpt>
<trkpt lat="58.772285" lon="05.713452"><ele>29</ele><time>2012-03-25T15:27:23Z</time><cmt>0.6 kmh</cmt></trkpt>
<trkpt lat="58.772284" lon="05.713454"><ele>29</ele><time>2012-03-25T15:27:25Z</time><cmt>0.6 kmh</cmt></trkpt>
<trkpt lat="58.772284" lon="05.713450"><ele>29</ele><time>2012-03-25T15:27:26Z</time><cmt>0.7 kmh</cmt></trkpt>
<trkpt lat="58.772284" lon="05.713447"><ele>29</ele><time>2012-03-25T15:27:27Z</time><cmt>0.9 kmh</cmt></trkpt>
<trkpt lat="58.772284" lon="05.713445"><ele>28</ele><time>2012-03-25T15:27:27Z</time><cmt>0.4 kmh</cmt></trkpt>
<trkpt lat="58.772284" lon="05.713444"><ele>28</ele><time>2012-03-25T15:27:28Z</time><cmt>0.0 kmh</cmt></trkpt>
<trkpt lat="58.772284" lon="05.713442"><ele>28</ele><time>2012-03-25T15:27:29Z</time><cmt>0.3 kmh</cmt></trkpt>
<trkpt lat="58.772284" lon="05.713439"><ele>28</ele><time>2012-03-25T15:27:30Z</time><cmt>0.6 kmh</cmt></trkpt>
<trkpt lat="58.772284" lon="05.713435"><ele>28</ele><time>2012-03-25T15:27:32Z</time><cmt>0.6 kmh</cmt></trkpt>
<trkpt lat="58.772283" lon="05.713435"><ele>28</ele><time>2012-03-25T15:27:33Z</time><cmt>0.4 kmh</cmt></trkpt>
<trkpt lat="58.772281" lon="05.713438"><ele>28</ele><time>2012-03-25T15:27:34Z</time><cmt>0.7 kmh</cmt></trkpt>
<trkpt lat="58.772279" lon="05.713442"><ele>28</ele><time>2012-03-25T15:27:34Z</time><cmt>1.1 kmh</cmt></trkpt>
<trkpt lat="58.772277" lon="05.713446"><ele>28</ele><time>2012-03-25T15:27:35Z</time><cmt>1.2 kmh</cmt></trkpt>
<trkpt lat="58.772275" lon="05.713449"><ele>28</ele><time>2012-03-25T15:27:36Z</time><cmt>1.3 kmh</cmt></trkpt>
<trkpt lat="58.772271" lon="05.713456"><ele>28</ele><time>2012-03-25T15:27:38Z</time><cmt>1.3 kmh</cmt></trkpt>
<trkpt lat="58.772268" lon="05.713462"><ele>28</ele><time>2012-03-25T15:27:39Z</time><cmt>1.6 kmh</cmt></trkpt>
<trkpt lat="58.772265" lon="05.713468"><ele>28</ele><time>2012-03-25T15:27:40Z</time><cmt>1.9 kmh</cmt></trkpt>
<trkpt lat="58.772264" lon="05.713469"><ele>27</ele><time>2012-03-25T15:27:40Z</time><cmt>1.2 kmh</cmt></trkpt>
<trkpt lat="58.772264" lon="05.713467"><ele>27</ele><time>2012-03-25T15:27:41Z</time><cmt>0.3 kmh</cmt></trkpt>
<trkpt lat="58.772264" lon="05.713464"><ele>27</ele><time>2012-03-25T15:27:42Z</time><cmt>0.3 kmh</cmt></trkpt>
<trkpt lat="58.772264" lon="05.713461"><ele>27</ele><time>2012-03-25T15:27:44Z</time><cmt>0.5 kmh</cmt></trkpt>
<trkpt lat="58.772263" lon="05.713461"><ele>27</ele><time>2012-03-25T15:27:45Z</time><cmt>0.3 kmh</cmt></trkpt>
<trkpt lat="58.772263" lon="05.713459"><ele>27</ele><time>2012-03-25T15:27:46Z</time><cmt>0.0 kmh</cmt></trkpt>
<trkpt lat="58.772264" lon="05.713456"><ele>27</ele><time>2012-03-25T15:27:46Z</time><cmt>0.3 kmh</cmt></trkpt>
<trkpt lat="58.772263" lon="05.713455"><ele>26</ele><time>2012-03-25T15:27:47Z</time><cmt>0.3 kmh</cmt></trkpt>
<trkpt lat="58.772263" lon="05.713453"><ele>26</ele><time>2012-03-25T15:27:48Z</time><cmt>0.0 kmh</cmt></trkpt>
<trkpt lat="58.772264" lon="05.713450"><ele>26</ele><time>2012-03-25T15:27:50Z</time><cmt>0.3 kmh</cmt></trkpt>
<trkpt lat="58.772264" lon="05.713446"><ele>26</ele><time>2012-03-25T15:27:51Z</time><cmt>0.6 kmh</cmt></trkpt>
<trkpt lat="58.772265" lon="05.713442"><ele>26</ele><time>2012-03-25T15:27:52Z</time><cmt>0.9 kmh</cmt></trkpt>
<trkpt lat="58.772265" lon="05.713438"><ele>26</ele><time>2012-03-25T15:27:52Z</time><cmt>0.9 kmh</cmt></trkpt>
<trkpt lat="58.772266" lon="05.713435"><ele>26</ele><time>2012-03-25T15:27:53Z</time><cmt>0.9 kmh</cmt></trkpt>
<trkpt lat="58.772267" lon="05.713431"><ele>26</ele><time>2012-03-25T15:27:54Z</time><cmt>0.9 kmh</cmt></trkpt>
<trkpt lat="58.772268" lon="05.713428"><ele>26</ele><time>2012-03-25T15:27:56Z</time><cmt>0.6 kmh</cmt></trkpt>
<trkpt lat="58.772268" lon="05.713426"><ele>26</ele><time>2012-03-25T15:27:57Z</time><cmt>0.6 kmh</cmt></trkpt>
<trkpt lat="58.772268" lon="05.713424"><ele>26</ele><time>2012-03-25T15:27:58Z</time><cmt>0.6 kmh</cmt></trkpt>
<trkpt lat="58.772269" lon="05.713422"><ele>26</ele><time>2012-03-25T15:27:58Z</time><cmt>0.5 kmh</cmt></trkpt>
<trkpt lat="58.772269" lon="05.713420"><ele>26</ele><time>2012-03-25T15:27:59Z</time><cmt>0.4 kmh</cmt></trkpt>
<trkpt lat="58.772269" lon="05.713418"><ele>26</ele><time>2012-03-25T15:28:00Z</time><cmt>0.4 kmh</cmt></trkpt>
<trkpt lat="58.772270" lon="05.713417"><ele>26</ele><time>2012-03-25T15:28:01Z</time><cmt>0.2 kmh</cmt></trkpt>
<trkpt lat="58.772270" lon="05.713416"><ele>26</ele><time>2012-03-25T15:28:03Z</time><cmt>0.0 kmh</cmt></trkpt>
<trkpt lat="58.772270" lon="05.713415"><ele>26</ele><time>2012-03-25T15:28:04Z</time><cmt>0.0 kmh</cmt></trkpt>
<trkpt lat="58.772270" lon="05.713414"><ele>26</ele><time>2012-03-25T15:28:05Z</time><cmt>0.0 kmh</cmt></trkpt>
<trkpt lat="58.772270" lon="05.713413"><ele>26</ele><time>2012-03-25T15:28:05Z</time><cmt>0.0 kmh</cmt></trkpt>
<trkpt lat="58.772270" lon="05.713412"><ele>26</ele><time>2012-03-25T15:28:06Z</time><cmt>0.0 kmh</cmt></trkpt>
<trkpt lat="58.772271" lon="05.713410"><ele>26</ele><time>2012-03-25T15:28:07Z</time><cmt>0.3 kmh</cmt></trkpt>
<trkpt lat="58.772271" lon="05.713409"><ele>26</ele><time>2012-03-25T15:28:09Z</time><cmt>0.4 kmh</cmt></trkpt>
<trkpt lat="58.772272" lon="05.713408"><ele>26</ele><time>2012-03-25T15:28:10Z</time><cmt>0.3 kmh</cmt></trkpt>
<trkpt lat="58.772272" lon="05.713406"><ele>26</ele><time>2012-03-25T15:28:11Z</time><cmt>0.4 kmh</cmt></trkpt>
<trkpt lat="58.772273" lon="05.713404"><ele>26</ele><time>2012-03-25T15:28:11Z</time><cmt>0.4 kmh</cmt></trkpt>
<trkpt lat="58.772273" lon="05.713403"><ele>26</ele><time>2012-03-25T15:28:12Z</time><cmt>0.5 kmh</cmt></trkpt>
<trkpt lat="58.772273" lon="05.713402"><ele>27</ele><time>2012-03-25T15:28:13Z</time><cmt>0.4 kmh</cmt></trkpt>
<trkpt lat="58.772274" lon="05.713400"><ele>27</ele><time>2012-03-25T15:28:15Z</time><cmt>0.3 kmh</cmt></trkpt>
<trkpt lat="58.772274" lon="05.713400"><ele>27</ele><time>2012-03-25T15:28:16Z</time><cmt>0.1 kmh</cmt></trkpt>
<trkpt lat="58.772274" lon="05.713400"><ele>27</ele><time>2012-03-25T15:28:17Z</time><cmt>0.0 kmh</cmt></trkpt>
<trkpt lat="58.772274" lon="05.713399"><ele>27</ele><time>2012-03-25T15:28:17Z</time><cmt>0.0 kmh</cmt></trkpt>
<trkpt lat="58.772274" lon="05.713398"><ele>27</ele><time>2012-03-25T15:28:18Z</time><cmt>0.2 kmh</cmt></trkpt>
<trkpt lat="58.772275" lon="05.713396"><ele>27</ele><time>2012-03-25T15:28:19Z</time><cmt>0.4 kmh</cmt></trkpt>
<trkpt lat="58.772276" lon="05.713395"><ele>27</ele><time>2012-03-25T15:28:21Z</time><cmt>0.1 kmh</cmt></trkpt>
<trkpt lat="58.772276" lon="05.713394"><ele>27</ele><time>2012-03-25T15:28:22Z</time><cmt>0.0 kmh</cmt></trkpt>
<trkpt lat="58.772276" lon="05.713394"><ele>27</ele><time>2012-03-25T15:28:23Z</time><cmt>0.0 kmh</cmt></trkpt>
<trkpt lat="58.772276" lon="05.713392"><ele>27</ele><time>2012-03-25T15:28:23Z</time><cmt>0.3 kmh</cmt></trkpt>
<trkpt lat="58.772275" lon="05.713391"><ele>27</ele><time>2012-03-25T15:28:24Z</time><cmt>0.5 kmh</cmt></trkpt>
<trkpt lat="58.772273" lon="05.713390"><ele>28</ele><time>2012-03-25T15:28:25Z</time><cmt>0.6 kmh</cmt></trkpt>
<trkpt lat="58.772271" lon="05.713389"><ele>28</ele><time>2012-03-25T15:28:27Z</time><cmt>0.7 kmh</cmt></trkpt>
<trkpt lat="58.772269" lon="05.713387"><ele>28</ele><time>2012-03-25T15:28:28Z</time><cmt>0.8 kmh</cmt></trkpt>
<trkpt lat="58.772267" lon="05.713382"><ele>28</ele><time>2012-03-25T15:28:29Z</time><cmt>1.2 kmh</cmt></trkpt>
<trkpt lat="58.772265" lon="05.713376"><ele>28</ele><time>2012-03-25T15:28:29Z</time><cmt>1.5 kmh</cmt></trkpt>
<trkpt lat="58.772263" lon="05.713369"><ele>28</ele><time>2012-03-25T15:28:30Z</time><cmt>1.7 kmh</cmt></trkpt>
<trkpt lat="58.772262" lon="05.713361"><ele>28</ele><time>2012-03-25T15:28:31Z</time><cmt>1.8 kmh</cmt></trkpt>
<trkpt lat="58.772260" lon="05.713355"><ele>29</ele><time>2012-03-25T15:28:33Z</time><cmt>1.4 kmh</cmt></trkpt>
<trkpt lat="58.772259" lon="05.713348"><ele>29</ele><time>2012-03-25T15:28:34Z</time><cmt>1.4 kmh</cmt></trkpt>
<trkpt lat="58.772257" lon="05.713341"><ele>29</ele><time>2012-03-25T15:28:35Z</time><cmt>1.7 kmh</cmt></trkpt>
<trkpt lat="58.772255" lon="05.713335"><ele>29</ele><time>2012-03-25T15:28:36Z</time><cmt>1.6 kmh</cmt></trkpt>
<trkpt lat="58.772254" lon="05.713327"><ele>29</ele><time>2012-03-25T15:28:36Z</time><cmt>1.7 kmh</cmt></trkpt>
<trkpt lat="58.772253" lon="05.713320"><ele>29</ele><time>2012-03-25T15:28:37Z</time><cmt>1.8 kmh</cmt></trkpt>
<trkpt lat="58.772252" lon="05.713312"><ele>29</ele><time>2012-03-25T15:28:38Z</time><cmt>1.7 kmh</cmt></trkpt>
<trkpt lat="58.772252" lon="05.713306"><ele>29</ele><time>2012-03-25T15:28:40Z</time><cmt>1.2 kmh</cmt></trkpt>
<trkpt lat="58.772251" lon="05.713301"><ele>29</ele><time>2012-03-25T15:28:41Z</time><cmt>1.0 kmh</cmt></trkpt>
<trkpt lat="58.772251" lon="05.713298"><ele>30</ele><time>2012-03-25T15:28:42Z</time><cmt>0.8 kmh</cmt></trkpt>
<trkpt lat="58.772250" lon="05.713296"><ele>30</ele><time>2012-03-25T15:28:42Z</time><cmt>0.5 kmh</cmt></trkpt>
<trkpt lat="58.772250" lon="05.713295"><ele>30</ele><time>2012-03-25T15:28:43Z</time><cmt>0.4 kmh</cmt></trkpt>
<trkpt lat="58.772250" lon="05.713294"><ele>30</ele><time>2012-03-25T15:28:44Z</time><cmt>0.3 kmh</cmt></trkpt>
<trkpt lat="58.772250" lon="05.713293"><ele>30</ele><time>2012-03-25T15:28:46Z</time><cmt>0.0 kmh</cmt></trkpt>
<trkpt lat="58.772249" lon="05.713293"><ele>30</ele><time>2012-03-25T15:28:47Z</time><cmt>0.1 kmh</cmt></trkpt>
<trkpt lat="58.772248" lon="05.713293"><ele>30</ele><time>2012-03-25T15:28:48Z</time><cmt>0.2 kmh</cmt></trkpt>
<trkpt lat="58.772248" lon="05.713292"><ele>30</ele><time>2012-03-25T15:28:48Z</time><cmt>0.2 kmh</cmt></trkpt>
<trkpt lat="58.772247" lon="05.713293"><ele>30</ele><time>2012-03-25T15:28:49Z</time><cmt>0.2 kmh</cmt></trkpt>
<trkpt lat="58.772247" lon="05.713293"><ele>30</ele><time>2012-03-25T15:28:50Z</time><cmt>0.0 kmh</cmt></trkpt>
<trkpt lat="58.772247" lon="05.713293"><ele>30</ele><time>2012-03-25T15:28:52Z</time><cmt>0.0 kmh</cmt></trkpt>
<trkpt lat="58.772247" lon="05.713293"><ele>30</ele><time>2012-03-25T15:28:53Z</time><cmt>0.0 kmh</cmt></trkpt>
<trkpt lat="58.772247" lon="05.713294"><ele>30</ele><time>2012-03-25T15:28:54Z</time><cmt>0.0 kmh</cmt></trkpt>
<trkpt lat="58.772248" lon="05.713295"><ele>30</ele><time>2012-03-25T15:28:54Z</time><cmt>0.0 kmh</cmt></trkpt>
<trkpt lat="58.772248" lon="05.713296"><ele>30</ele><time>2012-03-25T15:28:55Z</time><cmt>0.2 kmh</cmt></trkpt>
<trkpt lat="58.772248" lon="05.713297"><ele>30</ele><time>2012-03-25T15:28:56Z</time><cmt>0.2 kmh</cmt></trkpt>
<trkpt lat="58.772248" lon="05.713297"><ele>30</ele><time>2012-03-25T15:28:58Z</time><cmt>0.0 kmh</cmt></trkpt>
<trkpt lat="58.772248" lon="05.713298"><ele>30</ele><time>2012-03-25T15:28:59Z</time><cmt>0.0 kmh</cmt></trkpt>
<trkpt lat="58.772248" lon="05.713298"><ele>30</ele><time>2012-03-25T15:29:00Z</time><cmt>0.0 kmh</cmt></trkpt>
<trkpt lat="58.772248" lon="05.713299"><ele>30</ele><time>2012-03-25T15:29:00Z</time><cmt>0.0 kmh</cmt></trkpt>
<trkpt lat="58.772248" lon="05.713299"><ele>30</ele><time>2012-03-25T15:29:01Z</time><cmt>0.0 kmh</cmt></trkpt>
<trkpt lat="58.772248" lon="05.713300"><ele>30</ele><time>2012-03-25T15:29:02Z</time><cmt>0.0 kmh</cmt></trkpt>
<trkpt lat="58.772248" lon="05.713300"><ele>30</ele><time>2012-03-25T15:29:03Z</time><cmt>0.0 kmh</cmt></trkpt>
<trkpt lat="58.772248" lon="05.713301"><ele>30</ele><time>2012-03-25T15:29:05Z</time><cmt>0.0 kmh</cmt></trkpt>
<trkpt lat="58.772248" lon="05.713301"><ele>30</ele><time>2012-03-25T15:29:06Z</time><cmt>0.0 kmh</cmt></trkpt>
<trkpt lat="58.772248" lon="05.713301"><ele>30</ele><time>2012-03-25T15:29:07Z</time><cmt>0.0 kmh</cmt></trkpt>
<trkpt lat="58.772248" lon="05.713301"><ele>30</ele><time>2012-03-25T15:29:07Z</time><cmt>0.0 kmh</cmt></trkpt>
<trkpt lat="58.772248" lon="05.713302"><ele>30</ele><time>2012-03-25T15:29:08Z</time><cmt>0.0 kmh</cmt></trkpt>
<trkpt lat="58.772249" lon="05.713303"><ele>30</ele><time>2012-03-25T15:29:12Z</time><cmt>0.1 kmh</cmt></trkpt>
<trkpt lat="58.772249" lon="05.713304"><ele>30</ele><time>2012-03-25T15:29:13Z</time><cmt>0.2 kmh</cmt></trkpt>
<trkpt lat="58.772248" lon="05.713304"><ele>30</ele><time>2012-03-25T15:29:13Z</time><cmt>0.0 kmh</cmt></trkpt>
<trkpt lat="58.772248" lon="05.713304"><ele>30</ele><time>2012-03-25T15:29:14Z</time><cmt>0.0 kmh</cmt></trkpt>
<trkpt lat="58.772248" lon="05.713303"><ele>30</ele><time>2012-03-25T15:29:15Z</time><cmt>0.0 kmh</cmt></trkpt>
<trkpt lat="58.772248" lon="05.713303"><ele>30</ele><time>2012-03-25T15:29:17Z</time><cmt>0.0 kmh</cmt></trkpt>
<trkpt lat="58.772248" lon="05.713302"><ele>30</ele><time>2012-03-25T15:29:18Z</time><cmt>0.2 kmh</cmt></trkpt>
<trkpt lat="58.772247" lon="05.713299"><ele>30</ele><time>2012-03-25T15:29:19Z</time><cmt>0.5 kmh</cmt></trkpt>
<trkpt lat="58.772247" lon="05.713299"><ele>30</ele><time>2012-03-25T15:29:19Z</time><cmt>0.3 kmh</cmt></trkpt>
<trkpt lat="58.772247" lon="05.713299"><ele>30</ele><time>2012-03-25T15:29:20Z</time><cmt>0.0 kmh</cmt></trkpt>
<trkpt lat="58.772247" lon="05.713299"><ele>30</ele><time>2012-03-25T15:29:21Z</time><cmt>0.0 kmh</cmt></trkpt>
<trkpt lat="58.772247" lon="05.713299"><ele>30</ele><time>2012-03-25T15:29:23Z</time><cmt>0.1 kmh</cmt></trkpt>
<trkpt lat="58.772246" lon="05.713297"><ele>30</ele><time>2012-03-25T15:29:24Z</time><cmt>0.4 kmh</cmt></trkpt>
<trkpt lat="58.772245" lon="05.713295"><ele>30</ele><time>2012-03-25T15:29:25Z</time><cmt>0.4 kmh</cmt></trkpt>
<trkpt lat="58.772245" lon="05.713293"><ele>30</ele><time>2012-03-25T15:29:25Z</time><cmt>0.4 kmh</cmt></trkpt>
<trkpt lat="58.772244" lon="05.713292"><ele>30</ele><time>2012-03-25T15:29:26Z</time><cmt>0.5 kmh</cmt></trkpt>
<trkpt lat="58.772243" lon="05.713291"><ele>30</ele><time>2012-03-25T15:29:27Z</time><cmt>0.4 kmh</cmt></trkpt>
<trkpt lat="58.772243" lon="05.713290"><ele>30</ele><time>2012-03-25T15:29:29Z</time><cmt>0.1 kmh</cmt></trkpt>
<trkpt lat="58.772243" lon="05.713292"><ele>30</ele><time>2012-03-25T15:29:30Z</time><cmt>0.2 kmh</cmt></trkpt>
<trkpt lat="58.772243" lon="05.713293"><ele>30</ele><time>2012-03-25T15:29:31Z</time><cmt>0.4 kmh</cmt></trkpt>
<trkpt lat="58.772242" lon="05.713291"><ele>30</ele><time>2012-03-25T15:29:31Z</time><cmt>0.4 kmh</cmt></trkpt>
<trkpt lat="58.772241" lon="05.713288"><ele>30</ele><time>2012-03-25T15:29:32Z</time><cmt>0.6 kmh</cmt></trkpt>
<trkpt lat="58.772240" lon="05.713285"><ele>30</ele><time>2012-03-25T15:29:33Z</time><cmt>0.6 kmh</cmt></trkpt>
<trkpt lat="58.772239" lon="05.713283"><ele>30</ele><time>2012-03-25T15:29:35Z</time><cmt>0.3 kmh</cmt></trkpt>
<trkpt lat="58.772239" lon="05.713282"><ele>30</ele><time>2012-03-25T15:29:36Z</time><cmt>0.1 kmh</cmt></trkpt>
<trkpt lat="58.772239" lon="05.713283"><ele>30</ele><time>2012-03-25T15:29:37Z</time><cmt>0.2 kmh</cmt></trkpt>
<trkpt lat="58.772238" lon="05.713283"><ele>30</ele><time>2012-03-25T15:29:37Z</time><cmt>0.0 kmh</cmt></trkpt>
<trkpt lat="58.772238" lon="05.713283"><ele>30</ele><time>2012-03-25T15:29:38Z</time><cmt>0.0 kmh</cmt></trkpt>
<trkpt lat="58.772238" lon="05.713285"><ele>30</ele><time>2012-03-25T15:29:39Z</time><cmt>0.0 kmh</cmt></trkpt>
<trkpt lat="58.772238" lon="05.713286"><ele>30</ele><time>2012-03-25T15:29:40Z</time><cmt>0.0 kmh</cmt></trkpt>
<trkpt lat="58.772237" lon="05.713287"><ele>30</ele><time>2012-03-25T15:29:42Z</time><cmt>0.1 kmh</cmt></trkpt>
<trkpt lat="58.772237" lon="05.713288"><ele>30</ele><time>2012-03-25T15:29:43Z</time><cmt>0.1 kmh</cmt></trkpt>
<trkpt lat="58.772237" lon="05.713289"><ele>30</ele><time>2012-03-25T15:29:44Z</time><cmt>0.0 kmh</cmt></trkpt>
<trkpt lat="58.772237" lon="05.713291"><ele>30</ele><time>2012-03-25T15:29:44Z</time><cmt>0.2 kmh</cmt></trkpt>
<trkpt lat="58.772237" lon="05.713292"><ele>30</ele><time>2012-03-25T15:29:45Z</time><cmt>0.2 kmh</cmt></trkpt>
<trkpt lat="58.772237" lon="05.713293"><ele>30</ele><time>2012-03-25T15:29:46Z</time><cmt>0.0 kmh</cmt></trkpt>
<trkpt lat="58.772236" lon="05.713294"><ele>30</ele><time>2012-03-25T15:29:48Z</time><cmt>0.0 kmh</cmt></trkpt>
<trkpt lat="58.772236" lon="05.713295"><ele>30</ele><time>2012-03-25T15:29:49Z</time><cmt>0.1 kmh</cmt></trkpt>
<trkpt lat="58.772236" lon="05.713296"><ele>30</ele><time>2012-03-25T15:29:50Z</time><cmt>0.2 kmh</cmt></trkpt>
<trkpt lat="58.772236" lon="05.713297"><ele>30</ele><time>2012-03-25T15:29:50Z</time><cmt>0.0 kmh</cmt></trkpt>
<trkpt lat="58.772235" lon="05.713298"><ele>30</ele><time>2012-03-25T15:29:51Z</time><cmt>0.0 kmh</cmt></trkpt>
<trkpt lat="58.772235" lon="05.713298"><ele>30</ele><time>2012-03-25T15:29:52Z</time><cmt>0.0 kmh</cmt></trkpt>
<trkpt lat="58.772235" lon="05.713299"><ele>30</ele><time>2012-03-25T15:29:54Z</time><cmt>0.0 kmh</cmt></trkpt>
<trkpt lat="58.772235" lon="05.713300"><ele>30</ele><time>2012-03-25T15:29:55Z</time><cmt>0.1 kmh</cmt></trkpt>
<trkpt lat="58.772234" lon="05.713300"><ele>30</ele><time>2012-03-25T15:29:56Z</time><cmt>0.4 kmh</cmt></trkpt>
<trkpt lat="58.772234" lon="05.713301"><ele>30</ele><time>2012-03-25T15:29:56Z</time><cmt>0.2 kmh</cmt></trkpt>
<trkpt lat="58.772234" lon="05.713301"><ele>30</ele><time>2012-03-25T15:29:57Z</time><cmt>0.0 kmh</cmt></trkpt>
<trkpt lat="58.772234" lon="05.713302"><ele>30</ele><time>2012-03-25T15:29:58Z</time><cmt>0.0 kmh</cmt></trkpt>
<trkpt lat="58.772234" lon="05.713302"><ele>30</ele><time>2012-03-25T15:30:00Z</time><cmt>0.1 kmh</cmt></trkpt>
<trkpt lat="58.772233" lon="05.713302"><ele>30</ele><time>2012-03-25T15:30:01Z</time><cmt>0.3 kmh</cmt></trkpt>
<trkpt lat="58.772233" lon="05.713302"><ele>30</ele><time>2012-03-25T15:30:02Z</time><cmt>0.4 kmh</cmt></trkpt>
<trkpt lat="58.772233" lon="05.713302"><ele>30</ele><time>2012-03-25T15:30:02Z</time><cmt>0.3 kmh</cmt></trkpt>
<trkpt lat="58.772233" lon="05.713303"><ele>30</ele><time>2012-03-25T15:30:03Z</time><cmt>0.2 kmh</cmt></trkpt>
<trkpt lat="58.772233" lon="05.713303"><ele>30</ele><time>2012-03-25T15:30:04Z</time><cmt>0.2 kmh</cmt></trkpt>
<trkpt lat="58.772232" lon="05.713303"><ele>30</ele><time>2012-03-25T15:30:06Z</time><cmt>0.0 kmh</cmt></trkpt>
<trkpt lat="58.772232" lon="05.713304"><ele>30</ele><time>2012-03-25T15:30:07Z</time><cmt>0.0 kmh</cmt></trkpt>
<trkpt lat="58.772232" lon="05.713304"><ele>30</ele><time>2012-03-25T15:30:08Z</time><cmt>0.2 kmh</cmt></trkpt>
<trkpt lat="58.772232" lon="05.713304"><ele>30</ele><time>2012-03-25T15:30:08Z</time><cmt>0.2 kmh</cmt></trkpt>
<trkpt lat="58.772231" lon="05.713304"><ele>30</ele><time>2012-03-25T15:30:09Z</time><cmt>0.0 kmh</cmt></trkpt>
<trkpt lat="58.772231" lon="05.713305"><ele>30</ele><time>2012-03-25T15:30:10Z</time><cmt>0.0 kmh</cmt></trkpt>
<trkpt lat="58.772231" lon="05.713305"><ele>30</ele><time>2012-03-25T15:30:11Z</time><cmt>0.0 kmh</cmt></trkpt>
<trkpt lat="58.772231" lon="05.713305"><ele>30</ele><time>2012-03-25T15:30:13Z</time><cmt>0.0 kmh</cmt></trkpt>
<trkpt lat="58.772230" lon="05.713305"><ele>30</ele><time>2012-03-25T15:30:14Z</time><cmt>0.0 kmh</cmt></trkpt>
<trkpt lat="58.772230" lon="05.713305"><ele>30</ele><time>2012-03-25T15:30:15Z</time><cmt>0.0 kmh</cmt></trkpt>
<trkpt lat="58.772230" lon="05.713304"><ele>30</ele><time>2012-03-25T15:30:15Z</time><cmt>0.0 kmh</cmt></trkpt>
<trkpt lat="58.772230" lon="05.713304"><ele>30</ele><time>2012-03-25T15:30:16Z</time><cmt>0.0 kmh</cmt></trkpt>
<trkpt lat="58.772229" lon="05.713305"><ele>30</ele><time>2012-03-25T15:30:17Z</time><cmt>0.0 kmh</cmt></trkpt>
<trkpt lat="58.772228" lon="05.713305"><ele>30</ele><time>2012-03-25T15:30:19Z</time><cmt>0.0 kmh</cmt></trkpt>
<trkpt lat="58.772228" lon="05.713306"><ele>30</ele><time>2012-03-25T15:30:20Z</time><cmt>0.0 kmh</cmt></trkpt>
<trkpt lat="58.772228" lon="05.713306"><ele>30</ele><time>2012-03-25T15:30:21Z</time><cmt>0.0 kmh</cmt></trkpt>
<trkpt lat="58.772227" lon="05.713306"><ele>30</ele><time>2012-03-25T15:30:21Z</time><cmt>0.2 kmh</cmt></trkpt>
<trkpt lat="58.772227" lon="05.713306"><ele>30</ele><time>2012-03-25T15:30:22Z</time><cmt>0.2 kmh</cmt></trkpt>
<trkpt lat="58.772227" lon="05.713307"><ele>30</ele><time>2012-03-25T15:30:23Z</time><cmt>0.0 kmh</cmt></trkpt>
<trkpt lat="58.772226" lon="05.713307"><ele>30</ele><time>2012-03-25T15:30:25Z</time><cmt>0.0 kmh</cmt></trkpt>
<trkpt lat="58.772226" lon="05.713306"><ele>30</ele><time>2012-03-25T15:30:26Z</time><cmt>0.0 kmh</cmt></trkpt>
<trkpt lat="58.772224" lon="05.713302"><ele>30</ele><time>2012-03-25T15:30:27Z</time><cmt>0.5 kmh</cmt></trkpt>
<trkpt lat="58.772223" lon="05.713299"><ele>30</ele><time>2012-03-25T15:30:27Z</time><cmt>1.0 kmh</cmt></trkpt>
<trkpt lat="58.772222" lon="05.713298"><ele>30</ele><time>2012-03-25T15:30:28Z</time><cmt>0.7 kmh</cmt></trkpt>
<trkpt lat="58.772221" lon="05.713296"><ele>30</ele><time>2012-03-25T15:30:29Z</time><cmt>0.5 kmh</cmt></trkpt>
<trkpt lat="58.772220" lon="05.713295"><ele>30</ele><time>2012-03-25T15:30:31Z</time><cmt>0.4 kmh</cmt></trkpt>
<trkpt lat="58.772220" lon="05.713294"><ele>30</ele><time>2012-03-25T15:30:32Z</time><cmt>0.4 kmh</cmt></trkpt>
<trkpt lat="58.772219" lon="05.713293"><ele>30</ele><time>2012-03-25T15:30:33Z</time><cmt>0.5 kmh</cmt></trkpt>
<trkpt lat="58.772218" lon="05.713293"><ele>30</ele><time>2012-03-25T15:30:33Z</time><cmt>0.4 kmh</cmt></trkpt>
<trkpt lat="58.772217" lon="05.713292"><ele>30</ele><time>2012-03-25T15:30:34Z</time><cmt>0.2 kmh</cmt></trkpt>
<trkpt lat="58.772217" lon="05.713291"><ele>30</ele><time>2012-03-25T15:30:35Z</time><cmt>0.0 kmh</cmt></trkpt>
<trkpt lat="58.772216" lon="05.713291"><ele>30</ele><time>2012-03-25T15:30:37Z</time><cmt>0.0 kmh</cmt></trkpt>
<trkpt lat="58.772216" lon="05.713291"><ele>30</ele><time>2012-03-25T15:30:38Z</time><cmt>0.0 kmh</cmt></trkpt>
<trkpt lat="58.772215" lon="05.713291"><ele>30</ele><time>2012-03-25T15:30:39Z</time><cmt>0.3 kmh</cmt></trkpt>
<trkpt lat="58.772213" lon="05.713291"><ele>30</ele><time>2012-03-25T15:30:39Z</time><cmt>0.6 kmh</cmt></trkpt>
<trkpt lat="58.772212" lon="05.713291"><ele>30</ele><time>2012-03-25T15:30:40Z</time><cmt>0.6 kmh</cmt></trkpt>
<trkpt lat="58.772211" lon="05.713291"><ele>30</ele><time>2012-03-25T15:30:41Z</time><cmt>0.4 kmh</cmt></trkpt>
<trkpt lat="58.772210" lon="05.713292"><ele>30</ele><time>2012-03-25T15:30:42Z</time><cmt>0.2 kmh</cmt></trkpt>
<trkpt lat="58.772209" lon="05.713292"><ele>30</ele><time>2012-03-25T15:30:44Z</time><cmt>0.1 kmh</cmt></trkpt>
<trkpt lat="58.772208" lon="05.713293"><ele>30</ele><time>2012-03-25T15:30:45Z</time><cmt>0.4 kmh</cmt></trkpt>
<trkpt lat="58.772207" lon="05.713293"><ele>30</ele><time>2012-03-25T15:30:46Z</time><cmt>0.3 kmh</cmt></trkpt>
<trkpt lat="58.772206" lon="05.713294"><ele>30</ele><time>2012-03-25T15:30:46Z</time><cmt>0.3 kmh</cmt></trkpt>
<trkpt lat="58.772205" lon="05.713295"><ele>30</ele><time>2012-03-25T15:30:47Z</time><cmt>0.3 kmh</cmt></trkpt>
<trkpt lat="58.772204" lon="05.713295"><ele>30</ele><time>2012-03-25T15:30:48Z</time><cmt>0.3 kmh</cmt></trkpt>
<trkpt lat="58.772203" lon="05.713296"><ele>30</ele><time>2012-03-25T15:30:50Z</time><cmt>0.4 kmh</cmt></trkpt>
<trkpt lat="58.772203" lon="05.713296"><ele>30</ele><time>2012-03-25T15:30:51Z</time><cmt>0.1 kmh</cmt></trkpt>
<trkpt lat="58.772202" lon="05.713297"><ele>30</ele><time>2012-03-25T15:30:52Z</time><cmt>0.0 kmh</cmt></trkpt>
<trkpt lat="58.772201" lon="05.713298"><ele>30</ele><time>2012-03-25T15:30:52Z</time><cmt>0.0 kmh</cmt></trkpt>
<trkpt lat="58.772201" lon="05.713298"><ele>30</ele><time>2012-03-25T15:30:53Z</time><cmt>0.3 kmh</cmt></trkpt>
<trkpt lat="58.772200" lon="05.713298"><ele>30</ele><time>2012-03-25T15:30:54Z</time><cmt>0.4 kmh</cmt></trkpt>
<trkpt lat="58.772200" lon="05.713299"><ele>30</ele><time>2012-03-25T15:30:56Z</time><cmt>0.1 kmh</cmt></trkpt>
<trkpt lat="58.772200" lon="05.713299"><ele>30</ele><time>2012-03-25T15:30:57Z</time><cmt>0.0 kmh</cmt></trkpt>
<trkpt lat="58.772200" lon="05.713300"><ele>30</ele><time>2012-03-25T15:30:58Z</time><cmt>0.0 kmh</cmt></trkpt>
<trkpt lat="58.772200" lon="05.713301"><ele>30</ele><time>2012-03-25T15:30:58Z</time><cmt>0.0 kmh</cmt></trkpt>
<trkpt lat="58.772200" lon="05.713301"><ele>30</ele><time>2012-03-25T15:30:59Z</time><cmt>0.0 kmh</cmt></trkpt>
<trkpt lat="58.772200" lon="05.713302"><ele>30</ele><time>2012-03-25T15:31:00Z</time><cmt>0.2 kmh</cmt></trkpt>
<trkpt lat="58.772200" lon="05.713302"><ele>30</ele><time>2012-03-25T15:31:02Z</time><cmt>0.1 kmh</cmt></trkpt>
<trkpt lat="58.772200" lon="05.713303"><ele>30</ele><time>2012-03-25T15:31:03Z</time><cmt>0.0 kmh</cmt></trkpt>
<trkpt lat="58.772200" lon="05.713303"><ele>30</ele><time>2012-03-25T15:31:04Z</time><cmt>0.0 kmh</cmt></trkpt>
<trkpt lat="58.772199" lon="05.713304"><ele>30</ele><time>2012-03-25T15:31:04Z</time><cmt>0.0 kmh</cmt></trkpt>
<trkpt lat="58.772199" lon="05.713305"><ele>30</ele><time>2012-03-25T15:31:05Z</time><cmt>0.0 kmh</cmt></trkpt>
<trkpt lat="58.772199" lon="05.713305"><ele>30</ele><time>2012-03-25T15:31:06Z</time><cmt>0.0 kmh</cmt></trkpt>
<trkpt lat="58.772200" lon="05.713306"><ele>30</ele><time>2012-03-25T15:31:08Z</time><cmt>0.0 kmh</cmt></trkpt>
<trkpt lat="58.772200" lon="05.713306"><ele>30</ele><time>2012-03-25T15:31:09Z</time><cmt>0.0 kmh</cmt></trkpt>
<trkpt lat="58.772200" lon="05.713307"><ele>30</ele><time>2012-03-25T15:31:10Z</time><cmt>0.0 kmh</cmt></trkpt>
<trkpt lat="58.772200" lon="05.713308"><ele>30</ele><time>2012-03-25T15:31:10Z</time><cmt>0.0 kmh</cmt></trkpt>
<trkpt lat="58.772200" lon="05.713308"><ele>30</ele><time>2012-03-25T15:31:11Z</time><cmt>0.0 kmh</cmt></trkpt>
<trkpt lat="58.772200" lon="05.713309"><ele>30</ele><time>2012-03-25T15:31:12Z</time><cmt>0.0 kmh</cmt></trkpt>
<trkpt lat="58.772200" lon="05.713309"><ele>30</ele><time>2012-03-25T15:31:13Z</time><cmt>0.0 kmh</cmt></trkpt>
<trkpt lat="58.772200" lon="05.713310"><ele>30</ele><time>2012-03-25T15:31:15Z</time><cmt>0.2 kmh</cmt></trkpt>
<trkpt lat="58.772200" lon="05.713311"><ele>30</ele><time>2012-03-25T15:31:16Z</time><cmt>0.2 kmh</cmt></trkpt>
<trkpt lat="58.772200" lon="05.713311"><ele>30</ele><time>2012-03-25T15:31:17Z</time><cmt>0.0 kmh</cmt></trkpt>
<trkpt lat="58.772200" lon="05.713312"><ele>30</ele><time>2012-03-25T15:31:17Z</time><cmt>0.0 kmh</cmt></trkpt>
<trkpt lat="58.772199" lon="05.713313"><ele>30</ele><time>2012-03-25T15:31:18Z</time><cmt>0.2 kmh</cmt></trkpt>
<trkpt lat="58.772199" lon="05.713314"><ele>30</ele><time>2012-03-25T15:31:19Z</time><cmt>0.2 kmh</cmt></trkpt>
<trkpt lat="58.772199" lon="05.713315"><ele>30</ele><time>2012-03-25T15:31:21Z</time><cmt>0.0 kmh</cmt></trkpt>
<trkpt lat="58.772199" lon="05.713315"><ele>30</ele><time>2012-03-25T15:31:22Z</time><cmt>0.0 kmh</cmt></trkpt>
<trkpt lat="58.772199" lon="05.713316"><ele>30</ele><time>2012-03-25T15:31:23Z</time><cmt>0.3 kmh</cmt></trkpt>
<trkpt lat="58.772199" lon="05.713317"><ele>30</ele><time>2012-03-25T15:31:23Z</time><cmt>0.3 kmh</cmt></trkpt>
<trkpt lat="58.772199" lon="05.713317"><ele>30</ele><time>2012-03-25T15:31:24Z</time><cmt>0.2 kmh</cmt></trkpt>
<trkpt lat="58.772199" lon="05.713318"><ele>30</ele><time>2012-03-25T15:31:25Z</time><cmt>0.4 kmh</cmt></trkpt>
<trkpt lat="58.772199" lon="05.713319"><ele>30</ele><time>2012-03-25T15:31:27Z</time><cmt>0.1 kmh</cmt></trkpt>
<trkpt lat="58.772199" lon="05.713319"><ele>30</ele><time>2012-03-25T15:31:28Z</time><cmt>0.0 kmh</cmt></trkpt>
<trkpt lat="58.772199" lon="05.713320"><ele>30</ele><time>2012-03-25T15:31:29Z</time><cmt>0.0 kmh</cmt></trkpt>
<trkpt lat="58.772199" lon="05.713321"><ele>30</ele><time>2012-03-25T15:31:29Z</time><cmt>0.0 kmh</cmt></trkpt>
<trkpt lat="58.772199" lon="05.713322"><ele>30</ele><time>2012-03-25T15:31:30Z</time><cmt>0.0 kmh</cmt></trkpt>
<trkpt lat="58.772199" lon="05.713322"><ele>30</ele><time>2012-03-25T15:31:31Z</time><cmt>0.0 kmh</cmt></trkpt>
<trkpt lat="58.772199" lon="05.713323"><ele>30</ele><time>2012-03-25T15:31:33Z</time><cmt>0.0 kmh</cmt></trkpt>
<trkpt lat="58.772199" lon="05.713323"><ele>30</ele><time>2012-03-25T15:31:34Z</time><cmt>0.0 kmh</cmt></trkpt>
<trkpt lat="58.772199" lon="05.713324"><ele>30</ele><time>2012-03-25T15:31:35Z</time><cmt>0.0 kmh</cmt></trkpt>
<trkpt lat="58.772199" lon="05.713324"><ele>30</ele><time>2012-03-25T15:31:35Z</time><cmt>0.0 kmh</cmt></trkpt>
<trkpt lat="58.772199" lon="05.713325"><ele>30</ele><time>2012-03-25T15:31:36Z</time><cmt>0.0 kmh</cmt></trkpt>
<trkpt lat="58.772199" lon="05.713326"><ele>30</ele><time>2012-03-25T15:31:37Z</time><cmt>0.0 kmh</cmt></trkpt>
<trkpt lat="58.772198" lon="05.713327"><ele>30</ele><time>2012-03-25T15:31:39Z</time><cmt>0.0 kmh</cmt></trkpt>
<trkpt lat="58.772198" lon="05.713328"><ele>30</ele><time>2012-03-25T15:31:40Z</time><cmt>0.0 kmh</cmt></trkpt>
<trkpt lat="58.772198" lon="05.713329"><ele>30</ele><time>2012-03-25T15:31:41Z</time><cmt>0.0 kmh</cmt></trkpt>
<trkpt lat="58.772198" lon="05.713329"><ele>30</ele><time>2012-03-25T15:31:41Z</time><cmt>0.0 kmh</cmt></trkpt>
<trkpt lat="58.772198" lon="05.713330"><ele>30</ele><time>2012-03-25T15:31:42Z</time><cmt>0.0 kmh</cmt></trkpt>
<trkpt lat="58.772198" lon="05.713331"><ele>30</ele><time>2012-03-25T15:31:43Z</time><cmt>0.0 kmh</cmt></trkpt>
<trkpt lat="58.772197" lon="05.713332"><ele>30</ele><time>2012-03-25T15:31:45Z</time><cmt>0.0 kmh</cmt></trkpt>
<trkpt lat="58.772197" lon="05.713333"><ele>30</ele><time>2012-03-25T15:31:46Z</time><cmt>0.0 kmh</cmt></trkpt>
<trkpt lat="58.772196" lon="05.713334"><ele>30</ele><time>2012-03-25T15:31:47Z</time><cmt>0.0 kmh</cmt></trkpt>
<trkpt lat="58.772196" lon="05.713335"><ele>30</ele><time>2012-03-25T15:31:48Z</time><cmt>0.3 kmh</cmt></trkpt>
<trkpt lat="58.772196" lon="05.713336"><ele>30</ele><time>2012-03-25T15:31:48Z</time><cmt>0.4 kmh</cmt></trkpt>
<trkpt lat="58.772196" lon="05.713336"><ele>30</ele><time>2012-03-25T15:31:49Z</time><cmt>0.2 kmh</cmt></trkpt>
<trkpt lat="58.772196" lon="05.713337"><ele>30</ele><time>2012-03-25T15:31:50Z</time><cmt>0.2 kmh</cmt></trkpt>
<trkpt lat="58.772196" lon="05.713337"><ele>30</ele><time>2012-03-25T15:31:52Z</time><cmt>0.1 kmh</cmt></trkpt>
<trkpt lat="58.772197" lon="05.713337"><ele>30</ele><time>2012-03-25T15:31:53Z</time><cmt>0.0 kmh</cmt></trkpt>
<trkpt lat="58.772196" lon="05.713338"><ele>30</ele><time>2012-03-25T15:31:54Z</time><cmt>0.0 kmh</cmt></trkpt>
<trkpt lat="58.772196" lon="05.713340"><ele>30</ele><time>2012-03-25T15:31:54Z</time><cmt>0.0 kmh</cmt></trkpt>
<trkpt lat="58.772196" lon="05.713341"><ele>30</ele><time>2012-03-25T15:31:55Z</time><cmt>0.3 kmh</cmt></trkpt>
<trkpt lat="58.772196" lon="05.713342"><ele>30</ele><time>2012-03-25T15:31:56Z</time><cmt>0.3 kmh</cmt></trkpt>
<trkpt lat="58.772195" lon="05.713343"><ele>30</ele><time>2012-03-25T15:31:58Z</time><cmt>0.0 kmh</cmt></trkpt>
<trkpt lat="58.772195" lon="05.713345"><ele>30</ele><time>2012-03-25T15:31:59Z</time><cmt>0.0 kmh</cmt></trkpt>
<trkpt lat="58.772195" lon="05.713346"><ele>30</ele><time>2012-03-25T15:32:00Z</time><cmt>0.3 kmh</cmt></trkpt>
<trkpt lat="58.772194" lon="05.713348"><ele>30</ele><time>2012-03-25T15:32:00Z</time><cmt>0.6 kmh</cmt></trkpt>
<trkpt lat="58.772194" lon="05.713349"><ele>30</ele><time>2012-03-25T15:32:01Z</time><cmt>0.4 kmh</cmt></trkpt>
<trkpt lat="58.772194" lon="05.713350"><ele>30</ele><time>2012-03-25T15:32:02Z</time><cmt>0.4 kmh</cmt></trkpt>
<trkpt lat="58.772194" lon="05.713351"><ele>30</ele><time>2012-03-25T15:32:04Z</time><cmt>0.1 kmh</cmt></trkpt>
<trkpt lat="58.772194" lon="05.713352"><ele>30</ele><time>2012-03-25T15:32:05Z</time><cmt>0.0 kmh</cmt></trkpt>
<trkpt lat="58.772194" lon="05.713353"><ele>30</ele><time>2012-03-25T15:32:06Z</time><cmt>0.0 kmh</cmt></trkpt>
<trkpt lat="58.772194" lon="05.713354"><ele>30</ele><time>2012-03-25T15:32:06Z</time><cmt>0.0 kmh</cmt></trkpt>
<trkpt lat="58.772194" lon="05.713355"><ele>30</ele><time>2012-03-25T15:32:07Z</time><cmt>0.0 kmh</cmt></trkpt>
<trkpt lat="58.772194" lon="05.713356"><ele>30</ele><time>2012-03-25T15:32:08Z</time><cmt>0.0 kmh</cmt></trkpt>
<trkpt lat="58.772194" lon="05.713357"><ele>30</ele><time>2012-03-25T15:32:10Z</time><cmt>0.0 kmh</cmt></trkpt>
<trkpt lat="58.772194" lon="05.713358"><ele>30</ele><time>2012-03-25T15:32:11Z</time><cmt>0.0 kmh</cmt></trkpt>
<trkpt lat="58.772194" lon="05.713359"><ele>30</ele><time>2012-03-25T15:32:12Z</time><cmt>0.0 kmh</cmt></trkpt>
<trkpt lat="58.772194" lon="05.713360"><ele>30</ele><time>2012-03-25T15:32:12Z</time><cmt>0.2 kmh</cmt></trkpt>
<trkpt lat="58.772193" lon="05.713362"><ele>30</ele><time>2012-03-25T15:32:13Z</time><cmt>0.4 kmh</cmt></trkpt>
<trkpt lat="58.772192" lon="05.713363"><ele>30</ele><time>2012-03-25T15:32:14Z</time><cmt>0.4 kmh</cmt></trkpt>
<trkpt lat="58.772192" lon="05.713365"><ele>30</ele><time>2012-03-25T15:32:16Z</time><cmt>0.4 kmh</cmt></trkpt>
<trkpt lat="58.772192" lon="05.713367"><ele>30</ele><time>2012-03-25T15:32:17Z</time><cmt>0.2 kmh</cmt></trkpt>
<trkpt lat="58.772191" lon="05.713369"><ele>30</ele><time>2012-03-25T15:32:18Z</time><cmt>0.3 kmh</cmt></trkpt>
<trkpt lat="58.772191" lon="05.713370"><ele>30</ele><time>2012-03-25T15:32:18Z</time><cmt>0.4 kmh</cmt></trkpt>
<trkpt lat="58.772191" lon="05.713372"><ele>30</ele><time>2012-03-25T15:32:19Z</time><cmt>0.2 kmh</cmt></trkpt>
<trkpt lat="58.772191" lon="05.713373"><ele>30</ele><time>2012-03-25T15:32:20Z</time><cmt>0.3 kmh</cmt></trkpt>
<trkpt lat="58.772190" lon="05.713375"><ele>30</ele><time>2012-03-25T15:32:21Z</time><cmt>0.5 kmh</cmt></trkpt>
<trkpt lat="58.772190" lon="05.713376"><ele>30</ele><time>2012-03-25T15:32:23Z</time><cmt>0.4 kmh</cmt></trkpt>
<trkpt lat="58.772190" lon="05.713378"><ele>30</ele><time>2012-03-25T15:32:24Z</time><cmt>0.4 kmh</cmt></trkpt>
<trkpt lat="58.772190" lon="05.713380"><ele>30</ele><time>2012-03-25T15:32:25Z</time><cmt>0.2 kmh</cmt></trkpt>
<trkpt lat="58.772190" lon="05.713380"><ele>30</ele><time>2012-03-25T15:32:25Z</time><cmt>0.0 kmh</cmt></trkpt>
<trkpt lat="58.772190" lon="05.713381"><ele>30</ele><time>2012-03-25T15:32:26Z</time><cmt>0.0 kmh</cmt></trkpt>
<trkpt lat="58.772190" lon="05.713383"><ele>29</ele><time>2012-03-25T15:32:27Z</time><cmt>0.2 kmh</cmt></trkpt>
<trkpt lat="58.772189" lon="05.713385"><ele>29</ele><time>2012-03-25T15:32:29Z</time><cmt>0.3 kmh</cmt></trkpt>
<trkpt lat="58.772189" lon="05.713387"><ele>29</ele><time>2012-03-25T15:32:30Z</time><cmt>0.4 kmh</cmt></trkpt>
<trkpt lat="58.772189" lon="05.713388"><ele>29</ele><time>2012-03-25T15:32:31Z</time><cmt>0.5 kmh</cmt></trkpt>
<trkpt lat="58.772188" lon="05.713391"><ele>29</ele><time>2012-03-25T15:32:31Z</time><cmt>0.7 kmh</cmt></trkpt>
<trkpt lat="58.772187" lon="05.713393"><ele>29</ele><time>2012-03-25T15:32:32Z</time><cmt>0.7 kmh</cmt></trkpt>
<trkpt lat="58.772187" lon="05.713394"><ele>29</ele><time>2012-03-25T15:32:33Z</time><cmt>0.3 kmh</cmt></trkpt>
<trkpt lat="58.772188" lon="05.713395"><ele>29</ele><time>2012-03-25T15:32:35Z</time><cmt>0.0 kmh</cmt></trkpt>
<trkpt lat="58.772187" lon="05.713399"><ele>29</ele><time>2012-03-25T15:32:36Z</time><cmt>0.3 kmh</cmt></trkpt>
<trkpt lat="58.772184" lon="05.713404"><ele>29</ele><time>2012-03-25T15:32:37Z</time><cmt>1.2 kmh</cmt></trkpt>
<trkpt lat="58.772181" lon="05.713412"><ele>29</ele><time>2012-03-25T15:32:37Z</time><cmt>2.0 kmh</cmt></trkpt>
<trkpt lat="58.772175" lon="05.713421"><ele>29</ele><time>2012-03-25T15:32:38Z</time><cmt>2.8 kmh</cmt></trkpt>
<trkpt lat="58.772169" lon="05.713430"><ele>29</ele><time>2012-03-25T15:32:39Z</time><cmt>3.3 kmh</cmt></trkpt>
<trkpt lat="58.772161" lon="05.713438"><ele>29</ele><time>2012-03-25T15:32:41Z</time><cmt>2.9 kmh</cmt></trkpt>
<trkpt lat="58.772153" lon="05.713446"><ele>28</ele><time>2012-03-25T15:32:42Z</time><cmt>3.0 kmh</cmt></trkpt>
<trkpt lat="58.772145" lon="05.713451"><ele>28</ele><time>2012-03-25T15:32:43Z</time><cmt>3.9 kmh</cmt></trkpt>
<trkpt lat="58.772134" lon="05.713455"><ele>28</ele><time>2012-03-25T15:32:43Z</time><cmt>4.2 kmh</cmt></trkpt>
<trkpt lat="58.772123" lon="05.713458"><ele>28</ele><time>2012-03-25T15:32:44Z</time><cmt>5.2 kmh</cmt></trkpt>
<trkpt lat="58.772110" lon="05.713458"><ele>28</ele><time>2012-03-25T15:32:45Z</time><cmt>5.4 kmh</cmt></trkpt>
<trkpt lat="58.772096" lon="05.713455"><ele>28</ele><time>2012-03-25T15:32:47Z</time><cmt>5.9 kmh</cmt></trkpt>
<trkpt lat="58.772080" lon="05.713449"><ele>28</ele><time>2012-03-25T15:32:48Z</time><cmt>6.8 kmh</cmt></trkpt>
<trkpt lat="58.772063" lon="05.713442"><ele>28</ele><time>2012-03-25T15:32:49Z</time><cmt>7.7 kmh</cmt></trkpt>
<trkpt lat="58.772044" lon="05.713435"><ele>28</ele><time>2012-03-25T15:32:49Z</time><cmt>8.0 kmh</cmt></trkpt>
<trkpt lat="58.772026" lon="05.713428"><ele>28</ele><time>2012-03-25T15:32:50Z</time><cmt>8.2 kmh</cmt></trkpt>
<trkpt lat="58.772006" lon="05.713419"><ele>28</ele><time>2012-03-25T15:32:51Z</time><cmt>8.6 kmh</cmt></trkpt>
<trkpt lat="58.771985" lon="05.713409"><ele>28</ele><time>2012-03-25T15:32:52Z</time><cmt>8.9 kmh</cmt></trkpt>
<trkpt lat="58.771963" lon="05.713397"><ele>28</ele><time>2012-03-25T15:32:54Z</time><cmt>9.3 kmh</cmt></trkpt>
<trkpt lat="58.771940" lon="05.713385"><ele>28</ele><time>2012-03-25T15:32:55Z</time><cmt>9.4 kmh</cmt></trkpt>
<trkpt lat="58.771919" lon="05.713374"><ele>28</ele><time>2012-03-25T15:32:56Z</time><cmt>8.6 kmh</cmt></trkpt>
<trkpt lat="58.771898" lon="05.713363"><ele>28</ele><time>2012-03-25T15:32:56Z</time><cmt>8.3 kmh</cmt></trkpt>
<trkpt lat="58.771878" lon="05.713351"><ele>28</ele><time>2012-03-25T15:32:57Z</time><cmt>8.1 kmh</cmt></trkpt>
<trkpt lat="58.771859" lon="05.713340"><ele>28</ele><time>2012-03-25T15:32:58Z</time><cmt>7.8 kmh</cmt></trkpt>
<trkpt lat="58.771840" lon="05.713329"><ele>28</ele><time>2012-03-25T15:33:00Z</time><cmt>7.7 kmh</cmt></trkpt>
<trkpt lat="58.771821" lon="05.713317"><ele>28</ele><time>2012-03-25T15:33:01Z</time><cmt>8.0 kmh</cmt></trkpt>
<trkpt lat="58.771801" lon="05.713304"><ele>28</ele><time>2012-03-25T15:33:02Z</time><cmt>8.0 kmh</cmt></trkpt>
<trkpt lat="58.771782" lon="05.713291"><ele>28</ele><time>2012-03-25T15:33:02Z</time><cmt>7.9 kmh</cmt></trkpt>
<trkpt lat="58.771763" lon="05.713279"><ele>28</ele><time>2012-03-25T15:33:03Z</time><cmt>8.1 kmh</cmt></trkpt>
<trkpt lat="58.771743" lon="05.713268"><ele>28</ele><time>2012-03-25T15:33:04Z</time><cmt>8.1 kmh</cmt></trkpt>
<trkpt lat="58.771723" lon="05.713257"><ele>28</ele><time>2012-03-25T15:33:06Z</time><cmt>8.0 kmh</cmt></trkpt>
<trkpt lat="58.771704" lon="05.713247"><ele>28</ele><time>2012-03-25T15:33:07Z</time><cmt>7.9 kmh</cmt></trkpt>
<trkpt lat="58.771685" lon="05.713237"><ele>28</ele><time>2012-03-25T15:33:08Z</time><cmt>7.8 kmh</cmt></trkpt>
<trkpt lat="58.771666" lon="05.713228"><ele>28</ele><time>2012-03-25T15:33:08Z</time><cmt>7.9 kmh</cmt></trkpt>
<trkpt lat="58.771646" lon="05.713220"><ele>28</ele><time>2012-03-25T15:33:09Z</time><cmt>7.8 kmh</cmt></trkpt>
<trkpt lat="58.771627" lon="05.713212"><ele>28</ele><time>2012-03-25T15:33:10Z</time><cmt>7.7 kmh</cmt></trkpt>
<trkpt lat="58.771608" lon="05.713204"><ele>28</ele><time>2012-03-25T15:33:12Z</time><cmt>7.7 kmh</cmt></trkpt>
<trkpt lat="58.771589" lon="05.713197"><ele>28</ele><time>2012-03-25T15:33:13Z</time><cmt>8.0 kmh</cmt></trkpt>
<trkpt lat="58.771569" lon="05.713189"><ele>27</ele><time>2012-03-25T15:33:14Z</time><cmt>7.9 kmh</cmt></trkpt>
<trkpt lat="58.771550" lon="05.713182"><ele>27</ele><time>2012-03-25T15:33:14Z</time><cmt>8.2 kmh</cmt></trkpt>
<trkpt lat="58.771529" lon="05.713174"><ele>27</ele><time>2012-03-25T15:33:15Z</time><cmt>8.4 kmh</cmt></trkpt>
<trkpt lat="58.771509" lon="05.713168"><ele>27</ele><time>2012-03-25T15:33:16Z</time><cmt>8.4 kmh</cmt></trkpt>
<trkpt lat="58.771488" lon="05.713161"><ele>27</ele><time>2012-03-25T15:33:18Z</time><cmt>8.4 kmh</cmt></trkpt>
<trkpt lat="58.771467" lon="05.713157"><ele>27</ele><time>2012-03-25T15:33:19Z</time><cmt>8.2 kmh</cmt></trkpt>
<trkpt lat="58.771447" lon="05.713153"><ele>27</ele><time>2012-03-25T15:33:20Z</time><cmt>8.0 kmh</cmt></trkpt>
<trkpt lat="58.771427" lon="05.713148"><ele>27</ele><time>2012-03-25T15:33:20Z</time><cmt>7.8 kmh</cmt></trkpt>
<trkpt lat="58.771408" lon="05.713145"><ele>27</ele><time>2012-03-25T15:33:21Z</time><cmt>7.7 kmh</cmt></trkpt>
<trkpt lat="58.771389" lon="05.713143"><ele>27</ele><time>2012-03-25T15:33:22Z</time><cmt>7.7 kmh</cmt></trkpt>
<trkpt lat="58.771370" lon="05.713140"><ele>27</ele><time>2012-03-25T15:33:23Z</time><cmt>7.7 kmh</cmt></trkpt>
<trkpt lat="58.771351" lon="05.713136"><ele>27</ele><time>2012-03-25T15:33:25Z</time><cmt>7.8 kmh</cmt></trkpt>
<trkpt lat="58.771332" lon="05.713133"><ele>27</ele><time>2012-03-25T15:33:26Z</time><cmt>7.9 kmh</cmt></trkpt>
<trkpt lat="58.771312" lon="05.713129"><ele>27</ele><time>2012-03-25T15:33:27Z</time><cmt>7.7 kmh</cmt></trkpt>
<trkpt lat="58.771293" lon="05.713125"><ele>27</ele><time>2012-03-25T15:33:27Z</time><cmt>7.5 kmh</cmt></trkpt>
<trkpt lat="58.771274" lon="05.713122"><ele>27</ele><time>2012-03-25T15:33:28Z</time><cmt>7.5 kmh</cmt></trkpt>
<trkpt lat="58.771255" lon="05.713118"><ele>27</ele><time>2012-03-25T15:33:29Z</time><cmt>7.5 kmh</cmt></trkpt>
<trkpt lat="58.771236" lon="05.713114"><ele>27</ele><time>2012-03-25T15:33:31Z</time><cmt>7.5 kmh</cmt></trkpt>
<trkpt lat="58.771217" lon="05.713112"><ele>27</ele><time>2012-03-25T15:33:32Z</time><cmt>7.6 kmh</cmt></trkpt>
<trkpt lat="58.771198" lon="05.713109"><ele>27</ele><time>2012-03-25T15:33:33Z</time><cmt>7.6 kmh</cmt></trkpt>
<trkpt lat="58.771179" lon="05.713106"><ele>27</ele><time>2012-03-25T15:33:33Z</time><cmt>7.3 kmh</cmt></trkpt>
<trkpt lat="58.771161" lon="05.713104"><ele>27</ele><time>2012-03-25T15:33:34Z</time><cmt>7.3 kmh</cmt></trkpt>
<trkpt lat="58.771142" lon="05.713102"><ele>27</ele><time>2012-03-25T15:33:35Z</time><cmt>7.4 kmh</cmt></trkpt>
<trkpt lat="58.771124" lon="05.713100"><ele>27</ele><time>2012-03-25T15:33:37Z</time><cmt>7.4 kmh</cmt></trkpt>
<trkpt lat="58.771105" lon="05.713098"><ele>27</ele><time>2012-03-25T15:33:38Z</time><cmt>7.4 kmh</cmt></trkpt>
<trkpt lat="58.771087" lon="05.713095"><ele>27</ele><time>2012-03-25T15:33:39Z</time><cmt>7.4 kmh</cmt></trkpt>
<trkpt lat="58.771068" lon="05.713092"><ele>27</ele><time>2012-03-25T15:33:39Z</time><cmt>7.3 kmh</cmt></trkpt>
<trkpt lat="58.771050" lon="05.713089"><ele>27</ele><time>2012-03-25T15:33:40Z</time><cmt>7.5 kmh</cmt></trkpt>
<trkpt lat="58.771031" lon="05.713086"><ele>27</ele><time>2012-03-25T15:33:41Z</time><cmt>7.3 kmh</cmt></trkpt>
<trkpt lat="58.771012" lon="05.713083"><ele>27</ele><time>2012-03-25T15:33:43Z</time><cmt>7.3 kmh</cmt></trkpt>
<trkpt lat="58.770994" lon="05.713080"><ele>27</ele><time>2012-03-25T15:33:44Z</time><cmt>7.3 kmh</cmt></trkpt>
<trkpt lat="58.770976" lon="05.713077"><ele>27</ele><time>2012-03-25T15:33:45Z</time><cmt>7.3 kmh</cmt></trkpt>
<trkpt lat="58.770957" lon="05.713074"><ele>27</ele><time>2012-03-25T15:33:45Z</time><cmt>7.5 kmh</cmt></trkpt>
<trkpt lat="58.770938" lon="05.713070"><ele>27</ele><time>2012-03-25T15:33:46Z</time><cmt>7.4 kmh</cmt></trkpt>
<trkpt lat="58.770920" lon="05.713067"><ele>27</ele><time>2012-03-25T15:33:47Z</time><cmt>7.4 kmh</cmt></trkpt>
<trkpt lat="58.770901" lon="05.713063"><ele>27</ele><time>2012-03-25T15:33:49Z</time><cmt>7.5 kmh</cmt></trkpt>
<trkpt lat="58.770883" lon="05.713059"><ele>27</ele><time>2012-03-25T15:33:50Z</time><cmt>7.4 kmh</cmt></trkpt>
<trkpt lat="58.770865" lon="05.713055"><ele>27</ele><time>2012-03-25T15:33:51Z</time><cmt>7.4 kmh</cmt></trkpt>
<trkpt lat="58.770846" lon="05.713051"><ele>27</ele><time>2012-03-25T15:33:51Z</time><cmt>7.4 kmh</cmt></trkpt>
<trkpt lat="58.770828" lon="05.713047"><ele>27</ele><time>2012-03-25T15:33:52Z</time><cmt>7.3 kmh</cmt></trkpt>
<trkpt lat="58.770809" lon="05.713042"><ele>27</ele><time>2012-03-25T15:33:53Z</time><cmt>7.4 kmh</cmt></trkpt>
<trkpt lat="58.770791" lon="05.713036"><ele>27</ele><time>2012-03-25T15:33:54Z</time><cmt>7.4 kmh</cmt></trkpt>
<trkpt lat="58.770772" lon="05.713031"><ele>27</ele><time>2012-03-25T15:33:56Z</time><cmt>7.6 kmh</cmt></trkpt>
<trkpt lat="58.770754" lon="05.713026"><ele>27</ele><time>2012-03-25T15:33:57Z</time><cmt>7.5 kmh</cmt></trkpt>
<trkpt lat="58.770735" lon="05.713021"><ele>27</ele><time>2012-03-25T15:33:58Z</time><cmt>7.5 kmh</cmt></trkpt>
<trkpt lat="58.770717" lon="05.713016"><ele>27</ele><time>2012-03-25T15:33:58Z</time><cmt>7.5 kmh</cmt></trkpt>
<trkpt lat="58.770698" lon="05.713011"><ele>27</ele><time>2012-03-25T15:33:59Z</time><cmt>7.5 kmh</cmt></trkpt>
<trkpt lat="58.770680" lon="05.713007"><ele>27</ele><time>2012-03-25T15:34:00Z</time><cmt>7.4 kmh</cmt></trkpt>
<trkpt lat="58.770661" lon="05.713002"><ele>27</ele><time>2012-03-25T15:34:02Z</time><cmt>7.5 kmh</cmt></trkpt>
<trkpt lat="58.770643" lon="05.712997"><ele>27</ele><time>2012-03-25T15:34:03Z</time><cmt>7.6 kmh</cmt></trkpt>
<trkpt lat="58.770624" lon="05.712993"><ele>27</ele><time>2012-03-25T15:34:04Z</time><cmt>7.3 kmh</cmt></trkpt>
<trkpt lat="58.770606" lon="05.712989"><ele>27</ele><time>2012-03-25T15:34:04Z</time><cmt>7.5 kmh</cmt></trkpt>
<trkpt lat="58.770587" lon="05.712983"><ele>27</ele><time>2012-03-25T15:34:05Z</time><cmt>7.4 kmh</cmt></trkpt>
<trkpt lat="58.770568" lon="05.712979"><ele>27</ele><time>2012-03-25T15:34:06Z</time><cmt>7.5 kmh</cmt></trkpt>
<trkpt lat="58.770550" lon="05.712973"><ele>27</ele><time>2012-03-25T15:34:08Z</time><cmt>7.4 kmh</cmt></trkpt>
<trkpt lat="58.770531" lon="05.712967"><ele>27</ele><time>2012-03-25T15:34:09Z</time><cmt>7.6 kmh</cmt></trkpt>
<trkpt lat="58.770512" lon="05.712961"><ele>27</ele><time>2012-03-25T15:34:10Z</time><cmt>7.7 kmh</cmt></trkpt>
<trkpt lat="58.770493" lon="05.712955"><ele>27</ele><time>2012-03-25T15:34:10Z</time><cmt>7.4 kmh</cmt></trkpt>
<trkpt lat="58.770474" lon="05.712949"><ele>27</ele><time>2012-03-25T15:34:11Z</time><cmt>7.4 kmh</cmt></trkpt>
<trkpt lat="58.770456" lon="05.712943"><ele>27</ele><time>2012-03-25T15:34:12Z</time><cmt>7.4 kmh</cmt></trkpt>
<trkpt lat="58.770438" lon="05.712936"><ele>27</ele><time>2012-03-25T15:34:14Z</time><cmt>7.3 kmh</cmt></trkpt>
<trkpt lat="58.770419" lon="05.712930"><ele>27</ele><time>2012-03-25T15:34:15Z</time><cmt>7.5 kmh</cmt></trkpt>
<trkpt lat="58.770401" lon="05.712924"><ele>27</ele><time>2012-03-25T15:34:16Z</time><cmt>7.1 kmh</cmt></trkpt>
<trkpt lat="58.770383" lon="05.712919"><ele>27</ele><time>2012-03-25T15:34:16Z</time><cmt>7.3 kmh</cmt></trkpt>
<trkpt lat="58.770364" lon="05.712913"><ele>27</ele><time>2012-03-25T15:34:17Z</time><cmt>7.5 kmh</cmt></trkpt>
<trkpt lat="58.770345" lon="05.712907"><ele>27</ele><time>2012-03-25T15:34:18Z</time><cmt>7.5 kmh</cmt></trkpt>
<trkpt lat="58.770327" lon="05.712900"><ele>27</ele><time>2012-03-25T15:34:20Z</time><cmt>7.5 kmh</cmt></trkpt>
<trkpt lat="58.770308" lon="05.712893"><ele>27</ele><time>2012-03-25T15:34:21Z</time><cmt>7.7 kmh</cmt></trkpt>
<trkpt lat="58.770289" lon="05.712887"><ele>27</ele><time>2012-03-25T15:34:22Z</time><cmt>7.6 kmh</cmt></trkpt>
<trkpt lat="58.770270" lon="05.712880"><ele>27</ele><time>2012-03-25T15:34:22Z</time><cmt>7.6 kmh</cmt></trkpt>
<trkpt lat="58.770252" lon="05.712873"><ele>27</ele><time>2012-03-25T15:34:23Z</time><cmt>7.4 kmh</cmt></trkpt>
<trkpt lat="58.770233" lon="05.712866"><ele>27</ele><time>2012-03-25T15:34:24Z</time><cmt>7.6 kmh</cmt></trkpt>
<trkpt lat="58.770214" lon="05.712860"><ele>27</ele><time>2012-03-25T15:34:25Z</time><cmt>7.4 kmh</cmt></trkpt>
<trkpt lat="58.770196" lon="05.712853"><ele>27</ele><time>2012-03-25T15:34:27Z</time><cmt>7.3 kmh</cmt></trkpt>
<trkpt lat="58.770177" lon="05.712847"><ele>27</ele><time>2012-03-25T15:34:28Z</time><cmt>7.6 kmh</cmt></trkpt>
<trkpt lat="58.770159" lon="05.712840"><ele>27</ele><time>2012-03-25T15:34:28Z</time><cmt>7.5 kmh</cmt></trkpt>
<trkpt lat="58.770140" lon="05.712834"><ele>27</ele><time>2012-03-25T15:34:29Z</time><cmt>7.8 kmh</cmt></trkpt>
<trkpt lat="58.770120" lon="05.712828"><ele>27</ele><time>2012-03-25T15:34:30Z</time><cmt>7.6 kmh</cmt></trkpt>
<trkpt lat="58.770101" lon="05.712820"><ele>27</ele><time>2012-03-25T15:34:31Z</time><cmt>7.7 kmh</cmt></trkpt>
<trkpt lat="58.770083" lon="05.712813"><ele>27</ele><time>2012-03-25T15:34:33Z</time><cmt>7.5 kmh</cmt></trkpt>
<trkpt lat="58.770064" lon="05.712805"><ele>27</ele><time>2012-03-25T15:34:34Z</time><cmt>7.7 kmh</cmt></trkpt>
<trkpt lat="58.770045" lon="05.712797"><ele>27</ele><time>2012-03-25T15:34:35Z</time><cmt>7.5 kmh</cmt></trkpt>
<trkpt lat="58.770027" lon="05.712790"><ele>27</ele><time>2012-03-25T15:34:35Z</time><cmt>7.6 kmh</cmt></trkpt>
<trkpt lat="58.770009" lon="05.712784"><ele>27</ele><time>2012-03-25T15:34:36Z</time><cmt>7.1 kmh</cmt></trkpt>
<trkpt lat="58.769991" lon="05.712778"><ele>27</ele><time>2012-03-25T15:34:37Z</time><cmt>7.5 kmh</cmt></trkpt>
<trkpt lat="58.769972" lon="05.712771"><ele>27</ele><time>2012-03-25T15:34:39Z</time><cmt>7.5 kmh</cmt></trkpt>
<trkpt lat="58.769953" lon="05.712765"><ele>27</ele><time>2012-03-25T15:34:40Z</time><cmt>7.5 kmh</cmt></trkpt>
<trkpt lat="58.769934" lon="05.712758"><ele>27</ele><time>2012-03-25T15:34:41Z</time><cmt>7.6 kmh</cmt></trkpt>
<trkpt lat="58.769915" lon="05.712752"><ele>27</ele><time>2012-03-25T15:34:41Z</time><cmt>7.6 kmh</cmt></trkpt>
<trkpt lat="58.769896" lon="05.712746"><ele>27</ele><time>2012-03-25T15:34:42Z</time><cmt>7.8 kmh</cmt></trkpt>
<trkpt lat="58.769877" lon="05.712740"><ele>27</ele><time>2012-03-25T15:34:43Z</time><cmt>7.3 kmh</cmt></trkpt>
<trkpt lat="58.769859" lon="05.712735"><ele>27</ele><time>2012-03-25T15:34:45Z</time><cmt>6.8 kmh</cmt></trkpt>
<trkpt lat="58.769842" lon="05.712726"><ele>27</ele><time>2012-03-25T15:34:46Z</time><cmt>6.4 kmh</cmt></trkpt>
<trkpt lat="58.769826" lon="05.712717"><ele>27</ele><time>2012-03-25T15:34:47Z</time><cmt>6.1 kmh</cmt></trkpt>
<trkpt lat="58.769810" lon="05.712707"><ele>27</ele><time>2012-03-25T15:34:47Z</time><cmt>5.8 kmh</cmt></trkpt>
<trkpt lat="58.769796" lon="05.712701"><ele>27</ele><time>2012-03-25T15:34:48Z</time><cmt>5.5 kmh</cmt></trkpt>
<trkpt lat="58.769783" lon="05.712697"><ele>27</ele><time>2012-03-25T15:34:49Z</time><cmt>5.4 kmh</cmt></trkpt>
<trkpt lat="58.769770" lon="05.712696"><ele>27</ele><time>2012-03-25T15:34:51Z</time><cmt>5.1 kmh</cmt></trkpt>
<trkpt lat="58.769758" lon="05.712695"><ele>27</ele><time>2012-03-25T15:34:52Z</time><cmt>5.1 kmh</cmt></trkpt>
<trkpt lat="58.769746" lon="05.712695"><ele>27</ele><time>2012-03-25T15:34:53Z</time><cmt>5.2 kmh</cmt></trkpt>
<trkpt lat="58.769733" lon="05.712695"><ele>27</ele><time>2012-03-25T15:34:53Z</time><cmt>5.7 kmh</cmt></trkpt>
<trkpt lat="58.769718" lon="05.712696"><ele>27</ele><time>2012-03-25T15:34:54Z</time><cmt>6.3 kmh</cmt></trkpt>
<trkpt lat="58.769702" lon="05.712698"><ele>27</ele><time>2012-03-25T15:34:55Z</time><cmt>6.8 kmh</cmt></trkpt>
<trkpt lat="58.769685" lon="05.712699"><ele>27</ele><time>2012-03-25T15:34:57Z</time><cmt>7.0 kmh</cmt></trkpt>
<trkpt lat="58.769668" lon="05.712701"><ele>27</ele><time>2012-03-25T15:34:58Z</time><cmt>6.8 kmh</cmt></trkpt>
<trkpt lat="58.769650" lon="05.712704"><ele>27</ele><time>2012-03-25T15:34:59Z</time><cmt>7.1 kmh</cmt></trkpt>
<trkpt lat="58.769633" lon="05.712708"><ele>27</ele><time>2012-03-25T15:34:59Z</time><cmt>7.1 kmh</cmt></trkpt>
<trkpt lat="58.769615" lon="05.712712"><ele>27</ele><time>2012-03-25T15:35:00Z</time><cmt>7.5 kmh</cmt></trkpt>
<trkpt lat="58.769597" lon="05.712715"><ele>27</ele><time>2012-03-25T15:35:01Z</time><cmt>7.4 kmh</cmt></trkpt>
<trkpt lat="58.769578" lon="05.712720"><ele>27</ele><time>2012-03-25T15:35:02Z</time><cmt>7.4 kmh</cmt></trkpt>
<trkpt lat="58.769560" lon="05.712725"><ele>27</ele><time>2012-03-25T15:35:04Z</time><cmt>7.6 kmh</cmt></trkpt>
<trkpt lat="58.769541" lon="05.712728"><ele>27</ele><time>2012-03-25T15:35:05Z</time><cmt>7.7 kmh</cmt></trkpt>
<trkpt lat="58.769522" lon="05.712731"><ele>27</ele><time>2012-03-25T15:35:06Z</time><cmt>7.7 kmh</cmt></trkpt>
<trkpt lat="58.769504" lon="05.712734"><ele>27</ele><time>2012-03-25T15:35:06Z</time><cmt>7.4 kmh</cmt></trkpt>
<trkpt lat="58.769485" lon="05.712738"><ele>27</ele><time>2012-03-25T15:35:07Z</time><cmt>7.3 kmh</cmt></trkpt>
<trkpt lat="58.769467" lon="05.712742"><ele>27</ele><time>2012-03-25T15:35:08Z</time><cmt>7.5 kmh</cmt></trkpt>
<trkpt lat="58.769449" lon="05.712745"><ele>27</ele><time>2012-03-25T15:35:10Z</time><cmt>7.3 kmh</cmt></trkpt>
<trkpt lat="58.769430" lon="05.712749"><ele>27</ele><time>2012-03-25T15:35:11Z</time><cmt>7.6 kmh</cmt></trkpt>
<trkpt lat="58.769412" lon="05.712752"><ele>27</ele><time>2012-03-25T15:35:12Z</time><cmt>7.5 kmh</cmt></trkpt>
<trkpt lat="58.769393" lon="05.712754"><ele>27</ele><time>2012-03-25T15:35:12Z</time><cmt>7.5 kmh</cmt></trkpt>
<trkpt lat="58.769374" lon="05.712757"><ele>27</ele><time>2012-03-25T15:35:13Z</time><cmt>7.4 kmh</cmt></trkpt>
<trkpt lat="58.769356" lon="05.712759"><ele>27</ele><time>2012-03-25T15:35:14Z</time><cmt>7.5 kmh</cmt></trkpt>
<trkpt lat="58.769338" lon="05.712761"><ele>27</ele><time>2012-03-25T15:35:16Z</time><cmt>6.9 kmh</cmt></trkpt>
<trkpt lat="58.769320" lon="05.712764"><ele>27</ele><time>2012-03-25T15:35:17Z</time><cmt>7.1 kmh</cmt></trkpt>
<trkpt lat="58.769303" lon="05.712765"><ele>27</ele><time>2012-03-25T15:35:18Z</time><cmt>6.8 kmh</cmt></trkpt>
<trkpt lat="58.769285" lon="05.712768"><ele>26</ele><time>2012-03-25T15:35:18Z</time><cmt>7.2 kmh</cmt></trkpt>
<trkpt lat="58.769267" lon="05.712771"><ele>26</ele><time>2012-03-25T15:35:19Z</time><cmt>7.3 kmh</cmt></trkpt>
<trkpt lat="58.769250" lon="05.712774"><ele>26</ele><time>2012-03-25T15:35:20Z</time><cmt>7.3 kmh</cmt></trkpt>
<trkpt lat="58.769232" lon="05.712779"><ele>26</ele><time>2012-03-25T15:35:22Z</time><cmt>7.2 kmh</cmt></trkpt>
<trkpt lat="58.769214" lon="05.712786"><ele>26</ele><time>2012-03-25T15:35:23Z</time><cmt>7.3 kmh</cmt></trkpt>
<trkpt lat="58.769196" lon="05.712794"><ele>26</ele><time>2012-03-25T15:35:24Z</time><cmt>7.8 kmh</cmt></trkpt>
<trkpt lat="58.769178" lon="05.712803"><ele>26</ele><time>2012-03-25T15:35:24Z</time><cmt>7.3 kmh</cmt></trkpt>
<trkpt lat="58.769159" lon="05.712814"><ele>26</ele><time>2012-03-25T15:35:25Z</time><cmt>7.8 kmh</cmt></trkpt>
<trkpt lat="58.769142" lon="05.712825"><ele>26</ele><time>2012-03-25T15:35:26Z</time><cmt>6.9 kmh</cmt></trkpt>
<trkpt lat="58.769125" lon="05.712839"><ele>26</ele><time>2012-03-25T15:35:28Z</time><cmt>7.7 kmh</cmt></trkpt>
<trkpt lat="58.769108" lon="05.712853"><ele>26</ele><time>2012-03-25T15:35:29Z</time><cmt>7.3 kmh</cmt></trkpt>
<trkpt lat="58.769091" lon="05.712869"><ele>26</ele><time>2012-03-25T15:35:30Z</time><cmt>7.8 kmh</cmt></trkpt>
<trkpt lat="58.769073" lon="05.712886"><ele>26</ele><time>2012-03-25T15:35:30Z</time><cmt>7.6 kmh</cmt></trkpt>
<trkpt lat="58.769056" lon="05.712904"><ele>26</ele><time>2012-03-25T15:35:31Z</time><cmt>7.3 kmh</cmt></trkpt>
<trkpt lat="58.769041" lon="05.712922"><ele>26</ele><time>2012-03-25T15:35:32Z</time><cmt>6.9 kmh</cmt></trkpt>
<trkpt lat="58.769026" lon="05.712941"><ele>26</ele><time>2012-03-25T15:35:33Z</time><cmt>6.6 kmh</cmt></trkpt>
<trkpt lat="58.769013" lon="05.712960"><ele>26</ele><time>2012-03-25T15:35:35Z</time><cmt>6.3 kmh</cmt></trkpt>
<trkpt lat="58.769000" lon="05.712981"><ele>26</ele><time>2012-03-25T15:35:36Z</time><cmt>6.8 kmh</cmt></trkpt>
<trkpt lat="58.768987" lon="05.713003"><ele>26</ele><time>2012-03-25T15:35:37Z</time><cmt>6.9 kmh</cmt></trkpt>
<trkpt lat="58.768974" lon="05.713025"><ele>26</ele><time>2012-03-25T15:35:37Z</time><cmt>7.4 kmh</cmt></trkpt>
<trkpt lat="58.768960" lon="05.713048"><ele>26</ele><time>2012-03-25T15:35:38Z</time><cmt>7.1 kmh</cmt></trkpt>
<trkpt lat="58.768947" lon="05.713073"><ele>26</ele><time>2012-03-25T15:35:39Z</time><cmt>7.5 kmh</cmt></trkpt>
<trkpt lat="58.768934" lon="05.713097"><ele>26</ele><time>2012-03-25T15:35:41Z</time><cmt>7.2 kmh</cmt></trkpt>
<trkpt lat="58.768922" lon="05.713121"><ele>26</ele><time>2012-03-25T15:35:42Z</time><cmt>6.5 kmh</cmt></trkpt>
<trkpt lat="58.768911" lon="05.713145"><ele>26</ele><time>2012-03-25T15:35:43Z</time><cmt>6.3 kmh</cmt></trkpt>
<trkpt lat="58.768901" lon="05.713167"><ele>26</ele><time>2012-03-25T15:35:43Z</time><cmt>5.9 kmh</cmt></trkpt>
<trkpt lat="58.768891" lon="05.713190"><ele>26</ele><time>2012-03-25T15:35:44Z</time><cmt>6.2 kmh</cmt></trkpt>
<trkpt lat="58.768881" lon="05.713213"><ele>26</ele><time>2012-03-25T15:35:45Z</time><cmt>6.3 kmh</cmt></trkpt>
<trkpt lat="58.768872" lon="05.713236"><ele>26</ele><time>2012-03-25T15:35:47Z</time><cmt>6.4 kmh</cmt></trkpt>
<trkpt lat="58.768861" lon="05.713260"><ele>26</ele><time>2012-03-25T15:35:48Z</time><cmt>6.6 kmh</cmt></trkpt>
<trkpt lat="58.768851" lon="05.713285"><ele>26</ele><time>2012-03-25T15:35:49Z</time><cmt>6.7 kmh</cmt></trkpt>
<trkpt lat="58.768841" lon="05.713310"><ele>26</ele><time>2012-03-25T15:35:49Z</time><cmt>7.1 kmh</cmt></trkpt>
<trkpt lat="58.768830" lon="05.713337"><ele>26</ele><time>2012-03-25T15:35:50Z</time><cmt>7.1 kmh</cmt></trkpt>
<trkpt lat="58.768818" lon="05.713364"><ele>26</ele><time>2012-03-25T15:35:51Z</time><cmt>7.2 kmh</cmt></trkpt>
<trkpt lat="58.768807" lon="05.713391"><ele>26</ele><time>2012-03-25T15:35:53Z</time><cmt>7.2 kmh</cmt></trkpt>
<trkpt lat="58.768795" lon="05.713419"><ele>26</ele><time>2012-03-25T15:35:54Z</time><cmt>7.6 kmh</cmt></trkpt>
<trkpt lat="58.768784" lon="05.713447"><ele>26</ele><time>2012-03-25T15:35:55Z</time><cmt>7.6 kmh</cmt></trkpt>
<trkpt lat="58.768773" lon="05.713475"><ele>26</ele><time>2012-03-25T15:35:55Z</time><cmt>7.6 kmh</cmt></trkpt>
<trkpt lat="58.768761" lon="05.713504"><ele>26</ele><time>2012-03-25T15:35:56Z</time><cmt>7.7 kmh</cmt></trkpt>
<trkpt lat="58.768749" lon="05.713534"><ele>26</ele><time>2012-03-25T15:35:57Z</time><cmt>7.8 kmh</cmt></trkpt>
<trkpt lat="58.768737" lon="05.713564"><ele>26</ele><time>2012-03-25T15:35:59Z</time><cmt>7.8 kmh</cmt></trkpt>
<trkpt lat="58.768724" lon="05.713594"><ele>26</ele><time>2012-03-25T15:36:00Z</time><cmt>7.8 kmh</cmt></trkpt>
<trkpt lat="58.768713" lon="05.713623"><ele>26</ele><time>2012-03-25T15:36:01Z</time><cmt>7.5 kmh</cmt></trkpt>
<trkpt lat="58.768701" lon="05.713652"><ele>26</ele><time>2012-03-25T15:36:01Z</time><cmt>7.6 kmh</cmt></trkpt>
<trkpt lat="58.768690" lon="05.713681"><ele>26</ele><time>2012-03-25T15:36:02Z</time><cmt>7.5 kmh</cmt></trkpt>
<trkpt lat="58.768678" lon="05.713710"><ele>26</ele><time>2012-03-25T15:36:03Z</time><cmt>7.6 kmh</cmt></trkpt>
<trkpt lat="58.768667" lon="05.713739"><ele>26</ele><time>2012-03-25T15:36:04Z</time><cmt>7.5 kmh</cmt></trkpt>
<trkpt lat="58.768655" lon="05.713767"><ele>26</ele><time>2012-03-25T15:36:06Z</time><cmt>7.7 kmh</cmt></trkpt>
<trkpt lat="58.768643" lon="05.713796"><ele>26</ele><time>2012-03-25T15:36:07Z</time><cmt>7.6 kmh</cmt></trkpt>
<trkpt lat="58.768631" lon="05.713825"><ele>26</ele><time>2012-03-25T15:36:08Z</time><cmt>7.8 kmh</cmt></trkpt>
<trkpt lat="58.768619" lon="05.713854"><ele>26</ele><time>2012-03-25T15:36:08Z</time><cmt>7.8 kmh</cmt></trkpt>
<trkpt lat="58.768606" lon="05.713883"><ele>26</ele><time>2012-03-25T15:36:09Z</time><cmt>7.8 kmh</cmt></trkpt>
<trkpt lat="58.768593" lon="05.713912"><ele>26</ele><time>2012-03-25T15:36:10Z</time><cmt>8.0 kmh</cmt></trkpt>
<trkpt lat="58.768581" lon="05.713940"><ele>26</ele><time>2012-03-25T15:36:12Z</time><cmt>7.8 kmh</cmt></trkpt>
<trkpt lat="58.768568" lon="05.713969"><ele>26</ele><time>2012-03-25T15:36:13Z</time><cmt>7.9 kmh</cmt></trkpt>
<trkpt lat="58.768555" lon="05.713999"><ele>26</ele><time>2012-03-25T15:36:14Z</time><cmt>8.0 kmh</cmt></trkpt>
<trkpt lat="58.768542" lon="05.714029"><ele>26</ele><time>2012-03-25T15:36:14Z</time><cmt>7.9 kmh</cmt></trkpt>
<trkpt lat="58.768529" lon="05.714058"><ele>26</ele><time>2012-03-25T15:36:15Z</time><cmt>8.0 kmh</cmt></trkpt>
<trkpt lat="58.768516" lon="05.714088"><ele>26</ele><time>2012-03-25T15:36:16Z</time><cmt>7.8 kmh</cmt></trkpt>
<trkpt lat="58.768503" lon="05.714117"><ele>26</ele><time>2012-03-25T15:36:18Z</time><cmt>7.9 kmh</cmt></trkpt>
<trkpt lat="58.768490" lon="05.714146"><ele>26</ele><time>2012-03-25T15:36:19Z</time><cmt>7.8 kmh</cmt></trkpt>
<trkpt lat="58.768478" lon="05.714176"><ele>26</ele><time>2012-03-25T15:36:20Z</time><cmt>8.0 kmh</cmt></trkpt>
<trkpt lat="58.768466" lon="05.714206"><ele>26</ele><time>2012-03-25T15:36:20Z</time><cmt>8.0 kmh</cmt></trkpt>
<trkpt lat="58.768454" lon="05.714237"><ele>26</ele><time>2012-03-25T15:36:21Z</time><cmt>8.3 kmh</cmt></trkpt>
<trkpt lat="58.768442" lon="05.714270"><ele>26</ele><time>2012-03-25T15:36:22Z</time><cmt>7.9 kmh</cmt></trkpt>
<trkpt lat="58.768431" lon="05.714301"><ele>26</ele><time>2012-03-25T15:36:24Z</time><cmt>7.8 kmh</cmt></trkpt>
<trkpt lat="58.768419" lon="05.714334"><ele>26</ele><time>2012-03-25T15:36:25Z</time><cmt>7.8 kmh</cmt></trkpt>
<trkpt lat="58.768408" lon="05.714367"><ele>26</ele><time>2012-03-25T15:36:26Z</time><cmt>8.2 kmh</cmt></trkpt>
<trkpt lat="58.768398" lon="05.714400"><ele>26</ele><time>2012-03-25T15:36:26Z</time><cmt>7.8 kmh</cmt></trkpt>
<trkpt lat="58.768388" lon="05.714433"><ele>26</ele><time>2012-03-25T15:36:27Z</time><cmt>8.1 kmh</cmt></trkpt>
<trkpt lat="58.768379" lon="05.714468"><ele>26</ele><time>2012-03-25T15:36:28Z</time><cmt>8.1 kmh</cmt></trkpt>
<trkpt lat="58.768371" lon="05.714502"><ele>26</ele><time>2012-03-25T15:36:30Z</time><cmt>8.0 kmh</cmt></trkpt>
<trkpt lat="58.768363" lon="05.714536"><ele>26</ele><time>2012-03-25T15:36:31Z</time><cmt>7.8 kmh</cmt></trkpt>
<trkpt lat="58.768356" lon="05.714570"><ele>26</ele><time>2012-03-25T15:36:32Z</time><cmt>7.9 kmh</cmt></trkpt>
<trkpt lat="58.768350" lon="05.714606"><ele>26</ele><time>2012-03-25T15:36:32Z</time><cmt>7.9 kmh</cmt></trkpt>
<trkpt lat="58.768346" lon="05.714641"><ele>26</ele><time>2012-03-25T15:36:33Z</time><cmt>7.9 kmh</cmt></trkpt>
<trkpt lat="58.768341" lon="05.714677"><ele>26</ele><time>2012-03-25T15:36:34Z</time><cmt>7.8 kmh</cmt></trkpt>
<trkpt lat="58.768337" lon="05.714712"><ele>26</ele><time>2012-03-25T15:36:36Z</time><cmt>7.7 kmh</cmt></trkpt>
<trkpt lat="58.768333" lon="05.714747"><ele>26</ele><time>2012-03-25T15:36:37Z</time><cmt>7.5 kmh</cmt></trkpt>
<trkpt lat="58.768330" lon="05.714782"><ele>26</ele><time>2012-03-25T15:36:38Z</time><cmt>7.8 kmh</cmt></trkpt>
<trkpt lat="58.768327" lon="05.714817"><ele>26</ele><time>2012-03-25T15:36:38Z</time><cmt>7.6 kmh</cmt></trkpt>
<trkpt lat="58.768325" lon="05.714853"><ele>26</ele><time>2012-03-25T15:36:39Z</time><cmt>7.7 kmh</cmt></trkpt>
<trkpt lat="58.768323" lon="05.714888"><ele>26</ele><time>2012-03-25T15:36:40Z</time><cmt>7.4 kmh</cmt></trkpt>
<trkpt lat="58.768321" lon="05.714923"><ele>26</ele><time>2012-03-25T15:36:41Z</time><cmt>7.6 kmh</cmt></trkpt>
<trkpt lat="58.768319" lon="05.714957"><ele>26</ele><time>2012-03-25T15:36:43Z</time><cmt>7.5 kmh</cmt></trkpt>
<trkpt lat="58.768318" lon="05.714991"><ele>26</ele><time>2012-03-25T15:36:44Z</time><cmt>7.5 kmh</cmt></trkpt>
<trkpt lat="58.768318" lon="05.715025"><ele>26</ele><time>2012-03-25T15:36:45Z</time><cmt>7.3 kmh</cmt></trkpt>
<trkpt lat="58.768317" lon="05.715060"><ele>26</ele><time>2012-03-25T15:36:45Z</time><cmt>7.5 kmh</cmt></trkpt>
<trkpt lat="58.768317" lon="05.715094"><ele>26</ele><time>2012-03-25T15:36:46Z</time><cmt>7.2 kmh</cmt></trkpt>
<trkpt lat="58.768316" lon="05.715127"><ele>26</ele><time>2012-03-25T15:36:47Z</time><cmt>7.1 kmh</cmt></trkpt>
<trkpt lat="58.768316" lon="05.715161"><ele>26</ele><time>2012-03-25T15:36:49Z</time><cmt>7.4 kmh</cmt></trkpt>
<trkpt lat="58.768315" lon="05.715196"><ele>26</ele><time>2012-03-25T15:36:50Z</time><cmt>7.5 kmh</cmt></trkpt>
<trkpt lat="58.768316" lon="05.715231"><ele>26</ele><time>2012-03-25T15:36:51Z</time><cmt>7.4 kmh</cmt></trkpt>
<trkpt lat="58.768317" lon="05.715265"><ele>26</ele><time>2012-03-25T15:36:51Z</time><cmt>7.3 kmh</cmt></trkpt>
<trkpt lat="58.768318" lon="05.715300"><ele>26</ele><time>2012-03-25T15:36:52Z</time><cmt>7.2 kmh</cmt></trkpt>
<trkpt lat="58.768320" lon="05.715334"><ele>26</ele><time>2012-03-25T15:36:53Z</time><cmt>6.8 kmh</cmt></trkpt>
<trkpt lat="58.768322" lon="05.715366"><ele>26</ele><time>2012-03-25T15:36:55Z</time><cmt>6.5 kmh</cmt></trkpt>
<trkpt lat="58.768324" lon="05.715397"><ele>26</ele><time>2012-03-25T15:36:56Z</time><cmt>6.0 kmh</cmt></trkpt>
<trkpt lat="58.768326" lon="05.715426"><ele>26</ele><time>2012-03-25T15:36:57Z</time><cmt>5.5 kmh</cmt></trkpt>
<trkpt lat="58.768330" lon="05.715455"><ele>26</ele><time>2012-03-25T15:36:57Z</time><cmt>6.5 kmh</cmt></trkpt>
<trkpt lat="58.768335" lon="05.715483"><ele>26</ele><time>2012-03-25T15:36:58Z</time><cmt>6.2 kmh</cmt></trkpt>
<trkpt lat="58.768340" lon="05.715514"><ele>26</ele><time>2012-03-25T15:36:59Z</time><cmt>6.6 kmh</cmt></trkpt>
<trkpt lat="58.768345" lon="05.715544"><ele>26</ele><time>2012-03-25T15:37:01Z</time><cmt>6.5 kmh</cmt></trkpt>
<trkpt lat="58.768350" lon="05.715574"><ele>26</ele><time>2012-03-25T15:37:02Z</time><cmt>6.6 kmh</cmt></trkpt>
<trkpt lat="58.768356" lon="05.715604"><ele>26</ele><time>2012-03-25T15:37:03Z</time><cmt>6.5 kmh</cmt></trkpt>
<trkpt lat="58.768363" lon="05.715634"><ele>26</ele><time>2012-03-25T15:37:03Z</time><cmt>6.7 kmh</cmt></trkpt>
<trkpt lat="58.768369" lon="05.715664"><ele>26</ele><time>2012-03-25T15:37:04Z</time><cmt>6.6 kmh</cmt></trkpt>
<trkpt lat="58.768375" lon="05.715693"><ele>26</ele><time>2012-03-25T15:37:05Z</time><cmt>6.8 kmh</cmt></trkpt>
<trkpt lat="58.768382" lon="05.715723"><ele>26</ele><time>2012-03-25T15:37:07Z</time><cmt>6.9 kmh</cmt></trkpt>
<trkpt lat="58.768390" lon="05.715753"><ele>26</ele><time>2012-03-25T15:37:08Z</time><cmt>7.1 kmh</cmt></trkpt>
<trkpt lat="58.768398" lon="05.715783"><ele>27</ele><time>2012-03-25T15:37:09Z</time><cmt>7.2 kmh</cmt></trkpt>
<trkpt lat="58.768406" lon="05.715813"><ele>27</ele><time>2012-03-25T15:37:09Z</time><cmt>7.1 kmh</cmt></trkpt>
<trkpt lat="58.768415" lon="05.715842"><ele>27</ele><time>2012-03-25T15:37:10Z</time><cmt>7.0 kmh</cmt></trkpt>
<trkpt lat="58.768423" lon="05.715872"><ele>27</ele><time>2012-03-25T15:37:11Z</time><cmt>7.0 kmh</cmt></trkpt>
<trkpt lat="58.768431" lon="05.715902"><ele>27</ele><time>2012-03-25T15:37:12Z</time><cmt>7.3 kmh</cmt></trkpt>
<trkpt lat="58.768440" lon="05.715931"><ele>27</ele><time>2012-03-25T15:37:14Z</time><cmt>7.0 kmh</cmt></trkpt>
<trkpt lat="58.768449" lon="05.715961"><ele>27</ele><time>2012-03-25T15:37:15Z</time><cmt>7.2 kmh</cmt></trkpt>
<trkpt lat="58.768456" lon="05.715993"><ele>27</ele><time>2012-03-25T15:37:16Z</time><cmt>7.1 kmh</cmt></trkpt>
<trkpt lat="58.768464" lon="05.716023"><ele>27</ele><time>2012-03-25T15:37:16Z</time><cmt>7.2 kmh</cmt></trkpt>
<trkpt lat="58.768472" lon="05.716053"><ele>27</ele><time>2012-03-25T15:37:17Z</time><cmt>7.2 kmh</cmt></trkpt>
<trkpt lat="58.768478" lon="05.716083"><ele>27</ele><time>2012-03-25T15:37:18Z</time><cmt>7.1 kmh</cmt></trkpt>
<trkpt lat="58.768486" lon="05.716113"><ele>27</ele><time>2012-03-25T15:37:20Z</time><cmt>6.8 kmh</cmt></trkpt>
<trkpt lat="58.768493" lon="05.716142"><ele>27</ele><time>2012-03-25T15:37:21Z</time><cmt>6.7 kmh</cmt></trkpt>
<trkpt lat="58.768501" lon="05.716170"><ele>27</ele><time>2012-03-25T15:37:22Z</time><cmt>6.7 kmh</cmt></trkpt>
<trkpt lat="58.768508" lon="05.716198"><ele>27</ele><time>2012-03-25T15:37:22Z</time><cmt>6.6 kmh</cmt></trkpt>
<trkpt lat="58.768516" lon="05.716226"><ele>27</ele><time>2012-03-25T15:37:23Z</time><cmt>6.7 kmh</cmt></trkpt>
<trkpt lat="58.768524" lon="05.716254"><ele>27</ele><time>2012-03-25T15:37:24Z</time><cmt>6.7 kmh</cmt></trkpt>
<trkpt lat="58.768532" lon="05.716282"><ele>27</ele><time>2012-03-25T15:37:26Z</time><cmt>6.7 kmh</cmt></trkpt>
<trkpt lat="58.768540" lon="05.716310"><ele>27</ele><time>2012-03-25T15:37:27Z</time><cmt>6.7 kmh</cmt></trkpt>
<trkpt lat="58.768547" lon="05.716339"><ele>27</ele><time>2012-03-25T15:37:28Z</time><cmt>6.6 kmh</cmt></trkpt>
<trkpt lat="58.768554" lon="05.716367"><ele>27</ele><time>2012-03-25T15:37:28Z</time><cmt>6.6 kmh</cmt></trkpt>
<trkpt lat="58.768562" lon="05.716395"><ele>27</ele><time>2012-03-25T15:37:29Z</time><cmt>6.7 kmh</cmt></trkpt>
<trkpt lat="58.768570" lon="05.716423"><ele>27</ele><time>2012-03-25T15:37:30Z</time><cmt>7.0 kmh</cmt></trkpt>
<trkpt lat="58.768578" lon="05.716451"><ele>27</ele><time>2012-03-25T15:37:32Z</time><cmt>6.7 kmh</cmt></trkpt>
<trkpt lat="58.768586" lon="05.716480"><ele>27</ele><time>2012-03-25T15:37:33Z</time><cmt>6.9 kmh</cmt></trkpt>
<trkpt lat="58.768594" lon="05.716509"><ele>27</ele><time>2012-03-25T15:37:34Z</time><cmt>7.1 kmh</cmt></trkpt>
<trkpt lat="58.768603" lon="05.716536"><ele>27</ele><time>2012-03-25T15:37:34Z</time><cmt>7.1 kmh</cmt></trkpt>
<trkpt lat="58.768612" lon="05.716564"><ele>27</ele><time>2012-03-25T15:37:35Z</time><cmt>7.0 kmh</cmt></trkpt>
<trkpt lat="58.768620" lon="05.716594"><ele>27</ele><time>2012-03-25T15:37:36Z</time><cmt>7.3 kmh</cmt></trkpt>
<trkpt lat="58.768627" lon="05.716624"><ele>27</ele><time>2012-03-25T15:37:38Z</time><cmt>6.8 kmh</cmt></trkpt>
<trkpt lat="58.768634" lon="05.716653"><ele>27</ele><time>2012-03-25T15:37:39Z</time><cmt>7.0 kmh</cmt></trkpt>
<trkpt lat="58.768642" lon="05.716682"><ele>27</ele><time>2012-03-25T15:37:40Z</time><cmt>6.8 kmh</cmt></trkpt>
<trkpt lat="58.768651" lon="05.716710"><ele>27</ele><time>2012-03-25T15:37:40Z</time><cmt>7.3 kmh</cmt></trkpt>
<trkpt lat="58.768659" lon="05.716739"><ele>27</ele><time>2012-03-25T15:37:41Z</time><cmt>7.0 kmh</cmt></trkpt>
<trkpt lat="58.768667" lon="05.716769"><ele>27</ele><time>2012-03-25T15:37:42Z</time><cmt>7.2 kmh</cmt></trkpt>
<trkpt lat="58.768675" lon="05.716799"><ele>27</ele><time>2012-03-25T15:37:43Z</time><cmt>7.1 kmh</cmt></trkpt>
<trkpt lat="58.768683" lon="05.716829"><ele>27</ele><time>2012-03-25T15:37:45Z</time><cmt>7.4 kmh</cmt></trkpt>
<trkpt lat="58.768692" lon="05.716860"><ele>27</ele><time>2012-03-25T15:37:46Z</time><cmt>7.3 kmh</cmt></trkpt>
<trkpt lat="58.768701" lon="05.716890"><ele>27</ele><time>2012-03-25T15:37:47Z</time><cmt>7.3 kmh</cmt></trkpt>
<trkpt lat="58.768710" lon="05.716920"><ele>27</ele><time>2012-03-25T15:37:47Z</time><cmt>7.2 kmh</cmt></trkpt>
<trkpt lat="58.768720" lon="05.716949"><ele>27</ele><time>2012-03-25T15:37:48Z</time><cmt>7.2 kmh</cmt></trkpt>
<trkpt lat="58.768730" lon="05.716978"><ele>27</ele><time>2012-03-25T15:37:49Z</time><cmt>7.3 kmh</cmt></trkpt>
<trkpt lat="58.768741" lon="05.717007"><ele>27</ele><time>2012-03-25T15:37:51Z</time><cmt>7.3 kmh</cmt></trkpt>
<trkpt lat="58.768751" lon="05.717035"><ele>27</ele><time>2012-03-25T15:37:52Z</time><cmt>7.2 kmh</cmt></trkpt>
<trkpt lat="58.768762" lon="05.717063"><ele>27</ele><time>2012-03-25T15:37:53Z</time><cmt>7.2 kmh</cmt></trkpt>
<trkpt lat="58.768773" lon="05.717090"><ele>27</ele><time>2012-03-25T15:37:53Z</time><cmt>7.3 kmh</cmt></trkpt>
<trkpt lat="58.768784" lon="05.717117"><ele>27</ele><time>2012-03-25T15:37:54Z</time><cmt>7.1 kmh</cmt></trkpt>
<trkpt lat="58.768795" lon="05.717142"><ele>27</ele><time>2012-03-25T15:37:55Z</time><cmt>6.2 kmh</cmt></trkpt>
<trkpt lat="58.768804" lon="05.717163"><ele>27</ele><time>2012-03-25T15:37:57Z</time><cmt>5.5 kmh</cmt></trkpt>
<trkpt lat="58.768813" lon="05.717184"><ele>27</ele><time>2012-03-25T15:37:58Z</time><cmt>5.8 kmh</cmt></trkpt>
<trkpt lat="58.768821" lon="05.717206"><ele>27</ele><time>2012-03-25T15:37:59Z</time><cmt>5.8 kmh</cmt></trkpt>
<trkpt lat="58.768830" lon="05.717230"><ele>27</ele><time>2012-03-25T15:37:59Z</time><cmt>6.4 kmh</cmt></trkpt>
<trkpt lat="58.768840" lon="05.717256"><ele>27</ele><time>2012-03-25T15:38:00Z</time><cmt>6.6 kmh</cmt></trkpt>
<trkpt lat="58.768849" lon="05.717282"><ele>27</ele><time>2012-03-25T15:38:01Z</time><cmt>6.6 kmh</cmt></trkpt>
<trkpt lat="58.768857" lon="05.717308"><ele>27</ele><time>2012-03-25T15:38:03Z</time><cmt>6.7 kmh</cmt></trkpt>
<trkpt lat="58.768866" lon="05.717335"><ele>27</ele><time>2012-03-25T15:38:04Z</time><cmt>7.1 kmh</cmt></trkpt>
<trkpt lat="58.768876" lon="05.717363"><ele>27</ele><time>2012-03-25T15:38:05Z</time><cmt>7.2 kmh</cmt></trkpt>
<trkpt lat="58.768886" lon="05.717390"><ele>27</ele><time>2012-03-25T15:38:05Z</time><cmt>7.0 kmh</cmt></trkpt>
<trkpt lat="58.768897" lon="05.717417"><ele>27</ele><time>2012-03-25T15:38:06Z</time><cmt>7.2 kmh</cmt></trkpt>
<trkpt lat="58.768908" lon="05.717444"><ele>27</ele><time>2012-03-25T15:38:07Z</time><cmt>6.9 kmh</cmt></trkpt>
<trkpt lat="58.768918" lon="05.717471"><ele>27</ele><time>2012-03-25T15:38:09Z</time><cmt>7.2 kmh</cmt></trkpt>
<trkpt lat="58.768929" lon="05.717498"><ele>27</ele><time>2012-03-25T15:38:10Z</time><cmt>6.9 kmh</cmt></trkpt>
<trkpt lat="58.768940" lon="05.717525"><ele>27</ele><time>2012-03-25T15:38:11Z</time><cmt>7.3 kmh</cmt></trkpt>
<trkpt lat="58.768951" lon="05.717553"><ele>27</ele><time>2012-03-25T15:38:11Z</time><cmt>7.2 kmh</cmt></trkpt>
<trkpt lat="58.768962" lon="05.717579"><ele>27</ele><time>2012-03-25T15:38:12Z</time><cmt>7.2 kmh</cmt></trkpt>
<trkpt lat="58.768974" lon="05.717606"><ele>27</ele><time>2012-03-25T15:38:13Z</time><cmt>6.9 kmh</cmt></trkpt>
<trkpt lat="58.768985" lon="05.717633"><ele>27</ele><time>2012-03-25T15:38:15Z</time><cmt>7.3 kmh</cmt></trkpt>
<trkpt lat="58.768996" lon="05.717660"><ele>27</ele><time>2012-03-25T15:38:16Z</time><cmt>7.3 kmh</cmt></trkpt>
<trkpt lat="58.769008" lon="05.717687"><ele>27</ele><time>2012-03-25T15:38:17Z</time><cmt>7.4 kmh</cmt></trkpt>
<trkpt lat="58.769020" lon="05.717714"><ele>27</ele><time>2012-03-25T15:38:18Z</time><cmt>7.1 kmh</cmt></trkpt>
<trkpt lat="58.769031" lon="05.717740"><ele>27</ele><time>2012-03-25T15:38:18Z</time><cmt>7.3 kmh</cmt></trkpt>
<trkpt lat="58.769043" lon="05.717767"><ele>27</ele><time>2012-03-25T15:38:19Z</time><cmt>7.3 kmh</cmt></trkpt>
<trkpt lat="58.769055" lon="05.717794"><ele>27</ele><time>2012-03-25T15:38:20Z</time><cmt>7.4 kmh</cmt></trkpt>
<trkpt lat="58.769067" lon="05.717822"><ele>27</ele><time>2012-03-25T15:38:22Z</time><cmt>7.3 kmh</cmt></trkpt>
<trkpt lat="58.769079" lon="05.717848"><ele>27</ele><time>2012-03-25T15:38:23Z</time><cmt>7.4 kmh</cmt></trkpt>
<trkpt lat="58.769091" lon="05.717875"><ele>27</ele><time>2012-03-25T15:38:24Z</time><cmt>7.3 kmh</cmt></trkpt>
<trkpt lat="58.769103" lon="05.717900"><ele>27</ele><time>2012-03-25T15:38:24Z</time><cmt>7.3 kmh</cmt></trkpt>
<trkpt lat="58.769116" lon="05.717927"><ele>27</ele><time>2012-03-25T15:38:25Z</time><cmt>7.4 kmh</cmt></trkpt>
<trkpt lat="58.769128" lon="05.717953"><ele>27</ele><time>2012-03-25T15:38:26Z</time><cmt>7.5 kmh</cmt></trkpt>
<trkpt lat="58.769141" lon="05.717980"><ele>27</ele><time>2012-03-25T15:38:28Z</time><cmt>7.7 kmh</cmt></trkpt>
<trkpt lat="58.769154" lon="05.718007"><ele>27</ele><time>2012-03-25T15:38:29Z</time><cmt>7.6 kmh</cmt></trkpt>
<trkpt lat="58.769168" lon="05.718034"><ele>27</ele><time>2012-03-25T15:38:30Z</time><cmt>7.8 kmh</cmt></trkpt>
<trkpt lat="58.769181" lon="05.718061"><ele>27</ele><time>2012-03-25T15:38:30Z</time><cmt>7.6 kmh</cmt></trkpt>
<trkpt lat="58.769195" lon="05.718090"><ele>27</ele><time>2012-03-25T15:38:31Z</time><cmt>8.0 kmh</cmt></trkpt>
<trkpt lat="58.769209" lon="05.718116"><ele>27</ele><time>2012-03-25T15:38:32Z</time><cmt>7.5 kmh</cmt></trkpt>
<trkpt lat="58.769222" lon="05.718142"><ele>27</ele><time>2012-03-25T15:38:34Z</time><cmt>7.6 kmh</cmt></trkpt>
<trkpt lat="58.769236" lon="05.718166"><ele>27</ele><time>2012-03-25T15:38:35Z</time><cmt>7.7 kmh</cmt></trkpt>
<trkpt lat="58.769250" lon="05.718191"><ele>27</ele><time>2012-03-25T15:38:36Z</time><cmt>7.7 kmh</cmt></trkpt>
<trkpt lat="58.769263" lon="05.718217"><ele>27</ele><time>2012-03-25T15:38:36Z</time><cmt>7.6 kmh</cmt></trkpt>
<trkpt lat="58.769277" lon="05.718243"><ele>27</ele><time>2012-03-25T15:38:37Z</time><cmt>7.9 kmh</cmt></trkpt>
<trkpt lat="58.769290" lon="05.718270"><ele>27</ele><time>2012-03-25T15:38:38Z</time><cmt>7.4 kmh</cmt></trkpt>
<trkpt lat="58.769302" lon="05.718295"><ele>27</ele><time>2012-03-25T15:38:40Z</time><cmt>7.4 kmh</cmt></trkpt>
<trkpt lat="58.769315" lon="05.718319"><ele>27</ele><time>2012-03-25T15:38:41Z</time><cmt>7.1 kmh</cmt></trkpt>
<trkpt lat="58.769328" lon="05.718344"><ele>27</ele><time>2012-03-25T15:38:42Z</time><cmt>7.4 kmh</cmt></trkpt>
<trkpt lat="58.769340" lon="05.718369"><ele>27</ele><time>2012-03-25T15:38:42Z</time><cmt>7.1 kmh</cmt></trkpt>
<trkpt lat="58.769353" lon="05.718393"><ele>27</ele><time>2012-03-25T15:38:43Z</time><cmt>7.2 kmh</cmt></trkpt>
<trkpt lat="58.769365" lon="05.718416"><ele>27</ele><time>2012-03-25T15:38:44Z</time><cmt>6.8 kmh</cmt></trkpt>
<trkpt lat="58.769377" lon="05.718438"><ele>27</ele><time>2012-03-25T15:38:45Z</time><cmt>6.2 kmh</cmt></trkpt>
<trkpt lat="58.769388" lon="05.718459"><ele>27</ele><time>2012-03-25T15:38:47Z</time><cmt>6.0 kmh</cmt></trkpt>
<trkpt lat="58.769399" lon="05.718478"><ele>27</ele><time>2012-03-25T15:38:48Z</time><cmt>5.9 kmh</cmt></trkpt>
<trkpt lat="58.769409" lon="05.718498"><ele>27</ele><time>2012-03-25T15:38:49Z</time><cmt>6.1 kmh</cmt></trkpt>
<trkpt lat="58.769420" lon="05.718519"><ele>27</ele><time>2012-03-25T15:38:49Z</time><cmt>6.0 kmh</cmt></trkpt>
<trkpt lat="58.769430" lon="05.718540"><ele>27</ele><time>2012-03-25T15:38:50Z</time><cmt>6.0 kmh</cmt></trkpt>
<trkpt lat="58.769440" lon="05.718562"><ele>27</ele><time>2012-03-25T15:38:51Z</time><cmt>6.1 kmh</cmt></trkpt>
<trkpt lat="58.769450" lon="05.718584"><ele>27</ele><time>2012-03-25T15:38:53Z</time><cmt>6.3 kmh</cmt></trkpt>
<trkpt lat="58.769459" lon="05.718608"><ele>26</ele><time>2012-03-25T15:38:54Z</time><cmt>6.3 kmh</cmt></trkpt>
<trkpt lat="58.769469" lon="05.718632"><ele>26</ele><time>2012-03-25T15:38:55Z</time><cmt>6.3 kmh</cmt></trkpt>
<trkpt lat="58.769480" lon="05.718658"><ele>26</ele><time>2012-03-25T15:38:55Z</time><cmt>6.5 kmh</cmt></trkpt>
<trkpt lat="58.769490" lon="05.718683"><ele>26</ele><time>2012-03-25T15:38:56Z</time><cmt>6.4 kmh</cmt></trkpt>
<trkpt lat="58.769500" lon="05.718708"><ele>26</ele><time>2012-03-25T15:38:57Z</time><cmt>6.9 kmh</cmt></trkpt>
<trkpt lat="58.769511" lon="05.718732"><ele>26</ele><time>2012-03-25T15:38:59Z</time><cmt>6.8 kmh</cmt></trkpt>
<trkpt lat="58.769523" lon="05.718756"><ele>26</ele><time>2012-03-25T15:39:00Z</time><cmt>6.9 kmh</cmt></trkpt>
<trkpt lat="58.769534" lon="05.718780"><ele>26</ele><time>2012-03-25T15:39:01Z</time><cmt>6.9 kmh</cmt></trkpt>
<trkpt lat="58.769547" lon="05.718803"><ele>26</ele><time>2012-03-25T15:39:01Z</time><cmt>7.0 kmh</cmt></trkpt>
<trkpt lat="58.769560" lon="05.718826"><ele>26</ele><time>2012-03-25T15:39:02Z</time><cmt>7.1 kmh</cmt></trkpt>
<trkpt lat="58.769573" lon="05.718848"><ele>26</ele><time>2012-03-25T15:39:03Z</time><cmt>7.1 kmh</cmt></trkpt>
<trkpt lat="58.769587" lon="05.718870"><ele>26</ele><time>2012-03-25T15:39:05Z</time><cmt>7.5 kmh</cmt></trkpt>
<trkpt lat="58.769600" lon="05.718892"><ele>26</ele><time>2012-03-25T15:39:06Z</time><cmt>7.1 kmh</cmt></trkpt>
<trkpt lat="58.769614" lon="05.718913"><ele>26</ele><time>2012-03-25T15:39:07Z</time><cmt>6.8 kmh</cmt></trkpt>
<trkpt lat="58.769627" lon="05.718934"><ele>26</ele><time>2012-03-25T15:39:07Z</time><cmt>6.8 kmh</cmt></trkpt>
<trkpt lat="58.769639" lon="05.718955"><ele>26</ele><time>2012-03-25T15:39:08Z</time><cmt>6.8 kmh</cmt></trkpt>
<trkpt lat="58.769651" lon="05.718977"><ele>26</ele><time>2012-03-25T15:39:09Z</time><cmt>6.7 kmh</cmt></trkpt>
<trkpt lat="58.769663" lon="05.718999"><ele>26</ele><time>2012-03-25T15:39:11Z</time><cmt>6.8 kmh</cmt></trkpt>
<trkpt lat="58.769676" lon="05.719022"><ele>26</ele><time>2012-03-25T15:39:12Z</time><cmt>6.7 kmh</cmt></trkpt>
<trkpt lat="58.769688" lon="05.719045"><ele>26</ele><time>2012-03-25T15:39:13Z</time><cmt>6.8 kmh</cmt></trkpt>
<trkpt lat="58.769700" lon="05.719067"><ele>26</ele><time>2012-03-25T15:39:13Z</time><cmt>6.7 kmh</cmt></trkpt>
<trkpt lat="58.769713" lon="05.719089"><ele>26</ele><time>2012-03-25T15:39:14Z</time><cmt>7.0 kmh</cmt></trkpt>
<trkpt lat="58.769726" lon="05.719112"><ele>26</ele><time>2012-03-25T15:39:15Z</time><cmt>6.9 kmh</cmt></trkpt>
<trkpt lat="58.769738" lon="05.719135"><ele>26</ele><time>2012-03-25T15:39:17Z</time><cmt>7.0 kmh</cmt></trkpt>
<trkpt lat="58.769751" lon="05.719158"><ele>26</ele><time>2012-03-25T15:39:18Z</time><cmt>7.1 kmh</cmt></trkpt>
<trkpt lat="58.769763" lon="05.719181"><ele>26</ele><time>2012-03-25T15:39:19Z</time><cmt>6.8 kmh</cmt></trkpt>
<trkpt lat="58.769776" lon="05.719204"><ele>26</ele><time>2012-03-25T15:39:19Z</time><cmt>6.8 kmh</cmt></trkpt>
<trkpt lat="58.769788" lon="05.719225"><ele>26</ele><time>2012-03-25T15:39:20Z</time><cmt>6.9 kmh</cmt></trkpt>
<trkpt lat="58.769800" lon="05.719248"><ele>26</ele><time>2012-03-25T15:39:21Z</time><cmt>6.9 kmh</cmt></trkpt>
<trkpt lat="58.769812" lon="05.719268"><ele>26</ele><time>2012-03-25T15:39:22Z</time><cmt>6.0 kmh</cmt></trkpt>
<trkpt lat="58.769822" lon="05.719285"><ele>26</ele><time>2012-03-25T15:39:24Z</time><cmt>5.2 kmh</cmt></trkpt>
<trkpt lat="58.769832" lon="05.719303"><ele>26</ele><time>2012-03-25T15:39:25Z</time><cmt>5.4 kmh</cmt></trkpt>
<trkpt lat="58.769842" lon="05.719320"><ele>26</ele><time>2012-03-25T15:39:26Z</time><cmt>5.9 kmh</cmt></trkpt>
<trkpt lat="58.769853" lon="05.719340"><ele>26</ele><time>2012-03-25T15:39:26Z</time><cmt>5.9 kmh</cmt></trkpt>
<trkpt lat="58.769864" lon="05.719360"><ele>26</ele><time>2012-03-25T15:39:27Z</time><cmt>6.2 kmh</cmt></trkpt>
<trkpt lat="58.769876" lon="05.719380"><ele>26</ele><time>2012-03-25T15:39:28Z</time><cmt>6.5 kmh</cmt></trkpt>
<trkpt lat="58.769889" lon="05.719399"><ele>26</ele><time>2012-03-25T15:39:30Z</time><cmt>6.4 kmh</cmt></trkpt>
<trkpt lat="58.769902" lon="05.719415"><ele>26</ele><time>2012-03-25T15:39:31Z</time><cmt>5.8 kmh</cmt></trkpt>
<trkpt lat="58.769914" lon="05.719431"><ele>26</ele><time>2012-03-25T15:39:32Z</time><cmt>5.4 kmh</cmt></trkpt>
<trkpt lat="58.769924" lon="05.719446"><ele>26</ele><time>2012-03-25T15:39:32Z</time><cmt>5.1 kmh</cmt></trkpt>
<trkpt lat="58.769935" lon="05.719459"><ele>26</ele><time>2012-03-25T15:39:33Z</time><cmt>5.1 kmh</cmt></trkpt>
<trkpt lat="58.769946" lon="05.719472"><ele>26</ele><time>2012-03-25T15:39:34Z</time><cmt>5.5 kmh</cmt></trkpt>
<trkpt lat="58.769958" lon="05.719486"><ele>26</ele><time>2012-03-25T15:39:36Z</time><cmt>5.8 kmh</cmt></trkpt>
<trkpt lat="58.769970" lon="05.719500"><ele>26</ele><time>2012-03-25T15:39:37Z</time><cmt>6.0 kmh</cmt></trkpt>
<trkpt lat="58.769983" lon="05.719514"><ele>26</ele><time>2012-03-25T15:39:38Z</time><cmt>6.1 kmh</cmt></trkpt>
<trkpt lat="58.769996" lon="05.719529"><ele>26</ele><time>2012-03-25T15:39:38Z</time><cmt>6.6 kmh</cmt></trkpt>
<trkpt lat="58.770010" lon="05.719544"><ele>26</ele><time>2012-03-25T15:39:39Z</time><cmt>6.7 kmh</cmt></trkpt>
<trkpt lat="58.770025" lon="05.719559"><ele>26</ele><time>2012-03-25T15:39:40Z</time><cmt>6.8 kmh</cmt></trkpt>
<trkpt lat="58.770040" lon="05.719575"><ele>26</ele><time>2012-03-25T15:39:42Z</time><cmt>6.9 kmh</cmt></trkpt>
<trkpt lat="58.770055" lon="05.719591"><ele>26</ele><time>2012-03-25T15:39:43Z</time><cmt>6.9 kmh</cmt></trkpt>
<trkpt lat="58.770070" lon="05.719606"><ele>26</ele><time>2012-03-25T15:39:44Z</time><cmt>6.6 kmh</cmt></trkpt>
<trkpt lat="58.770085" lon="05.719621"><ele>26</ele><time>2012-03-25T15:39:44Z</time><cmt>6.8 kmh</cmt></trkpt>
<trkpt lat="58.770098" lon="05.719637"><ele>26</ele><time>2012-03-25T15:39:45Z</time><cmt>6.7 kmh</cmt></trkpt>
<trkpt lat="58.770113" lon="05.719653"><ele>26</ele><time>2012-03-25T15:39:46Z</time><cmt>6.8 kmh</cmt></trkpt>
<trkpt lat="58.770127" lon="05.719669"><ele>26</ele><time>2012-03-25T15:39:48Z</time><cmt>6.7 kmh</cmt></trkpt>
<trkpt lat="58.770141" lon="05.719684"><ele>26</ele><time>2012-03-25T15:39:49Z</time><cmt>6.7 kmh</cmt></trkpt>
<trkpt lat="58.770155" lon="05.719698"><ele>26</ele><time>2012-03-25T15:39:50Z</time><cmt>6.8 kmh</cmt></trkpt>
<trkpt lat="58.770170" lon="05.719713"><ele>26</ele><time>2012-03-25T15:39:50Z</time><cmt>6.8 kmh</cmt></trkpt>
<trkpt lat="58.770184" lon="05.719728"><ele>26</ele><time>2012-03-25T15:39:51Z</time><cmt>6.6 kmh</cmt></trkpt>
<trkpt lat="58.770198" lon="05.719742"><ele>26</ele><time>2012-03-25T15:39:52Z</time><cmt>6.6 kmh</cmt></trkpt>
<trkpt lat="58.770212" lon="05.719756"><ele>25</ele><time>2012-03-25T15:39:53Z</time><cmt>6.3 kmh</cmt></trkpt>
<trkpt lat="58.770226" lon="05.719769"><ele>25</ele><time>2012-03-25T15:39:55Z</time><cmt>6.5 kmh</cmt></trkpt>
<trkpt lat="58.770240" lon="05.719782"><ele>25</ele><time>2012-03-25T15:39:56Z</time><cmt>6.4 kmh</cmt></trkpt>
<trkpt lat="58.770255" lon="05.719794"><ele>25</ele><time>2012-03-25T15:39:57Z</time><cmt>6.6 kmh</cmt></trkpt>
<trkpt lat="58.770269" lon="05.719806"><ele>25</ele><time>2012-03-25T15:39:57Z</time><cmt>6.4 kmh</cmt></trkpt>
<trkpt lat="58.770284" lon="05.719818"><ele>25</ele><time>2012-03-25T15:39:58Z</time><cmt>6.6 kmh</cmt></trkpt>
<trkpt lat="58.770299" lon="05.719831"><ele>25</ele><time>2012-03-25T15:39:59Z</time><cmt>6.6 kmh</cmt></trkpt>
<trkpt lat="58.770314" lon="05.719843"><ele>25</ele><time>2012-03-25T15:40:01Z</time><cmt>6.7 kmh</cmt></trkpt>
<trkpt lat="58.770330" lon="05.719854"><ele>25</ele><time>2012-03-25T15:40:02Z</time><cmt>6.7 kmh</cmt></trkpt>
<trkpt lat="58.770345" lon="05.719866"><ele>25</ele><time>2012-03-25T15:40:03Z</time><cmt>6.8 kmh</cmt></trkpt>
<trkpt lat="58.770361" lon="05.719878"><ele>25</ele><time>2012-03-25T15:40:03Z</time><cmt>6.9 kmh</cmt></trkpt>
<trkpt lat="58.770376" lon="05.719891"><ele>25</ele><time>2012-03-25T15:40:04Z</time><cmt>6.9 kmh</cmt></trkpt>
<trkpt lat="58.770391" lon="05.719904"><ele>25</ele><time>2012-03-25T15:40:05Z</time><cmt>6.8 kmh</cmt></trkpt>
<trkpt lat="58.770407" lon="05.719917"><ele>25</ele><time>2012-03-25T15:40:07Z</time><cmt>7.0 kmh</cmt></trkpt>
<trkpt lat="58.770423" lon="05.719930"><ele>25</ele><time>2012-03-25T15:40:08Z</time><cmt>7.3 kmh</cmt></trkpt>
<trkpt lat="58.770440" lon="05.719943"><ele>24</ele><time>2012-03-25T15:40:09Z</time><cmt>7.3 kmh</cmt></trkpt>
<trkpt lat="58.770457" lon="05.719956"><ele>24</ele><time>2012-03-25T15:40:09Z</time><cmt>7.3 kmh</cmt></trkpt>
<trkpt lat="58.770474" lon="05.719970"><ele>24</ele><time>2012-03-25T15:40:10Z</time><cmt>7.5 kmh</cmt></trkpt>
<trkpt lat="58.770491" lon="05.719983"><ele>24</ele><time>2012-03-25T15:40:11Z</time><cmt>7.5 kmh</cmt></trkpt>
<trkpt lat="58.770508" lon="05.719996"><ele>24</ele><time>2012-03-25T15:40:13Z</time><cmt>7.5 kmh</cmt></trkpt>
<trkpt lat="58.770526" lon="05.720009"><ele>24</ele><time>2012-03-25T15:40:14Z</time><cmt>7.5 kmh</cmt></trkpt>
<trkpt lat="58.770543" lon="05.720022"><ele>24</ele><time>2012-03-25T15:40:15Z</time><cmt>7.4 kmh</cmt></trkpt>
<trkpt lat="58.770560" lon="05.720035"><ele>23</ele><time>2012-03-25T15:40:15Z</time><cmt>7.6 kmh</cmt></trkpt>
<trkpt lat="58.770577" lon="05.720047"><ele>23</ele><time>2012-03-25T15:40:16Z</time><cmt>7.3 kmh</cmt></trkpt>
<trkpt lat="58.770594" lon="05.720058"><ele>23</ele><time>2012-03-25T15:40:17Z</time><cmt>7.2 kmh</cmt></trkpt>
<trkpt lat="58.770611" lon="05.720070"><ele>23</ele><time>2012-03-25T15:40:19Z</time><cmt>7.1 kmh</cmt></trkpt>
<trkpt lat="58.770627" lon="05.720083"><ele>23</ele><time>2012-03-25T15:40:20Z</time><cmt>7.1 kmh</cmt></trkpt>
<trkpt lat="58.770644" lon="05.720095"><ele>23</ele><time>2012-03-25T15:40:21Z</time><cmt>7.4 kmh</cmt></trkpt>
<trkpt lat="58.770661" lon="05.720108"><ele>22</ele><time>2012-03-25T15:40:21Z</time><cmt>7.2 kmh</cmt></trkpt>
<trkpt lat="58.770678" lon="05.720120"><ele>22</ele><time>2012-03-25T15:40:22Z</time><cmt>7.0 kmh</cmt></trkpt>
<trkpt lat="58.770695" lon="05.720132"><ele>22</ele><time>2012-03-25T15:40:23Z</time><cmt>7.2 kmh</cmt></trkpt>
<trkpt lat="58.770711" lon="05.720144"><ele>22</ele><time>2012-03-25T15:40:24Z</time><cmt>7.0 kmh</cmt></trkpt>
<trkpt lat="58.770728" lon="05.720157"><ele>22</ele><time>2012-03-25T15:40:26Z</time><cmt>7.3 kmh</cmt></trkpt>
<trkpt lat="58.770745" lon="05.720170"><ele>22</ele><time>2012-03-25T15:40:27Z</time><cmt>7.5 kmh</cmt></trkpt>
<trkpt lat="58.770762" lon="05.720183"><ele>22</ele><time>2012-03-25T15:40:27Z</time><cmt>7.3 kmh</cmt></trkpt>
<trkpt lat="58.770779" lon="05.720196"><ele>22</ele><time>2012-03-25T15:40:28Z</time><cmt>7.4 kmh</cmt></trkpt>
<trkpt lat="58.770796" lon="05.720208"><ele>22</ele><time>2012-03-25T15:40:29Z</time><cmt>7.3 kmh</cmt></trkpt>
<trkpt lat="58.770813" lon="05.720222"><ele>21</ele><time>2012-03-25T15:40:30Z</time><cmt>7.4 kmh</cmt></trkpt>
<trkpt lat="58.770830" lon="05.720235"><ele>21</ele><time>2012-03-25T15:40:32Z</time><cmt>7.3 kmh</cmt></trkpt>
<trkpt lat="58.770847" lon="05.720249"><ele>21</ele><time>2012-03-25T15:40:33Z</time><cmt>7.5 kmh</cmt></trkpt>
<trkpt lat="58.770864" lon="05.720262"><ele>21</ele><time>2012-03-25T15:40:34Z</time><cmt>7.6 kmh</cmt></trkpt>
<trkpt lat="58.770882" lon="05.720277"><ele>21</ele><time>2012-03-25T15:40:34Z</time><cmt>7.5 kmh</cmt></trkpt>
<trkpt lat="58.770898" lon="05.720291"><ele>21</ele><time>2012-03-25T15:40:35Z</time><cmt>7.3 kmh</cmt></trkpt>
<trkpt lat="58.770914" lon="05.720307"><ele>21</ele><time>2012-03-25T15:40:36Z</time><cmt>7.2 kmh</cmt></trkpt>
<trkpt lat="58.770930" lon="05.720321"><ele>21</ele><time>2012-03-25T15:40:38Z</time><cmt>7.3 kmh</cmt></trkpt>
<trkpt lat="58.770946" lon="05.720336"><ele>21</ele><time>2012-03-25T15:40:39Z</time><cmt>7.3 kmh</cmt></trkpt>
<trkpt lat="58.770963" lon="05.720351"><ele>21</ele><time>2012-03-25T15:40:40Z</time><cmt>7.2 kmh</cmt></trkpt>
<trkpt lat="58.770978" lon="05.720367"><ele>21</ele><time>2012-03-25T15:40:40Z</time><cmt>7.3 kmh</cmt></trkpt>
<trkpt lat="58.770994" lon="05.720382"><ele>20</ele><time>2012-03-25T15:40:41Z</time><cmt>7.3 kmh</cmt></trkpt>
<trkpt lat="58.771011" lon="05.720396"><ele>20</ele><time>2012-03-25T15:40:42Z</time><cmt>7.5 kmh</cmt></trkpt>
<trkpt lat="58.771027" lon="05.720412"><ele>20</ele><time>2012-03-25T15:40:44Z</time><cmt>7.7 kmh</cmt></trkpt>
<trkpt lat="58.771045" lon="05.720427"><ele>20</ele><time>2012-03-25T15:40:45Z</time><cmt>7.5 kmh</cmt></trkpt>
<trkpt lat="58.771061" lon="05.720443"><ele>20</ele><time>2012-03-25T15:40:46Z</time><cmt>7.5 kmh</cmt></trkpt>
<trkpt lat="58.771078" lon="05.720459"><ele>20</ele><time>2012-03-25T15:40:46Z</time><cmt>7.4 kmh</cmt></trkpt>
<trkpt lat="58.771094" lon="05.720477"><ele>20</ele><time>2012-03-25T15:40:47Z</time><cmt>7.2 kmh</cmt></trkpt>
<trkpt lat="58.771109" lon="05.720493"><ele>20</ele><time>2012-03-25T15:40:48Z</time><cmt>6.9 kmh</cmt></trkpt>
<trkpt lat="58.771125" lon="05.720509"><ele>20</ele><time>2012-03-25T15:40:50Z</time><cmt>7.2 kmh</cmt></trkpt>
<trkpt lat="58.771140" lon="05.720524"><ele>19</ele><time>2012-03-25T15:40:51Z</time><cmt>6.9 kmh</cmt></trkpt>
<trkpt lat="58.771155" lon="05.720540"><ele>19</ele><time>2012-03-25T15:40:52Z</time><cmt>7.0 kmh</cmt></trkpt>
<trkpt lat="58.771171" lon="05.720556"><ele>19</ele><time>2012-03-25T15:40:52Z</time><cmt>6.9 kmh</cmt></trkpt>
<trkpt lat="58.771187" lon="05.720573"><ele>19</ele><time>2012-03-25T15:40:53Z</time><cmt>7.0 kmh</cmt></trkpt>
<trkpt lat="58.771202" lon="05.720590"><ele>19</ele><time>2012-03-25T15:40:54Z</time><cmt>6.9 kmh</cmt></trkpt>
<trkpt lat="58.771218" lon="05.720607"><ele>19</ele><time>2012-03-25T15:40:55Z</time><cmt>7.1 kmh</cmt></trkpt>
<trkpt lat="58.771233" lon="05.720623"><ele>19</ele><time>2012-03-25T15:40:57Z</time><cmt>6.9 kmh</cmt></trkpt>
<trkpt lat="58.771248" lon="05.720640"><ele>19</ele><time>2012-03-25T15:40:58Z</time><cmt>6.7 kmh</cmt></trkpt>
<trkpt lat="58.771263" lon="05.720658"><ele>19</ele><time>2012-03-25T15:40:59Z</time><cmt>7.0 kmh</cmt></trkpt>
<trkpt lat="58.771279" lon="05.720674"><ele>19</ele><time>2012-03-25T15:40:59Z</time><cmt>6.8 kmh</cmt></trkpt>
<trkpt lat="58.771295" lon="05.720689"><ele>19</ele><time>2012-03-25T15:41:00Z</time><cmt>6.9 kmh</cmt></trkpt>
<trkpt lat="58.771311" lon="05.720706"><ele>19</ele><time>2012-03-25T15:41:01Z</time><cmt>7.0 kmh</cmt></trkpt>
<trkpt lat="58.771327" lon="05.720723"><ele>20</ele><time>2012-03-25T15:41:03Z</time><cmt>7.0 kmh</cmt></trkpt>
<trkpt lat="58.771342" lon="05.720741"><ele>20</ele><time>2012-03-25T15:41:04Z</time><cmt>7.0 kmh</cmt></trkpt>
<trkpt lat="58.771356" lon="05.720759"><ele>20</ele><time>2012-03-25T15:41:05Z</time><cmt>6.8 kmh</cmt></trkpt>
<trkpt lat="58.771370" lon="05.720777"><ele>20</ele><time>2012-03-25T15:41:05Z</time><cmt>6.8 kmh</cmt></trkpt>
<trkpt lat="58.771385" lon="05.720794"><ele>20</ele><time>2012-03-25T15:41:06Z</time><cmt>6.9 kmh</cmt></trkpt>
<trkpt lat="58.771400" lon="05.720811"><ele>20</ele><time>2012-03-25T15:41:07Z</time><cmt>6.9 kmh</cmt></trkpt>
<trkpt lat="58.771414" lon="05.720828"><ele>20</ele><time>2012-03-25T15:41:09Z</time><cmt>6.9 kmh</cmt></trkpt>
<trkpt lat="58.771429" lon="05.720847"><ele>20</ele><time>2012-03-25T15:41:10Z</time><cmt>6.9 kmh</cmt></trkpt>
<trkpt lat="58.771443" lon="05.720867"><ele>21</ele><time>2012-03-25T15:41:11Z</time><cmt>7.0 kmh</cmt></trkpt>
<trkpt lat="58.771457" lon="05.720886"><ele>21</ele><time>2012-03-25T15:41:11Z</time><cmt>7.0 kmh</cmt></trkpt>
<trkpt lat="58.771471" lon="05.720906"><ele>21</ele><time>2012-03-25T15:41:12Z</time><cmt>7.0 kmh</cmt></trkpt>
<trkpt lat="58.771485" lon="05.720927"><ele>21</ele><time>2012-03-25T15:41:13Z</time><cmt>7.0 kmh</cmt></trkpt>
<trkpt lat="58.771499" lon="05.720947"><ele>21</ele><time>2012-03-25T15:41:15Z</time><cmt>7.1 kmh</cmt></trkpt>
<trkpt lat="58.771512" lon="05.720968"><ele>21</ele><time>2012-03-25T15:41:16Z</time><cmt>7.3 kmh</cmt></trkpt>
<trkpt lat="58.771526" lon="05.720989"><ele>22</ele><time>2012-03-25T15:41:17Z</time><cmt>6.9 kmh</cmt></trkpt>
<trkpt lat="58.771540" lon="05.721010"><ele>22</ele><time>2012-03-25T15:41:17Z</time><cmt>6.9 kmh</cmt></trkpt>
<trkpt lat="58.771554" lon="05.721029"><ele>22</ele><time>2012-03-25T15:41:18Z</time><cmt>6.9 kmh</cmt></trkpt>
<trkpt lat="58.771568" lon="05.721048"><ele>22</ele><time>2012-03-25T15:41:19Z</time><cmt>6.8 kmh</cmt></trkpt>
<trkpt lat="58.771581" lon="05.721068"><ele>22</ele><time>2012-03-25T15:41:21Z</time><cmt>6.8 kmh</cmt></trkpt>
<trkpt lat="58.771594" lon="05.721088"><ele>22</ele><time>2012-03-25T15:41:22Z</time><cmt>6.7 kmh</cmt></trkpt>
<trkpt lat="58.771607" lon="05.721108"><ele>22</ele><time>2012-03-25T15:41:23Z</time><cmt>6.9 kmh</cmt></trkpt>
<trkpt lat="58.771620" lon="05.721128"><ele>22</ele><time>2012-03-25T15:41:23Z</time><cmt>6.9 kmh</cmt></trkpt>
<trkpt lat="58.771633" lon="05.721149"><ele>23</ele><time>2012-03-25T15:41:24Z</time><cmt>6.8 kmh</cmt></trkpt>
<trkpt lat="58.771646" lon="05.721170"><ele>23</ele><time>2012-03-25T15:41:25Z</time><cmt>7.0 kmh</cmt></trkpt>
<trkpt lat="58.771659" lon="05.721191"><ele>23</ele><time>2012-03-25T15:41:27Z</time><cmt>6.9 kmh</cmt></trkpt>
<trkpt lat="58.771672" lon="05.721213"><ele>23</ele><time>2012-03-25T15:41:28Z</time><cmt>6.9 kmh</cmt></trkpt>
<trkpt lat="58.771685" lon="05.721235"><ele>23</ele><time>2012-03-25T15:41:29Z</time><cmt>6.9 kmh</cmt></trkpt>
<trkpt lat="58.771698" lon="05.721257"><ele>23</ele><time>2012-03-25T15:41:29Z</time><cmt>7.0 kmh</cmt></trkpt>
<trkpt lat="58.771710" lon="05.721280"><ele>23</ele><time>2012-03-25T15:41:30Z</time><cmt>7.0 kmh</cmt></trkpt>
<trkpt lat="58.771723" lon="05.721302"><ele>23</ele><time>2012-03-25T15:41:31Z</time><cmt>7.1 kmh</cmt></trkpt>
<trkpt lat="58.771737" lon="05.721325"><ele>23</ele><time>2012-03-25T15:41:32Z</time><cmt>7.1 kmh</cmt></trkpt>
<trkpt lat="58.771751" lon="05.721348"><ele>23</ele><time>2012-03-25T15:41:34Z</time><cmt>7.2 kmh</cmt></trkpt>
<trkpt lat="58.771765" lon="05.721371"><ele>23</ele><time>2012-03-25T15:41:35Z</time><cmt>7.3 kmh</cmt></trkpt>
<trkpt lat="58.771779" lon="05.721393"><ele>23</ele><time>2012-03-25T15:41:36Z</time><cmt>7.2 kmh</cmt></trkpt>
<trkpt lat="58.771792" lon="05.721415"><ele>23</ele><time>2012-03-25T15:41:36Z</time><cmt>7.1 kmh</cmt></trkpt>
<trkpt lat="58.771806" lon="05.721438"><ele>23</ele><time>2012-03-25T15:41:37Z</time><cmt>7.0 kmh</cmt></trkpt>
<trkpt lat="58.771819" lon="05.721460"><ele>23</ele><time>2012-03-25T15:41:38Z</time><cmt>7.2 kmh</cmt></trkpt>
<trkpt lat="58.771833" lon="05.721482"><ele>23</ele><time>2012-03-25T15:41:40Z</time><cmt>7.5 kmh</cmt></trkpt>
<trkpt lat="58.771847" lon="05.721503"><ele>23</ele><time>2012-03-25T15:41:41Z</time><cmt>7.2 kmh</cmt></trkpt>
<trkpt lat="58.771862" lon="05.721522"><ele>23</ele><time>2012-03-25T15:41:42Z</time><cmt>7.3 kmh</cmt></trkpt>
<trkpt lat="58.771876" lon="05.721543"><ele>23</ele><time>2012-03-25T15:41:42Z</time><cmt>7.2 kmh</cmt></trkpt>
<trkpt lat="58.771889" lon="05.721565"><ele>23</ele><time>2012-03-25T15:41:43Z</time><cmt>7.3 kmh</cmt></trkpt>
<trkpt lat="58.771903" lon="05.721588"><ele>23</ele><time>2012-03-25T15:41:44Z</time><cmt>7.2 kmh</cmt></trkpt>
<trkpt lat="58.771917" lon="05.721610"><ele>23</ele><time>2012-03-25T15:41:46Z</time><cmt>7.3 kmh</cmt></trkpt>
<trkpt lat="58.771931" lon="05.721633"><ele>23</ele><time>2012-03-25T15:41:47Z</time><cmt>7.2 kmh</cmt></trkpt>
<trkpt lat="58.771945" lon="05.721655"><ele>23</ele><time>2012-03-25T15:41:48Z</time><cmt>7.2 kmh</cmt></trkpt>
<trkpt lat="58.771959" lon="05.721677"><ele>23</ele><time>2012-03-25T15:41:48Z</time><cmt>7.4 kmh</cmt></trkpt>
<trkpt lat="58.771973" lon="05.721699"><ele>23</ele><time>2012-03-25T15:41:49Z</time><cmt>7.5 kmh</cmt></trkpt>
<trkpt lat="58.771988" lon="05.721722"><ele>23</ele><time>2012-03-25T15:41:50Z</time><cmt>7.4 kmh</cmt></trkpt>
<trkpt lat="58.772002" lon="05.721744"><ele>23</ele><time>2012-03-25T15:41:52Z</time><cmt>7.5 kmh</cmt></trkpt>
<trkpt lat="58.772017" lon="05.721766"><ele>24</ele><time>2012-03-25T15:41:53Z</time><cmt>7.5 kmh</cmt></trkpt>
<trkpt lat="58.772031" lon="05.721788"><ele>24</ele><time>2012-03-25T15:41:54Z</time><cmt>7.4 kmh</cmt></trkpt>
<trkpt lat="58.772045" lon="05.721811"><ele>24</ele><time>2012-03-25T15:41:54Z</time><cmt>7.2 kmh</cmt></trkpt>
<trkpt lat="58.772058" lon="05.721834"><ele>24</ele><time>2012-03-25T15:41:55Z</time><cmt>7.3 kmh</cmt></trkpt>
<trkpt lat="58.772072" lon="05.721856"><ele>24</ele><time>2012-03-25T15:41:56Z</time><cmt>7.1 kmh</cmt></trkpt>
<trkpt lat="58.772086" lon="05.721878"><ele>24</ele><time>2012-03-25T15:41:58Z</time><cmt>7.2 kmh</cmt></trkpt>
<trkpt lat="58.772100" lon="05.721899"><ele>24</ele><time>2012-03-25T15:41:59Z</time><cmt>7.0 kmh</cmt></trkpt>
<trkpt lat="58.772114" lon="05.721920"><ele>24</ele><time>2012-03-25T15:42:00Z</time><cmt>7.2 kmh</cmt></trkpt>
<trkpt lat="58.772128" lon="05.721941"><ele>24</ele><time>2012-03-25T15:42:00Z</time><cmt>7.0 kmh</cmt></trkpt>
<trkpt lat="58.772141" lon="05.721962"><ele>24</ele><time>2012-03-25T15:42:01Z</time><cmt>7.1 kmh</cmt></trkpt>
<trkpt lat="58.772155" lon="05.721983"><ele>24</ele><time>2012-03-25T15:42:02Z</time><cmt>7.1 kmh</cmt></trkpt>
<trkpt lat="58.772170" lon="05.722002"><ele>24</ele><time>2012-03-25T15:42:03Z</time><cmt>7.2 kmh</cmt></trkpt>
<trkpt lat="58.772184" lon="05.722024"><ele>24</ele><time>2012-03-25T15:42:05Z</time><cmt>7.1 kmh</cmt></trkpt>
<trkpt lat="58.772198" lon="05.722045"><ele>24</ele><time>2012-03-25T15:42:06Z</time><cmt>7.3 kmh</cmt></trkpt>
<trkpt lat="58.772211" lon="05.722067"><ele>24</ele><time>2012-03-25T15:42:07Z</time><cmt>7.0 kmh</cmt></trkpt>
<trkpt lat="58.772225" lon="05.722088"><ele>24</ele><time>2012-03-25T15:42:07Z</time><cmt>6.9 kmh</cmt></trkpt>
<trkpt lat="58.772239" lon="05.722108"><ele>24</ele><time>2012-03-25T15:42:08Z</time><cmt>7.2 kmh</cmt></trkpt>
<trkpt lat="58.772253" lon="05.722130"><ele>24</ele><time>2012-03-25T15:42:09Z</time><cmt>7.3 kmh</cmt></trkpt>
<trkpt lat="58.772267" lon="05.722152"><ele>24</ele><time>2012-03-25T15:42:11Z</time><cmt>7.2 kmh</cmt></trkpt>
<trkpt lat="58.772282" lon="05.722172"><ele>24</ele><time>2012-03-25T15:42:12Z</time><cmt>7.2 kmh</cmt></trkpt>
<trkpt lat="58.772297" lon="05.722191"><ele>24</ele><time>2012-03-25T15:42:13Z</time><cmt>7.1 kmh</cmt></trkpt>
<trkpt lat="58.772311" lon="05.722212"><ele>24</ele><time>2012-03-25T15:42:13Z</time><cmt>7.3 kmh</cmt></trkpt>
<trkpt lat="58.772325" lon="05.722234"><ele>24</ele><time>2012-03-25T15:42:14Z</time><cmt>7.3 kmh</cmt></trkpt>
<trkpt lat="58.772340" lon="05.722255"><ele>24</ele><time>2012-03-25T15:42:15Z</time><cmt>7.2 kmh</cmt></trkpt>
<trkpt lat="58.772354" lon="05.722275"><ele>24</ele><time>2012-03-25T15:42:17Z</time><cmt>7.1 kmh</cmt></trkpt>
<trkpt lat="58.772369" lon="05.722295"><ele>24</ele><time>2012-03-25T15:42:18Z</time><cmt>7.2 kmh</cmt></trkpt>
<trkpt lat="58.772384" lon="05.722316"><ele>24</ele><time>2012-03-25T15:42:19Z</time><cmt>7.2 kmh</cmt></trkpt>
<trkpt lat="58.772399" lon="05.722337"><ele>24</ele><time>2012-03-25T15:42:19Z</time><cmt>7.1 kmh</cmt></trkpt>
<trkpt lat="58.772414" lon="05.722356"><ele>24</ele><time>2012-03-25T15:42:20Z</time><cmt>7.2 kmh</cmt></trkpt>
<trkpt lat="58.772428" lon="05.722377"><ele>24</ele><time>2012-03-25T15:42:21Z</time><cmt>7.4 kmh</cmt></trkpt>
<trkpt lat="58.772443" lon="05.722398"><ele>24</ele><time>2012-03-25T15:42:23Z</time><cmt>7.4 kmh</cmt></trkpt>
<trkpt lat="58.772457" lon="05.722418"><ele>24</ele><time>2012-03-25T15:42:24Z</time><cmt>7.3 kmh</cmt></trkpt>
<trkpt lat="58.772472" lon="05.722439"><ele>24</ele><time>2012-03-25T15:42:25Z</time><cmt>7.6 kmh</cmt></trkpt>
<trkpt lat="58.772487" lon="05.722461"><ele>24</ele><time>2012-03-25T15:42:25Z</time><cmt>7.4 kmh</cmt></trkpt>
<trkpt lat="58.772502" lon="05.722482"><ele>24</ele><time>2012-03-25T15:42:26Z</time><cmt>7.4 kmh</cmt></trkpt>
<trkpt lat="58.772517" lon="05.722504"><ele>24</ele><time>2012-03-25T15:42:27Z</time><cmt>7.4 kmh</cmt></trkpt>
<trkpt lat="58.772532" lon="05.722524"><ele>24</ele><time>2012-03-25T15:42:29Z</time><cmt>7.4 kmh</cmt></trkpt>
<trkpt lat="58.772546" lon="05.722547"><ele>24</ele><time>2012-03-25T15:42:30Z</time><cmt>7.4 kmh</cmt></trkpt>
<trkpt lat="58.772561" lon="05.722568"><ele>24</ele><time>2012-03-25T15:42:31Z</time><cmt>7.3 kmh</cmt></trkpt>
<trkpt lat="58.772575" lon="05.722590"><ele>24</ele><time>2012-03-25T15:42:31Z</time><cmt>7.2 kmh</cmt></trkpt>
<trkpt lat="58.772589" lon="05.722611"><ele>24</ele><time>2012-03-25T15:42:32Z</time><cmt>7.3 kmh</cmt></trkpt>
<trkpt lat="58.772604" lon="05.722632"><ele>24</ele><time>2012-03-25T15:42:33Z</time><cmt>7.2 kmh</cmt></trkpt>
<trkpt lat="58.772619" lon="05.722651"><ele>24</ele><time>2012-03-25T15:42:34Z</time><cmt>7.4 kmh</cmt></trkpt>
<trkpt lat="58.772634" lon="05.722671"><ele>24</ele><time>2012-03-25T15:42:36Z</time><cmt>7.2 kmh</cmt></trkpt>
<trkpt lat="58.772649" lon="05.722692"><ele>24</ele><time>2012-03-25T15:42:37Z</time><cmt>7.2 kmh</cmt></trkpt>
<trkpt lat="58.772663" lon="05.722712"><ele>23</ele><time>2012-03-25T15:42:38Z</time><cmt>7.2 kmh</cmt></trkpt>
<trkpt lat="58.772678" lon="05.722732"><ele>23</ele><time>2012-03-25T15:42:38Z</time><cmt>7.2 kmh</cmt></trkpt>
<trkpt lat="58.772693" lon="05.722751"><ele>23</ele><time>2012-03-25T15:42:39Z</time><cmt>7.2 kmh</cmt></trkpt>
<trkpt lat="58.772708" lon="05.722769"><ele>23</ele><time>2012-03-25T15:42:40Z</time><cmt>7.1 kmh</cmt></trkpt>
<trkpt lat="58.772724" lon="05.722785"><ele>23</ele><time>2012-03-25T15:42:42Z</time><cmt>7.3 kmh</cmt></trkpt>
<trkpt lat="58.772740" lon="05.722801"><ele>23</ele><time>2012-03-25T15:42:43Z</time><cmt>7.1 kmh</cmt></trkpt>
<trkpt lat="58.772756" lon="05.722817"><ele>23</ele><time>2012-03-25T15:42:44Z</time><cmt>7.3 kmh</cmt></trkpt>
<trkpt lat="58.772772" lon="05.722832"><ele>23</ele><time>2012-03-25T15:42:44Z</time><cmt>7.2 kmh</cmt></trkpt>
<trkpt lat="58.772787" lon="05.722848"><ele>23</ele><time>2012-03-25T15:42:45Z</time><cmt>7.2 kmh</cmt></trkpt>
<trkpt lat="58.772803" lon="05.722864"><ele>23</ele><time>2012-03-25T15:42:46Z</time><cmt>7.1 kmh</cmt></trkpt>
<trkpt lat="58.772819" lon="05.722879"><ele>23</ele><time>2012-03-25T15:42:48Z</time><cmt>7.1 kmh</cmt></trkpt>
<trkpt lat="58.772834" lon="05.722895"><ele>22</ele><time>2012-03-25T15:42:49Z</time><cmt>7.1 kmh</cmt></trkpt>
<trkpt lat="58.772850" lon="05.722910"><ele>22</ele><time>2012-03-25T15:42:50Z</time><cmt>7.4 kmh</cmt></trkpt>
<trkpt lat="58.772866" lon="05.722924"><ele>22</ele><time>2012-03-25T15:42:50Z</time><cmt>7.3 kmh</cmt></trkpt>
<trkpt lat="58.772883" lon="05.722938"><ele>22</ele><time>2012-03-25T15:42:51Z</time><cmt>7.2 kmh</cmt></trkpt>
<trkpt lat="58.772899" lon="05.722953"><ele>22</ele><time>2012-03-25T15:42:52Z</time><cmt>7.3 kmh</cmt></trkpt>
<trkpt lat="58.772915" lon="05.722968"><ele>22</ele><time>2012-03-25T15:42:54Z</time><cmt>7.1 kmh</cmt></trkpt>
<trkpt lat="58.772931" lon="05.722983"><ele>22</ele><time>2012-03-25T15:42:55Z</time><cmt>7.3 kmh</cmt></trkpt>
<trkpt lat="58.772946" lon="05.722998"><ele>22</ele><time>2012-03-25T15:42:56Z</time><cmt>7.1 kmh</cmt></trkpt>
<trkpt lat="58.772962" lon="05.723012"><ele>22</ele><time>2012-03-25T15:42:56Z</time><cmt>7.0 kmh</cmt></trkpt>
<trkpt lat="58.772978" lon="05.723025"><ele>22</ele><time>2012-03-25T15:42:57Z</time><cmt>6.9 kmh</cmt></trkpt>
<trkpt lat="58.772993" lon="05.723039"><ele>22</ele><time>2012-03-25T15:42:58Z</time><cmt>7.1 kmh</cmt></trkpt>
<trkpt lat="58.773009" lon="05.723053"><ele>21</ele><time>2012-03-25T15:43:00Z</time><cmt>6.9 kmh</cmt></trkpt>
<trkpt lat="58.773025" lon="05.723067"><ele>21</ele><time>2012-03-25T15:43:01Z</time><cmt>7.3 kmh</cmt></trkpt>
<trkpt lat="58.773042" lon="05.723080"><ele>21</ele><time>2012-03-25T15:43:02Z</time><cmt>7.3 kmh</cmt></trkpt>
<trkpt lat="58.773060" lon="05.723091"><ele>21</ele><time>2012-03-25T15:43:02Z</time><cmt>7.3 kmh</cmt></trkpt>
<trkpt lat="58.773077" lon="05.723102"><ele>21</ele><time>2012-03-25T15:43:03Z</time><cmt>7.6 kmh</cmt></trkpt>
<trkpt lat="58.773095" lon="05.723112"><ele>21</ele><time>2012-03-25T15:43:04Z</time><cmt>7.6 kmh</cmt></trkpt>
<trkpt lat="58.773113" lon="05.723122"><ele>21</ele><time>2012-03-25T15:43:05Z</time><cmt>7.2 kmh</cmt></trkpt>
<trkpt lat="58.773130" lon="05.723131"><ele>21</ele><time>2012-03-25T15:43:07Z</time><cmt>7.3 kmh</cmt></trkpt>
<trkpt lat="58.773147" lon="05.723140"><ele>21</ele><time>2012-03-25T15:43:08Z</time><cmt>7.2 kmh</cmt></trkpt>
<trkpt lat="58.773165" lon="05.723148"><ele>21</ele><time>2012-03-25T15:43:09Z</time><cmt>7.0 kmh</cmt></trkpt>
<trkpt lat="58.773183" lon="05.723157"><ele>21</ele><time>2012-03-25T15:43:09Z</time><cmt>7.3 kmh</cmt></trkpt>
<trkpt lat="58.773201" lon="05.723164"><ele>21</ele><time>2012-03-25T15:43:10Z</time><cmt>7.4 kmh</cmt></trkpt>
<trkpt lat="58.773219" lon="05.723171"><ele>21</ele><time>2012-03-25T15:43:11Z</time><cmt>7.3 kmh</cmt></trkpt>
<trkpt lat="58.773237" lon="05.723178"><ele>21</ele><time>2012-03-25T15:43:13Z</time><cmt>6.8 kmh</cmt></trkpt>
<trkpt lat="58.773254" lon="05.723184"><ele>21</ele><time>2012-03-25T15:43:14Z</time><cmt>7.2 kmh</cmt></trkpt>
<trkpt lat="58.773272" lon="05.723189"><ele>21</ele><time>2012-03-25T15:43:15Z</time><cmt>7.0 kmh</cmt></trkpt>
<trkpt lat="58.773289" lon="05.723195"><ele>21</ele><time>2012-03-25T15:43:15Z</time><cmt>6.8 kmh</cmt></trkpt>
<trkpt lat="58.773306" lon="05.723200"><ele>21</ele><time>2012-03-25T15:43:16Z</time><cmt>6.7 kmh</cmt></trkpt>
<trkpt lat="58.773322" lon="05.723205"><ele>21</ele><time>2012-03-25T15:43:17Z</time><cmt>6.9 kmh</cmt></trkpt>
<trkpt lat="58.773339" lon="05.723210"><ele>21</ele><time>2012-03-25T15:43:19Z</time><cmt>6.8 kmh</cmt></trkpt>
<trkpt lat="58.773357" lon="05.723216"><ele>21</ele><time>2012-03-25T15:43:20Z</time><cmt>7.1 kmh</cmt></trkpt>
<trkpt lat="58.773374" lon="05.723221"><ele>21</ele><time>2012-03-25T15:43:21Z</time><cmt>7.0 kmh</cmt></trkpt>
<trkpt lat="58.773392" lon="05.723227"><ele>21</ele><time>2012-03-25T15:43:21Z</time><cmt>7.2 kmh</cmt></trkpt>
<trkpt lat="58.773410" lon="05.723233"><ele>21</ele><time>2012-03-25T15:43:22Z</time><cmt>7.1 kmh</cmt></trkpt>
<trkpt lat="58.773428" lon="05.723238"><ele>21</ele><time>2012-03-25T15:43:23Z</time><cmt>7.2 kmh</cmt></trkpt>
<trkpt lat="58.773446" lon="05.723243"><ele>21</ele><time>2012-03-25T15:43:25Z</time><cmt>7.1 kmh</cmt></trkpt>
<trkpt lat="58.773463" lon="05.723248"><ele>21</ele><time>2012-03-25T15:43:26Z</time><cmt>7.4 kmh</cmt></trkpt>
<trkpt lat="58.773482" lon="05.723253"><ele>21</ele><time>2012-03-25T15:43:27Z</time><cmt>7.4 kmh</cmt></trkpt>
<trkpt lat="58.773501" lon="05.723256"><ele>21</ele><time>2012-03-25T15:43:27Z</time><cmt>7.5 kmh</cmt></trkpt>
<trkpt lat="58.773519" lon="05.723260"><ele>21</ele><time>2012-03-25T15:43:28Z</time><cmt>7.2 kmh</cmt></trkpt>
<trkpt lat="58.773537" lon="05.723264"><ele>21</ele><time>2012-03-25T15:43:29Z</time><cmt>7.3 kmh</cmt></trkpt>
<trkpt lat="58.773556" lon="05.723267"><ele>21</ele><time>2012-03-25T15:43:31Z</time><cmt>7.3 kmh</cmt></trkpt>
<trkpt lat="58.773573" lon="05.723270"><ele>21</ele><time>2012-03-25T15:43:32Z</time><cmt>7.3 kmh</cmt></trkpt>
<trkpt lat="58.773592" lon="05.723272"><ele>21</ele><time>2012-03-25T15:43:33Z</time><cmt>7.6 kmh</cmt></trkpt>
<trkpt lat="58.773611" lon="05.723274"><ele>21</ele><time>2012-03-25T15:43:33Z</time><cmt>7.5 kmh</cmt></trkpt>
<trkpt lat="58.773628" lon="05.723276"><ele>21</ele><time>2012-03-25T15:43:34Z</time><cmt>7.3 kmh</cmt></trkpt>
<trkpt lat="58.773646" lon="05.723278"><ele>21</ele><time>2012-03-25T15:43:35Z</time><cmt>7.6 kmh</cmt></trkpt>
<trkpt lat="58.773665" lon="05.723279"><ele>21</ele><time>2012-03-25T15:43:36Z</time><cmt>7.5 kmh</cmt></trkpt>
<trkpt lat="58.773683" lon="05.723280"><ele>21</ele><time>2012-03-25T15:43:38Z</time><cmt>7.5 kmh</cmt></trkpt>
<trkpt lat="58.773702" lon="05.723282"><ele>21</ele><time>2012-03-25T15:43:39Z</time><cmt>7.4 kmh</cmt></trkpt>
<trkpt lat="58.773721" lon="05.723284"><ele>21</ele><time>2012-03-25T15:43:40Z</time><cmt>7.5 kmh</cmt></trkpt>
<trkpt lat="58.773739" lon="05.723286"><ele>21</ele><time>2012-03-25T15:43:40Z</time><cmt>7.2 kmh</cmt></trkpt>
<trkpt lat="58.773758" lon="05.723289"><ele>21</ele><time>2012-03-25T15:43:41Z</time><cmt>7.3 kmh</cmt></trkpt>
<trkpt lat="58.773776" lon="05.723292"><ele>21</ele><time>2012-03-25T15:43:42Z</time><cmt>7.4 kmh</cmt></trkpt>
<trkpt lat="58.773795" lon="05.723295"><ele>21</ele><time>2012-03-25T15:43:44Z</time><cmt>7.2 kmh</cmt></trkpt>
<trkpt lat="58.773813" lon="05.723298"><ele>22</ele><time>2012-03-25T15:43:45Z</time><cmt>7.2 kmh</cmt></trkpt>
<trkpt lat="58.773831" lon="05.723301"><ele>22</ele><time>2012-03-25T15:43:46Z</time><cmt>7.4 kmh</cmt></trkpt>
<trkpt lat="58.773850" lon="05.723303"><ele>22</ele><time>2012-03-25T15:43:46Z</time><cmt>7.1 kmh</cmt></trkpt>
<trkpt lat="58.773868" lon="05.723305"><ele>22</ele><time>2012-03-25T15:43:47Z</time><cmt>6.4 kmh</cmt></trkpt>
<trkpt lat="58.773885" lon="05.723306"><ele>22</ele><time>2012-03-25T15:43:48Z</time><cmt>6.0 kmh</cmt></trkpt>
<trkpt lat="58.773901" lon="05.723306"><ele>22</ele><time>2012-03-25T15:43:50Z</time><cmt>5.6 kmh</cmt></trkpt>
<trkpt lat="58.773915" lon="05.723306"><ele>22</ele><time>2012-03-25T15:43:51Z</time><cmt>5.3 kmh</cmt></trkpt>
<trkpt lat="58.773929" lon="05.723306"><ele>22</ele><time>2012-03-25T15:43:52Z</time><cmt>5.3 kmh</cmt></trkpt>
<trkpt lat="58.773942" lon="05.723304"><ele>23</ele><time>2012-03-25T15:43:52Z</time><cmt>5.8 kmh</cmt></trkpt>
<trkpt lat="58.773956" lon="05.723302"><ele>23</ele><time>2012-03-25T15:43:53Z</time><cmt>5.6 kmh</cmt></trkpt>
<trkpt lat="58.773969" lon="05.723299"><ele>23</ele><time>2012-03-25T15:43:54Z</time><cmt>5.8 kmh</cmt></trkpt>
<trkpt lat="58.773982" lon="05.723295"><ele>23</ele><time>2012-03-25T15:43:56Z</time><cmt>5.8 kmh</cmt></trkpt>
<trkpt lat="58.773995" lon="05.723289"><ele>23</ele><time>2012-03-25T15:43:57Z</time><cmt>6.1 kmh</cmt></trkpt>
<trkpt lat="58.774009" lon="05.723281"><ele>23</ele><time>2012-03-25T15:43:58Z</time><cmt>6.4 kmh</cmt></trkpt>
<trkpt lat="58.774023" lon="05.723272"><ele>23</ele><time>2012-03-25T15:43:58Z</time><cmt>6.3 kmh</cmt></trkpt>
<trkpt lat="58.774038" lon="05.723263"><ele>23</ele><time>2012-03-25T15:43:59Z</time><cmt>6.8 kmh</cmt></trkpt>
<trkpt lat="58.774053" lon="05.723252"><ele>23</ele><time>2012-03-25T15:44:00Z</time><cmt>6.4 kmh</cmt></trkpt>
<trkpt lat="58.774068" lon="05.723239"><ele>23</ele><time>2012-03-25T15:44:02Z</time><cmt>6.9 kmh</cmt></trkpt>
<trkpt lat="58.774083" lon="05.723226"><ele>24</ele><time>2012-03-25T15:44:03Z</time><cmt>6.8 kmh</cmt></trkpt>
<trkpt lat="58.774098" lon="05.723211"><ele>24</ele><time>2012-03-25T15:44:04Z</time><cmt>6.9 kmh</cmt></trkpt>
<trkpt lat="58.774113" lon="05.723196"><ele>24</ele><time>2012-03-25T15:44:04Z</time><cmt>6.7 kmh</cmt></trkpt>
<trkpt lat="58.774127" lon="05.723180"><ele>24</ele><time>2012-03-25T15:44:05Z</time><cmt>7.1 kmh</cmt></trkpt>
<trkpt lat="58.774142" lon="05.723163"><ele>24</ele><time>2012-03-25T15:44:06Z</time><cmt>6.9 kmh</cmt></trkpt>
<trkpt lat="58.774157" lon="05.723147"><ele>24</ele><time>2012-03-25T15:44:07Z</time><cmt>7.1 kmh</cmt></trkpt>
<trkpt lat="58.774172" lon="05.723130"><ele>24</ele><time>2012-03-25T15:44:09Z</time><cmt>7.0 kmh</cmt></trkpt>
<trkpt lat="58.774186" lon="05.723114"><ele>24</ele><time>2012-03-25T15:44:10Z</time><cmt>7.1 kmh</cmt></trkpt>
<trkpt lat="58.774201" lon="05.723097"><ele>24</ele><time>2012-03-25T15:44:10Z</time><cmt>7.1 kmh</cmt></trkpt>
<trkpt lat="58.774217" lon="05.723080"><ele>24</ele><time>2012-03-25T15:44:11Z</time><cmt>7.2 kmh</cmt></trkpt>
<trkpt lat="58.774232" lon="05.723063"><ele>24</ele><time>2012-03-25T15:44:12Z</time><cmt>7.0 kmh</cmt></trkpt>
<trkpt lat="58.774247" lon="05.723047"><ele>24</ele><time>2012-03-25T15:44:13Z</time><cmt>6.9 kmh</cmt></trkpt>
<trkpt lat="58.774262" lon="05.723031"><ele>25</ele><time>2012-03-25T15:44:15Z</time><cmt>6.9 kmh</cmt></trkpt>
<trkpt lat="58.774276" lon="05.723015"><ele>25</ele><time>2012-03-25T15:44:16Z</time><cmt>6.8 kmh</cmt></trkpt>
<trkpt lat="58.774291" lon="05.722999"><ele>25</ele><time>2012-03-25T15:44:17Z</time><cmt>6.8 kmh</cmt></trkpt>
<trkpt lat="58.774305" lon="05.722983"><ele>25</ele><time>2012-03-25T15:44:17Z</time><cmt>6.6 kmh</cmt></trkpt>
<trkpt lat="58.774319" lon="05.722965"><ele>25</ele><time>2012-03-25T15:44:18Z</time><cmt>6.9 kmh</cmt></trkpt>
<trkpt lat="58.774333" lon="05.722947"><ele>25</ele><time>2012-03-25T15:44:19Z</time><cmt>6.7 kmh</cmt></trkpt>
<trkpt lat="58.774347" lon="05.722928"><ele>25</ele><time>2012-03-25T15:44:21Z</time><cmt>7.0 kmh</cmt></trkpt>
<trkpt lat="58.774361" lon="05.722910"><ele>25</ele><time>2012-03-25T15:44:22Z</time><cmt>6.7 kmh</cmt></trkpt>
<trkpt lat="58.774375" lon="05.722892"><ele>25</ele><time>2012-03-25T15:44:23Z</time><cmt>6.9 kmh</cmt></trkpt>
<trkpt lat="58.774389" lon="05.722874"><ele>25</ele><time>2012-03-25T15:44:23Z</time><cmt>6.8 kmh</cmt></trkpt>
<trkpt lat="58.774404" lon="05.722857"><ele>25</ele><time>2012-03-25T15:44:24Z</time><cmt>6.8 kmh</cmt></trkpt>
<trkpt lat="58.774418" lon="05.722841"><ele>25</ele><time>2012-03-25T15:44:25Z</time><cmt>6.7 kmh</cmt></trkpt>
<trkpt lat="58.774433" lon="05.722825"><ele>25</ele><time>2012-03-25T15:44:27Z</time><cmt>6.7 kmh</cmt></trkpt>
<trkpt lat="58.774447" lon="05.722809"><ele>25</ele><time>2012-03-25T15:44:28Z</time><cmt>6.8 kmh</cmt></trkpt>
<trkpt lat="58.774462" lon="05.722793"><ele>25</ele><time>2012-03-25T15:44:29Z</time><cmt>6.9 kmh</cmt></trkpt>
<trkpt lat="58.774477" lon="05.722777"><ele>25</ele><time>2012-03-25T15:44:29Z</time><cmt>6.9 kmh</cmt></trkpt>
<trkpt lat="58.774492" lon="05.722761"><ele>25</ele><time>2012-03-25T15:44:30Z</time><cmt>6.8 kmh</cmt></trkpt>
<trkpt lat="58.774507" lon="05.722745"><ele>25</ele><time>2012-03-25T15:44:31Z</time><cmt>7.0 kmh</cmt></trkpt>
<trkpt lat="58.774522" lon="05.722728"><ele>25</ele><time>2012-03-25T15:44:33Z</time><cmt>6.9 kmh</cmt></trkpt>
<trkpt lat="58.774537" lon="05.722712"><ele>25</ele><time>2012-03-25T15:44:34Z</time><cmt>6.8 kmh</cmt></trkpt>
<trkpt lat="58.774551" lon="05.722696"><ele>25</ele><time>2012-03-25T15:44:35Z</time><cmt>6.7 kmh</cmt></trkpt>
<trkpt lat="58.774566" lon="05.722680"><ele>25</ele><time>2012-03-25T15:44:35Z</time><cmt>6.9 kmh</cmt></trkpt>
<trkpt lat="58.774580" lon="05.722663"><ele>25</ele><time>2012-03-25T15:44:36Z</time><cmt>6.7 kmh</cmt></trkpt>
<trkpt lat="58.774595" lon="05.722646"><ele>25</ele><time>2012-03-25T15:44:37Z</time><cmt>7.1 kmh</cmt></trkpt>
<trkpt lat="58.774609" lon="05.722629"><ele>25</ele><time>2012-03-25T15:44:39Z</time><cmt>6.6 kmh</cmt></trkpt>
<trkpt lat="58.774624" lon="05.722611"><ele>25</ele><time>2012-03-25T15:44:40Z</time><cmt>6.8 kmh</cmt></trkpt>
<trkpt lat="58.774638" lon="05.722595"><ele>25</ele><time>2012-03-25T15:44:41Z</time><cmt>6.6 kmh</cmt></trkpt>
<trkpt lat="58.774652" lon="05.722578"><ele>25</ele><time>2012-03-25T15:44:41Z</time><cmt>6.9 kmh</cmt></trkpt>
<trkpt lat="58.774667" lon="05.722561"><ele>25</ele><time>2012-03-25T15:44:42Z</time><cmt>6.8 kmh</cmt></trkpt>
<trkpt lat="58.774681" lon="05.722543"><ele>25</ele><time>2012-03-25T15:44:43Z</time><cmt>6.9 kmh</cmt></trkpt>
<trkpt lat="58.774696" lon="05.722524"><ele>25</ele><time>2012-03-25T15:44:44Z</time><cmt>7.1 kmh</cmt></trkpt>
<trkpt lat="58.774710" lon="05.722505"><ele>25</ele><time>2012-03-25T15:44:46Z</time><cmt>7.1 kmh</cmt></trkpt>
<trkpt lat="58.774725" lon="05.722485"><ele>25</ele><time>2012-03-25T15:44:47Z</time><cmt>7.5 kmh</cmt></trkpt>
<trkpt lat="58.774741" lon="05.722464"><ele>25</ele><time>2012-03-25T15:44:48Z</time><cmt>7.5 kmh</cmt></trkpt>
<trkpt lat="58.774756" lon="05.722442"><ele>25</ele><time>2012-03-25T15:44:48Z</time><cmt>7.6 kmh</cmt></trkpt>
<trkpt lat="58.774771" lon="05.722420"><ele>25</ele><time>2012-03-25T15:44:49Z</time><cmt>7.6 kmh</cmt></trkpt>
<trkpt lat="58.774786" lon="05.722397"><ele>25</ele><time>2012-03-25T15:44:50Z</time><cmt>7.7 kmh</cmt></trkpt>
<trkpt lat="58.774801" lon="05.722375"><ele>25</ele><time>2012-03-25T15:44:52Z</time><cmt>7.3 kmh</cmt></trkpt>
<trkpt lat="58.774815" lon="05.722352"><ele>25</ele><time>2012-03-25T15:44:53Z</time><cmt>7.4 kmh</cmt></trkpt>
<trkpt lat="58.774829" lon="05.722330"><ele>25</ele><time>2012-03-25T15:44:54Z</time><cmt>7.2 kmh</cmt></trkpt>
<trkpt lat="58.774843" lon="05.722307"><ele>25</ele><time>2012-03-25T15:44:54Z</time><cmt>7.2 kmh</cmt></trkpt>
<trkpt lat="58.774857" lon="05.722285"><ele>25</ele><time>2012-03-25T15:44:55Z</time><cmt>7.0 kmh</cmt></trkpt>
<trkpt lat="58.774870" lon="05.722263"><ele>25</ele><time>2012-03-25T15:44:56Z</time><cmt>6.9 kmh</cmt></trkpt>
<trkpt lat="58.774884" lon="05.722242"><ele>25</ele><time>2012-03-25T15:44:58Z</time><cmt>7.0 kmh</cmt></trkpt>
<trkpt lat="58.774897" lon="05.722220"><ele>25</ele><time>2012-03-25T15:44:59Z</time><cmt>6.9 kmh</cmt></trkpt>
<trkpt lat="58.774911" lon="05.722198"><ele>25</ele><time>2012-03-25T15:45:00Z</time><cmt>7.1 kmh</cmt></trkpt>
<trkpt lat="58.774924" lon="05.722175"><ele>25</ele><time>2012-03-25T15:45:00Z</time><cmt>7.1 kmh</cmt></trkpt>
<trkpt lat="58.774938" lon="05.722152"><ele>25</ele><time>2012-03-25T15:45:01Z</time><cmt>7.3 kmh</cmt></trkpt>
<trkpt lat="58.774951" lon="05.722129"><ele>25</ele><time>2012-03-25T15:45:02Z</time><cmt>7.1 kmh</cmt></trkpt>
<trkpt lat="58.774964" lon="05.722105"><ele>25</ele><time>2012-03-25T15:45:04Z</time><cmt>7.4 kmh</cmt></trkpt>
<trkpt lat="58.774978" lon="05.722081"><ele>25</ele><time>2012-03-25T15:45:05Z</time><cmt>7.2 kmh</cmt></trkpt>
<trkpt lat="58.774991" lon="05.722056"><ele>25</ele><time>2012-03-25T15:45:06Z</time><cmt>7.3 kmh</cmt></trkpt>
<trkpt lat="58.775004" lon="05.722032"><ele>25</ele><time>2012-03-25T15:45:06Z</time><cmt>7.3 kmh</cmt></trkpt>
<trkpt lat="58.775017" lon="05.722007"><ele>25</ele><time>2012-03-25T15:45:07Z</time><cmt>7.3 kmh</cmt></trkpt>
<trkpt lat="58.775030" lon="05.721983"><ele>25</ele><time>2012-03-25T15:45:08Z</time><cmt>7.3 kmh</cmt></trkpt>
<trkpt lat="58.775044" lon="05.721959"><ele>25</ele><time>2012-03-25T15:45:10Z</time><cmt>7.3 kmh</cmt></trkpt>
<trkpt lat="58.775057" lon="05.721935"><ele>25</ele><time>2012-03-25T15:45:11Z</time><cmt>7.2 kmh</cmt></trkpt>
<trkpt lat="58.775070" lon="05.721911"><ele>25</ele><time>2012-03-25T15:45:12Z</time><cmt>7.3 kmh</cmt></trkpt>
<trkpt lat="58.775084" lon="05.721888"><ele>24</ele><time>2012-03-25T15:45:12Z</time><cmt>7.2 kmh</cmt></trkpt>
<trkpt lat="58.775097" lon="05.721863"><ele>24</ele><time>2012-03-25T15:45:13Z</time><cmt>7.2 kmh</cmt></trkpt>
<trkpt lat="58.775110" lon="05.721840"><ele>24</ele><time>2012-03-25T15:45:14Z</time><cmt>7.2 kmh</cmt></trkpt>
<trkpt lat="58.775124" lon="05.721816"><ele>24</ele><time>2012-03-25T15:45:15Z</time><cmt>7.2 kmh</cmt></trkpt>
<trkpt lat="58.775137" lon="05.721792"><ele>24</ele><time>2012-03-25T15:45:17Z</time><cmt>7.2 kmh</cmt></trkpt>
<trkpt lat="58.775152" lon="05.721769"><ele>24</ele><time>2012-03-25T15:45:18Z</time><cmt>7.3 kmh</cmt></trkpt>
<trkpt lat="58.775166" lon="05.721747"><ele>24</ele><time>2012-03-25T15:45:19Z</time><cmt>7.2 kmh</cmt></trkpt>
<trkpt lat="58.775180" lon="05.721725"><ele>24</ele><time>2012-03-25T15:45:19Z</time><cmt>7.2 kmh</cmt></trkpt>
<trkpt lat="58.775194" lon="05.721703"><ele>24</ele><time>2012-03-25T15:45:20Z</time><cmt>7.0 kmh</cmt></trkpt>
<trkpt lat="58.775208" lon="05.721681"><ele>24</ele><time>2012-03-25T15:45:21Z</time><cmt>6.9 kmh</cmt></trkpt>
<trkpt lat="58.775221" lon="05.721659"><ele>24</ele><time>2012-03-25T15:45:23Z</time><cmt>6.8 kmh</cmt></trkpt>
<trkpt lat="58.775234" lon="05.721638"><ele>24</ele><time>2012-03-25T15:45:24Z</time><cmt>6.7 kmh</cmt></trkpt>
<trkpt lat="58.775247" lon="05.721616"><ele>24</ele><time>2012-03-25T15:45:25Z</time><cmt>6.8 kmh</cmt></trkpt>
<trkpt lat="58.775259" lon="05.721594"><ele>24</ele><time>2012-03-25T15:45:25Z</time><cmt>6.7 kmh</cmt></trkpt>
<trkpt lat="58.775272" lon="05.721572"><ele>24</ele><time>2012-03-25T15:45:26Z</time><cmt>6.7 kmh</cmt></trkpt>
<trkpt lat="58.775285" lon="05.721550"><ele>24</ele><time>2012-03-25T15:45:27Z</time><cmt>6.7 kmh</cmt></trkpt>
<trkpt lat="58.775297" lon="05.721529"><ele>24</ele><time>2012-03-25T15:45:29Z</time><cmt>6.8 kmh</cmt></trkpt>
<trkpt lat="58.775310" lon="05.721508"><ele>24</ele><time>2012-03-25T15:45:30Z</time><cmt>6.5 kmh</cmt></trkpt>
<trkpt lat="58.775323" lon="05.721487"><ele>24</ele><time>2012-03-25T15:45:31Z</time><cmt>6.5 kmh</cmt></trkpt>
<trkpt lat="58.775336" lon="05.721467"><ele>24</ele><time>2012-03-25T15:45:31Z</time><cmt>6.6 kmh</cmt></trkpt>
<trkpt lat="58.775348" lon="05.721446"><ele>24</ele><time>2012-03-25T15:45:32Z</time><cmt>6.6 kmh</cmt></trkpt>
<trkpt lat="58.775361" lon="05.721425"><ele>24</ele><time>2012-03-25T15:45:33Z</time><cmt>6.4 kmh</cmt></trkpt>
<trkpt lat="58.775373" lon="05.721405"><ele>24</ele><time>2012-03-25T15:45:35Z</time><cmt>6.4 kmh</cmt></trkpt>
<trkpt lat="58.775386" lon="05.721385"><ele>24</ele><time>2012-03-25T15:45:36Z</time><cmt>6.4 kmh</cmt></trkpt>
<trkpt lat="58.775398" lon="05.721365"><ele>24</ele><time>2012-03-25T15:45:37Z</time><cmt>6.5 kmh</cmt></trkpt>
<trkpt lat="58.775410" lon="05.721345"><ele>24</ele><time>2012-03-25T15:45:37Z</time><cmt>6.5 kmh</cmt></trkpt>
<trkpt lat="58.775423" lon="05.721325"><ele>24</ele><time>2012-03-25T15:45:38Z</time><cmt>6.4 kmh</cmt></trkpt>
<trkpt lat="58.775435" lon="05.721304"><ele>24</ele><time>2012-03-25T15:45:39Z</time><cmt>6.5 kmh</cmt></trkpt>
<trkpt lat="58.775447" lon="05.721283"><ele>24</ele><time>2012-03-25T15:45:41Z</time><cmt>6.3 kmh</cmt></trkpt>
<trkpt lat="58.775459" lon="05.721262"><ele>24</ele><time>2012-03-25T15:45:42Z</time><cmt>6.5 kmh</cmt></trkpt>
<trkpt lat="58.775471" lon="05.721240"><ele>24</ele><time>2012-03-25T15:45:43Z</time><cmt>6.3 kmh</cmt></trkpt>
<trkpt lat="58.775483" lon="05.721219"><ele>24</ele><time>2012-03-25T15:45:43Z</time><cmt>6.6 kmh</cmt></trkpt>
<trkpt lat="58.775495" lon="05.721197"><ele>24</ele><time>2012-03-25T15:45:44Z</time><cmt>6.4 kmh</cmt></trkpt>
<trkpt lat="58.775506" lon="05.721175"><ele>24</ele><time>2012-03-25T15:45:45Z</time><cmt>6.6 kmh</cmt></trkpt>
<trkpt lat="58.775519" lon="05.721154"><ele>24</ele><time>2012-03-25T15:45:46Z</time><cmt>6.6 kmh</cmt></trkpt>
<trkpt lat="58.775530" lon="05.721132"><ele>24</ele><time>2012-03-25T15:45:48Z</time><cmt>6.5 kmh</cmt></trkpt>
<trkpt lat="58.775542" lon="05.721110"><ele>24</ele><time>2012-03-25T15:45:49Z</time><cmt>6.4 kmh</cmt></trkpt>
<trkpt lat="58.775553" lon="05.721087"><ele>24</ele><time>2012-03-25T15:45:50Z</time><cmt>6.6 kmh</cmt></trkpt>
<trkpt lat="58.775565" lon="05.721065"><ele>24</ele><time>2012-03-25T15:45:50Z</time><cmt>6.4 kmh</cmt></trkpt>
<trkpt lat="58.775577" lon="05.721043"><ele>24</ele><time>2012-03-25T15:45:51Z</time><cmt>6.6 kmh</cmt></trkpt>
<trkpt lat="58.775589" lon="05.721020"><ele>24</ele><time>2012-03-25T15:45:52Z</time><cmt>6.6 kmh</cmt></trkpt>
<trkpt lat="58.775600" lon="05.720997"><ele>24</ele><time>2012-03-25T15:45:54Z</time><cmt>6.5 kmh</cmt></trkpt>
<trkpt lat="58.775612" lon="05.720975"><ele>24</ele><time>2012-03-25T15:45:55Z</time><cmt>6.3 kmh</cmt></trkpt>
<trkpt lat="58.775623" lon="05.720951"><ele>24</ele><time>2012-03-25T15:45:56Z</time><cmt>6.7 kmh</cmt></trkpt>
<trkpt lat="58.775634" lon="05.720928"><ele>24</ele><time>2012-03-25T15:45:56Z</time><cmt>6.7 kmh</cmt></trkpt>
<trkpt lat="58.775646" lon="05.720903"><ele>24</ele><time>2012-03-25T15:45:57Z</time><cmt>7.0 kmh</cmt></trkpt>
<trkpt lat="58.775658" lon="05.720878"><ele>24</ele><time>2012-03-25T15:45:58Z</time><cmt>6.9 kmh</cmt></trkpt>
<trkpt lat="58.775670" lon="05.720853"><ele>24</ele><time>2012-03-25T15:46:00Z</time><cmt>7.0 kmh</cmt></trkpt>
<trkpt lat="58.775682" lon="05.720828"><ele>24</ele><time>2012-03-25T15:46:01Z</time><cmt>6.9 kmh</cmt></trkpt>
<trkpt lat="58.775694" lon="05.720804"><ele>24</ele><time>2012-03-25T15:46:02Z</time><cmt>6.8 kmh</cmt></trkpt>
<trkpt lat="58.775706" lon="05.720780"><ele>24</ele><time>2012-03-25T15:46:02Z</time><cmt>6.8 kmh</cmt></trkpt>
<trkpt lat="58.775718" lon="05.720757"><ele>24</ele><time>2012-03-25T15:46:03Z</time><cmt>6.7 kmh</cmt></trkpt>
<trkpt lat="58.775730" lon="05.720733"><ele>24</ele><time>2012-03-25T15:46:04Z</time><cmt>6.9 kmh</cmt></trkpt>
<trkpt lat="58.775743" lon="05.720710"><ele>24</ele><time>2012-03-25T15:46:06Z</time><cmt>6.7 kmh</cmt></trkpt>
<trkpt lat="58.775755" lon="05.720689"><ele>24</ele><time>2012-03-25T15:46:07Z</time><cmt>6.7 kmh</cmt></trkpt>
<trkpt lat="58.775768" lon="05.720667"><ele>24</ele><time>2012-03-25T15:46:08Z</time><cmt>6.9 kmh</cmt></trkpt>
<trkpt lat="58.775781" lon="05.720645"><ele>24</ele><time>2012-03-25T15:46:08Z</time><cmt>6.8 kmh</cmt></trkpt>
<trkpt lat="58.775794" lon="05.720623"><ele>24</ele><time>2012-03-25T15:46:09Z</time><cmt>6.9 kmh</cmt></trkpt>
<trkpt lat="58.775807" lon="05.720602"><ele>24</ele><time>2012-03-25T15:46:10Z</time><cmt>6.7 kmh</cmt></trkpt>
<trkpt lat="58.775820" lon="05.720580"><ele>24</ele><time>2012-03-25T15:46:12Z</time><cmt>6.7 kmh</cmt></trkpt>
<trkpt lat="58.775833" lon="05.720558"><ele>24</ele><time>2012-03-25T15:46:13Z</time><cmt>6.7 kmh</cmt></trkpt>
<trkpt lat="58.775846" lon="05.720536"><ele>24</ele><time>2012-03-25T15:46:14Z</time><cmt>6.8 kmh</cmt></trkpt>
<trkpt lat="58.775859" lon="05.720514"><ele>24</ele><time>2012-03-25T15:46:14Z</time><cmt>6.9 kmh</cmt></trkpt>
<trkpt lat="58.775872" lon="05.720491"><ele>24</ele><time>2012-03-25T15:46:15Z</time><cmt>6.8 kmh</cmt></trkpt>
<trkpt lat="58.775884" lon="05.720468"><ele>24</ele><time>2012-03-25T15:46:16Z</time><cmt>6.8 kmh</cmt></trkpt>
<trkpt lat="58.775897" lon="05.720446"><ele>25</ele><time>2012-03-25T15:46:18Z</time><cmt>6.7 kmh</cmt></trkpt>
<trkpt lat="58.775909" lon="05.720423"><ele>25</ele><time>2012-03-25T15:46:19Z</time><cmt>6.6 kmh</cmt></trkpt>
<trkpt lat="58.775921" lon="05.720399"><ele>25</ele><time>2012-03-25T15:46:20Z</time><cmt>6.6 kmh</cmt></trkpt>
<trkpt lat="58.775932" lon="05.720375"><ele>25</ele><time>2012-03-25T15:46:21Z</time><cmt>6.7 kmh</cmt></trkpt>
<trkpt lat="58.775944" lon="05.720351"><ele>25</ele><time>2012-03-25T15:46:21Z</time><cmt>6.8 kmh</cmt></trkpt>
<trkpt lat="58.775957" lon="05.720327"><ele>25</ele><time>2012-03-25T15:46:22Z</time><cmt>6.8 kmh</cmt></trkpt>
<trkpt lat="58.775969" lon="05.720303"><ele>25</ele><time>2012-03-25T15:46:24Z</time><cmt>6.9 kmh</cmt></trkpt>
<trkpt lat="58.775981" lon="05.720279"><ele>25</ele><time>2012-03-25T15:46:25Z</time><cmt>6.9 kmh</cmt></trkpt>
<trkpt lat="58.775993" lon="05.720254"><ele>25</ele><time>2012-03-25T15:46:26Z</time><cmt>6.7 kmh</cmt></trkpt>
<trkpt lat="58.776005" lon="05.720231"><ele>25</ele><time>2012-03-25T15:46:27Z</time><cmt>6.7 kmh</cmt></trkpt>
<trkpt lat="58.776017" lon="05.720208"><ele>25</ele><time>2012-03-25T15:46:27Z</time><cmt>6.6 kmh</cmt></trkpt>
<trkpt lat="58.776029" lon="05.720187"><ele>26</ele><time>2012-03-25T15:46:28Z</time><cmt>6.3 kmh</cmt></trkpt>
<trkpt lat="58.776041" lon="05.720166"><ele>26</ele><time>2012-03-25T15:46:29Z</time><cmt>6.2 kmh</cmt></trkpt>
<trkpt lat="58.776053" lon="05.720146"><ele>26</ele><time>2012-03-25T15:46:31Z</time><cmt>6.2 kmh</cmt></trkpt>
<trkpt lat="58.776065" lon="05.720127"><ele>26</ele><time>2012-03-25T15:46:32Z</time><cmt>6.1 kmh</cmt></trkpt>
<trkpt lat="58.776077" lon="05.720109"><ele>26</ele><time>2012-03-25T15:46:33Z</time><cmt>6.1 kmh</cmt></trkpt>
<trkpt lat="58.776088" lon="05.720092"><ele>26</ele><time>2012-03-25T15:46:33Z</time><cmt>5.7 kmh</cmt></trkpt>
<trkpt lat="58.776099" lon="05.720074"><ele>26</ele><time>2012-03-25T15:46:34Z</time><cmt>5.4 kmh</cmt></trkpt>
<trkpt lat="58.776109" lon="05.720056"><ele>27</ele><time>2012-03-25T15:46:35Z</time><cmt>5.6 kmh</cmt></trkpt>
<trkpt lat="58.776119" lon="05.720038"><ele>27</ele><time>2012-03-25T15:46:37Z</time><cmt>5.4 kmh</cmt></trkpt>
<trkpt lat="58.776129" lon="05.720020"><ele>27</ele><time>2012-03-25T15:46:38Z</time><cmt>5.5 kmh</cmt></trkpt>
<trkpt lat="58.776139" lon="05.720001"><ele>27</ele><time>2012-03-25T15:46:39Z</time><cmt>5.7 kmh</cmt></trkpt>
<trkpt lat="58.776150" lon="05.719982"><ele>27</ele><time>2012-03-25T15:46:39Z</time><cmt>5.9 kmh</cmt></trkpt>
<trkpt lat="58.776161" lon="05.719963"><ele>27</ele><time>2012-03-25T15:46:40Z</time><cmt>6.1 kmh</cmt></trkpt>
<trkpt lat="58.776173" lon="05.719944"><ele>27</ele><time>2012-03-25T15:46:41Z</time><cmt>6.3 kmh</cmt></trkpt>
<trkpt lat="58.776186" lon="05.719925"><ele>27</ele><time>2012-03-25T15:46:43Z</time><cmt>6.2 kmh</cmt></trkpt>
<trkpt lat="58.776198" lon="05.719906"><ele>27</ele><time>2012-03-25T15:46:44Z</time><cmt>6.4 kmh</cmt></trkpt>
<trkpt lat="58.776210" lon="05.719887"><ele>27</ele><time>2012-03-25T15:46:45Z</time><cmt>6.1 kmh</cmt></trkpt>
<trkpt lat="58.776222" lon="05.719868"><ele>27</ele><time>2012-03-25T15:46:45Z</time><cmt>6.0 kmh</cmt></trkpt>
<trkpt lat="58.776234" lon="05.719850"><ele>27</ele><time>2012-03-25T15:46:46Z</time><cmt>5.9 kmh</cmt></trkpt>
<trkpt lat="58.776247" lon="05.719833"><ele>27</ele><time>2012-03-25T15:46:47Z</time><cmt>6.2 kmh</cmt></trkpt>
<trkpt lat="58.776261" lon="05.719816"><ele>27</ele><time>2012-03-25T15:46:49Z</time><cmt>6.3 kmh</cmt></trkpt>
<trkpt lat="58.776274" lon="05.719799"><ele>27</ele><time>2012-03-25T15:46:50Z</time><cmt>6.5 kmh</cmt></trkpt>
<trkpt lat="58.776287" lon="05.719781"><ele>27</ele><time>2012-03-25T15:46:51Z</time><cmt>6.3 kmh</cmt></trkpt>
<trkpt lat="58.776300" lon="05.719762"><ele>27</ele><time>2012-03-25T15:46:52Z</time><cmt>6.5 kmh</cmt></trkpt>
<trkpt lat="58.776313" lon="05.719744"><ele>27</ele><time>2012-03-25T15:46:52Z</time><cmt>6.3 kmh</cmt></trkpt>
<trkpt lat="58.776326" lon="05.719726"><ele>27</ele><time>2012-03-25T15:46:53Z</time><cmt>6.3 kmh</cmt></trkpt>
<trkpt lat="58.776339" lon="05.719709"><ele>27</ele><time>2012-03-25T15:46:55Z</time><cmt>6.4 kmh</cmt></trkpt>
<trkpt lat="58.776352" lon="05.719691"><ele>27</ele><time>2012-03-25T15:46:56Z</time><cmt>6.4 kmh</cmt></trkpt>
<trkpt lat="58.776364" lon="05.719674"><ele>27</ele><time>2012-03-25T15:46:57Z</time><cmt>6.2 kmh</cmt></trkpt>
<trkpt lat="58.776377" lon="05.719655"><ele>27</ele><time>2012-03-25T15:46:58Z</time><cmt>6.6 kmh</cmt></trkpt>
<trkpt lat="58.776390" lon="05.719636"><ele>27</ele><time>2012-03-25T15:46:58Z</time><cmt>6.5 kmh</cmt></trkpt>
<trkpt lat="58.776403" lon="05.719616"><ele>27</ele><time>2012-03-25T15:46:59Z</time><cmt>6.5 kmh</cmt></trkpt>
<trkpt lat="58.776415" lon="05.719597"><ele>27</ele><time>2012-03-25T15:47:00Z</time><cmt>6.3 kmh</cmt></trkpt>
<trkpt lat="58.776428" lon="05.719577"><ele>27</ele><time>2012-03-25T15:47:02Z</time><cmt>6.6 kmh</cmt></trkpt>
<trkpt lat="58.776440" lon="05.719558"><ele>27</ele><time>2012-03-25T15:47:03Z</time><cmt>6.3 kmh</cmt></trkpt>
<trkpt lat="58.776453" lon="05.719540"><ele>27</ele><time>2012-03-25T15:47:04Z</time><cmt>6.2 kmh</cmt></trkpt>
<trkpt lat="58.776465" lon="05.719523"><ele>27</ele><time>2012-03-25T15:47:04Z</time><cmt>6.3 kmh</cmt></trkpt>
<trkpt lat="58.776478" lon="05.719505"><ele>27</ele><time>2012-03-25T15:47:05Z</time><cmt>6.4 kmh</cmt></trkpt>
<trkpt lat="58.776492" lon="05.719487"><ele>27</ele><time>2012-03-25T15:47:06Z</time><cmt>6.6 kmh</cmt></trkpt>
<trkpt lat="58.776505" lon="05.719469"><ele>27</ele><time>2012-03-25T15:47:08Z</time><cmt>6.5 kmh</cmt></trkpt>
<trkpt lat="58.776519" lon="05.719452"><ele>27</ele><time>2012-03-25T15:47:09Z</time><cmt>6.6 kmh</cmt></trkpt>
<trkpt lat="58.776533" lon="05.719434"><ele>27</ele><time>2012-03-25T15:47:10Z</time><cmt>6.7 kmh</cmt></trkpt>
<trkpt lat="58.776547" lon="05.719417"><ele>27</ele><time>2012-03-25T15:47:10Z</time><cmt>6.7 kmh</cmt></trkpt>
<trkpt lat="58.776560" lon="05.719400"><ele>27</ele><time>2012-03-25T15:47:11Z</time><cmt>6.6 kmh</cmt></trkpt>
<trkpt lat="58.776574" lon="05.719382"><ele>27</ele><time>2012-03-25T15:47:12Z</time><cmt>6.7 kmh</cmt></trkpt>
<trkpt lat="58.776588" lon="05.719365"><ele>27</ele><time>2012-03-25T15:47:14Z</time><cmt>6.7 kmh</cmt></trkpt>
<trkpt lat="58.776603" lon="05.719348"><ele>27</ele><time>2012-03-25T15:47:15Z</time><cmt>6.8 kmh</cmt></trkpt>
<trkpt lat="58.776617" lon="05.719330"><ele>27</ele><time>2012-03-25T15:47:16Z</time><cmt>6.7 kmh</cmt></trkpt>
<trkpt lat="58.776631" lon="05.719312"><ele>27</ele><time>2012-03-25T15:47:16Z</time><cmt>6.9 kmh</cmt></trkpt>
<trkpt lat="58.776645" lon="05.719294"><ele>27</ele><time>2012-03-25T15:47:17Z</time><cmt>6.9 kmh</cmt></trkpt>
<trkpt lat="58.776660" lon="05.719275"><ele>27</ele><time>2012-03-25T15:47:18Z</time><cmt>7.0 kmh</cmt></trkpt>
<trkpt lat="58.776674" lon="05.719256"><ele>27</ele><time>2012-03-25T15:47:20Z</time><cmt>6.7 kmh</cmt></trkpt>
<trkpt lat="58.776688" lon="05.719237"><ele>27</ele><time>2012-03-25T15:47:21Z</time><cmt>6.9 kmh</cmt></trkpt>
<trkpt lat="58.776701" lon="05.719217"><ele>27</ele><time>2012-03-25T15:47:22Z</time><cmt>6.8 kmh</cmt></trkpt>
<trkpt lat="58.776715" lon="05.719197"><ele>27</ele><time>2012-03-25T15:47:23Z</time><cmt>6.9 kmh</cmt></trkpt>
<trkpt lat="58.776729" lon="05.719177"><ele>27</ele><time>2012-03-25T15:47:23Z</time><cmt>7.0 kmh</cmt></trkpt>
<trkpt lat="58.776744" lon="05.719157"><ele>27</ele><time>2012-03-25T15:47:24Z</time><cmt>7.1 kmh</cmt></trkpt>
<trkpt lat="58.776758" lon="05.719136"><ele>27</ele><time>2012-03-25T15:47:26Z</time><cmt>7.2 kmh</cmt></trkpt>
<trkpt lat="58.776773" lon="05.719115"><ele>27</ele><time>2012-03-25T15:47:27Z</time><cmt>7.3 kmh</cmt></trkpt>
<trkpt lat="58.776788" lon="05.719095"><ele>27</ele><time>2012-03-25T15:47:28Z</time><cmt>7.3 kmh</cmt></trkpt>
<trkpt lat="58.776802" lon="05.719075"><ele>27</ele><time>2012-03-25T15:47:29Z</time><cmt>7.2 kmh</cmt></trkpt>
<trkpt lat="58.776817" lon="05.719055"><ele>27</ele><time>2012-03-25T15:47:29Z</time><cmt>7.2 kmh</cmt></trkpt>
<trkpt lat="58.776832" lon="05.719035"><ele>27</ele><time>2012-03-25T15:47:30Z</time><cmt>7.2 kmh</cmt></trkpt>
<trkpt lat="58.776847" lon="05.719016"><ele>27</ele><time>2012-03-25T15:47:31Z</time><cmt>7.2 kmh</cmt></trkpt>
<trkpt lat="58.776862" lon="05.718997"><ele>27</ele><time>2012-03-25T15:47:33Z</time><cmt>7.3 kmh</cmt></trkpt>
<trkpt lat="58.776878" lon="05.718978"><ele>27</ele><time>2012-03-25T15:47:34Z</time><cmt>7.3 kmh</cmt></trkpt>
<trkpt lat="58.776894" lon="05.718959"><ele>27</ele><time>2012-03-25T15:47:35Z</time><cmt>7.4 kmh</cmt></trkpt>
<trkpt lat="58.776910" lon="05.718941"><ele>27</ele><time>2012-03-25T15:47:35Z</time><cmt>7.3 kmh</cmt></trkpt>
<trkpt lat="58.776925" lon="05.718922"><ele>27</ele><time>2012-03-25T15:47:36Z</time><cmt>7.3 kmh</cmt></trkpt>
<trkpt lat="58.776941" lon="05.718903"><ele>27</ele><time>2012-03-25T15:47:37Z</time><cmt>7.4 kmh</cmt></trkpt>
<trkpt lat="58.776956" lon="05.718884"><ele>27</ele><time>2012-03-25T15:47:39Z</time><cmt>7.2 kmh</cmt></trkpt>
<trkpt lat="58.776971" lon="05.718866"><ele>27</ele><time>2012-03-25T15:47:40Z</time><cmt>7.0 kmh</cmt></trkpt>
<trkpt lat="58.776986" lon="05.718848"><ele>27</ele><time>2012-03-25T15:47:41Z</time><cmt>7.0 kmh</cmt></trkpt>
<trkpt lat="58.777001" lon="05.718829"><ele>27</ele><time>2012-03-25T15:47:41Z</time><cmt>6.9 kmh</cmt></trkpt>
<trkpt lat="58.777016" lon="05.718811"><ele>27</ele><time>2012-03-25T15:47:42Z</time><cmt>7.0 kmh</cmt></trkpt>
<trkpt lat="58.777031" lon="05.718793"><ele>27</ele><time>2012-03-25T15:47:43Z</time><cmt>6.9 kmh</cmt></trkpt>
<trkpt lat="58.777045" lon="05.718775"><ele>27</ele><time>2012-03-25T15:47:45Z</time><cmt>6.9 kmh</cmt></trkpt>
<trkpt lat="58.777059" lon="05.718756"><ele>28</ele><time>2012-03-25T15:47:46Z</time><cmt>6.9 kmh</cmt></trkpt>
<trkpt lat="58.777073" lon="05.718737"><ele>28</ele><time>2012-03-25T15:47:47Z</time><cmt>6.9 kmh</cmt></trkpt>
<trkpt lat="58.777087" lon="05.718718"><ele>28</ele><time>2012-03-25T15:47:47Z</time><cmt>6.8 kmh</cmt></trkpt>
<trkpt lat="58.777102" lon="05.718699"><ele>28</ele><time>2012-03-25T15:47:48Z</time><cmt>7.0 kmh</cmt></trkpt>
<trkpt lat="58.777116" lon="05.718681"><ele>28</ele><time>2012-03-25T15:47:49Z</time><cmt>6.8 kmh</cmt></trkpt>
<trkpt lat="58.777131" lon="05.718663"><ele>28</ele><time>2012-03-25T15:47:51Z</time><cmt>7.0 kmh</cmt></trkpt>
<trkpt lat="58.777146" lon="05.718645"><ele>28</ele><time>2012-03-25T15:47:52Z</time><cmt>7.3 kmh</cmt></trkpt>
<trkpt lat="58.777162" lon="05.718627"><ele>28</ele><time>2012-03-25T15:47:53Z</time><cmt>7.3 kmh</cmt></trkpt>
<trkpt lat="58.777177" lon="05.718609"><ele>28</ele><time>2012-03-25T15:47:54Z</time><cmt>6.9 kmh</cmt></trkpt>
<trkpt lat="58.777192" lon="05.718591"><ele>28</ele><time>2012-03-25T15:47:54Z</time><cmt>6.9 kmh</cmt></trkpt>
<trkpt lat="58.777207" lon="05.718573"><ele>28</ele><time>2012-03-25T15:47:55Z</time><cmt>7.0 kmh</cmt></trkpt>
<trkpt lat="58.777222" lon="05.718555"><ele>28</ele><time>2012-03-25T15:47:57Z</time><cmt>6.8 kmh</cmt></trkpt>
<trkpt lat="58.777236" lon="05.718536"><ele>28</ele><time>2012-03-25T15:47:58Z</time><cmt>7.1 kmh</cmt></trkpt>
<trkpt lat="58.777251" lon="05.718516"><ele>28</ele><time>2012-03-25T15:47:59Z</time><cmt>6.9 kmh</cmt></trkpt>
<trkpt lat="58.777264" lon="05.718496"><ele>28</ele><time>2012-03-25T15:48:00Z</time><cmt>6.7 kmh</cmt></trkpt>
<trkpt lat="58.777277" lon="05.718474"><ele>28</ele><time>2012-03-25T15:48:00Z</time><cmt>6.9 kmh</cmt></trkpt>
<trkpt lat="58.777289" lon="05.718452"><ele>28</ele><time>2012-03-25T15:48:01Z</time><cmt>6.5 kmh</cmt></trkpt>
<trkpt lat="58.777301" lon="05.718430"><ele>28</ele><time>2012-03-25T15:48:02Z</time><cmt>6.9 kmh</cmt></trkpt>
<trkpt lat="58.777313" lon="05.718407"><ele>28</ele><time>2012-03-25T15:48:04Z</time><cmt>6.4 kmh</cmt></trkpt>
<trkpt lat="58.777325" lon="05.718385"><ele>28</ele><time>2012-03-25T15:48:05Z</time><cmt>6.9 kmh</cmt></trkpt>
<trkpt lat="58.777338" lon="05.718363"><ele>28</ele><time>2012-03-25T15:48:06Z</time><cmt>6.6 kmh</cmt></trkpt>
<trkpt lat="58.777351" lon="05.718341"><ele>28</ele><time>2012-03-25T15:48:06Z</time><cmt>6.6 kmh</cmt></trkpt>
<trkpt lat="58.777363" lon="05.718321"><ele>28</ele><time>2012-03-25T15:48:07Z</time><cmt>6.5 kmh</cmt></trkpt>
<trkpt lat="58.777376" lon="05.718301"><ele>28</ele><time>2012-03-25T15:48:08Z</time><cmt>6.6 kmh</cmt></trkpt>
<trkpt lat="58.777389" lon="05.718283"><ele>28</ele><time>2012-03-25T15:48:10Z</time><cmt>6.4 kmh</cmt></trkpt>
<trkpt lat="58.777402" lon="05.718266"><ele>28</ele><time>2012-03-25T15:48:11Z</time><cmt>6.4 kmh</cmt></trkpt>
<trkpt lat="58.777416" lon="05.718250"><ele>28</ele><time>2012-03-25T15:48:12Z</time><cmt>6.7 kmh</cmt></trkpt>
<trkpt lat="58.777431" lon="05.718235"><ele>28</ele><time>2012-03-25T15:48:12Z</time><cmt>6.6 kmh</cmt></trkpt>
<trkpt lat="58.777446" lon="05.718220"><ele>28</ele><time>2012-03-25T15:48:13Z</time><cmt>6.7 kmh</cmt></trkpt>
<trkpt lat="58.777461" lon="05.718206"><ele>28</ele><time>2012-03-25T15:48:14Z</time><cmt>6.9 kmh</cmt></trkpt>
<trkpt lat="58.777476" lon="05.718193"><ele>28</ele><time>2012-03-25T15:48:16Z</time><cmt>6.0 kmh</cmt></trkpt>
<trkpt lat="58.777492" lon="05.718182"><ele>28</ele><time>2012-03-25T15:48:17Z</time><cmt>7.4 kmh</cmt></trkpt>
<trkpt lat="58.777509" lon="05.718172"><ele>28</ele><time>2012-03-25T15:48:18Z</time><cmt>6.9 kmh</cmt></trkpt>
<trkpt lat="58.777527" lon="05.718164"><ele>28</ele><time>2012-03-25T15:48:18Z</time><cmt>6.7 kmh</cmt></trkpt>
<trkpt lat="58.777542" lon="05.718158"><ele>28</ele><time>2012-03-25T15:48:19Z</time><cmt>5.5 kmh</cmt></trkpt>
<trkpt lat="58.777558" lon="05.718156"><ele>28</ele><time>2012-03-25T15:48:20Z</time><cmt>6.1 kmh</cmt></trkpt>
<trkpt lat="58.777573" lon="05.718157"><ele>28</ele><time>2012-03-25T15:48:22Z</time><cmt>5.4 kmh</cmt></trkpt>
<trkpt lat="58.777589" lon="05.718155"><ele>28</ele><time>2012-03-25T15:48:23Z</time><cmt>5.5 kmh</cmt></trkpt>
<trkpt lat="58.777602" lon="05.718152"><ele>28</ele><time>2012-03-25T15:48:24Z</time><cmt>5.0 kmh</cmt></trkpt>
<trkpt lat="58.777616" lon="05.718150"><ele>28</ele><time>2012-03-25T15:48:25Z</time><cmt>5.0 kmh</cmt></trkpt>
<trkpt lat="58.777631" lon="05.718149"><ele>28</ele><time>2012-03-25T15:48:25Z</time><cmt>5.7 kmh</cmt></trkpt>
<trkpt lat="58.777647" lon="05.718152"><ele>28</ele><time>2012-03-25T15:48:26Z</time><cmt>6.4 kmh</cmt></trkpt>
<trkpt lat="58.777665" lon="05.718155"><ele>28</ele><time>2012-03-25T15:48:28Z</time><cmt>6.7 kmh</cmt></trkpt>
<trkpt lat="58.777684" lon="05.718157"><ele>29</ele><time>2012-03-25T15:48:29Z</time><cmt>6.6 kmh</cmt></trkpt>
<trkpt lat="58.777702" lon="05.718158"><ele>29</ele><time>2012-03-25T15:48:30Z</time><cmt>6.9 kmh</cmt></trkpt>
<trkpt lat="58.777720" lon="05.718160"><ele>29</ele><time>2012-03-25T15:48:31Z</time><cmt>6.4 kmh</cmt></trkpt>
<trkpt lat="58.777738" lon="05.718159"><ele>29</ele><time>2012-03-25T15:48:31Z</time><cmt>6.0 kmh</cmt></trkpt>
<trkpt lat="58.777755" lon="05.718156"><ele>29</ele><time>2012-03-25T15:48:32Z</time><cmt>5.5 kmh</cmt></trkpt>
<trkpt lat="58.777771" lon="05.718153"><ele>29</ele><time>2012-03-25T15:48:33Z</time><cmt>5.9 kmh</cmt></trkpt>
<trkpt lat="58.777788" lon="05.718149"><ele>29</ele><time>2012-03-25T15:48:35Z</time><cmt>6.7 kmh</cmt></trkpt>
<trkpt lat="58.777807" lon="05.718145"><ele>29</ele><time>2012-03-25T15:48:36Z</time><cmt>6.6 kmh</cmt></trkpt>
<trkpt lat="58.777825" lon="05.718140"><ele>29</ele><time>2012-03-25T15:48:37Z</time><cmt>6.7 kmh</cmt></trkpt>
<trkpt lat="58.777842" lon="05.718135"><ele>29</ele><time>2012-03-25T15:48:37Z</time><cmt>5.9 kmh</cmt></trkpt>
<trkpt lat="58.777859" lon="05.718127"><ele>30</ele><time>2012-03-25T15:48:38Z</time><cmt>5.6 kmh</cmt></trkpt>
<trkpt lat="58.777875" lon="05.718120"><ele>30</ele><time>2012-03-25T15:48:39Z</time><cmt>5.7 kmh</cmt></trkpt>
<trkpt lat="58.777892" lon="05.718110"><ele>30</ele><time>2012-03-25T15:48:41Z</time><cmt>5.9 kmh</cmt></trkpt>
<trkpt lat="58.777910" lon="05.718100"><ele>30</ele><time>2012-03-25T15:48:42Z</time><cmt>6.1 kmh</cmt></trkpt>
<trkpt lat="58.777929" lon="05.718091"><ele>30</ele><time>2012-03-25T15:48:43Z</time><cmt>6.4 kmh</cmt></trkpt>
<trkpt lat="58.777948" lon="05.718084"><ele>30</ele><time>2012-03-25T15:48:43Z</time><cmt>6.6 kmh</cmt></trkpt>
<trkpt lat="58.777967" lon="05.718076"><ele>30</ele><time>2012-03-25T15:48:44Z</time><cmt>6.2 kmh</cmt></trkpt>
<trkpt lat="58.777985" lon="05.718067"><ele>30</ele><time>2012-03-25T15:48:45Z</time><cmt>7.0 kmh</cmt></trkpt>
<trkpt lat="58.778006" lon="05.718059"><ele>30</ele><time>2012-03-25T15:48:47Z</time><cmt>7.6 kmh</cmt></trkpt>
<trkpt lat="58.778026" lon="05.718051"><ele>30</ele><time>2012-03-25T15:48:48Z</time><cmt>7.1 kmh</cmt></trkpt>
<trkpt lat="58.778045" lon="05.718044"><ele>30</ele><time>2012-03-25T15:48:49Z</time><cmt>5.7 kmh</cmt></trkpt>
<trkpt lat="58.778062" lon="05.718039"><ele>30</ele><time>2012-03-25T15:48:49Z</time><cmt>6.4 kmh</cmt></trkpt>
<trkpt lat="58.778080" lon="05.718034"><ele>30</ele><time>2012-03-25T15:48:50Z</time><cmt>5.8 kmh</cmt></trkpt>
<trkpt lat="58.778098" lon="05.718029"><ele>30</ele><time>2012-03-25T15:48:51Z</time><cmt>6.0 kmh</cmt></trkpt>
<trkpt lat="58.778117" lon="05.718025"><ele>30</ele><time>2012-03-25T15:48:53Z</time><cmt>5.6 kmh</cmt></trkpt>
<trkpt lat="58.778134" lon="05.718021"><ele>30</ele><time>2012-03-25T15:48:54Z</time><cmt>6.1 kmh</cmt></trkpt>
<trkpt lat="58.778151" lon="05.718017"><ele>30</ele><time>2012-03-25T15:48:55Z</time><cmt>5.4 kmh</cmt></trkpt>
<trkpt lat="58.778166" lon="05.718011"><ele>30</ele><time>2012-03-25T15:48:56Z</time><cmt>5.2 kmh</cmt></trkpt>
<trkpt lat="58.778183" lon="05.718007"><ele>30</ele><time>2012-03-25T15:48:56Z</time><cmt>5.8 kmh</cmt></trkpt>
<trkpt lat="58.778199" lon="05.718004"><ele>30</ele><time>2012-03-25T15:48:57Z</time><cmt>5.9 kmh</cmt></trkpt>
<trkpt lat="58.778216" lon="05.717999"><ele>30</ele><time>2012-03-25T15:48:59Z</time><cmt>5.9 kmh</cmt></trkpt>
<trkpt lat="58.778233" lon="05.717997"><ele>30</ele><time>2012-03-25T15:49:00Z</time><cmt>6.1 kmh</cmt></trkpt>
<trkpt lat="58.778250" lon="05.717995"><ele>30</ele><time>2012-03-25T15:49:01Z</time><cmt>5.9 kmh</cmt></trkpt>
<trkpt lat="58.778267" lon="05.717993"><ele>30</ele><time>2012-03-25T15:49:02Z</time><cmt>5.7 kmh</cmt></trkpt>
<trkpt lat="58.778284" lon="05.717992"><ele>30</ele><time>2012-03-25T15:49:02Z</time><cmt>5.6 kmh</cmt></trkpt>
<trkpt lat="58.778300" lon="05.717990"><ele>30</ele><time>2012-03-25T15:49:03Z</time><cmt>5.9 kmh</cmt></trkpt>
<trkpt lat="58.778316" lon="05.717988"><ele>30</ele><time>2012-03-25T15:49:04Z</time><cmt>5.8 kmh</cmt></trkpt>
<trkpt lat="58.778334" lon="05.717988"><ele>30</ele><time>2012-03-25T15:49:06Z</time><cmt>6.2 kmh</cmt></trkpt>
<trkpt lat="58.778351" lon="05.717985"><ele>30</ele><time>2012-03-25T15:49:07Z</time><cmt>6.4 kmh</cmt></trkpt>
<trkpt lat="58.778368" lon="05.717984"><ele>29</ele><time>2012-03-25T15:49:08Z</time><cmt>6.2 kmh</cmt></trkpt>
<trkpt lat="58.778385" lon="05.717982"><ele>29</ele><time>2012-03-25T15:49:08Z</time><cmt>6.0 kmh</cmt></trkpt>
<trkpt lat="58.778402" lon="05.717980"><ele>29</ele><time>2012-03-25T15:49:09Z</time><cmt>6.4 kmh</cmt></trkpt>
<trkpt lat="58.778419" lon="05.717976"><ele>29</ele><time>2012-03-25T15:49:10Z</time><cmt>6.1 kmh</cmt></trkpt>
<trkpt lat="58.778435" lon="05.717975"><ele>29</ele><time>2012-03-25T15:49:12Z</time><cmt>5.5 kmh</cmt></trkpt>
<trkpt lat="58.778449" lon="05.717972"><ele>29</ele><time>2012-03-25T15:49:13Z</time><cmt>5.5 kmh</cmt></trkpt>
<trkpt lat="58.778464" lon="05.717969"><ele>29</ele><time>2012-03-25T15:49:14Z</time><cmt>5.1 kmh</cmt></trkpt>
<trkpt lat="58.778479" lon="05.717970"><ele>28</ele><time>2012-03-25T15:49:14Z</time><cmt>5.1 kmh</cmt></trkpt>
<trkpt lat="58.778494" lon="05.717971"><ele>28</ele><time>2012-03-25T15:49:15Z</time><cmt>5.8 kmh</cmt></trkpt>
<trkpt lat="58.778510" lon="05.717975"><ele>28</ele><time>2012-03-25T15:49:16Z</time><cmt>6.6 kmh</cmt></trkpt>
<trkpt lat="58.778527" lon="05.717983"><ele>28</ele><time>2012-03-25T15:49:18Z</time><cmt>6.3 kmh</cmt></trkpt>
<trkpt lat="58.778543" lon="05.717992"><ele>28</ele><time>2012-03-25T15:49:19Z</time><cmt>6.9 kmh</cmt></trkpt>
<trkpt lat="58.778559" lon="05.718001"><ele>28</ele><time>2012-03-25T15:49:20Z</time><cmt>6.7 kmh</cmt></trkpt>
<trkpt lat="58.778575" lon="05.718013"><ele>28</ele><time>2012-03-25T15:49:20Z</time><cmt>6.9 kmh</cmt></trkpt>
<trkpt lat="58.778591" lon="05.718026"><ele>28</ele><time>2012-03-25T15:49:21Z</time><cmt>7.2 kmh</cmt></trkpt>
<trkpt lat="58.778608" lon="05.718039"><ele>28</ele><time>2012-03-25T15:49:22Z</time><cmt>7.1 kmh</cmt></trkpt>
<trkpt lat="58.778624" lon="05.718054"><ele>28</ele><time>2012-03-25T15:49:24Z</time><cmt>7.2 kmh</cmt></trkpt>
<trkpt lat="58.778639" lon="05.718069"><ele>28</ele><time>2012-03-25T15:49:25Z</time><cmt>7.1 kmh</cmt></trkpt>
<trkpt lat="58.778653" lon="05.718085"><ele>28</ele><time>2012-03-25T15:49:26Z</time><cmt>6.7 kmh</cmt></trkpt>
<trkpt lat="58.778669" lon="05.718100"><ele>28</ele><time>2012-03-25T15:49:27Z</time><cmt>7.2 kmh</cmt></trkpt>
<trkpt lat="58.778684" lon="05.718118"><ele>27</ele><time>2012-03-25T15:49:27Z</time><cmt>7.1 kmh</cmt></trkpt>
<trkpt lat="58.778699" lon="05.718136"><ele>27</ele><time>2012-03-25T15:49:28Z</time><cmt>6.9 kmh</cmt></trkpt>
<trkpt lat="58.778714" lon="05.718155"><ele>27</ele><time>2012-03-25T15:49:30Z</time><cmt>7.3 kmh</cmt></trkpt>
<trkpt lat="58.778730" lon="05.718175"><ele>27</ele><time>2012-03-25T15:49:31Z</time><cmt>7.4 kmh</cmt></trkpt>
<trkpt lat="58.778746" lon="05.718194"><ele>27</ele><time>2012-03-25T15:49:32Z</time><cmt>7.3 kmh</cmt></trkpt>
<trkpt lat="58.778762" lon="05.718212"><ele>27</ele><time>2012-03-25T15:49:33Z</time><cmt>7.1 kmh</cmt></trkpt>
<trkpt lat="58.778777" lon="05.718232"><ele>27</ele><time>2012-03-25T15:49:33Z</time><cmt>7.1 kmh</cmt></trkpt>
<trkpt lat="58.778790" lon="05.718253"><ele>27</ele><time>2012-03-25T15:49:34Z</time><cmt>6.9 kmh</cmt></trkpt>
<trkpt lat="58.778804" lon="05.718271"><ele>27</ele><time>2012-03-25T15:49:35Z</time><cmt>6.9 kmh</cmt></trkpt>
<trkpt lat="58.778821" lon="05.718286"><ele>27</ele><time>2012-03-25T15:49:37Z</time><cmt>7.0 kmh</cmt></trkpt>
<trkpt lat="58.778838" lon="05.718298"><ele>27</ele><time>2012-03-25T15:49:38Z</time><cmt>7.0 kmh</cmt></trkpt>
<trkpt lat="58.778857" lon="05.718306"><ele>27</ele><time>2012-03-25T15:49:39Z</time><cmt>6.7 kmh</cmt></trkpt>
<trkpt lat="58.778874" lon="05.718313"><ele>27</ele><time>2012-03-25T15:49:39Z</time><cmt>6.9 kmh</cmt></trkpt>
<trkpt lat="58.778892" lon="05.718318"><ele>27</ele><time>2012-03-25T15:49:40Z</time><cmt>6.5 kmh</cmt></trkpt>
<trkpt lat="58.778911" lon="05.718322"><ele>27</ele><time>2012-03-25T15:49:41Z</time><cmt>7.1 kmh</cmt></trkpt>
<trkpt lat="58.778930" lon="05.718327"><ele>27</ele><time>2012-03-25T15:49:43Z</time><cmt>6.7 kmh</cmt></trkpt>
<trkpt lat="58.778950" lon="05.718329"><ele>27</ele><time>2012-03-25T15:49:44Z</time><cmt>6.9 kmh</cmt></trkpt>
<trkpt lat="58.778969" lon="05.718329"><ele>27</ele><time>2012-03-25T15:49:45Z</time><cmt>6.8 kmh</cmt></trkpt>
<trkpt lat="58.778988" lon="05.718328"><ele>27</ele><time>2012-03-25T15:49:45Z</time><cmt>7.3 kmh</cmt></trkpt>
<trkpt lat="58.779007" lon="05.718326"><ele>27</ele><time>2012-03-25T15:49:46Z</time><cmt>6.6 kmh</cmt></trkpt>
<trkpt lat="58.779025" lon="05.718323"><ele>27</ele><time>2012-03-25T15:49:47Z</time><cmt>6.6 kmh</cmt></trkpt>
<trkpt lat="58.779042" lon="05.718320"><ele>27</ele><time>2012-03-25T15:49:49Z</time><cmt>6.6 kmh</cmt></trkpt>
<trkpt lat="58.779061" lon="05.718315"><ele>27</ele><time>2012-03-25T15:49:50Z</time><cmt>6.8 kmh</cmt></trkpt>
<trkpt lat="58.779079" lon="05.718312"><ele>27</ele><time>2012-03-25T15:49:51Z</time><cmt>6.7 kmh</cmt></trkpt>
<trkpt lat="58.779097" lon="05.718307"><ele>27</ele><time>2012-03-25T15:49:51Z</time><cmt>6.8 kmh</cmt></trkpt>
<trkpt lat="58.779115" lon="05.718304"><ele>27</ele><time>2012-03-25T15:49:52Z</time><cmt>6.5 kmh</cmt></trkpt>
<trkpt lat="58.779133" lon="05.718302"><ele>27</ele><time>2012-03-25T15:49:53Z</time><cmt>6.7 kmh</cmt></trkpt>
<trkpt lat="58.779151" lon="05.718300"><ele>27</ele><time>2012-03-25T15:49:55Z</time><cmt>6.4 kmh</cmt></trkpt>
<trkpt lat="58.779168" lon="05.718298"><ele>27</ele><time>2012-03-25T15:49:56Z</time><cmt>6.5 kmh</cmt></trkpt>
<trkpt lat="58.779185" lon="05.718297"><ele>27</ele><time>2012-03-25T15:49:57Z</time><cmt>6.4 kmh</cmt></trkpt>
<trkpt lat="58.779202" lon="05.718296"><ele>27</ele><time>2012-03-25T15:49:57Z</time><cmt>6.5 kmh</cmt></trkpt>
<trkpt lat="58.779220" lon="05.718295"><ele>27</ele><time>2012-03-25T15:49:58Z</time><cmt>6.5 kmh</cmt></trkpt>
<trkpt lat="58.779239" lon="05.718292"><ele>27</ele><time>2012-03-25T15:49:59Z</time><cmt>6.8 kmh</cmt></trkpt>
<trkpt lat="58.779258" lon="05.718288"><ele>28</ele><time>2012-03-25T15:50:01Z</time><cmt>6.9 kmh</cmt></trkpt>
<trkpt lat="58.779275" lon="05.718285"><ele>28</ele><time>2012-03-25T15:50:02Z</time><cmt>6.6 kmh</cmt></trkpt>
<trkpt lat="58.779293" lon="05.718282"><ele>28</ele><time>2012-03-25T15:50:03Z</time><cmt>6.7 kmh</cmt></trkpt>
<trkpt lat="58.779310" lon="05.718278"><ele>28</ele><time>2012-03-25T15:50:04Z</time><cmt>6.8 kmh</cmt></trkpt>
<trkpt lat="58.779328" lon="05.718273"><ele>28</ele><time>2012-03-25T15:50:04Z</time><cmt>6.9 kmh</cmt></trkpt>
<trkpt lat="58.779346" lon="05.718268"><ele>28</ele><time>2012-03-25T15:50:05Z</time><cmt>7.1 kmh</cmt></trkpt>
<trkpt lat="58.779364" lon="05.718262"><ele>28</ele><time>2012-03-25T15:50:07Z</time><cmt>7.0 kmh</cmt></trkpt>
<trkpt lat="58.779381" lon="05.718256"><ele>28</ele><time>2012-03-25T15:50:08Z</time><cmt>6.6 kmh</cmt></trkpt>
<trkpt lat="58.779398" lon="05.718248"><ele>28</ele><time>2012-03-25T15:50:09Z</time><cmt>7.0 kmh</cmt></trkpt>
<trkpt lat="58.779415" lon="05.718241"><ele>28</ele><time>2012-03-25T15:50:10Z</time><cmt>7.0 kmh</cmt></trkpt>
<trkpt lat="58.779432" lon="05.718234"><ele>28</ele><time>2012-03-25T15:50:10Z</time><cmt>6.9 kmh</cmt></trkpt>
<trkpt lat="58.779449" lon="05.718227"><ele>28</ele><time>2012-03-25T15:50:11Z</time><cmt>6.9 kmh</cmt></trkpt>
<trkpt lat="58.779466" lon="05.718221"><ele>28</ele><time>2012-03-25T15:50:12Z</time><cmt>6.9 kmh</cmt></trkpt>
<trkpt lat="58.779483" lon="05.718215"><ele>28</ele><time>2012-03-25T15:50:14Z</time><cmt>6.9 kmh</cmt></trkpt>
<trkpt lat="58.779501" lon="05.718210"><ele>28</ele><time>2012-03-25T15:50:15Z</time><cmt>6.7 kmh</cmt></trkpt>
<trkpt lat="58.779518" lon="05.718205"><ele>28</ele><time>2012-03-25T15:50:16Z</time><cmt>6.4 kmh</cmt></trkpt>
<trkpt lat="58.779535" lon="05.718201"><ele>28</ele><time>2012-03-25T15:50:16Z</time><cmt>6.3 kmh</cmt></trkpt>
<trkpt lat="58.779552" lon="05.718197"><ele>28</ele><time>2012-03-25T15:50:17Z</time><cmt>7.3 kmh</cmt></trkpt>
<trkpt lat="58.779569" lon="05.718194"><ele>28</ele><time>2012-03-25T15:50:18Z</time><cmt>6.2 kmh</cmt></trkpt>
<trkpt lat="58.779585" lon="05.718190"><ele>28</ele><time>2012-03-25T15:50:20Z</time><cmt>6.6 kmh</cmt></trkpt>
<trkpt lat="58.779602" lon="05.718186"><ele>28</ele><time>2012-03-25T15:50:21Z</time><cmt>6.9 kmh</cmt></trkpt>
<trkpt lat="58.779618" lon="05.718180"><ele>28</ele><time>2012-03-25T15:50:22Z</time><cmt>7.1 kmh</cmt></trkpt>
<trkpt lat="58.779635" lon="05.718172"><ele>28</ele><time>2012-03-25T15:50:22Z</time><cmt>6.9 kmh</cmt></trkpt>
<trkpt lat="58.779653" lon="05.718165"><ele>28</ele><time>2012-03-25T15:50:23Z</time><cmt>6.8 kmh</cmt></trkpt>
<trkpt lat="58.779670" lon="05.718158"><ele>28</ele><time>2012-03-25T15:50:24Z</time><cmt>6.8 kmh</cmt></trkpt>
<trkpt lat="58.779688" lon="05.718149"><ele>28</ele><time>2012-03-25T15:50:26Z</time><cmt>7.1 kmh</cmt></trkpt>
<trkpt lat="58.779705" lon="05.718140"><ele>28</ele><time>2012-03-25T15:50:27Z</time><cmt>6.7 kmh</cmt></trkpt>
<trkpt lat="58.779721" lon="05.718131"><ele>28</ele><time>2012-03-25T15:50:28Z</time><cmt>6.7 kmh</cmt></trkpt>
<trkpt lat="58.779738" lon="05.718122"><ele>27</ele><time>2012-03-25T15:50:28Z</time><cmt>6.9 kmh</cmt></trkpt>
<trkpt lat="58.779754" lon="05.718111"><ele>27</ele><time>2012-03-25T15:50:29Z</time><cmt>6.3 kmh</cmt></trkpt>
<trkpt lat="58.779770" lon="05.718102"><ele>27</ele><time>2012-03-25T15:50:30Z</time><cmt>6.9 kmh</cmt></trkpt>
<trkpt lat="58.779785" lon="05.718094"><ele>27</ele><time>2012-03-25T15:50:32Z</time><cmt>6.7 kmh</cmt></trkpt>
<trkpt lat="58.779801" lon="05.718086"><ele>27</ele><time>2012-03-25T15:50:33Z</time><cmt>6.6 kmh</cmt></trkpt>
<trkpt lat="58.779817" lon="05.718078"><ele>27</ele><time>2012-03-25T15:50:34Z</time><cmt>6.7 kmh</cmt></trkpt>
<trkpt lat="58.779834" lon="05.718070"><ele>27</ele><time>2012-03-25T15:50:35Z</time><cmt>6.9 kmh</cmt></trkpt>
<trkpt lat="58.779851" lon="05.718062"><ele>27</ele><time>2012-03-25T15:50:35Z</time><cmt>6.8 kmh</cmt></trkpt>
<trkpt lat="58.779868" lon="05.718053"><ele>26</ele><time>2012-03-25T15:50:36Z</time><cmt>7.0 kmh</cmt></trkpt>
<trkpt lat="58.779885" lon="05.718044"><ele>26</ele><time>2012-03-25T15:50:38Z</time><cmt>7.0 kmh</cmt></trkpt>
<trkpt lat="58.779902" lon="05.718034"><ele>26</ele><time>2012-03-25T15:50:39Z</time><cmt>6.6 kmh</cmt></trkpt>
<trkpt lat="58.779919" lon="05.718024"><ele>26</ele><time>2012-03-25T15:50:40Z</time><cmt>6.8 kmh</cmt></trkpt>
<trkpt lat="58.779935" lon="05.718014"><ele>26</ele><time>2012-03-25T15:50:41Z</time><cmt>6.9 kmh</cmt></trkpt>
<trkpt lat="58.779953" lon="05.718004"><ele>26</ele><time>2012-03-25T15:50:41Z</time><cmt>7.3 kmh</cmt></trkpt>
<trkpt lat="58.779971" lon="05.717992"><ele>26</ele><time>2012-03-25T15:50:42Z</time><cmt>7.2 kmh</cmt></trkpt>
<trkpt lat="58.779989" lon="05.717980"><ele>26</ele><time>2012-03-25T15:50:43Z</time><cmt>7.2 kmh</cmt></trkpt>
<trkpt lat="58.780007" lon="05.717969"><ele>26</ele><time>2012-03-25T15:50:45Z</time><cmt>7.2 kmh</cmt></trkpt>
<trkpt lat="58.780025" lon="05.717956"><ele>25</ele><time>2012-03-25T15:50:46Z</time><cmt>7.1 kmh</cmt></trkpt>
<trkpt lat="58.780042" lon="05.717944"><ele>25</ele><time>2012-03-25T15:50:47Z</time><cmt>7.3 kmh</cmt></trkpt>
<trkpt lat="58.780060" lon="05.717933"><ele>25</ele><time>2012-03-25T15:50:47Z</time><cmt>7.0 kmh</cmt></trkpt>
<trkpt lat="58.780076" lon="05.717923"><ele>25</ele><time>2012-03-25T15:50:48Z</time><cmt>7.0 kmh</cmt></trkpt>
<trkpt lat="58.780091" lon="05.717915"><ele>25</ele><time>2012-03-25T15:50:49Z</time><cmt>5.9 kmh</cmt></trkpt>
<trkpt lat="58.780105" lon="05.717907"><ele>25</ele><time>2012-03-25T15:50:51Z</time><cmt>5.8 kmh</cmt></trkpt>
<trkpt lat="58.780119" lon="05.717897"><ele>25</ele><time>2012-03-25T15:50:52Z</time><cmt>5.5 kmh</cmt></trkpt>
<trkpt lat="58.780133" lon="05.717885"><ele>25</ele><time>2012-03-25T15:50:53Z</time><cmt>5.4 kmh</cmt></trkpt>
<trkpt lat="58.780145" lon="05.717873"><ele>25</ele><time>2012-03-25T15:50:53Z</time><cmt>5.0 kmh</cmt></trkpt>
<trkpt lat="58.780157" lon="05.717859"><ele>25</ele><time>2012-03-25T15:50:54Z</time><cmt>5.6 kmh</cmt></trkpt>
<trkpt lat="58.780170" lon="05.717845"><ele>25</ele><time>2012-03-25T15:50:55Z</time><cmt>5.9 kmh</cmt></trkpt>
<trkpt lat="58.780184" lon="05.717829"><ele>25</ele><time>2012-03-25T15:50:57Z</time><cmt>6.4 kmh</cmt></trkpt>
<trkpt lat="58.780198" lon="05.717812"><ele>25</ele><time>2012-03-25T15:50:58Z</time><cmt>6.6 kmh</cmt></trkpt>
<trkpt lat="58.780212" lon="05.717793"><ele>25</ele><time>2012-03-25T15:50:59Z</time><cmt>6.8 kmh</cmt></trkpt>
<trkpt lat="58.780226" lon="05.717772"><ele>25</ele><time>2012-03-25T15:50:59Z</time><cmt>6.9 kmh</cmt></trkpt>
<trkpt lat="58.780240" lon="05.717750"><ele>25</ele><time>2012-03-25T15:51:00Z</time><cmt>6.7 kmh</cmt></trkpt>
<trkpt lat="58.780253" lon="05.717728"><ele>25</ele><time>2012-03-25T15:51:01Z</time><cmt>6.9 kmh</cmt></trkpt>
<trkpt lat="58.780266" lon="05.717705"><ele>25</ele><time>2012-03-25T15:51:03Z</time><cmt>6.6 kmh</cmt></trkpt>
<trkpt lat="58.780278" lon="05.717683"><ele>25</ele><time>2012-03-25T15:51:04Z</time><cmt>6.0 kmh</cmt></trkpt>
<trkpt lat="58.780288" lon="05.717662"><ele>25</ele><time>2012-03-25T15:51:05Z</time><cmt>5.5 kmh</cmt></trkpt>
<trkpt lat="58.780298" lon="05.717641"><ele>25</ele><time>2012-03-25T15:51:06Z</time><cmt>5.9 kmh</cmt></trkpt>
<trkpt lat="58.780308" lon="05.717619"><ele>25</ele><time>2012-03-25T15:51:06Z</time><cmt>5.9 kmh</cmt></trkpt>
<trkpt lat="58.780319" lon="05.717598"><ele>25</ele><time>2012-03-25T15:51:07Z</time><cmt>6.1 kmh</cmt></trkpt>
<trkpt lat="58.780330" lon="05.717576"><ele>25</ele><time>2012-03-25T15:51:09Z</time><cmt>6.1 kmh</cmt></trkpt>
<trkpt lat="58.780341" lon="05.717554"><ele>25</ele><time>2012-03-25T15:51:10Z</time><cmt>6.4 kmh</cmt></trkpt>
<trkpt lat="58.780352" lon="05.717532"><ele>25</ele><time>2012-03-25T15:51:11Z</time><cmt>6.2 kmh</cmt></trkpt>
<trkpt lat="58.780363" lon="05.717511"><ele>25</ele><time>2012-03-25T15:51:12Z</time><cmt>6.3 kmh</cmt></trkpt>
<trkpt lat="58.780375" lon="05.717490"><ele>25</ele><time>2012-03-25T15:51:12Z</time><cmt>6.3 kmh</cmt></trkpt>
<trkpt lat="58.780387" lon="05.717470"><ele>25</ele><time>2012-03-25T15:51:13Z</time><cmt>6.4 kmh</cmt></trkpt>
<trkpt lat="58.780399" lon="05.717449"><ele>25</ele><time>2012-03-25T15:51:15Z</time><cmt>6.2 kmh</cmt></trkpt>
<trkpt lat="58.780412" lon="05.717430"><ele>25</ele><time>2012-03-25T15:51:16Z</time><cmt>6.4 kmh</cmt></trkpt>
<trkpt lat="58.780425" lon="05.717411"><ele>25</ele><time>2012-03-25T15:51:17Z</time><cmt>6.3 kmh</cmt></trkpt>
<trkpt lat="58.780437" lon="05.717393"><ele>25</ele><time>2012-03-25T15:51:18Z</time><cmt>6.2 kmh</cmt></trkpt>
<trkpt lat="58.780450" lon="05.717375"><ele>25</ele><time>2012-03-25T15:51:18Z</time><cmt>6.2 kmh</cmt></trkpt>
<trkpt lat="58.780463" lon="05.717357"><ele>25</ele><time>2012-03-25T15:51:19Z</time><cmt>6.3 kmh</cmt></trkpt>
<trkpt lat="58.780475" lon="05.717338"><ele>25</ele><time>2012-03-25T15:51:20Z</time><cmt>6.2 kmh</cmt></trkpt>
<trkpt lat="58.780487" lon="05.717319"><ele>25</ele><time>2012-03-25T15:51:22Z</time><cmt>6.4 kmh</cmt></trkpt>
<trkpt lat="58.780500" lon="05.717300"><ele>25</ele><time>2012-03-25T15:51:23Z</time><cmt>6.3 kmh</cmt></trkpt>
<trkpt lat="58.780512" lon="05.717280"><ele>25</ele><time>2012-03-25T15:51:24Z</time><cmt>6.3 kmh</cmt></trkpt>
<trkpt lat="58.780525" lon="05.717261"><ele>25</ele><time>2012-03-25T15:51:24Z</time><cmt>6.3 kmh</cmt></trkpt>
<trkpt lat="58.780537" lon="05.717240"><ele>25</ele><time>2012-03-25T15:51:25Z</time><cmt>6.3 kmh</cmt></trkpt>
<trkpt lat="58.780549" lon="05.717220"><ele>25</ele><time>2012-03-25T15:51:26Z</time><cmt>6.4 kmh</cmt></trkpt>
<trkpt lat="58.780561" lon="05.717199"><ele>25</ele><time>2012-03-25T15:51:28Z</time><cmt>6.3 kmh</cmt></trkpt>
<trkpt lat="58.780573" lon="05.717179"><ele>25</ele><time>2012-03-25T15:51:29Z</time><cmt>6.4 kmh</cmt></trkpt>
<trkpt lat="58.780585" lon="05.717158"><ele>25</ele><time>2012-03-25T15:51:30Z</time><cmt>6.2 kmh</cmt></trkpt>
<trkpt lat="58.780597" lon="05.717138"><ele>25</ele><time>2012-03-25T15:51:30Z</time><cmt>6.2 kmh</cmt></trkpt>
<trkpt lat="58.780609" lon="05.717118"><ele>25</ele><time>2012-03-25T15:51:31Z</time><cmt>6.0 kmh</cmt></trkpt>
<trkpt lat="58.780620" lon="05.717099"><ele>25</ele><time>2012-03-25T15:51:32Z</time><cmt>6.1 kmh</cmt></trkpt>
<trkpt lat="58.780632" lon="05.717080"><ele>25</ele><time>2012-03-25T15:51:34Z</time><cmt>6.0 kmh</cmt></trkpt>
<trkpt lat="58.780643" lon="05.717062"><ele>25</ele><time>2012-03-25T15:51:35Z</time><cmt>6.2 kmh</cmt></trkpt>
<trkpt lat="58.780656" lon="05.717044"><ele>25</ele><time>2012-03-25T15:51:36Z</time><cmt>6.3 kmh</cmt></trkpt>
<trkpt lat="58.780669" lon="05.717025"><ele>25</ele><time>2012-03-25T15:51:37Z</time><cmt>6.4 kmh</cmt></trkpt>
<trkpt lat="58.780681" lon="05.717005"><ele>25</ele><time>2012-03-25T15:51:37Z</time><cmt>6.6 kmh</cmt></trkpt>
<trkpt lat="58.780694" lon="05.716985"><ele>25</ele><time>2012-03-25T15:51:38Z</time><cmt>6.7 kmh</cmt></trkpt>
<trkpt lat="58.780707" lon="05.716965"><ele>25</ele><time>2012-03-25T15:51:40Z</time><cmt>6.6 kmh</cmt></trkpt>
<trkpt lat="58.780720" lon="05.716944"><ele>25</ele><time>2012-03-25T15:51:41Z</time><cmt>6.6 kmh</cmt></trkpt>
<trkpt lat="58.780732" lon="05.716923"><ele>25</ele><time>2012-03-25T15:51:42Z</time><cmt>6.1 kmh</cmt></trkpt>
<trkpt lat="58.780743" lon="05.716902"><ele>25</ele><time>2012-03-25T15:51:43Z</time><cmt>6.0 kmh</cmt></trkpt>
<trkpt lat="58.780754" lon="05.716880"><ele>25</ele><time>2012-03-25T15:51:43Z</time><cmt>6.3 kmh</cmt></trkpt>
<trkpt lat="58.780765" lon="05.716858"><ele>25</ele><time>2012-03-25T15:51:44Z</time><cmt>6.4 kmh</cmt></trkpt>
<trkpt lat="58.780777" lon="05.716836"><ele>25</ele><time>2012-03-25T15:51:46Z</time><cmt>6.4 kmh</cmt></trkpt>
<trkpt lat="58.780788" lon="05.716814"><ele>25</ele><time>2012-03-25T15:51:47Z</time><cmt>6.3 kmh</cmt></trkpt>
<trkpt lat="58.780800" lon="05.716792"><ele>25</ele><time>2012-03-25T15:51:48Z</time><cmt>6.1 kmh</cmt></trkpt>
<trkpt lat="58.780811" lon="05.716770"><ele>25</ele><time>2012-03-25T15:51:49Z</time><cmt>6.3 kmh</cmt></trkpt>
<trkpt lat="58.780821" lon="05.716748"><ele>25</ele><time>2012-03-25T15:51:49Z</time><cmt>6.2 kmh</cmt></trkpt>
<trkpt lat="58.780832" lon="05.716726"><ele>25</ele><time>2012-03-25T15:51:50Z</time><cmt>5.8 kmh</cmt></trkpt>
<trkpt lat="58.780841" lon="05.716704"><ele>25</ele><time>2012-03-25T15:51:51Z</time><cmt>5.5 kmh</cmt></trkpt>
<trkpt lat="58.780850" lon="05.716683"><ele>25</ele><time>2012-03-25T15:51:53Z</time><cmt>5.4 kmh</cmt></trkpt>
<trkpt lat="58.780858" lon="05.716662"><ele>25</ele><time>2012-03-25T15:51:54Z</time><cmt>5.4 kmh</cmt></trkpt>
<trkpt lat="58.780867" lon="05.716640"><ele>25</ele><time>2012-03-25T15:51:55Z</time><cmt>6.0 kmh</cmt></trkpt>
<trkpt lat="58.780876" lon="05.716617"><ele>25</ele><time>2012-03-25T15:51:55Z</time><cmt>6.0 kmh</cmt></trkpt>
<trkpt lat="58.780886" lon="05.716594"><ele>25</ele><time>2012-03-25T15:51:56Z</time><cmt>6.1 kmh</cmt></trkpt>
<trkpt lat="58.780896" lon="05.716572"><ele>25</ele><time>2012-03-25T15:51:57Z</time><cmt>5.9 kmh</cmt></trkpt>
<trkpt lat="58.780906" lon="05.716549"><ele>25</ele><time>2012-03-25T15:51:59Z</time><cmt>6.2 kmh</cmt></trkpt>
<trkpt lat="58.780916" lon="05.716527"><ele>25</ele><time>2012-03-25T15:52:00Z</time><cmt>5.9 kmh</cmt></trkpt>
<trkpt lat="58.780926" lon="05.716505"><ele>25</ele><time>2012-03-25T15:52:01Z</time><cmt>6.2 kmh</cmt></trkpt>
<trkpt lat="58.780936" lon="05.716483"><ele>25</ele><time>2012-03-25T15:52:01Z</time><cmt>6.0 kmh</cmt></trkpt>
<trkpt lat="58.780947" lon="05.716462"><ele>25</ele><time>2012-03-25T15:52:02Z</time><cmt>5.9 kmh</cmt></trkpt>
<trkpt lat="58.780958" lon="05.716443"><ele>25</ele><time>2012-03-25T15:52:03Z</time><cmt>6.1 kmh</cmt></trkpt>
<trkpt lat="58.780970" lon="05.716424"><ele>25</ele><time>2012-03-25T15:52:05Z</time><cmt>6.0 kmh</cmt></trkpt>
<trkpt lat="58.780983" lon="05.716406"><ele>25</ele><time>2012-03-25T15:52:06Z</time><cmt>6.2 kmh</cmt></trkpt>
<trkpt lat="58.780995" lon="05.716388"><ele>25</ele><time>2012-03-25T15:52:07Z</time><cmt>6.0 kmh</cmt></trkpt>
<trkpt lat="58.781008" lon="05.716370"><ele>25</ele><time>2012-03-25T15:52:08Z</time><cmt>6.3 kmh</cmt></trkpt>
<trkpt lat="58.781021" lon="05.716353"><ele>25</ele><time>2012-03-25T15:52:08Z</time><cmt>6.3 kmh</cmt></trkpt>
<trkpt lat="58.781034" lon="05.716335"><ele>25</ele><time>2012-03-25T15:52:09Z</time><cmt>6.1 kmh</cmt></trkpt>
<trkpt lat="58.781047" lon="05.716318"><ele>25</ele><time>2012-03-25T15:52:11Z</time><cmt>6.2 kmh</cmt></trkpt>
<trkpt lat="58.781060" lon="05.716299"><ele>25</ele><time>2012-03-25T15:52:12Z</time><cmt>6.4 kmh</cmt></trkpt>
<trkpt lat="58.781073" lon="05.716280"><ele>25</ele><time>2012-03-25T15:52:13Z</time><cmt>6.3 kmh</cmt></trkpt>
<trkpt lat="58.781085" lon="05.716261"><ele>25</ele><time>2012-03-25T15:52:14Z</time><cmt>6.3 kmh</cmt></trkpt>
<trkpt lat="58.781097" lon="05.716240"><ele>25</ele><time>2012-03-25T15:52:14Z</time><cmt>6.5 kmh</cmt></trkpt>
<trkpt lat="58.781109" lon="05.716219"><ele>25</ele><time>2012-03-25T15:52:15Z</time><cmt>6.2 kmh</cmt></trkpt>
<trkpt lat="58.781120" lon="05.716197"><ele>25</ele><time>2012-03-25T15:52:17Z</time><cmt>6.5 kmh</cmt></trkpt>
<trkpt lat="58.781131" lon="05.716175"><ele>25</ele><time>2012-03-25T15:52:18Z</time><cmt>5.8 kmh</cmt></trkpt>
<trkpt lat="58.781140" lon="05.716153"><ele>25</ele><time>2012-03-25T15:52:19Z</time><cmt>5.8 kmh</cmt></trkpt>
<trkpt lat="58.781150" lon="05.716133"><ele>25</ele><time>2012-03-25T15:52:20Z</time><cmt>5.8 kmh</cmt></trkpt>
<trkpt lat="58.781161" lon="05.716112"><ele>25</ele><time>2012-03-25T15:52:20Z</time><cmt>5.8 kmh</cmt></trkpt>
<trkpt lat="58.781171" lon="05.716093"><ele>25</ele><time>2012-03-25T15:52:21Z</time><cmt>5.7 kmh</cmt></trkpt>
<trkpt lat="58.781182" lon="05.716073"><ele>25</ele><time>2012-03-25T15:52:22Z</time><cmt>5.9 kmh</cmt></trkpt>
<trkpt lat="58.781193" lon="05.716053"><ele>25</ele><time>2012-03-25T15:52:24Z</time><cmt>6.0 kmh</cmt></trkpt>
<trkpt lat="58.781205" lon="05.716033"><ele>25</ele><time>2012-03-25T15:52:25Z</time><cmt>6.1 kmh</cmt></trkpt>
<trkpt lat="58.781216" lon="05.716014"><ele>25</ele><time>2012-03-25T15:52:26Z</time><cmt>6.0 kmh</cmt></trkpt>
<trkpt lat="58.781228" lon="05.715995"><ele>25</ele><time>2012-03-25T15:52:26Z</time><cmt>5.9 kmh</cmt></trkpt>
<trkpt lat="58.781239" lon="05.715976"><ele>25</ele><time>2012-03-25T15:52:27Z</time><cmt>5.9 kmh</cmt></trkpt>
<trkpt lat="58.781251" lon="05.715957"><ele>25</ele><time>2012-03-25T15:52:28Z</time><cmt>6.2 kmh</cmt></trkpt>
<trkpt lat="58.781263" lon="05.715937"><ele>25</ele><time>2012-03-25T15:52:30Z</time><cmt>6.4 kmh</cmt></trkpt>
<trkpt lat="58.781275" lon="05.715917"><ele>25</ele><time>2012-03-25T15:52:31Z</time><cmt>6.4 kmh</cmt></trkpt>
<trkpt lat="58.781288" lon="05.715898"><ele>25</ele><time>2012-03-25T15:52:32Z</time><cmt>6.3 kmh</cmt></trkpt>
<trkpt lat="58.781300" lon="05.715879"><ele>25</ele><time>2012-03-25T15:52:32Z</time><cmt>6.3 kmh</cmt></trkpt>
<trkpt lat="58.781313" lon="05.715860"><ele>25</ele><time>2012-03-25T15:52:33Z</time><cmt>6.4 kmh</cmt></trkpt>
<trkpt lat="58.781325" lon="05.715841"><ele>25</ele><time>2012-03-25T15:52:34Z</time><cmt>6.5 kmh</cmt></trkpt>
<trkpt lat="58.781339" lon="05.715821"><ele>25</ele><time>2012-03-25T15:52:36Z</time><cmt>6.3 kmh</cmt></trkpt>
<trkpt lat="58.781351" lon="05.715800"><ele>25</ele><time>2012-03-25T15:52:37Z</time><cmt>6.3 kmh</cmt></trkpt>
<trkpt lat="58.781362" lon="05.715779"><ele>25</ele><time>2012-03-25T15:52:38Z</time><cmt>5.9 kmh</cmt></trkpt>
<trkpt lat="58.781372" lon="05.715756"><ele>25</ele><time>2012-03-25T15:52:39Z</time><cmt>6.2 kmh</cmt></trkpt>
<trkpt lat="58.781381" lon="05.715731"><ele>25</ele><time>2012-03-25T15:52:39Z</time><cmt>6.2 kmh</cmt></trkpt>
<trkpt lat="58.781389" lon="05.715705"><ele>25</ele><time>2012-03-25T15:52:40Z</time><cmt>6.0 kmh</cmt></trkpt>
<trkpt lat="58.781396" lon="05.715678"><ele>25</ele><time>2012-03-25T15:52:42Z</time><cmt>6.3 kmh</cmt></trkpt>
<trkpt lat="58.781402" lon="05.715650"><ele>25</ele><time>2012-03-25T15:52:43Z</time><cmt>6.4 kmh</cmt></trkpt>
<trkpt lat="58.781408" lon="05.715621"><ele>25</ele><time>2012-03-25T15:52:44Z</time><cmt>6.6 kmh</cmt></trkpt>
<trkpt lat="58.781414" lon="05.715590"><ele>25</ele><time>2012-03-25T15:52:45Z</time><cmt>6.7 kmh</cmt></trkpt>
<trkpt lat="58.781420" lon="05.715559"><ele>25</ele><time>2012-03-25T15:52:45Z</time><cmt>7.0 kmh</cmt></trkpt>
<trkpt lat="58.781425" lon="05.715526"><ele>25</ele><time>2012-03-25T15:52:46Z</time><cmt>6.9 kmh</cmt></trkpt>
<trkpt lat="58.781431" lon="05.715493"><ele>25</ele><time>2012-03-25T15:52:48Z</time><cmt>7.1 kmh</cmt></trkpt>
<trkpt lat="58.781436" lon="05.715459"><ele>25</ele><time>2012-03-25T15:52:49Z</time><cmt>7.1 kmh</cmt></trkpt>
<trkpt lat="58.781440" lon="05.715424"><ele>25</ele><time>2012-03-25T15:52:50Z</time><cmt>7.3 kmh</cmt></trkpt>
<trkpt lat="58.781444" lon="05.715389"><ele>25</ele><time>2012-03-25T15:52:51Z</time><cmt>7.1 kmh</cmt></trkpt>
<trkpt lat="58.781448" lon="05.715354"><ele>25</ele><time>2012-03-25T15:52:51Z</time><cmt>7.2 kmh</cmt></trkpt>
<trkpt lat="58.781451" lon="05.715317"><ele>25</ele><time>2012-03-25T15:52:52Z</time><cmt>7.8 kmh</cmt></trkpt>
<trkpt lat="58.781453" lon="05.715280"><ele>25</ele><time>2012-03-25T15:52:54Z</time><cmt>7.3 kmh</cmt></trkpt>
<trkpt lat="58.781455" lon="05.715244"><ele>25</ele><time>2012-03-25T15:52:55Z</time><cmt>7.3 kmh</cmt></trkpt>
<trkpt lat="58.781458" lon="05.715209"><ele>25</ele><time>2012-03-25T15:52:56Z</time><cmt>7.1 kmh</cmt></trkpt>
<trkpt lat="58.781461" lon="05.715174"><ele>25</ele><time>2012-03-25T15:52:57Z</time><cmt>7.1 kmh</cmt></trkpt>
<trkpt lat="58.781464" lon="05.715140"><ele>25</ele><time>2012-03-25T15:52:57Z</time><cmt>7.2 kmh</cmt></trkpt>
<trkpt lat="58.781467" lon="05.715105"><ele>25</ele><time>2012-03-25T15:52:58Z</time><cmt>6.9 kmh</cmt></trkpt>
<trkpt lat="58.781471" lon="05.715071"><ele>25</ele><time>2012-03-25T15:52:59Z</time><cmt>7.3 kmh</cmt></trkpt>
<trkpt lat="58.781474" lon="05.715033"><ele>25</ele><time>2012-03-25T15:53:01Z</time><cmt>7.7 kmh</cmt></trkpt>
<trkpt lat="58.781477" lon="05.714995"><ele>25</ele><time>2012-03-25T15:53:02Z</time><cmt>7.6 kmh</cmt></trkpt>
<trkpt lat="58.781479" lon="05.714958"><ele>25</ele><time>2012-03-25T15:53:03Z</time><cmt>7.3 kmh</cmt></trkpt>
<trkpt lat="58.781481" lon="05.714921"><ele>25</ele><time>2012-03-25T15:53:03Z</time><cmt>7.9 kmh</cmt></trkpt>
<trkpt lat="58.781482" lon="05.714883"><ele>25</ele><time>2012-03-25T15:53:04Z</time><cmt>7.7 kmh</cmt></trkpt>
<trkpt lat="58.781483" lon="05.714844"><ele>25</ele><time>2012-03-25T15:53:05Z</time><cmt>7.8 kmh</cmt></trkpt>
<trkpt lat="58.781485" lon="05.714805"><ele>26</ele><time>2012-03-25T15:53:07Z</time><cmt>8.1 kmh</cmt></trkpt>
<trkpt lat="58.781486" lon="05.714766"><ele>26</ele><time>2012-03-25T15:53:08Z</time><cmt>8.0 kmh</cmt></trkpt>
<trkpt lat="58.781487" lon="05.714728"><ele>26</ele><time>2012-03-25T15:53:09Z</time><cmt>7.7 kmh</cmt></trkpt>
<trkpt lat="58.781488" lon="05.714689"><ele>26</ele><time>2012-03-25T15:53:10Z</time><cmt>8.0 kmh</cmt></trkpt>
<trkpt lat="58.781488" lon="05.714650"><ele>26</ele><time>2012-03-25T15:53:10Z</time><cmt>7.7 kmh</cmt></trkpt>
<trkpt lat="58.781489" lon="05.714613"><ele>26</ele><time>2012-03-25T15:53:11Z</time><cmt>7.3 kmh</cmt></trkpt>
<trkpt lat="58.781488" lon="05.714577"><ele>26</ele><time>2012-03-25T15:53:13Z</time><cmt>7.1 kmh</cmt></trkpt>
<trkpt lat="58.781488" lon="05.714541"><ele>26</ele><time>2012-03-25T15:53:14Z</time><cmt>7.4 kmh</cmt></trkpt>
<trkpt lat="58.781488" lon="05.714506"><ele>26</ele><time>2012-03-25T15:53:15Z</time><cmt>7.2 kmh</cmt></trkpt>
<trkpt lat="58.781488" lon="05.714471"><ele>26</ele><time>2012-03-25T15:53:16Z</time><cmt>7.3 kmh</cmt></trkpt>
<trkpt lat="58.781488" lon="05.714435"><ele>26</ele><time>2012-03-25T15:53:16Z</time><cmt>7.2 kmh</cmt></trkpt>
<trkpt lat="58.781488" lon="05.714400"><ele>26</ele><time>2012-03-25T15:53:17Z</time><cmt>7.2 kmh</cmt></trkpt>
<trkpt lat="58.781489" lon="05.714365"><ele>26</ele><time>2012-03-25T15:53:19Z</time><cmt>7.0 kmh</cmt></trkpt>
<trkpt lat="58.781489" lon="05.714331"><ele>26</ele><time>2012-03-25T15:53:20Z</time><cmt>7.1 kmh</cmt></trkpt>
<trkpt lat="58.781489" lon="05.714296"><ele>26</ele><time>2012-03-25T15:53:21Z</time><cmt>7.3 kmh</cmt></trkpt>
<trkpt lat="58.781490" lon="05.714261"><ele>26</ele><time>2012-03-25T15:53:22Z</time><cmt>7.2 kmh</cmt></trkpt>
<trkpt lat="58.781491" lon="05.714225"><ele>26</ele><time>2012-03-25T15:53:22Z</time><cmt>7.3 kmh</cmt></trkpt>
<trkpt lat="58.781491" lon="05.714189"><ele>26</ele><time>2012-03-25T15:53:23Z</time><cmt>7.2 kmh</cmt></trkpt>
<trkpt lat="58.781491" lon="05.714153"><ele>26</ele><time>2012-03-25T15:53:25Z</time><cmt>6.9 kmh</cmt></trkpt>
<trkpt lat="58.781492" lon="05.714118"><ele>27</ele><time>2012-03-25T15:53:26Z</time><cmt>6.8 kmh</cmt></trkpt>
<trkpt lat="58.781492" lon="05.714085"><ele>27</ele><time>2012-03-25T15:53:27Z</time><cmt>6.6 kmh</cmt></trkpt>
<trkpt lat="58.781492" lon="05.714051"><ele>27</ele><time>2012-03-25T15:53:28Z</time><cmt>6.4 kmh</cmt></trkpt>
<trkpt lat="58.781493" lon="05.714019"><ele>27</ele><time>2012-03-25T15:53:28Z</time><cmt>6.6 kmh</cmt></trkpt>
<trkpt lat="58.781493" lon="05.713988"><ele>27</ele><time>2012-03-25T15:53:29Z</time><cmt>6.3 kmh</cmt></trkpt>
<trkpt lat="58.781493" lon="05.713955"><ele>27</ele><time>2012-03-25T15:53:30Z</time><cmt>6.5 kmh</cmt></trkpt>
<trkpt lat="58.781494" lon="05.713923"><ele>27</ele><time>2012-03-25T15:53:32Z</time><cmt>6.5 kmh</cmt></trkpt>
<trkpt lat="58.781494" lon="05.713890"><ele>27</ele><time>2012-03-25T15:53:33Z</time><cmt>6.5 kmh</cmt></trkpt>
<trkpt lat="58.781495" lon="05.713859"><ele>27</ele><time>2012-03-25T15:53:34Z</time><cmt>6.1 kmh</cmt></trkpt>
<trkpt lat="58.781497" lon="05.713830"><ele>27</ele><time>2012-03-25T15:53:34Z</time><cmt>6.1 kmh</cmt></trkpt>
<trkpt lat="58.781498" lon="05.713800"><ele>27</ele><time>2012-03-25T15:53:35Z</time><cmt>5.8 kmh</cmt></trkpt>
<trkpt lat="58.781500" lon="05.713772"><ele>27</ele><time>2012-03-25T15:53:36Z</time><cmt>5.5 kmh</cmt></trkpt>
<trkpt lat="58.781502" lon="05.713746"><ele>27</ele><time>2012-03-25T15:53:38Z</time><cmt>5.2 kmh</cmt></trkpt>
<trkpt lat="58.781502" lon="05.713721"><ele>27</ele><time>2012-03-25T15:53:39Z</time><cmt>5.3 kmh</cmt></trkpt>
<trkpt lat="58.781502" lon="05.713694"><ele>27</ele><time>2012-03-25T15:53:40Z</time><cmt>5.3 kmh</cmt></trkpt>
<trkpt lat="58.781502" lon="05.713667"><ele>27</ele><time>2012-03-25T15:53:41Z</time><cmt>5.8 kmh</cmt></trkpt>
<trkpt lat="58.781502" lon="05.713638"><ele>27</ele><time>2012-03-25T15:53:41Z</time><cmt>6.1 kmh</cmt></trkpt>
<trkpt lat="58.781501" lon="05.713610"><ele>27</ele><time>2012-03-25T15:53:42Z</time><cmt>6.1 kmh</cmt></trkpt>
<trkpt lat="58.781499" lon="05.713579"><ele>27</ele><time>2012-03-25T15:53:44Z</time><cmt>6.4 kmh</cmt></trkpt>
<trkpt lat="58.781497" lon="05.713548"><ele>27</ele><time>2012-03-25T15:53:45Z</time><cmt>6.3 kmh</cmt></trkpt>
<trkpt lat="58.781495" lon="05.713517"><ele>27</ele><time>2012-03-25T15:53:46Z</time><cmt>6.8 kmh</cmt></trkpt>
<trkpt lat="58.781493" lon="05.713484"><ele>27</ele><time>2012-03-25T15:53:47Z</time><cmt>6.4 kmh</cmt></trkpt>
<trkpt lat="58.781490" lon="05.713451"><ele>27</ele><time>2012-03-25T15:53:47Z</time><cmt>6.9 kmh</cmt></trkpt>
<trkpt lat="58.781487" lon="05.713416"><ele>27</ele><time>2012-03-25T15:53:48Z</time><cmt>6.9 kmh</cmt></trkpt>
<trkpt lat="58.781484" lon="05.713381"><ele>27</ele><time>2012-03-25T15:53:50Z</time><cmt>7.0 kmh</cmt></trkpt>
<trkpt lat="58.781482" lon="05.713347"><ele>27</ele><time>2012-03-25T15:53:51Z</time><cmt>6.9 kmh</cmt></trkpt>
<trkpt lat="58.781480" lon="05.713312"><ele>27</ele><time>2012-03-25T15:53:52Z</time><cmt>7.0 kmh</cmt></trkpt>
<trkpt lat="58.781478" lon="05.713277"><ele>27</ele><time>2012-03-25T15:53:53Z</time><cmt>7.3 kmh</cmt></trkpt>
<trkpt lat="58.781477" lon="05.713242"><ele>27</ele><time>2012-03-25T15:53:53Z</time><cmt>6.9 kmh</cmt></trkpt>
<trkpt lat="58.781477" lon="05.713208"><ele>27</ele><time>2012-03-25T15:53:54Z</time><cmt>7.2 kmh</cmt></trkpt>
<trkpt lat="58.781477" lon="05.713175"><ele>27</ele><time>2012-03-25T15:53:56Z</time><cmt>6.9 kmh</cmt></trkpt>
<trkpt lat="58.781478" lon="05.713140"><ele>27</ele><time>2012-03-25T15:53:57Z</time><cmt>7.4 kmh</cmt></trkpt>
<trkpt lat="58.781478" lon="05.713104"><ele>27</ele><time>2012-03-25T15:53:58Z</time><cmt>7.2 kmh</cmt></trkpt>
<trkpt lat="58.781479" lon="05.713069"><ele>27</ele><time>2012-03-25T15:53:59Z</time><cmt>7.0 kmh</cmt></trkpt>
<trkpt lat="58.781479" lon="05.713034"><ele>27</ele><time>2012-03-25T15:53:59Z</time><cmt>7.0 kmh</cmt></trkpt>
<trkpt lat="58.781480" lon="05.712998"><ele>27</ele><time>2012-03-25T15:54:00Z</time><cmt>7.5 kmh</cmt></trkpt>
<trkpt lat="58.781482" lon="05.712962"><ele>27</ele><time>2012-03-25T15:54:01Z</time><cmt>7.2 kmh</cmt></trkpt>
<trkpt lat="58.781483" lon="05.712928"><ele>28</ele><time>2012-03-25T15:54:03Z</time><cmt>6.7 kmh</cmt></trkpt>
<trkpt lat="58.781483" lon="05.712895"><ele>28</ele><time>2012-03-25T15:54:04Z</time><cmt>6.9 kmh</cmt></trkpt>
<trkpt lat="58.781483" lon="05.712863"><ele>28</ele><time>2012-03-25T15:54:05Z</time><cmt>6.7 kmh</cmt></trkpt>
<trkpt lat="58.781483" lon="05.712831"><ele>28</ele><time>2012-03-25T15:54:05Z</time><cmt>6.8 kmh</cmt></trkpt>
<trkpt lat="58.781483" lon="05.712798"><ele>28</ele><time>2012-03-25T15:54:06Z</time><cmt>6.8 kmh</cmt></trkpt>
<trkpt lat="58.781483" lon="05.712764"><ele>28</ele><time>2012-03-25T15:54:07Z</time><cmt>6.7 kmh</cmt></trkpt>
<trkpt lat="58.781483" lon="05.712729"><ele>28</ele><time>2012-03-25T15:54:09Z</time><cmt>6.9 kmh</cmt></trkpt>
<trkpt lat="58.781483" lon="05.712696"><ele>28</ele><time>2012-03-25T15:54:10Z</time><cmt>6.7 kmh</cmt></trkpt>
<trkpt lat="58.781484" lon="05.712661"><ele>28</ele><time>2012-03-25T15:54:11Z</time><cmt>7.2 kmh</cmt></trkpt>
<trkpt lat="58.781485" lon="05.712627"><ele>28</ele><time>2012-03-25T15:54:12Z</time><cmt>6.5 kmh</cmt></trkpt>
<trkpt lat="58.781486" lon="05.712594"><ele>28</ele><time>2012-03-25T15:54:12Z</time><cmt>6.9 kmh</cmt></trkpt>
<trkpt lat="58.781487" lon="05.712560"><ele>28</ele><time>2012-03-25T15:54:13Z</time><cmt>6.6 kmh</cmt></trkpt>
<trkpt lat="58.781487" lon="05.712529"><ele>28</ele><time>2012-03-25T15:54:15Z</time><cmt>6.1 kmh</cmt></trkpt>
<trkpt lat="58.781488" lon="05.712500"><ele>28</ele><time>2012-03-25T15:54:16Z</time><cmt>5.7 kmh</cmt></trkpt>
<trkpt lat="58.781489" lon="05.712471"><ele>28</ele><time>2012-03-25T15:54:17Z</time><cmt>5.3 kmh</cmt></trkpt>
<trkpt lat="58.781488" lon="05.712445"><ele>28</ele><time>2012-03-25T15:54:18Z</time><cmt>5.0 kmh</cmt></trkpt>
<trkpt lat="58.781487" lon="05.712419"><ele>28</ele><time>2012-03-25T15:54:18Z</time><cmt>5.1 kmh</cmt></trkpt>
<trkpt lat="58.781487" lon="05.712395"><ele>28</ele><time>2012-03-25T15:54:19Z</time><cmt>5.0 kmh</cmt></trkpt>
<trkpt lat="58.781486" lon="05.712372"><ele>28</ele><time>2012-03-25T15:54:21Z</time><cmt>5.0 kmh</cmt></trkpt>
<trkpt lat="58.781484" lon="05.712351"><ele>28</ele><time>2012-03-25T15:54:22Z</time><cmt>4.0 kmh</cmt></trkpt>
<trkpt lat="58.781482" lon="05.712330"><ele>28</ele><time>2012-03-25T15:54:23Z</time><cmt>4.8 kmh</cmt></trkpt>
<trkpt lat="58.781480" lon="05.712314"><ele>28</ele><time>2012-03-25T15:54:24Z</time><cmt>4.2 kmh</cmt></trkpt>
<trkpt lat="58.781476" lon="05.712300"><ele>28</ele><time>2012-03-25T15:54:24Z</time><cmt>3.6 kmh</cmt></trkpt>
<trkpt lat="58.781473" lon="05.712285"><ele>28</ele><time>2012-03-25T15:54:25Z</time><cmt>3.6 kmh</cmt></trkpt>
<trkpt lat="58.781468" lon="05.712271"><ele>28</ele><time>2012-03-25T15:54:27Z</time><cmt>2.9 kmh</cmt></trkpt>
<trkpt lat="58.781465" lon="05.712259"><ele>28</ele><time>2012-03-25T15:54:28Z</time><cmt>2.7 kmh</cmt></trkpt>
<trkpt lat="58.781460" lon="05.712249"><ele>28</ele><time>2012-03-25T15:54:29Z</time><cmt>3.0 kmh</cmt></trkpt>
<trkpt lat="58.781456" lon="05.712240"><ele>28</ele><time>2012-03-25T15:54:30Z</time><cmt>2.8 kmh</cmt></trkpt>
<trkpt lat="58.781451" lon="05.712232"><ele>28</ele><time>2012-03-25T15:54:30Z</time><cmt>2.8 kmh</cmt></trkpt>
<trkpt lat="58.781446" lon="05.712225"><ele>28</ele><time>2012-03-25T15:54:31Z</time><cmt>2.7 kmh</cmt></trkpt>
<trkpt lat="58.781441" lon="05.712217"><ele>28</ele><time>2012-03-25T15:54:33Z</time><cmt>2.2 kmh</cmt></trkpt>
<trkpt lat="58.781435" lon="05.712211"><ele>28</ele><time>2012-03-25T15:54:34Z</time><cmt>2.3 kmh</cmt></trkpt>
<trkpt lat="58.781429" lon="05.712206"><ele>28</ele><time>2012-03-25T15:54:35Z</time><cmt>2.8 kmh</cmt></trkpt>
<trkpt lat="58.781422" lon="05.712201"><ele>28</ele><time>2012-03-25T15:54:36Z</time><cmt>3.1 kmh</cmt></trkpt>
<trkpt lat="58.781415" lon="05.712199"><ele>27</ele><time>2012-03-25T15:54:36Z</time><cmt>3.1 kmh</cmt></trkpt>
<trkpt lat="58.781410" lon="05.712197"><ele>27</ele><time>2012-03-25T15:54:37Z</time><cmt>2.6 kmh</cmt></trkpt>
<trkpt lat="58.781404" lon="05.712195"><ele>27</ele><time>2012-03-25T15:54:39Z</time><cmt>1.9 kmh</cmt></trkpt>
<trkpt lat="58.781399" lon="05.712194"><ele>27</ele><time>2012-03-25T15:54:40Z</time><cmt>1.8 kmh</cmt></trkpt>
<trkpt lat="58.781394" lon="05.712193"><ele>27</ele><time>2012-03-25T15:54:41Z</time><cmt>2.1 kmh</cmt></trkpt>
<trkpt lat="58.781390" lon="05.712193"><ele>27</ele><time>2012-03-25T15:54:42Z</time><cmt>2.1 kmh</cmt></trkpt>
<trkpt lat="58.781385" lon="05.712193"><ele>27</ele><time>2012-03-25T15:54:43Z</time><cmt>2.0 kmh</cmt></trkpt>
<trkpt lat="58.781380" lon="05.712194"><ele>27</ele><time>2012-03-25T15:54:43Z</time><cmt>2.0 kmh</cmt></trkpt>
<trkpt lat="58.781376" lon="05.712194"><ele>27</ele><time>2012-03-25T15:54:44Z</time><cmt>2.0 kmh</cmt></trkpt>
<trkpt lat="58.781371" lon="05.712195"><ele>27</ele><time>2012-03-25T15:54:46Z</time><cmt>1.6 kmh</cmt></trkpt>
<trkpt lat="58.781366" lon="05.712196"><ele>27</ele><time>2012-03-25T15:54:47Z</time><cmt>1.6 kmh</cmt></trkpt>
<trkpt lat="58.781362" lon="05.712197"><ele>27</ele><time>2012-03-25T15:54:48Z</time><cmt>1.9 kmh</cmt></trkpt>
<trkpt lat="58.781358" lon="05.712198"><ele>27</ele><time>2012-03-25T15:54:49Z</time><cmt>1.8 kmh</cmt></trkpt>
<trkpt lat="58.781354" lon="05.712200"><ele>27</ele><time>2012-03-25T15:54:49Z</time><cmt>1.8 kmh</cmt></trkpt>
<trkpt lat="58.781350" lon="05.712204"><ele>27</ele><time>2012-03-25T15:54:50Z</time><cmt>1.8 kmh</cmt></trkpt>
<trkpt lat="58.781346" lon="05.712207"><ele>27</ele><time>2012-03-25T15:54:52Z</time><cmt>1.6 kmh</cmt></trkpt>
<trkpt lat="58.781342" lon="05.712209"><ele>27</ele><time>2012-03-25T15:54:53Z</time><cmt>1.4 kmh</cmt></trkpt>
<trkpt lat="58.781338" lon="05.712210"><ele>27</ele><time>2012-03-25T15:54:54Z</time><cmt>1.6 kmh</cmt></trkpt>
<trkpt lat="58.781335" lon="05.712213"><ele>27</ele><time>2012-03-25T15:54:55Z</time><cmt>1.6 kmh</cmt></trkpt>
<trkpt lat="58.781332" lon="05.712215"><ele>27</ele><time>2012-03-25T15:54:55Z</time><cmt>1.4 kmh</cmt></trkpt>
<trkpt lat="58.781329" lon="05.712217"><ele>27</ele><time>2012-03-25T15:54:56Z</time><cmt>1.3 kmh</cmt></trkpt>
<trkpt lat="58.781326" lon="05.712219"><ele>27</ele><time>2012-03-25T15:54:58Z</time><cmt>1.1 kmh</cmt></trkpt>
<trkpt lat="58.781324" lon="05.712221"><ele>27</ele><time>2012-03-25T15:54:59Z</time><cmt>0.9 kmh</cmt></trkpt>
<trkpt lat="58.781322" lon="05.712223"><ele>27</ele><time>2012-03-25T15:55:00Z</time><cmt>1.0 kmh</cmt></trkpt>
<trkpt lat="58.781319" lon="05.712225"><ele>27</ele><time>2012-03-25T15:55:01Z</time><cmt>1.0 kmh</cmt></trkpt>
<trkpt lat="58.781317" lon="05.712227"><ele>27</ele><time>2012-03-25T15:55:01Z</time><cmt>1.0 kmh</cmt></trkpt>
<trkpt lat="58.781315" lon="05.712229"><ele>27</ele><time>2012-03-25T15:55:02Z</time><cmt>1.0 kmh</cmt></trkpt>
<trkpt lat="58.781313" lon="05.712232"><ele>27</ele><time>2012-03-25T15:55:04Z</time><cmt>0.8 kmh</cmt></trkpt>
<trkpt lat="58.781311" lon="05.712234"><ele>27</ele><time>2012-03-25T15:55:05Z</time><cmt>0.8 kmh</cmt></trkpt>
<trkpt lat="58.781309" lon="05.712237"><ele>27</ele><time>2012-03-25T15:55:06Z</time><cmt>1.1 kmh</cmt></trkpt>
<trkpt lat="58.781306" lon="05.712240"><ele>27</ele><time>2012-03-25T15:55:07Z</time><cmt>1.2 kmh</cmt></trkpt>
<trkpt lat="58.781304" lon="05.712243"><ele>27</ele><time>2012-03-25T15:55:07Z</time><cmt>1.2 kmh</cmt></trkpt>
<trkpt lat="58.781302" lon="05.712246"><ele>27</ele><time>2012-03-25T15:55:08Z</time><cmt>1.2 kmh</cmt></trkpt>
<trkpt lat="58.781300" lon="05.712249"><ele>27</ele><time>2012-03-25T15:55:09Z</time><cmt>1.2 kmh</cmt></trkpt>
<trkpt lat="58.781298" lon="05.712252"><ele>27</ele><time>2012-03-25T15:55:11Z</time><cmt>0.9 kmh</cmt></trkpt>
<trkpt lat="58.781296" lon="05.712255"><ele>27</ele><time>2012-03-25T15:55:12Z</time><cmt>0.9 kmh</cmt></trkpt>
<trkpt lat="58.781294" lon="05.712258"><ele>27</ele><time>2012-03-25T15:55:13Z</time><cmt>1.0 kmh</cmt></trkpt>
<trkpt lat="58.781292" lon="05.712260"><ele>27</ele><time>2012-03-25T15:55:14Z</time><cmt>0.9 kmh</cmt></trkpt>
<trkpt lat="58.781290" lon="05.712262"><ele>27</ele><time>2012-03-25T15:55:14Z</time><cmt>1.0 kmh</cmt></trkpt>
<trkpt lat="58.781288" lon="05.712265"><ele>27</ele><time>2012-03-25T15:55:15Z</time><cmt>1.1 kmh</cmt></trkpt>
<trkpt lat="58.781286" lon="05.712269"><ele>27</ele><time>2012-03-25T15:55:17Z</time><cmt>0.9 kmh</cmt></trkpt>
<trkpt lat="58.781284" lon="05.712273"><ele>27</ele><time>2012-03-25T15:55:18Z</time><cmt>1.0 kmh</cmt></trkpt>
<trkpt lat="58.781282" lon="05.712276"><ele>27</ele><time>2012-03-25T15:55:19Z</time><cmt>1.1 kmh</cmt></trkpt>
<trkpt lat="58.781281" lon="05.712280"><ele>26</ele><time>2012-03-25T15:55:20Z</time><cmt>1.0 kmh</cmt></trkpt>
<trkpt lat="58.781279" lon="05.712284"><ele>26</ele><time>2012-03-25T15:55:20Z</time><cmt>1.1 kmh</cmt></trkpt>
<trkpt lat="58.781277" lon="05.712288"><ele>26</ele><time>2012-03-25T15:55:21Z</time><cmt>1.2 kmh</cmt></trkpt>
<trkpt lat="58.781276" lon="05.712292"><ele>26</ele><time>2012-03-25T15:55:23Z</time><cmt>0.9 kmh</cmt></trkpt>
<trkpt lat="58.781274" lon="05.712295"><ele>26</ele><time>2012-03-25T15:55:24Z</time><cmt>0.9 kmh</cmt></trkpt>
<trkpt lat="58.781272" lon="05.712298"><ele>26</ele><time>2012-03-25T15:55:25Z</time><cmt>1.1 kmh</cmt></trkpt>
<trkpt lat="58.781271" lon="05.712302"><ele>26</ele><time>2012-03-25T15:55:26Z</time><cmt>1.0 kmh</cmt></trkpt>
<trkpt lat="58.781269" lon="05.712306"><ele>26</ele><time>2012-03-25T15:55:26Z</time><cmt>1.1 kmh</cmt></trkpt>
<trkpt lat="58.781268" lon="05.712310"><ele>26</ele><time>2012-03-25T15:55:27Z</time><cmt>1.1 kmh</cmt></trkpt>
<trkpt lat="58.781266" lon="05.712313"><ele>26</ele><time>2012-03-25T15:55:29Z</time><cmt>0.8 kmh</cmt></trkpt>
<trkpt lat="58.781265" lon="05.712316"><ele>26</ele><time>2012-03-25T15:55:30Z</time><cmt>0.7 kmh</cmt></trkpt>
<trkpt lat="58.781263" lon="05.712320"><ele>26</ele><time>2012-03-25T15:55:31Z</time><cmt>0.9 kmh</cmt></trkpt>
<trkpt lat="58.781262" lon="05.712323"><ele>26</ele><time>2012-03-25T15:55:32Z</time><cmt>0.9 kmh</cmt></trkpt>
<trkpt lat="58.781260" lon="05.712326"><ele>26</ele><time>2012-03-25T15:55:32Z</time><cmt>1.0 kmh</cmt></trkpt>
<trkpt lat="58.781259" lon="05.712330"><ele>26</ele><time>2012-03-25T15:55:33Z</time><cmt>0.9 kmh</cmt></trkpt>
<trkpt lat="58.781258" lon="05.712333"><ele>26</ele><time>2012-03-25T15:55:35Z</time><cmt>0.7 kmh</cmt></trkpt>
<trkpt lat="58.781256" lon="05.712336"><ele>26</ele><time>2012-03-25T15:55:36Z</time><cmt>0.8 kmh</cmt></trkpt>
<trkpt lat="58.781255" lon="05.712340"><ele>26</ele><time>2012-03-25T15:55:37Z</time><cmt>0.9 kmh</cmt></trkpt>
<trkpt lat="58.781254" lon="05.712343"><ele>26</ele><time>2012-03-25T15:55:38Z</time><cmt>0.9 kmh</cmt></trkpt>
<trkpt lat="58.781253" lon="05.712346"><ele>26</ele><time>2012-03-25T15:55:38Z</time><cmt>0.8 kmh</cmt></trkpt>
<trkpt lat="58.781252" lon="05.712349"><ele>26</ele><time>2012-03-25T15:55:39Z</time><cmt>0.7 kmh</cmt></trkpt>
<trkpt lat="58.781251" lon="05.712352"><ele>26</ele><time>2012-03-25T15:55:41Z</time><cmt>0.6 kmh</cmt></trkpt>
<trkpt lat="58.781249" lon="05.712355"><ele>26</ele><time>2012-03-25T15:55:42Z</time><cmt>0.7 kmh</cmt></trkpt>
<trkpt lat="58.781248" lon="05.712357"><ele>26</ele><time>2012-03-25T15:55:43Z</time><cmt>1.0 kmh</cmt></trkpt>
<trkpt lat="58.781247" lon="05.712360"><ele>26</ele><time>2012-03-25T15:55:44Z</time><cmt>0.9 kmh</cmt></trkpt>
<trkpt lat="58.781246" lon="05.712362"><ele>26</ele><time>2012-03-25T15:55:44Z</time><cmt>0.8 kmh</cmt></trkpt>
<trkpt lat="58.781245" lon="05.712365"><ele>26</ele><time>2012-03-25T15:55:45Z</time><cmt>0.7 kmh</cmt></trkpt>
<trkpt lat="58.781243" lon="05.712368"><ele>26</ele><time>2012-03-25T15:55:46Z</time><cmt>0.7 kmh</cmt></trkpt>
<trkpt lat="58.781242" lon="05.712371"><ele>26</ele><time>2012-03-25T15:55:48Z</time><cmt>0.6 kmh</cmt></trkpt>
<trkpt lat="58.781241" lon="05.712374"><ele>26</ele><time>2012-03-25T15:55:49Z</time><cmt>0.6 kmh</cmt></trkpt>
<trkpt lat="58.781240" lon="05.712377"><ele>26</ele><time>2012-03-25T15:55:50Z</time><cmt>0.8 kmh</cmt></trkpt>
<trkpt lat="58.781239" lon="05.712380"><ele>26</ele><time>2012-03-25T15:55:51Z</time><cmt>0.9 kmh</cmt></trkpt>
<trkpt lat="58.781238" lon="05.712383"><ele>26</ele><time>2012-03-25T15:55:51Z</time><cmt>0.9 kmh</cmt></trkpt>
<trkpt lat="58.781236" lon="05.712385"><ele>26</ele><time>2012-03-25T15:55:52Z</time><cmt>0.9 kmh</cmt></trkpt>
<trkpt lat="58.781235" lon="05.712388"><ele>26</ele><time>2012-03-25T15:55:54Z</time><cmt>0.7 kmh</cmt></trkpt>
<trkpt lat="58.781234" lon="05.712391"><ele>26</ele><time>2012-03-25T15:55:55Z</time><cmt>0.7 kmh</cmt></trkpt>
<trkpt lat="58.781232" lon="05.712394"><ele>26</ele><time>2012-03-25T15:55:56Z</time><cmt>0.8 kmh</cmt></trkpt>
<trkpt lat="58.781231" lon="05.712396"><ele>26</ele><time>2012-03-25T15:55:57Z</time><cmt>0.9 kmh</cmt></trkpt>
<trkpt lat="58.781229" lon="05.712399"><ele>26</ele><time>2012-03-25T15:55:57Z</time><cmt>0.9 kmh</cmt></trkpt>
<trkpt lat="58.781228" lon="05.712401"><ele>26</ele><time>2012-03-25T15:55:58Z</time><cmt>0.8 kmh</cmt></trkpt>
<trkpt lat="58.781226" lon="05.712404"><ele>26</ele><time>2012-03-25T15:56:00Z</time><cmt>0.6 kmh</cmt></trkpt>
<trkpt lat="58.781225" lon="05.712406"><ele>26</ele><time>2012-03-25T15:56:01Z</time><cmt>0.6 kmh</cmt></trkpt>
<trkpt lat="58.781223" lon="05.712408"><ele>26</ele><time>2012-03-25T15:56:02Z</time><cmt>0.8 kmh</cmt></trkpt>
<trkpt lat="58.781221" lon="05.712410"><ele>26</ele><time>2012-03-25T15:56:03Z</time><cmt>0.9 kmh</cmt></trkpt>
<trkpt lat="58.781219" lon="05.712413"><ele>26</ele><time>2012-03-25T15:56:03Z</time><cmt>0.9 kmh</cmt></trkpt>
<trkpt lat="58.781217" lon="05.712415"><ele>26</ele><time>2012-03-25T15:56:04Z</time><cmt>1.0 kmh</cmt></trkpt>
<trkpt lat="58.781216" lon="05.712417"><ele>26</ele><time>2012-03-25T15:56:06Z</time><cmt>0.8 kmh</cmt></trkpt>
<trkpt lat="58.781214" lon="05.712419"><ele>26</ele><time>2012-03-25T15:56:07Z</time><cmt>0.7 kmh</cmt></trkpt>
<trkpt lat="58.781212" lon="05.712421"><ele>26</ele><time>2012-03-25T15:56:08Z</time><cmt>0.9 kmh</cmt></trkpt>
<trkpt lat="58.781210" lon="05.712423"><ele>26</ele><time>2012-03-25T15:56:09Z</time><cmt>0.9 kmh</cmt></trkpt>
<trkpt lat="58.781208" lon="05.712424"><ele>26</ele><time>2012-03-25T15:56:09Z</time><cmt>0.8 kmh</cmt></trkpt>
<trkpt lat="58.781206" lon="05.712426"><ele>26</ele><time>2012-03-25T15:56:10Z</time><cmt>0.8 kmh</cmt></trkpt>
<trkpt lat="58.781204" lon="05.712428"><ele>26</ele><time>2012-03-25T15:56:12Z</time><cmt>0.8 kmh</cmt></trkpt>
<trkpt lat="58.781202" lon="05.712430"><ele>26</ele><time>2012-03-25T15:56:13Z</time><cmt>0.8 kmh</cmt></trkpt>
<trkpt lat="58.781201" lon="05.712431"><ele>26</ele><time>2012-03-25T15:56:14Z</time><cmt>0.9 kmh</cmt></trkpt>
<trkpt lat="58.781199" lon="05.712432"><ele>26</ele><time>2012-03-25T15:56:15Z</time><cmt>0.8 kmh</cmt></trkpt>
<trkpt lat="58.781197" lon="05.712434"><ele>26</ele><time>2012-03-25T15:56:15Z</time><cmt>0.7 kmh</cmt></trkpt>
<trkpt lat="58.781196" lon="05.712435"><ele>26</ele><time>2012-03-25T15:56:16Z</time><cmt>0.7 kmh</cmt></trkpt>
<trkpt lat="58.781194" lon="05.712436"><ele>26</ele><time>2012-03-25T15:56:17Z</time><cmt>0.7 kmh</cmt></trkpt>
<trkpt lat="58.781192" lon="05.712438"><ele>26</ele><time>2012-03-25T15:56:19Z</time><cmt>0.6 kmh</cmt></trkpt>
<trkpt lat="58.781191" lon="05.712439"><ele>26</ele><time>2012-03-25T15:56:20Z</time><cmt>0.6 kmh</cmt></trkpt>
<trkpt lat="58.781189" lon="05.712440"><ele>26</ele><time>2012-03-25T15:56:21Z</time><cmt>0.7 kmh</cmt></trkpt>
<trkpt lat="58.781188" lon="05.712441"><ele>26</ele><time>2012-03-25T15:56:22Z</time><cmt>0.7 kmh</cmt></trkpt>
<trkpt lat="58.781186" lon="05.712442"><ele>26</ele><time>2012-03-25T15:56:22Z</time><cmt>0.7 kmh</cmt></trkpt>
<trkpt lat="58.781185" lon="05.712443"><ele>26</ele><time>2012-03-25T15:56:23Z</time><cmt>0.7 kmh</cmt></trkpt>
<trkpt lat="58.781183" lon="05.712444"><ele>26</ele><time>2012-03-25T15:56:25Z</time><cmt>0.6 kmh</cmt></trkpt>
<trkpt lat="58.781182" lon="05.712445"><ele>26</ele><time>2012-03-25T15:56:26Z</time><cmt>0.6 kmh</cmt></trkpt>
<trkpt lat="58.781180" lon="05.712446"><ele>26</ele><time>2012-03-25T15:56:27Z</time><cmt>0.7 kmh</cmt></trkpt>
<trkpt lat="58.781179" lon="05.712447"><ele>26</ele><time>2012-03-25T15:56:28Z</time><cmt>0.6 kmh</cmt></trkpt>
<trkpt lat="58.781177" lon="05.712448"><ele>26</ele><time>2012-03-25T15:56:28Z</time><cmt>0.6 kmh</cmt></trkpt>
<trkpt lat="58.781176" lon="05.712449"><ele>26</ele><time>2012-03-25T15:56:29Z</time><cmt>0.7 kmh</cmt></trkpt>
<trkpt lat="58.781174" lon="05.712451"><ele>26</ele><time>2012-03-25T15:56:31Z</time><cmt>0.5 kmh</cmt></trkpt>
<trkpt lat="58.781173" lon="05.712452"><ele>26</ele><time>2012-03-25T15:56:32Z</time><cmt>0.6 kmh</cmt></trkpt>
<trkpt lat="58.781172" lon="05.712453"><ele>26</ele><time>2012-03-25T15:56:33Z</time><cmt>0.6 kmh</cmt></trkpt>
<trkpt lat="58.781170" lon="05.712454"><ele>26</ele><time>2012-03-25T15:56:34Z</time><cmt>0.6 kmh</cmt></trkpt>
<trkpt lat="58.781169" lon="05.712455"><ele>26</ele><time>2012-03-25T15:56:34Z</time><cmt>0.7 kmh</cmt></trkpt>
<trkpt lat="58.781167" lon="05.712457"><ele>26</ele><time>2012-03-25T15:56:35Z</time><cmt>0.7 kmh</cmt></trkpt>
<trkpt lat="58.781166" lon="05.712458"><ele>26</ele><time>2012-03-25T15:56:37Z</time><cmt>0.5 kmh</cmt></trkpt>
<trkpt lat="58.781165" lon="05.712459"><ele>26</ele><time>2012-03-25T15:56:38Z</time><cmt>0.4 kmh</cmt></trkpt>
<trkpt lat="58.781163" lon="05.712461"><ele>26</ele><time>2012-03-25T15:56:39Z</time><cmt>0.6 kmh</cmt></trkpt>
<trkpt lat="58.781162" lon="05.712462"><ele>26</ele><time>2012-03-25T15:56:40Z</time><cmt>0.6 kmh</cmt></trkpt>
<trkpt lat="58.781161" lon="05.712464"><ele>26</ele><time>2012-03-25T15:56:40Z</time><cmt>0.5 kmh</cmt></trkpt>
<trkpt lat="58.781160" lon="05.712465"><ele>26</ele><time>2012-03-25T15:56:41Z</time><cmt>0.5 kmh</cmt></trkpt>
<trkpt lat="58.781159" lon="05.712466"><ele>26</ele><time>2012-03-25T15:56:43Z</time><cmt>0.2 kmh</cmt></trkpt>
<trkpt lat="58.781158" lon="05.712468"><ele>26</ele><time>2012-03-25T15:56:44Z</time><cmt>0.1 kmh</cmt></trkpt>
<trkpt lat="58.781157" lon="05.712469"><ele>26</ele><time>2012-03-25T15:56:45Z</time><cmt>0.4 kmh</cmt></trkpt>
<trkpt lat="58.781156" lon="05.712471"><ele>26</ele><time>2012-03-25T15:56:46Z</time><cmt>0.5 kmh</cmt></trkpt>
<trkpt lat="58.781155" lon="05.712472"><ele>26</ele><time>2012-03-25T15:56:46Z</time><cmt>0.5 kmh</cmt></trkpt>
<trkpt lat="58.781154" lon="05.712473"><ele>26</ele><time>2012-03-25T15:56:47Z</time><cmt>0.4 kmh</cmt></trkpt>
<trkpt lat="58.781153" lon="05.712474"><ele>26</ele><time>2012-03-25T15:56:49Z</time><cmt>0.1 kmh</cmt></trkpt>
<trkpt lat="58.781153" lon="05.712475"><ele>26</ele><time>2012-03-25T15:56:50Z</time><cmt>0.0 kmh</cmt></trkpt>
<trkpt lat="58.781152" lon="05.712476"><ele>26</ele><time>2012-03-25T15:56:51Z</time><cmt>0.0 kmh</cmt></trkpt>
<trkpt lat="58.781151" lon="05.712477"><ele>26</ele><time>2012-03-25T15:56:52Z</time><cmt>0.0 kmh</cmt></trkpt>
<trkpt lat="58.781151" lon="05.712479"><ele>26</ele><time>2012-03-25T15:56:53Z</time><cmt>0.0 kmh</cmt></trkpt>
<trkpt lat="58.781150" lon="05.712480"><ele>26</ele><time>2012-03-25T15:56:53Z</time><cmt>0.0 kmh</cmt></trkpt>
<trkpt lat="58.781149" lon="05.712482"><ele>26</ele><time>2012-03-25T15:56:54Z</time><cmt>0.3 kmh</cmt></trkpt>
<trkpt lat="58.781148" lon="05.712482"><ele>26</ele><time>2012-03-25T15:56:56Z</time><cmt>0.4 kmh</cmt></trkpt>
<trkpt lat="58.781147" lon="05.712483"><ele>26</ele><time>2012-03-25T15:56:57Z</time><cmt>0.4 kmh</cmt></trkpt>
<trkpt lat="58.781146" lon="05.712484"><ele>26</ele><time>2012-03-25T15:56:58Z</time><cmt>0.5 kmh</cmt></trkpt>
<trkpt lat="58.781145" lon="05.712485"><ele>26</ele><time>2012-03-25T15:56:59Z</time><cmt>0.5 kmh</cmt></trkpt>
<trkpt lat="58.781144" lon="05.712486"><ele>26</ele><time>2012-03-25T15:56:59Z</time><cmt>0.5 kmh</cmt></trkpt>
<trkpt lat="58.781143" lon="05.712487"><ele>26</ele><time>2012-03-25T15:57:00Z</time><cmt>0.5 kmh</cmt></trkpt>
<trkpt lat="58.781142" lon="05.712488"><ele>26</ele><time>2012-03-25T15:57:02Z</time><cmt>0.4 kmh</cmt></trkpt>
<trkpt lat="58.781141" lon="05.712489"><ele>26</ele><time>2012-03-25T15:57:03Z</time><cmt>0.4 kmh</cmt></trkpt>
<trkpt lat="58.781140" lon="05.712490"><ele>26</ele><time>2012-03-25T15:57:04Z</time><cmt>0.5 kmh</cmt></trkpt>
<trkpt lat="58.781139" lon="05.712491"><ele>26</ele><time>2012-03-25T15:57:05Z</time><cmt>0.5 kmh</cmt></trkpt>
<trkpt lat="58.781138" lon="05.712492"><ele>26</ele><time>2012-03-25T15:57:05Z</time><cmt>0.5 kmh</cmt></trkpt>
<trkpt lat="58.781137" lon="05.712494"><ele>26</ele><time>2012-03-25T15:57:06Z</time><cmt>0.3 kmh</cmt></trkpt>
<trkpt lat="58.781136" lon="05.712495"><ele>26</ele><time>2012-03-25T15:57:08Z</time><cmt>0.2 kmh</cmt></trkpt>
<trkpt lat="58.781135" lon="05.712496"><ele>26</ele><time>2012-03-25T15:57:09Z</time><cmt>0.4 kmh</cmt></trkpt>
<trkpt lat="58.781134" lon="05.712498"><ele>26</ele><time>2012-03-25T15:57:10Z</time><cmt>0.5 kmh</cmt></trkpt>
<trkpt lat="58.781132" lon="05.712499"><ele>26</ele><time>2012-03-25T15:57:11Z</time><cmt>0.6 kmh</cmt></trkpt>
<trkpt lat="58.781131" lon="05.712501"><ele>26</ele><time>2012-03-25T15:57:11Z</time><cmt>0.6 kmh</cmt></trkpt>
<trkpt lat="58.781130" lon="05.712503"><ele>26</ele><time>2012-03-25T15:57:12Z</time><cmt>0.5 kmh</cmt></trkpt>
<trkpt lat="58.781129" lon="05.712504"><ele>26</ele><time>2012-03-25T15:57:14Z</time><cmt>0.4 kmh</cmt></trkpt>
<trkpt lat="58.781128" lon="05.712506"><ele>26</ele><time>2012-03-25T15:57:15Z</time><cmt>0.4 kmh</cmt></trkpt>
<trkpt lat="58.781126" lon="05.712507"><ele>26</ele><time>2012-03-25T15:57:16Z</time><cmt>0.5 kmh</cmt></trkpt>
<trkpt lat="58.781125" lon="05.712508"><ele>26</ele><time>2012-03-25T15:57:17Z</time><cmt>0.5 kmh</cmt></trkpt>
<trkpt lat="58.781124" lon="05.712510"><ele>26</ele><time>2012-03-25T15:57:17Z</time><cmt>0.5 kmh</cmt></trkpt>
<trkpt lat="58.781123" lon="05.712511"><ele>26</ele><time>2012-03-25T15:57:18Z</time><cmt>0.5 kmh</cmt></trkpt>
<trkpt lat="58.781122" lon="05.712512"><ele>26</ele><time>2012-03-25T15:57:20Z</time><cmt>0.4 kmh</cmt></trkpt>
<trkpt lat="58.781121" lon="05.712513"><ele>26</ele><time>2012-03-25T15:57:21Z</time><cmt>0.5 kmh</cmt></trkpt>
<trkpt lat="58.781120" lon="05.712514"><ele>26</ele><time>2012-03-25T15:57:22Z</time><cmt>0.6 kmh</cmt></trkpt>
<trkpt lat="58.781119" lon="05.712516"><ele>26</ele><time>2012-03-25T15:57:23Z</time><cmt>0.3 kmh</cmt></trkpt>
<trkpt lat="58.781118" lon="05.712517"><ele>26</ele><time>2012-03-25T15:57:24Z</time><cmt>0.2 kmh</cmt></trkpt>
<trkpt lat="58.781117" lon="05.712518"><ele>26</ele><time>2012-03-25T15:57:24Z</time><cmt>0.4 kmh</cmt></trkpt>
<trkpt lat="58.781116" lon="05.712519"><ele>26</ele><time>2012-03-25T15:57:25Z</time><cmt>0.5 kmh</cmt></trkpt>
<trkpt lat="58.781115" lon="05.712521"><ele>26</ele><time>2012-03-25T15:57:27Z</time><cmt>0.4 kmh</cmt></trkpt>
<trkpt lat="58.781114" lon="05.712522"><ele>26</ele><time>2012-03-25T15:57:28Z</time><cmt>0.4 kmh</cmt></trkpt>
<trkpt lat="58.781113" lon="05.712523"><ele>26</ele><time>2012-03-25T15:57:29Z</time><cmt>0.6 kmh</cmt></trkpt>
<trkpt lat="58.781111" lon="05.712524"><ele>26</ele><time>2012-03-25T15:57:30Z</time><cmt>0.6 kmh</cmt></trkpt>
<trkpt lat="58.781110" lon="05.712526"><ele>26</ele><time>2012-03-25T15:57:30Z</time><cmt>0.7 kmh</cmt></trkpt>
<trkpt lat="58.781108" lon="05.712527"><ele>26</ele><time>2012-03-25T15:57:31Z</time><cmt>0.7 kmh</cmt></trkpt>
<trkpt lat="58.781106" lon="05.712528"><ele>26</ele><time>2012-03-25T15:57:33Z</time><cmt>0.7 kmh</cmt></trkpt>
<trkpt lat="58.781104" lon="05.712529"><ele>26</ele><time>2012-03-25T15:57:34Z</time><cmt>0.8 kmh</cmt></trkpt>
<trkpt lat="58.781102" lon="05.712530"><ele>26</ele><time>2012-03-25T15:57:35Z</time><cmt>0.9 kmh</cmt></trkpt>
<trkpt lat="58.781100" lon="05.712531"><ele>26</ele><time>2012-03-25T15:57:36Z</time><cmt>0.9 kmh</cmt></trkpt>
<trkpt lat="58.781098" lon="05.712531"><ele>26</ele><time>2012-03-25T15:57:36Z</time><cmt>1.0 kmh</cmt></trkpt>
<trkpt lat="58.781095" lon="05.712532"><ele>26</ele><time>2012-03-25T15:57:37Z</time><cmt>1.0 kmh</cmt></trkpt>
<trkpt lat="58.781093" lon="05.712533"><ele>26</ele><time>2012-03-25T15:57:39Z</time><cmt>0.9 kmh</cmt></trkpt>
<trkpt lat="58.781090" lon="05.712534"><ele>26</ele><time>2012-03-25T15:57:40Z</time><cmt>0.9 kmh</cmt></trkpt>
<trkpt lat="58.781088" lon="05.712535"><ele>26</ele><time>2012-03-25T15:57:41Z</time><cmt>1.1 kmh</cmt></trkpt>
<trkpt lat="58.781085" lon="05.712536"><ele>26</ele><time>2012-03-25T15:57:42Z</time><cmt>1.1 kmh</cmt></trkpt>
<trkpt lat="58.781083" lon="05.712537"><ele>26</ele><time>2012-03-25T15:57:42Z</time><cmt>1.1 kmh</cmt></trkpt>
<trkpt lat="58.781080" lon="05.712537"><ele>26</ele><time>2012-03-25T15:57:43Z</time><cmt>1.1 kmh</cmt></trkpt>
<trkpt lat="58.781078" lon="05.712538"><ele>26</ele><time>2012-03-25T15:57:45Z</time><cmt>0.9 kmh</cmt></trkpt>
<trkpt lat="58.781075" lon="05.712538"><ele>26</ele><time>2012-03-25T15:57:46Z</time><cmt>0.9 kmh</cmt></trkpt>
<trkpt lat="58.781073" lon="05.712539"><ele>26</ele><time>2012-03-25T15:57:47Z</time><cmt>1.0 kmh</cmt></trkpt>
<trkpt lat="58.781071" lon="05.712539"><ele>26</ele><time>2012-03-25T15:57:48Z</time><cmt>1.0 kmh</cmt></trkpt>
<trkpt lat="58.781068" lon="05.712540"><ele>26</ele><time>2012-03-25T15:57:48Z</time><cmt>1.1 kmh</cmt></trkpt>
<trkpt lat="58.781066" lon="05.712540"><ele>26</ele><time>2012-03-25T15:57:49Z</time><cmt>1.0 kmh</cmt></trkpt>
<trkpt lat="58.781064" lon="05.712540"><ele>26</ele><time>2012-03-25T15:57:51Z</time><cmt>0.7 kmh</cmt></trkpt>
<trkpt lat="58.781062" lon="05.712541"><ele>26</ele><time>2012-03-25T15:57:52Z</time><cmt>0.7 kmh</cmt></trkpt>
<trkpt lat="58.781059" lon="05.712541"><ele>26</ele><time>2012-03-25T15:57:53Z</time><cmt>0.9 kmh</cmt></trkpt>
<trkpt lat="58.781057" lon="05.712542"><ele>26</ele><time>2012-03-25T15:57:54Z</time><cmt>0.8 kmh</cmt></trkpt>
<trkpt lat="58.781055" lon="05.712542"><ele>26</ele><time>2012-03-25T15:57:55Z</time><cmt>0.7 kmh</cmt></trkpt>
<trkpt lat="58.781053" lon="05.712542"><ele>26</ele><time>2012-03-25T15:57:55Z</time><cmt>0.8 kmh</cmt></trkpt>
<trkpt lat="58.781051" lon="05.712542"><ele>26</ele><time>2012-03-25T15:57:56Z</time><cmt>0.9 kmh</cmt></trkpt>
<trkpt lat="58.781049" lon="05.712542"><ele>26</ele><time>2012-03-25T15:57:58Z</time><cmt>0.7 kmh</cmt></trkpt>
<trkpt lat="58.781047" lon="05.712543"><ele>26</ele><time>2012-03-25T15:57:59Z</time><cmt>0.8 kmh</cmt></trkpt>
<trkpt lat="58.781045" lon="05.712544"><ele>26</ele><time>2012-03-25T15:58:00Z</time><cmt>1.0 kmh</cmt></trkpt>
<trkpt lat="58.781042" lon="05.712544"><ele>26</ele><time>2012-03-25T15:58:01Z</time><cmt>1.0 kmh</cmt></trkpt>
<trkpt lat="58.781040" lon="05.712545"><ele>26</ele><time>2012-03-25T15:58:01Z</time><cmt>1.0 kmh</cmt></trkpt>
<trkpt lat="58.781038" lon="05.712545"><ele>26</ele><time>2012-03-25T15:58:02Z</time><cmt>0.9 kmh</cmt></trkpt>
<trkpt lat="58.781036" lon="05.712545"><ele>26</ele><time>2012-03-25T15:58:04Z</time><cmt>0.8 kmh</cmt></trkpt>
<trkpt lat="58.781033" lon="05.712545"><ele>26</ele><time>2012-03-25T15:58:05Z</time><cmt>0.8 kmh</cmt></trkpt>
<trkpt lat="58.781031" lon="05.712546"><ele>26</ele><time>2012-03-25T15:58:06Z</time><cmt>1.0 kmh</cmt></trkpt>
<trkpt lat="58.781028" lon="05.712546"><ele>26</ele><time>2012-03-25T15:58:07Z</time><cmt>1.0 kmh</cmt></trkpt>
<trkpt lat="58.781026" lon="05.712546"><ele>26</ele><time>2012-03-25T15:58:07Z</time><cmt>1.0 kmh</cmt></trkpt>
<trkpt lat="58.781023" lon="05.712546"><ele>26</ele><time>2012-03-25T15:58:08Z</time><cmt>1.0 kmh</cmt></trkpt>
<trkpt lat="58.781021" lon="05.712547"><ele>26</ele><time>2012-03-25T15:58:10Z</time><cmt>0.9 kmh</cmt></trkpt>
<trkpt lat="58.781018" lon="05.712547"><ele>26</ele><time>2012-03-25T15:58:11Z</time><cmt>0.9 kmh</cmt></trkpt>
<trkpt lat="58.781015" lon="05.712547"><ele>26</ele><time>2012-03-25T15:58:12Z</time><cmt>1.1 kmh</cmt></trkpt>
<trkpt lat="58.781013" lon="05.712548"><ele>26</ele><time>2012-03-25T15:58:13Z</time><cmt>1.1 kmh</cmt></trkpt>
<trkpt lat="58.781010" lon="05.712548"><ele>26</ele><time>2012-03-25T15:58:13Z</time><cmt>1.0 kmh</cmt></trkpt>
<trkpt lat="58.781008" lon="05.712549"><ele>26</ele><time>2012-03-25T15:58:14Z</time><cmt>1.0 kmh</cmt></trkpt>
<trkpt lat="58.781005" lon="05.712549"><ele>26</ele><time>2012-03-25T15:58:16Z</time><cmt>0.8 kmh</cmt></trkpt>
<trkpt lat="58.781003" lon="05.712550"><ele>26</ele><time>2012-03-25T15:58:17Z</time><cmt>0.8 kmh</cmt></trkpt>
<trkpt lat="58.781001" lon="05.712551"><ele>26</ele><time>2012-03-25T15:58:18Z</time><cmt>1.0 kmh</cmt></trkpt>
<trkpt lat="58.780999" lon="05.712552"><ele>26</ele><time>2012-03-25T15:58:19Z</time><cmt>0.9 kmh</cmt></trkpt>
<trkpt lat="58.780997" lon="05.712553"><ele>26</ele><time>2012-03-25T15:58:19Z</time><cmt>0.9 kmh</cmt></trkpt>
<trkpt lat="58.780995" lon="05.712554"><ele>26</ele><time>2012-03-25T15:58:20Z</time><cmt>1.0 kmh</cmt></trkpt>
<trkpt lat="58.780993" lon="05.712555"><ele>26</ele><time>2012-03-25T15:58:22Z</time><cmt>0.8 kmh</cmt></trkpt>
<trkpt lat="58.780990" lon="05.712556"><ele>26</ele><time>2012-03-25T15:58:23Z</time><cmt>0.7 kmh</cmt></trkpt>
<trkpt lat="58.780988" lon="05.712557"><ele>26</ele><time>2012-03-25T15:58:24Z</time><cmt>0.9 kmh</cmt></trkpt>
<trkpt lat="58.780987" lon="05.712559"><ele>26</ele><time>2012-03-25T15:58:25Z</time><cmt>0.9 kmh</cmt></trkpt>
<trkpt lat="58.780985" lon="05.712560"><ele>26</ele><time>2012-03-25T15:58:26Z</time><cmt>0.9 kmh</cmt></trkpt>
<trkpt lat="58.780983" lon="05.712561"><ele>26</ele><time>2012-03-25T15:58:26Z</time><cmt>0.9 kmh</cmt></trkpt>
<trkpt lat="58.780981" lon="05.712563"><ele>26</ele><time>2012-03-25T15:58:27Z</time><cmt>0.8 kmh</cmt></trkpt>
<trkpt lat="58.780979" lon="05.712564"><ele>26</ele><time>2012-03-25T15:58:29Z</time><cmt>0.6 kmh</cmt></trkpt>
<trkpt lat="58.780978" lon="05.712565"><ele>26</ele><time>2012-03-25T15:58:30Z</time><cmt>0.6 kmh</cmt></trkpt>
<trkpt lat="58.780976" lon="05.712566"><ele>26</ele><time>2012-03-25T15:58:31Z</time><cmt>0.7 kmh</cmt></trkpt>
<trkpt lat="58.780975" lon="05.712567"><ele>26</ele><time>2012-03-25T15:58:32Z</time><cmt>0.6 kmh</cmt></trkpt>
<trkpt lat="58.780973" lon="05.712569"><ele>26</ele><time>2012-03-25T15:58:32Z</time><cmt>0.6 kmh</cmt></trkpt>
<trkpt lat="58.780972" lon="05.712570"><ele>26</ele><time>2012-03-25T15:58:33Z</time><cmt>0.7 kmh</cmt></trkpt>
<trkpt lat="58.780970" lon="05.712571"><ele>26</ele><time>2012-03-25T15:58:35Z</time><cmt>0.5 kmh</cmt></trkpt>
<trkpt lat="58.780969" lon="05.712573"><ele>26</ele><time>2012-03-25T15:58:36Z</time><cmt>0.4 kmh</cmt></trkpt>
<trkpt lat="58.780968" lon="05.712574"><ele>26</ele><time>2012-03-25T15:58:37Z</time><cmt>0.5 kmh</cmt></trkpt>
<trkpt lat="58.780966" lon="05.712576"><ele>26</ele><time>2012-03-25T15:58:38Z</time><cmt>0.5 kmh</cmt></trkpt>
<trkpt lat="58.780965" lon="05.712577"><ele>26</ele><time>2012-03-25T15:58:38Z</time><cmt>0.5 kmh</cmt></trkpt>
<trkpt lat="58.780964" lon="05.712578"><ele>26</ele><time>2012-03-25T15:58:39Z</time><cmt>0.5 kmh</cmt></trkpt>
<trkpt lat="58.780963" lon="05.712580"><ele>26</ele><time>2012-03-25T15:58:41Z</time><cmt>0.5 kmh</cmt></trkpt>
<trkpt lat="58.780961" lon="05.712581"><ele>26</ele><time>2012-03-25T15:58:42Z</time><cmt>0.5 kmh</cmt></trkpt>
<trkpt lat="58.780960" lon="05.712583"><ele>26</ele><time>2012-03-25T15:58:43Z</time><cmt>0.5 kmh</cmt></trkpt>
<trkpt lat="58.780959" lon="05.712584"><ele>26</ele><time>2012-03-25T15:58:44Z</time><cmt>0.4 kmh</cmt></trkpt>
<trkpt lat="58.780958" lon="05.712586"><ele>26</ele><time>2012-03-25T15:58:44Z</time><cmt>0.5 kmh</cmt></trkpt>
<trkpt lat="58.780957" lon="05.712587"><ele>26</ele><time>2012-03-25T15:58:45Z</time><cmt>0.5 kmh</cmt></trkpt>
<trkpt lat="58.780956" lon="05.712589"><ele>26</ele><time>2012-03-25T15:58:47Z</time><cmt>0.4 kmh</cmt></trkpt>
<trkpt lat="58.780955" lon="05.712590"><ele>26</ele><time>2012-03-25T15:58:48Z</time><cmt>0.5 kmh</cmt></trkpt>
<trkpt lat="58.780953" lon="05.712592"><ele>26</ele><time>2012-03-25T15:58:49Z</time><cmt>0.6 kmh</cmt></trkpt>
<trkpt lat="58.780952" lon="05.712593"><ele>26</ele><time>2012-03-25T15:58:50Z</time><cmt>0.6 kmh</cmt></trkpt>
<trkpt lat="58.780951" lon="05.712594"><ele>26</ele><time>2012-03-25T15:58:50Z</time><cmt>0.6 kmh</cmt></trkpt>
<trkpt lat="58.780950" lon="05.712596"><ele>26</ele><time>2012-03-25T15:58:51Z</time><cmt>0.7 kmh</cmt></trkpt>
<trkpt lat="58.780949" lon="05.712598"><ele>26</ele><time>2012-03-25T15:58:53Z</time><cmt>0.6 kmh</cmt></trkpt>
<trkpt lat="58.780948" lon="05.712599"><ele>26</ele><time>2012-03-25T15:58:54Z</time><cmt>0.5 kmh</cmt></trkpt>
<trkpt lat="58.780947" lon="05.712600"><ele>26</ele><time>2012-03-25T15:58:55Z</time><cmt>0.5 kmh</cmt></trkpt>
<trkpt lat="58.780946" lon="05.712602"><ele>26</ele><time>2012-03-25T15:58:56Z</time><cmt>0.6 kmh</cmt></trkpt>
<trkpt lat="58.780944" lon="05.712603"><ele>26</ele><time>2012-03-25T15:58:57Z</time><cmt>0.7 kmh</cmt></trkpt>
<trkpt lat="58.780943" lon="05.712605"><ele>26</ele><time>2012-03-25T15:58:57Z</time><cmt>0.6 kmh</cmt></trkpt>
<trkpt lat="58.780942" lon="05.712606"><ele>26</ele><time>2012-03-25T15:58:58Z</time><cmt>0.5 kmh</cmt></trkpt>
<trkpt lat="58.780941" lon="05.712607"><ele>26</ele><time>2012-03-25T15:59:00Z</time><cmt>0.4 kmh</cmt></trkpt>
<trkpt lat="58.780940" lon="05.712609"><ele>26</ele><time>2012-03-25T15:59:01Z</time><cmt>0.4 kmh</cmt></trkpt>
<trkpt lat="58.780939" lon="05.712610"><ele>26</ele><time>2012-03-25T15:59:02Z</time><cmt>0.5 kmh</cmt></trkpt>
<trkpt lat="58.780938" lon="05.712612"><ele>26</ele><time>2012-03-25T15:59:03Z</time><cmt>0.5 kmh</cmt></trkpt>
<trkpt lat="58.780937" lon="05.712613"><ele>26</ele><time>2012-03-25T15:59:03Z</time><cmt>0.5 kmh</cmt></trkpt>
<trkpt lat="58.780936" lon="05.712614"><ele>26</ele><time>2012-03-25T15:59:04Z</time><cmt>0.6 kmh</cmt></trkpt>
<trkpt lat="58.780934" lon="05.712615"><ele>26</ele><time>2012-03-25T15:59:06Z</time><cmt>0.5 kmh</cmt></trkpt>
<trkpt lat="58.780933" lon="05.712616"><ele>26</ele><time>2012-03-25T15:59:07Z</time><cmt>0.4 kmh</cmt></trkpt>
<trkpt lat="58.780932" lon="05.712617"><ele>26</ele><time>2012-03-25T15:59:08Z</time><cmt>0.5 kmh</cmt></trkpt>
<trkpt lat="58.780931" lon="05.712619"><ele>26</ele><time>2012-03-25T15:59:09Z</time><cmt>0.5 kmh</cmt></trkpt>
<trkpt lat="58.780930" lon="05.712621"><ele>26</ele><time>2012-03-25T15:59:09Z</time><cmt>0.5 kmh</cmt></trkpt>
<trkpt lat="58.780929" lon="05.712622"><ele>26</ele><time>2012-03-25T15:59:10Z</time><cmt>0.6 kmh</cmt></trkpt>
<trkpt lat="58.780928" lon="05.712624"><ele>26</ele><time>2012-03-25T15:59:12Z</time><cmt>0.4 kmh</cmt></trkpt>
<trkpt lat="58.780927" lon="05.712625"><ele>26</ele><time>2012-03-25T15:59:13Z</time><cmt>0.4 kmh</cmt></trkpt>
<trkpt lat="58.780926" lon="05.712626"><ele>26</ele><time>2012-03-25T15:59:14Z</time><cmt>0.5 kmh</cmt></trkpt>
<trkpt lat="58.780925" lon="05.712628"><ele>26</ele><time>2012-03-25T15:59:15Z</time><cmt>0.3 kmh</cmt></trkpt>
<trkpt lat="58.780924" lon="05.712629"><ele>26</ele><time>2012-03-25T15:59:15Z</time><cmt>0.3 kmh</cmt></trkpt>
<trkpt lat="58.780923" lon="05.712630"><ele>26</ele><time>2012-03-25T15:59:16Z</time><cmt>0.5 kmh</cmt></trkpt>
<trkpt lat="58.780921" lon="05.712632"><ele>26</ele><time>2012-03-25T15:59:18Z</time><cmt>0.4 kmh</cmt></trkpt>
<trkpt lat="58.780920" lon="05.712633"><ele>26</ele><time>2012-03-25T15:59:19Z</time><cmt>0.4 kmh</cmt></trkpt>
<trkpt lat="58.780919" lon="05.712634"><ele>26</ele><time>2012-03-25T15:59:20Z</time><cmt>0.4 kmh</cmt></trkpt>
<trkpt lat="58.780918" lon="05.712636"><ele>26</ele><time>2012-03-25T15:59:21Z</time><cmt>0.4 kmh</cmt></trkpt>
<trkpt lat="58.780917" lon="05.712637"><ele>26</ele><time>2012-03-25T15:59:21Z</time><cmt>0.5 kmh</cmt></trkpt>
<trkpt lat="58.780916" lon="05.712639"><ele>26</ele><time>2012-03-25T15:59:22Z</time><cmt>0.5 kmh</cmt></trkpt>
<trkpt lat="58.780914" lon="05.712640"><ele>26</ele><time>2012-03-25T15:59:24Z</time><cmt>0.4 kmh</cmt></trkpt>
<trkpt lat="58.780913" lon="05.712642"><ele>26</ele><time>2012-03-25T15:59:25Z</time><cmt>0.4 kmh</cmt></trkpt>
<trkpt lat="58.780912" lon="05.712643"><ele>26</ele><time>2012-03-25T15:59:26Z</time><cmt>0.5 kmh</cmt></trkpt>
<trkpt lat="58.780911" lon="05.712645"><ele>26</ele><time>2012-03-25T15:59:27Z</time><cmt>0.5 kmh</cmt></trkpt>
<trkpt lat="58.780910" lon="05.712646"><ele>26</ele><time>2012-03-25T15:59:28Z</time><cmt>0.5 kmh</cmt></trkpt>
<trkpt lat="58.780909" lon="05.712648"><ele>26</ele><time>2012-03-25T15:59:28Z</time><cmt>0.5 kmh</cmt></trkpt>
<trkpt lat="58.780908" lon="05.712649"><ele>26</ele><time>2012-03-25T15:59:29Z</time><cmt>0.5 kmh</cmt></trkpt>
<trkpt lat="58.780907" lon="05.712651"><ele>26</ele><time>2012-03-25T15:59:31Z</time><cmt>0.4 kmh</cmt></trkpt>
<trkpt lat="58.780906" lon="05.712652"><ele>26</ele><time>2012-03-25T15:59:32Z</time><cmt>0.4 kmh</cmt></trkpt>
<trkpt lat="58.780905" lon="05.712654"><ele>26</ele><time>2012-03-25T15:59:33Z</time><cmt>0.6 kmh</cmt></trkpt>
<trkpt lat="58.780904" lon="05.712656"><ele>26</ele><time>2012-03-25T15:59:34Z</time><cmt>0.6 kmh</cmt></trkpt>
<trkpt lat="58.780903" lon="05.712658"><ele>26</ele><time>2012-03-25T15:59:34Z</time><cmt>0.6 kmh</cmt></trkpt>
<trkpt lat="58.780901" lon="05.712660"><ele>26</ele><time>2012-03-25T15:59:35Z</time><cmt>0.7 kmh</cmt></trkpt>
<trkpt lat="58.780900" lon="05.712661"><ele>26</ele><time>2012-03-25T15:59:37Z</time><cmt>0.5 kmh</cmt></trkpt>
<trkpt lat="58.780899" lon="05.712663"><ele>26</ele><time>2012-03-25T15:59:38Z</time><cmt>0.4 kmh</cmt></trkpt>
<trkpt lat="58.780898" lon="05.712665"><ele>26</ele><time>2012-03-25T15:59:39Z</time><cmt>0.6 kmh</cmt></trkpt>
<trkpt lat="58.780896" lon="05.712667"><ele>26</ele><time>2012-03-25T15:59:40Z</time><cmt>0.6 kmh</cmt></trkpt>
<trkpt lat="58.780895" lon="05.712669"><ele>26</ele><time>2012-03-25T15:59:40Z</time><cmt>0.6 kmh</cmt></trkpt>
<trkpt lat="58.780894" lon="05.712670"><ele>26</ele><time>2012-03-25T15:59:41Z</time><cmt>0.7 kmh</cmt></trkpt>
<trkpt lat="58.780892" lon="05.712673"><ele>26</ele><time>2012-03-25T15:59:43Z</time><cmt>0.6 kmh</cmt></trkpt>
<trkpt lat="58.780891" lon="05.712675"><ele>26</ele><time>2012-03-25T15:59:44Z</time><cmt>0.6 kmh</cmt></trkpt>
<trkpt lat="58.780889" lon="05.712677"><ele>26</ele><time>2012-03-25T15:59:45Z</time><cmt>0.8 kmh</cmt></trkpt>
<trkpt lat="58.780887" lon="05.712679"><ele>26</ele><time>2012-03-25T15:59:46Z</time><cmt>0.8 kmh</cmt></trkpt>
<trkpt lat="58.780886" lon="05.712681"><ele>26</ele><time>2012-03-25T15:59:46Z</time><cmt>0.8 kmh</cmt></trkpt>
<trkpt lat="58.780884" lon="05.712683"><ele>26</ele><time>2012-03-25T15:59:47Z</time><cmt>0.9 kmh</cmt></trkpt>
<trkpt lat="58.780882" lon="05.712685"><ele>26</ele><time>2012-03-25T15:59:49Z</time><cmt>0.7 kmh</cmt></trkpt>
<trkpt lat="58.780881" lon="05.712687"><ele>26</ele><time>2012-03-25T15:59:50Z</time><cmt>0.7 kmh</cmt></trkpt>
<trkpt lat="58.780879" lon="05.712690"><ele>26</ele><time>2012-03-25T15:59:51Z</time><cmt>0.9 kmh</cmt></trkpt>
<trkpt lat="58.780878" lon="05.712692"><ele>26</ele><time>2012-03-25T15:59:52Z</time><cmt>0.8 kmh</cmt></trkpt>
<trkpt lat="58.780876" lon="05.712693"><ele>26</ele><time>2012-03-25T15:59:52Z</time><cmt>0.8 kmh</cmt></trkpt>
<trkpt lat="58.780875" lon="05.712695"><ele>26</ele><time>2012-03-25T15:59:53Z</time><cmt>0.8 kmh</cmt></trkpt>
<trkpt lat="58.780873" lon="05.712697"><ele>26</ele><time>2012-03-25T15:59:55Z</time><cmt>0.6 kmh</cmt></trkpt>
<trkpt lat="58.780872" lon="05.712699"><ele>26</ele><time>2012-03-25T15:59:56Z</time><cmt>0.6 kmh</cmt></trkpt>
<trkpt lat="58.780870" lon="05.712701"><ele>26</ele><time>2012-03-25T15:59:57Z</time><cmt>0.7 kmh</cmt></trkpt>
<trkpt lat="58.780869" lon="05.712703"><ele>26</ele><time>2012-03-25T15:59:58Z</time><cmt>0.7 kmh</cmt></trkpt>
<trkpt lat="58.780868" lon="05.712704"><ele>26</ele><time>2012-03-25T15:59:59Z</time><cmt>0.7 kmh</cmt></trkpt>
<trkpt lat="58.780867" lon="05.712706"><ele>26</ele><time>2012-03-25T15:59:59Z</time><cmt>0.7 kmh</cmt></trkpt>
<trkpt lat="58.780866" lon="05.712707"><ele>26</ele><time>2012-03-25T16:00:00Z</time><cmt>0.6 kmh</cmt></trkpt>
<trkpt lat="58.780865" lon="05.712709"><ele>26</ele><time>2012-03-25T16:00:02Z</time><cmt>0.5 kmh</cmt></trkpt>
<trkpt lat="58.780864" lon="05.712711"><ele>26</ele><time>2012-03-25T16:00:03Z</time><cmt>0.6 kmh</cmt></trkpt>
<trkpt lat="58.780862" lon="05.712712"><ele>26</ele><time>2012-03-25T16:00:04Z</time><cmt>0.7 kmh</cmt></trkpt>
<trkpt lat="58.780861" lon="05.712714"><ele>26</ele><time>2012-03-25T16:00:05Z</time><cmt>0.7 kmh</cmt></trkpt>
<trkpt lat="58.780860" lon="05.712716"><ele>26</ele><time>2012-03-25T16:00:05Z</time><cmt>0.7 kmh</cmt></trkpt>
<trkpt lat="58.780859" lon="05.712717"><ele>26</ele><time>2012-03-25T16:00:06Z</time><cmt>0.6 kmh</cmt></trkpt>
<trkpt lat="58.780857" lon="05.712719"><ele>26</ele><time>2012-03-25T16:00:08Z</time><cmt>0.6 kmh</cmt></trkpt>
<trkpt lat="58.780856" lon="05.712721"><ele>26</ele><time>2012-03-25T16:00:09Z</time><cmt>0.6 kmh</cmt></trkpt>
<trkpt lat="58.780855" lon="05.712722"><ele>26</ele><time>2012-03-25T16:00:10Z</time><cmt>0.7 kmh</cmt></trkpt>
<trkpt lat="58.780854" lon="05.712724"><ele>26</ele><time>2012-03-25T16:00:11Z</time><cmt>0.7 kmh</cmt></trkpt>
<trkpt lat="58.780853" lon="05.712726"><ele>26</ele><time>2012-03-25T16:00:11Z</time><cmt>0.6 kmh</cmt></trkpt>
<trkpt lat="58.780851" lon="05.712728"><ele>26</ele><time>2012-03-25T16:00:12Z</time><cmt>0.5 kmh</cmt></trkpt>
<trkpt lat="58.780850" lon="05.712730"><ele>26</ele><time>2012-03-25T16:00:14Z</time><cmt>0.4 kmh</cmt></trkpt>
<trkpt lat="58.780849" lon="05.712731"><ele>26</ele><time>2012-03-25T16:00:15Z</time><cmt>0.4 kmh</cmt></trkpt>
<trkpt lat="58.780848" lon="05.712733"><ele>26</ele><time>2012-03-25T16:00:16Z</time><cmt>0.4 kmh</cmt></trkpt>
<trkpt lat="58.780847" lon="05.712735"><ele>26</ele><time>2012-03-25T16:00:17Z</time><cmt>0.4 kmh</cmt></trkpt>
<trkpt lat="58.780846" lon="05.712737"><ele>26</ele><time>2012-03-25T16:00:17Z</time><cmt>0.5 kmh</cmt></trkpt>
<trkpt lat="58.780845" lon="05.712739"><ele>26</ele><time>2012-03-25T16:00:18Z</time><cmt>0.5 kmh</cmt></trkpt>
<trkpt lat="58.780844" lon="05.712741"><ele>26</ele><time>2012-03-25T16:00:20Z</time><cmt>0.4 kmh</cmt></trkpt>
<trkpt lat="58.780842" lon="05.712743"><ele>26</ele><time>2012-03-25T16:00:21Z</time><cmt>0.4 kmh</cmt></trkpt>
<trkpt lat="58.780841" lon="05.712745"><ele>26</ele><time>2012-03-25T16:00:22Z</time><cmt>0.5 kmh</cmt></trkpt>
<trkpt lat="58.780840" lon="05.712747"><ele>26</ele><time>2012-03-25T16:00:23Z</time><cmt>0.5 kmh</cmt></trkpt>
<trkpt lat="58.780839" lon="05.712749"><ele>26</ele><time>2012-03-25T16:00:23Z</time><cmt>0.5 kmh</cmt></trkpt>
<trkpt lat="58.780838" lon="05.712751"><ele>26</ele><time>2012-03-25T16:00:24Z</time><cmt>0.6 kmh</cmt></trkpt>
<trkpt lat="58.780836" lon="05.712753"><ele>26</ele><time>2012-03-25T16:00:26Z</time><cmt>0.6 kmh</cmt></trkpt>
<trkpt lat="58.780835" lon="05.712756"><ele>26</ele><time>2012-03-25T16:00:27Z</time><cmt>0.6 kmh</cmt></trkpt>
<trkpt lat="58.780833" lon="05.712758"><ele>26</ele><time>2012-03-25T16:00:28Z</time><cmt>0.8 kmh</cmt></trkpt>
<trkpt lat="58.780832" lon="05.712761"><ele>26</ele><time>2012-03-25T16:00:29Z</time><cmt>0.9 kmh</cmt></trkpt>
<trkpt lat="58.780830" lon="05.712764"><ele>26</ele><time>2012-03-25T16:00:30Z</time><cmt>1.0 kmh</cmt></trkpt>
<trkpt lat="58.780828" lon="05.712766"><ele>26</ele><time>2012-03-25T16:00:30Z</time><cmt>1.0 kmh</cmt></trkpt>
<trkpt lat="58.780826" lon="05.712769"><ele>26</ele><time>2012-03-25T16:00:31Z</time><cmt>1.0 kmh</cmt></trkpt>
<trkpt lat="58.780825" lon="05.712771"><ele>26</ele><time>2012-03-25T16:00:33Z</time><cmt>0.8 kmh</cmt></trkpt>
<trkpt lat="58.780823" lon="05.712774"><ele>26</ele><time>2012-03-25T16:00:34Z</time><cmt>0.8 kmh</cmt></trkpt>
<trkpt lat="58.780821" lon="05.712776"><ele>26</ele><time>2012-03-25T16:00:35Z</time><cmt>1.0 kmh</cmt></trkpt>
<trkpt lat="58.780819" lon="05.712779"><ele>26</ele><time>2012-03-25T16:00:36Z</time><cmt>0.9 kmh</cmt></trkpt>
<trkpt lat="58.780817" lon="05.712781"><ele>26</ele><time>2012-03-25T16:00:36Z</time><cmt>0.9 kmh</cmt></trkpt>
<trkpt lat="58.780816" lon="05.712784"><ele>26</ele><time>2012-03-25T16:00:37Z</time><cmt>1.0 kmh</cmt></trkpt>
<trkpt lat="58.780814" lon="05.712786"><ele>26</ele><time>2012-03-25T16:00:39Z</time><cmt>0.8 kmh</cmt></trkpt>
<trkpt lat="58.780812" lon="05.712789"><ele>26</ele><time>2012-03-25T16:00:40Z</time><cmt>0.8 kmh</cmt></trkpt>
<trkpt lat="58.780810" lon="05.712791"><ele>26</ele><time>2012-03-25T16:00:41Z</time><cmt>1.0 kmh</cmt></trkpt>
<trkpt lat="58.780808" lon="05.712794"><ele>26</ele><time>2012-03-25T16:00:42Z</time><cmt>1.0 kmh</cmt></trkpt>
<trkpt lat="58.780806" lon="05.712796"><ele>26</ele><time>2012-03-25T16:00:42Z</time><cmt>0.9 kmh</cmt></trkpt>
<trkpt lat="58.780805" lon="05.712799"><ele>26</ele><time>2012-03-25T16:00:43Z</time><cmt>0.9 kmh</cmt></trkpt>
<trkpt lat="58.780803" lon="05.712801"><ele>26</ele><time>2012-03-25T16:00:45Z</time><cmt>0.7 kmh</cmt></trkpt>
<trkpt lat="58.780802" lon="05.712803"><ele>26</ele><time>2012-03-25T16:00:46Z</time><cmt>0.7 kmh</cmt></trkpt>
<trkpt lat="58.780800" lon="05.712806"><ele>26</ele><time>2012-03-25T16:00:47Z</time><cmt>0.9 kmh</cmt></trkpt>
<trkpt lat="58.780798" lon="05.712808"><ele>26</ele><time>2012-03-25T16:00:48Z</time><cmt>0.9 kmh</cmt></trkpt>
<trkpt lat="58.780796" lon="05.712811"><ele>26</ele><time>2012-03-25T16:00:48Z</time><cmt>0.9 kmh</cmt></trkpt>
<trkpt lat="58.780795" lon="05.712813"><ele>26</ele><time>2012-03-25T16:00:49Z</time><cmt>1.0 kmh</cmt></trkpt>
<trkpt lat="58.780793" lon="05.712816"><ele>26</ele><time>2012-03-25T16:00:51Z</time><cmt>0.8 kmh</cmt></trkpt>
<trkpt lat="58.780791" lon="05.712819"><ele>26</ele><time>2012-03-25T16:00:52Z</time><cmt>0.8 kmh</cmt></trkpt>
<trkpt lat="58.780789" lon="05.712821"><ele>26</ele><time>2012-03-25T16:00:53Z</time><cmt>1.0 kmh</cmt></trkpt>
<trkpt lat="58.780788" lon="05.712824"><ele>26</ele><time>2012-03-25T16:00:54Z</time><cmt>0.9 kmh</cmt></trkpt>
<trkpt lat="58.780786" lon="05.712826"><ele>26</ele><time>2012-03-25T16:00:54Z</time><cmt>0.9 kmh</cmt></trkpt>
<trkpt lat="58.780785" lon="05.712829"><ele>26</ele><time>2012-03-25T16:00:55Z</time><cmt>0.8 kmh</cmt></trkpt>
<trkpt lat="58.780783" lon="05.712831"><ele>26</ele><time>2012-03-25T16:00:57Z</time><cmt>0.6 kmh</cmt></trkpt>
<trkpt lat="58.780782" lon="05.712833"><ele>26</ele><time>2012-03-25T16:00:58Z</time><cmt>0.6 kmh</cmt></trkpt>
<trkpt lat="58.780780" lon="05.712836"><ele>26</ele><time>2012-03-25T16:00:59Z</time><cmt>0.8 kmh</cmt></trkpt>
<trkpt lat="58.780779" lon="05.712838"><ele>26</ele><time>2012-03-25T16:01:00Z</time><cmt>0.8 kmh</cmt></trkpt>
<trkpt lat="58.780778" lon="05.712840"><ele>26</ele><time>2012-03-25T16:01:01Z</time><cmt>0.7 kmh</cmt></trkpt>
<trkpt lat="58.780777" lon="05.712842"><ele>26</ele><time>2012-03-25T16:01:01Z</time><cmt>0.7 kmh</cmt></trkpt>
<trkpt lat="58.780775" lon="05.712844"><ele>26</ele><time>2012-03-25T16:01:03Z</time><cmt>0.6 kmh</cmt></trkpt>
<trkpt lat="58.780774" lon="05.712846"><ele>26</ele><time>2012-03-25T16:01:04Z</time><cmt>0.6 kmh</cmt></trkpt>
<trkpt lat="58.780773" lon="05.712848"><ele>26</ele><time>2012-03-25T16:01:05Z</time><cmt>0.7 kmh</cmt></trkpt>
<trkpt lat="58.780772" lon="05.712850"><ele>26</ele><time>2012-03-25T16:01:06Z</time><cmt>0.7 kmh</cmt></trkpt>
<trkpt lat="58.780771" lon="05.712852"><ele>26</ele><time>2012-03-25T16:01:07Z</time><cmt>0.7 kmh</cmt></trkpt>
<trkpt lat="58.780770" lon="05.712854"><ele>26</ele><time>2012-03-25T16:01:07Z</time><cmt>0.6 kmh</cmt></trkpt>
<trkpt lat="58.780768" lon="05.712856"><ele>26</ele><time>2012-03-25T16:01:08Z</time><cmt>0.6 kmh</cmt></trkpt>
<trkpt lat="58.780767" lon="05.712858"><ele>26</ele><time>2012-03-25T16:01:10Z</time><cmt>0.6 kmh</cmt></trkpt>
<trkpt lat="58.780766" lon="05.712860"><ele>26</ele><time>2012-03-25T16:01:11Z</time><cmt>0.7 kmh</cmt></trkpt>
<trkpt lat="58.780765" lon="05.712861"><ele>26</ele><time>2012-03-25T16:01:12Z</time><cmt>0.6 kmh</cmt></trkpt>
<trkpt lat="58.780764" lon="05.712863"><ele>26</ele><time>2012-03-25T16:01:13Z</time><cmt>0.5 kmh</cmt></trkpt>
<trkpt lat="58.780762" lon="05.712865"><ele>26</ele><time>2012-03-25T16:01:13Z</time><cmt>0.6 kmh</cmt></trkpt>
<trkpt lat="58.780761" lon="05.712867"><ele>26</ele><time>2012-03-25T16:01:14Z</time><cmt>0.7 kmh</cmt></trkpt>
<trkpt lat="58.780760" lon="05.712869"><ele>26</ele><time>2012-03-25T16:01:16Z</time><cmt>0.6 kmh</cmt></trkpt>
<trkpt lat="58.780759" lon="05.712870"><ele>26</ele><time>2012-03-25T16:01:17Z</time><cmt>0.5 kmh</cmt></trkpt>
<trkpt lat="58.780757" lon="05.712872"><ele>26</ele><time>2012-03-25T16:01:18Z</time><cmt>0.5 kmh</cmt></trkpt>
<trkpt lat="58.780756" lon="05.712874"><ele>26</ele><time>2012-03-25T16:01:19Z</time><cmt>0.6 kmh</cmt></trkpt>
<trkpt lat="58.780755" lon="05.712875"><ele>26</ele><time>2012-03-25T16:01:19Z</time><cmt>0.6 kmh</cmt></trkpt>
<trkpt lat="58.780754" lon="05.712877"><ele>26</ele><time>2012-03-25T16:01:20Z</time><cmt>0.6 kmh</cmt></trkpt>
<trkpt lat="58.780753" lon="05.712879"><ele>26</ele><time>2012-03-25T16:01:22Z</time><cmt>0.6 kmh</cmt></trkpt>
<trkpt lat="58.780752" lon="05.712881"><ele>26</ele><time>2012-03-25T16:01:23Z</time><cmt>0.6 kmh</cmt></trkpt>
<trkpt lat="58.780750" lon="05.712883"><ele>26</ele><time>2012-03-25T16:01:24Z</time><cmt>0.7 kmh</cmt></trkpt>
<trkpt lat="58.780749" lon="05.712884"><ele>26</ele><time>2012-03-25T16:01:25Z</time><cmt>0.7 kmh</cmt></trkpt>
<trkpt lat="58.780748" lon="05.712886"><ele>26</ele><time>2012-03-25T16:01:25Z</time><cmt>0.8 kmh</cmt></trkpt>
<trkpt lat="58.780746" lon="05.712888"><ele>26</ele><time>2012-03-25T16:01:26Z</time><cmt>0.7 kmh</cmt></trkpt>
<trkpt lat="58.780745" lon="05.712889"><ele>26</ele><time>2012-03-25T16:01:28Z</time><cmt>0.6 kmh</cmt></trkpt>
<trkpt lat="58.780743" lon="05.712891"><ele>26</ele><time>2012-03-25T16:01:29Z</time><cmt>0.6 kmh</cmt></trkpt>
<trkpt lat="58.780742" lon="05.712893"><ele>26</ele><time>2012-03-25T16:01:30Z</time><cmt>0.8 kmh</cmt></trkpt>
<trkpt lat="58.780740" lon="05.712895"><ele>26</ele><time>2012-03-25T16:01:31Z</time><cmt>0.8 kmh</cmt></trkpt>
<trkpt lat="58.780739" lon="05.712897"><ele>26</ele><time>2012-03-25T16:01:32Z</time><cmt>0.9 kmh</cmt></trkpt>
<trkpt lat="58.780737" lon="05.712899"><ele>26</ele><time>2012-03-25T16:01:32Z</time><cmt>0.8 kmh</cmt></trkpt>
<trkpt lat="58.780736" lon="05.712900"><ele>26</ele><time>2012-03-25T16:01:33Z</time><cmt>0.7 kmh</cmt></trkpt>
<trkpt lat="58.780734" lon="05.712902"><ele>26</ele><time>2012-03-25T16:01:35Z</time><cmt>0.6 kmh</cmt></trkpt>
<trkpt lat="58.780733" lon="05.712903"><ele>26</ele><time>2012-03-25T16:01:36Z</time><cmt>0.6 kmh</cmt></trkpt>
<trkpt lat="58.780731" lon="05.712904"><ele>26</ele><time>2012-03-25T16:01:37Z</time><cmt>0.7 kmh</cmt></trkpt>
<trkpt lat="58.780730" lon="05.712905"><ele>26</ele><time>2012-03-25T16:01:38Z</time><cmt>0.7 kmh</cmt></trkpt>
<trkpt lat="58.780728" lon="05.712907"><ele>26</ele><time>2012-03-25T16:01:38Z</time><cmt>0.8 kmh</cmt></trkpt>
<trkpt lat="58.780726" lon="05.712908"><ele>26</ele><time>2012-03-25T16:01:39Z</time><cmt>0.8 kmh</cmt></trkpt>
<trkpt lat="58.780724" lon="05.712909"><ele>26</ele><time>2012-03-25T16:01:41Z</time><cmt>0.6 kmh</cmt></trkpt>
<trkpt lat="58.780723" lon="05.712910"><ele>26</ele><time>2012-03-25T16:01:42Z</time><cmt>0.6 kmh</cmt></trkpt>
<trkpt lat="58.780721" lon="05.712912"><ele>26</ele><time>2012-03-25T16:01:43Z</time><cmt>0.7 kmh</cmt></trkpt>
<trkpt lat="58.780719" lon="05.712913"><ele>26</ele><time>2012-03-25T16:01:44Z</time><cmt>0.8 kmh</cmt></trkpt>
<trkpt lat="58.780718" lon="05.712914"><ele>26</ele><time>2012-03-25T16:01:44Z</time><cmt>0.8 kmh</cmt></trkpt>
<trkpt lat="58.780716" lon="05.712916"><ele>26</ele><time>2012-03-25T16:01:45Z</time><cmt>0.7 kmh</cmt></trkpt>
<trkpt lat="58.780715" lon="05.712917"><ele>26</ele><time>2012-03-25T16:01:47Z</time><cmt>0.5 kmh</cmt></trkpt>
<trkpt lat="58.780713" lon="05.712918"><ele>26</ele><time>2012-03-25T16:01:48Z</time><cmt>0.5 kmh</cmt></trkpt>
<trkpt lat="58.780711" lon="05.712919"><ele>26</ele><time>2012-03-25T16:01:49Z</time><cmt>0.8 kmh</cmt></trkpt>
<trkpt lat="58.780709" lon="05.712920"><ele>26</ele><time>2012-03-25T16:01:50Z</time><cmt>1.0 kmh</cmt></trkpt>
<trkpt lat="58.780707" lon="05.712921"><ele>26</ele><time>2012-03-25T16:01:50Z</time><cmt>1.0 kmh</cmt></trkpt>
<trkpt lat="58.780705" lon="05.712922"><ele>26</ele><time>2012-03-25T16:01:51Z</time><cmt>0.9 kmh</cmt></trkpt>
<trkpt lat="58.780703" lon="05.712923"><ele>26</ele><time>2012-03-25T16:01:53Z</time><cmt>0.7 kmh</cmt></trkpt>
<trkpt lat="58.780701" lon="05.712924"><ele>26</ele><time>2012-03-25T16:01:54Z</time><cmt>0.7 kmh</cmt></trkpt>
<trkpt lat="58.780699" lon="05.712925"><ele>26</ele><time>2012-03-25T16:01:55Z</time><cmt>0.9 kmh</cmt></trkpt>
<trkpt lat="58.780697" lon="05.712926"><ele>26</ele><time>2012-03-25T16:01:56Z</time><cmt>0.9 kmh</cmt></trkpt>
<trkpt lat="58.780695" lon="05.712927"><ele>26</ele><time>2012-03-25T16:01:56Z</time><cmt>0.9 kmh</cmt></trkpt>
<trkpt lat="58.780693" lon="05.712928"><ele>26</ele><time>2012-03-25T16:01:57Z</time><cmt>0.9 kmh</cmt></trkpt>
<trkpt lat="58.780691" lon="05.712929"><ele>26</ele><time>2012-03-25T16:01:59Z</time><cmt>0.8 kmh</cmt></trkpt>
<trkpt lat="58.780689" lon="05.712930"><ele>26</ele><time>2012-03-25T16:02:00Z</time><cmt>0.8 kmh</cmt></trkpt>
<trkpt lat="58.780687" lon="05.712930"><ele>26</ele><time>2012-03-25T16:02:01Z</time><cmt>0.8 kmh</cmt></trkpt>
<trkpt lat="58.780685" lon="05.712931"><ele>26</ele><time>2012-03-25T16:02:02Z</time><cmt>0.8 kmh</cmt></trkpt>
<trkpt lat="58.780683" lon="05.712932"><ele>26</ele><time>2012-03-25T16:02:03Z</time><cmt>0.9 kmh</cmt></trkpt>
<trkpt lat="58.780681" lon="05.712933"><ele>26</ele><time>2012-03-25T16:02:03Z</time><cmt>0.8 kmh</cmt></trkpt>
<trkpt lat="58.780679" lon="05.712934"><ele>26</ele><time>2012-03-25T16:02:04Z</time><cmt>0.9 kmh</cmt></trkpt>
<trkpt lat="58.780677" lon="05.712935"><ele>26</ele><time>2012-03-25T16:02:06Z</time><cmt>0.7 kmh</cmt></trkpt>
<trkpt lat="58.780675" lon="05.712935"><ele>26</ele><time>2012-03-25T16:02:07Z</time><cmt>0.6 kmh</cmt></trkpt>
<trkpt lat="58.780673" lon="05.712936"><ele>26</ele><time>2012-03-25T16:02:08Z</time><cmt>0.7 kmh</cmt></trkpt>
<trkpt lat="58.780672" lon="05.712937"><ele>26</ele><time>2012-03-25T16:02:09Z</time><cmt>0.8 kmh</cmt></trkpt>
<trkpt lat="58.780670" lon="05.712937"><ele>26</ele><time>2012-03-25T16:02:09Z</time><cmt>0.8 kmh</cmt></trkpt>
<trkpt lat="58.780668" lon="05.712938"><ele>26</ele><time>2012-03-25T16:02:10Z</time><cmt>0.8 kmh</cmt></trkpt>
<trkpt lat="58.780666" lon="05.712939"><ele>26</ele><time>2012-03-25T16:02:12Z</time><cmt>0.7 kmh</cmt></trkpt>
<trkpt lat="58.780664" lon="05.712940"><ele>26</ele><time>2012-03-25T16:02:13Z</time><cmt>0.7 kmh</cmt></trkpt>
<trkpt lat="58.780662" lon="05.712941"><ele>26</ele><time>2012-03-25T16:02:14Z</time><cmt>0.9 kmh</cmt></trkpt>
<trkpt lat="58.780661" lon="05.712941"><ele>26</ele><time>2012-03-25T16:02:15Z</time><cmt>0.9 kmh</cmt></trkpt>
<trkpt lat="58.780659" lon="05.712942"><ele>26</ele><time>2012-03-25T16:02:15Z</time><cmt>0.9 kmh</cmt></trkpt>
<trkpt lat="58.780657" lon="05.712943"><ele>26</ele><time>2012-03-25T16:02:16Z</time><cmt>0.8 kmh</cmt></trkpt>
<trkpt lat="58.780655" lon="05.712944"><ele>26</ele><time>2012-03-25T16:02:18Z</time><cmt>0.6 kmh</cmt></trkpt>
<trkpt lat="58.780654" lon="05.712945"><ele>26</ele><time>2012-03-25T16:02:19Z</time><cmt>0.6 kmh</cmt></trkpt>
<trkpt lat="58.780652" lon="05.712946"><ele>26</ele><time>2012-03-25T16:02:20Z</time><cmt>0.8 kmh</cmt></trkpt>
<trkpt lat="58.780651" lon="05.712947"><ele>26</ele><time>2012-03-25T16:02:21Z</time><cmt>0.7 kmh</cmt></trkpt>
<trkpt lat="58.780650" lon="05.712948"><ele>26</ele><time>2012-03-25T16:02:21Z</time><cmt>0.6 kmh</cmt></trkpt>
<trkpt lat="58.780648" lon="05.712949"><ele>26</ele><time>2012-03-25T16:02:22Z</time><cmt>0.5 kmh</cmt></trkpt>
<trkpt lat="58.780647" lon="05.712950"><ele>26</ele><time>2012-03-25T16:02:24Z</time><cmt>0.4 kmh</cmt></trkpt>
<trkpt lat="58.780646" lon="05.712951"><ele>26</ele><time>2012-03-25T16:02:25Z</time><cmt>0.4 kmh</cmt></trkpt>
<trkpt lat="58.780645" lon="05.712952"><ele>26</ele><time>2012-03-25T16:02:26Z</time><cmt>0.4 kmh</cmt></trkpt>
<trkpt lat="58.780644" lon="05.712953"><ele>26</ele><time>2012-03-25T16:02:27Z</time><cmt>0.4 kmh</cmt></trkpt>
<trkpt lat="58.780643" lon="05.712954"><ele>26</ele><time>2012-03-25T16:02:27Z</time><cmt>0.5 kmh</cmt></trkpt>
<trkpt lat="58.780641" lon="05.712955"><ele>26</ele><time>2012-03-25T16:02:28Z</time><cmt>0.6 kmh</cmt></trkpt>
<trkpt lat="58.780640" lon="05.712956"><ele>26</ele><time>2012-03-25T16:02:30Z</time><cmt>0.4 kmh</cmt></trkpt>
<trkpt lat="58.780639" lon="05.712958"><ele>26</ele><time>2012-03-25T16:02:31Z</time><cmt>0.4 kmh</cmt></trkpt>
<trkpt lat="58.780638" lon="05.712959"><ele>26</ele><time>2012-03-25T16:02:32Z</time><cmt>0.5 kmh</cmt></trkpt>
<trkpt lat="58.780637" lon="05.712960"><ele>26</ele><time>2012-03-25T16:02:33Z</time><cmt>0.5 kmh</cmt></trkpt>
<trkpt lat="58.780636" lon="05.712962"><ele>26</ele><time>2012-03-25T16:02:33Z</time><cmt>0.5 kmh</cmt></trkpt>
<trkpt lat="58.780635" lon="05.712963"><ele>26</ele><time>2012-03-25T16:02:34Z</time><cmt>0.5 kmh</cmt></trkpt>
<trkpt lat="58.780634" lon="05.712965"><ele>26</ele><time>2012-03-25T16:02:35Z</time><cmt>0.5 kmh</cmt></trkpt>
<trkpt lat="58.780633" lon="05.712966"><ele>26</ele><time>2012-03-25T16:02:37Z</time><cmt>0.5 kmh</cmt></trkpt>
<trkpt lat="58.780632" lon="05.712968"><ele>26</ele><time>2012-03-25T16:02:38Z</time><cmt>0.5 kmh</cmt></trkpt>
<trkpt lat="58.780631" lon="05.712970"><ele>26</ele><time>2012-03-25T16:02:39Z</time><cmt>0.5 kmh</cmt></trkpt>
<trkpt lat="58.780630" lon="05.712971"><ele>26</ele><time>2012-03-25T16:02:40Z</time><cmt>0.5 kmh</cmt></trkpt>
<trkpt lat="58.780629" lon="05.712973"><ele>26</ele><time>2012-03-25T16:02:40Z</time><cmt>0.5 kmh</cmt></trkpt>
<trkpt lat="58.780628" lon="05.712974"><ele>26</ele><time>2012-03-25T16:02:41Z</time><cmt>0.5 kmh</cmt></trkpt>
<trkpt lat="58.780627" lon="05.712976"><ele>26</ele><time>2012-03-25T16:02:43Z</time><cmt>0.5 kmh</cmt></trkpt>
<trkpt lat="58.780627" lon="05.712978"><ele>26</ele><time>2012-03-25T16:02:44Z</time><cmt>0.5 kmh</cmt></trkpt>
<trkpt lat="58.780626" lon="05.712980"><ele>26</ele><time>2012-03-25T16:02:45Z</time><cmt>0.5 kmh</cmt></trkpt>
<trkpt lat="58.780625" lon="05.712982"><ele>26</ele><time>2012-03-25T16:02:46Z</time><cmt>0.6 kmh</cmt></trkpt>
<trkpt lat="58.780624" lon="05.712984"><ele>26</ele><time>2012-03-25T16:02:46Z</time><cmt>0.6 kmh</cmt></trkpt>
<trkpt lat="58.780623" lon="05.712985"><ele>26</ele><time>2012-03-25T16:02:47Z</time><cmt>0.5 kmh</cmt></trkpt>
<trkpt lat="58.780622" lon="05.712987"><ele>26</ele><time>2012-03-25T16:02:49Z</time><cmt>0.5 kmh</cmt></trkpt>
<trkpt lat="58.780621" lon="05.712989"><ele>26</ele><time>2012-03-25T16:02:50Z</time><cmt>0.5 kmh</cmt></trkpt>
<trkpt lat="58.780620" lon="05.712990"><ele>26</ele><time>2012-03-25T16:02:51Z</time><cmt>0.5 kmh</cmt></trkpt>
<trkpt lat="58.780619" lon="05.712992"><ele>26</ele><time>2012-03-25T16:02:52Z</time><cmt>0.6 kmh</cmt></trkpt>
<trkpt lat="58.780618" lon="05.712994"><ele>26</ele><time>2012-03-25T16:02:52Z</time><cmt>0.7 kmh</cmt></trkpt>
<trkpt lat="58.780617" lon="05.712995"><ele>26</ele><time>2012-03-25T16:02:53Z</time><cmt>0.6 kmh</cmt></trkpt>
<trkpt lat="58.780616" lon="05.712997"><ele>26</ele><time>2012-03-25T16:02:55Z</time><cmt>0.5 kmh</cmt></trkpt>
<trkpt lat="58.780615" lon="05.712998"><ele>26</ele><time>2012-03-25T16:02:56Z</time><cmt>0.6 kmh</cmt></trkpt>
<trkpt lat="58.780613" lon="05.713001"><ele>26</ele><time>2012-03-25T16:02:57Z</time><cmt>0.7 kmh</cmt></trkpt>
<trkpt lat="58.780612" lon="05.713003"><ele>26</ele><time>2012-03-25T16:02:58Z</time><cmt>0.7 kmh</cmt></trkpt>
<trkpt lat="58.780610" lon="05.713005"><ele>26</ele><time>2012-03-25T16:02:58Z</time><cmt>0.8 kmh</cmt></trkpt>
<trkpt lat="58.780609" lon="05.713007"><ele>26</ele><time>2012-03-25T16:02:59Z</time><cmt>0.9 kmh</cmt></trkpt>
<trkpt lat="58.780607" lon="05.713009"><ele>26</ele><time>2012-03-25T16:03:01Z</time><cmt>0.7 kmh</cmt></trkpt>
<trkpt lat="58.780605" lon="05.713011"><ele>26</ele><time>2012-03-25T16:03:02Z</time><cmt>0.7 kmh</cmt></trkpt>
<trkpt lat="58.780603" lon="05.713013"><ele>26</ele><time>2012-03-25T16:03:03Z</time><cmt>0.9 kmh</cmt></trkpt>
<trkpt lat="58.780600" lon="05.713015"><ele>26</ele><time>2012-03-25T16:03:04Z</time><cmt>0.9 kmh</cmt></trkpt>
<trkpt lat="58.780598" lon="05.713018"><ele>26</ele><time>2012-03-25T16:03:05Z</time><cmt>1.0 kmh</cmt></trkpt>
<trkpt lat="58.780596" lon="05.713020"><ele>26</ele><time>2012-03-25T16:03:05Z</time><cmt>1.0 kmh</cmt></trkpt>
<trkpt lat="58.780594" lon="05.713021"><ele>26</ele><time>2012-03-25T16:03:06Z</time><cmt>1.0 kmh</cmt></trkpt>
<trkpt lat="58.780592" lon="05.713023"><ele>26</ele><time>2012-03-25T16:03:08Z</time><cmt>0.8 kmh</cmt></trkpt>
<trkpt lat="58.780590" lon="05.713025"><ele>26</ele><time>2012-03-25T16:03:09Z</time><cmt>0.8 kmh</cmt></trkpt>
<trkpt lat="58.780588" lon="05.713027"><ele>26</ele><time>2012-03-25T16:03:10Z</time><cmt>1.0 kmh</cmt></trkpt>
<trkpt lat="58.780586" lon="05.713029"><ele>26</ele><time>2012-03-25T16:03:11Z</time><cmt>1.0 kmh</cmt></trkpt>
<trkpt lat="58.780584" lon="05.713030"><ele>26</ele><time>2012-03-25T16:03:11Z</time><cmt>0.9 kmh</cmt></trkpt>
<trkpt lat="58.780582" lon="05.713032"><ele>26</ele><time>2012-03-25T16:03:12Z</time><cmt>0.8 kmh</cmt></trkpt>
<trkpt lat="58.780580" lon="05.713033"><ele>26</ele><time>2012-03-25T16:03:14Z</time><cmt>0.7 kmh</cmt></trkpt>
<trkpt lat="58.780578" lon="05.713035"><ele>26</ele><time>2012-03-25T16:03:15Z</time><cmt>0.6 kmh</cmt></trkpt>
<trkpt lat="58.780577" lon="05.713037"><ele>26</ele><time>2012-03-25T16:03:16Z</time><cmt>0.7 kmh</cmt></trkpt>
<trkpt lat="58.780575" lon="05.713038"><ele>26</ele><time>2012-03-25T16:03:17Z</time><cmt>0.8 kmh</cmt></trkpt>
<trkpt lat="58.780573" lon="05.713039"><ele>26</ele><time>2012-03-25T16:03:17Z</time><cmt>0.9 kmh</cmt></trkpt>
<trkpt lat="58.780571" lon="05.713040"><ele>26</ele><time>2012-03-25T16:03:18Z</time><cmt>0.9 kmh</cmt></trkpt>
<trkpt lat="58.780569" lon="05.713042"><ele>26</ele><time>2012-03-25T16:03:20Z</time><cmt>0.7 kmh</cmt></trkpt>
<trkpt lat="58.780566" lon="05.713043"><ele>26</ele><time>2012-03-25T16:03:21Z</time><cmt>0.8 kmh</cmt></trkpt>
<trkpt lat="58.780564" lon="05.713044"><ele>26</ele><time>2012-03-25T16:03:22Z</time><cmt>1.0 kmh</cmt></trkpt>
<trkpt lat="58.780563" lon="05.713046"><ele>26</ele><time>2012-03-25T16:03:23Z</time><cmt>1.0 kmh</cmt></trkpt>
<trkpt lat="58.780561" lon="05.713047"><ele>26</ele><time>2012-03-25T16:03:23Z</time><cmt>0.9 kmh</cmt></trkpt>
<trkpt lat="58.780559" lon="05.713049"><ele>26</ele><time>2012-03-25T16:03:24Z</time><cmt>0.9 kmh</cmt></trkpt>
<trkpt lat="58.780557" lon="05.713050"><ele>26</ele><time>2012-03-25T16:03:26Z</time><cmt>0.7 kmh</cmt></trkpt>
<trkpt lat="58.780556" lon="05.713052"><ele>26</ele><time>2012-03-25T16:03:27Z</time><cmt>0.7 kmh</cmt></trkpt>
<trkpt lat="58.780554" lon="05.713054"><ele>26</ele><time>2012-03-25T16:03:28Z</time><cmt>0.8 kmh</cmt></trkpt>
<trkpt lat="58.780553" lon="05.713056"><ele>26</ele><time>2012-03-25T16:03:29Z</time><cmt>0.7 kmh</cmt></trkpt>
<trkpt lat="58.780552" lon="05.713058"><ele>26</ele><time>2012-03-25T16:03:29Z</time><cmt>0.7 kmh</cmt></trkpt>
<trkpt lat="58.780550" lon="05.713059"><ele>26</ele><time>2012-03-25T16:03:30Z</time><cmt>0.7 kmh</cmt></trkpt>
<trkpt lat="58.780549" lon="05.713060"><ele>26</ele><time>2012-03-25T16:03:32Z</time><cmt>0.6 kmh</cmt></trkpt>
<trkpt lat="58.780547" lon="05.713062"><ele>26</ele><time>2012-03-25T16:03:33Z</time><cmt>0.6 kmh</cmt></trkpt>
<trkpt lat="58.780546" lon="05.713063"><ele>26</ele><time>2012-03-25T16:03:34Z</time><cmt>0.7 kmh</cmt></trkpt>
<trkpt lat="58.780544" lon="05.713065"><ele>26</ele><time>2012-03-25T16:03:35Z</time><cmt>0.7 kmh</cmt></trkpt>
<trkpt lat="58.780543" lon="05.713066"><ele>26</ele><time>2012-03-25T16:03:35Z</time><cmt>0.7 kmh</cmt></trkpt>
<trkpt lat="58.780541" lon="05.713067"><ele>26</ele><time>2012-03-25T16:03:36Z</time><cmt>0.7 kmh</cmt></trkpt>
<trkpt lat="58.780540" lon="05.713069"><ele>26</ele><time>2012-03-25T16:03:38Z</time><cmt>0.5 kmh</cmt></trkpt>
<trkpt lat="58.780539" lon="05.713070"><ele>26</ele><time>2012-03-25T16:03:39Z</time><cmt>0.4 kmh</cmt></trkpt>
<trkpt lat="58.780538" lon="05.713071"><ele>26</ele><time>2012-03-25T16:03:40Z</time><cmt>0.4 kmh</cmt></trkpt>
<trkpt lat="58.780537" lon="05.713072"><ele>26</ele><time>2012-03-25T16:03:41Z</time><cmt>0.6 kmh</cmt></trkpt>
<trkpt lat="58.780535" lon="05.713074"><ele>26</ele><time>2012-03-25T16:03:42Z</time><cmt>0.7 kmh</cmt></trkpt>
<trkpt lat="58.780534" lon="05.713075"><ele>26</ele><time>2012-03-25T16:03:42Z</time><cmt>0.6 kmh</cmt></trkpt>
<trkpt lat="58.780533" lon="05.713076"><ele>26</ele><time>2012-03-25T16:03:43Z</time><cmt>0.5 kmh</cmt></trkpt>
<trkpt lat="58.780532" lon="05.713078"><ele>25</ele><time>2012-03-25T16:03:45Z</time><cmt>0.5 kmh</cmt></trkpt>
<trkpt lat="58.780530" lon="05.713079"><ele>25</ele><time>2012-03-25T16:03:46Z</time><cmt>0.6 kmh</cmt></trkpt>
<trkpt lat="58.780529" lon="05.713080"><ele>25</ele><time>2012-03-25T16:03:47Z</time><cmt>0.6 kmh</cmt></trkpt>
<trkpt lat="58.780528" lon="05.713082"><ele>25</ele><time>2012-03-25T16:03:48Z</time><cmt>0.6 kmh</cmt></trkpt>
<trkpt lat="58.780527" lon="05.713084"><ele>25</ele><time>2012-03-25T16:03:48Z</time><cmt>0.7 kmh</cmt></trkpt>
<trkpt lat="58.780526" lon="05.713085"><ele>25</ele><time>2012-03-25T16:03:49Z</time><cmt>0.7 kmh</cmt></trkpt>
<trkpt lat="58.780525" lon="05.713087"><ele>25</ele><time>2012-03-25T16:03:51Z</time><cmt>0.5 kmh</cmt></trkpt>
<trkpt lat="58.780524" lon="05.713088"><ele>25</ele><time>2012-03-25T16:03:52Z</time><cmt>0.4 kmh</cmt></trkpt>
<trkpt lat="58.780522" lon="05.713090"><ele>25</ele><time>2012-03-25T16:03:53Z</time><cmt>0.5 kmh</cmt></trkpt>
<trkpt lat="58.780521" lon="05.713092"><ele>25</ele><time>2012-03-25T16:03:54Z</time><cmt>0.5 kmh</cmt></trkpt>
<trkpt lat="58.780520" lon="05.713093"><ele>25</ele><time>2012-03-25T16:03:54Z</time><cmt>0.6 kmh</cmt></trkpt>
<trkpt lat="58.780519" lon="05.713095"><ele>25</ele><time>2012-03-25T16:03:55Z</time><cmt>0.7 kmh</cmt></trkpt>
<trkpt lat="58.780517" lon="05.713096"><ele>25</ele><time>2012-03-25T16:03:57Z</time><cmt>0.5 kmh</cmt></trkpt>
<trkpt lat="58.780516" lon="05.713098"><ele>25</ele><time>2012-03-25T16:03:58Z</time><cmt>0.4 kmh</cmt></trkpt>
<trkpt lat="58.780515" lon="05.713100"><ele>25</ele><time>2012-03-25T16:03:59Z</time><cmt>0.6 kmh</cmt></trkpt>
<trkpt lat="58.780513" lon="05.713102"><ele>25</ele><time>2012-03-25T16:04:00Z</time><cmt>0.7 kmh</cmt></trkpt>
<trkpt lat="58.780512" lon="05.713103"><ele>25</ele><time>2012-03-25T16:04:00Z</time><cmt>0.6 kmh</cmt></trkpt>
<trkpt lat="58.780511" lon="05.713105"><ele>25</ele><time>2012-03-25T16:04:01Z</time><cmt>0.6 kmh</cmt></trkpt>
<trkpt lat="58.780509" lon="05.713106"><ele>25</ele><time>2012-03-25T16:04:03Z</time><cmt>0.6 kmh</cmt></trkpt>
<trkpt lat="58.780508" lon="05.713107"><ele>25</ele><time>2012-03-25T16:04:04Z</time><cmt>0.6 kmh</cmt></trkpt>
<trkpt lat="58.780506" lon="05.713108"><ele>25</ele><time>2012-03-25T16:04:05Z</time><cmt>0.7 kmh</cmt></trkpt>
<trkpt lat="58.780504" lon="05.713110"><ele>25</ele><time>2012-03-25T16:04:06Z</time><cmt>0.8 kmh</cmt></trkpt>
<trkpt lat="58.780503" lon="05.713111"><ele>25</ele><time>2012-03-25T16:04:06Z</time><cmt>0.8 kmh</cmt></trkpt>
<trkpt lat="58.780501" lon="05.713113"><ele>25</ele><time>2012-03-25T16:04:07Z</time><cmt>0.7 kmh</cmt></trkpt>
<trkpt lat="58.780499" lon="05.713114"><ele>25</ele><time>2012-03-25T16:04:08Z</time><cmt>0.8 kmh</cmt></trkpt>
<trkpt lat="58.780498" lon="05.713116"><ele>25</ele><time>2012-03-25T16:04:10Z</time><cmt>0.7 kmh</cmt></trkpt>
<trkpt lat="58.780496" lon="05.713117"><ele>25</ele><time>2012-03-25T16:04:11Z</time><cmt>0.6 kmh</cmt></trkpt>
<trkpt lat="58.780494" lon="05.713119"><ele>25</ele><time>2012-03-25T16:04:12Z</time><cmt>0.8 kmh</cmt></trkpt>
<trkpt lat="58.780493" lon="05.713120"><ele>25</ele><time>2012-03-25T16:04:13Z</time><cmt>0.9 kmh</cmt></trkpt>
<trkpt lat="58.780491" lon="05.713122"><ele>25</ele><time>2012-03-25T16:04:13Z</time><cmt>0.8 kmh</cmt></trkpt>
<trkpt lat="58.780489" lon="05.713123"><ele>25</ele><time>2012-03-25T16:04:14Z</time><cmt>0.8 kmh</cmt></trkpt>
<trkpt lat="58.780488" lon="05.713125"><ele>25</ele><time>2012-03-25T16:04:16Z</time><cmt>0.6 kmh</cmt></trkpt>
<trkpt lat="58.780486" lon="05.713126"><ele>25</ele><time>2012-03-25T16:04:17Z</time><cmt>0.6 kmh</cmt></trkpt>
<trkpt lat="58.780485" lon="05.713128"><ele>25</ele><time>2012-03-25T16:04:18Z</time><cmt>0.7 kmh</cmt></trkpt>
<trkpt lat="58.780484" lon="05.713129"><ele>25</ele><time>2012-03-25T16:04:19Z</time><cmt>0.7 kmh</cmt></trkpt>
<trkpt lat="58.780482" lon="05.713131"><ele>25</ele><time>2012-03-25T16:04:19Z</time><cmt>0.7 kmh</cmt></trkpt>
<trkpt lat="58.780481" lon="05.713132"><ele>25</ele><time>2012-03-25T16:04:20Z</time><cmt>0.6 kmh</cmt></trkpt>
<trkpt lat="58.780480" lon="05.713133"><ele>25</ele><time>2012-03-25T16:04:22Z</time><cmt>0.5 kmh</cmt></trkpt>
<trkpt lat="58.780478" lon="05.713134"><ele>25</ele><time>2012-03-25T16:04:23Z</time><cmt>0.5 kmh</cmt></trkpt>
<trkpt lat="58.780477" lon="05.713135"><ele>25</ele><time>2012-03-25T16:04:24Z</time><cmt>0.6 kmh</cmt></trkpt>
<trkpt lat="58.780475" lon="05.713136"><ele>25</ele><time>2012-03-25T16:04:25Z</time><cmt>0.8 kmh</cmt></trkpt>
<trkpt lat="58.780473" lon="05.713136"><ele>25</ele><time>2012-03-25T16:04:25Z</time><cmt>0.8 kmh</cmt></trkpt>
<trkpt lat="58.780471" lon="05.713137"><ele>25</ele><time>2012-03-25T16:04:26Z</time><cmt>0.7 kmh</cmt></trkpt>
<trkpt lat="58.780470" lon="05.713139"><ele>25</ele><time>2012-03-25T16:04:28Z</time><cmt>0.6 kmh</cmt></trkpt>
<trkpt lat="58.780468" lon="05.713140"><ele>25</ele><time>2012-03-25T16:04:29Z</time><cmt>0.6 kmh</cmt></trkpt>
<trkpt lat="58.780467" lon="05.713141"><ele>25</ele><time>2012-03-25T16:04:30Z</time><cmt>0.7 kmh</cmt></trkpt>
<trkpt lat="58.780465" lon="05.713143"><ele>25</ele><time>2012-03-25T16:04:31Z</time><cmt>0.7 kmh</cmt></trkpt>
<trkpt lat="58.780464" lon="05.713144"><ele>25</ele><time>2012-03-25T16:04:31Z</time><cmt>0.6 kmh</cmt></trkpt>
<trkpt lat="58.780463" lon="05.713144"><ele>25</ele><time>2012-03-25T16:04:32Z</time><cmt>0.5 kmh</cmt></trkpt>
<trkpt lat="58.780461" lon="05.713145"><ele>25</ele><time>2012-03-25T16:04:34Z</time><cmt>0.5 kmh</cmt></trkpt>
<trkpt lat="58.780460" lon="05.713146"><ele>25</ele><time>2012-03-25T16:04:35Z</time><cmt>0.6 kmh</cmt></trkpt>
<trkpt lat="58.780458" lon="05.713148"><ele>26</ele><time>2012-03-25T16:04:36Z</time><cmt>0.7 kmh</cmt></trkpt>
<trkpt lat="58.780456" lon="05.713149"><ele>26</ele><time>2012-03-25T16:04:37Z</time><cmt>0.7 kmh</cmt></trkpt>
<trkpt lat="58.780455" lon="05.713149"><ele>26</ele><time>2012-03-25T16:04:37Z</time><cmt>0.6 kmh</cmt></trkpt>
<trkpt lat="58.780453" lon="05.713151"><ele>26</ele><time>2012-03-25T16:04:38Z</time><cmt>0.6 kmh</cmt></trkpt>
<trkpt lat="58.780451" lon="05.713151"><ele>26</ele><time>2012-03-25T16:04:40Z</time><cmt>0.6 kmh</cmt></trkpt>
<trkpt lat="58.780450" lon="05.713153"><ele>26</ele><time>2012-03-25T16:04:41Z</time><cmt>0.7 kmh</cmt></trkpt>
<trkpt lat="58.780448" lon="05.713155"><ele>26</ele><time>2012-03-25T16:04:42Z</time><cmt>0.8 kmh</cmt></trkpt>
<trkpt lat="58.780446" lon="05.713157"><ele>26</ele><time>2012-03-25T16:04:43Z</time><cmt>0.8 kmh</cmt></trkpt>
<trkpt lat="58.780445" lon="05.713158"><ele>26</ele><time>2012-03-25T16:04:44Z</time><cmt>0.9 kmh</cmt></trkpt>
<trkpt lat="58.780443" lon="05.713159"><ele>26</ele><time>2012-03-25T16:04:44Z</time><cmt>0.9 kmh</cmt></trkpt>
<trkpt lat="58.780441" lon="05.713160"><ele>26</ele><time>2012-03-25T16:04:45Z</time><cmt>0.9 kmh</cmt></trkpt>
<trkpt lat="58.780439" lon="05.713161"><ele>26</ele><time>2012-03-25T16:04:47Z</time><cmt>0.7 kmh</cmt></trkpt>
<trkpt lat="58.780437" lon="05.713162"><ele>26</ele><time>2012-03-25T16:04:48Z</time><cmt>0.7 kmh</cmt></trkpt>
<trkpt lat="58.780436" lon="05.713162"><ele>26</ele><time>2012-03-25T16:04:49Z</time><cmt>0.8 kmh</cmt></trkpt>
<trkpt lat="58.780434" lon="05.713164"><ele>26</ele><time>2012-03-25T16:04:50Z</time><cmt>0.8 kmh</cmt></trkpt>
<trkpt lat="58.780432" lon="05.713166"><ele>26</ele><time>2012-03-25T16:04:50Z</time><cmt>0.8 kmh</cmt></trkpt>
<trkpt lat="58.780431" lon="05.713167"><ele>26</ele><time>2012-03-25T16:04:51Z</time><cmt>0.7 kmh</cmt></trkpt>
<trkpt lat="58.780429" lon="05.713169"><ele>26</ele><time>2012-03-25T16:04:53Z</time><cmt>0.6 kmh</cmt></trkpt>
<trkpt lat="58.780428" lon="05.713170"><ele>26</ele><time>2012-03-25T16:04:54Z</time><cmt>0.6 kmh</cmt></trkpt>
<trkpt lat="58.780427" lon="05.713171"><ele>26</ele><time>2012-03-25T16:04:55Z</time><cmt>0.7 kmh</cmt></trkpt>
<trkpt lat="58.780425" lon="05.713172"><ele>26</ele><time>2012-03-25T16:04:56Z</time><cmt>0.7 kmh</cmt></trkpt>
<trkpt lat="58.780424" lon="05.713173"><ele>26</ele><time>2012-03-25T16:04:56Z</time><cmt>0.7 kmh</cmt></trkpt>
<trkpt lat="58.780423" lon="05.713175"><ele>26</ele><time>2012-03-25T16:04:57Z</time><cmt>0.6 kmh</cmt></trkpt>
<trkpt lat="58.780421" lon="05.713177"><ele>26</ele><time>2012-03-25T16:04:59Z</time><cmt>0.6 kmh</cmt></trkpt>
<trkpt lat="58.780420" lon="05.713179"><ele>26</ele><time>2012-03-25T16:05:00Z</time><cmt>0.6 kmh</cmt></trkpt>
<trkpt lat="58.780419" lon="05.713181"><ele>26</ele><time>2012-03-25T16:05:01Z</time><cmt>0.7 kmh</cmt></trkpt>
<trkpt lat="58.780417" lon="05.713182"><ele>26</ele><time>2012-03-25T16:05:02Z</time><cmt>0.8 kmh</cmt></trkpt>
<trkpt lat="58.780416" lon="05.713184"><ele>26</ele><time>2012-03-25T16:05:02Z</time><cmt>0.8 kmh</cmt></trkpt>
<trkpt lat="58.780414" lon="05.713186"><ele>26</ele><time>2012-03-25T16:05:03Z</time><cmt>0.7 kmh</cmt></trkpt>
<trkpt lat="58.780414" lon="05.713189"><ele>26</ele><time>2012-03-25T16:05:05Z</time><cmt>0.6 kmh</cmt></trkpt>
<trkpt lat="58.780416" lon="05.713194"><ele>26</ele><time>2012-03-25T16:05:06Z</time><cmt>0.9 kmh</cmt></trkpt>
<trkpt lat="58.780420" lon="05.713202"><ele>26</ele><time>2012-03-25T16:05:07Z</time><cmt>1.9 kmh</cmt></trkpt>
<trkpt lat="58.780425" lon="05.713209"><ele>26</ele><time>2012-03-25T16:05:08Z</time><cmt>2.6 kmh</cmt></trkpt>
<trkpt lat="58.780433" lon="05.713217"><ele>26</ele><time>2012-03-25T16:05:08Z</time><cmt>3.3 kmh</cmt></trkpt>
<trkpt lat="58.780442" lon="05.713223"><ele>26</ele><time>2012-03-25T16:05:09Z</time><cmt>3.8 kmh</cmt></trkpt>
<trkpt lat="58.780452" lon="05.713226"><ele>26</ele><time>2012-03-25T16:05:11Z</time><cmt>3.4 kmh</cmt></trkpt>
<trkpt lat="58.780463" lon="05.713225"><ele>26</ele><time>2012-03-25T16:05:12Z</time><cmt>3.7 kmh</cmt></trkpt>
<trkpt lat="58.780475" lon="05.713221"><ele>26</ele><time>2012-03-25T16:05:13Z</time><cmt>4.9 kmh</cmt></trkpt>
<trkpt lat="58.780486" lon="05.713213"><ele>26</ele><time>2012-03-25T16:05:14Z</time><cmt>5.5 kmh</cmt></trkpt>
<trkpt lat="58.780498" lon="05.713201"><ele>26</ele><time>2012-03-25T16:05:15Z</time><cmt>5.5 kmh</cmt></trkpt>
<trkpt lat="58.780510" lon="05.713185"><ele>26</ele><time>2012-03-25T16:05:15Z</time><cmt>5.6 kmh</cmt></trkpt>
<trkpt lat="58.780520" lon="05.713166"><ele>26</ele><time>2012-03-25T16:05:16Z</time><cmt>5.9 kmh</cmt></trkpt>
<trkpt lat="58.780529" lon="05.713143"><ele>26</ele><time>2012-03-25T16:05:18Z</time><cmt>5.7 kmh</cmt></trkpt>
<trkpt lat="58.780536" lon="05.713118"><ele>26</ele><time>2012-03-25T16:05:19Z</time><cmt>6.0 kmh</cmt></trkpt>
<trkpt lat="58.780542" lon="05.713091"><ele>26</ele><time>2012-03-25T16:05:20Z</time><cmt>5.8 kmh</cmt></trkpt>
<trkpt lat="58.780547" lon="05.713062"><ele>26</ele><time>2012-03-25T16:05:21Z</time><cmt>6.4 kmh</cmt></trkpt>
<trkpt lat="58.780550" lon="05.713030"><ele>26</ele><time>2012-03-25T16:05:21Z</time><cmt>6.7 kmh</cmt></trkpt>
<trkpt lat="58.780553" lon="05.712998"><ele>26</ele><time>2012-03-25T16:05:22Z</time><cmt>6.6 kmh</cmt></trkpt>
<trkpt lat="58.780554" lon="05.712965"><ele>26</ele><time>2012-03-25T16:05:24Z</time><cmt>6.7 kmh</cmt></trkpt>
<trkpt lat="58.780554" lon="05.712932"><ele>26</ele><time>2012-03-25T16:05:25Z</time><cmt>6.7 kmh</cmt></trkpt>
<trkpt lat="58.780552" lon="05.712898"><ele>26</ele><time>2012-03-25T16:05:26Z</time><cmt>6.8 kmh</cmt></trkpt>
<trkpt lat="58.780549" lon="05.712863"><ele>26</ele><time>2012-03-25T16:05:27Z</time><cmt>7.2 kmh</cmt></trkpt>
<trkpt lat="58.780547" lon="05.712828"><ele>26</ele><time>2012-03-25T16:05:27Z</time><cmt>7.1 kmh</cmt></trkpt>
<trkpt lat="58.780543" lon="05.712793"><ele>26</ele><time>2012-03-25T16:05:28Z</time><cmt>7.2 kmh</cmt></trkpt>
<trkpt lat="58.780540" lon="05.712758"><ele>26</ele><time>2012-03-25T16:05:30Z</time><cmt>7.1 kmh</cmt></trkpt>
<trkpt lat="58.780536" lon="05.712723"><ele>25</ele><time>2012-03-25T16:05:31Z</time><cmt>7.2 kmh</cmt></trkpt>
<trkpt lat="58.780533" lon="05.712689"><ele>25</ele><time>2012-03-25T16:05:32Z</time><cmt>7.1 kmh</cmt></trkpt>
<trkpt lat="58.780531" lon="05.712654"><ele>25</ele><time>2012-03-25T16:05:33Z</time><cmt>7.4 kmh</cmt></trkpt>
<trkpt lat="58.780528" lon="05.712618"><ele>25</ele><time>2012-03-25T16:05:33Z</time><cmt>7.2 kmh</cmt></trkpt>
<trkpt lat="58.780525" lon="05.712582"><ele>25</ele><time>2012-03-25T16:05:34Z</time><cmt>7.5 kmh</cmt></trkpt>
<trkpt lat="58.780522" lon="05.712545"><ele>25</ele><time>2012-03-25T16:05:36Z</time><cmt>7.3 kmh</cmt></trkpt>
<trkpt lat="58.780518" lon="05.712511"><ele>25</ele><time>2012-03-25T16:05:37Z</time><cmt>7.1 kmh</cmt></trkpt>
<trkpt lat="58.780514" lon="05.712477"><ele>25</ele><time>2012-03-25T16:05:38Z</time><cmt>6.9 kmh</cmt></trkpt>
<trkpt lat="58.780511" lon="05.712444"><ele>25</ele><time>2012-03-25T16:05:39Z</time><cmt>6.8 kmh</cmt></trkpt>
<trkpt lat="58.780507" lon="05.712411"><ele>25</ele><time>2012-03-25T16:05:39Z</time><cmt>6.8 kmh</cmt></trkpt>
<trkpt lat="58.780502" lon="05.712379"><ele>25</ele><time>2012-03-25T16:05:40Z</time><cmt>6.7 kmh</cmt></trkpt>
<trkpt lat="58.780498" lon="05.712347"><ele>25</ele><time>2012-03-25T16:05:42Z</time><cmt>6.7 kmh</cmt></trkpt>
<trkpt lat="58.780494" lon="05.712315"><ele>25</ele><time>2012-03-25T16:05:43Z</time><cmt>6.8 kmh</cmt></trkpt>
<trkpt lat="58.780489" lon="05.712282"><ele>25</ele><time>2012-03-25T16:05:44Z</time><cmt>6.8 kmh</cmt></trkpt>
<trkpt lat="58.780485" lon="05.712250"><ele>25</ele><time>2012-03-25T16:05:45Z</time><cmt>6.8 kmh</cmt></trkpt>
<trkpt lat="58.780480" lon="05.712218"><ele>25</ele><time>2012-03-25T16:05:46Z</time><cmt>6.9 kmh</cmt></trkpt>
<trkpt lat="58.780475" lon="05.712185"><ele>25</ele><time>2012-03-25T16:05:46Z</time><cmt>6.9 kmh</cmt></trkpt>
<trkpt lat="58.780470" lon="05.712152"><ele>25</ele><time>2012-03-25T16:05:47Z</time><cmt>6.8 kmh</cmt></trkpt>
<trkpt lat="58.780464" lon="05.712120"><ele>25</ele><time>2012-03-25T16:05:49Z</time><cmt>6.7 kmh</cmt></trkpt>
<trkpt lat="58.780459" lon="05.712089"><ele>25</ele><time>2012-03-25T16:05:50Z</time><cmt>6.8 kmh</cmt></trkpt>
<trkpt lat="58.780453" lon="05.712056"><ele>25</ele><time>2012-03-25T16:05:51Z</time><cmt>6.9 kmh</cmt></trkpt>
<trkpt lat="58.780448" lon="05.712024"><ele>25</ele><time>2012-03-25T16:05:52Z</time><cmt>6.7 kmh</cmt></trkpt>
<trkpt lat="58.780443" lon="05.711991"><ele>25</ele><time>2012-03-25T16:05:52Z</time><cmt>7.2 kmh</cmt></trkpt>
<trkpt lat="58.780438" lon="05.711957"><ele>25</ele><time>2012-03-25T16:05:53Z</time><cmt>6.8 kmh</cmt></trkpt>
<trkpt lat="58.780434" lon="05.711924"><ele>25</ele><time>2012-03-25T16:05:55Z</time><cmt>7.2 kmh</cmt></trkpt>
<trkpt lat="58.780429" lon="05.711890"><ele>24</ele><time>2012-03-25T16:05:56Z</time><cmt>6.8 kmh</cmt></trkpt>
<trkpt lat="58.780424" lon="05.711857"><ele>24</ele><time>2012-03-25T16:05:57Z</time><cmt>7.2 kmh</cmt></trkpt>
<trkpt lat="58.780419" lon="05.711823"><ele>24</ele><time>2012-03-25T16:05:58Z</time><cmt>7.2 kmh</cmt></trkpt>
<trkpt lat="58.780414" lon="05.711789"><ele>24</ele><time>2012-03-25T16:05:58Z</time><cmt>7.4 kmh</cmt></trkpt>
<trkpt lat="58.780409" lon="05.711754"><ele>24</ele><time>2012-03-25T16:05:59Z</time><cmt>7.2 kmh</cmt></trkpt>
<trkpt lat="58.780404" lon="05.711720"><ele>24</ele><time>2012-03-25T16:06:01Z</time><cmt>7.4 kmh</cmt></trkpt>
<trkpt lat="58.780399" lon="05.711685"><ele>24</ele><time>2012-03-25T16:06:02Z</time><cmt>7.4 kmh</cmt></trkpt>
<trkpt lat="58.780394" lon="05.711650"><ele>24</ele><time>2012-03-25T16:06:03Z</time><cmt>7.2 kmh</cmt></trkpt>
<trkpt lat="58.780389" lon="05.711615"><ele>24</ele><time>2012-03-25T16:06:04Z</time><cmt>7.3 kmh</cmt></trkpt>
<trkpt lat="58.780385" lon="05.711580"><ele>24</ele><time>2012-03-25T16:06:04Z</time><cmt>7.1 kmh</cmt></trkpt>
<trkpt lat="58.780381" lon="05.711545"><ele>24</ele><time>2012-03-25T16:06:05Z</time><cmt>7.6 kmh</cmt></trkpt>
<trkpt lat="58.780377" lon="05.711510"><ele>24</ele><time>2012-03-25T16:06:07Z</time><cmt>7.2 kmh</cmt></trkpt>
<trkpt lat="58.780372" lon="05.711475"><ele>24</ele><time>2012-03-25T16:06:08Z</time><cmt>7.6 kmh</cmt></trkpt>
<trkpt lat="58.780368" lon="05.711440"><ele>24</ele><time>2012-03-25T16:06:09Z</time><cmt>7.3 kmh</cmt></trkpt>
<trkpt lat="58.780364" lon="05.711404"><ele>24</ele><time>2012-03-25T16:06:10Z</time><cmt>7.6 kmh</cmt></trkpt>
<trkpt lat="58.780359" lon="05.711369"><ele>24</ele><time>2012-03-25T16:06:10Z</time><cmt>7.5 kmh</cmt></trkpt>
<trkpt lat="58.780354" lon="05.711333"><ele>24</ele><time>2012-03-25T16:06:11Z</time><cmt>7.5 kmh</cmt></trkpt>
<trkpt lat="58.780349" lon="05.711298"><ele>24</ele><time>2012-03-25T16:06:13Z</time><cmt>7.6 kmh</cmt></trkpt>
<trkpt lat="58.780343" lon="05.711263"><ele>24</ele><time>2012-03-25T16:06:14Z</time><cmt>7.5 kmh</cmt></trkpt>
<trkpt lat="58.780337" lon="05.711227"><ele>24</ele><time>2012-03-25T16:06:15Z</time><cmt>7.7 kmh</cmt></trkpt>
<trkpt lat="58.780332" lon="05.711191"><ele>24</ele><time>2012-03-25T16:06:16Z</time><cmt>7.6 kmh</cmt></trkpt>
<trkpt lat="58.780326" lon="05.711155"><ele>24</ele><time>2012-03-25T16:06:17Z</time><cmt>7.7 kmh</cmt></trkpt>
<trkpt lat="58.780321" lon="05.711120"><ele>24</ele><time>2012-03-25T16:06:17Z</time><cmt>7.4 kmh</cmt></trkpt>
<trkpt lat="58.780315" lon="05.711084"><ele>24</ele><time>2012-03-25T16:06:18Z</time><cmt>7.6 kmh</cmt></trkpt>
<trkpt lat="58.780310" lon="05.711049"><ele>24</ele><time>2012-03-25T16:06:20Z</time><cmt>7.2 kmh</cmt></trkpt>
<trkpt lat="58.780305" lon="05.711015"><ele>24</ele><time>2012-03-25T16:06:21Z</time><cmt>7.3 kmh</cmt></trkpt>
<trkpt lat="58.780299" lon="05.710981"><ele>24</ele><time>2012-03-25T16:06:22Z</time><cmt>7.4 kmh</cmt></trkpt>
<trkpt lat="58.780292" lon="05.710946"><ele>24</ele><time>2012-03-25T16:06:23Z</time><cmt>7.7 kmh</cmt></trkpt>
<trkpt lat="58.780285" lon="05.710911"><ele>24</ele><time>2012-03-25T16:06:23Z</time><cmt>7.7 kmh</cmt></trkpt>
<trkpt lat="58.780278" lon="05.710876"><ele>24</ele><time>2012-03-25T16:06:24Z</time><cmt>7.8 kmh</cmt></trkpt>
<trkpt lat="58.780270" lon="05.710841"><ele>24</ele><time>2012-03-25T16:06:26Z</time><cmt>7.7 kmh</cmt></trkpt>
<trkpt lat="58.780261" lon="05.710807"><ele>24</ele><time>2012-03-25T16:06:27Z</time><cmt>7.5 kmh</cmt></trkpt>
<trkpt lat="58.780253" lon="05.710773"><ele>24</ele><time>2012-03-25T16:06:28Z</time><cmt>7.6 kmh</cmt></trkpt>
<trkpt lat="58.780245" lon="05.710738"><ele>24</ele><time>2012-03-25T16:06:29Z</time><cmt>7.5 kmh</cmt></trkpt>
<trkpt lat="58.780237" lon="05.710705"><ele>24</ele><time>2012-03-25T16:06:29Z</time><cmt>7.3 kmh</cmt></trkpt>
<trkpt lat="58.780230" lon="05.710673"><ele>24</ele><time>2012-03-25T16:06:30Z</time><cmt>7.1 kmh</cmt></trkpt>
<trkpt lat="58.780222" lon="05.710640"><ele>24</ele><time>2012-03-25T16:06:32Z</time><cmt>7.3 kmh</cmt></trkpt>
<trkpt lat="58.780215" lon="05.710607"><ele>24</ele><time>2012-03-25T16:06:33Z</time><cmt>7.2 kmh</cmt></trkpt>
<trkpt lat="58.780208" lon="05.710573"><ele>24</ele><time>2012-03-25T16:06:34Z</time><cmt>7.5 kmh</cmt></trkpt>
<trkpt lat="58.780201" lon="05.710538"><ele>24</ele><time>2012-03-25T16:06:35Z</time><cmt>7.6 kmh</cmt></trkpt>
<trkpt lat="58.780195" lon="05.710503"><ele>24</ele><time>2012-03-25T16:06:35Z</time><cmt>7.6 kmh</cmt></trkpt>
<trkpt lat="58.780188" lon="05.710468"><ele>24</ele><time>2012-03-25T16:06:36Z</time><cmt>7.6 kmh</cmt></trkpt>
<trkpt lat="58.780181" lon="05.710433"><ele>24</ele><time>2012-03-25T16:06:38Z</time><cmt>7.5 kmh</cmt></trkpt>
<trkpt lat="58.780175" lon="05.710398"><ele>24</ele><time>2012-03-25T16:06:39Z</time><cmt>7.7 kmh</cmt></trkpt>
<trkpt lat="58.780169" lon="05.710363"><ele>24</ele><time>2012-03-25T16:06:40Z</time><cmt>7.3 kmh</cmt></trkpt>
<trkpt lat="58.780164" lon="05.710328"><ele>24</ele><time>2012-03-25T16:06:41Z</time><cmt>7.7 kmh</cmt></trkpt>
<trkpt lat="58.780158" lon="05.710292"><ele>24</ele><time>2012-03-25T16:06:41Z</time><cmt>7.5 kmh</cmt></trkpt>
<trkpt lat="58.780152" lon="05.710257"><ele>24</ele><time>2012-03-25T16:06:42Z</time><cmt>7.6 kmh</cmt></trkpt>
<trkpt lat="58.780146" lon="05.710222"><ele>24</ele><time>2012-03-25T16:06:44Z</time><cmt>7.4 kmh</cmt></trkpt>
<trkpt lat="58.780139" lon="05.710187"><ele>24</ele><time>2012-03-25T16:06:45Z</time><cmt>7.5 kmh</cmt></trkpt>
<trkpt lat="58.780133" lon="05.710153"><ele>24</ele><time>2012-03-25T16:06:46Z</time><cmt>7.4 kmh</cmt></trkpt>
<trkpt lat="58.780126" lon="05.710120"><ele>24</ele><time>2012-03-25T16:06:47Z</time><cmt>7.0 kmh</cmt></trkpt>
<trkpt lat="58.780120" lon="05.710088"><ele>24</ele><time>2012-03-25T16:06:48Z</time><cmt>7.0 kmh</cmt></trkpt>
<trkpt lat="58.780113" lon="05.710056"><ele>24</ele><time>2012-03-25T16:06:48Z</time><cmt>7.0 kmh</cmt></trkpt>
<trkpt lat="58.780107" lon="05.710024"><ele>24</ele><time>2012-03-25T16:06:49Z</time><cmt>7.0 kmh</cmt></trkpt>
<trkpt lat="58.780101" lon="05.709991"><ele>24</ele><time>2012-03-25T16:06:51Z</time><cmt>7.0 kmh</cmt></trkpt>
<trkpt lat="58.780096" lon="05.709959"><ele>24</ele><time>2012-03-25T16:06:52Z</time><cmt>6.9 kmh</cmt></trkpt>
<trkpt lat="58.780090" lon="05.709926"><ele>24</ele><time>2012-03-25T16:06:53Z</time><cmt>7.2 kmh</cmt></trkpt>
<trkpt lat="58.780084" lon="05.709893"><ele>24</ele><time>2012-03-25T16:06:54Z</time><cmt>6.9 kmh</cmt></trkpt>
<trkpt lat="58.780078" lon="05.709860"><ele>24</ele><time>2012-03-25T16:06:54Z</time><cmt>7.0 kmh</cmt></trkpt>
<trkpt lat="58.780072" lon="05.709829"><ele>24</ele><time>2012-03-25T16:06:55Z</time><cmt>7.1 kmh</cmt></trkpt>
<trkpt lat="58.780065" lon="05.709796"><ele>24</ele><time>2012-03-25T16:06:57Z</time><cmt>7.3 kmh</cmt></trkpt>
<trkpt lat="58.780058" lon="05.709763"><ele>24</ele><time>2012-03-25T16:06:58Z</time><cmt>7.1 kmh</cmt></trkpt>
<trkpt lat="58.780051" lon="05.709731"><ele>24</ele><time>2012-03-25T16:06:59Z</time><cmt>6.9 kmh</cmt></trkpt>
<trkpt lat="58.780044" lon="05.709699"><ele>24</ele><time>2012-03-25T16:07:00Z</time><cmt>7.0 kmh</cmt></trkpt>
<trkpt lat="58.780037" lon="05.709668"><ele>24</ele><time>2012-03-25T16:07:00Z</time><cmt>6.9 kmh</cmt></trkpt>
<trkpt lat="58.780030" lon="05.709637"><ele>24</ele><time>2012-03-25T16:07:01Z</time><cmt>6.9 kmh</cmt></trkpt>
<trkpt lat="58.780022" lon="05.709607"><ele>24</ele><time>2012-03-25T16:07:03Z</time><cmt>6.7 kmh</cmt></trkpt>
<trkpt lat="58.780015" lon="05.709577"><ele>25</ele><time>2012-03-25T16:07:04Z</time><cmt>6.6 kmh</cmt></trkpt>
<trkpt lat="58.780008" lon="05.709549"><ele>25</ele><time>2012-03-25T16:07:05Z</time><cmt>6.2 kmh</cmt></trkpt>
<trkpt lat="58.780001" lon="05.709522"><ele>25</ele><time>2012-03-25T16:07:06Z</time><cmt>5.8 kmh</cmt></trkpt>
<trkpt lat="58.779995" lon="05.709497"><ele>25</ele><time>2012-03-25T16:07:06Z</time><cmt>5.5 kmh</cmt></trkpt>
<trkpt lat="58.779990" lon="05.709474"><ele>25</ele><time>2012-03-25T16:07:07Z</time><cmt>5.5 kmh</cmt></trkpt>
<trkpt lat="58.779985" lon="05.709452"><ele>25</ele><time>2012-03-25T16:07:09Z</time><cmt>4.4 kmh</cmt></trkpt>
<trkpt lat="58.779980" lon="05.709431"><ele>25</ele><time>2012-03-25T16:07:10Z</time><cmt>4.2 kmh</cmt></trkpt>
<trkpt lat="58.779975" lon="05.709412"><ele>25</ele><time>2012-03-25T16:07:11Z</time><cmt>4.9 kmh</cmt></trkpt>
<trkpt lat="58.779971" lon="05.709394"><ele>25</ele><time>2012-03-25T16:07:12Z</time><cmt>4.6 kmh</cmt></trkpt>
<trkpt lat="58.779967" lon="05.709377"><ele>25</ele><time>2012-03-25T16:07:12Z</time><cmt>4.4 kmh</cmt></trkpt>
<trkpt lat="58.779962" lon="05.709361"><ele>25</ele><time>2012-03-25T16:07:13Z</time><cmt>4.1 kmh</cmt></trkpt>
<trkpt lat="58.779958" lon="05.709345"><ele>25</ele><time>2012-03-25T16:07:15Z</time><cmt>3.2 kmh</cmt></trkpt>
<trkpt lat="58.779954" lon="05.709331"><ele>25</ele><time>2012-03-25T16:07:16Z</time><cmt>3.0 kmh</cmt></trkpt>
<trkpt lat="58.779950" lon="05.709317"><ele>25</ele><time>2012-03-25T16:07:17Z</time><cmt>3.6 kmh</cmt></trkpt>
<trkpt lat="58.779946" lon="05.709303"><ele>25</ele><time>2012-03-25T16:07:18Z</time><cmt>3.5 kmh</cmt></trkpt>
<trkpt lat="58.779942" lon="05.709290"><ele>25</ele><time>2012-03-25T16:07:19Z</time><cmt>3.4 kmh</cmt></trkpt>
<trkpt lat="58.779938" lon="05.709278"><ele>25</ele><time>2012-03-25T16:07:19Z</time><cmt>3.2 kmh</cmt></trkpt>
<trkpt lat="58.779935" lon="05.709266"><ele>25</ele><time>2012-03-25T16:07:20Z</time><cmt>3.1 kmh</cmt></trkpt>
<trkpt lat="58.779931" lon="05.709255"><ele>25</ele><time>2012-03-25T16:07:22Z</time><cmt>2.4 kmh</cmt></trkpt>
<trkpt lat="58.779928" lon="05.709245"><ele>25</ele><time>2012-03-25T16:07:23Z</time><cmt>2.2 kmh</cmt></trkpt>
<trkpt lat="58.779924" lon="05.709235"><ele>25</ele><time>2012-03-25T16:07:24Z</time><cmt>2.7 kmh</cmt></trkpt>
<trkpt lat="58.779921" lon="05.709226"><ele>25</ele><time>2012-03-25T16:07:25Z</time><cmt>2.6 kmh</cmt></trkpt>
<trkpt lat="58.779918" lon="05.709218"><ele>25</ele><time>2012-03-25T16:07:25Z</time><cmt>2.5 kmh</cmt></trkpt>
<trkpt lat="58.779914" lon="05.709210"><ele>25</ele><time>2012-03-25T16:07:26Z</time><cmt>2.4 kmh</cmt></trkpt>
<trkpt lat="58.779911" lon="05.709203"><ele>25</ele><time>2012-03-25T16:07:28Z</time><cmt>1.8 kmh</cmt></trkpt>
<trkpt lat="58.779907" lon="05.709195"><ele>25</ele><time>2012-03-25T16:07:29Z</time><cmt>1.7 kmh</cmt></trkpt>
<trkpt lat="58.779904" lon="05.709188"><ele>25</ele><time>2012-03-25T16:07:30Z</time><cmt>2.1 kmh</cmt></trkpt>
<trkpt lat="58.779901" lon="05.709181"><ele>25</ele><time>2012-03-25T16:07:31Z</time><cmt>2.1 kmh</cmt></trkpt>
<trkpt lat="58.779898" lon="05.709175"><ele>25</ele><time>2012-03-25T16:07:31Z</time><cmt>2.0 kmh</cmt></trkpt>
<trkpt lat="58.779895" lon="05.709169"><ele>25</ele><time>2012-03-25T16:07:32Z</time><cmt>1.9 kmh</cmt></trkpt>
<trkpt lat="58.779892" lon="05.709163"><ele>25</ele><time>2012-03-25T16:07:34Z</time><cmt>1.5 kmh</cmt></trkpt>
<trkpt lat="58.779889" lon="05.709157"><ele>25</ele><time>2012-03-25T16:07:35Z</time><cmt>1.5 kmh</cmt></trkpt>
<trkpt lat="58.779886" lon="05.709152"><ele>25</ele><time>2012-03-25T16:07:36Z</time><cmt>1.7 kmh</cmt></trkpt>
<trkpt lat="58.779883" lon="05.709147"><ele>25</ele><time>2012-03-25T16:07:37Z</time><cmt>1.7 kmh</cmt></trkpt>
<trkpt lat="58.779880" lon="05.709143"><ele>25</ele><time>2012-03-25T16:07:37Z</time><cmt>1.6 kmh</cmt></trkpt>
<trkpt lat="58.779877" lon="05.709139"><ele>25</ele><time>2012-03-25T16:07:38Z</time><cmt>1.5 kmh</cmt></trkpt>
<trkpt lat="58.779875" lon="05.709135"><ele>25</ele><time>2012-03-25T16:07:40Z</time><cmt>1.1 kmh</cmt></trkpt>
<trkpt lat="58.779872" lon="05.709132"><ele>25</ele><time>2012-03-25T16:07:41Z</time><cmt>1.1 kmh</cmt></trkpt>
<trkpt lat="58.779869" lon="05.709128"><ele>25</ele><time>2012-03-25T16:07:42Z</time><cmt>1.4 kmh</cmt></trkpt>
<trkpt lat="58.779867" lon="05.709124"><ele>25</ele><time>2012-03-25T16:07:43Z</time><cmt>1.4 kmh</cmt></trkpt>
<trkpt lat="58.779864" lon="05.709121"><ele>25</ele><time>2012-03-25T16:07:43Z</time><cmt>1.4 kmh</cmt></trkpt>
<trkpt lat="58.779861" lon="05.709117"><ele>25</ele><time>2012-03-25T16:07:44Z</time><cmt>1.4 kmh</cmt></trkpt>
<trkpt lat="58.779859" lon="05.709113"><ele>25</ele><time>2012-03-25T16:07:46Z</time><cmt>1.1 kmh</cmt></trkpt>
<trkpt lat="58.779857" lon="05.709110"><ele>25</ele><time>2012-03-25T16:07:47Z</time><cmt>1.0 kmh</cmt></trkpt>
<trkpt lat="58.779854" lon="05.709106"><ele>25</ele><time>2012-03-25T16:07:48Z</time><cmt>1.3 kmh</cmt></trkpt>
<trkpt lat="58.779852" lon="05.709103"><ele>25</ele><time>2012-03-25T16:07:49Z</time><cmt>1.2 kmh</cmt></trkpt>
<trkpt lat="58.779850" lon="05.709099"><ele>25</ele><time>2012-03-25T16:07:49Z</time><cmt>1.1 kmh</cmt></trkpt>
<trkpt lat="58.779848" lon="05.709097"><ele>25</ele><time>2012-03-25T16:07:50Z</time><cmt>1.0 kmh</cmt></trkpt>
<trkpt lat="58.779846" lon="05.709094"><ele>25</ele><time>2012-03-25T16:07:51Z</time><cmt>1.0 kmh</cmt></trkpt>
<trkpt lat="58.779844" lon="05.709091"><ele>25</ele><time>2012-03-25T16:07:53Z</time><cmt>0.9 kmh</cmt></trkpt>
<trkpt lat="58.779843" lon="05.709089"><ele>25</ele><time>2012-03-25T16:07:54Z</time><cmt>0.9 kmh</cmt></trkpt>
<trkpt lat="58.779841" lon="05.709086"><ele>25</ele><time>2012-03-25T16:07:55Z</time><cmt>1.0 kmh</cmt></trkpt>
<trkpt lat="58.779839" lon="05.709084"><ele>25</ele><time>2012-03-25T16:07:56Z</time><cmt>1.0 kmh</cmt></trkpt>
<trkpt lat="58.779837" lon="05.709081"><ele>25</ele><time>2012-03-25T16:07:56Z</time><cmt>1.0 kmh</cmt></trkpt>
<trkpt lat="58.779835" lon="05.709079"><ele>25</ele><time>2012-03-25T16:07:57Z</time><cmt>0.9 kmh</cmt></trkpt>
<trkpt lat="58.779834" lon="05.709077"><ele>25</ele><time>2012-03-25T16:07:59Z</time><cmt>0.7 kmh</cmt></trkpt>
<trkpt lat="58.779832" lon="05.709075"><ele>25</ele><time>2012-03-25T16:08:00Z</time><cmt>0.7 kmh</cmt></trkpt>
<trkpt lat="58.779830" lon="05.709073"><ele>25</ele><time>2012-03-25T16:08:01Z</time><cmt>0.9 kmh</cmt></trkpt>
<trkpt lat="58.779828" lon="05.709071"><ele>25</ele><time>2012-03-25T16:08:02Z</time><cmt>0.8 kmh</cmt></trkpt>
<trkpt lat="58.779827" lon="05.709069"><ele>25</ele><time>2012-03-25T16:08:02Z</time><cmt>0.8 kmh</cmt></trkpt>
<trkpt lat="58.779825" lon="05.709066"><ele>25</ele><time>2012-03-25T16:08:03Z</time><cmt>0.9 kmh</cmt></trkpt>
<trkpt lat="58.779823" lon="05.709063"><ele>25</ele><time>2012-03-25T16:08:05Z</time><cmt>0.7 kmh</cmt></trkpt>
<trkpt lat="58.779822" lon="05.709061"><ele>25</ele><time>2012-03-25T16:08:06Z</time><cmt>0.8 kmh</cmt></trkpt>
<trkpt lat="58.779821" lon="05.709058"><ele>25</ele><time>2012-03-25T16:08:07Z</time><cmt>0.9 kmh</cmt></trkpt>
<trkpt lat="58.779819" lon="05.709055"><ele>25</ele><time>2012-03-25T16:08:08Z</time><cmt>0.9 kmh</cmt></trkpt>
<trkpt lat="58.779818" lon="05.709052"><ele>25</ele><time>2012-03-25T16:08:08Z</time><cmt>0.9 kmh</cmt></trkpt>
<trkpt lat="58.779817" lon="05.709050"><ele>25</ele><time>2012-03-25T16:08:09Z</time><cmt>0.8 kmh</cmt></trkpt>
<trkpt lat="58.779815" lon="05.709048"><ele>25</ele><time>2012-03-25T16:08:11Z</time><cmt>0.6 kmh</cmt></trkpt>
<trkpt lat="58.779814" lon="05.709046"><ele>25</ele><time>2012-03-25T16:08:12Z</time><cmt>0.6 kmh</cmt></trkpt>
<trkpt lat="58.779813" lon="05.709044"><ele>25</ele><time>2012-03-25T16:08:13Z</time><cmt>0.7 kmh</cmt></trkpt>
<trkpt lat="58.779811" lon="05.709043"><ele>25</ele><time>2012-03-25T16:08:14Z</time><cmt>0.7 kmh</cmt></trkpt>
<trkpt lat="58.779810" lon="05.709041"><ele>25</ele><time>2012-03-25T16:08:14Z</time><cmt>0.7 kmh</cmt></trkpt>
<trkpt lat="58.779809" lon="05.709039"><ele>25</ele><time>2012-03-25T16:08:15Z</time><cmt>0.7 kmh</cmt></trkpt>
<trkpt lat="58.779808" lon="05.709037"><ele>25</ele><time>2012-03-25T16:08:17Z</time><cmt>0.5 kmh</cmt></trkpt>
<trkpt lat="58.779807" lon="05.709036"><ele>25</ele><time>2012-03-25T16:08:18Z</time><cmt>0.5 kmh</cmt></trkpt>
<trkpt lat="58.779805" lon="05.709034"><ele>25</ele><time>2012-03-25T16:08:19Z</time><cmt>0.6 kmh</cmt></trkpt>
<trkpt lat="58.779804" lon="05.709032"><ele>25</ele><time>2012-03-25T16:08:20Z</time><cmt>0.7 kmh</cmt></trkpt>
<trkpt lat="58.779802" lon="05.709028"><ele>25</ele><time>2012-03-25T16:08:21Z</time><cmt>0.9 kmh</cmt></trkpt>
<trkpt lat="58.779800" lon="05.709024"><ele>25</ele><time>2012-03-25T16:08:21Z</time><cmt>1.2 kmh</cmt></trkpt>
<trkpt lat="58.779798" lon="05.709020"><ele>25</ele><time>2012-03-25T16:08:22Z</time><cmt>1.3 kmh</cmt></trkpt>
<trkpt lat="58.779796" lon="05.709016"><ele>25</ele><time>2012-03-25T16:08:24Z</time><cmt>1.0 kmh</cmt></trkpt>
<trkpt lat="58.779793" lon="05.709013"><ele>25</ele><time>2012-03-25T16:08:25Z</time><cmt>1.0 kmh</cmt></trkpt>
<trkpt lat="58.779791" lon="05.709009"><ele>25</ele><time>2012-03-25T16:08:26Z</time><cmt>1.3 kmh</cmt></trkpt>
<trkpt lat="58.779789" lon="05.709005"><ele>25</ele><time>2012-03-25T16:08:27Z</time><cmt>1.4 kmh</cmt></trkpt>
<trkpt lat="58.779787" lon="05.709000"><ele>25</ele><time>2012-03-25T16:08:27Z</time><cmt>1.5 kmh</cmt></trkpt>
<trkpt lat="58.779784" lon="05.708995"><ele>25</ele><time>2012-03-25T16:08:28Z</time><cmt>1.5 kmh</cmt></trkpt>
<trkpt lat="58.779781" lon="05.708991"><ele>25</ele><time>2012-03-25T16:08:30Z</time><cmt>1.2 kmh</cmt></trkpt>
<trkpt lat="58.779778" lon="05.708986"><ele>25</ele><time>2012-03-25T16:08:31Z</time><cmt>1.4 kmh</cmt></trkpt>
<trkpt lat="58.779775" lon="05.708981"><ele>25</ele><time>2012-03-25T16:08:32Z</time><cmt>1.8 kmh</cmt></trkpt>
<trkpt lat="58.779771" lon="05.708975"><ele>25</ele><time>2012-03-25T16:08:33Z</time><cmt>1.9 kmh</cmt></trkpt>
<trkpt lat="58.779767" lon="05.708968"><ele>25</ele><time>2012-03-25T16:08:33Z</time><cmt>2.1 kmh</cmt></trkpt>
<trkpt lat="58.779764" lon="05.708962"><ele>25</ele><time>2012-03-25T16:08:34Z</time><cmt>2.1 kmh</cmt></trkpt>
<trkpt lat="58.779760" lon="05.708956"><ele>25</ele><time>2012-03-25T16:08:36Z</time><cmt>1.7 kmh</cmt></trkpt>
<trkpt lat="58.779756" lon="05.708950"><ele>25</ele><time>2012-03-25T16:08:37Z</time><cmt>1.7 kmh</cmt></trkpt>
<trkpt lat="58.779753" lon="05.708943"><ele>25</ele><time>2012-03-25T16:08:38Z</time><cmt>2.1 kmh</cmt></trkpt>
<trkpt lat="58.779749" lon="05.708935"><ele>25</ele><time>2012-03-25T16:08:39Z</time><cmt>2.2 kmh</cmt></trkpt>
<trkpt lat="58.779746" lon="05.708927"><ele>25</ele><time>2012-03-25T16:08:39Z</time><cmt>2.3 kmh</cmt></trkpt>
<trkpt lat="58.779743" lon="05.708920"><ele>25</ele><time>2012-03-25T16:08:40Z</time><cmt>2.2 kmh</cmt></trkpt>
<trkpt lat="58.779740" lon="05.708913"><ele>25</ele><time>2012-03-25T16:08:42Z</time><cmt>1.7 kmh</cmt></trkpt>
<trkpt lat="58.779736" lon="05.708907"><ele>25</ele><time>2012-03-25T16:08:43Z</time><cmt>1.6 kmh</cmt></trkpt>
<trkpt lat="58.779733" lon="05.708901"><ele>25</ele><time>2012-03-25T16:08:44Z</time><cmt>2.0 kmh</cmt></trkpt>
<trkpt lat="58.779729" lon="05.708894"><ele>25</ele><time>2012-03-25T16:08:45Z</time><cmt>2.1 kmh</cmt></trkpt>
<trkpt lat="58.779726" lon="05.708888"><ele>25</ele><time>2012-03-25T16:08:45Z</time><cmt>2.1 kmh</cmt></trkpt>
<trkpt lat="58.779723" lon="05.708881"><ele>25</ele><time>2012-03-25T16:08:46Z</time><cmt>2.0 kmh</cmt></trkpt>
<trkpt lat="58.779720" lon="05.708874"><ele>25</ele><time>2012-03-25T16:08:48Z</time><cmt>1.6 kmh</cmt></trkpt>
<trkpt lat="58.779717" lon="05.708866"><ele>25</ele><time>2012-03-25T16:08:49Z</time><cmt>1.7 kmh</cmt></trkpt>
<trkpt lat="58.779714" lon="05.708857"><ele>25</ele><time>2012-03-25T16:08:50Z</time><cmt>2.3 kmh</cmt></trkpt>
<trkpt lat="58.779711" lon="05.708848"><ele>25</ele><time>2012-03-25T16:08:51Z</time><cmt>2.3 kmh</cmt></trkpt>
<trkpt lat="58.779708" lon="05.708840"><ele>25</ele><time>2012-03-25T16:08:51Z</time><cmt>2.2 kmh</cmt></trkpt>
<trkpt lat="58.779705" lon="05.708832"><ele>25</ele><time>2012-03-25T16:08:52Z</time><cmt>2.1 kmh</cmt></trkpt>
<trkpt lat="58.779703" lon="05.708825"><ele>25</ele><time>2012-03-25T16:08:54Z</time><cmt>1.6 kmh</cmt></trkpt>
<trkpt lat="58.779699" lon="05.708818"><ele>25</ele><time>2012-03-25T16:08:55Z</time><cmt>1.7 kmh</cmt></trkpt>
<trkpt lat="58.779696" lon="05.708810"><ele>25</ele><time>2012-03-25T16:08:56Z</time><cmt>2.2 kmh</cmt></trkpt>
<trkpt lat="58.779693" lon="05.708802"><ele>25</ele><time>2012-03-25T16:08:57Z</time><cmt>2.2 kmh</cmt></trkpt>
<trkpt lat="58.779690" lon="05.708795"><ele>25</ele><time>2012-03-25T16:08:58Z</time><cmt>2.1 kmh</cmt></trkpt>
<trkpt lat="58.779687" lon="05.708787"><ele>25</ele><time>2012-03-25T16:08:58Z</time><cmt>2.1 kmh</cmt></trkpt>
<trkpt lat="58.779684" lon="05.708779"><ele>25</ele><time>2012-03-25T16:08:59Z</time><cmt>2.2 kmh</cmt></trkpt>
<trkpt lat="58.779681" lon="05.708771"><ele>25</ele><time>2012-03-25T16:09:01Z</time><cmt>1.8 kmh</cmt></trkpt>
<trkpt lat="58.779678" lon="05.708762"><ele>25</ele><time>2012-03-25T16:09:02Z</time><cmt>1.9 kmh</cmt></trkpt>
<trkpt lat="58.779675" lon="05.708753"><ele>25</ele><time>2012-03-25T16:09:03Z</time><cmt>2.4 kmh</cmt></trkpt>
<trkpt lat="58.779672" lon="05.708742"><ele>25</ele><time>2012-03-25T16:09:04Z</time><cmt>2.5 kmh</cmt></trkpt>
<trkpt lat="58.779669" lon="05.708732"><ele>25</ele><time>2012-03-25T16:09:04Z</time><cmt>2.6 kmh</cmt></trkpt>
<trkpt lat="58.779666" lon="05.708721"><ele>25</ele><time>2012-03-25T16:09:05Z</time><cmt>2.8 kmh</cmt></trkpt>
<trkpt lat="58.779663" lon="05.708709"><ele>25</ele><time>2012-03-25T16:09:07Z</time><cmt>2.3 kmh</cmt></trkpt>
<trkpt lat="58.779660" lon="05.708697"><ele>25</ele><time>2012-03-25T16:09:08Z</time><cmt>2.4 kmh</cmt></trkpt>
<trkpt lat="58.779657" lon="05.708685"><ele>25</ele><time>2012-03-25T16:09:09Z</time><cmt>3.0 kmh</cmt></trkpt>
<trkpt lat="58.779655" lon="05.708673"><ele>25</ele><time>2012-03-25T16:09:10Z</time><cmt>2.9 kmh</cmt></trkpt>
<trkpt lat="58.779653" lon="05.708661"><ele>25</ele><time>2012-03-25T16:09:10Z</time><cmt>2.8 kmh</cmt></trkpt>
<trkpt lat="58.779651" lon="05.708649"><ele>25</ele><time>2012-03-25T16:09:11Z</time><cmt>2.8 kmh</cmt></trkpt>
<trkpt lat="58.779649" lon="05.708637"><ele>25</ele><time>2012-03-25T16:09:13Z</time><cmt>2.2 kmh</cmt></trkpt>
<trkpt lat="58.779647" lon="05.708626"><ele>25</ele><time>2012-03-25T16:09:14Z</time><cmt>2.2 kmh</cmt></trkpt>
<trkpt lat="58.779645" lon="05.708614"><ele>25</ele><time>2012-03-25T16:09:15Z</time><cmt>2.7 kmh</cmt></trkpt>
<trkpt lat="58.779643" lon="05.708603"><ele>25</ele><time>2012-03-25T16:09:16Z</time><cmt>2.7 kmh</cmt></trkpt>
<trkpt lat="58.779641" lon="05.708591"><ele>25</ele><time>2012-03-25T16:09:16Z</time><cmt>2.7 kmh</cmt></trkpt>
<trkpt lat="58.779640" lon="05.708578"><ele>25</ele><time>2012-03-25T16:09:17Z</time><cmt>2.9 kmh</cmt></trkpt>
<trkpt lat="58.779638" lon="05.708565"><ele>25</ele><time>2012-03-25T16:09:19Z</time><cmt>2.4 kmh</cmt></trkpt>
<trkpt lat="58.779636" lon="05.708552"><ele>25</ele><time>2012-03-25T16:09:20Z</time><cmt>2.4 kmh</cmt></trkpt>
<trkpt lat="58.779634" lon="05.708538"><ele>25</ele><time>2012-03-25T16:09:21Z</time><cmt>3.1 kmh</cmt></trkpt>
<trkpt lat="58.779633" lon="05.708525"><ele>25</ele><time>2012-03-25T16:09:22Z</time><cmt>3.1 kmh</cmt></trkpt>
<trkpt lat="58.779632" lon="05.708512"><ele>25</ele><time>2012-03-25T16:09:22Z</time><cmt>3.0 kmh</cmt></trkpt>
<trkpt lat="58.779632" lon="05.708499"><ele>25</ele><time>2012-03-25T16:09:23Z</time><cmt>2.8 kmh</cmt></trkpt>
<trkpt lat="58.779631" lon="05.708487"><ele>26</ele><time>2012-03-25T16:09:25Z</time><cmt>2.2 kmh</cmt></trkpt>
<trkpt lat="58.779631" lon="05.708474"><ele>26</ele><time>2012-03-25T16:09:26Z</time><cmt>2.2 kmh</cmt></trkpt>
<trkpt lat="58.779631" lon="05.708462"><ele>26</ele><time>2012-03-25T16:09:27Z</time><cmt>2.8 kmh</cmt></trkpt>
<trkpt lat="58.779631" lon="05.708449"><ele>26</ele><time>2012-03-25T16:09:28Z</time><cmt>2.8 kmh</cmt></trkpt>
<trkpt lat="58.779632" lon="05.708437"><ele>26</ele><time>2012-03-25T16:09:29Z</time><cmt>2.7 kmh</cmt></trkpt>
<trkpt lat="58.779633" lon="05.708426"><ele>26</ele><time>2012-03-25T16:09:29Z</time><cmt>2.6 kmh</cmt></trkpt>
<trkpt lat="58.779633" lon="05.708414"><ele>26</ele><time>2012-03-25T16:09:30Z</time><cmt>2.6 kmh</cmt></trkpt>
<trkpt lat="58.779634" lon="05.708403"><ele>26</ele><time>2012-03-25T16:09:32Z</time><cmt>2.1 kmh</cmt></trkpt>
<trkpt lat="58.779635" lon="05.708390"><ele>26</ele><time>2012-03-25T16:09:33Z</time><cmt>2.2 kmh</cmt></trkpt>
<trkpt lat="58.779636" lon="05.708376"><ele>26</ele><time>2012-03-25T16:09:34Z</time><cmt>3.0 kmh</cmt></trkpt>
<trkpt lat="58.779637" lon="05.708362"><ele>26</ele><time>2012-03-25T16:09:35Z</time><cmt>3.2 kmh</cmt></trkpt>
<trkpt lat="58.779638" lon="05.708347"><ele>26</ele><time>2012-03-25T16:09:35Z</time><cmt>3.3 kmh</cmt></trkpt>
<trkpt lat="58.779640" lon="05.708331"><ele>26</ele><time>2012-03-25T16:09:36Z</time><cmt>3.6 kmh</cmt></trkpt>
<trkpt lat="58.779641" lon="05.708314"><ele>26</ele><time>2012-03-25T16:09:38Z</time><cmt>3.0 kmh</cmt></trkpt>
<trkpt lat="58.779642" lon="05.708296"><ele>26</ele><time>2012-03-25T16:09:39Z</time><cmt>3.2 kmh</cmt></trkpt>
<trkpt lat="58.779643" lon="05.708275"><ele>26</ele><time>2012-03-25T16:09:40Z</time><cmt>4.4 kmh</cmt></trkpt>
<trkpt lat="58.779645" lon="05.708252"><ele>26</ele><time>2012-03-25T16:09:41Z</time><cmt>4.9 kmh</cmt></trkpt>
<trkpt lat="58.779646" lon="05.708229"><ele>26</ele><time>2012-03-25T16:09:41Z</time><cmt>5.0 kmh</cmt></trkpt>
<trkpt lat="58.779647" lon="05.708205"><ele>26</ele><time>2012-03-25T16:09:42Z</time><cmt>5.0 kmh</cmt></trkpt>
<trkpt lat="58.779648" lon="05.708179"><ele>26</ele><time>2012-03-25T16:09:44Z</time><cmt>5.3 kmh</cmt></trkpt>
<trkpt lat="58.779650" lon="05.708153"><ele>26</ele><time>2012-03-25T16:09:45Z</time><cmt>5.4 kmh</cmt></trkpt>
<trkpt lat="58.779652" lon="05.708126"><ele>26</ele><time>2012-03-25T16:09:46Z</time><cmt>5.5 kmh</cmt></trkpt>
<trkpt lat="58.779653" lon="05.708099"><ele>26</ele><time>2012-03-25T16:09:47Z</time><cmt>5.7 kmh</cmt></trkpt>
<trkpt lat="58.779655" lon="05.708072"><ele>26</ele><time>2012-03-25T16:09:47Z</time><cmt>5.7 kmh</cmt></trkpt>
<trkpt lat="58.779657" lon="05.708044"><ele>26</ele><time>2012-03-25T16:09:48Z</time><cmt>5.9 kmh</cmt></trkpt>
<trkpt lat="58.779658" lon="05.708016"><ele>26</ele><time>2012-03-25T16:09:50Z</time><cmt>5.8 kmh</cmt></trkpt>
<trkpt lat="58.779660" lon="05.707988"><ele>26</ele><time>2012-03-25T16:09:51Z</time><cmt>6.0 kmh</cmt></trkpt>
<trkpt lat="58.779662" lon="05.707959"><ele>26</ele><time>2012-03-25T16:09:52Z</time><cmt>6.0 kmh</cmt></trkpt>
<trkpt lat="58.779664" lon="05.707929"><ele>26</ele><time>2012-03-25T16:09:53Z</time><cmt>6.0 kmh</cmt></trkpt>
<trkpt lat="58.779666" lon="05.707900"><ele>27</ele><time>2012-03-25T16:09:53Z</time><cmt>5.9 kmh</cmt></trkpt>
<trkpt lat="58.779667" lon="05.707872"><ele>27</ele><time>2012-03-25T16:09:54Z</time><cmt>6.1 kmh</cmt></trkpt>
<trkpt lat="58.779668" lon="05.707842"><ele>27</ele><time>2012-03-25T16:09:56Z</time><cmt>6.0 kmh</cmt></trkpt>
<trkpt lat="58.779669" lon="05.707812"><ele>27</ele><time>2012-03-25T16:09:57Z</time><cmt>6.2 kmh</cmt></trkpt>
<trkpt lat="58.779670" lon="05.707782"><ele>27</ele><time>2012-03-25T16:09:58Z</time><cmt>6.1 kmh</cmt></trkpt>
<trkpt lat="58.779671" lon="05.707751"><ele>27</ele><time>2012-03-25T16:09:59Z</time><cmt>6.4 kmh</cmt></trkpt>
<trkpt lat="58.779671" lon="05.707720"><ele>27</ele><time>2012-03-25T16:10:00Z</time><cmt>6.2 kmh</cmt></trkpt>
<trkpt lat="58.779671" lon="05.707689"><ele>27</ele><time>2012-03-25T16:10:00Z</time><cmt>6.3 kmh</cmt></trkpt>
<trkpt lat="58.779671" lon="05.707659"><ele>27</ele><time>2012-03-25T16:10:01Z</time><cmt>6.2 kmh</cmt></trkpt>
<trkpt lat="58.779671" lon="05.707628"><ele>27</ele><time>2012-03-25T16:10:03Z</time><cmt>6.6 kmh</cmt></trkpt>
<trkpt lat="58.779671" lon="05.707596"><ele>27</ele><time>2012-03-25T16:10:04Z</time><cmt>6.6 kmh</cmt></trkpt>
<trkpt lat="58.779671" lon="05.707563"><ele>27</ele><time>2012-03-25T16:10:05Z</time><cmt>6.7 kmh</cmt></trkpt>
<trkpt lat="58.779671" lon="05.707529"><ele>27</ele><time>2012-03-25T16:10:06Z</time><cmt>6.6 kmh</cmt></trkpt>
<trkpt lat="58.779672" lon="05.707496"><ele>27</ele><time>2012-03-25T16:10:06Z</time><cmt>6.8 kmh</cmt></trkpt>
<trkpt lat="58.779673" lon="05.707461"><ele>27</ele><time>2012-03-25T16:10:07Z</time><cmt>7.1 kmh</cmt></trkpt>
<trkpt lat="58.779674" lon="05.707426"><ele>27</ele><time>2012-03-25T16:10:09Z</time><cmt>6.9 kmh</cmt></trkpt>
<trkpt lat="58.779675" lon="05.707392"><ele>27</ele><time>2012-03-25T16:10:10Z</time><cmt>6.9 kmh</cmt></trkpt>
<trkpt lat="58.779676" lon="05.707357"><ele>27</ele><time>2012-03-25T16:10:11Z</time><cmt>6.9 kmh</cmt></trkpt>
<trkpt lat="58.779677" lon="05.707323"><ele>27</ele><time>2012-03-25T16:10:12Z</time><cmt>6.8 kmh</cmt></trkpt>
<trkpt lat="58.779677" lon="05.707289"><ele>27</ele><time>2012-03-25T16:10:12Z</time><cmt>6.7 kmh</cmt></trkpt>
<trkpt lat="58.779677" lon="05.707256"><ele>27</ele><time>2012-03-25T16:10:13Z</time><cmt>6.7 kmh</cmt></trkpt>
<trkpt lat="58.779677" lon="05.707223"><ele>27</ele><time>2012-03-25T16:10:15Z</time><cmt>6.7 kmh</cmt></trkpt>
<trkpt lat="58.779676" lon="05.707191"><ele>27</ele><time>2012-03-25T16:10:16Z</time><cmt>6.8 kmh</cmt></trkpt>
<trkpt lat="58.779675" lon="05.707159"><ele>27</ele><time>2012-03-25T16:10:17Z</time><cmt>6.9 kmh</cmt></trkpt>
<trkpt lat="58.779673" lon="05.707125"><ele>27</ele><time>2012-03-25T16:10:18Z</time><cmt>7.0 kmh</cmt></trkpt>
<trkpt lat="58.779672" lon="05.707091"><ele>27</ele><time>2012-03-25T16:10:18Z</time><cmt>7.0 kmh</cmt></trkpt>
<trkpt lat="58.779670" lon="05.707057"><ele>27</ele><time>2012-03-25T16:10:19Z</time><cmt>7.3 kmh</cmt></trkpt>
<trkpt lat="58.779668" lon="05.707022"><ele>27</ele><time>2012-03-25T16:10:21Z</time><cmt>7.3 kmh</cmt></trkpt>
<trkpt lat="58.779666" lon="05.706987"><ele>27</ele><time>2012-03-25T16:10:22Z</time><cmt>7.5 kmh</cmt></trkpt>
<trkpt lat="58.779663" lon="05.706952"><ele>27</ele><time>2012-03-25T16:10:23Z</time><cmt>7.2 kmh</cmt></trkpt>
<trkpt lat="58.779660" lon="05.706917"><ele>27</ele><time>2012-03-25T16:10:24Z</time><cmt>7.3 kmh</cmt></trkpt>
<trkpt lat="58.779657" lon="05.706882"><ele>26</ele><time>2012-03-25T16:10:24Z</time><cmt>7.3 kmh</cmt></trkpt>
<trkpt lat="58.779653" lon="05.706848"><ele>26</ele><time>2012-03-25T16:10:25Z</time><cmt>7.2 kmh</cmt></trkpt>
<trkpt lat="58.779650" lon="05.706814"><ele>26</ele><time>2012-03-25T16:10:27Z</time><cmt>7.1 kmh</cmt></trkpt>
<trkpt lat="58.779647" lon="05.706780"><ele>26</ele><time>2012-03-25T16:10:28Z</time><cmt>6.9 kmh</cmt></trkpt>
<trkpt lat="58.779644" lon="05.706746"><ele>26</ele><time>2012-03-25T16:10:29Z</time><cmt>6.9 kmh</cmt></trkpt>
<trkpt lat="58.779642" lon="05.706712"><ele>26</ele><time>2012-03-25T16:10:30Z</time><cmt>6.9 kmh</cmt></trkpt>
<trkpt lat="58.779639" lon="05.706680"><ele>26</ele><time>2012-03-25T16:10:31Z</time><cmt>6.6 kmh</cmt></trkpt>
<trkpt lat="58.779637" lon="05.706648"><ele>26</ele><time>2012-03-25T16:10:31Z</time><cmt>6.6 kmh</cmt></trkpt>
<trkpt lat="58.779634" lon="05.706615"><ele>26</ele><time>2012-03-25T16:10:32Z</time><cmt>6.7 kmh</cmt></trkpt>
<trkpt lat="58.779631" lon="05.706583"><ele>26</ele><time>2012-03-25T16:10:34Z</time><cmt>6.7 kmh</cmt></trkpt>
<trkpt lat="58.779629" lon="05.706551"><ele>26</ele><time>2012-03-25T16:10:35Z</time><cmt>6.6 kmh</cmt></trkpt>
<trkpt lat="58.779626" lon="05.706519"><ele>26</ele><time>2012-03-25T16:10:36Z</time><cmt>6.5 kmh</cmt></trkpt>
<trkpt lat="58.779624" lon="05.706488"><ele>26</ele><time>2012-03-25T16:10:37Z</time><cmt>6.3 kmh</cmt></trkpt>
<trkpt lat="58.779621" lon="05.706457"><ele>26</ele><time>2012-03-25T16:10:37Z</time><cmt>6.3 kmh</cmt></trkpt>
<trkpt lat="58.779619" lon="05.706427"><ele>26</ele><time>2012-03-25T16:10:38Z</time><cmt>6.2 kmh</cmt></trkpt>
<trkpt lat="58.779617" lon="05.706397"><ele>26</ele><time>2012-03-25T16:10:40Z</time><cmt>6.3 kmh</cmt></trkpt>
<trkpt lat="58.779614" lon="05.706367"><ele>26</ele><time>2012-03-25T16:10:41Z</time><cmt>6.4 kmh</cmt></trkpt>
<trkpt lat="58.779612" lon="05.706334"><ele>26</ele><time>2012-03-25T16:10:42Z</time><cmt>6.5 kmh</cmt></trkpt>
<trkpt lat="58.779610" lon="05.706301"><ele>26</ele><time>2012-03-25T16:10:43Z</time><cmt>6.5 kmh</cmt></trkpt>
<trkpt lat="58.779608" lon="05.706269"><ele>26</ele><time>2012-03-25T16:10:43Z</time><cmt>6.6 kmh</cmt></trkpt>
<trkpt lat="58.779606" lon="05.706236"><ele>26</ele><time>2012-03-25T16:10:44Z</time><cmt>6.7 kmh</cmt></trkpt>
<trkpt lat="58.779604" lon="05.706203"><ele>26</ele><time>2012-03-25T16:10:46Z</time><cmt>6.6 kmh</cmt></trkpt>
<trkpt lat="58.779602" lon="05.706170"><ele>26</ele><time>2012-03-25T16:10:47Z</time><cmt>6.7 kmh</cmt></trkpt>
<trkpt lat="58.779601" lon="05.706137"><ele>26</ele><time>2012-03-25T16:10:48Z</time><cmt>6.5 kmh</cmt></trkpt>
<trkpt lat="58.779600" lon="05.706105"><ele>26</ele><time>2012-03-25T16:10:49Z</time><cmt>6.4 kmh</cmt></trkpt>
<trkpt lat="58.779598" lon="05.706074"><ele>26</ele><time>2012-03-25T16:10:49Z</time><cmt>6.5 kmh</cmt></trkpt>
<trkpt lat="58.779597" lon="05.706042"><ele>26</ele><time>2012-03-25T16:10:50Z</time><cmt>6.6 kmh</cmt></trkpt>
<trkpt lat="58.779596" lon="05.706011"><ele>26</ele><time>2012-03-25T16:10:52Z</time><cmt>6.6 kmh</cmt></trkpt>
<trkpt lat="58.779596" lon="05.705978"><ele>26</ele><time>2012-03-25T16:10:53Z</time><cmt>6.5 kmh</cmt></trkpt>
<trkpt lat="58.779595" lon="05.705946"><ele>26</ele><time>2012-03-25T16:10:54Z</time><cmt>6.3 kmh</cmt></trkpt>
<trkpt lat="58.779595" lon="05.705914"><ele>26</ele><time>2012-03-25T16:10:55Z</time><cmt>6.3 kmh</cmt></trkpt>
<trkpt lat="58.779594" lon="05.705882"><ele>26</ele><time>2012-03-25T16:10:55Z</time><cmt>6.3 kmh</cmt></trkpt>
<trkpt lat="58.779593" lon="05.705851"><ele>26</ele><time>2012-03-25T16:10:56Z</time><cmt>6.2 kmh</cmt></trkpt>
<trkpt lat="58.779593" lon="05.705820"><ele>26</ele><time>2012-03-25T16:10:58Z</time><cmt>6.1 kmh</cmt></trkpt>
<trkpt lat="58.779592" lon="05.705789"><ele>26</ele><time>2012-03-25T16:10:59Z</time><cmt>6.3 kmh</cmt></trkpt>
<trkpt lat="58.779591" lon="05.705758"><ele>26</ele><time>2012-03-25T16:11:00Z</time><cmt>6.2 kmh</cmt></trkpt>
<trkpt lat="58.779590" lon="05.705728"><ele>26</ele><time>2012-03-25T16:11:01Z</time><cmt>6.2 kmh</cmt></trkpt>
<trkpt lat="58.779590" lon="05.705698"><ele>26</ele><time>2012-03-25T16:11:02Z</time><cmt>6.0 kmh</cmt></trkpt>
<trkpt lat="58.779588" lon="05.705668"><ele>26</ele><time>2012-03-25T16:11:02Z</time><cmt>6.2 kmh</cmt></trkpt>
<trkpt lat="58.779587" lon="05.705637"><ele>26</ele><time>2012-03-25T16:11:03Z</time><cmt>6.2 kmh</cmt></trkpt>
<trkpt lat="58.779586" lon="05.705606"><ele>26</ele><time>2012-03-25T16:11:05Z</time><cmt>6.3 kmh</cmt></trkpt>
<trkpt lat="58.779585" lon="05.705574"><ele>26</ele><time>2012-03-25T16:11:06Z</time><cmt>6.2 kmh</cmt></trkpt>
<trkpt lat="58.779584" lon="05.705543"><ele>26</ele><time>2012-03-25T16:11:07Z</time><cmt>6.4 kmh</cmt></trkpt>
<trkpt lat="58.779583" lon="05.705511"><ele>26</ele><time>2012-03-25T16:11:08Z</time><cmt>6.6 kmh</cmt></trkpt>
<trkpt lat="58.779583" lon="05.705479"><ele>26</ele><time>2012-03-25T16:11:08Z</time><cmt>6.4 kmh</cmt></trkpt>
<trkpt lat="58.779582" lon="05.705447"><ele>26</ele><time>2012-03-25T16:11:09Z</time><cmt>6.4 kmh</cmt></trkpt>
<trkpt lat="58.779582" lon="05.705416"><ele>26</ele><time>2012-03-25T16:11:11Z</time><cmt>6.4 kmh</cmt></trkpt>
<trkpt lat="58.779582" lon="05.705385"><ele>26</ele><time>2012-03-25T16:11:12Z</time><cmt>6.3 kmh</cmt></trkpt>
<trkpt lat="58.779582" lon="05.705353"><ele>26</ele><time>2012-03-25T16:11:13Z</time><cmt>6.4 kmh</cmt></trkpt>
<trkpt lat="58.779582" lon="05.705322"><ele>26</ele><time>2012-03-25T16:11:14Z</time><cmt>6.1 kmh</cmt></trkpt>
<trkpt lat="58.779583" lon="05.705292"><ele>26</ele><time>2012-03-25T16:11:14Z</time><cmt>6.2 kmh</cmt></trkpt>
<trkpt lat="58.779584" lon="05.705261"><ele>26</ele><time>2012-03-25T16:11:15Z</time><cmt>6.4 kmh</cmt></trkpt>
<trkpt lat="58.779584" lon="05.705230"><ele>26</ele><time>2012-03-25T16:11:17Z</time><cmt>6.4 kmh</cmt></trkpt>
<trkpt lat="58.779585" lon="05.705199"><ele>26</ele><time>2012-03-25T16:11:18Z</time><cmt>6.3 kmh</cmt></trkpt>
<trkpt lat="58.779587" lon="05.705168"><ele>26</ele><time>2012-03-25T16:11:19Z</time><cmt>6.5 kmh</cmt></trkpt>
<trkpt lat="58.779589" lon="05.705137"><ele>26</ele><time>2012-03-25T16:11:20Z</time><cmt>6.3 kmh</cmt></trkpt>
<trkpt lat="58.779590" lon="05.705106"><ele>26</ele><time>2012-03-25T16:11:20Z</time><cmt>6.4 kmh</cmt></trkpt>
<trkpt lat="58.779591" lon="05.705074"><ele>26</ele><time>2012-03-25T16:11:21Z</time><cmt>6.4 kmh</cmt></trkpt>
<trkpt lat="58.779592" lon="05.705043"><ele>26</ele><time>2012-03-25T16:11:23Z</time><cmt>6.4 kmh</cmt></trkpt>
<trkpt lat="58.779593" lon="05.705012"><ele>26</ele><time>2012-03-25T16:11:24Z</time><cmt>6.4 kmh</cmt></trkpt>
<trkpt lat="58.779593" lon="05.704980"><ele>26</ele><time>2012-03-25T16:11:25Z</time><cmt>6.6 kmh</cmt></trkpt>
<trkpt lat="58.779593" lon="05.704948"><ele>26</ele><time>2012-03-25T16:11:26Z</time><cmt>6.6 kmh</cmt></trkpt>
<trkpt lat="58.779592" lon="05.704914"><ele>26</ele><time>2012-03-25T16:11:26Z</time><cmt>6.6 kmh</cmt></trkpt>
<trkpt lat="58.779591" lon="05.704881"><ele>26</ele><time>2012-03-25T16:11:27Z</time><cmt>6.4 kmh</cmt></trkpt>
<trkpt lat="58.779591" lon="05.704850"><ele>26</ele><time>2012-03-25T16:11:29Z</time><cmt>6.5 kmh</cmt></trkpt>
<trkpt lat="58.779591" lon="05.704817"><ele>26</ele><time>2012-03-25T16:11:30Z</time><cmt>6.4 kmh</cmt></trkpt>
<trkpt lat="58.779591" lon="05.704785"><ele>26</ele><time>2012-03-25T16:11:31Z</time><cmt>6.3 kmh</cmt></trkpt>
<trkpt lat="58.779592" lon="05.704754"><ele>26</ele><time>2012-03-25T16:11:32Z</time><cmt>6.4 kmh</cmt></trkpt>
<trkpt lat="58.779593" lon="05.704724"><ele>26</ele><time>2012-03-25T16:11:33Z</time><cmt>6.3 kmh</cmt></trkpt>
<trkpt lat="58.779594" lon="05.704694"><ele>26</ele><time>2012-03-25T16:11:33Z</time><cmt>6.4 kmh</cmt></trkpt>
<trkpt lat="58.779596" lon="05.704663"><ele>26</ele><time>2012-03-25T16:11:34Z</time><cmt>6.4 kmh</cmt></trkpt>
<trkpt lat="58.779598" lon="05.704633"><ele>26</ele><time>2012-03-25T16:11:36Z</time><cmt>6.2 kmh</cmt></trkpt>
<trkpt lat="58.779600" lon="05.704602"><ele>26</ele><time>2012-03-25T16:11:37Z</time><cmt>6.3 kmh</cmt></trkpt>
<trkpt lat="58.779601" lon="05.704572"><ele>26</ele><time>2012-03-25T16:11:38Z</time><cmt>6.2 kmh</cmt></trkpt>
<trkpt lat="58.779603" lon="05.704540"><ele>26</ele><time>2012-03-25T16:11:39Z</time><cmt>6.3 kmh</cmt></trkpt>
<trkpt lat="58.779603" lon="05.704508"><ele>26</ele><time>2012-03-25T16:11:39Z</time><cmt>6.7 kmh</cmt></trkpt>
<trkpt lat="58.779604" lon="05.704474"><ele>26</ele><time>2012-03-25T16:11:40Z</time><cmt>6.5 kmh</cmt></trkpt>
<trkpt lat="58.779604" lon="05.704441"><ele>26</ele><time>2012-03-25T16:11:42Z</time><cmt>6.6 kmh</cmt></trkpt>
<trkpt lat="58.779604" lon="05.704408"><ele>26</ele><time>2012-03-25T16:11:43Z</time><cmt>6.4 kmh</cmt></trkpt>
<trkpt lat="58.779604" lon="05.704376"><ele>26</ele><time>2012-03-25T16:11:44Z</time><cmt>6.6 kmh</cmt></trkpt>
<trkpt lat="58.779603" lon="05.704343"><ele>26</ele><time>2012-03-25T16:11:45Z</time><cmt>6.6 kmh</cmt></trkpt>
<trkpt lat="58.779602" lon="05.704310"><ele>26</ele><time>2012-03-25T16:11:45Z</time><cmt>6.7 kmh</cmt></trkpt>
<trkpt lat="58.779602" lon="05.704277"><ele>26</ele><time>2012-03-25T16:11:46Z</time><cmt>6.4 kmh</cmt></trkpt>
<trkpt lat="58.779602" lon="05.704245"><ele>26</ele><time>2012-03-25T16:11:48Z</time><cmt>6.3 kmh</cmt></trkpt>
<trkpt lat="58.779602" lon="05.704214"><ele>26</ele><time>2012-03-25T16:11:49Z</time><cmt>6.4 kmh</cmt></trkpt>
<trkpt lat="58.779602" lon="05.704182"><ele>26</ele><time>2012-03-25T16:11:50Z</time><cmt>6.4 kmh</cmt></trkpt>
<trkpt lat="58.779603" lon="05.704151"><ele>26</ele><time>2012-03-25T16:11:51Z</time><cmt>6.4 kmh</cmt></trkpt>
<trkpt lat="58.779603" lon="05.704120"><ele>26</ele><time>2012-03-25T16:11:51Z</time><cmt>6.2 kmh</cmt></trkpt>
<trkpt lat="58.779603" lon="05.704089"><ele>26</ele><time>2012-03-25T16:11:52Z</time><cmt>6.3 kmh</cmt></trkpt>
<trkpt lat="58.779604" lon="05.704058"><ele>26</ele><time>2012-03-25T16:11:54Z</time><cmt>6.3 kmh</cmt></trkpt>
<trkpt lat="58.779605" lon="05.704027"><ele>26</ele><time>2012-03-25T16:11:55Z</time><cmt>6.3 kmh</cmt></trkpt>
<trkpt lat="58.779605" lon="05.703996"><ele>26</ele><time>2012-03-25T16:11:56Z</time><cmt>6.3 kmh</cmt></trkpt>
<trkpt lat="58.779606" lon="05.703964"><ele>26</ele><time>2012-03-25T16:11:57Z</time><cmt>6.2 kmh</cmt></trkpt>
<trkpt lat="58.779606" lon="05.703933"><ele>26</ele><time>2012-03-25T16:11:57Z</time><cmt>6.3 kmh</cmt></trkpt>
<trkpt lat="58.779606" lon="05.703902"><ele>26</ele><time>2012-03-25T16:11:58Z</time><cmt>6.3 kmh</cmt></trkpt>
<trkpt lat="58.779607" lon="05.703870"><ele>26</ele><time>2012-03-25T16:12:00Z</time><cmt>6.4 kmh</cmt></trkpt>
<trkpt lat="58.779607" lon="05.703839"><ele>26</ele><time>2012-03-25T16:12:01Z</time><cmt>6.3 kmh</cmt></trkpt>
<trkpt lat="58.779607" lon="05.703807"><ele>26</ele><time>2012-03-25T16:12:02Z</time><cmt>6.4 kmh</cmt></trkpt>
<trkpt lat="58.779607" lon="05.703776"><ele>26</ele><time>2012-03-25T16:12:03Z</time><cmt>6.2 kmh</cmt></trkpt>
<trkpt lat="58.779608" lon="05.703744"><ele>26</ele><time>2012-03-25T16:12:04Z</time><cmt>6.6 kmh</cmt></trkpt>
<trkpt lat="58.779607" lon="05.703712"><ele>26</ele><time>2012-03-25T16:12:04Z</time><cmt>6.6 kmh</cmt></trkpt>
<trkpt lat="58.779608" lon="05.703679"><ele>26</ele><time>2012-03-25T16:12:05Z</time><cmt>6.8 kmh</cmt></trkpt>
<trkpt lat="58.779609" lon="05.703645"><ele>26</ele><time>2012-03-25T16:12:07Z</time><cmt>7.0 kmh</cmt></trkpt>
<trkpt lat="58.779610" lon="05.703610"><ele>26</ele><time>2012-03-25T16:12:08Z</time><cmt>6.9 kmh</cmt></trkpt>
<trkpt lat="58.779612" lon="05.703576"><ele>26</ele><time>2012-03-25T16:12:09Z</time><cmt>7.0 kmh</cmt></trkpt>
<trkpt lat="58.779615" lon="05.703542"><ele>26</ele><time>2012-03-25T16:12:10Z</time><cmt>6.9 kmh</cmt></trkpt>
<trkpt lat="58.779617" lon="05.703509"><ele>26</ele><time>2012-03-25T16:12:10Z</time><cmt>6.8 kmh</cmt></trkpt>
<trkpt lat="58.779621" lon="05.703477"><ele>26</ele><time>2012-03-25T16:12:11Z</time><cmt>6.7 kmh</cmt></trkpt>
<trkpt lat="58.779623" lon="05.703444"><ele>26</ele><time>2012-03-25T16:12:13Z</time><cmt>7.0 kmh</cmt></trkpt>
<trkpt lat="58.779624" lon="05.703412"><ele>26</ele><time>2012-03-25T16:12:14Z</time><cmt>6.7 kmh</cmt></trkpt>
<trkpt lat="58.779626" lon="05.703379"><ele>26</ele><time>2012-03-25T16:12:15Z</time><cmt>7.0 kmh</cmt></trkpt>
<trkpt lat="58.779627" lon="05.703346"><ele>26</ele><time>2012-03-25T16:12:16Z</time><cmt>6.6 kmh</cmt></trkpt>
<trkpt lat="58.779628" lon="05.703312"><ele>26</ele><time>2012-03-25T16:12:16Z</time><cmt>7.1 kmh</cmt></trkpt>
<trkpt lat="58.779629" lon="05.703279"><ele>26</ele><time>2012-03-25T16:12:17Z</time><cmt>6.9 kmh</cmt></trkpt>
<trkpt lat="58.779631" lon="05.703245"><ele>26</ele><time>2012-03-25T16:12:19Z</time><cmt>7.1 kmh</cmt></trkpt>
<trkpt lat="58.779633" lon="05.703210"><ele>26</ele><time>2012-03-25T16:12:20Z</time><cmt>7.0 kmh</cmt></trkpt>
<trkpt lat="58.779634" lon="05.703176"><ele>26</ele><time>2012-03-25T16:12:21Z</time><cmt>7.0 kmh</cmt></trkpt>
<trkpt lat="58.779636" lon="05.703140"><ele>26</ele><time>2012-03-25T16:12:22Z</time><cmt>7.3 kmh</cmt></trkpt>
<trkpt lat="58.779636" lon="05.703104"><ele>26</ele><time>2012-03-25T16:12:22Z</time><cmt>7.2 kmh</cmt></trkpt>
<trkpt lat="58.779636" lon="05.703068"><ele>26</ele><time>2012-03-25T16:12:23Z</time><cmt>6.9 kmh</cmt></trkpt>
<trkpt lat="58.779636" lon="05.703033"><ele>26</ele><time>2012-03-25T16:12:25Z</time><cmt>7.2 kmh</cmt></trkpt>
<trkpt lat="58.779636" lon="05.702999"><ele>26</ele><time>2012-03-25T16:12:26Z</time><cmt>6.9 kmh</cmt></trkpt>
<trkpt lat="58.779636" lon="05.702964"><ele>26</ele><time>2012-03-25T16:12:27Z</time><cmt>7.1 kmh</cmt></trkpt>
<trkpt lat="58.779636" lon="05.702930"><ele>26</ele><time>2012-03-25T16:12:28Z</time><cmt>6.9 kmh</cmt></trkpt>
<trkpt lat="58.779636" lon="05.702896"><ele>26</ele><time>2012-03-25T16:12:28Z</time><cmt>6.9 kmh</cmt></trkpt>
<trkpt lat="58.779636" lon="05.702862"><ele>26</ele><time>2012-03-25T16:12:29Z</time><cmt>7.1 kmh</cmt></trkpt>
<trkpt lat="58.779637" lon="05.702826"><ele>26</ele><time>2012-03-25T16:12:31Z</time><cmt>7.1 kmh</cmt></trkpt>
<trkpt lat="58.779636" lon="05.702792"><ele>26</ele><time>2012-03-25T16:12:32Z</time><cmt>7.2 kmh</cmt></trkpt>
<trkpt lat="58.779637" lon="05.702758"><ele>27</ele><time>2012-03-25T16:12:33Z</time><cmt>6.8 kmh</cmt></trkpt>
<trkpt lat="58.779638" lon="05.702724"><ele>27</ele><time>2012-03-25T16:12:34Z</time><cmt>7.0 kmh</cmt></trkpt>
<trkpt lat="58.779639" lon="05.702690"><ele>27</ele><time>2012-03-25T16:12:35Z</time><cmt>6.6 kmh</cmt></trkpt>
<trkpt lat="58.779639" lon="05.702657"><ele>27</ele><time>2012-03-25T16:12:35Z</time><cmt>6.9 kmh</cmt></trkpt>
<trkpt lat="58.779641" lon="05.702625"><ele>27</ele><time>2012-03-25T16:12:36Z</time><cmt>6.3 kmh</cmt></trkpt>
<trkpt lat="58.779643" lon="05.702593"><ele>27</ele><time>2012-03-25T16:12:38Z</time><cmt>6.6 kmh</cmt></trkpt>
<trkpt lat="58.779645" lon="05.702560"><ele>27</ele><time>2012-03-25T16:12:39Z</time><cmt>6.4 kmh</cmt></trkpt>
<trkpt lat="58.779645" lon="05.702527"><ele>27</ele><time>2012-03-25T16:12:40Z</time><cmt>6.8 kmh</cmt></trkpt>
<trkpt lat="58.779646" lon="05.702495"><ele>27</ele><time>2012-03-25T16:12:41Z</time><cmt>6.4 kmh</cmt></trkpt>
<trkpt lat="58.779647" lon="05.702462"><ele>27</ele><time>2012-03-25T16:12:41Z</time><cmt>6.7 kmh</cmt></trkpt>
<trkpt lat="58.779648" lon="05.702430"><ele>27</ele><time>2012-03-25T16:12:42Z</time><cmt>6.3 kmh</cmt></trkpt>
<trkpt lat="58.779649" lon="05.702398"><ele>27</ele><time>2012-03-25T16:12:44Z</time><cmt>6.3 kmh</cmt></trkpt>
<trkpt lat="58.779650" lon="05.702367"><ele>27</ele><time>2012-03-25T16:12:45Z</time><cmt>6.2 kmh</cmt></trkpt>
<trkpt lat="58.779652" lon="05.702337"><ele>27</ele><time>2012-03-25T16:12:46Z</time><cmt>6.3 kmh</cmt></trkpt>
<trkpt lat="58.779654" lon="05.702306"><ele>27</ele><time>2012-03-25T16:12:47Z</time><cmt>6.5 kmh</cmt></trkpt>
<trkpt lat="58.779657" lon="05.702275"><ele>27</ele><time>2012-03-25T16:12:47Z</time><cmt>6.4 kmh</cmt></trkpt>
<trkpt lat="58.779658" lon="05.702242"><ele>27</ele><time>2012-03-25T16:12:48Z</time><cmt>6.6 kmh</cmt></trkpt>
<trkpt lat="58.779660" lon="05.702209"><ele>27</ele><time>2012-03-25T16:12:50Z</time><cmt>6.7 kmh</cmt></trkpt>
<trkpt lat="58.779663" lon="05.702177"><ele>27</ele><time>2012-03-25T16:12:51Z</time><cmt>6.5 kmh</cmt></trkpt>
<trkpt lat="58.779666" lon="05.702146"><ele>27</ele><time>2012-03-25T16:12:52Z</time><cmt>6.6 kmh</cmt></trkpt>
<trkpt lat="58.779669" lon="05.702114"><ele>26</ele><time>2012-03-25T16:12:53Z</time><cmt>6.7 kmh</cmt></trkpt>
<trkpt lat="58.779672" lon="05.702081"><ele>26</ele><time>2012-03-25T16:12:53Z</time><cmt>6.8 kmh</cmt></trkpt>
<trkpt lat="58.779673" lon="05.702049"><ele>26</ele><time>2012-03-25T16:12:54Z</time><cmt>6.4 kmh</cmt></trkpt>
<trkpt lat="58.779674" lon="05.702016"><ele>26</ele><time>2012-03-25T16:12:56Z</time><cmt>6.8 kmh</cmt></trkpt>
<trkpt lat="58.779676" lon="05.701983"><ele>26</ele><time>2012-03-25T16:12:57Z</time><cmt>6.4 kmh</cmt></trkpt>
<trkpt lat="58.779677" lon="05.701951"><ele>26</ele><time>2012-03-25T16:12:58Z</time><cmt>6.4 kmh</cmt></trkpt>
<trkpt lat="58.779680" lon="05.701920"><ele>26</ele><time>2012-03-25T16:12:59Z</time><cmt>6.4 kmh</cmt></trkpt>
<trkpt lat="58.779681" lon="05.701888"><ele>26</ele><time>2012-03-25T16:12:59Z</time><cmt>6.7 kmh</cmt></trkpt>
<trkpt lat="58.779681" lon="05.701855"><ele>26</ele><time>2012-03-25T16:13:00Z</time><cmt>6.7 kmh</cmt></trkpt>
<trkpt lat="58.779681" lon="05.701822"><ele>26</ele><time>2012-03-25T16:13:02Z</time><cmt>6.9 kmh</cmt></trkpt>
<trkpt lat="58.779682" lon="05.701788"><ele>26</ele><time>2012-03-25T16:13:03Z</time><cmt>6.7 kmh</cmt></trkpt>
<trkpt lat="58.779682" lon="05.701755"><ele>26</ele><time>2012-03-25T16:13:04Z</time><cmt>6.8 kmh</cmt></trkpt>
<trkpt lat="58.779683" lon="05.701723"><ele>26</ele><time>2012-03-25T16:13:05Z</time><cmt>6.5 kmh</cmt></trkpt>
<trkpt lat="58.779683" lon="05.701690"><ele>26</ele><time>2012-03-25T16:13:06Z</time><cmt>6.8 kmh</cmt></trkpt>
<trkpt lat="58.779684" lon="05.701657"><ele>26</ele><time>2012-03-25T16:13:06Z</time><cmt>6.6 kmh</cmt></trkpt>
<trkpt lat="58.779685" lon="05.701625"><ele>26</ele><time>2012-03-25T16:13:07Z</time><cmt>6.6 kmh</cmt></trkpt>
<trkpt lat="58.779686" lon="05.701592"><ele>26</ele><time>2012-03-25T16:13:09Z</time><cmt>6.5 kmh</cmt></trkpt>
<trkpt lat="58.779688" lon="05.701560"><ele>26</ele><time>2012-03-25T16:13:10Z</time><cmt>6.5 kmh</cmt></trkpt>
<trkpt lat="58.779688" lon="05.701528"><ele>26</ele><time>2012-03-25T16:13:11Z</time><cmt>6.4 kmh</cmt></trkpt>
<trkpt lat="58.779689" lon="05.701495"><ele>26</ele><time>2012-03-25T16:13:12Z</time><cmt>6.6 kmh</cmt></trkpt>
<trkpt lat="58.779689" lon="05.701462"><ele>25</ele><time>2012-03-25T16:13:12Z</time><cmt>6.3 kmh</cmt></trkpt>
<trkpt lat="58.779688" lon="05.701430"><ele>25</ele><time>2012-03-25T16:13:13Z</time><cmt>6.7 kmh</cmt></trkpt>
<trkpt lat="58.779689" lon="05.701399"><ele>25</ele><time>2012-03-25T16:13:15Z</time><cmt>6.4 kmh</cmt></trkpt>
<trkpt lat="58.779689" lon="05.701367"><ele>25</ele><time>2012-03-25T16:13:16Z</time><cmt>6.6 kmh</cmt></trkpt>
<trkpt lat="58.779689" lon="05.701336"><ele>25</ele><time>2012-03-25T16:13:17Z</time><cmt>6.4 kmh</cmt></trkpt>
<trkpt lat="58.779689" lon="05.701303"><ele>25</ele><time>2012-03-25T16:13:18Z</time><cmt>6.7 kmh</cmt></trkpt>
<trkpt lat="58.779690" lon="05.701270"><ele>25</ele><time>2012-03-25T16:13:18Z</time><cmt>6.6 kmh</cmt></trkpt>
<trkpt lat="58.779690" lon="05.701237"><ele>25</ele><time>2012-03-25T16:13:19Z</time><cmt>6.9 kmh</cmt></trkpt>
<trkpt lat="58.779690" lon="05.701203"><ele>25</ele><time>2012-03-25T16:13:21Z</time><cmt>6.9 kmh</cmt></trkpt>
<trkpt lat="58.779691" lon="05.701169"><ele>25</ele><time>2012-03-25T16:13:22Z</time><cmt>6.8 kmh</cmt></trkpt>
<trkpt lat="58.779691" lon="05.701135"><ele>25</ele><time>2012-03-25T16:13:23Z</time><cmt>7.0 kmh</cmt></trkpt>
<trkpt lat="58.779693" lon="05.701100"><ele>25</ele><time>2012-03-25T16:13:24Z</time><cmt>6.9 kmh</cmt></trkpt>
<trkpt lat="58.779693" lon="05.701066"><ele>25</ele><time>2012-03-25T16:13:24Z</time><cmt>7.1 kmh</cmt></trkpt>
<trkpt lat="58.779694" lon="05.701031"><ele>25</ele><time>2012-03-25T16:13:25Z</time><cmt>7.1 kmh</cmt></trkpt>
<trkpt lat="58.779696" lon="05.700995"><ele>25</ele><time>2012-03-25T16:13:27Z</time><cmt>6.9 kmh</cmt></trkpt>
<trkpt lat="58.779697" lon="05.700960"><ele>25</ele><time>2012-03-25T16:13:28Z</time><cmt>6.9 kmh</cmt></trkpt>
<trkpt lat="58.779698" lon="05.700926"><ele>25</ele><time>2012-03-25T16:13:29Z</time><cmt>7.2 kmh</cmt></trkpt>
<trkpt lat="58.779698" lon="05.700891"><ele>25</ele><time>2012-03-25T16:13:30Z</time><cmt>7.2 kmh</cmt></trkpt>
<trkpt lat="58.779699" lon="05.700855"><ele>25</ele><time>2012-03-25T16:13:30Z</time><cmt>7.2 kmh</cmt></trkpt>
<trkpt lat="58.779699" lon="05.700820"><ele>25</ele><time>2012-03-25T16:13:31Z</time><cmt>7.2 kmh</cmt></trkpt>
<trkpt lat="58.779700" lon="05.700785"><ele>25</ele><time>2012-03-25T16:13:33Z</time><cmt>7.2 kmh</cmt></trkpt>
<trkpt lat="58.779702" lon="05.700751"><ele>25</ele><time>2012-03-25T16:13:34Z</time><cmt>7.0 kmh</cmt></trkpt>
<trkpt lat="58.779704" lon="05.700716"><ele>25</ele><time>2012-03-25T16:13:35Z</time><cmt>7.1 kmh</cmt></trkpt>
<trkpt lat="58.779707" lon="05.700681"><ele>25</ele><time>2012-03-25T16:13:36Z</time><cmt>7.3 kmh</cmt></trkpt>
<trkpt lat="58.779709" lon="05.700646"><ele>25</ele><time>2012-03-25T16:13:37Z</time><cmt>7.3 kmh</cmt></trkpt>
<trkpt lat="58.779713" lon="05.700611"><ele>25</ele><time>2012-03-25T16:13:37Z</time><cmt>7.1 kmh</cmt></trkpt>
<trkpt lat="58.779715" lon="05.700576"><ele>25</ele><time>2012-03-25T16:13:38Z</time><cmt>7.5 kmh</cmt></trkpt>
<trkpt lat="58.779718" lon="05.700540"><ele>24</ele><time>2012-03-25T16:13:40Z</time><cmt>7.3 kmh</cmt></trkpt>
<trkpt lat="58.779721" lon="05.700505"><ele>24</ele><time>2012-03-25T16:13:41Z</time><cmt>7.2 kmh</cmt></trkpt>
<trkpt lat="58.779723" lon="05.700469"><ele>24</ele><time>2012-03-25T16:13:42Z</time><cmt>7.2 kmh</cmt></trkpt>
<trkpt lat="58.779724" lon="05.700434"><ele>24</ele><time>2012-03-25T16:13:43Z</time><cmt>7.3 kmh</cmt></trkpt>
<trkpt lat="58.779725" lon="05.700397"><ele>24</ele><time>2012-03-25T16:13:43Z</time><cmt>7.4 kmh</cmt></trkpt>
<trkpt lat="58.779725" lon="05.700361"><ele>24</ele><time>2012-03-25T16:13:44Z</time><cmt>7.4 kmh</cmt></trkpt>
<trkpt lat="58.779725" lon="05.700324"><ele>24</ele><time>2012-03-25T16:13:46Z</time><cmt>7.3 kmh</cmt></trkpt>
<trkpt lat="58.779724" lon="05.700289"><ele>24</ele><time>2012-03-25T16:13:47Z</time><cmt>7.1 kmh</cmt></trkpt>
<trkpt lat="58.779724" lon="05.700254"><ele>24</ele><time>2012-03-25T16:13:48Z</time><cmt>6.9 kmh</cmt></trkpt>
<trkpt lat="58.779722" lon="05.700218"><ele>24</ele><time>2012-03-25T16:13:49Z</time><cmt>7.3 kmh</cmt></trkpt>
<trkpt lat="58.779720" lon="05.700183"><ele>24</ele><time>2012-03-25T16:13:49Z</time><cmt>7.1 kmh</cmt></trkpt>
<trkpt lat="58.779717" lon="05.700148"><ele>24</ele><time>2012-03-25T16:13:50Z</time><cmt>7.1 kmh</cmt></trkpt>
<trkpt lat="58.779713" lon="05.700116"><ele>24</ele><time>2012-03-25T16:13:52Z</time><cmt>6.9 kmh</cmt></trkpt>
<trkpt lat="58.779707" lon="05.700083"><ele>24</ele><time>2012-03-25T16:13:53Z</time><cmt>6.8 kmh</cmt></trkpt>
<trkpt lat="58.779702" lon="05.700050"><ele>24</ele><time>2012-03-25T16:13:54Z</time><cmt>6.9 kmh</cmt></trkpt>
<trkpt lat="58.779696" lon="05.700017"><ele>25</ele><time>2012-03-25T16:13:55Z</time><cmt>7.1 kmh</cmt></trkpt>
<trkpt lat="58.779691" lon="05.699984"><ele>25</ele><time>2012-03-25T16:13:55Z</time><cmt>6.8 kmh</cmt></trkpt>
<trkpt lat="58.779685" lon="05.699952"><ele>25</ele><time>2012-03-25T16:13:56Z</time><cmt>7.1 kmh</cmt></trkpt>
<trkpt lat="58.779680" lon="05.699919"><ele>25</ele><time>2012-03-25T16:13:58Z</time><cmt>7.0 kmh</cmt></trkpt>
<trkpt lat="58.779676" lon="05.699886"><ele>25</ele><time>2012-03-25T16:13:59Z</time><cmt>7.2 kmh</cmt></trkpt>
<trkpt lat="58.779672" lon="05.699851"><ele>25</ele><time>2012-03-25T16:14:00Z</time><cmt>7.0 kmh</cmt></trkpt>
<trkpt lat="58.779670" lon="05.699818"><ele>25</ele><time>2012-03-25T16:14:01Z</time><cmt>6.7 kmh</cmt></trkpt>
<trkpt lat="58.779665" lon="05.699785"><ele>25</ele><time>2012-03-25T16:14:01Z</time><cmt>6.9 kmh</cmt></trkpt>
<trkpt lat="58.779660" lon="05.699752"><ele>25</ele><time>2012-03-25T16:14:02Z</time><cmt>7.0 kmh</cmt></trkpt>
<trkpt lat="58.779655" lon="05.699719"><ele>25</ele><time>2012-03-25T16:14:04Z</time><cmt>6.7 kmh</cmt></trkpt>
<trkpt lat="58.779651" lon="05.699687"><ele>25</ele><time>2012-03-25T16:14:05Z</time><cmt>6.9 kmh</cmt></trkpt>
<trkpt lat="58.779648" lon="05.699653"><ele>25</ele><time>2012-03-25T16:14:06Z</time><cmt>7.2 kmh</cmt></trkpt>
<trkpt lat="58.779643" lon="05.699619"><ele>24</ele><time>2012-03-25T16:14:07Z</time><cmt>7.2 kmh</cmt></trkpt>
<trkpt lat="58.779638" lon="05.699586"><ele>24</ele><time>2012-03-25T16:14:08Z</time><cmt>7.1 kmh</cmt></trkpt>
<trkpt lat="58.779633" lon="05.699553"><ele>24</ele><time>2012-03-25T16:14:08Z</time><cmt>6.9 kmh</cmt></trkpt>
<trkpt lat="58.779627" lon="05.699520"><ele>24</ele><time>2012-03-25T16:14:09Z</time><cmt>7.1 kmh</cmt></trkpt>
<trkpt lat="58.779620" lon="05.699488"><ele>24</ele><time>2012-03-25T16:14:11Z</time><cmt>7.3 kmh</cmt></trkpt>
<trkpt lat="58.779612" lon="05.699455"><ele>24</ele><time>2012-03-25T16:14:12Z</time><cmt>7.1 kmh</cmt></trkpt>
<trkpt lat="58.779604" lon="05.699422"><ele>24</ele><time>2012-03-25T16:14:13Z</time><cmt>7.3 kmh</cmt></trkpt>
<trkpt lat="58.779595" lon="05.699390"><ele>24</ele><time>2012-03-25T16:14:14Z</time><cmt>7.1 kmh</cmt></trkpt>
<trkpt lat="58.779586" lon="05.699359"><ele>24</ele><time>2012-03-25T16:14:14Z</time><cmt>7.3 kmh</cmt></trkpt>
<trkpt lat="58.779576" lon="05.699328"><ele>24</ele><time>2012-03-25T16:14:15Z</time><cmt>7.2 kmh</cmt></trkpt>
<trkpt lat="58.779565" lon="05.699301"><ele>24</ele><time>2012-03-25T16:14:17Z</time><cmt>6.9 kmh</cmt></trkpt>
<trkpt lat="58.779553" lon="05.699274"><ele>24</ele><time>2012-03-25T16:14:18Z</time><cmt>6.9 kmh</cmt></trkpt>
<trkpt lat="58.779540" lon="05.699249"><ele>24</ele><time>2012-03-25T16:14:19Z</time><cmt>6.9 kmh</cmt></trkpt>
<trkpt lat="58.779527" lon="05.699226"><ele>24</ele><time>2012-03-25T16:14:20Z</time><cmt>7.0 kmh</cmt></trkpt>
<trkpt lat="58.779513" lon="05.699204"><ele>24</ele><time>2012-03-25T16:14:20Z</time><cmt>7.0 kmh</cmt></trkpt>
<trkpt lat="58.779498" lon="05.699184"><ele>24</ele><time>2012-03-25T16:14:21Z</time><cmt>7.3 kmh</cmt></trkpt>
<trkpt lat="58.779481" lon="05.699165"><ele>24</ele><time>2012-03-25T16:14:23Z</time><cmt>7.3 kmh</cmt></trkpt>
<trkpt lat="58.779465" lon="05.699147"><ele>24</ele><time>2012-03-25T16:14:24Z</time><cmt>7.7 kmh</cmt></trkpt>
<trkpt lat="58.779447" lon="05.699130"><ele>24</ele><time>2012-03-25T16:14:25Z</time><cmt>7.6 kmh</cmt></trkpt>
<trkpt lat="58.779428" lon="05.699114"><ele>24</ele><time>2012-03-25T16:14:26Z</time><cmt>8.1 kmh</cmt></trkpt>
<trkpt lat="58.779409" lon="05.699099"><ele>24</ele><time>2012-03-25T16:14:26Z</time><cmt>8.0 kmh</cmt></trkpt>
<trkpt lat="58.779390" lon="05.699085"><ele>24</ele><time>2012-03-25T16:14:27Z</time><cmt>8.4 kmh</cmt></trkpt>
<trkpt lat="58.779370" lon="05.699070"><ele>24</ele><time>2012-03-25T16:14:29Z</time><cmt>8.2 kmh</cmt></trkpt>
<trkpt lat="58.779351" lon="05.699056"><ele>25</ele><time>2012-03-25T16:14:30Z</time><cmt>8.0 kmh</cmt></trkpt>
<trkpt lat="58.779331" lon="05.699043"><ele>25</ele><time>2012-03-25T16:14:31Z</time><cmt>7.8 kmh</cmt></trkpt>
<trkpt lat="58.779311" lon="05.699029"><ele>25</ele><time>2012-03-25T16:14:32Z</time><cmt>7.8 kmh</cmt></trkpt>
<trkpt lat="58.779292" lon="05.699016"><ele>25</ele><time>2012-03-25T16:14:32Z</time><cmt>7.8 kmh</cmt></trkpt>
<trkpt lat="58.779273" lon="05.699004"><ele>25</ele><time>2012-03-25T16:14:33Z</time><cmt>7.7 kmh</cmt></trkpt>
<trkpt lat="58.779254" lon="05.698991"><ele>25</ele><time>2012-03-25T16:14:35Z</time><cmt>7.3 kmh</cmt></trkpt>
<trkpt lat="58.779235" lon="05.698979"><ele>25</ele><time>2012-03-25T16:14:36Z</time><cmt>7.6 kmh</cmt></trkpt>
<trkpt lat="58.779217" lon="05.698967"><ele>25</ele><time>2012-03-25T16:14:37Z</time><cmt>7.5 kmh</cmt></trkpt>
<trkpt lat="58.779199" lon="05.698956"><ele>25</ele><time>2012-03-25T16:14:38Z</time><cmt>7.2 kmh</cmt></trkpt>
<trkpt lat="58.779182" lon="05.698945"><ele>25</ele><time>2012-03-25T16:14:39Z</time><cmt>7.0 kmh</cmt></trkpt>
<trkpt lat="58.779165" lon="05.698934"><ele>26</ele><time>2012-03-25T16:14:39Z</time><cmt>7.2 kmh</cmt></trkpt>
<trkpt lat="58.779147" lon="05.698921"><ele>26</ele><time>2012-03-25T16:14:40Z</time><cmt>7.5 kmh</cmt></trkpt>
<trkpt lat="58.779130" lon="05.698908"><ele>26</ele><time>2012-03-25T16:14:42Z</time><cmt>7.7 kmh</cmt></trkpt>
<trkpt lat="58.779112" lon="05.698895"><ele>26</ele><time>2012-03-25T16:14:43Z</time><cmt>7.1 kmh</cmt></trkpt>
<trkpt lat="58.779096" lon="05.698882"><ele>26</ele><time>2012-03-25T16:14:44Z</time><cmt>7.4 kmh</cmt></trkpt>
<trkpt lat="58.779078" lon="05.698868"><ele>26</ele><time>2012-03-25T16:14:45Z</time><cmt>7.3 kmh</cmt></trkpt>
<trkpt lat="58.779060" lon="05.698855"><ele>26</ele><time>2012-03-25T16:14:45Z</time><cmt>7.5 kmh</cmt></trkpt>
<trkpt lat="58.779043" lon="05.698842"><ele>26</ele><time>2012-03-25T16:14:46Z</time><cmt>7.5 kmh</cmt></trkpt>
<trkpt lat="58.779025" lon="05.698829"><ele>26</ele><time>2012-03-25T16:14:48Z</time><cmt>7.4 kmh</cmt></trkpt>
<trkpt lat="58.779007" lon="05.698816"><ele>26</ele><time>2012-03-25T16:14:49Z</time><cmt>7.7 kmh</cmt></trkpt>
<trkpt lat="58.778989" lon="05.698803"><ele>26</ele><time>2012-03-25T16:14:50Z</time><cmt>7.8 kmh</cmt></trkpt>
<trkpt lat="58.778970" lon="05.698790"><ele>26</ele><time>2012-03-25T16:14:51Z</time><cmt>7.5 kmh</cmt></trkpt>
<trkpt lat="58.778952" lon="05.698777"><ele>26</ele><time>2012-03-25T16:14:51Z</time><cmt>7.6 kmh</cmt></trkpt>
<trkpt lat="58.778934" lon="05.698763"><ele>26</ele><time>2012-03-25T16:14:52Z</time><cmt>7.3 kmh</cmt></trkpt>
<trkpt lat="58.778917" lon="05.698749"><ele>26</ele><time>2012-03-25T16:14:54Z</time><cmt>7.4 kmh</cmt></trkpt>
<trkpt lat="58.778900" lon="05.698736"><ele>26</ele><time>2012-03-25T16:14:55Z</time><cmt>6.9 kmh</cmt></trkpt>
<trkpt lat="58.778884" lon="05.698722"><ele>26</ele><time>2012-03-25T16:14:56Z</time><cmt>7.4 kmh</cmt></trkpt>
<trkpt lat="58.778867" lon="05.698709"><ele>26</ele><time>2012-03-25T16:14:57Z</time><cmt>7.5 kmh</cmt></trkpt>
<trkpt lat="58.778848" lon="05.698697"><ele>26</ele><time>2012-03-25T16:14:57Z</time><cmt>7.6 kmh</cmt></trkpt>
<trkpt lat="58.778829" lon="05.698684"><ele>26</ele><time>2012-03-25T16:14:58Z</time><cmt>7.7 kmh</cmt></trkpt>
<trkpt lat="58.778810" lon="05.698671"><ele>26</ele><time>2012-03-25T16:15:00Z</time><cmt>7.4 kmh</cmt></trkpt>
<trkpt lat="58.778793" lon="05.698657"><ele>27</ele><time>2012-03-25T16:15:01Z</time><cmt>7.7 kmh</cmt></trkpt>
<trkpt lat="58.778776" lon="05.698643"><ele>27</ele><time>2012-03-25T16:15:02Z</time><cmt>7.4 kmh</cmt></trkpt>
<trkpt lat="58.778758" lon="05.698629"><ele>27</ele><time>2012-03-25T16:15:03Z</time><cmt>7.3 kmh</cmt></trkpt>
<trkpt lat="58.778741" lon="05.698614"><ele>27</ele><time>2012-03-25T16:15:03Z</time><cmt>7.3 kmh</cmt></trkpt>
<trkpt lat="58.778724" lon="05.698598"><ele>27</ele><time>2012-03-25T16:15:04Z</time><cmt>7.4 kmh</cmt></trkpt>
<trkpt lat="58.778709" lon="05.698581"><ele>27</ele><time>2012-03-25T16:15:06Z</time><cmt>7.1 kmh</cmt></trkpt>
<trkpt lat="58.778693" lon="05.698562"><ele>27</ele><time>2012-03-25T16:15:07Z</time><cmt>7.5 kmh</cmt></trkpt>
<trkpt lat="58.778677" lon="05.698543"><ele>27</ele><time>2012-03-25T16:15:08Z</time><cmt>7.3 kmh</cmt></trkpt>
<trkpt lat="58.778661" lon="05.698523"><ele>27</ele><time>2012-03-25T16:15:09Z</time><cmt>7.5 kmh</cmt></trkpt>
<trkpt lat="58.778646" lon="05.698503"><ele>27</ele><time>2012-03-25T16:15:09Z</time><cmt>7.2 kmh</cmt></trkpt>
<trkpt lat="58.778630" lon="05.698484"><ele>27</ele><time>2012-03-25T16:15:10Z</time><cmt>7.2 kmh</cmt></trkpt>
<trkpt lat="58.778615" lon="05.698465"><ele>27</ele><time>2012-03-25T16:15:11Z</time><cmt>6.7 kmh</cmt></trkpt>
<trkpt lat="58.778601" lon="05.698448"><ele>27</ele><time>2012-03-25T16:15:13Z</time><cmt>6.6 kmh</cmt></trkpt>
<trkpt lat="58.778587" lon="05.698431"><ele>27</ele><time>2012-03-25T16:15:14Z</time><cmt>6.1 kmh</cmt></trkpt>
<trkpt lat="58.778574" lon="05.698416"><ele>27</ele><time>2012-03-25T16:15:15Z</time><cmt>5.4 kmh</cmt></trkpt>
<trkpt lat="58.778563" lon="05.698402"><ele>27</ele><time>2012-03-25T16:15:16Z</time><cmt>5.0 kmh</cmt></trkpt>
<trkpt lat="58.778553" lon="05.698389"><ele>27</ele><time>2012-03-25T16:15:16Z</time><cmt>5.0 kmh</cmt></trkpt>
<trkpt lat="58.778543" lon="05.698376"><ele>27</ele><time>2012-03-25T16:15:17Z</time><cmt>5.0 kmh</cmt></trkpt>
<trkpt lat="58.778535" lon="05.698363"><ele>27</ele><time>2012-03-25T16:15:19Z</time><cmt>3.8 kmh</cmt></trkpt>
<trkpt lat="58.778528" lon="05.698351"><ele>27</ele><time>2012-03-25T16:15:20Z</time><cmt>3.5 kmh</cmt></trkpt>
<trkpt lat="58.778521" lon="05.698338"><ele>27</ele><time>2012-03-25T16:15:21Z</time><cmt>4.1 kmh</cmt></trkpt>
<trkpt lat="58.778515" lon="05.698326"><ele>27</ele><time>2012-03-25T16:15:22Z</time><cmt>3.9 kmh</cmt></trkpt>
<trkpt lat="58.778509" lon="05.698313"><ele>27</ele><time>2012-03-25T16:15:22Z</time><cmt>3.9 kmh</cmt></trkpt>
<trkpt lat="58.778502" lon="05.698299"><ele>27</ele><time>2012-03-25T16:15:23Z</time><cmt>4.1 kmh</cmt></trkpt>
<trkpt lat="58.778496" lon="05.698286"><ele>27</ele><time>2012-03-25T16:15:25Z</time><cmt>3.3 kmh</cmt></trkpt>
<trkpt lat="58.778490" lon="05.698272"><ele>27</ele><time>2012-03-25T16:15:26Z</time><cmt>3.2 kmh</cmt></trkpt>
<trkpt lat="58.778484" lon="05.698258"><ele>27</ele><time>2012-03-25T16:15:27Z</time><cmt>4.0 kmh</cmt></trkpt>
<trkpt lat="58.778479" lon="05.698243"><ele>27</ele><time>2012-03-25T16:15:28Z</time><cmt>4.0 kmh</cmt></trkpt>
<trkpt lat="58.778474" lon="05.698229"><ele>27</ele><time>2012-03-25T16:15:28Z</time><cmt>4.0 kmh</cmt></trkpt>
<trkpt lat="58.778470" lon="05.698214"><ele>27</ele><time>2012-03-25T16:15:29Z</time><cmt>3.9 kmh</cmt></trkpt>
<trkpt lat="58.778465" lon="05.698198"><ele>27</ele><time>2012-03-25T16:15:31Z</time><cmt>3.1 kmh</cmt></trkpt>
<trkpt lat="58.778461" lon="05.698182"><ele>27</ele><time>2012-03-25T16:15:32Z</time><cmt>3.2 kmh</cmt></trkpt>
<trkpt lat="58.778457" lon="05.698163"><ele>27</ele><time>2012-03-25T16:15:33Z</time><cmt>4.4 kmh</cmt></trkpt>
<trkpt lat="58.778452" lon="05.698141"><ele>27</ele><time>2012-03-25T16:15:34Z</time><cmt>5.4 kmh</cmt></trkpt>
<trkpt lat="58.778448" lon="05.698117"><ele>27</ele><time>2012-03-25T16:15:34Z</time><cmt>5.3 kmh</cmt></trkpt>
<trkpt lat="58.778443" lon="05.698092"><ele>27</ele><time>2012-03-25T16:15:35Z</time><cmt>5.7 kmh</cmt></trkpt>
<trkpt lat="58.778439" lon="05.698064"><ele>27</ele><time>2012-03-25T16:15:37Z</time><cmt>6.3 kmh</cmt></trkpt>
<trkpt lat="58.778434" lon="05.698035"><ele>27</ele><time>2012-03-25T16:15:38Z</time><cmt>6.5 kmh</cmt></trkpt>
<trkpt lat="58.778430" lon="05.698003"><ele>27</ele><time>2012-03-25T16:15:39Z</time><cmt>6.9 kmh</cmt></trkpt>
<trkpt lat="58.778426" lon="05.697970"><ele>26</ele><time>2012-03-25T16:15:40Z</time><cmt>7.2 kmh</cmt></trkpt>
<trkpt lat="58.778422" lon="05.697935"><ele>26</ele><time>2012-03-25T16:15:40Z</time><cmt>7.5 kmh</cmt></trkpt>
<trkpt lat="58.778417" lon="05.697899"><ele>26</ele><time>2012-03-25T16:15:41Z</time><cmt>7.8 kmh</cmt></trkpt>
<trkpt lat="58.778411" lon="05.697862"><ele>26</ele><time>2012-03-25T16:15:43Z</time><cmt>8.0 kmh</cmt></trkpt>
<trkpt lat="58.778406" lon="05.697823"><ele>26</ele><time>2012-03-25T16:15:44Z</time><cmt>8.1 kmh</cmt></trkpt>
<trkpt lat="58.778400" lon="05.697785"><ele>26</ele><time>2012-03-25T16:15:45Z</time><cmt>7.9 kmh</cmt></trkpt>
<trkpt lat="58.778393" lon="05.697747"><ele>26</ele><time>2012-03-25T16:15:46Z</time><cmt>8.1 kmh</cmt></trkpt>
<trkpt lat="58.778387" lon="05.697710"><ele>26</ele><time>2012-03-25T16:15:47Z</time><cmt>8.0 kmh</cmt></trkpt>
<trkpt lat="58.778381" lon="05.697672"><ele>26</ele><time>2012-03-25T16:15:47Z</time><cmt>8.0 kmh</cmt></trkpt>
<trkpt lat="58.778374" lon="05.697635"><ele>26</ele><time>2012-03-25T16:15:48Z</time><cmt>8.0 kmh</cmt></trkpt>
<trkpt lat="58.778369" lon="05.697598"><ele>26</ele><time>2012-03-25T16:15:50Z</time><cmt>8.0 kmh</cmt></trkpt>
<trkpt lat="58.778362" lon="05.697561"><ele>26</ele><time>2012-03-25T16:15:51Z</time><cmt>8.0 kmh</cmt></trkpt>
<trkpt lat="58.778356" lon="05.697524"><ele>26</ele><time>2012-03-25T16:15:52Z</time><cmt>7.9 kmh</cmt></trkpt>
<trkpt lat="58.778349" lon="05.697487"><ele>26</ele><time>2012-03-25T16:15:53Z</time><cmt>7.8 kmh</cmt></trkpt>
<trkpt lat="58.778343" lon="05.697451"><ele>26</ele><time>2012-03-25T16:15:53Z</time><cmt>7.7 kmh</cmt></trkpt>
<trkpt lat="58.778336" lon="05.697415"><ele>26</ele><time>2012-03-25T16:15:54Z</time><cmt>7.8 kmh</cmt></trkpt>
<trkpt lat="58.778329" lon="05.697379"><ele>26</ele><time>2012-03-25T16:15:56Z</time><cmt>7.9 kmh</cmt></trkpt>
<trkpt lat="58.778323" lon="05.697343"><ele>26</ele><time>2012-03-25T16:15:57Z</time><cmt>7.6 kmh</cmt></trkpt>
<trkpt lat="58.778316" lon="05.697307"><ele>26</ele><time>2012-03-25T16:15:58Z</time><cmt>7.5 kmh</cmt></trkpt>
<trkpt lat="58.778310" lon="05.697273"><ele>26</ele><time>2012-03-25T16:15:59Z</time><cmt>7.6 kmh</cmt></trkpt>
<trkpt lat="58.778303" lon="05.697237"><ele>26</ele><time>2012-03-25T16:15:59Z</time><cmt>7.8 kmh</cmt></trkpt>
<trkpt lat="58.778298" lon="05.697201"><ele>26</ele><time>2012-03-25T16:16:00Z</time><cmt>7.6 kmh</cmt></trkpt>
<trkpt lat="58.778292" lon="05.697166"><ele>26</ele><time>2012-03-25T16:16:02Z</time><cmt>7.7 kmh</cmt></trkpt>
<trkpt lat="58.778286" lon="05.697130"><ele>26</ele><time>2012-03-25T16:16:03Z</time><cmt>7.5 kmh</cmt></trkpt>
<trkpt lat="58.778279" lon="05.697096"><ele>26</ele><time>2012-03-25T16:16:04Z</time><cmt>7.5 kmh</cmt></trkpt>
<trkpt lat="58.778273" lon="05.697061"><ele>26</ele><time>2012-03-25T16:16:05Z</time><cmt>7.6 kmh</cmt></trkpt>
<trkpt lat="58.778268" lon="05.697025"><ele>26</ele><time>2012-03-25T16:16:05Z</time><cmt>7.6 kmh</cmt></trkpt>
<trkpt lat="58.778262" lon="05.696990"><ele>26</ele><time>2012-03-25T16:16:06Z</time><cmt>7.4 kmh</cmt></trkpt>
<trkpt lat="58.778257" lon="05.696955"><ele>26</ele><time>2012-03-25T16:16:08Z</time><cmt>7.3 kmh</cmt></trkpt>
<trkpt lat="58.778253" lon="05.696921"><ele>26</ele><time>2012-03-25T16:16:09Z</time><cmt>7.2 kmh</cmt></trkpt>
<trkpt lat="58.778248" lon="05.696886"><ele>26</ele><time>2012-03-25T16:16:10Z</time><cmt>7.3 kmh</cmt></trkpt>
<trkpt lat="58.778244" lon="05.696851"><ele>26</ele><time>2012-03-25T16:16:11Z</time><cmt>6.7 kmh</cmt></trkpt>
<trkpt lat="58.778240" lon="05.696820"><ele>26</ele><time>2012-03-25T16:16:11Z</time><cmt>5.9 kmh</cmt></trkpt>
<trkpt lat="58.778237" lon="05.696792"><ele>26</ele><time>2012-03-25T16:16:12Z</time><cmt>5.7 kmh</cmt></trkpt>
<trkpt lat="58.778233" lon="05.696764"><ele>26</ele><time>2012-03-25T16:16:14Z</time><cmt>5.9 kmh</cmt></trkpt>
<trkpt lat="58.778228" lon="05.696736"><ele>26</ele><time>2012-03-25T16:16:15Z</time><cmt>6.2 kmh</cmt></trkpt>
<trkpt lat="58.778223" lon="05.696707"><ele>26</ele><time>2012-03-25T16:16:16Z</time><cmt>6.5 kmh</cmt></trkpt>
<trkpt lat="58.778217" lon="05.696677"><ele>26</ele><time>2012-03-25T16:16:17Z</time><cmt>6.7 kmh</cmt></trkpt>
<trkpt lat="58.778212" lon="05.696646"><ele>26</ele><time>2012-03-25T16:16:18Z</time><cmt>6.8 kmh</cmt></trkpt>
<trkpt lat="58.778207" lon="05.696613"><ele>26</ele><time>2012-03-25T16:16:18Z</time><cmt>6.9 kmh</cmt></trkpt>
<trkpt lat="58.778202" lon="05.696582"><ele>26</ele><time>2012-03-25T16:16:19Z</time><cmt>6.6 kmh</cmt></trkpt>
<trkpt lat="58.778197" lon="05.696550"><ele>26</ele><time>2012-03-25T16:16:21Z</time><cmt>6.9 kmh</cmt></trkpt>
<trkpt lat="58.778192" lon="05.696518"><ele>26</ele><time>2012-03-25T16:16:22Z</time><cmt>6.7 kmh</cmt></trkpt>
<trkpt lat="58.778187" lon="05.696486"><ele>26</ele><time>2012-03-25T16:16:23Z</time><cmt>7.2 kmh</cmt></trkpt>
<trkpt lat="58.778182" lon="05.696453"><ele>26</ele><time>2012-03-25T16:16:24Z</time><cmt>6.9 kmh</cmt></trkpt>
<trkpt lat="58.778178" lon="05.696419"><ele>26</ele><time>2012-03-25T16:16:24Z</time><cmt>7.3 kmh</cmt></trkpt>
<trkpt lat="58.778173" lon="05.696386"><ele>26</ele><time>2012-03-25T16:16:25Z</time><cmt>7.1 kmh</cmt></trkpt>
<trkpt lat="58.778168" lon="05.696352"><ele>26</ele><time>2012-03-25T16:16:27Z</time><cmt>7.1 kmh</cmt></trkpt>
<trkpt lat="58.778163" lon="05.696319"><ele>25</ele><time>2012-03-25T16:16:28Z</time><cmt>7.1 kmh</cmt></trkpt>
<trkpt lat="58.778158" lon="05.696285"><ele>25</ele><time>2012-03-25T16:16:29Z</time><cmt>7.4 kmh</cmt></trkpt>
<trkpt lat="58.778152" lon="05.696251"><ele>25</ele><time>2012-03-25T16:16:30Z</time><cmt>7.3 kmh</cmt></trkpt>
<trkpt lat="58.778146" lon="05.696217"><ele>25</ele><time>2012-03-25T16:16:30Z</time><cmt>7.4 kmh</cmt></trkpt>
<trkpt lat="58.778140" lon="05.696183"><ele>25</ele><time>2012-03-25T16:16:31Z</time><cmt>7.3 kmh</cmt></trkpt>
<trkpt lat="58.778134" lon="05.696149"><ele>25</ele><time>2012-03-25T16:16:33Z</time><cmt>7.5 kmh</cmt></trkpt>
<trkpt lat="58.778127" lon="05.696115"><ele>25</ele><time>2012-03-25T16:16:34Z</time><cmt>7.3 kmh</cmt></trkpt>
<trkpt lat="58.778120" lon="05.696082"><ele>25</ele><time>2012-03-25T16:16:35Z</time><cmt>7.2 kmh</cmt></trkpt>
<trkpt lat="58.778113" lon="05.696049"><ele>25</ele><time>2012-03-25T16:16:36Z</time><cmt>7.2 kmh</cmt></trkpt>
<trkpt lat="58.778107" lon="05.696017"><ele>25</ele><time>2012-03-25T16:16:36Z</time><cmt>6.9 kmh</cmt></trkpt>
<trkpt lat="58.778100" lon="05.695985"><ele>25</ele><time>2012-03-25T16:16:37Z</time><cmt>7.1 kmh</cmt></trkpt>
<trkpt lat="58.778093" lon="05.695953"><ele>25</ele><time>2012-03-25T16:16:39Z</time><cmt>6.9 kmh</cmt></trkpt>
<trkpt lat="58.778086" lon="05.695922"><ele>25</ele><time>2012-03-25T16:16:40Z</time><cmt>7.1 kmh</cmt></trkpt>
<trkpt lat="58.778079" lon="05.695890"><ele>25</ele><time>2012-03-25T16:16:41Z</time><cmt>7.1 kmh</cmt></trkpt>
<trkpt lat="58.778072" lon="05.695858"><ele>25</ele><time>2012-03-25T16:16:42Z</time><cmt>7.3 kmh</cmt></trkpt>
<trkpt lat="58.778064" lon="05.695825"><ele>25</ele><time>2012-03-25T16:16:42Z</time><cmt>7.2 kmh</cmt></trkpt>
<trkpt lat="58.778057" lon="05.695792"><ele>25</ele><time>2012-03-25T16:16:43Z</time><cmt>7.4 kmh</cmt></trkpt>
<trkpt lat="58.778050" lon="05.695759"><ele>25</ele><time>2012-03-25T16:16:45Z</time><cmt>7.3 kmh</cmt></trkpt>
<trkpt lat="58.778043" lon="05.695725"><ele>25</ele><time>2012-03-25T16:16:46Z</time><cmt>7.5 kmh</cmt></trkpt>
<trkpt lat="58.778035" lon="05.695692"><ele>25</ele><time>2012-03-25T16:16:47Z</time><cmt>7.5 kmh</cmt></trkpt>
<trkpt lat="58.778028" lon="05.695659"><ele>25</ele><time>2012-03-25T16:16:48Z</time><cmt>7.4 kmh</cmt></trkpt>
<trkpt lat="58.778021" lon="05.695625"><ele>25</ele><time>2012-03-25T16:16:49Z</time><cmt>7.4 kmh</cmt></trkpt>
<trkpt lat="58.778014" lon="05.695591"><ele>25</ele><time>2012-03-25T16:16:49Z</time><cmt>7.5 kmh</cmt></trkpt>
<trkpt lat="58.778007" lon="05.695558"><ele>25</ele><time>2012-03-25T16:16:50Z</time><cmt>7.5 kmh</cmt></trkpt>
<trkpt lat="58.777999" lon="05.695524"><ele>25</ele><time>2012-03-25T16:16:52Z</time><cmt>7.5 kmh</cmt></trkpt>
<trkpt lat="58.777992" lon="05.695490"><ele>25</ele><time>2012-03-25T16:16:53Z</time><cmt>7.4 kmh</cmt></trkpt>
<trkpt lat="58.777985" lon="05.695457"><ele>25</ele><time>2012-03-25T16:16:54Z</time><cmt>7.6 kmh</cmt></trkpt>
<trkpt lat="58.777977" lon="05.695423"><ele>25</ele><time>2012-03-25T16:16:55Z</time><cmt>7.3 kmh</cmt></trkpt>
<trkpt lat="58.777969" lon="05.695391"><ele>25</ele><time>2012-03-25T16:16:55Z</time><cmt>7.4 kmh</cmt></trkpt>
<trkpt lat="58.777960" lon="05.695360"><ele>25</ele><time>2012-03-25T16:16:56Z</time><cmt>7.3 kmh</cmt></trkpt>
<trkpt lat="58.777951" lon="05.695329"><ele>25</ele><time>2012-03-25T16:16:58Z</time><cmt>6.9 kmh</cmt></trkpt>
<trkpt lat="58.777943" lon="05.695301"><ele>25</ele><time>2012-03-25T16:16:59Z</time><cmt>6.4 kmh</cmt></trkpt>
<trkpt lat="58.777934" lon="05.695275"><ele>25</ele><time>2012-03-25T16:17:00Z</time><cmt>6.1 kmh</cmt></trkpt>
<trkpt lat="58.777926" lon="05.695249"><ele>25</ele><time>2012-03-25T16:17:01Z</time><cmt>6.1 kmh</cmt></trkpt>
<trkpt lat="58.777918" lon="05.695224"><ele>25</ele><time>2012-03-25T16:17:01Z</time><cmt>6.3 kmh</cmt></trkpt>
<trkpt lat="58.777909" lon="05.695197"><ele>25</ele><time>2012-03-25T16:17:02Z</time><cmt>6.6 kmh</cmt></trkpt>
<trkpt lat="58.777901" lon="05.695170"><ele>25</ele><time>2012-03-25T16:17:04Z</time><cmt>6.6 kmh</cmt></trkpt>
<trkpt lat="58.777893" lon="05.695141"><ele>25</ele><time>2012-03-25T16:17:05Z</time><cmt>6.9 kmh</cmt></trkpt>
<trkpt lat="58.777885" lon="05.695112"><ele>25</ele><time>2012-03-25T16:17:06Z</time><cmt>6.9 kmh</cmt></trkpt>
<trkpt lat="58.777877" lon="05.695081"><ele>25</ele><time>2012-03-25T16:17:07Z</time><cmt>7.1 kmh</cmt></trkpt>
<trkpt lat="58.777871" lon="05.695050"><ele>25</ele><time>2012-03-25T16:17:07Z</time><cmt>6.9 kmh</cmt></trkpt>
<trkpt lat="58.777865" lon="05.695018"><ele>25</ele><time>2012-03-25T16:17:08Z</time><cmt>7.1 kmh</cmt></trkpt>
<trkpt lat="58.777859" lon="05.694986"><ele>25</ele><time>2012-03-25T16:17:10Z</time><cmt>6.8 kmh</cmt></trkpt>
<trkpt lat="58.777853" lon="05.694953"><ele>25</ele><time>2012-03-25T16:17:11Z</time><cmt>7.5 kmh</cmt></trkpt>
<trkpt lat="58.777848" lon="05.694919"><ele>25</ele><time>2012-03-25T16:17:12Z</time><cmt>7.1 kmh</cmt></trkpt>
<trkpt lat="58.777841" lon="05.694886"><ele>25</ele><time>2012-03-25T16:17:13Z</time><cmt>7.4 kmh</cmt></trkpt>
<trkpt lat="58.777834" lon="05.694853"><ele>25</ele><time>2012-03-25T16:17:13Z</time><cmt>7.3 kmh</cmt></trkpt>
<trkpt lat="58.777826" lon="05.694821"><ele>25</ele><time>2012-03-25T16:17:14Z</time><cmt>7.2 kmh</cmt></trkpt>
<trkpt lat="58.777817" lon="05.694791"><ele>25</ele><time>2012-03-25T16:17:16Z</time><cmt>7.2 kmh</cmt></trkpt>
<trkpt lat="58.777807" lon="05.694761"><ele>25</ele><time>2012-03-25T16:17:17Z</time><cmt>7.2 kmh</cmt></trkpt>
<trkpt lat="58.777796" lon="05.694733"><ele>25</ele><time>2012-03-25T16:17:18Z</time><cmt>7.3 kmh</cmt></trkpt>
<trkpt lat="58.777785" lon="05.694705"><ele>25</ele><time>2012-03-25T16:17:19Z</time><cmt>7.2 kmh</cmt></trkpt>
<trkpt lat="58.777772" lon="05.694679"><ele>25</ele><time>2012-03-25T16:17:20Z</time><cmt>7.3 kmh</cmt></trkpt>
<trkpt lat="58.777760" lon="05.694653"><ele>25</ele><time>2012-03-25T16:17:20Z</time><cmt>7.5 kmh</cmt></trkpt>
<trkpt lat="58.777746" lon="05.694627"><ele>25</ele><time>2012-03-25T16:17:21Z</time><cmt>7.6 kmh</cmt></trkpt>
<trkpt lat="58.777733" lon="05.694603"><ele>25</ele><time>2012-03-25T16:17:23Z</time><cmt>7.3 kmh</cmt></trkpt>
<trkpt lat="58.777719" lon="05.694578"><ele>25</ele><time>2012-03-25T16:17:24Z</time><cmt>7.5 kmh</cmt></trkpt>
<trkpt lat="58.777705" lon="05.694553"><ele>25</ele><time>2012-03-25T16:17:25Z</time><cmt>7.5 kmh</cmt></trkpt>
<trkpt lat="58.777690" lon="05.694530"><ele>25</ele><time>2012-03-25T16:17:26Z</time><cmt>7.6 kmh</cmt></trkpt>
<trkpt lat="58.777675" lon="05.694507"><ele>25</ele><time>2012-03-25T16:17:26Z</time><cmt>7.5 kmh</cmt></trkpt>
<trkpt lat="58.777660" lon="05.694483"><ele>25</ele><time>2012-03-25T16:17:27Z</time><cmt>7.4 kmh</cmt></trkpt>
<trkpt lat="58.777645" lon="05.694460"><ele>25</ele><time>2012-03-25T16:17:29Z</time><cmt>7.5 kmh</cmt></trkpt>
<trkpt lat="58.777630" lon="05.694437"><ele>25</ele><time>2012-03-25T16:17:30Z</time><cmt>7.3 kmh</cmt></trkpt>
<trkpt lat="58.777616" lon="05.694414"><ele>25</ele><time>2012-03-25T16:17:31Z</time><cmt>7.5 kmh</cmt></trkpt>
<trkpt lat="58.777602" lon="05.694390"><ele>25</ele><time>2012-03-25T16:17:32Z</time><cmt>7.5 kmh</cmt></trkpt>
<trkpt lat="58.777587" lon="05.694366"><ele>25</ele><time>2012-03-25T16:17:32Z</time><cmt>7.7 kmh</cmt></trkpt>
<trkpt lat="58.777572" lon="05.694343"><ele>25</ele><time>2012-03-25T16:17:33Z</time><cmt>7.5 kmh</cmt></trkpt>
<trkpt lat="58.777557" lon="05.694319"><ele>25</ele><time>2012-03-25T16:17:35Z</time><cmt>7.8 kmh</cmt></trkpt>
<trkpt lat="58.777542" lon="05.694295"><ele>25</ele><time>2012-03-25T16:17:36Z</time><cmt>7.5 kmh</cmt></trkpt>
<trkpt lat="58.777528" lon="05.694269"><ele>25</ele><time>2012-03-25T16:17:37Z</time><cmt>7.8 kmh</cmt></trkpt>
<trkpt lat="58.777514" lon="05.694241"><ele>25</ele><time>2012-03-25T16:17:38Z</time><cmt>7.7 kmh</cmt></trkpt>
<trkpt lat="58.777500" lon="05.694215"><ele>25</ele><time>2012-03-25T16:17:38Z</time><cmt>7.6 kmh</cmt></trkpt>
<trkpt lat="58.777487" lon="05.694188"><ele>25</ele><time>2012-03-25T16:17:39Z</time><cmt>7.6 kmh</cmt></trkpt>
<trkpt lat="58.777474" lon="05.694161"><ele>25</ele><time>2012-03-25T16:17:41Z</time><cmt>7.4 kmh</cmt></trkpt>
<trkpt lat="58.777461" lon="05.694135"><ele>26</ele><time>2012-03-25T16:17:42Z</time><cmt>7.2 kmh</cmt></trkpt>
<trkpt lat="58.777448" lon="05.694109"><ele>26</ele><time>2012-03-25T16:17:43Z</time><cmt>7.6 kmh</cmt></trkpt>
<trkpt lat="58.777435" lon="05.694082"><ele>26</ele><time>2012-03-25T16:17:44Z</time><cmt>7.5 kmh</cmt></trkpt>
<trkpt lat="58.777422" lon="05.694054"><ele>26</ele><time>2012-03-25T16:17:44Z</time><cmt>7.5 kmh</cmt></trkpt>
<trkpt lat="58.777409" lon="05.694027"><ele>26</ele><time>2012-03-25T16:17:45Z</time><cmt>7.2 kmh</cmt></trkpt>
<trkpt lat="58.777396" lon="05.694001"><ele>26</ele><time>2012-03-25T16:17:47Z</time><cmt>7.5 kmh</cmt></trkpt>
<trkpt lat="58.777384" lon="05.693974"><ele>26</ele><time>2012-03-25T16:17:48Z</time><cmt>7.4 kmh</cmt></trkpt>
<trkpt lat="58.777371" lon="05.693948"><ele>26</ele><time>2012-03-25T16:17:49Z</time><cmt>7.3 kmh</cmt></trkpt>
<trkpt lat="58.777358" lon="05.693921"><ele>26</ele><time>2012-03-25T16:17:50Z</time><cmt>7.3 kmh</cmt></trkpt>
<trkpt lat="58.777345" lon="05.693895"><ele>26</ele><time>2012-03-25T16:17:51Z</time><cmt>7.2 kmh</cmt></trkpt>
<trkpt lat="58.777332" lon="05.693869"><ele>26</ele><time>2012-03-25T16:17:51Z</time><cmt>7.3 kmh</cmt></trkpt>
<trkpt lat="58.777319" lon="05.693844"><ele>26</ele><time>2012-03-25T16:17:53Z</time><cmt>7.1 kmh</cmt></trkpt>
<trkpt lat="58.777306" lon="05.693821"><ele>26</ele><time>2012-03-25T16:17:54Z</time><cmt>7.0 kmh</cmt></trkpt>
<trkpt lat="58.777293" lon="05.693796"><ele>26</ele><time>2012-03-25T16:17:55Z</time><cmt>6.9 kmh</cmt></trkpt>
<trkpt lat="58.777279" lon="05.693773"><ele>26</ele><time>2012-03-25T16:17:56Z</time><cmt>7.4 kmh</cmt></trkpt>
<trkpt lat="58.777265" lon="05.693749"><ele>26</ele><time>2012-03-25T16:17:57Z</time><cmt>7.1 kmh</cmt></trkpt>
<trkpt lat="58.777251" lon="05.693726"><ele>26</ele><time>2012-03-25T16:17:57Z</time><cmt>7.3 kmh</cmt></trkpt>
<trkpt lat="58.777237" lon="05.693702"><ele>26</ele><time>2012-03-25T16:17:58Z</time><cmt>7.4 kmh</cmt></trkpt>
<trkpt lat="58.777222" lon="05.693679"><ele>26</ele><time>2012-03-25T16:18:00Z</time><cmt>7.1 kmh</cmt></trkpt>
<trkpt lat="58.777207" lon="05.693658"><ele>26</ele><time>2012-03-25T16:18:01Z</time><cmt>7.3 kmh</cmt></trkpt>
<trkpt lat="58.777192" lon="05.693639"><ele>26</ele><time>2012-03-25T16:18:02Z</time><cmt>7.2 kmh</cmt></trkpt>
<trkpt lat="58.777176" lon="05.693623"><ele>26</ele><time>2012-03-25T16:18:03Z</time><cmt>6.9 kmh</cmt></trkpt>
<trkpt lat="58.777160" lon="05.693608"><ele>26</ele><time>2012-03-25T16:18:03Z</time><cmt>7.0 kmh</cmt></trkpt>
<trkpt lat="58.777143" lon="05.693595"><ele>26</ele><time>2012-03-25T16:18:04Z</time><cmt>7.0 kmh</cmt></trkpt>
<trkpt lat="58.777127" lon="05.693581"><ele>26</ele><time>2012-03-25T16:18:06Z</time><cmt>6.8 kmh</cmt></trkpt>
<trkpt lat="58.777110" lon="05.693569"><ele>26</ele><time>2012-03-25T16:18:07Z</time><cmt>6.9 kmh</cmt></trkpt>
<trkpt lat="58.777095" lon="05.693557"><ele>26</ele><time>2012-03-25T16:18:08Z</time><cmt>6.8 kmh</cmt></trkpt>
<trkpt lat="58.777079" lon="05.693543"><ele>26</ele><time>2012-03-25T16:18:09Z</time><cmt>6.6 kmh</cmt></trkpt>
<trkpt lat="58.777063" lon="05.693528"><ele>26</ele><time>2012-03-25T16:18:09Z</time><cmt>6.9 kmh</cmt></trkpt>
<trkpt lat="58.777048" lon="05.693511"><ele>26</ele><time>2012-03-25T16:18:10Z</time><cmt>7.0 kmh</cmt></trkpt>
<trkpt lat="58.777033" lon="05.693493"><ele>26</ele><time>2012-03-25T16:18:12Z</time><cmt>6.7 kmh</cmt></trkpt>
<trkpt lat="58.777018" lon="05.693474"><ele>26</ele><time>2012-03-25T16:18:13Z</time><cmt>7.3 kmh</cmt></trkpt>
<trkpt lat="58.777004" lon="05.693454"><ele>26</ele><time>2012-03-25T16:18:14Z</time><cmt>7.0 kmh</cmt></trkpt>
<trkpt lat="58.776989" lon="05.693434"><ele>26</ele><time>2012-03-25T16:18:15Z</time><cmt>7.0 kmh</cmt></trkpt>
<trkpt lat="58.776975" lon="05.693413"><ele>26</ele><time>2012-03-25T16:18:15Z</time><cmt>6.9 kmh</cmt></trkpt>
<trkpt lat="58.776961" lon="05.693391"><ele>26</ele><time>2012-03-25T16:18:16Z</time><cmt>7.0 kmh</cmt></trkpt>
<trkpt lat="58.776948" lon="05.693369"><ele>26</ele><time>2012-03-25T16:18:18Z</time><cmt>5.8 kmh</cmt></trkpt>
<trkpt lat="58.776940" lon="05.693348"><ele>26</ele><time>2012-03-25T16:18:19Z</time><cmt>5.8 kmh</cmt></trkpt>
<trkpt lat="58.776934" lon="05.693330"><ele>26</ele><time>2012-03-25T16:18:20Z</time><cmt>5.0 kmh</cmt></trkpt>
<trkpt lat="58.776928" lon="05.693315"><ele>26</ele><time>2012-03-25T16:18:21Z</time><cmt>4.5 kmh</cmt></trkpt>
<trkpt lat="58.776922" lon="05.693301"><ele>26</ele><time>2012-03-25T16:18:21Z</time><cmt>4.1 kmh</cmt></trkpt>
<trkpt lat="58.776916" lon="05.693287"><ele>26</ele><time>2012-03-25T16:18:22Z</time><cmt>4.1 kmh</cmt></trkpt>
<trkpt lat="58.776908" lon="05.693272"><ele>26</ele><time>2012-03-25T16:18:23Z</time><cmt>4.4 kmh</cmt></trkpt>
<trkpt lat="58.776900" lon="05.693256"><ele>26</ele><time>2012-03-25T16:18:25Z</time><cmt>3.9 kmh</cmt></trkpt>
<trkpt lat="58.776890" lon="05.693241"><ele>26</ele><time>2012-03-25T16:18:26Z</time><cmt>4.2 kmh</cmt></trkpt>
<trkpt lat="58.776879" lon="05.693227"><ele>26</ele><time>2012-03-25T16:18:27Z</time><cmt>5.1 kmh</cmt></trkpt>
<trkpt lat="58.776867" lon="05.693214"><ele>26</ele><time>2012-03-25T16:18:28Z</time><cmt>5.4 kmh</cmt></trkpt>
<trkpt lat="58.776855" lon="05.693200"><ele>26</ele><time>2012-03-25T16:18:28Z</time><cmt>5.4 kmh</cmt></trkpt>
<trkpt lat="58.776843" lon="05.693185"><ele>26</ele><time>2012-03-25T16:18:29Z</time><cmt>5.9 kmh</cmt></trkpt>
<trkpt lat="58.776830" lon="05.693171"><ele>26</ele><time>2012-03-25T16:18:31Z</time><cmt>5.9 kmh</cmt></trkpt>
<trkpt lat="58.776816" lon="05.693156"><ele>26</ele><time>2012-03-25T16:18:32Z</time><cmt>6.3 kmh</cmt></trkpt>
<trkpt lat="58.776802" lon="05.693140"><ele>26</ele><time>2012-03-25T16:18:33Z</time><cmt>6.5 kmh</cmt></trkpt>
<trkpt lat="58.776787" lon="05.693123"><ele>26</ele><time>2012-03-25T16:18:34Z</time><cmt>6.6 kmh</cmt></trkpt>
<trkpt lat="58.776773" lon="05.693105"><ele>26</ele><time>2012-03-25T16:18:34Z</time><cmt>6.6 kmh</cmt></trkpt>
<trkpt lat="58.776760" lon="05.693086"><ele>26</ele><time>2012-03-25T16:18:35Z</time><cmt>6.6 kmh</cmt></trkpt>
<trkpt lat="58.776747" lon="05.693066"><ele>26</ele><time>2012-03-25T16:18:37Z</time><cmt>6.7 kmh</cmt></trkpt>
<trkpt lat="58.776735" lon="05.693044"><ele>26</ele><time>2012-03-25T16:18:38Z</time><cmt>6.4 kmh</cmt></trkpt>
<trkpt lat="58.776723" lon="05.693021"><ele>26</ele><time>2012-03-25T16:18:39Z</time><cmt>6.7 kmh</cmt></trkpt>
<trkpt lat="58.776712" lon="05.692996"><ele>26</ele><time>2012-03-25T16:18:40Z</time><cmt>6.6 kmh</cmt></trkpt>
<trkpt lat="58.776701" lon="05.692972"><ele>26</ele><time>2012-03-25T16:18:40Z</time><cmt>6.7 kmh</cmt></trkpt>
<trkpt lat="58.776690" lon="05.692947"><ele>26</ele><time>2012-03-25T16:18:41Z</time><cmt>6.7 kmh</cmt></trkpt>
<trkpt lat="58.776679" lon="05.692922"><ele>26</ele><time>2012-03-25T16:18:43Z</time><cmt>6.8 kmh</cmt></trkpt>
<trkpt lat="58.776667" lon="05.692898"><ele>26</ele><time>2012-03-25T16:18:44Z</time><cmt>6.6 kmh</cmt></trkpt>
<trkpt lat="58.776655" lon="05.692874"><ele>26</ele><time>2012-03-25T16:18:45Z</time><cmt>6.7 kmh</cmt></trkpt>
<trkpt lat="58.776643" lon="05.692851"><ele>26</ele><time>2012-03-25T16:18:46Z</time><cmt>6.7 kmh</cmt></trkpt>
<trkpt lat="58.776631" lon="05.692828"><ele>26</ele><time>2012-03-25T16:18:46Z</time><cmt>6.7 kmh</cmt></trkpt>
<trkpt lat="58.776619" lon="05.692804"><ele>26</ele><time>2012-03-25T16:18:47Z</time><cmt>6.7 kmh</cmt></trkpt>
<trkpt lat="58.776607" lon="05.692781"><ele>26</ele><time>2012-03-25T16:18:49Z</time><cmt>6.7 kmh</cmt></trkpt>
<trkpt lat="58.776595" lon="05.692756"><ele>26</ele><time>2012-03-25T16:18:50Z</time><cmt>6.7 kmh</cmt></trkpt>
<trkpt lat="58.776583" lon="05.692732"><ele>26</ele><time>2012-03-25T16:18:51Z</time><cmt>6.8 kmh</cmt></trkpt>
<trkpt lat="58.776571" lon="05.692708"><ele>26</ele><time>2012-03-25T16:18:52Z</time><cmt>6.7 kmh</cmt></trkpt>
<trkpt lat="58.776560" lon="05.692683"><ele>26</ele><time>2012-03-25T16:18:52Z</time><cmt>6.7 kmh</cmt></trkpt>
<trkpt lat="58.776548" lon="05.692658"><ele>26</ele><time>2012-03-25T16:18:53Z</time><cmt>6.9 kmh</cmt></trkpt>
<trkpt lat="58.776537" lon="05.692634"><ele>26</ele><time>2012-03-25T16:18:55Z</time><cmt>6.8 kmh</cmt></trkpt>
<trkpt lat="58.776526" lon="05.692608"><ele>26</ele><time>2012-03-25T16:18:56Z</time><cmt>6.7 kmh</cmt></trkpt>
<trkpt lat="58.776514" lon="05.692583"><ele>26</ele><time>2012-03-25T16:18:57Z</time><cmt>6.7 kmh</cmt></trkpt>
<trkpt lat="58.776504" lon="05.692557"><ele>26</ele><time>2012-03-25T16:18:58Z</time><cmt>6.8 kmh</cmt></trkpt>
<trkpt lat="58.776493" lon="05.692530"><ele>26</ele><time>2012-03-25T16:18:59Z</time><cmt>6.7 kmh</cmt></trkpt>
<trkpt lat="58.776483" lon="05.692504"><ele>26</ele><time>2012-03-25T16:18:59Z</time><cmt>6.6 kmh</cmt></trkpt>
<trkpt lat="58.776473" lon="05.692478"><ele>26</ele><time>2012-03-25T16:19:00Z</time><cmt>6.4 kmh</cmt></trkpt>
<trkpt lat="58.776464" lon="05.692451"><ele>26</ele><time>2012-03-25T16:19:02Z</time><cmt>6.6 kmh</cmt></trkpt>
<trkpt lat="58.776455" lon="05.692425"><ele>26</ele><time>2012-03-25T16:19:03Z</time><cmt>6.7 kmh</cmt></trkpt>
<trkpt lat="58.776446" lon="05.692397"><ele>26</ele><time>2012-03-25T16:19:04Z</time><cmt>6.8 kmh</cmt></trkpt>
<trkpt lat="58.776437" lon="05.692369"><ele>26</ele><time>2012-03-25T16:19:05Z</time><cmt>6.8 kmh</cmt></trkpt>
<trkpt lat="58.776427" lon="05.692342"><ele>26</ele><time>2012-03-25T16:19:05Z</time><cmt>6.7 kmh</cmt></trkpt>
<trkpt lat="58.776418" lon="05.692315"><ele>26</ele><time>2012-03-25T16:19:06Z</time><cmt>6.7 kmh</cmt></trkpt>
<trkpt lat="58.776408" lon="05.692289"><ele>26</ele><time>2012-03-25T16:19:08Z</time><cmt>6.8 kmh</cmt></trkpt>
<trkpt lat="58.776398" lon="05.692263"><ele>26</ele><time>2012-03-25T16:19:09Z</time><cmt>6.5 kmh</cmt></trkpt>
<trkpt lat="58.776388" lon="05.692236"><ele>26</ele><time>2012-03-25T16:19:10Z</time><cmt>6.8 kmh</cmt></trkpt>
<trkpt lat="58.776378" lon="05.692210"><ele>26</ele><time>2012-03-25T16:19:11Z</time><cmt>6.7 kmh</cmt></trkpt>
<trkpt lat="58.776369" lon="05.692184"><ele>26</ele><time>2012-03-25T16:19:11Z</time><cmt>6.6 kmh</cmt></trkpt>
<trkpt lat="58.776359" lon="05.692157"><ele>26</ele><time>2012-03-25T16:19:12Z</time><cmt>6.6 kmh</cmt></trkpt>
<trkpt lat="58.776349" lon="05.692130"><ele>26</ele><time>2012-03-25T16:19:14Z</time><cmt>6.7 kmh</cmt></trkpt>
<trkpt lat="58.776340" lon="05.692103"><ele>26</ele><time>2012-03-25T16:19:15Z</time><cmt>6.8 kmh</cmt></trkpt>
<trkpt lat="58.776330" lon="05.692076"><ele>26</ele><time>2012-03-25T16:19:16Z</time><cmt>6.8 kmh</cmt></trkpt>
<trkpt lat="58.776320" lon="05.692049"><ele>26</ele><time>2012-03-25T16:19:17Z</time><cmt>6.9 kmh</cmt></trkpt>
<trkpt lat="58.776310" lon="05.692021"><ele>26</ele><time>2012-03-25T16:19:17Z</time><cmt>7.1 kmh</cmt></trkpt>
<trkpt lat="58.776299" lon="05.691993"><ele>26</ele><time>2012-03-25T16:19:18Z</time><cmt>7.1 kmh</cmt></trkpt>
<trkpt lat="58.776288" lon="05.691965"><ele>26</ele><time>2012-03-25T16:19:20Z</time><cmt>7.2 kmh</cmt></trkpt>
<trkpt lat="58.776277" lon="05.691937"><ele>26</ele><time>2012-03-25T16:19:21Z</time><cmt>7.2 kmh</cmt></trkpt>
<trkpt lat="58.776265" lon="05.691909"><ele>26</ele><time>2012-03-25T16:19:22Z</time><cmt>7.2 kmh</cmt></trkpt>
<trkpt lat="58.776254" lon="05.691882"><ele>27</ele><time>2012-03-25T16:19:23Z</time><cmt>7.1 kmh</cmt></trkpt>
<trkpt lat="58.776242" lon="05.691854"><ele>27</ele><time>2012-03-25T16:19:23Z</time><cmt>7.2 kmh</cmt></trkpt>
<trkpt lat="58.776231" lon="05.691828"><ele>27</ele><time>2012-03-25T16:19:24Z</time><cmt>7.0 kmh</cmt></trkpt>
<trkpt lat="58.776219" lon="05.691799"><ele>27</ele><time>2012-03-25T16:19:26Z</time><cmt>7.4 kmh</cmt></trkpt>
<trkpt lat="58.776208" lon="05.691769"><ele>27</ele><time>2012-03-25T16:19:27Z</time><cmt>7.1 kmh</cmt></trkpt>
<trkpt lat="58.776196" lon="05.691740"><ele>27</ele><time>2012-03-25T16:19:28Z</time><cmt>7.5 kmh</cmt></trkpt>
<trkpt lat="58.776185" lon="05.691710"><ele>27</ele><time>2012-03-25T16:19:29Z</time><cmt>7.2 kmh</cmt></trkpt>
<trkpt lat="58.776174" lon="05.691681"><ele>27</ele><time>2012-03-25T16:19:30Z</time><cmt>7.5 kmh</cmt></trkpt>
<trkpt lat="58.776162" lon="05.691652"><ele>27</ele><time>2012-03-25T16:19:30Z</time><cmt>7.4 kmh</cmt></trkpt>
<trkpt lat="58.776150" lon="05.691623"><ele>27</ele><time>2012-03-25T16:19:31Z</time><cmt>7.8 kmh</cmt></trkpt>
<trkpt lat="58.776138" lon="05.691593"><ele>27</ele><time>2012-03-25T16:19:33Z</time><cmt>7.6 kmh</cmt></trkpt>
<trkpt lat="58.776125" lon="05.691564"><ele>27</ele><time>2012-03-25T16:19:34Z</time><cmt>7.7 kmh</cmt></trkpt>
<trkpt lat="58.776113" lon="05.691535"><ele>27</ele><time>2012-03-25T16:19:35Z</time><cmt>7.8 kmh</cmt></trkpt>
<trkpt lat="58.776101" lon="05.691506"><ele>27</ele><time>2012-03-25T16:19:36Z</time><cmt>7.6 kmh</cmt></trkpt>
<trkpt lat="58.776089" lon="05.691477"><ele>27</ele><time>2012-03-25T16:19:36Z</time><cmt>7.6 kmh</cmt></trkpt>
<trkpt lat="58.776077" lon="05.691448"><ele>27</ele><time>2012-03-25T16:19:37Z</time><cmt>7.5 kmh</cmt></trkpt>
<trkpt lat="58.776065" lon="05.691420"><ele>27</ele><time>2012-03-25T16:19:39Z</time><cmt>7.4 kmh</cmt></trkpt>
<trkpt lat="58.776052" lon="05.691394"><ele>27</ele><time>2012-03-25T16:19:40Z</time><cmt>7.5 kmh</cmt></trkpt>
<trkpt lat="58.776039" lon="05.691368"><ele>27</ele><time>2012-03-25T16:19:41Z</time><cmt>7.5 kmh</cmt></trkpt>
<trkpt lat="58.776024" lon="05.691342"><ele>27</ele><time>2012-03-25T16:19:42Z</time><cmt>7.5 kmh</cmt></trkpt>
<trkpt lat="58.776010" lon="05.691317"><ele>27</ele><time>2012-03-25T16:19:42Z</time><cmt>7.7 kmh</cmt></trkpt>
<trkpt lat="58.775995" lon="05.691292"><ele>27</ele><time>2012-03-25T16:19:43Z</time><cmt>7.5 kmh</cmt></trkpt>
<trkpt lat="58.775981" lon="05.691267"><ele>27</ele><time>2012-03-25T16:19:45Z</time><cmt>7.5 kmh</cmt></trkpt>
<trkpt lat="58.775966" lon="05.691243"><ele>27</ele><time>2012-03-25T16:19:46Z</time><cmt>7.5 kmh</cmt></trkpt>
<trkpt lat="58.775951" lon="05.691219"><ele>27</ele><time>2012-03-25T16:19:47Z</time><cmt>7.4 kmh</cmt></trkpt>
<trkpt lat="58.775936" lon="05.691196"><ele>27</ele><time>2012-03-25T16:19:48Z</time><cmt>7.6 kmh</cmt></trkpt>
<trkpt lat="58.775920" lon="05.691172"><ele>27</ele><time>2012-03-25T16:19:48Z</time><cmt>7.2 kmh</cmt></trkpt>
<trkpt lat="58.775905" lon="05.691150"><ele>27</ele><time>2012-03-25T16:19:49Z</time><cmt>7.2 kmh</cmt></trkpt>
<trkpt lat="58.775890" lon="05.691128"><ele>27</ele><time>2012-03-25T16:19:51Z</time><cmt>7.1 kmh</cmt></trkpt>
<trkpt lat="58.775876" lon="05.691107"><ele>27</ele><time>2012-03-25T16:19:52Z</time><cmt>6.7 kmh</cmt></trkpt>
<trkpt lat="58.775862" lon="05.691088"><ele>27</ele><time>2012-03-25T16:19:53Z</time><cmt>5.9 kmh</cmt></trkpt>
<trkpt lat="58.775849" lon="05.691072"><ele>27</ele><time>2012-03-25T16:19:54Z</time><cmt>5.6 kmh</cmt></trkpt>
<trkpt lat="58.775836" lon="05.691059"><ele>27</ele><time>2012-03-25T16:19:54Z</time><cmt>5.1 kmh</cmt></trkpt>
<trkpt lat="58.775824" lon="05.691048"><ele>27</ele><time>2012-03-25T16:19:55Z</time><cmt>5.1 kmh</cmt></trkpt>
<trkpt lat="58.775814" lon="05.691039"><ele>27</ele><time>2012-03-25T16:19:57Z</time><cmt>4.2 kmh</cmt></trkpt>
<trkpt lat="58.775805" lon="05.691031"><ele>27</ele><time>2012-03-25T16:19:58Z</time><cmt>3.6 kmh</cmt></trkpt>
<trkpt lat="58.775797" lon="05.691023"><ele>27</ele><time>2012-03-25T16:19:59Z</time><cmt>4.2 kmh</cmt></trkpt>
<trkpt lat="58.775789" lon="05.691016"><ele>27</ele><time>2012-03-25T16:20:00Z</time><cmt>3.9 kmh</cmt></trkpt>
<trkpt lat="58.775781" lon="05.691008"><ele>27</ele><time>2012-03-25T16:20:01Z</time><cmt>3.8 kmh</cmt></trkpt>
<trkpt lat="58.775773" lon="05.691002"><ele>27</ele><time>2012-03-25T16:20:01Z</time><cmt>3.9 kmh</cmt></trkpt>
<trkpt lat="58.775765" lon="05.690996"><ele>27</ele><time>2012-03-25T16:20:02Z</time><cmt>3.9 kmh</cmt></trkpt>
<trkpt lat="58.775757" lon="05.690991"><ele>27</ele><time>2012-03-25T16:20:04Z</time><cmt>2.9 kmh</cmt></trkpt>
<trkpt lat="58.775750" lon="05.690987"><ele>27</ele><time>2012-03-25T16:20:05Z</time><cmt>2.8 kmh</cmt></trkpt>
<trkpt lat="58.775741" lon="05.690984"><ele>27</ele><time>2012-03-25T16:20:06Z</time><cmt>3.5 kmh</cmt></trkpt>
<trkpt lat="58.775734" lon="05.690981"><ele>27</ele><time>2012-03-25T16:20:07Z</time><cmt>3.4 kmh</cmt></trkpt>
<trkpt lat="58.775727" lon="05.690978"><ele>27</ele><time>2012-03-25T16:20:07Z</time><cmt>3.0 kmh</cmt></trkpt>
<trkpt lat="58.775721" lon="05.690974"><ele>27</ele><time>2012-03-25T16:20:08Z</time><cmt>2.9 kmh</cmt></trkpt>
<trkpt lat="58.775715" lon="05.690971"><ele>27</ele><time>2012-03-25T16:20:10Z</time><cmt>2.3 kmh</cmt></trkpt>
<trkpt lat="58.775709" lon="05.690969"><ele>27</ele><time>2012-03-25T16:20:11Z</time><cmt>2.0 kmh</cmt></trkpt>
<trkpt lat="58.775704" lon="05.690966"><ele>27</ele><time>2012-03-25T16:20:12Z</time><cmt>2.4 kmh</cmt></trkpt>
<trkpt lat="58.775697" lon="05.690962"><ele>27</ele><time>2012-03-25T16:20:13Z</time><cmt>2.7 kmh</cmt></trkpt>
<trkpt lat="58.775690" lon="05.690955"><ele>27</ele><time>2012-03-25T16:20:13Z</time><cmt>3.3 kmh</cmt></trkpt>
<trkpt lat="58.775680" lon="05.690946"><ele>27</ele><time>2012-03-25T16:20:14Z</time><cmt>4.0 kmh</cmt></trkpt>
<trkpt lat="58.775670" lon="05.690934"><ele>27</ele><time>2012-03-25T16:20:16Z</time><cmt>5.2 kmh</cmt></trkpt>
<trkpt lat="58.775658" lon="05.690920"><ele>27</ele><time>2012-03-25T16:20:17Z</time><cmt>6.2 kmh</cmt></trkpt>
<trkpt lat="58.775645" lon="05.690904"><ele>27</ele><time>2012-03-25T16:20:18Z</time><cmt>6.6 kmh</cmt></trkpt>
<trkpt lat="58.775630" lon="05.690887"><ele>27</ele><time>2012-03-25T16:20:19Z</time><cmt>7.1 kmh</cmt></trkpt>
<trkpt lat="58.775614" lon="05.690870"><ele>27</ele><time>2012-03-25T16:20:19Z</time><cmt>7.3 kmh</cmt></trkpt>
<trkpt lat="58.775598" lon="05.690852"><ele>27</ele><time>2012-03-25T16:20:20Z</time><cmt>7.5 kmh</cmt></trkpt>
<trkpt lat="58.775581" lon="05.690835"><ele>27</ele><time>2012-03-25T16:20:22Z</time><cmt>7.8 kmh</cmt></trkpt>
<trkpt lat="58.775563" lon="05.690817"><ele>27</ele><time>2012-03-25T16:20:23Z</time><cmt>7.5 kmh</cmt></trkpt>
<trkpt lat="58.775547" lon="05.690799"><ele>27</ele><time>2012-03-25T16:20:24Z</time><cmt>7.7 kmh</cmt></trkpt>
<trkpt lat="58.775529" lon="05.690781"><ele>27</ele><time>2012-03-25T16:20:25Z</time><cmt>7.6 kmh</cmt></trkpt>
<trkpt lat="58.775512" lon="05.690764"><ele>27</ele><time>2012-03-25T16:20:25Z</time><cmt>7.7 kmh</cmt></trkpt>
<trkpt lat="58.775494" lon="05.690748"><ele>27</ele><time>2012-03-25T16:20:26Z</time><cmt>7.4 kmh</cmt></trkpt>
<trkpt lat="58.775477" lon="05.690731"><ele>27</ele><time>2012-03-25T16:20:28Z</time><cmt>7.6 kmh</cmt></trkpt>
<trkpt lat="58.775460" lon="05.690714"><ele>27</ele><time>2012-03-25T16:20:29Z</time><cmt>7.5 kmh</cmt></trkpt>
<trkpt lat="58.775443" lon="05.690696"><ele>27</ele><time>2012-03-25T16:20:30Z</time><cmt>7.8 kmh</cmt></trkpt>
<trkpt lat="58.775426" lon="05.690677"><ele>27</ele><time>2012-03-25T16:20:31Z</time><cmt>7.7 kmh</cmt></trkpt>
<trkpt lat="58.775409" lon="05.690658"><ele>27</ele><time>2012-03-25T16:20:32Z</time><cmt>7.8 kmh</cmt></trkpt>
<trkpt lat="58.775392" lon="05.690638"><ele>27</ele><time>2012-03-25T16:20:32Z</time><cmt>7.6 kmh</cmt></trkpt>
<trkpt lat="58.775375" lon="05.690618"><ele>27</ele><time>2012-03-25T16:20:33Z</time><cmt>7.6 kmh</cmt></trkpt>
<trkpt lat="58.775359" lon="05.690599"><ele>27</ele><time>2012-03-25T16:20:35Z</time><cmt>7.5 kmh</cmt></trkpt>
<trkpt lat="58.775343" lon="05.690579"><ele>27</ele><time>2012-03-25T16:20:36Z</time><cmt>7.5 kmh</cmt></trkpt>
<trkpt lat="58.775326" lon="05.690558"><ele>27</ele><time>2012-03-25T16:20:37Z</time><cmt>7.5 kmh</cmt></trkpt>
<trkpt lat="58.775310" lon="05.690538"><ele>28</ele><time>2012-03-25T16:20:38Z</time><cmt>7.4 kmh</cmt></trkpt>
<trkpt lat="58.775294" lon="05.690518"><ele>28</ele><time>2012-03-25T16:20:38Z</time><cmt>7.3 kmh</cmt></trkpt>
<trkpt lat="58.775279" lon="05.690498"><ele>28</ele><time>2012-03-25T16:20:39Z</time><cmt>7.2 kmh</cmt></trkpt>
<trkpt lat="58.775263" lon="05.690477"><ele>28</ele><time>2012-03-25T16:20:41Z</time><cmt>7.5 kmh</cmt></trkpt>
<trkpt lat="58.775247" lon="05.690457"><ele>28</ele><time>2012-03-25T16:20:42Z</time><cmt>7.4 kmh</cmt></trkpt>
<trkpt lat="58.775232" lon="05.690436"><ele>28</ele><time>2012-03-25T16:20:43Z</time><cmt>7.6 kmh</cmt></trkpt>
<trkpt lat="58.775216" lon="05.690415"><ele>28</ele><time>2012-03-25T16:20:44Z</time><cmt>7.3 kmh</cmt></trkpt>
<trkpt lat="58.775201" lon="05.690394"><ele>28</ele><time>2012-03-25T16:20:44Z</time><cmt>7.0 kmh</cmt></trkpt>
<trkpt lat="58.775186" lon="05.690375"><ele>28</ele><time>2012-03-25T16:20:45Z</time><cmt>6.4 kmh</cmt></trkpt>
<trkpt lat="58.775173" lon="05.690356"><ele>28</ele><time>2012-03-25T16:20:47Z</time><cmt>6.2 kmh</cmt></trkpt>
<trkpt lat="58.775160" lon="05.690338"><ele>28</ele><time>2012-03-25T16:20:48Z</time><cmt>5.8 kmh</cmt></trkpt>
<trkpt lat="58.775149" lon="05.690319"><ele>28</ele><time>2012-03-25T16:20:49Z</time><cmt>5.4 kmh</cmt></trkpt>
<trkpt lat="58.775139" lon="05.690301"><ele>28</ele><time>2012-03-25T16:20:50Z</time><cmt>5.4 kmh</cmt></trkpt>
<trkpt lat="58.775130" lon="05.690283"><ele>28</ele><time>2012-03-25T16:20:50Z</time><cmt>5.0 kmh</cmt></trkpt>
<trkpt lat="58.775123" lon="05.690265"><ele>28</ele><time>2012-03-25T16:20:51Z</time><cmt>5.0 kmh</cmt></trkpt>
<trkpt lat="58.775115" lon="05.690248"><ele>28</ele><time>2012-03-25T16:20:53Z</time><cmt>4.1 kmh</cmt></trkpt>
<trkpt lat="58.775108" lon="05.690231"><ele>28</ele><time>2012-03-25T16:20:54Z</time><cmt>3.9 kmh</cmt></trkpt>
<trkpt lat="58.775102" lon="05.690216"><ele>28</ele><time>2012-03-25T16:20:55Z</time><cmt>4.7 kmh</cmt></trkpt>
<trkpt lat="58.775095" lon="05.690201"><ele>28</ele><time>2012-03-25T16:20:56Z</time><cmt>4.4 kmh</cmt></trkpt>
<trkpt lat="58.775088" lon="05.690186"><ele>28</ele><time>2012-03-25T16:20:56Z</time><cmt>4.4 kmh</cmt></trkpt>
<trkpt lat="58.775082" lon="05.690172"><ele>28</ele><time>2012-03-25T16:20:57Z</time><cmt>4.3 kmh</cmt></trkpt>
<trkpt lat="58.775076" lon="05.690158"><ele>28</ele><time>2012-03-25T16:20:59Z</time><cmt>3.3 kmh</cmt></trkpt>
<trkpt lat="58.775070" lon="05.690147"><ele>28</ele><time>2012-03-25T16:21:00Z</time><cmt>3.0 kmh</cmt></trkpt>
<trkpt lat="58.775064" lon="05.690135"><ele>28</ele><time>2012-03-25T16:21:01Z</time><cmt>3.6 kmh</cmt></trkpt>
<trkpt lat="58.775058" lon="05.690123"><ele>28</ele><time>2012-03-25T16:21:02Z</time><cmt>3.7 kmh</cmt></trkpt>
<trkpt lat="58.775053" lon="05.690112"><ele>28</ele><time>2012-03-25T16:21:02Z</time><cmt>3.4 kmh</cmt></trkpt>
<trkpt lat="58.775049" lon="05.690103"><ele>28</ele><time>2012-03-25T16:21:03Z</time><cmt>3.0 kmh</cmt></trkpt>
<trkpt lat="58.775044" lon="05.690093"><ele>28</ele><time>2012-03-25T16:21:05Z</time><cmt>2.3 kmh</cmt></trkpt>
<trkpt lat="58.775039" lon="05.690083"><ele>28</ele><time>2012-03-25T16:21:06Z</time><cmt>2.5 kmh</cmt></trkpt>
<trkpt lat="58.775033" lon="05.690073"><ele>28</ele><time>2012-03-25T16:21:07Z</time><cmt>3.2 kmh</cmt></trkpt>
<trkpt lat="58.775028" lon="05.690063"><ele>28</ele><time>2012-03-25T16:21:08Z</time><cmt>3.2 kmh</cmt></trkpt>
<trkpt lat="58.775023" lon="05.690054"><ele>28</ele><time>2012-03-25T16:21:09Z</time><cmt>3.1 kmh</cmt></trkpt>
<trkpt lat="58.775018" lon="05.690045"><ele>28</ele><time>2012-03-25T16:21:09Z</time><cmt>3.0 kmh</cmt></trkpt>
<trkpt lat="58.775013" lon="05.690037"><ele>28</ele><time>2012-03-25T16:21:10Z</time><cmt>2.7 kmh</cmt></trkpt>
<trkpt lat="58.775009" lon="05.690030"><ele>28</ele><time>2012-03-25T16:21:12Z</time><cmt>2.0 kmh</cmt></trkpt>
<trkpt lat="58.775005" lon="05.690023"><ele>28</ele><time>2012-03-25T16:21:13Z</time><cmt>1.9 kmh</cmt></trkpt>
<trkpt lat="58.775001" lon="05.690017"><ele>28</ele><time>2012-03-25T16:21:14Z</time><cmt>2.3 kmh</cmt></trkpt>
<trkpt lat="58.774997" lon="05.690011"><ele>28</ele><time>2012-03-25T16:21:15Z</time><cmt>2.2 kmh</cmt></trkpt>
<trkpt lat="58.774993" lon="05.690006"><ele>28</ele><time>2012-03-25T16:21:15Z</time><cmt>2.1 kmh</cmt></trkpt>
<trkpt lat="58.774990" lon="05.690000"><ele>28</ele><time>2012-03-25T16:21:16Z</time><cmt>1.9 kmh</cmt></trkpt>
<trkpt lat="58.774986" lon="05.689996"><ele>28</ele><time>2012-03-25T16:21:18Z</time><cmt>1.5 kmh</cmt></trkpt>
<trkpt lat="58.774982" lon="05.689991"><ele>28</ele><time>2012-03-25T16:21:19Z</time><cmt>1.6 kmh</cmt></trkpt>
<trkpt lat="58.774978" lon="05.689987"><ele>28</ele><time>2012-03-25T16:21:20Z</time><cmt>2.0 kmh</cmt></trkpt>
<trkpt lat="58.774974" lon="05.689983"><ele>28</ele><time>2012-03-25T16:21:21Z</time><cmt>2.0 kmh</cmt></trkpt>
<trkpt lat="58.774970" lon="05.689979"><ele>28</ele><time>2012-03-25T16:21:21Z</time><cmt>1.9 kmh</cmt></trkpt>
<trkpt lat="58.774967" lon="05.689975"><ele>28</ele><time>2012-03-25T16:21:22Z</time><cmt>1.8 kmh</cmt></trkpt>
<trkpt lat="58.774963" lon="05.689971"><ele>28</ele><time>2012-03-25T16:21:24Z</time><cmt>1.4 kmh</cmt></trkpt>
<trkpt lat="58.774960" lon="05.689967"><ele>28</ele><time>2012-03-25T16:21:25Z</time><cmt>1.4 kmh</cmt></trkpt>
<trkpt lat="58.774956" lon="05.689964"><ele>28</ele><time>2012-03-25T16:21:26Z</time><cmt>1.7 kmh</cmt></trkpt>
<trkpt lat="58.774953" lon="05.689960"><ele>28</ele><time>2012-03-25T16:21:27Z</time><cmt>1.6 kmh</cmt></trkpt>
<trkpt lat="58.774950" lon="05.689957"><ele>28</ele><time>2012-03-25T16:21:27Z</time><cmt>1.6 kmh</cmt></trkpt>
<trkpt lat="58.774946" lon="05.689954"><ele>28</ele><time>2012-03-25T16:21:28Z</time><cmt>1.6 kmh</cmt></trkpt>
<trkpt lat="58.774943" lon="05.689951"><ele>28</ele><time>2012-03-25T16:21:30Z</time><cmt>1.2 kmh</cmt></trkpt>
<trkpt lat="58.774940" lon="05.689949"><ele>28</ele><time>2012-03-25T16:21:31Z</time><cmt>1.2 kmh</cmt></trkpt>
<trkpt lat="58.774937" lon="05.689946"><ele>28</ele><time>2012-03-25T16:21:32Z</time><cmt>1.5 kmh</cmt></trkpt>
<trkpt lat="58.774934" lon="05.689944"><ele>28</ele><time>2012-03-25T16:21:33Z</time><cmt>1.4 kmh</cmt></trkpt>
<trkpt lat="58.774930" lon="05.689943"><ele>28</ele><time>2012-03-25T16:21:33Z</time><cmt>1.4 kmh</cmt></trkpt>
<trkpt lat="58.774927" lon="05.689940"><ele>28</ele><time>2012-03-25T16:21:34Z</time><cmt>1.4 kmh</cmt></trkpt>
<trkpt lat="58.774925" lon="05.689937"><ele>28</ele><time>2012-03-25T16:21:36Z</time><cmt>1.1 kmh</cmt></trkpt>
<trkpt lat="58.774923" lon="05.689934"><ele>28</ele><time>2012-03-25T16:21:37Z</time><cmt>1.0 kmh</cmt></trkpt>
<trkpt lat="58.774921" lon="05.689931"><ele>28</ele><time>2012-03-25T16:21:38Z</time><cmt>1.1 kmh</cmt></trkpt>
<trkpt lat="58.774919" lon="05.689929"><ele>28</ele><time>2012-03-25T16:21:39Z</time><cmt>1.0 kmh</cmt></trkpt>
<trkpt lat="58.774917" lon="05.689926"><ele>28</ele><time>2012-03-25T16:21:40Z</time><cmt>1.0 kmh</cmt></trkpt>
<trkpt lat="58.774914" lon="05.689923"><ele>28</ele><time>2012-03-25T16:21:40Z</time><cmt>1.2 kmh</cmt></trkpt>
<trkpt lat="58.774911" lon="05.689919"><ele>28</ele><time>2012-03-25T16:21:41Z</time><cmt>1.5 kmh</cmt></trkpt>
<trkpt lat="58.774907" lon="05.689914"><ele>28</ele><time>2012-03-25T16:21:43Z</time><cmt>1.5 kmh</cmt></trkpt>
<trkpt lat="58.774902" lon="05.689909"><ele>28</ele><time>2012-03-25T16:21:44Z</time><cmt>1.8 kmh</cmt></trkpt>
<trkpt lat="58.774896" lon="05.689902"><ele>28</ele><time>2012-03-25T16:21:45Z</time><cmt>2.8 kmh</cmt></trkpt>
<trkpt lat="58.774888" lon="05.689892"><ele>28</ele><time>2012-03-25T16:21:46Z</time><cmt>3.7 kmh</cmt></trkpt>
<trkpt lat="58.774878" lon="05.689879"><ele>28</ele><time>2012-03-25T16:21:46Z</time><cmt>4.5 kmh</cmt></trkpt>
<trkpt lat="58.774868" lon="05.689864"><ele>28</ele><time>2012-03-25T16:21:47Z</time><cmt>5.2 kmh</cmt></trkpt>
<trkpt lat="58.774857" lon="05.689848"><ele>28</ele><time>2012-03-25T16:21:49Z</time><cmt>5.6 kmh</cmt></trkpt>
<trkpt lat="58.774846" lon="05.689829"><ele>28</ele><time>2012-03-25T16:21:50Z</time><cmt>6.3 kmh</cmt></trkpt>
<trkpt lat="58.774834" lon="05.689810"><ele>28</ele><time>2012-03-25T16:21:51Z</time><cmt>6.3 kmh</cmt></trkpt>
<trkpt lat="58.774821" lon="05.689789"><ele>28</ele><time>2012-03-25T16:21:52Z</time><cmt>6.7 kmh</cmt></trkpt>
<trkpt lat="58.774807" lon="05.689767"><ele>28</ele><time>2012-03-25T16:21:52Z</time><cmt>6.7 kmh</cmt></trkpt>
<trkpt lat="58.774794" lon="05.689745"><ele>28</ele><time>2012-03-25T16:21:53Z</time><cmt>7.1 kmh</cmt></trkpt>
<trkpt lat="58.774779" lon="05.689723"><ele>28</ele><time>2012-03-25T16:21:55Z</time><cmt>7.0 kmh</cmt></trkpt>
<trkpt lat="58.774766" lon="05.689700"><ele>28</ele><time>2012-03-25T16:21:56Z</time><cmt>7.0 kmh</cmt></trkpt>
<trkpt lat="58.774751" lon="05.689678"><ele>28</ele><time>2012-03-25T16:21:57Z</time><cmt>7.1 kmh</cmt></trkpt>
<trkpt lat="58.774736" lon="05.689656"><ele>28</ele><time>2012-03-25T16:21:58Z</time><cmt>6.9 kmh</cmt></trkpt>
<trkpt lat="58.774722" lon="05.689635"><ele>28</ele><time>2012-03-25T16:21:58Z</time><cmt>7.0 kmh</cmt></trkpt>
<trkpt lat="58.774708" lon="05.689612"><ele>28</ele><time>2012-03-25T16:21:59Z</time><cmt>6.9 kmh</cmt></trkpt>
<trkpt lat="58.774694" lon="05.689590"><ele>28</ele><time>2012-03-25T16:22:01Z</time><cmt>6.9 kmh</cmt></trkpt>
<trkpt lat="58.774681" lon="05.689567"><ele>28</ele><time>2012-03-25T16:22:02Z</time><cmt>6.9 kmh</cmt></trkpt>
<trkpt lat="58.774668" lon="05.689544"><ele>28</ele><time>2012-03-25T16:22:03Z</time><cmt>7.1 kmh</cmt></trkpt>
<trkpt lat="58.774655" lon="05.689520"><ele>28</ele><time>2012-03-25T16:22:04Z</time><cmt>6.9 kmh</cmt></trkpt>
<trkpt lat="58.774642" lon="05.689497"><ele>28</ele><time>2012-03-25T16:22:04Z</time><cmt>6.9 kmh</cmt></trkpt>
<trkpt lat="58.774629" lon="05.689473"><ele>28</ele><time>2012-03-25T16:22:05Z</time><cmt>6.9 kmh</cmt></trkpt>
<trkpt lat="58.774616" lon="05.689449"><ele>28</ele><time>2012-03-25T16:22:07Z</time><cmt>7.1 kmh</cmt></trkpt>
<trkpt lat="58.774603" lon="05.689424"><ele>28</ele><time>2012-03-25T16:22:08Z</time><cmt>7.0 kmh</cmt></trkpt>
<trkpt lat="58.774590" lon="05.689398"><ele>28</ele><time>2012-03-25T16:22:09Z</time><cmt>7.3 kmh</cmt></trkpt>
<trkpt lat="58.774578" lon="05.689373"><ele>28</ele><time>2012-03-25T16:22:10Z</time><cmt>7.0 kmh</cmt></trkpt>
<trkpt lat="58.774565" lon="05.689348"><ele>28</ele><time>2012-03-25T16:22:11Z</time><cmt>7.1 kmh</cmt></trkpt>
<trkpt lat="58.774552" lon="05.689323"><ele>28</ele><time>2012-03-25T16:22:11Z</time><cmt>7.1 kmh</cmt></trkpt>
<trkpt lat="58.774540" lon="05.689297"><ele>28</ele><time>2012-03-25T16:22:12Z</time><cmt>7.2 kmh</cmt></trkpt>
<trkpt lat="58.774527" lon="05.689271"><ele>28</ele><time>2012-03-25T16:22:14Z</time><cmt>7.4 kmh</cmt></trkpt>
<trkpt lat="58.774514" lon="05.689244"><ele>28</ele><time>2012-03-25T16:22:15Z</time><cmt>7.2 kmh</cmt></trkpt>
<trkpt lat="58.774502" lon="05.689217"><ele>28</ele><time>2012-03-25T16:22:16Z</time><cmt>7.2 kmh</cmt></trkpt>
<trkpt lat="58.774490" lon="05.689191"><ele>28</ele><time>2012-03-25T16:22:17Z</time><cmt>7.0 kmh</cmt></trkpt>
<trkpt lat="58.774478" lon="05.689164"><ele>28</ele><time>2012-03-25T16:22:17Z</time><cmt>7.0 kmh</cmt></trkpt>
<trkpt lat="58.774467" lon="05.689137"><ele>28</ele><time>2012-03-25T16:22:18Z</time><cmt>7.0 kmh</cmt></trkpt>
<trkpt lat="58.774455" lon="05.689110"><ele>28</ele><time>2012-03-25T16:22:20Z</time><cmt>7.1 kmh</cmt></trkpt>
<trkpt lat="58.774444" lon="05.689083"><ele>28</ele><time>2012-03-25T16:22:21Z</time><cmt>7.1 kmh</cmt></trkpt>
<trkpt lat="58.774433" lon="05.689056"><ele>28</ele><time>2012-03-25T16:22:22Z</time><cmt>7.1 kmh</cmt></trkpt>
<trkpt lat="58.774421" lon="05.689028"><ele>28</ele><time>2012-03-25T16:22:23Z</time><cmt>7.3 kmh</cmt></trkpt>
<trkpt lat="58.774409" lon="05.689000"><ele>28</ele><time>2012-03-25T16:22:23Z</time><cmt>7.5 kmh</cmt></trkpt>
<trkpt lat="58.774397" lon="05.688972"><ele>28</ele><time>2012-03-25T16:22:24Z</time><cmt>7.3 kmh</cmt></trkpt>
<trkpt lat="58.774384" lon="05.688945"><ele>28</ele><time>2012-03-25T16:22:26Z</time><cmt>7.4 kmh</cmt></trkpt>
<trkpt lat="58.774372" lon="05.688917"><ele>28</ele><time>2012-03-25T16:22:27Z</time><cmt>7.3 kmh</cmt></trkpt>
<trkpt lat="58.774359" lon="05.688889"><ele>28</ele><time>2012-03-25T16:22:28Z</time><cmt>7.4 kmh</cmt></trkpt>
<trkpt lat="58.774347" lon="05.688862"><ele>28</ele><time>2012-03-25T16:22:29Z</time><cmt>7.3 kmh</cmt></trkpt>
<trkpt lat="58.774334" lon="05.688835"><ele>28</ele><time>2012-03-25T16:22:29Z</time><cmt>7.3 kmh</cmt></trkpt>
<trkpt lat="58.774321" lon="05.688808"><ele>28</ele><time>2012-03-25T16:22:30Z</time><cmt>7.2 kmh</cmt></trkpt>
<trkpt lat="58.774309" lon="05.688781"><ele>28</ele><time>2012-03-25T16:22:32Z</time><cmt>7.1 kmh</cmt></trkpt>
<trkpt lat="58.774297" lon="05.688755"><ele>28</ele><time>2012-03-25T16:22:33Z</time><cmt>7.0 kmh</cmt></trkpt>
<trkpt lat="58.774284" lon="05.688729"><ele>28</ele><time>2012-03-25T16:22:34Z</time><cmt>6.8 kmh</cmt></trkpt>
<trkpt lat="58.774272" lon="05.688703"><ele>28</ele><time>2012-03-25T16:22:35Z</time><cmt>6.9 kmh</cmt></trkpt>
<trkpt lat="58.774260" lon="05.688677"><ele>28</ele><time>2012-03-25T16:22:35Z</time><cmt>6.9 kmh</cmt></trkpt>
<trkpt lat="58.774248" lon="05.688651"><ele>28</ele><time>2012-03-25T16:22:36Z</time><cmt>6.9 kmh</cmt></trkpt>
<trkpt lat="58.774236" lon="05.688624"><ele>28</ele><time>2012-03-25T16:22:38Z</time><cmt>7.2 kmh</cmt></trkpt>
<trkpt lat="58.774225" lon="05.688596"><ele>28</ele><time>2012-03-25T16:22:39Z</time><cmt>7.2 kmh</cmt></trkpt>
<trkpt lat="58.774213" lon="05.688568"><ele>28</ele><time>2012-03-25T16:22:40Z</time><cmt>7.3 kmh</cmt></trkpt>
<trkpt lat="58.774201" lon="05.688540"><ele>28</ele><time>2012-03-25T16:22:41Z</time><cmt>7.4 kmh</cmt></trkpt>
<trkpt lat="58.774189" lon="05.688510"><ele>28</ele><time>2012-03-25T16:22:42Z</time><cmt>7.5 kmh</cmt></trkpt>
<trkpt lat="58.774177" lon="05.688481"><ele>28</ele><time>2012-03-25T16:22:42Z</time><cmt>7.3 kmh</cmt></trkpt>
<trkpt lat="58.774166" lon="05.688453"><ele>28</ele><time>2012-03-25T16:22:43Z</time><cmt>7.3 kmh</cmt></trkpt>
<trkpt lat="58.774154" lon="05.688425"><ele>28</ele><time>2012-03-25T16:22:45Z</time><cmt>7.3 kmh</cmt></trkpt>
<trkpt lat="58.774142" lon="05.688397"><ele>28</ele><time>2012-03-25T16:22:46Z</time><cmt>7.4 kmh</cmt></trkpt>
<trkpt lat="58.774130" lon="05.688368"><ele>28</ele><time>2012-03-25T16:22:47Z</time><cmt>7.4 kmh</cmt></trkpt>
<trkpt lat="58.774118" lon="05.688338"><ele>28</ele><time>2012-03-25T16:22:48Z</time><cmt>7.5 kmh</cmt></trkpt>
<trkpt lat="58.774107" lon="05.688309"><ele>28</ele><time>2012-03-25T16:22:48Z</time><cmt>7.4 kmh</cmt></trkpt>
<trkpt lat="58.774095" lon="05.688280"><ele>28</ele><time>2012-03-25T16:22:49Z</time><cmt>7.3 kmh</cmt></trkpt>
<trkpt lat="58.774084" lon="05.688251"><ele>28</ele><time>2012-03-25T16:22:51Z</time><cmt>7.3 kmh</cmt></trkpt>
<trkpt lat="58.774073" lon="05.688222"><ele>28</ele><time>2012-03-25T16:22:52Z</time><cmt>7.1 kmh</cmt></trkpt>
<trkpt lat="58.774062" lon="05.688194"><ele>28</ele><time>2012-03-25T16:22:53Z</time><cmt>7.0 kmh</cmt></trkpt>
<trkpt lat="58.774050" lon="05.688166"><ele>28</ele><time>2012-03-25T16:22:54Z</time><cmt>7.1 kmh</cmt></trkpt>
<trkpt lat="58.774039" lon="05.688137"><ele>27</ele><time>2012-03-25T16:22:54Z</time><cmt>7.3 kmh</cmt></trkpt>
<trkpt lat="58.774028" lon="05.688109"><ele>27</ele><time>2012-03-25T16:22:55Z</time><cmt>7.1 kmh</cmt></trkpt>
<trkpt lat="58.774017" lon="05.688080"><ele>27</ele><time>2012-03-25T16:22:57Z</time><cmt>7.2 kmh</cmt></trkpt>
<trkpt lat="58.774005" lon="05.688052"><ele>27</ele><time>2012-03-25T16:22:58Z</time><cmt>7.2 kmh</cmt></trkpt>
<trkpt lat="58.773994" lon="05.688024"><ele>27</ele><time>2012-03-25T16:22:59Z</time><cmt>7.2 kmh</cmt></trkpt>
<trkpt lat="58.773983" lon="05.687996"><ele>27</ele><time>2012-03-25T16:23:00Z</time><cmt>7.0 kmh</cmt></trkpt>
<trkpt lat="58.773971" lon="05.687969"><ele>27</ele><time>2012-03-25T16:23:00Z</time><cmt>7.1 kmh</cmt></trkpt>
<trkpt lat="58.773960" lon="05.687942"><ele>27</ele><time>2012-03-25T16:23:01Z</time><cmt>6.8 kmh</cmt></trkpt>
<trkpt lat="58.773949" lon="05.687914"><ele>27</ele><time>2012-03-25T16:23:03Z</time><cmt>7.3 kmh</cmt></trkpt>
<trkpt lat="58.773937" lon="05.687887"><ele>27</ele><time>2012-03-25T16:23:04Z</time><cmt>7.0 kmh</cmt></trkpt>
<trkpt lat="58.773925" lon="05.687860"><ele>27</ele><time>2012-03-25T16:23:05Z</time><cmt>7.2 kmh</cmt></trkpt>
<trkpt lat="58.773913" lon="05.687833"><ele>27</ele><time>2012-03-25T16:23:06Z</time><cmt>7.2 kmh</cmt></trkpt>
<trkpt lat="58.773901" lon="05.687807"><ele>27</ele><time>2012-03-25T16:23:06Z</time><cmt>7.1 kmh</cmt></trkpt>
<trkpt lat="58.773889" lon="05.687781"><ele>27</ele><time>2012-03-25T16:23:07Z</time><cmt>6.8 kmh</cmt></trkpt>
<trkpt lat="58.773877" lon="05.687755"><ele>27</ele><time>2012-03-25T16:23:09Z</time><cmt>6.9 kmh</cmt></trkpt>
<trkpt lat="58.773865" lon="05.687730"><ele>27</ele><time>2012-03-25T16:23:10Z</time><cmt>6.7 kmh</cmt></trkpt>
<trkpt lat="58.773854" lon="05.687705"><ele>27</ele><time>2012-03-25T16:23:11Z</time><cmt>6.8 kmh</cmt></trkpt>
<trkpt lat="58.773844" lon="05.687681"><ele>27</ele><time>2012-03-25T16:23:12Z</time><cmt>6.7 kmh</cmt></trkpt>
<trkpt lat="58.773833" lon="05.687656"><ele>27</ele><time>2012-03-25T16:23:13Z</time><cmt>6.6 kmh</cmt></trkpt>
<trkpt lat="58.773823" lon="05.687630"><ele>27</ele><time>2012-03-25T16:23:13Z</time><cmt>7.1 kmh</cmt></trkpt>
<trkpt lat="58.773812" lon="05.687603"><ele>27</ele><time>2012-03-25T16:23:14Z</time><cmt>6.9 kmh</cmt></trkpt>
<trkpt lat="58.773800" lon="05.687576"><ele>27</ele><time>2012-03-25T16:23:16Z</time><cmt>7.1 kmh</cmt></trkpt>
<trkpt lat="58.773789" lon="05.687550"><ele>27</ele><time>2012-03-25T16:23:17Z</time><cmt>6.6 kmh</cmt></trkpt>
<trkpt lat="58.773777" lon="05.687524"><ele>27</ele><time>2012-03-25T16:23:18Z</time><cmt>6.8 kmh</cmt></trkpt>
<trkpt lat="58.773766" lon="05.687498"><ele>27</ele><time>2012-03-25T16:23:19Z</time><cmt>6.8 kmh</cmt></trkpt>
<trkpt lat="58.773755" lon="05.687472"><ele>27</ele><time>2012-03-25T16:23:19Z</time><cmt>6.7 kmh</cmt></trkpt>
<trkpt lat="58.773744" lon="05.687446"><ele>27</ele><time>2012-03-25T16:23:20Z</time><cmt>6.6 kmh</cmt></trkpt>
<trkpt lat="58.773732" lon="05.687420"><ele>27</ele><time>2012-03-25T16:23:22Z</time><cmt>7.3 kmh</cmt></trkpt>
<trkpt lat="58.773720" lon="05.687393"><ele>27</ele><time>2012-03-25T16:23:23Z</time><cmt>7.4 kmh</cmt></trkpt>
<trkpt lat="58.773708" lon="05.687365"><ele>27</ele><time>2012-03-25T16:23:24Z</time><cmt>7.0 kmh</cmt></trkpt>
<trkpt lat="58.773697" lon="05.687338"><ele>27</ele><time>2012-03-25T16:23:25Z</time><cmt>7.0 kmh</cmt></trkpt>
<trkpt lat="58.773686" lon="05.687310"><ele>27</ele><time>2012-03-25T16:23:25Z</time><cmt>6.9 kmh</cmt></trkpt>
<trkpt lat="58.773674" lon="05.687282"><ele>27</ele><time>2012-03-25T16:23:26Z</time><cmt>7.0 kmh</cmt></trkpt>
<trkpt lat="58.773664" lon="05.687255"><ele>27</ele><time>2012-03-25T16:23:28Z</time><cmt>6.8 kmh</cmt></trkpt>
<trkpt lat="58.773653" lon="05.687228"><ele>27</ele><time>2012-03-25T16:23:29Z</time><cmt>6.8 kmh</cmt></trkpt>
<trkpt lat="58.773643" lon="05.687200"><ele>27</ele><time>2012-03-25T16:23:30Z</time><cmt>6.9 kmh</cmt></trkpt>
<trkpt lat="58.773632" lon="05.687173"><ele>27</ele><time>2012-03-25T16:23:31Z</time><cmt>6.8 kmh</cmt></trkpt>
<trkpt lat="58.773622" lon="05.687145"><ele>27</ele><time>2012-03-25T16:23:31Z</time><cmt>6.7 kmh</cmt></trkpt>
<trkpt lat="58.773611" lon="05.687118"><ele>27</ele><time>2012-03-25T16:23:32Z</time><cmt>6.8 kmh</cmt></trkpt>
<trkpt lat="58.773601" lon="05.687090"><ele>27</ele><time>2012-03-25T16:23:34Z</time><cmt>6.7 kmh</cmt></trkpt>
<trkpt lat="58.773591" lon="05.687061"><ele>27</ele><time>2012-03-25T16:23:35Z</time><cmt>6.5 kmh</cmt></trkpt>
<trkpt lat="58.773583" lon="05.687033"><ele>27</ele><time>2012-03-25T16:23:36Z</time><cmt>6.5 kmh</cmt></trkpt>
<trkpt lat="58.773574" lon="05.687004"><ele>27</ele><time>2012-03-25T16:23:37Z</time><cmt>6.5 kmh</cmt></trkpt>
<trkpt lat="58.773566" lon="05.686975"><ele>27</ele><time>2012-03-25T16:23:37Z</time><cmt>6.4 kmh</cmt></trkpt>
<trkpt lat="58.773559" lon="05.686946"><ele>27</ele><time>2012-03-25T16:23:38Z</time><cmt>6.2 kmh</cmt></trkpt>
<trkpt lat="58.773552" lon="05.686917"><ele>27</ele><time>2012-03-25T16:23:40Z</time><cmt>6.5 kmh</cmt></trkpt>
<trkpt lat="58.773543" lon="05.686888"><ele>27</ele><time>2012-03-25T16:23:41Z</time><cmt>6.8 kmh</cmt></trkpt>
<trkpt lat="58.773535" lon="05.686859"><ele>27</ele><time>2012-03-25T16:23:42Z</time><cmt>6.6 kmh</cmt></trkpt>
<trkpt lat="58.773526" lon="05.686831"><ele>27</ele><time>2012-03-25T16:23:43Z</time><cmt>6.3 kmh</cmt></trkpt>
<trkpt lat="58.773517" lon="05.686804"><ele>27</ele><time>2012-03-25T16:23:44Z</time><cmt>6.4 kmh</cmt></trkpt>
<trkpt lat="58.773509" lon="05.686776"><ele>27</ele><time>2012-03-25T16:23:44Z</time><cmt>6.3 kmh</cmt></trkpt>
<trkpt lat="58.773501" lon="05.686748"><ele>27</ele><time>2012-03-25T16:23:45Z</time><cmt>6.4 kmh</cmt></trkpt>
<trkpt lat="58.773493" lon="05.686720"><ele>27</ele><time>2012-03-25T16:23:47Z</time><cmt>6.3 kmh</cmt></trkpt>
<trkpt lat="58.773484" lon="05.686693"><ele>27</ele><time>2012-03-25T16:23:48Z</time><cmt>6.6 kmh</cmt></trkpt>
<trkpt lat="58.773475" lon="05.686665"><ele>27</ele><time>2012-03-25T16:23:49Z</time><cmt>6.7 kmh</cmt></trkpt>
<trkpt lat="58.773467" lon="05.686635"><ele>27</ele><time>2012-03-25T16:23:50Z</time><cmt>7.0 kmh</cmt></trkpt>
<trkpt lat="58.773459" lon="05.686605"><ele>27</ele><time>2012-03-25T16:23:50Z</time><cmt>6.8 kmh</cmt></trkpt>
<trkpt lat="58.773451" lon="05.686574"><ele>27</ele><time>2012-03-25T16:23:51Z</time><cmt>6.9 kmh</cmt></trkpt>
<trkpt lat="58.773444" lon="05.686541"><ele>27</ele><time>2012-03-25T16:23:53Z</time><cmt>7.0 kmh</cmt></trkpt>
<trkpt lat="58.773438" lon="05.686509"><ele>27</ele><time>2012-03-25T16:23:54Z</time><cmt>6.8 kmh</cmt></trkpt>
<trkpt lat="58.773432" lon="05.686476"><ele>27</ele><time>2012-03-25T16:23:55Z</time><cmt>6.9 kmh</cmt></trkpt>
<trkpt lat="58.773427" lon="05.686443"><ele>27</ele><time>2012-03-25T16:23:56Z</time><cmt>7.1 kmh</cmt></trkpt>
<trkpt lat="58.773422" lon="05.686409"><ele>27</ele><time>2012-03-25T16:23:56Z</time><cmt>7.3 kmh</cmt></trkpt>
<trkpt lat="58.773417" lon="05.686376"><ele>27</ele><time>2012-03-25T16:23:57Z</time><cmt>6.9 kmh</cmt></trkpt>
<trkpt lat="58.773412" lon="05.686343"><ele>27</ele><time>2012-03-25T16:23:59Z</time><cmt>6.7 kmh</cmt></trkpt>
<trkpt lat="58.773408" lon="05.686311"><ele>27</ele><time>2012-03-25T16:24:00Z</time><cmt>6.7 kmh</cmt></trkpt>
<trkpt lat="58.773404" lon="05.686278"><ele>27</ele><time>2012-03-25T16:24:01Z</time><cmt>6.4 kmh</cmt></trkpt>
<trkpt lat="58.773400" lon="05.686245"><ele>27</ele><time>2012-03-25T16:24:02Z</time><cmt>6.7 kmh</cmt></trkpt>
<trkpt lat="58.773397" lon="05.686213"><ele>27</ele><time>2012-03-25T16:24:02Z</time><cmt>6.6 kmh</cmt></trkpt>
<trkpt lat="58.773393" lon="05.686181"><ele>27</ele><time>2012-03-25T16:24:03Z</time><cmt>6.5 kmh</cmt></trkpt>
<trkpt lat="58.773389" lon="05.686148"><ele>27</ele><time>2012-03-25T16:24:05Z</time><cmt>6.5 kmh</cmt></trkpt>
<trkpt lat="58.773385" lon="05.686115"><ele>27</ele><time>2012-03-25T16:24:06Z</time><cmt>6.9 kmh</cmt></trkpt>
<trkpt lat="58.773382" lon="05.686082"><ele>27</ele><time>2012-03-25T16:24:07Z</time><cmt>6.5 kmh</cmt></trkpt>
<trkpt lat="58.773379" lon="05.686049"><ele>27</ele><time>2012-03-25T16:24:08Z</time><cmt>6.7 kmh</cmt></trkpt>
<trkpt lat="58.773377" lon="05.686019"><ele>27</ele><time>2012-03-25T16:24:08Z</time><cmt>6.7 kmh</cmt></trkpt>
<trkpt lat="58.773375" lon="05.685987"><ele>27</ele><time>2012-03-25T16:24:09Z</time><cmt>6.6 kmh</cmt></trkpt>
<trkpt lat="58.773373" lon="05.685954"><ele>27</ele><time>2012-03-25T16:24:11Z</time><cmt>6.5 kmh</cmt></trkpt>
<trkpt lat="58.773372" lon="05.685922"><ele>27</ele><time>2012-03-25T16:24:12Z</time><cmt>6.6 kmh</cmt></trkpt>
<trkpt lat="58.773371" lon="05.685889"><ele>27</ele><time>2012-03-25T16:24:13Z</time><cmt>6.8 kmh</cmt></trkpt>
<trkpt lat="58.773369" lon="05.685856"><ele>27</ele><time>2012-03-25T16:24:14Z</time><cmt>6.5 kmh</cmt></trkpt>
<trkpt lat="58.773368" lon="05.685823"><ele>27</ele><time>2012-03-25T16:24:14Z</time><cmt>6.9 kmh</cmt></trkpt>
<trkpt lat="58.773366" lon="05.685790"><ele>27</ele><time>2012-03-25T16:24:15Z</time><cmt>6.8 kmh</cmt></trkpt>
<trkpt lat="58.773365" lon="05.685757"><ele>27</ele><time>2012-03-25T16:24:16Z</time><cmt>6.5 kmh</cmt></trkpt>
<trkpt lat="58.773363" lon="05.685724"><ele>27</ele><time>2012-03-25T16:24:18Z</time><cmt>6.6 kmh</cmt></trkpt>
<trkpt lat="58.773361" lon="05.685692"><ele>27</ele><time>2012-03-25T16:24:19Z</time><cmt>6.5 kmh</cmt></trkpt>
<trkpt lat="58.773359" lon="05.685660"><ele>27</ele><time>2012-03-25T16:24:20Z</time><cmt>6.3 kmh</cmt></trkpt>
<trkpt lat="58.773357" lon="05.685629"><ele>27</ele><time>2012-03-25T16:24:21Z</time><cmt>5.9 kmh</cmt></trkpt>
<trkpt lat="58.773355" lon="05.685602"><ele>27</ele><time>2012-03-25T16:24:21Z</time><cmt>5.1 kmh</cmt></trkpt>
<trkpt lat="58.773353" lon="05.685577"><ele>27</ele><time>2012-03-25T16:24:22Z</time><cmt>5.1 kmh</cmt></trkpt>
<trkpt lat="58.773352" lon="05.685553"><ele>27</ele><time>2012-03-25T16:24:24Z</time><cmt>4.4 kmh</cmt></trkpt>
<trkpt lat="58.773351" lon="05.685531"><ele>27</ele><time>2012-03-25T16:24:25Z</time><cmt>4.2 kmh</cmt></trkpt>
<trkpt lat="58.773350" lon="05.685510"><ele>27</ele><time>2012-03-25T16:24:26Z</time><cmt>4.8 kmh</cmt></trkpt>
<trkpt lat="58.773349" lon="05.685492"><ele>27</ele><time>2012-03-25T16:24:27Z</time><cmt>4.4 kmh</cmt></trkpt>
<trkpt lat="58.773348" lon="05.685475"><ele>27</ele><time>2012-03-25T16:24:27Z</time><cmt>4.0 kmh</cmt></trkpt>
<trkpt lat="58.773347" lon="05.685460"><ele>27</ele><time>2012-03-25T16:24:28Z</time><cmt>3.6 kmh</cmt></trkpt>
<trkpt lat="58.773346" lon="05.685445"><ele>27</ele><time>2012-03-25T16:24:30Z</time><cmt>2.7 kmh</cmt></trkpt>
<trkpt lat="58.773345" lon="05.685430"><ele>27</ele><time>2012-03-25T16:24:31Z</time><cmt>2.7 kmh</cmt></trkpt>
<trkpt lat="58.773344" lon="05.685416"><ele>27</ele><time>2012-03-25T16:24:32Z</time><cmt>3.3 kmh</cmt></trkpt>
<trkpt lat="58.773343" lon="05.685403"><ele>27</ele><time>2012-03-25T16:24:33Z</time><cmt>3.1 kmh</cmt></trkpt>
<trkpt lat="58.773343" lon="05.685390"><ele>27</ele><time>2012-03-25T16:24:33Z</time><cmt>2.9 kmh</cmt></trkpt>
<trkpt lat="58.773342" lon="05.685379"><ele>27</ele><time>2012-03-25T16:24:34Z</time><cmt>2.7 kmh</cmt></trkpt>
<trkpt lat="58.773341" lon="05.685366"><ele>27</ele><time>2012-03-25T16:24:36Z</time><cmt>2.2 kmh</cmt></trkpt>
<trkpt lat="58.773340" lon="05.685353"><ele>27</ele><time>2012-03-25T16:24:37Z</time><cmt>2.3 kmh</cmt></trkpt>
<trkpt lat="58.773339" lon="05.685339"><ele>27</ele><time>2012-03-25T16:24:38Z</time><cmt>3.0 kmh</cmt></trkpt>
<trkpt lat="58.773339" lon="05.685325"><ele>27</ele><time>2012-03-25T16:24:39Z</time><cmt>3.2 kmh</cmt></trkpt>
<trkpt lat="58.773338" lon="05.685311"><ele>27</ele><time>2012-03-25T16:24:39Z</time><cmt>3.2 kmh</cmt></trkpt>
<trkpt lat="58.773337" lon="05.685298"><ele>27</ele><time>2012-03-25T16:24:40Z</time><cmt>3.1 kmh</cmt></trkpt>
<trkpt lat="58.773336" lon="05.685285"><ele>27</ele><time>2012-03-25T16:24:42Z</time><cmt>2.3 kmh</cmt></trkpt>
<trkpt lat="58.773334" lon="05.685273"><ele>27</ele><time>2012-03-25T16:24:43Z</time><cmt>2.3 kmh</cmt></trkpt>
<trkpt lat="58.773333" lon="05.685260"><ele>27</ele><time>2012-03-25T16:24:44Z</time><cmt>2.9 kmh</cmt></trkpt>
<trkpt lat="58.773332" lon="05.685247"><ele>28</ele><time>2012-03-25T16:24:45Z</time><cmt>3.0 kmh</cmt></trkpt>
<trkpt lat="58.773330" lon="05.685233"><ele>28</ele><time>2012-03-25T16:24:45Z</time><cmt>3.1 kmh</cmt></trkpt>
<trkpt lat="58.773328" lon="05.685219"><ele>28</ele><time>2012-03-25T16:24:46Z</time><cmt>3.2 kmh</cmt></trkpt>
<trkpt lat="58.773326" lon="05.685203"><ele>28</ele><time>2012-03-25T16:24:48Z</time><cmt>2.8 kmh</cmt></trkpt>
<trkpt lat="58.773325" lon="05.685186"><ele>28</ele><time>2012-03-25T16:24:49Z</time><cmt>3.0 kmh</cmt></trkpt>
<trkpt lat="58.773323" lon="05.685167"><ele>28</ele><time>2012-03-25T16:24:50Z</time><cmt>4.1 kmh</cmt></trkpt>
<trkpt lat="58.773321" lon="05.685147"><ele>28</ele><time>2012-03-25T16:24:51Z</time><cmt>4.5 kmh</cmt></trkpt>
<trkpt lat="58.773320" lon="05.685123"><ele>28</ele><time>2012-03-25T16:24:52Z</time><cmt>5.2 kmh</cmt></trkpt>
<trkpt lat="58.773319" lon="05.685098"><ele>28</ele><time>2012-03-25T16:24:52Z</time><cmt>5.7 kmh</cmt></trkpt>
<trkpt lat="58.773318" lon="05.685069"><ele>28</ele><time>2012-03-25T16:24:53Z</time><cmt>6.4 kmh</cmt></trkpt>
<trkpt lat="58.773317" lon="05.685039"><ele>28</ele><time>2012-03-25T16:24:55Z</time><cmt>6.6 kmh</cmt></trkpt>
<trkpt lat="58.773316" lon="05.685007"><ele>28</ele><time>2012-03-25T16:24:56Z</time><cmt>6.8 kmh</cmt></trkpt>
<trkpt lat="58.773315" lon="05.684974"><ele>28</ele><time>2012-03-25T16:24:57Z</time><cmt>7.0 kmh</cmt></trkpt>
<trkpt lat="58.773313" lon="05.684940"><ele>28</ele><time>2012-03-25T16:24:58Z</time><cmt>7.3 kmh</cmt></trkpt>
<trkpt lat="58.773312" lon="05.684905"><ele>28</ele><time>2012-03-25T16:24:58Z</time><cmt>7.5 kmh</cmt></trkpt>
<trkpt lat="58.773310" lon="05.684868"><ele>28</ele><time>2012-03-25T16:24:59Z</time><cmt>7.5 kmh</cmt></trkpt>
<trkpt lat="58.773308" lon="05.684833"><ele>28</ele><time>2012-03-25T16:25:01Z</time><cmt>7.2 kmh</cmt></trkpt>
<trkpt lat="58.773305" lon="05.684799"><ele>28</ele><time>2012-03-25T16:25:02Z</time><cmt>6.9 kmh</cmt></trkpt>
<trkpt lat="58.773303" lon="05.684764"><ele>28</ele><time>2012-03-25T16:25:03Z</time><cmt>7.5 kmh</cmt></trkpt>
<trkpt lat="58.773300" lon="05.684728"><ele>28</ele><time>2012-03-25T16:25:04Z</time><cmt>7.4 kmh</cmt></trkpt>
<trkpt lat="58.773297" lon="05.684692"><ele>28</ele><time>2012-03-25T16:25:04Z</time><cmt>7.6 kmh</cmt></trkpt>
<trkpt lat="58.773293" lon="05.684655"><ele>28</ele><time>2012-03-25T16:25:05Z</time><cmt>7.3 kmh</cmt></trkpt>
<trkpt lat="58.773290" lon="05.684619"><ele>28</ele><time>2012-03-25T16:25:07Z</time><cmt>7.2 kmh</cmt></trkpt>
<trkpt lat="58.773287" lon="05.684584"><ele>28</ele><time>2012-03-25T16:25:08Z</time><cmt>7.3 kmh</cmt></trkpt>
<trkpt lat="58.773283" lon="05.684549"><ele>28</ele><time>2012-03-25T16:25:09Z</time><cmt>7.4 kmh</cmt></trkpt>
<trkpt lat="58.773280" lon="05.684514"><ele>28</ele><time>2012-03-25T16:25:10Z</time><cmt>7.1 kmh</cmt></trkpt>
<trkpt lat="58.773276" lon="05.684480"><ele>28</ele><time>2012-03-25T16:25:10Z</time><cmt>7.2 kmh</cmt></trkpt>
<trkpt lat="58.773272" lon="05.684445"><ele>28</ele><time>2012-03-25T16:25:11Z</time><cmt>7.2 kmh</cmt></trkpt>
<trkpt lat="58.773268" lon="05.684410"><ele>28</ele><time>2012-03-25T16:25:13Z</time><cmt>7.2 kmh</cmt></trkpt>
<trkpt lat="58.773265" lon="05.684376"><ele>28</ele><time>2012-03-25T16:25:14Z</time><cmt>7.1 kmh</cmt></trkpt>
<trkpt lat="58.773261" lon="05.684341"><ele>28</ele><time>2012-03-25T16:25:15Z</time><cmt>7.2 kmh</cmt></trkpt>
<trkpt lat="58.773257" lon="05.684307"><ele>28</ele><time>2012-03-25T16:25:16Z</time><cmt>7.0 kmh</cmt></trkpt>
<trkpt lat="58.773254" lon="05.684272"><ele>28</ele><time>2012-03-25T16:25:16Z</time><cmt>7.2 kmh</cmt></trkpt>
<trkpt lat="58.773250" lon="05.684238"><ele>28</ele><time>2012-03-25T16:25:17Z</time><cmt>7.1 kmh</cmt></trkpt>
<trkpt lat="58.773247" lon="05.684203"><ele>28</ele><time>2012-03-25T16:25:18Z</time><cmt>6.9 kmh</cmt></trkpt>
<trkpt lat="58.773244" lon="05.684169"><ele>28</ele><time>2012-03-25T16:25:20Z</time><cmt>6.8 kmh</cmt></trkpt>
<trkpt lat="58.773241" lon="05.684135"><ele>28</ele><time>2012-03-25T16:25:21Z</time><cmt>7.0 kmh</cmt></trkpt>
<trkpt lat="58.773239" lon="05.684100"><ele>28</ele><time>2012-03-25T16:25:22Z</time><cmt>7.1 kmh</cmt></trkpt>
<trkpt lat="58.773237" lon="05.684066"><ele>28</ele><time>2012-03-25T16:25:23Z</time><cmt>6.9 kmh</cmt></trkpt>
<trkpt lat="58.773235" lon="05.684032"><ele>28</ele><time>2012-03-25T16:25:23Z</time><cmt>6.8 kmh</cmt></trkpt>
<trkpt lat="58.773234" lon="05.683998"><ele>28</ele><time>2012-03-25T16:25:24Z</time><cmt>7.1 kmh</cmt></trkpt>
<trkpt lat="58.773233" lon="05.683964"><ele>28</ele><time>2012-03-25T16:25:26Z</time><cmt>6.8 kmh</cmt></trkpt>
<trkpt lat="58.773232" lon="05.683930"><ele>28</ele><time>2012-03-25T16:25:27Z</time><cmt>6.9 kmh</cmt></trkpt>
<trkpt lat="58.773231" lon="05.683897"><ele>28</ele><time>2012-03-25T16:25:28Z</time><cmt>6.7 kmh</cmt></trkpt>
<trkpt lat="58.773231" lon="05.683864"><ele>28</ele><time>2012-03-25T16:25:29Z</time><cmt>6.7 kmh</cmt></trkpt>
<trkpt lat="58.773231" lon="05.683831"><ele>28</ele><time>2012-03-25T16:25:29Z</time><cmt>6.6 kmh</cmt></trkpt>
<trkpt lat="58.773230" lon="05.683796"><ele>28</ele><time>2012-03-25T16:25:30Z</time><cmt>6.3 kmh</cmt></trkpt>
<trkpt lat="58.773231" lon="05.683764"><ele>28</ele><time>2012-03-25T16:25:32Z</time><cmt>6.3 kmh</cmt></trkpt>
<trkpt lat="58.773231" lon="05.683736"><ele>28</ele><time>2012-03-25T16:25:33Z</time><cmt>6.3 kmh</cmt></trkpt>
<trkpt lat="58.773230" lon="05.683705"><ele>28</ele><time>2012-03-25T16:25:34Z</time><cmt>6.4 kmh</cmt></trkpt>
<trkpt lat="58.773230" lon="05.683674"><ele>28</ele><time>2012-03-25T16:25:35Z</time><cmt>6.2 kmh</cmt></trkpt>
<trkpt lat="58.773230" lon="05.683643"><ele>28</ele><time>2012-03-25T16:25:35Z</time><cmt>6.4 kmh</cmt></trkpt>
<trkpt lat="58.773230" lon="05.683611"><ele>28</ele><time>2012-03-25T16:25:36Z</time><cmt>6.4 kmh</cmt></trkpt>
<trkpt lat="58.773230" lon="05.683581"><ele>28</ele><time>2012-03-25T16:25:38Z</time><cmt>6.3 kmh</cmt></trkpt>
<trkpt lat="58.773230" lon="05.683550"><ele>28</ele><time>2012-03-25T16:25:39Z</time><cmt>6.3 kmh</cmt></trkpt>
<trkpt lat="58.773230" lon="05.683515"><ele>28</ele><time>2012-03-25T16:25:40Z</time><cmt>6.4 kmh</cmt></trkpt>
<trkpt lat="58.773230" lon="05.683487"><ele>28</ele><time>2012-03-25T16:25:41Z</time><cmt>6.3 kmh</cmt></trkpt>
<trkpt lat="58.773230" lon="05.683456"><ele>28</ele><time>2012-03-25T16:25:41Z</time><cmt>6.6 kmh</cmt></trkpt>
<trkpt lat="58.773230" lon="05.683424"><ele>28</ele><time>2012-03-25T16:25:42Z</time><cmt>6.6 kmh</cmt></trkpt>
<trkpt lat="58.773230" lon="05.683392"><ele>28</ele><time>2012-03-25T16:25:44Z</time><cmt>6.7 kmh</cmt></trkpt>
<trkpt lat="58.773230" lon="05.683359"><ele>28</ele><time>2012-03-25T16:25:45Z</time><cmt>6.7 kmh</cmt></trkpt>
<trkpt lat="58.773230" lon="05.683326"><ele>28</ele><time>2012-03-25T16:25:46Z</time><cmt>6.4 kmh</cmt></trkpt>
<trkpt lat="58.773230" lon="05.683294"><ele>28</ele><time>2012-03-25T16:25:47Z</time><cmt>6.6 kmh</cmt></trkpt>
<trkpt lat="58.773230" lon="05.683262"><ele>28</ele><time>2012-03-25T16:25:47Z</time><cmt>6.4 kmh</cmt></trkpt>
<trkpt lat="58.773229" lon="05.683230"><ele>28</ele><time>2012-03-25T16:25:48Z</time><cmt>6.6 kmh</cmt></trkpt>
<trkpt lat="58.773229" lon="05.683199"><ele>28</ele><time>2012-03-25T16:25:49Z</time><cmt>6.5 kmh</cmt></trkpt>
<trkpt lat="58.773228" lon="05.683166"><ele>28</ele><time>2012-03-25T16:25:51Z</time><cmt>6.7 kmh</cmt></trkpt>
<trkpt lat="58.773227" lon="05.683130"><ele>28</ele><time>2012-03-25T16:25:52Z</time><cmt>6.7 kmh</cmt></trkpt>
<trkpt lat="58.773226" lon="05.683098"><ele>28</ele><time>2012-03-25T16:25:53Z</time><cmt>6.4 kmh</cmt></trkpt>
<trkpt lat="58.773226" lon="05.683065"><ele>28</ele><time>2012-03-25T16:25:54Z</time><cmt>6.7 kmh</cmt></trkpt>
<trkpt lat="58.773225" lon="05.683036"><ele>28</ele><time>2012-03-25T16:25:54Z</time><cmt>6.7 kmh</cmt></trkpt>
<trkpt lat="58.773225" lon="05.683004"><ele>28</ele><time>2012-03-25T16:25:55Z</time><cmt>6.7 kmh</cmt></trkpt>
<trkpt lat="58.773224" lon="05.682971"><ele>28</ele><time>2012-03-25T16:25:57Z</time><cmt>6.7 kmh</cmt></trkpt>
<trkpt lat="58.773224" lon="05.682935"><ele>28</ele><time>2012-03-25T16:25:58Z</time><cmt>6.5 kmh</cmt></trkpt>
<trkpt lat="58.773223" lon="05.682903"><ele>28</ele><time>2012-03-25T16:25:59Z</time><cmt>6.7 kmh</cmt></trkpt>
<trkpt lat="58.773222" lon="05.682870"><ele>28</ele><time>2012-03-25T16:26:00Z</time><cmt>6.5 kmh</cmt></trkpt>
<trkpt lat="58.773221" lon="05.682838"><ele>28</ele><time>2012-03-25T16:26:00Z</time><cmt>6.4 kmh</cmt></trkpt>
<trkpt lat="58.773220" lon="05.682806"><ele>28</ele><time>2012-03-25T16:26:01Z</time><cmt>6.3 kmh</cmt></trkpt>
<trkpt lat="58.773219" lon="05.682775"><ele>28</ele><time>2012-03-25T16:26:03Z</time><cmt>6.2 kmh</cmt></trkpt>
<trkpt lat="58.773218" lon="05.682744"><ele>28</ele><time>2012-03-25T16:26:04Z</time><cmt>6.3 kmh</cmt></trkpt>
<trkpt lat="58.773218" lon="05.682713"><ele>28</ele><time>2012-03-25T16:26:05Z</time><cmt>6.3 kmh</cmt></trkpt>
<trkpt lat="58.773218" lon="05.682682"><ele>28</ele><time>2012-03-25T16:26:06Z</time><cmt>6.5 kmh</cmt></trkpt>
<trkpt lat="58.773219" lon="05.682651"><ele>28</ele><time>2012-03-25T16:26:06Z</time><cmt>6.2 kmh</cmt></trkpt>
<trkpt lat="58.773219" lon="05.682620"><ele>28</ele><time>2012-03-25T16:26:07Z</time><cmt>6.5 kmh</cmt></trkpt>
<trkpt lat="58.773220" lon="05.682589"><ele>28</ele><time>2012-03-25T16:26:09Z</time><cmt>6.1 kmh</cmt></trkpt>
<trkpt lat="58.773220" lon="05.682558"><ele>28</ele><time>2012-03-25T16:26:10Z</time><cmt>6.0 kmh</cmt></trkpt>
<trkpt lat="58.773219" lon="05.682528"><ele>28</ele><time>2012-03-25T16:26:11Z</time><cmt>6.1 kmh</cmt></trkpt>
<trkpt lat="58.773217" lon="05.682499"><ele>28</ele><time>2012-03-25T16:26:12Z</time><cmt>6.0 kmh</cmt></trkpt>
<trkpt lat="58.773216" lon="05.682468"><ele>28</ele><time>2012-03-25T16:26:12Z</time><cmt>6.2 kmh</cmt></trkpt>
<trkpt lat="58.773214" lon="05.682438"><ele>28</ele><time>2012-03-25T16:26:13Z</time><cmt>6.0 kmh</cmt></trkpt>
<trkpt lat="58.773212" lon="05.682407"><ele>28</ele><time>2012-03-25T16:26:15Z</time><cmt>6.2 kmh</cmt></trkpt>
<trkpt lat="58.773210" lon="05.682377"><ele>28</ele><time>2012-03-25T16:26:16Z</time><cmt>5.9 kmh</cmt></trkpt>
<trkpt lat="58.773207" lon="05.682347"><ele>28</ele><time>2012-03-25T16:26:17Z</time><cmt>6.3 kmh</cmt></trkpt>
<trkpt lat="58.773205" lon="05.682316"><ele>28</ele><time>2012-03-25T16:26:18Z</time><cmt>6.4 kmh</cmt></trkpt>
<trkpt lat="58.773202" lon="05.682288"><ele>28</ele><time>2012-03-25T16:26:18Z</time><cmt>6.4 kmh</cmt></trkpt>
<trkpt lat="58.773199" lon="05.682258"><ele>28</ele><time>2012-03-25T16:26:19Z</time><cmt>6.3 kmh</cmt></trkpt>
<trkpt lat="58.773196" lon="05.682227"><ele>28</ele><time>2012-03-25T16:26:21Z</time><cmt>6.2 kmh</cmt></trkpt>
<trkpt lat="58.773192" lon="05.682197"><ele>28</ele><time>2012-03-25T16:26:22Z</time><cmt>6.1 kmh</cmt></trkpt>
<trkpt lat="58.773187" lon="05.682167"><ele>28</ele><time>2012-03-25T16:26:23Z</time><cmt>6.3 kmh</cmt></trkpt>
<trkpt lat="58.773183" lon="05.682138"><ele>28</ele><time>2012-03-25T16:26:24Z</time><cmt>5.9 kmh</cmt></trkpt>
<trkpt lat="58.773178" lon="05.682110"><ele>28</ele><time>2012-03-25T16:26:25Z</time><cmt>5.9 kmh</cmt></trkpt>
<trkpt lat="58.773174" lon="05.682083"><ele>28</ele><time>2012-03-25T16:26:25Z</time><cmt>5.5 kmh</cmt></trkpt>
<trkpt lat="58.773169" lon="05.682057"><ele>28</ele><time>2012-03-25T16:26:26Z</time><cmt>5.0 kmh</cmt></trkpt>
<trkpt lat="58.773164" lon="05.682031"><ele>27</ele><time>2012-03-25T16:26:28Z</time><cmt>5.2 kmh</cmt></trkpt>
<trkpt lat="58.773158" lon="05.682008"><ele>27</ele><time>2012-03-25T16:26:29Z</time><cmt>5.2 kmh</cmt></trkpt>
<trkpt lat="58.773152" lon="05.681988"><ele>27</ele><time>2012-03-25T16:26:30Z</time><cmt>5.3 kmh</cmt></trkpt>
<trkpt lat="58.773145" lon="05.681966"><ele>27</ele><time>2012-03-25T16:26:31Z</time><cmt>5.5 kmh</cmt></trkpt>
<trkpt lat="58.773136" lon="05.681945"><ele>27</ele><time>2012-03-25T16:26:31Z</time><cmt>5.6 kmh</cmt></trkpt>
<trkpt lat="58.773127" lon="05.681924"><ele>27</ele><time>2012-03-25T16:26:32Z</time><cmt>5.7 kmh</cmt></trkpt>
<trkpt lat="58.773116" lon="05.681904"><ele>27</ele><time>2012-03-25T16:26:34Z</time><cmt>6.1 kmh</cmt></trkpt>
<trkpt lat="58.773105" lon="05.681883"><ele>27</ele><time>2012-03-25T16:26:35Z</time><cmt>6.2 kmh</cmt></trkpt>
<trkpt lat="58.773094" lon="05.681862"><ele>27</ele><time>2012-03-25T16:26:36Z</time><cmt>6.4 kmh</cmt></trkpt>
<trkpt lat="58.773081" lon="05.681841"><ele>27</ele><time>2012-03-25T16:26:37Z</time><cmt>6.6 kmh</cmt></trkpt>
<trkpt lat="58.773069" lon="05.681819"><ele>27</ele><time>2012-03-25T16:26:37Z</time><cmt>6.4 kmh</cmt></trkpt>
<trkpt lat="58.773055" lon="05.681795"><ele>27</ele><time>2012-03-25T16:26:38Z</time><cmt>6.8 kmh</cmt></trkpt>
<trkpt lat="58.773042" lon="05.681773"><ele>27</ele><time>2012-03-25T16:26:40Z</time><cmt>6.6 kmh</cmt></trkpt>
<trkpt lat="58.773030" lon="05.681750"><ele>27</ele><time>2012-03-25T16:26:41Z</time><cmt>6.5 kmh</cmt></trkpt>
<trkpt lat="58.773018" lon="05.681727"><ele>27</ele><time>2012-03-25T16:26:42Z</time><cmt>6.7 kmh</cmt></trkpt>
<trkpt lat="58.773006" lon="05.681703"><ele>27</ele><time>2012-03-25T16:26:43Z</time><cmt>6.5 kmh</cmt></trkpt>
<trkpt lat="58.772995" lon="05.681680"><ele>27</ele><time>2012-03-25T16:26:43Z</time><cmt>6.4 kmh</cmt></trkpt>
<trkpt lat="58.772983" lon="05.681657"><ele>27</ele><time>2012-03-25T16:26:44Z</time><cmt>6.5 kmh</cmt></trkpt>
<trkpt lat="58.772970" lon="05.681635"><ele>27</ele><time>2012-03-25T16:26:46Z</time><cmt>6.8 kmh</cmt></trkpt>
<trkpt lat="58.772956" lon="05.681614"><ele>27</ele><time>2012-03-25T16:26:47Z</time><cmt>6.4 kmh</cmt></trkpt>
<trkpt lat="58.772943" lon="05.681593"><ele>27</ele><time>2012-03-25T16:26:48Z</time><cmt>6.8 kmh</cmt></trkpt>
<trkpt lat="58.772928" lon="05.681571"><ele>27</ele><time>2012-03-25T16:26:49Z</time><cmt>7.3 kmh</cmt></trkpt>
<trkpt lat="58.772914" lon="05.681549"><ele>27</ele><time>2012-03-25T16:26:49Z</time><cmt>7.5 kmh</cmt></trkpt>
<trkpt lat="58.772899" lon="05.681526"><ele>27</ele><time>2012-03-25T16:26:50Z</time><cmt>7.3 kmh</cmt></trkpt>
<trkpt lat="58.772885" lon="05.681503"><ele>27</ele><time>2012-03-25T16:26:52Z</time><cmt>7.2 kmh</cmt></trkpt>
<trkpt lat="58.772870" lon="05.681480"><ele>27</ele><time>2012-03-25T16:26:53Z</time><cmt>7.6 kmh</cmt></trkpt>
<trkpt lat="58.772854" lon="05.681457"><ele>27</ele><time>2012-03-25T16:26:54Z</time><cmt>7.7 kmh</cmt></trkpt>
<trkpt lat="58.772838" lon="05.681434"><ele>27</ele><time>2012-03-25T16:26:55Z</time><cmt>7.5 kmh</cmt></trkpt>
<trkpt lat="58.772822" lon="05.681413"><ele>27</ele><time>2012-03-25T16:26:56Z</time><cmt>7.6 kmh</cmt></trkpt>
<trkpt lat="58.772805" lon="05.681393"><ele>28</ele><time>2012-03-25T16:26:56Z</time><cmt>7.4 kmh</cmt></trkpt>
<trkpt lat="58.772788" lon="05.681375"><ele>28</ele><time>2012-03-25T16:26:57Z</time><cmt>7.1 kmh</cmt></trkpt>
<trkpt lat="58.772771" lon="05.681359"><ele>28</ele><time>2012-03-25T16:26:59Z</time><cmt>7.4 kmh</cmt></trkpt>
<trkpt lat="58.772754" lon="05.681345"><ele>28</ele><time>2012-03-25T16:27:00Z</time><cmt>6.8 kmh</cmt></trkpt>
<trkpt lat="58.772737" lon="05.681333"><ele>28</ele><time>2012-03-25T16:27:01Z</time><cmt>6.9 kmh</cmt></trkpt>
<trkpt lat="58.772720" lon="05.681322"><ele>28</ele><time>2012-03-25T16:27:02Z</time><cmt>6.6 kmh</cmt></trkpt>
<trkpt lat="58.772704" lon="05.681313"><ele>28</ele><time>2012-03-25T16:27:02Z</time><cmt>6.3 kmh</cmt></trkpt>
<trkpt lat="58.772686" lon="05.681304"><ele>28</ele><time>2012-03-25T16:27:03Z</time><cmt>7.2 kmh</cmt></trkpt>
<trkpt lat="58.772669" lon="05.681295"><ele>28</ele><time>2012-03-25T16:27:05Z</time><cmt>6.8 kmh</cmt></trkpt>
<trkpt lat="58.772651" lon="05.681286"><ele>28</ele><time>2012-03-25T16:27:06Z</time><cmt>7.1 kmh</cmt></trkpt>
<trkpt lat="58.772634" lon="05.681278"><ele>28</ele><time>2012-03-25T16:27:07Z</time><cmt>6.4 kmh</cmt></trkpt>
<trkpt lat="58.772617" lon="05.681269"><ele>28</ele><time>2012-03-25T16:27:08Z</time><cmt>6.7 kmh</cmt></trkpt>
<trkpt lat="58.772601" lon="05.681260"><ele>28</ele><time>2012-03-25T16:27:08Z</time><cmt>6.4 kmh</cmt></trkpt>
<trkpt lat="58.772585" lon="05.681251"><ele>28</ele><time>2012-03-25T16:27:09Z</time><cmt>6.0 kmh</cmt></trkpt>
<trkpt lat="58.772570" lon="05.681242"><ele>28</ele><time>2012-03-25T16:27:11Z</time><cmt>5.6 kmh</cmt></trkpt>
<trkpt lat="58.772557" lon="05.681233"><ele>28</ele><time>2012-03-25T16:27:12Z</time><cmt>5.3 kmh</cmt></trkpt>
<trkpt lat="58.772544" lon="05.681224"><ele>28</ele><time>2012-03-25T16:27:13Z</time><cmt>5.3 kmh</cmt></trkpt>
<trkpt lat="58.772533" lon="05.681215"><ele>28</ele><time>2012-03-25T16:27:14Z</time><cmt>5.0 kmh</cmt></trkpt>
<trkpt lat="58.772523" lon="05.681207"><ele>28</ele><time>2012-03-25T16:27:14Z</time><cmt>5.0 kmh</cmt></trkpt>
<trkpt lat="58.772513" lon="05.681201"><ele>28</ele><time>2012-03-25T16:27:15Z</time><cmt>4.6 kmh</cmt></trkpt>
<trkpt lat="58.772504" lon="05.681196"><ele>28</ele><time>2012-03-25T16:27:17Z</time><cmt>3.3 kmh</cmt></trkpt>
<trkpt lat="58.772498" lon="05.681192"><ele>28</ele><time>2012-03-25T16:27:18Z</time><cmt>2.7 kmh</cmt></trkpt>
<trkpt lat="58.772492" lon="05.681190"><ele>28</ele><time>2012-03-25T16:27:19Z</time><cmt>2.8 kmh</cmt></trkpt>
<trkpt lat="58.772486" lon="05.681188"><ele>28</ele><time>2012-03-25T16:27:20Z</time><cmt>2.6 kmh</cmt></trkpt>
<trkpt lat="58.772479" lon="05.681186"><ele>28</ele><time>2012-03-25T16:27:20Z</time><cmt>2.8 kmh</cmt></trkpt>
<trkpt lat="58.772472" lon="05.681185"><ele>28</ele><time>2012-03-25T16:27:21Z</time><cmt>2.9 kmh</cmt></trkpt>
<trkpt lat="58.772466" lon="05.681185"><ele>28</ele><time>2012-03-25T16:27:23Z</time><cmt>2.3 kmh</cmt></trkpt>
<trkpt lat="58.772459" lon="05.681186"><ele>28</ele><time>2012-03-25T16:27:24Z</time><cmt>2.2 kmh</cmt></trkpt>
<trkpt lat="58.772453" lon="05.681187"><ele>28</ele><time>2012-03-25T16:27:25Z</time><cmt>2.9 kmh</cmt></trkpt>
<trkpt lat="58.772446" lon="05.681188"><ele>28</ele><time>2012-03-25T16:27:26Z</time><cmt>2.9 kmh</cmt></trkpt>
<trkpt lat="58.772440" lon="05.681189"><ele>28</ele><time>2012-03-25T16:27:27Z</time><cmt>2.8 kmh</cmt></trkpt>
<trkpt lat="58.772433" lon="05.681190"><ele>28</ele><time>2012-03-25T16:27:27Z</time><cmt>2.8 kmh</cmt></trkpt>
<trkpt lat="58.772427" lon="05.681191"><ele>28</ele><time>2012-03-25T16:27:28Z</time><cmt>2.8 kmh</cmt></trkpt>
<trkpt lat="58.772421" lon="05.681193"><ele>28</ele><time>2012-03-25T16:27:30Z</time><cmt>2.2 kmh</cmt></trkpt>
<trkpt lat="58.772415" lon="05.681194"><ele>28</ele><time>2012-03-25T16:27:31Z</time><cmt>2.1 kmh</cmt></trkpt>
<trkpt lat="58.772409" lon="05.681195"><ele>28</ele><time>2012-03-25T16:27:32Z</time><cmt>2.5 kmh</cmt></trkpt>
<trkpt lat="58.772403" lon="05.681198"><ele>28</ele><time>2012-03-25T16:27:33Z</time><cmt>2.6 kmh</cmt></trkpt>
<trkpt lat="58.772395" lon="05.681201"><ele>28</ele><time>2012-03-25T16:27:33Z</time><cmt>3.0 kmh</cmt></trkpt>
<trkpt lat="58.772387" lon="05.681206"><ele>28</ele><time>2012-03-25T16:27:34Z</time><cmt>3.5 kmh</cmt></trkpt>
<trkpt lat="58.772378" lon="05.681213"><ele>28</ele><time>2012-03-25T16:27:36Z</time><cmt>3.2 kmh</cmt></trkpt>
<trkpt lat="58.772368" lon="05.681221"><ele>29</ele><time>2012-03-25T16:27:37Z</time><cmt>3.6 kmh</cmt></trkpt>
<trkpt lat="58.772355" lon="05.681227"><ele>29</ele><time>2012-03-25T16:27:38Z</time><cmt>5.4 kmh</cmt></trkpt>
<trkpt lat="58.772341" lon="05.681233"><ele>29</ele><time>2012-03-25T16:27:39Z</time><cmt>5.6 kmh</cmt></trkpt>
<trkpt lat="58.772326" lon="05.681239"><ele>29</ele><time>2012-03-25T16:27:39Z</time><cmt>6.4 kmh</cmt></trkpt>
<trkpt lat="58.772309" lon="05.681243"><ele>29</ele><time>2012-03-25T16:27:40Z</time><cmt>6.4 kmh</cmt></trkpt>
<trkpt lat="58.772293" lon="05.681248"><ele>29</ele><time>2012-03-25T16:27:42Z</time><cmt>6.4 kmh</cmt></trkpt>
<trkpt lat="58.772275" lon="05.681253"><ele>29</ele><time>2012-03-25T16:27:43Z</time><cmt>6.8 kmh</cmt></trkpt>
<trkpt lat="58.772258" lon="05.681259"><ele>29</ele><time>2012-03-25T16:27:44Z</time><cmt>6.4 kmh</cmt></trkpt>
<trkpt lat="58.772241" lon="05.681265"><ele>29</ele><time>2012-03-25T16:27:45Z</time><cmt>6.9 kmh</cmt></trkpt>
<trkpt lat="58.772224" lon="05.681271"><ele>29</ele><time>2012-03-25T16:27:45Z</time><cmt>6.7 kmh</cmt></trkpt>
<trkpt lat="58.772206" lon="05.681276"><ele>29</ele><time>2012-03-25T16:27:46Z</time><cmt>7.4 kmh</cmt></trkpt>
<trkpt lat="58.772188" lon="05.681282"><ele>29</ele><time>2012-03-25T16:27:48Z</time><cmt>7.3 kmh</cmt></trkpt>
<trkpt lat="58.772169" lon="05.681288"><ele>29</ele><time>2012-03-25T16:27:49Z</time><cmt>7.2 kmh</cmt></trkpt>
<trkpt lat="58.772151" lon="05.681294"><ele>29</ele><time>2012-03-25T16:27:50Z</time><cmt>7.2 kmh</cmt></trkpt>
<trkpt lat="58.772132" lon="05.681299"><ele>29</ele><time>2012-03-25T16:27:51Z</time><cmt>7.5 kmh</cmt></trkpt>
<trkpt lat="58.772113" lon="05.681305"><ele>29</ele><time>2012-03-25T16:27:51Z</time><cmt>7.3 kmh</cmt></trkpt>
<trkpt lat="58.772094" lon="05.681310"><ele>29</ele><time>2012-03-25T16:27:52Z</time><cmt>7.6 kmh</cmt></trkpt>
<trkpt lat="58.772075" lon="05.681316"><ele>29</ele><time>2012-03-25T16:27:54Z</time><cmt>6.8 kmh</cmt></trkpt>
<trkpt lat="58.772058" lon="05.681322"><ele>29</ele><time>2012-03-25T16:27:55Z</time><cmt>6.7 kmh</cmt></trkpt>
<trkpt lat="58.772040" lon="05.681328"><ele>29</ele><time>2012-03-25T16:27:56Z</time><cmt>6.8 kmh</cmt></trkpt>
<trkpt lat="58.772022" lon="05.681333"><ele>29</ele><time>2012-03-25T16:27:57Z</time><cmt>7.4 kmh</cmt></trkpt>
<trkpt lat="58.772004" lon="05.681338"><ele>29</ele><time>2012-03-25T16:27:58Z</time><cmt>6.8 kmh</cmt></trkpt>
<trkpt lat="58.771987" lon="05.681343"><ele>29</ele><time>2012-03-25T16:27:58Z</time><cmt>7.1 kmh</cmt></trkpt>
<trkpt lat="58.771969" lon="05.681346"><ele>29</ele><time>2012-03-25T16:27:59Z</time><cmt>6.7 kmh</cmt></trkpt>
<trkpt lat="58.771950" lon="05.681349"><ele>29</ele><time>2012-03-25T16:28:01Z</time><cmt>6.9 kmh</cmt></trkpt>
<trkpt lat="58.771933" lon="05.681351"><ele>29</ele><time>2012-03-25T16:28:02Z</time><cmt>6.7 kmh</cmt></trkpt>
<trkpt lat="58.771914" lon="05.681354"><ele>29</ele><time>2012-03-25T16:28:03Z</time><cmt>7.5 kmh</cmt></trkpt>
<trkpt lat="58.771896" lon="05.681357"><ele>29</ele><time>2012-03-25T16:28:04Z</time><cmt>7.3 kmh</cmt></trkpt>
<trkpt lat="58.771877" lon="05.681361"><ele>29</ele><time>2012-03-25T16:28:04Z</time><cmt>7.0 kmh</cmt></trkpt>
<trkpt lat="58.771859" lon="05.681364"><ele>29</ele><time>2012-03-25T16:28:05Z</time><cmt>6.8 kmh</cmt></trkpt>
<trkpt lat="58.771841" lon="05.681366"><ele>29</ele><time>2012-03-25T16:28:07Z</time><cmt>7.2 kmh</cmt></trkpt>
<trkpt lat="58.771823" lon="05.681369"><ele>29</ele><time>2012-03-25T16:28:08Z</time><cmt>6.9 kmh</cmt></trkpt>
<trkpt lat="58.771804" lon="05.681371"><ele>29</ele><time>2012-03-25T16:28:09Z</time><cmt>7.5 kmh</cmt></trkpt>
<trkpt lat="58.771785" lon="05.681373"><ele>29</ele><time>2012-03-25T16:28:10Z</time><cmt>6.9 kmh</cmt></trkpt>
<trkpt lat="58.771767" lon="05.681375"><ele>29</ele><time>2012-03-25T16:28:10Z</time><cmt>7.2 kmh</cmt></trkpt>
<trkpt lat="58.771748" lon="05.681375"><ele>29</ele><time>2012-03-25T16:28:11Z</time><cmt>6.8 kmh</cmt></trkpt>
<trkpt lat="58.771729" lon="05.681376"><ele>29</ele><time>2012-03-25T16:28:13Z</time><cmt>7.6 kmh</cmt></trkpt>
<trkpt lat="58.771710" lon="05.681377"><ele>29</ele><time>2012-03-25T16:28:14Z</time><cmt>7.1 kmh</cmt></trkpt>
<trkpt lat="58.771692" lon="05.681378"><ele>29</ele><time>2012-03-25T16:28:15Z</time><cmt>6.6 kmh</cmt></trkpt>
<trkpt lat="58.771673" lon="05.681379"><ele>29</ele><time>2012-03-25T16:28:16Z</time><cmt>7.0 kmh</cmt></trkpt>
<trkpt lat="58.771654" lon="05.681379"><ele>29</ele><time>2012-03-25T16:28:16Z</time><cmt>7.4 kmh</cmt></trkpt>
<trkpt lat="58.771635" lon="05.681379"><ele>29</ele><time>2012-03-25T16:28:17Z</time><cmt>7.1 kmh</cmt></trkpt>
<trkpt lat="58.771617" lon="05.681382"><ele>29</ele><time>2012-03-25T16:28:19Z</time><cmt>7.0 kmh</cmt></trkpt>
<trkpt lat="58.771599" lon="05.681385"><ele>29</ele><time>2012-03-25T16:28:20Z</time><cmt>6.7 kmh</cmt></trkpt>
<trkpt lat="58.771582" lon="05.681388"><ele>29</ele><time>2012-03-25T16:28:21Z</time><cmt>7.0 kmh</cmt></trkpt>
<trkpt lat="58.771564" lon="05.681390"><ele>29</ele><time>2012-03-25T16:28:22Z</time><cmt>6.4 kmh</cmt></trkpt>
<trkpt lat="58.771547" lon="05.681392"><ele>29</ele><time>2012-03-25T16:28:22Z</time><cmt>6.8 kmh</cmt></trkpt>
<trkpt lat="58.771530" lon="05.681395"><ele>29</ele><time>2012-03-25T16:28:23Z</time><cmt>6.8 kmh</cmt></trkpt>
<trkpt lat="58.771513" lon="05.681397"><ele>29</ele><time>2012-03-25T16:28:25Z</time><cmt>6.6 kmh</cmt></trkpt>
<trkpt lat="58.771495" lon="05.681399"><ele>29</ele><time>2012-03-25T16:28:26Z</time><cmt>6.7 kmh</cmt></trkpt>
<trkpt lat="58.771478" lon="05.681399"><ele>29</ele><time>2012-03-25T16:28:27Z</time><cmt>6.3 kmh</cmt></trkpt>
<trkpt lat="58.771461" lon="05.681400"><ele>29</ele><time>2012-03-25T16:28:28Z</time><cmt>6.4 kmh</cmt></trkpt>
<trkpt lat="58.771443" lon="05.681399"><ele>29</ele><time>2012-03-25T16:28:28Z</time><cmt>6.8 kmh</cmt></trkpt>
<trkpt lat="58.771425" lon="05.681398"><ele>29</ele><time>2012-03-25T16:28:29Z</time><cmt>6.8 kmh</cmt></trkpt>
<trkpt lat="58.771406" lon="05.681398"><ele>29</ele><time>2012-03-25T16:28:31Z</time><cmt>7.5 kmh</cmt></trkpt>
<trkpt lat="58.771387" lon="05.681397"><ele>29</ele><time>2012-03-25T16:28:32Z</time><cmt>7.5 kmh</cmt></trkpt>
<trkpt lat="58.771368" lon="05.681397"><ele>29</ele><time>2012-03-25T16:28:33Z</time><cmt>6.9 kmh</cmt></trkpt>
<trkpt lat="58.771349" lon="05.681396"><ele>29</ele><time>2012-03-25T16:28:34Z</time><cmt>6.7 kmh</cmt></trkpt>
<trkpt lat="58.771331" lon="05.681396"><ele>29</ele><time>2012-03-25T16:28:35Z</time><cmt>6.7 kmh</cmt></trkpt>
<trkpt lat="58.771313" lon="05.681396"><ele>29</ele><time>2012-03-25T16:28:35Z</time><cmt>7.1 kmh</cmt></trkpt>
<trkpt lat="58.771296" lon="05.681397"><ele>29</ele><time>2012-03-25T16:28:36Z</time><cmt>6.4 kmh</cmt></trkpt>
<trkpt lat="58.771278" lon="05.681397"><ele>29</ele><time>2012-03-25T16:28:38Z</time><cmt>6.4 kmh</cmt></trkpt>
<trkpt lat="58.771261" lon="05.681398"><ele>29</ele><time>2012-03-25T16:28:39Z</time><cmt>7.0 kmh</cmt></trkpt>
<trkpt lat="58.771242" lon="05.681397"><ele>29</ele><time>2012-03-25T16:28:40Z</time><cmt>6.7 kmh</cmt></trkpt>
<trkpt lat="58.771225" lon="05.681397"><ele>29</ele><time>2012-03-25T16:28:41Z</time><cmt>6.5 kmh</cmt></trkpt>
<trkpt lat="58.771207" lon="05.681396"><ele>29</ele><time>2012-03-25T16:28:41Z</time><cmt>6.8 kmh</cmt></trkpt>
<trkpt lat="58.771190" lon="05.681395"><ele>29</ele><time>2012-03-25T16:28:42Z</time><cmt>6.8 kmh</cmt></trkpt>
<trkpt lat="58.771172" lon="05.681394"><ele>29</ele><time>2012-03-25T16:28:44Z</time><cmt>7.1 kmh</cmt></trkpt>
<trkpt lat="58.771154" lon="05.681393"><ele>29</ele><time>2012-03-25T16:28:45Z</time><cmt>6.9 kmh</cmt></trkpt>
<trkpt lat="58.771135" lon="05.681391"><ele>29</ele><time>2012-03-25T16:28:46Z</time><cmt>7.7 kmh</cmt></trkpt>
<trkpt lat="58.771115" lon="05.681389"><ele>29</ele><time>2012-03-25T16:28:47Z</time><cmt>7.5 kmh</cmt></trkpt>
<trkpt lat="58.771096" lon="05.681385"><ele>29</ele><time>2012-03-25T16:28:47Z</time><cmt>7.2 kmh</cmt></trkpt>
<trkpt lat="58.771078" lon="05.681382"><ele>29</ele><time>2012-03-25T16:28:48Z</time><cmt>7.0 kmh</cmt></trkpt>
<trkpt lat="58.771060" lon="05.681379"><ele>29</ele><time>2012-03-25T16:28:50Z</time><cmt>7.2 kmh</cmt></trkpt>
<trkpt lat="58.771041" lon="05.681376"><ele>29</ele><time>2012-03-25T16:28:51Z</time><cmt>7.4 kmh</cmt></trkpt>
<trkpt lat="58.771022" lon="05.681373"><ele>29</ele><time>2012-03-25T16:28:52Z</time><cmt>7.4 kmh</cmt></trkpt>
<trkpt lat="58.771004" lon="05.681370"><ele>29</ele><time>2012-03-25T16:28:53Z</time><cmt>6.9 kmh</cmt></trkpt>
<trkpt lat="58.770985" lon="05.681367"><ele>29</ele><time>2012-03-25T16:28:53Z</time><cmt>7.3 kmh</cmt></trkpt>
<trkpt lat="58.770966" lon="05.681365"><ele>29</ele><time>2012-03-25T16:28:54Z</time><cmt>6.8 kmh</cmt></trkpt>
<trkpt lat="58.770947" lon="05.681363"><ele>29</ele><time>2012-03-25T16:28:56Z</time><cmt>7.3 kmh</cmt></trkpt>
<trkpt lat="58.770928" lon="05.681361"><ele>29</ele><time>2012-03-25T16:28:57Z</time><cmt>7.2 kmh</cmt></trkpt>
<trkpt lat="58.770909" lon="05.681358"><ele>29</ele><time>2012-03-25T16:28:58Z</time><cmt>7.2 kmh</cmt></trkpt>
<trkpt lat="58.770891" lon="05.681357"><ele>29</ele><time>2012-03-25T16:28:59Z</time><cmt>6.9 kmh</cmt></trkpt>
<trkpt lat="58.770872" lon="05.681355"><ele>29</ele><time>2012-03-25T16:28:59Z</time><cmt>7.0 kmh</cmt></trkpt>
<trkpt lat="58.770854" lon="05.681353"><ele>29</ele><time>2012-03-25T16:29:00Z</time><cmt>7.6 kmh</cmt></trkpt>
<trkpt lat="58.770836" lon="05.681350"><ele>29</ele><time>2012-03-25T16:29:02Z</time><cmt>6.7 kmh</cmt></trkpt>
<trkpt lat="58.770818" lon="05.681347"><ele>29</ele><time>2012-03-25T16:29:03Z</time><cmt>6.6 kmh</cmt></trkpt>
<trkpt lat="58.770800" lon="05.681343"><ele>29</ele><time>2012-03-25T16:29:04Z</time><cmt>6.9 kmh</cmt></trkpt>
<trkpt lat="58.770782" lon="05.681338"><ele>29</ele><time>2012-03-25T16:29:05Z</time><cmt>7.2 kmh</cmt></trkpt>
<trkpt lat="58.770763" lon="05.681331"><ele>29</ele><time>2012-03-25T16:29:06Z</time><cmt>6.5 kmh</cmt></trkpt>
<trkpt lat="58.770746" lon="05.681325"><ele>29</ele><time>2012-03-25T16:29:06Z</time><cmt>7.0 kmh</cmt></trkpt>
<trkpt lat="58.770726" lon="05.681318"><ele>29</ele><time>2012-03-25T16:29:07Z</time><cmt>7.8 kmh</cmt></trkpt>
<trkpt lat="58.770707" lon="05.681310"><ele>28</ele><time>2012-03-25T16:29:09Z</time><cmt>6.8 kmh</cmt></trkpt>
<trkpt lat="58.770689" lon="05.681304"><ele>28</ele><time>2012-03-25T16:29:10Z</time><cmt>6.6 kmh</cmt></trkpt>
<trkpt lat="58.770671" lon="05.681298"><ele>28</ele><time>2012-03-25T16:29:11Z</time><cmt>6.9 kmh</cmt></trkpt>
<trkpt lat="58.770653" lon="05.681292"><ele>28</ele><time>2012-03-25T16:29:12Z</time><cmt>6.5 kmh</cmt></trkpt>
<trkpt lat="58.770636" lon="05.681287"><ele>28</ele><time>2012-03-25T16:29:12Z</time><cmt>6.0 kmh</cmt></trkpt>
<trkpt lat="58.770619" lon="05.681282"><ele>28</ele><time>2012-03-25T16:29:13Z</time><cmt>5.7 kmh</cmt></trkpt>
<trkpt lat="58.770603" lon="05.681280"><ele>28</ele><time>2012-03-25T16:29:15Z</time><cmt>6.1 kmh</cmt></trkpt>
<trkpt lat="58.770587" lon="05.681279"><ele>28</ele><time>2012-03-25T16:29:16Z</time><cmt>6.2 kmh</cmt></trkpt>
<trkpt lat="58.770570" lon="05.681281"><ele>28</ele><time>2012-03-25T16:29:17Z</time><cmt>6.5 kmh</cmt></trkpt>
<trkpt lat="58.770554" lon="05.681284"><ele>28</ele><time>2012-03-25T16:29:18Z</time><cmt>5.8 kmh</cmt></trkpt>
<trkpt lat="58.770539" lon="05.681290"><ele>28</ele><time>2012-03-25T16:29:18Z</time><cmt>5.5 kmh</cmt></trkpt>
<trkpt lat="58.770523" lon="05.681292"><ele>28</ele><time>2012-03-25T16:29:19Z</time><cmt>5.1 kmh</cmt></trkpt>
<trkpt lat="58.770509" lon="05.681295"><ele>28</ele><time>2012-03-25T16:29:21Z</time><cmt>5.1 kmh</cmt></trkpt>
<trkpt lat="58.770497" lon="05.681300"><ele>28</ele><time>2012-03-25T16:29:22Z</time><cmt>4.4 kmh</cmt></trkpt>
<trkpt lat="58.770485" lon="05.681302"><ele>28</ele><time>2012-03-25T16:29:23Z</time><cmt>5.1 kmh</cmt></trkpt>
<trkpt lat="58.770472" lon="05.681303"><ele>28</ele><time>2012-03-25T16:29:24Z</time><cmt>5.1 kmh</cmt></trkpt>
<trkpt lat="58.770459" lon="05.681302"><ele>28</ele><time>2012-03-25T16:29:24Z</time><cmt>5.2 kmh</cmt></trkpt>
<trkpt lat="58.770445" lon="05.681299"><ele>28</ele><time>2012-03-25T16:29:25Z</time><cmt>5.3 kmh</cmt></trkpt>
<trkpt lat="58.770431" lon="05.681295"><ele>28</ele><time>2012-03-25T16:29:27Z</time><cmt>5.4 kmh</cmt></trkpt>
<trkpt lat="58.770416" lon="05.681290"><ele>28</ele><time>2012-03-25T16:29:28Z</time><cmt>6.4 kmh</cmt></trkpt>
<trkpt lat="58.770400" lon="05.681283"><ele>28</ele><time>2012-03-25T16:29:29Z</time><cmt>6.5 kmh</cmt></trkpt>
<trkpt lat="58.770383" lon="05.681275"><ele>28</ele><time>2012-03-25T16:29:30Z</time><cmt>7.1 kmh</cmt></trkpt>
<trkpt lat="58.770365" lon="05.681266"><ele>28</ele><time>2012-03-25T16:29:30Z</time><cmt>6.7 kmh</cmt></trkpt>
<trkpt lat="58.770348" lon="05.681256"><ele>28</ele><time>2012-03-25T16:29:31Z</time><cmt>6.7 kmh</cmt></trkpt>
<trkpt lat="58.770331" lon="05.681245"><ele>28</ele><time>2012-03-25T16:29:33Z</time><cmt>6.4 kmh</cmt></trkpt>
<trkpt lat="58.770315" lon="05.681233"><ele>28</ele><time>2012-03-25T16:29:34Z</time><cmt>6.8 kmh</cmt></trkpt>
<trkpt lat="58.770299" lon="05.681220"><ele>28</ele><time>2012-03-25T16:29:35Z</time><cmt>6.6 kmh</cmt></trkpt>
<trkpt lat="58.770282" lon="05.681207"><ele>28</ele><time>2012-03-25T16:29:36Z</time><cmt>7.2 kmh</cmt></trkpt>
<trkpt lat="58.770265" lon="05.681193"><ele>28</ele><time>2012-03-25T16:29:37Z</time><cmt>7.2 kmh</cmt></trkpt>
<trkpt lat="58.770248" lon="05.681178"><ele>28</ele><time>2012-03-25T16:29:37Z</time><cmt>7.2 kmh</cmt></trkpt>
<trkpt lat="58.770232" lon="05.681163"><ele>28</ele><time>2012-03-25T16:29:38Z</time><cmt>6.7 kmh</cmt></trkpt>
<trkpt lat="58.770215" lon="05.681148"><ele>27</ele><time>2012-03-25T16:29:40Z</time><cmt>7.2 kmh</cmt></trkpt>
<trkpt lat="58.770199" lon="05.681133"><ele>27</ele><time>2012-03-25T16:29:41Z</time><cmt>6.7 kmh</cmt></trkpt>
<trkpt lat="58.770183" lon="05.681118"><ele>27</ele><time>2012-03-25T16:29:42Z</time><cmt>7.1 kmh</cmt></trkpt>
<trkpt lat="58.770168" lon="05.681103"><ele>27</ele><time>2012-03-25T16:29:43Z</time><cmt>6.7 kmh</cmt></trkpt>
<trkpt lat="58.770152" lon="05.681089"><ele>27</ele><time>2012-03-25T16:29:43Z</time><cmt>6.9 kmh</cmt></trkpt>
<trkpt lat="58.770136" lon="05.681074"><ele>27</ele><time>2012-03-25T16:29:44Z</time><cmt>6.5 kmh</cmt></trkpt>
<trkpt lat="58.770120" lon="05.681060"><ele>27</ele><time>2012-03-25T16:29:46Z</time><cmt>6.7 kmh</cmt></trkpt>
<trkpt lat="58.770104" lon="05.681046"><ele>27</ele><time>2012-03-25T16:29:47Z</time><cmt>6.6 kmh</cmt></trkpt>
<trkpt lat="58.770089" lon="05.681032"><ele>27</ele><time>2012-03-25T16:29:48Z</time><cmt>6.4 kmh</cmt></trkpt>
<trkpt lat="58.770074" lon="05.681019"><ele>27</ele><time>2012-03-25T16:29:49Z</time><cmt>6.3 kmh</cmt></trkpt>
<trkpt lat="58.770060" lon="05.681005"><ele>27</ele><time>2012-03-25T16:29:49Z</time><cmt>6.3 kmh</cmt></trkpt>
<trkpt lat="58.770045" lon="05.680992"><ele>27</ele><time>2012-03-25T16:29:50Z</time><cmt>6.0 kmh</cmt></trkpt>
<trkpt lat="58.770031" lon="05.680979"><ele>27</ele><time>2012-03-25T16:29:52Z</time><cmt>6.0 kmh</cmt></trkpt>
<trkpt lat="58.770016" lon="05.680966"><ele>27</ele><time>2012-03-25T16:29:53Z</time><cmt>6.4 kmh</cmt></trkpt>
<trkpt lat="58.770001" lon="05.680952"><ele>27</ele><time>2012-03-25T16:29:54Z</time><cmt>6.6 kmh</cmt></trkpt>
<trkpt lat="58.769985" lon="05.680938"><ele>27</ele><time>2012-03-25T16:29:55Z</time><cmt>6.3 kmh</cmt></trkpt>
<trkpt lat="58.769969" lon="05.680925"><ele>27</ele><time>2012-03-25T16:29:55Z</time><cmt>6.7 kmh</cmt></trkpt>
<trkpt lat="58.769953" lon="05.680912"><ele>27</ele><time>2012-03-25T16:29:56Z</time><cmt>6.0 kmh</cmt></trkpt>
<trkpt lat="58.769937" lon="05.680900"><ele>27</ele><time>2012-03-25T16:29:58Z</time><cmt>6.8 kmh</cmt></trkpt>
<trkpt lat="58.769920" lon="05.680888"><ele>27</ele><time>2012-03-25T16:29:59Z</time><cmt>6.6 kmh</cmt></trkpt>
<trkpt lat="58.769903" lon="05.680877"><ele>27</ele><time>2012-03-25T16:30:00Z</time><cmt>6.3 kmh</cmt></trkpt>
<trkpt lat="58.769887" lon="05.680866"><ele>27</ele><time>2012-03-25T16:30:01Z</time><cmt>6.6 kmh</cmt></trkpt>
<trkpt lat="58.769871" lon="05.680855"><ele>27</ele><time>2012-03-25T16:30:01Z</time><cmt>6.4 kmh</cmt></trkpt>
<trkpt lat="58.769855" lon="05.680844"><ele>27</ele><time>2012-03-25T16:30:02Z</time><cmt>6.7 kmh</cmt></trkpt>
<trkpt lat="58.769838" lon="05.680833"><ele>27</ele><time>2012-03-25T16:30:04Z</time><cmt>7.5 kmh</cmt></trkpt>
<trkpt lat="58.769821" lon="05.680822"><ele>27</ele><time>2012-03-25T16:30:05Z</time><cmt>7.2 kmh</cmt></trkpt>
<trkpt lat="58.769803" lon="05.680810"><ele>27</ele><time>2012-03-25T16:30:06Z</time><cmt>7.1 kmh</cmt></trkpt>
<trkpt lat="58.769786" lon="05.680798"><ele>27</ele><time>2012-03-25T16:30:07Z</time><cmt>6.9 kmh</cmt></trkpt>
<trkpt lat="58.769770" lon="05.680786"><ele>27</ele><time>2012-03-25T16:30:08Z</time><cmt>6.6 kmh</cmt></trkpt>
<trkpt lat="58.769754" lon="05.680774"><ele>27</ele><time>2012-03-25T16:30:08Z</time><cmt>6.4 kmh</cmt></trkpt>
<trkpt lat="58.769738" lon="05.680761"><ele>27</ele><time>2012-03-25T16:30:10Z</time><cmt>6.6 kmh</cmt></trkpt>
<trkpt lat="58.769723" lon="05.680748"><ele>27</ele><time>2012-03-25T16:30:11Z</time><cmt>6.4 kmh</cmt></trkpt>
<trkpt lat="58.769707" lon="05.680735"><ele>27</ele><time>2012-03-25T16:30:12Z</time><cmt>6.3 kmh</cmt></trkpt>
<trkpt lat="58.769692" lon="05.680722"><ele>27</ele><time>2012-03-25T16:30:13Z</time><cmt>6.5 kmh</cmt></trkpt>
<trkpt lat="58.769677" lon="05.680709"><ele>27</ele><time>2012-03-25T16:30:14Z</time><cmt>6.7 kmh</cmt></trkpt>
<trkpt lat="58.769660" lon="05.680695"><ele>27</ele><time>2012-03-25T16:30:14Z</time><cmt>7.1 kmh</cmt></trkpt>
<trkpt lat="58.769644" lon="05.680681"><ele>27</ele><time>2012-03-25T16:30:15Z</time><cmt>6.7 kmh</cmt></trkpt>
<trkpt lat="58.769628" lon="05.680666"><ele>27</ele><time>2012-03-25T16:30:17Z</time><cmt>6.9 kmh</cmt></trkpt>
<trkpt lat="58.769611" lon="05.680652"><ele>27</ele><time>2012-03-25T16:30:18Z</time><cmt>7.1 kmh</cmt></trkpt>
<trkpt lat="58.769595" lon="05.680639"><ele>27</ele><time>2012-03-25T16:30:19Z</time><cmt>7.0 kmh</cmt></trkpt>
<trkpt lat="58.769578" lon="05.680626"><ele>27</ele><time>2012-03-25T16:30:20Z</time><cmt>6.9 kmh</cmt></trkpt>
<trkpt lat="58.769561" lon="05.680612"><ele>27</ele><time>2012-03-25T16:30:20Z</time><cmt>7.5 kmh</cmt></trkpt>
<trkpt lat="58.769544" lon="05.680599"><ele>27</ele><time>2012-03-25T16:30:21Z</time><cmt>6.5 kmh</cmt></trkpt>
<trkpt lat="58.769529" lon="05.680586"><ele>27</ele><time>2012-03-25T16:30:23Z</time><cmt>6.7 kmh</cmt></trkpt>
<trkpt lat="58.769513" lon="05.680572"><ele>27</ele><time>2012-03-25T16:30:24Z</time><cmt>6.6 kmh</cmt></trkpt>
<trkpt lat="58.769498" lon="05.680559"><ele>27</ele><time>2012-03-25T16:30:25Z</time><cmt>6.8 kmh</cmt></trkpt>
<trkpt lat="58.769483" lon="05.680545"><ele>27</ele><time>2012-03-25T16:30:26Z</time><cmt>6.0 kmh</cmt></trkpt>
<trkpt lat="58.769467" lon="05.680531"><ele>27</ele><time>2012-03-25T16:30:26Z</time><cmt>6.7 kmh</cmt></trkpt>
<trkpt lat="58.769452" lon="05.680518"><ele>27</ele><time>2012-03-25T16:30:27Z</time><cmt>6.3 kmh</cmt></trkpt>
<trkpt lat="58.769437" lon="05.680505"><ele>27</ele><time>2012-03-25T16:30:29Z</time><cmt>6.0 kmh</cmt></trkpt>
<trkpt lat="58.769422" lon="05.680492"><ele>27</ele><time>2012-03-25T16:30:30Z</time><cmt>6.2 kmh</cmt></trkpt>
<trkpt lat="58.769407" lon="05.680478"><ele>27</ele><time>2012-03-25T16:30:31Z</time><cmt>6.4 kmh</cmt></trkpt>
<trkpt lat="58.769392" lon="05.680465"><ele>27</ele><time>2012-03-25T16:30:32Z</time><cmt>6.0 kmh</cmt></trkpt>
<trkpt lat="58.769377" lon="05.680450"><ele>27</ele><time>2012-03-25T16:30:32Z</time><cmt>6.3 kmh</cmt></trkpt>
<trkpt lat="58.769362" lon="05.680435"><ele>27</ele><time>2012-03-25T16:30:33Z</time><cmt>6.2 kmh</cmt></trkpt>
<trkpt lat="58.769347" lon="05.680419"><ele>27</ele><time>2012-03-25T16:30:35Z</time><cmt>6.7 kmh</cmt></trkpt>
<trkpt lat="58.769332" lon="05.680402"><ele>27</ele><time>2012-03-25T16:30:36Z</time><cmt>6.6 kmh</cmt></trkpt>
<trkpt lat="58.769315" lon="05.680385"><ele>27</ele><time>2012-03-25T16:30:37Z</time><cmt>7.1 kmh</cmt></trkpt>
<trkpt lat="58.769299" lon="05.680368"><ele>27</ele><time>2012-03-25T16:30:38Z</time><cmt>7.0 kmh</cmt></trkpt>
<trkpt lat="58.769282" lon="05.680352"><ele>27</ele><time>2012-03-25T16:30:38Z</time><cmt>7.1 kmh</cmt></trkpt>
<trkpt lat="58.769264" lon="05.680337"><ele>27</ele><time>2012-03-25T16:30:39Z</time><cmt>7.1 kmh</cmt></trkpt>
<trkpt lat="58.769247" lon="05.680322"><ele>27</ele><time>2012-03-25T16:30:41Z</time><cmt>6.8 kmh</cmt></trkpt>
<trkpt lat="58.769230" lon="05.680308"><ele>27</ele><time>2012-03-25T16:30:42Z</time><cmt>7.1 kmh</cmt></trkpt>
<trkpt lat="58.769212" lon="05.680295"><ele>27</ele><time>2012-03-25T16:30:43Z</time><cmt>7.1 kmh</cmt></trkpt>
<trkpt lat="58.769194" lon="05.680281"><ele>27</ele><time>2012-03-25T16:30:44Z</time><cmt>7.6 kmh</cmt></trkpt>
<trkpt lat="58.769175" lon="05.680267"><ele>27</ele><time>2012-03-25T16:30:45Z</time><cmt>7.7 kmh</cmt></trkpt>
<trkpt lat="58.769157" lon="05.680252"><ele>27</ele><time>2012-03-25T16:30:45Z</time><cmt>7.9 kmh</cmt></trkpt>
<trkpt lat="58.769138" lon="05.680237"><ele>27</ele><time>2012-03-25T16:30:46Z</time><cmt>7.9 kmh</cmt></trkpt>
<trkpt lat="58.769119" lon="05.680222"><ele>27</ele><time>2012-03-25T16:30:48Z</time><cmt>7.9 kmh</cmt></trkpt>
<trkpt lat="58.769099" lon="05.680207"><ele>27</ele><time>2012-03-25T16:30:49Z</time><cmt>8.0 kmh</cmt></trkpt>
<trkpt lat="58.769079" lon="05.680194"><ele>27</ele><time>2012-03-25T16:30:50Z</time><cmt>7.8 kmh</cmt></trkpt>
<trkpt lat="58.769059" lon="05.680180"><ele>27</ele><time>2012-03-25T16:30:51Z</time><cmt>7.6 kmh</cmt></trkpt>
<trkpt lat="58.769040" lon="05.680167"><ele>27</ele><time>2012-03-25T16:30:51Z</time><cmt>7.4 kmh</cmt></trkpt>
<trkpt lat="58.769022" lon="05.680154"><ele>27</ele><time>2012-03-25T16:30:52Z</time><cmt>7.1 kmh</cmt></trkpt>
<trkpt lat="58.769005" lon="05.680140"><ele>27</ele><time>2012-03-25T16:30:54Z</time><cmt>7.3 kmh</cmt></trkpt>
<trkpt lat="58.768988" lon="05.680126"><ele>27</ele><time>2012-03-25T16:30:55Z</time><cmt>7.1 kmh</cmt></trkpt>
<trkpt lat="58.768971" lon="05.680111"><ele>27</ele><time>2012-03-25T16:30:56Z</time><cmt>7.3 kmh</cmt></trkpt>
<trkpt lat="58.768954" lon="05.680095"><ele>27</ele><time>2012-03-25T16:30:57Z</time><cmt>7.1 kmh</cmt></trkpt>
<trkpt lat="58.768937" lon="05.680078"><ele>27</ele><time>2012-03-25T16:30:57Z</time><cmt>7.5 kmh</cmt></trkpt>
<trkpt lat="58.768921" lon="05.680060"><ele>27</ele><time>2012-03-25T16:30:58Z</time><cmt>7.0 kmh</cmt></trkpt>
<trkpt lat="58.768904" lon="05.680043"><ele>27</ele><time>2012-03-25T16:31:00Z</time><cmt>6.9 kmh</cmt></trkpt>
<trkpt lat="58.768889" lon="05.680027"><ele>27</ele><time>2012-03-25T16:31:01Z</time><cmt>6.7 kmh</cmt></trkpt>
<trkpt lat="58.768873" lon="05.680010"><ele>27</ele><time>2012-03-25T16:31:02Z</time><cmt>6.7 kmh</cmt></trkpt>
<trkpt lat="58.768858" lon="05.679995"><ele>27</ele><time>2012-03-25T16:31:03Z</time><cmt>6.5 kmh</cmt></trkpt>
<trkpt lat="58.768843" lon="05.679980"><ele>27</ele><time>2012-03-25T16:31:03Z</time><cmt>6.3 kmh</cmt></trkpt>
<trkpt lat="58.768829" lon="05.679964"><ele>27</ele><time>2012-03-25T16:31:04Z</time><cmt>5.8 kmh</cmt></trkpt>
<trkpt lat="58.768814" lon="05.679949"><ele>27</ele><time>2012-03-25T16:31:06Z</time><cmt>6.6 kmh</cmt></trkpt>
<trkpt lat="58.768800" lon="05.679934"><ele>27</ele><time>2012-03-25T16:31:07Z</time><cmt>6.1 kmh</cmt></trkpt>
<trkpt lat="58.768786" lon="05.679917"><ele>27</ele><time>2012-03-25T16:31:08Z</time><cmt>6.4 kmh</cmt></trkpt>
<trkpt lat="58.768771" lon="05.679902"><ele>28</ele><time>2012-03-25T16:31:09Z</time><cmt>5.9 kmh</cmt></trkpt>
<trkpt lat="58.768758" lon="05.679886"><ele>28</ele><time>2012-03-25T16:31:09Z</time><cmt>5.6 kmh</cmt></trkpt>
<trkpt lat="58.768746" lon="05.679871"><ele>28</ele><time>2012-03-25T16:31:10Z</time><cmt>5.1 kmh</cmt></trkpt>
<trkpt lat="58.768735" lon="05.679858"><ele>28</ele><time>2012-03-25T16:31:12Z</time><cmt>5.1 kmh</cmt></trkpt>
<trkpt lat="58.768725" lon="05.679846"><ele>28</ele><time>2012-03-25T16:31:13Z</time><cmt>4.3 kmh</cmt></trkpt>
<trkpt lat="58.768716" lon="05.679835"><ele>28</ele><time>2012-03-25T16:31:14Z</time><cmt>4.9 kmh</cmt></trkpt>
<trkpt lat="58.768707" lon="05.679826"><ele>28</ele><time>2012-03-25T16:31:15Z</time><cmt>4.4 kmh</cmt></trkpt>
<trkpt lat="58.768699" lon="05.679817"><ele>28</ele><time>2012-03-25T16:31:16Z</time><cmt>4.1 kmh</cmt></trkpt>
<trkpt lat="58.768691" lon="05.679809"><ele>28</ele><time>2012-03-25T16:31:16Z</time><cmt>4.0 kmh</cmt></trkpt>
<trkpt lat="58.768682" lon="05.679800"><ele>28</ele><time>2012-03-25T16:31:17Z</time><cmt>4.2 kmh</cmt></trkpt>
<trkpt lat="58.768672" lon="05.679791"><ele>28</ele><time>2012-03-25T16:31:19Z</time><cmt>3.6 kmh</cmt></trkpt>
<trkpt lat="58.768662" lon="05.679783"><ele>28</ele><time>2012-03-25T16:31:20Z</time><cmt>3.7 kmh</cmt></trkpt>
<trkpt lat="58.768653" lon="05.679774"><ele>28</ele><time>2012-03-25T16:31:21Z</time><cmt>4.5 kmh</cmt></trkpt>
<trkpt lat="58.768645" lon="05.679765"><ele>28</ele><time>2012-03-25T16:31:22Z</time><cmt>4.3 kmh</cmt></trkpt>
<trkpt lat="58.768638" lon="05.679756"><ele>28</ele><time>2012-03-25T16:31:22Z</time><cmt>4.0 kmh</cmt></trkpt>
<trkpt lat="58.768630" lon="05.679748"><ele>28</ele><time>2012-03-25T16:31:23Z</time><cmt>3.7 kmh</cmt></trkpt>
<trkpt lat="58.768623" lon="05.679741"><ele>28</ele><time>2012-03-25T16:31:25Z</time><cmt>2.9 kmh</cmt></trkpt>
<trkpt lat="58.768616" lon="05.679736"><ele>28</ele><time>2012-03-25T16:31:26Z</time><cmt>2.7 kmh</cmt></trkpt>
<trkpt lat="58.768610" lon="05.679733"><ele>28</ele><time>2012-03-25T16:31:27Z</time><cmt>3.0 kmh</cmt></trkpt>
<trkpt lat="58.768605" lon="05.679731"><ele>28</ele><time>2012-03-25T16:31:28Z</time><cmt>2.4 kmh</cmt></trkpt>
<trkpt lat="58.768601" lon="05.679730"><ele>28</ele><time>2012-03-25T16:31:28Z</time><cmt>1.9 kmh</cmt></trkpt>
<trkpt lat="58.768598" lon="05.679729"><ele>28</ele><time>2012-03-25T16:31:29Z</time><cmt>1.6 kmh</cmt></trkpt>
<trkpt lat="58.768524" lon="05.679803"><ele>26</ele><time>2012-03-25T16:32:45Z</time><cmt>5.0 kmh</cmt></trkpt>
<trkpt lat="58.768548" lon="05.679792"><ele>20</ele><time>2012-03-25T16:40:14Z</time><cmt>5.0 kmh</cmt></trkpt>
<trkpt lat="58.768548" lon="05.679792"><ele>20</ele><time>2012-03-25T16:40:17Z</time><cmt>0.1 kmh</cmt></trkpt>
<trkpt lat="58.768548" lon="05.679792"><ele>20</ele><time>2012-03-25T16:40:18Z</time><cmt>0.3 kmh</cmt></trkpt>
<trkpt lat="58.768548" lon="05.679792"><ele>20</ele><time>2012-03-25T16:40:19Z</time><cmt>0.4 kmh</cmt></trkpt>
<trkpt lat="58.768548" lon="05.679792"><ele>19</ele><time>2012-03-25T16:40:20Z</time><cmt>0.3 kmh</cmt></trkpt>
<trkpt lat="58.768548" lon="05.679792"><ele>19</ele><time>2012-03-25T16:40:21Z</time><cmt>0.0 kmh</cmt></trkpt>
<trkpt lat="58.768548" lon="05.679792"><ele>19</ele><time>2012-03-25T16:40:27Z</time><cmt>0.0 kmh</cmt></trkpt>
<trkpt lat="58.768548" lon="05.679792"><ele>19</ele><time>2012-03-25T16:40:27Z</time><cmt>0.3 kmh</cmt></trkpt>
<trkpt lat="58.768548" lon="05.679792"><ele>19</ele><time>2012-03-25T16:40:28Z</time><cmt>0.4 kmh</cmt></trkpt>
<trkpt lat="58.768548" lon="05.679792"><ele>19</ele><time>2012-03-25T16:40:30Z</time><cmt>0.1 kmh</cmt></trkpt>
<trkpt lat="58.768548" lon="05.679792"><ele>19</ele><time>2012-03-25T16:40:31Z</time><cmt>0.0 kmh</cmt></trkpt>
<trkpt lat="58.768548" lon="05.679793"><ele>19</ele><time>2012-03-25T16:40:32Z</time><cmt>0.0 kmh</cmt></trkpt>
<trkpt lat="58.768548" lon="05.679793"><ele>19</ele><time>2012-03-25T16:40:33Z</time><cmt>0.0 kmh</cmt></trkpt>
<trkpt lat="58.768549" lon="05.679793"><ele>19</ele><time>2012-03-25T16:40:33Z</time><cmt>0.0 kmh</cmt></trkpt>
<trkpt lat="58.768549" lon="05.679793"><ele>19</ele><time>2012-03-25T16:40:34Z</time><cmt>0.0 kmh</cmt></trkpt>
<trkpt lat="58.768549" lon="05.679793"><ele>19</ele><time>2012-03-25T16:40:36Z</time><cmt>0.0 kmh</cmt></trkpt>
<trkpt lat="58.768549" lon="05.679793"><ele>19</ele><time>2012-03-25T16:40:37Z</time><cmt>0.0 kmh</cmt></trkpt>
<trkpt lat="58.768548" lon="05.679794"><ele>19</ele><time>2012-03-25T16:40:38Z</time><cmt>0.3 kmh</cmt></trkpt>
<trkpt lat="58.768544" lon="05.679793"><ele>18</ele><time>2012-03-25T16:40:44Z</time><cmt>0.8 kmh</cmt></trkpt>
<trkpt lat="58.768545" lon="05.679794"><ele>18</ele><time>2012-03-25T16:40:45Z</time><cmt>1.1 kmh</cmt></trkpt>
<trkpt lat="58.768547" lon="05.679796"><ele>18</ele><time>2012-03-25T16:40:45Z</time><cmt>0.8 kmh</cmt></trkpt>
<trkpt lat="58.768551" lon="05.679796"><ele>18</ele><time>2012-03-25T16:40:46Z</time><cmt>1.2 kmh</cmt></trkpt>
<trkpt lat="58.768554" lon="05.679799"><ele>18</ele><time>2012-03-25T16:40:48Z</time><cmt>1.2 kmh</cmt></trkpt>
<trkpt lat="58.768547" lon="05.679856"><ele>19</ele><time>2012-03-25T16:40:59Z</time><cmt>5.3 kmh</cmt></trkpt>
<trkpt lat="58.768508" lon="05.679872"><ele>20</ele><time>2012-03-25T16:41:03Z</time><cmt>5.0 kmh</cmt></trkpt>
<trkpt lat="58.768479" lon="05.679875"><ele>20</ele><time>2012-03-25T16:41:04Z</time><cmt>5.0 kmh</cmt></trkpt>
<trkpt lat="58.768446" lon="05.679887"><ele>20</ele><time>2012-03-25T16:41:08Z</time><cmt>4.1 kmh</cmt></trkpt>
<trkpt lat="58.768417" lon="05.679869"><ele>24</ele><time>2012-03-25T16:41:27Z</time><cmt>3.7 kmh</cmt></trkpt>
<trkpt lat="58.768461" lon="05.679913"><ele>34</ele><time>2012-03-25T16:46:11Z</time><cmt>5.0 kmh</cmt></trkpt>
<trkpt lat="58.768460" lon="05.679912"><ele>34</ele><time>2012-03-25T16:46:12Z</time><cmt>5.0 kmh</cmt></trkpt>
<trkpt lat="58.768460" lon="05.679911"><ele>34</ele><time>2012-03-25T16:46:13Z</time><cmt>0.0 kmh</cmt></trkpt>
<trkpt lat="58.768460" lon="05.679910"><ele>34</ele><time>2012-03-25T16:46:14Z</time><cmt>0.0 kmh</cmt></trkpt>
<trkpt lat="58.768459" lon="05.679909"><ele>34</ele><time>2012-03-25T16:46:14Z</time><cmt>0.2 kmh</cmt></trkpt>
<trkpt lat="58.768459" lon="05.679908"><ele>34</ele><time>2012-03-25T16:46:15Z</time><cmt>0.4 kmh</cmt></trkpt>
<trkpt lat="58.768459" lon="05.679907"><ele>34</ele><time>2012-03-25T16:46:17Z</time><cmt>0.4 kmh</cmt></trkpt>
<trkpt lat="58.768458" lon="05.679906"><ele>34</ele><time>2012-03-25T16:46:18Z</time><cmt>0.1 kmh</cmt></trkpt>
<trkpt lat="58.768458" lon="05.679906"><ele>34</ele><time>2012-03-25T16:46:19Z</time><cmt>0.0 kmh</cmt></trkpt>
<trkpt lat="58.768458" lon="05.679905"><ele>34</ele><time>2012-03-25T16:46:20Z</time><cmt>0.0 kmh</cmt></trkpt>
<trkpt lat="58.768458" lon="05.679905"><ele>34</ele><time>2012-03-25T16:46:20Z</time><cmt>0.0 kmh</cmt></trkpt>
<trkpt lat="58.768458" lon="05.679904"><ele>34</ele><time>2012-03-25T16:46:21Z</time><cmt>0.0 kmh</cmt></trkpt>
<trkpt lat="58.768458" lon="05.679904"><ele>34</ele><time>2012-03-25T16:46:23Z</time><cmt>0.0 kmh</cmt></trkpt>
<trkpt lat="58.768457" lon="05.679903"><ele>34</ele><time>2012-03-25T16:46:24Z</time><cmt>0.0 kmh</cmt></trkpt>
<trkpt lat="58.768457" lon="05.679903"><ele>34</ele><time>2012-03-25T16:46:25Z</time><cmt>0.0 kmh</cmt></trkpt>
<trkpt lat="58.768457" lon="05.679903"><ele>34</ele><time>2012-03-25T16:46:26Z</time><cmt>0.0 kmh</cmt></trkpt>
<trkpt lat="58.768457" lon="05.679903"><ele>34</ele><time>2012-03-25T16:46:26Z</time><cmt>0.0 kmh</cmt></trkpt>
<trkpt lat="58.768457" lon="05.679903"><ele>34</ele><time>2012-03-25T16:46:27Z</time><cmt>0.0 kmh</cmt></trkpt>
<trkpt lat="58.768457" lon="05.679902"><ele>34</ele><time>2012-03-25T16:46:29Z</time><cmt>0.0 kmh</cmt></trkpt>
<trkpt lat="58.768458" lon="05.679902"><ele>34</ele><time>2012-03-25T16:46:30Z</time><cmt>0.0 kmh</cmt></trkpt>
<trkpt lat="58.768458" lon="05.679901"><ele>34</ele><time>2012-03-25T16:46:31Z</time><cmt>0.0 kmh</cmt></trkpt>
<trkpt lat="58.768459" lon="05.679901"><ele>34</ele><time>2012-03-25T16:46:32Z</time><cmt>0.0 kmh</cmt></trkpt>
<trkpt lat="58.768460" lon="05.679901"><ele>34</ele><time>2012-03-25T16:46:32Z</time><cmt>0.0 kmh</cmt></trkpt>
<trkpt lat="58.768460" lon="05.679900"><ele>34</ele><time>2012-03-25T16:46:33Z</time><cmt>0.0 kmh</cmt></trkpt>
<trkpt lat="58.768461" lon="05.679900"><ele>34</ele><time>2012-03-25T16:46:35Z</time><cmt>0.1 kmh</cmt></trkpt>
<trkpt lat="58.768461" lon="05.679900"><ele>34</ele><time>2012-03-25T16:46:36Z</time><cmt>0.1 kmh</cmt></trkpt>
<trkpt lat="58.768462" lon="05.679900"><ele>34</ele><time>2012-03-25T16:46:37Z</time><cmt>0.3 kmh</cmt></trkpt>
<trkpt lat="58.768462" lon="05.679899"><ele>34</ele><time>2012-03-25T16:46:38Z</time><cmt>0.5 kmh</cmt></trkpt>
<trkpt lat="58.768463" lon="05.679899"><ele>34</ele><time>2012-03-25T16:46:39Z</time><cmt>0.3 kmh</cmt></trkpt>
<trkpt lat="58.768463" lon="05.679899"><ele>34</ele><time>2012-03-25T16:46:39Z</time><cmt>0.0 kmh</cmt></trkpt>
<trkpt lat="58.768464" lon="05.679899"><ele>34</ele><time>2012-03-25T16:46:41Z</time><cmt>0.0 kmh</cmt></trkpt>
<trkpt lat="58.768464" lon="05.679899"><ele>34</ele><time>2012-03-25T16:46:42Z</time><cmt>0.0 kmh</cmt></trkpt></trkseg>
<trkseg>
<trkpt lat="58.738635" lon="05.635757"><ele>0</ele><time>2012-03-31T09:35:06Z</time><cmt>0.0 kmh</cmt></trkpt>
<trkpt lat="58.740301" lon="05.636451"><ele>35</ele><time>2012-03-31T09:37:05Z</time><cmt>5.0 kmh</cmt></trkpt></trkseg>
<trkseg>
<trkpt lat="58.865694" lon="05.837968"><ele>25</ele><time>2012-03-31T11:53:39Z</time><cmt>0.0 kmh</cmt></trkpt></trkseg>
<trkseg>
<trkpt lat="58.865694" lon="05.837968"><ele>25</ele><time>2012-03-31T11:53:41Z</time><cmt>0.0 kmh</cmt></trkpt>
<trkpt lat="58.865561" lon="05.838126"><ele>20</ele><time>2012-03-31T11:54:43Z</time><cmt>5.0 kmh</cmt></trkpt>
<trkpt lat="58.865560" lon="05.838127"><ele>20</ele><time>2012-03-31T11:54:44Z</time><cmt>5.0 kmh</cmt></trkpt>
<trkpt lat="58.865559" lon="05.838127"><ele>20</ele><time>2012-03-31T11:54:45Z</time><cmt>0.4 kmh</cmt></trkpt>
<trkpt lat="58.865558" lon="05.838127"><ele>20</ele><time>2012-03-31T11:54:46Z</time><cmt>0.5 kmh</cmt></trkpt>
<trkpt lat="58.865556" lon="05.838128"><ele>20</ele><time>2012-03-31T11:54:47Z</time><cmt>0.6 kmh</cmt></trkpt>
<trkpt lat="58.865555" lon="05.838128"><ele>20</ele><time>2012-03-31T11:54:48Z</time><cmt>0.5 kmh</cmt></trkpt>
<trkpt lat="58.865554" lon="05.838129"><ele>20</ele><time>2012-03-31T11:54:49Z</time><cmt>0.2 kmh</cmt></trkpt>
<trkpt lat="58.865554" lon="05.838129"><ele>20</ele><time>2012-03-31T11:54:50Z</time><cmt>0.0 kmh</cmt></trkpt>
<trkpt lat="58.865554" lon="05.838130"><ele>20</ele><time>2012-03-31T11:54:51Z</time><cmt>0.0 kmh</cmt></trkpt>
<trkpt lat="58.865553" lon="05.838130"><ele>21</ele><time>2012-03-31T11:54:52Z</time><cmt>0.0 kmh</cmt></trkpt>
<trkpt lat="58.865553" lon="05.838130"><ele>21</ele><time>2012-03-31T11:54:53Z</time><cmt>0.0 kmh</cmt></trkpt>
<trkpt lat="58.865553" lon="05.838130"><ele>21</ele><time>2012-03-31T11:54:54Z</time><cmt>0.0 kmh</cmt></trkpt>
<trkpt lat="58.865553" lon="05.838131"><ele>21</ele><time>2012-03-31T11:54:55Z</time><cmt>0.2 kmh</cmt></trkpt>
<trkpt lat="58.865553" lon="05.838131"><ele>21</ele><time>2012-03-31T11:54:56Z</time><cmt>0.3 kmh</cmt></trkpt>
<trkpt lat="58.865553" lon="05.838131"><ele>21</ele><time>2012-03-31T11:54:57Z</time><cmt>0.0 kmh</cmt></trkpt>
<trkpt lat="58.865553" lon="05.838131"><ele>21</ele><time>2012-03-31T11:54:58Z</time><cmt>0.0 kmh</cmt></trkpt>
<trkpt lat="58.865553" lon="05.838131"><ele>21</ele><time>2012-03-31T11:54:59Z</time><cmt>0.0 kmh</cmt></trkpt>
<trkpt lat="58.865553" lon="05.838131"><ele>21</ele><time>2012-03-31T11:55:00Z</time><cmt>0.0 kmh</cmt></trkpt>
<trkpt lat="58.865553" lon="05.838131"><ele>21</ele><time>2012-03-31T11:55:01Z</time><cmt>0.0 kmh</cmt></trkpt>
<trkpt lat="58.865553" lon="05.838131"><ele>22</ele><time>2012-03-31T11:55:02Z</time><cmt>0.0 kmh</cmt></trkpt>
<trkpt lat="58.865552" lon="05.838131"><ele>22</ele><time>2012-03-31T11:55:03Z</time><cmt>0.0 kmh</cmt></trkpt>
<trkpt lat="58.865552" lon="05.838131"><ele>22</ele><time>2012-03-31T11:55:04Z</time><cmt>0.0 kmh</cmt></trkpt>
<trkpt lat="58.865552" lon="05.838131"><ele>22</ele><time>2012-03-31T11:55:05Z</time><cmt>0.0 kmh</cmt></trkpt>
<trkpt lat="58.865552" lon="05.838131"><ele>22</ele><time>2012-03-31T11:55:06Z</time><cmt>0.0 kmh</cmt></trkpt>
<trkpt lat="58.865552" lon="05.838131"><ele>22</ele><time>2012-03-31T11:55:07Z</time><cmt>0.0 kmh</cmt></trkpt>
<trkpt lat="58.865552" lon="05.838130"><ele>22</ele><time>2012-03-31T11:55:08Z</time><cmt>0.0 kmh</cmt></trkpt>
<trkpt lat="58.865552" lon="05.838130"><ele>23</ele><time>2012-03-31T11:55:09Z</time><cmt>0.0 kmh</cmt></trkpt>
<trkpt lat="58.865552" lon="05.838130"><ele>23</ele><time>2012-03-31T11:55:10Z</time><cmt>0.0 kmh</cmt></trkpt>
<trkpt lat="58.865551" lon="05.838128"><ele>23</ele><time>2012-03-31T11:55:11Z</time><cmt>0.3 kmh</cmt></trkpt>
<trkpt lat="58.865551" lon="05.838125"><ele>23</ele><time>2012-03-31T11:55:12Z</time><cmt>0.5 kmh</cmt></trkpt>
<trkpt lat="58.865550" lon="05.838122"><ele>23</ele><time>2012-03-31T11:55:13Z</time><cmt>0.4 kmh</cmt></trkpt>
<trkpt lat="58.865550" lon="05.838119"><ele>24</ele><time>2012-03-31T11:55:14Z</time><cmt>0.5 kmh</cmt></trkpt>
<trkpt lat="58.865549" lon="05.838116"><ele>24</ele><time>2012-03-31T11:55:15Z</time><cmt>0.7 kmh</cmt></trkpt>
<trkpt lat="58.865548" lon="05.838113"><ele>24</ele><time>2012-03-31T11:55:16Z</time><cmt>0.7 kmh</cmt></trkpt>
<trkpt lat="58.865548" lon="05.838110"><ele>24</ele><time>2012-03-31T11:55:17Z</time><cmt>0.7 kmh</cmt></trkpt>
<trkpt lat="58.865547" lon="05.838108"><ele>25</ele><time>2012-03-31T11:55:18Z</time><cmt>0.7 kmh</cmt></trkpt>
<trkpt lat="58.865547" lon="05.838105"><ele>25</ele><time>2012-03-31T11:55:19Z</time><cmt>0.6 kmh</cmt></trkpt>
<trkpt lat="58.865546" lon="05.838102"><ele>25</ele><time>2012-03-31T11:55:20Z</time><cmt>0.6 kmh</cmt></trkpt>
<trkpt lat="58.865546" lon="05.838100"><ele>26</ele><time>2012-03-31T11:55:21Z</time><cmt>0.6 kmh</cmt></trkpt>
<trkpt lat="58.865545" lon="05.838097"><ele>26</ele><time>2012-03-31T11:55:22Z</time><cmt>0.5 kmh</cmt></trkpt>
<trkpt lat="58.865545" lon="05.838094"><ele>26</ele><time>2012-03-31T11:55:23Z</time><cmt>0.6 kmh</cmt></trkpt>
<trkpt lat="58.865544" lon="05.838092"><ele>26</ele><time>2012-03-31T11:55:24Z</time><cmt>0.6 kmh</cmt></trkpt>
<trkpt lat="58.865544" lon="05.838090"><ele>27</ele><time>2012-03-31T11:55:25Z</time><cmt>0.4 kmh</cmt></trkpt>
<trkpt lat="58.865544" lon="05.838088"><ele>27</ele><time>2012-03-31T11:55:26Z</time><cmt>0.4 kmh</cmt></trkpt>
<trkpt lat="58.865543" lon="05.838086"><ele>27</ele><time>2012-03-31T11:55:27Z</time><cmt>0.4 kmh</cmt></trkpt>
<trkpt lat="58.865543" lon="05.838084"><ele>28</ele><time>2012-03-31T11:55:28Z</time><cmt>0.5 kmh</cmt></trkpt>
<trkpt lat="58.865543" lon="05.838082"><ele>28</ele><time>2012-03-31T11:55:29Z</time><cmt>0.4 kmh</cmt></trkpt>
<trkpt lat="58.865542" lon="05.838081"><ele>28</ele><time>2012-03-31T11:55:30Z</time><cmt>0.2 kmh</cmt></trkpt>
<trkpt lat="58.865542" lon="05.838080"><ele>29</ele><time>2012-03-31T11:55:31Z</time><cmt>0.2 kmh</cmt></trkpt>
<trkpt lat="58.865542" lon="05.838078"><ele>29</ele><time>2012-03-31T11:55:32Z</time><cmt>0.2 kmh</cmt></trkpt>
<trkpt lat="58.865542" lon="05.838077"><ele>29</ele><time>2012-03-31T11:55:33Z</time><cmt>0.0 kmh</cmt></trkpt>
<trkpt lat="58.865542" lon="05.838077"><ele>30</ele><time>2012-03-31T11:55:34Z</time><cmt>0.0 kmh</cmt></trkpt>
<trkpt lat="58.865541" lon="05.838076"><ele>30</ele><time>2012-03-31T11:55:35Z</time><cmt>0.2 kmh</cmt></trkpt>
<trkpt lat="58.865541" lon="05.838075"><ele>30</ele><time>2012-03-31T11:55:36Z</time><cmt>0.2 kmh</cmt></trkpt>
<trkpt lat="58.865541" lon="05.838075"><ele>30</ele><time>2012-03-31T11:55:37Z</time><cmt>0.0 kmh</cmt></trkpt>
<trkpt lat="58.865541" lon="05.838074"><ele>31</ele><time>2012-03-31T11:55:38Z</time><cmt>0.1 kmh</cmt></trkpt>
<trkpt lat="58.865541" lon="05.838074"><ele>31</ele><time>2012-03-31T11:55:39Z</time><cmt>0.1 kmh</cmt></trkpt>
<trkpt lat="58.865540" lon="05.838072"><ele>31</ele><time>2012-03-31T11:55:40Z</time><cmt>0.3 kmh</cmt></trkpt>
<trkpt lat="58.865540" lon="05.838070"><ele>31</ele><time>2012-03-31T11:55:41Z</time><cmt>0.4 kmh</cmt></trkpt>
<trkpt lat="58.865540" lon="05.838069"><ele>32</ele><time>2012-03-31T11:55:42Z</time><cmt>0.2 kmh</cmt></trkpt>
<trkpt lat="58.865539" lon="05.838068"><ele>32</ele><time>2012-03-31T11:55:43Z</time><cmt>0.2 kmh</cmt></trkpt>
<trkpt lat="58.865539" lon="05.838066"><ele>32</ele><time>2012-03-31T11:55:44Z</time><cmt>0.4 kmh</cmt></trkpt>
<trkpt lat="58.865539" lon="05.838064"><ele>32</ele><time>2012-03-31T11:55:45Z</time><cmt>0.4 kmh</cmt></trkpt>
<trkpt lat="58.865538" lon="05.838062"><ele>32</ele><time>2012-03-31T11:55:46Z</time><cmt>0.5 kmh</cmt></trkpt>
<trkpt lat="58.865538" lon="05.838060"><ele>33</ele><time>2012-03-31T11:55:47Z</time><cmt>0.5 kmh</cmt></trkpt>
<trkpt lat="58.865538" lon="05.838057"><ele>33</ele><time>2012-03-31T11:55:48Z</time><cmt>0.6 kmh</cmt></trkpt>
<trkpt lat="58.865537" lon="05.838052"><ele>33</ele><time>2012-03-31T11:55:49Z</time><cmt>0.8 kmh</cmt></trkpt>
<trkpt lat="58.865536" lon="05.838048"><ele>34</ele><time>2012-03-31T11:55:50Z</time><cmt>0.8 kmh</cmt></trkpt>
<trkpt lat="58.865535" lon="05.838044"><ele>34</ele><time>2012-03-31T11:55:51Z</time><cmt>0.8 kmh</cmt></trkpt>
<trkpt lat="58.865534" lon="05.838041"><ele>34</ele><time>2012-03-31T11:55:52Z</time><cmt>0.9 kmh</cmt></trkpt>
<trkpt lat="58.865532" lon="05.838039"><ele>35</ele><time>2012-03-31T11:55:53Z</time><cmt>0.7 kmh</cmt></trkpt>
<trkpt lat="58.865532" lon="05.838037"><ele>35</ele><time>2012-03-31T11:55:54Z</time><cmt>0.3 kmh</cmt></trkpt>
<trkpt lat="58.865531" lon="05.838037"><ele>36</ele><time>2012-03-31T11:55:55Z</time><cmt>0.0 kmh</cmt></trkpt>
<trkpt lat="58.865530" lon="05.838037"><ele>36</ele><time>2012-03-31T11:55:56Z</time><cmt>0.0 kmh</cmt></trkpt>
<trkpt lat="58.865529" lon="05.838037"><ele>36</ele><time>2012-03-31T11:55:57Z</time><cmt>0.0 kmh</cmt></trkpt>
<trkpt lat="58.865529" lon="05.838037"><ele>37</ele><time>2012-03-31T11:55:58Z</time><cmt>0.0 kmh</cmt></trkpt>
<trkpt lat="58.865528" lon="05.838038"><ele>37</ele><time>2012-03-31T11:55:59Z</time><cmt>0.2 kmh</cmt></trkpt>
<trkpt lat="58.865528" lon="05.838038"><ele>37</ele><time>2012-03-31T11:56:00Z</time><cmt>0.4 kmh</cmt></trkpt>
<trkpt lat="58.865527" lon="05.838040"><ele>38</ele><time>2012-03-31T11:56:01Z</time><cmt>0.4 kmh</cmt></trkpt>
<trkpt lat="58.865527" lon="05.838041"><ele>38</ele><time>2012-03-31T11:56:02Z</time><cmt>0.3 kmh</cmt></trkpt>
<trkpt lat="58.865526" lon="05.838042"><ele>38</ele><time>2012-03-31T11:56:03Z</time><cmt>0.1 kmh</cmt></trkpt>
<trkpt lat="58.865526" lon="05.838044"><ele>39</ele><time>2012-03-31T11:56:04Z</time><cmt>0.0 kmh</cmt></trkpt>
<trkpt lat="58.865526" lon="05.838045"><ele>39</ele><time>2012-03-31T11:56:05Z</time><cmt>0.2 kmh</cmt></trkpt>
<trkpt lat="58.865526" lon="05.838047"><ele>39</ele><time>2012-03-31T11:56:06Z</time><cmt>0.4 kmh</cmt></trkpt>
<trkpt lat="58.865526" lon="05.838048"><ele>39</ele><time>2012-03-31T11:56:07Z</time><cmt>0.4 kmh</cmt></trkpt>
<trkpt lat="58.865526" lon="05.838050"><ele>39</ele><time>2012-03-31T11:56:08Z</time><cmt>0.4 kmh</cmt></trkpt>
<trkpt lat="58.865526" lon="05.838051"><ele>39</ele><time>2012-03-31T11:56:09Z</time><cmt>0.1 kmh</cmt></trkpt>
<trkpt lat="58.865526" lon="05.838053"><ele>40</ele><time>2012-03-31T11:56:10Z</time><cmt>0.0 kmh</cmt></trkpt>
<trkpt lat="58.865526" lon="05.838055"><ele>40</ele><time>2012-03-31T11:56:11Z</time><cmt>0.3 kmh</cmt></trkpt>
<trkpt lat="58.865526" lon="05.838057"><ele>40</ele><time>2012-03-31T11:56:12Z</time><cmt>0.5 kmh</cmt></trkpt>
<trkpt lat="58.865526" lon="05.838059"><ele>40</ele><time>2012-03-31T11:56:13Z</time><cmt>0.3 kmh</cmt></trkpt>
<trkpt lat="58.865526" lon="05.838061"><ele>40</ele><time>2012-03-31T11:56:14Z</time><cmt>0.2 kmh</cmt></trkpt>
<trkpt lat="58.865527" lon="05.838063"><ele>40</ele><time>2012-03-31T11:56:15Z</time><cmt>0.4 kmh</cmt></trkpt>
<trkpt lat="58.865527" lon="05.838065"><ele>40</ele><time>2012-03-31T11:56:16Z</time><cmt>0.4 kmh</cmt></trkpt>
<trkpt lat="58.865527" lon="05.838067"><ele>40</ele><time>2012-03-31T11:56:17Z</time><cmt>0.4 kmh</cmt></trkpt>
<trkpt lat="58.865528" lon="05.838070"><ele>40</ele><time>2012-03-31T11:56:18Z</time><cmt>0.4 kmh</cmt></trkpt>
<trkpt lat="58.865528" lon="05.838072"><ele>40</ele><time>2012-03-31T11:56:19Z</time><cmt>0.5 kmh</cmt></trkpt>
<trkpt lat="58.865528" lon="05.838074"><ele>40</ele><time>2012-03-31T11:56:20Z</time><cmt>0.3 kmh</cmt></trkpt>
<trkpt lat="58.865528" lon="05.838076"><ele>40</ele><time>2012-03-31T11:56:21Z</time><cmt>0.1 kmh</cmt></trkpt>
<trkpt lat="58.865529" lon="05.838078"><ele>40</ele><time>2012-03-31T11:56:22Z</time><cmt>0.1 kmh</cmt></trkpt>
<trkpt lat="58.865529" lon="05.838079"><ele>39</ele><time>2012-03-31T11:56:23Z</time><cmt>0.0 kmh</cmt></trkpt>
<trkpt lat="58.865529" lon="05.838081"><ele>39</ele><time>2012-03-31T11:56:24Z</time><cmt>0.3 kmh</cmt></trkpt>
<trkpt lat="58.865529" lon="05.838083"><ele>39</ele><time>2012-03-31T11:56:25Z</time><cmt>0.5 kmh</cmt></trkpt>
<trkpt lat="58.865530" lon="05.838085"><ele>39</ele><time>2012-03-31T11:56:26Z</time><cmt>0.5 kmh</cmt></trkpt>
<trkpt lat="58.865530" lon="05.838086"><ele>39</ele><time>2012-03-31T11:56:27Z</time><cmt>0.4 kmh</cmt></trkpt>
<trkpt lat="58.865530" lon="05.838088"><ele>39</ele><time>2012-03-31T11:56:28Z</time><cmt>0.4 kmh</cmt></trkpt>
<trkpt lat="58.865530" lon="05.838090"><ele>39</ele><time>2012-03-31T11:56:29Z</time><cmt>0.4 kmh</cmt></trkpt>
<trkpt lat="58.865530" lon="05.838091"><ele>39</ele><time>2012-03-31T11:56:30Z</time><cmt>0.4 kmh</cmt></trkpt>
<trkpt lat="58.865531" lon="05.838094"><ele>39</ele><time>2012-03-31T11:56:31Z</time><cmt>0.4 kmh</cmt></trkpt>
<trkpt lat="58.865531" lon="05.838097"><ele>38</ele><time>2012-03-31T11:56:32Z</time><cmt>0.5 kmh</cmt></trkpt>
<trkpt lat="58.865532" lon="05.838101"><ele>38</ele><time>2012-03-31T11:56:33Z</time><cmt>0.5 kmh</cmt></trkpt>
<trkpt lat="58.865532" lon="05.838103"><ele>38</ele><time>2012-03-31T11:56:34Z</time><cmt>0.6 kmh</cmt></trkpt>
<trkpt lat="58.865533" lon="05.838106"><ele>38</ele><time>2012-03-31T11:56:35Z</time><cmt>0.6 kmh</cmt></trkpt>
<trkpt lat="58.865533" lon="05.838108"><ele>38</ele><time>2012-03-31T11:56:36Z</time><cmt>0.5 kmh</cmt></trkpt>
<trkpt lat="58.865533" lon="05.838106"><ele>38</ele><time>2012-03-31T11:56:37Z</time><cmt>0.4 kmh</cmt></trkpt>
<trkpt lat="58.865532" lon="05.838103"><ele>38</ele><time>2012-03-31T11:56:38Z</time><cmt>0.6 kmh</cmt></trkpt>
<trkpt lat="58.865531" lon="05.838100"><ele>38</ele><time>2012-03-31T11:56:39Z</time><cmt>0.9 kmh</cmt></trkpt>
<trkpt lat="58.865531" lon="05.838098"><ele>38</ele><time>2012-03-31T11:56:40Z</time><cmt>0.6 kmh</cmt></trkpt>
<trkpt lat="58.865530" lon="05.838094"><ele>38</ele><time>2012-03-31T11:56:41Z</time><cmt>0.6 kmh</cmt></trkpt>
<trkpt lat="58.865529" lon="05.838091"><ele>38</ele><time>2012-03-31T11:56:42Z</time><cmt>0.8 kmh</cmt></trkpt>
<trkpt lat="58.865529" lon="05.838089"><ele>38</ele><time>2012-03-31T11:56:43Z</time><cmt>0.6 kmh</cmt></trkpt>
<trkpt lat="58.865529" lon="05.838088"><ele>38</ele><time>2012-03-31T11:56:44Z</time><cmt>0.3 kmh</cmt></trkpt>
<trkpt lat="58.865529" lon="05.838088"><ele>38</ele><time>2012-03-31T11:56:45Z</time><cmt>0.0 kmh</cmt></trkpt>
<trkpt lat="58.865528" lon="05.838088"><ele>38</ele><time>2012-03-31T11:56:46Z</time><cmt>0.0 kmh</cmt></trkpt>
<trkpt lat="58.865528" lon="05.838088"><ele>38</ele><time>2012-03-31T11:56:47Z</time><cmt>0.0 kmh</cmt></trkpt>
<trkpt lat="58.865528" lon="05.838087"><ele>38</ele><time>2012-03-31T11:56:48Z</time><cmt>0.0 kmh</cmt></trkpt>
<trkpt lat="58.865528" lon="05.838086"><ele>38</ele><time>2012-03-31T11:56:49Z</time><cmt>0.0 kmh</cmt></trkpt>
<trkpt lat="58.865528" lon="05.838087"><ele>38</ele><time>2012-03-31T11:56:50Z</time><cmt>0.0 kmh</cmt></trkpt>
<trkpt lat="58.865528" lon="05.838088"><ele>38</ele><time>2012-03-31T11:56:51Z</time><cmt>0.3 kmh</cmt></trkpt>
<trkpt lat="58.865528" lon="05.838089"><ele>38</ele><time>2012-03-31T11:56:52Z</time><cmt>0.2 kmh</cmt></trkpt>
<trkpt lat="58.865528" lon="05.838089"><ele>38</ele><time>2012-03-31T11:56:53Z</time><cmt>0.0 kmh</cmt></trkpt>
<trkpt lat="58.865528" lon="05.838088"><ele>38</ele><time>2012-03-31T11:56:54Z</time><cmt>0.0 kmh</cmt></trkpt>
<trkpt lat="58.865528" lon="05.838088"><ele>39</ele><time>2012-03-31T11:56:55Z</time><cmt>0.0 kmh</cmt></trkpt>
<trkpt lat="58.865528" lon="05.838087"><ele>39</ele><time>2012-03-31T11:56:56Z</time><cmt>0.3 kmh</cmt></trkpt>
<trkpt lat="58.865527" lon="05.838085"><ele>39</ele><time>2012-03-31T11:56:57Z</time><cmt>0.6 kmh</cmt></trkpt>
<trkpt lat="58.865527" lon="05.838083"><ele>39</ele><time>2012-03-31T11:56:58Z</time><cmt>0.4 kmh</cmt></trkpt>
<trkpt lat="58.865527" lon="05.838082"><ele>39</ele><time>2012-03-31T11:56:59Z</time><cmt>0.3 kmh</cmt></trkpt>
<trkpt lat="58.865527" lon="05.838080"><ele>39</ele><time>2012-03-31T11:57:00Z</time><cmt>0.4 kmh</cmt></trkpt>
<trkpt lat="58.865526" lon="05.838079"><ele>39</ele><time>2012-03-31T11:57:01Z</time><cmt>0.4 kmh</cmt></trkpt>
<trkpt lat="58.865526" lon="05.838077"><ele>39</ele><time>2012-03-31T11:57:02Z</time><cmt>0.4 kmh</cmt></trkpt>
<trkpt lat="58.865526" lon="05.838075"><ele>39</ele><time>2012-03-31T11:57:03Z</time><cmt>0.5 kmh</cmt></trkpt>
<trkpt lat="58.865525" lon="05.838072"><ele>40</ele><time>2012-03-31T11:57:04Z</time><cmt>0.4 kmh</cmt></trkpt>
<trkpt lat="58.865525" lon="05.838070"><ele>40</ele><time>2012-03-31T11:57:05Z</time><cmt>0.4 kmh</cmt></trkpt>
<trkpt lat="58.865524" lon="05.838069"><ele>40</ele><time>2012-03-31T11:57:06Z</time><cmt>0.3 kmh</cmt></trkpt>
<trkpt lat="58.865524" lon="05.838067"><ele>40</ele><time>2012-03-31T11:57:07Z</time><cmt>0.0 kmh</cmt></trkpt>
<trkpt lat="58.865524" lon="05.838066"><ele>40</ele><time>2012-03-31T11:57:08Z</time><cmt>0.0 kmh</cmt></trkpt>
<trkpt lat="58.865524" lon="05.838065"><ele>41</ele><time>2012-03-31T11:57:09Z</time><cmt>0.0 kmh</cmt></trkpt>
<trkpt lat="58.865523" lon="05.838064"><ele>41</ele><time>2012-03-31T11:57:10Z</time><cmt>0.0 kmh</cmt></trkpt>
<trkpt lat="58.865523" lon="05.838064"><ele>41</ele><time>2012-03-31T11:57:11Z</time><cmt>0.0 kmh</cmt></trkpt>
<trkpt lat="58.865523" lon="05.838064"><ele>41</ele><time>2012-03-31T11:57:12Z</time><cmt>0.0 kmh</cmt></trkpt>
<trkpt lat="58.865524" lon="05.838065"><ele>41</ele><time>2012-03-31T11:57:14Z</time><cmt>0.0 kmh</cmt></trkpt>
<trkpt lat="58.865524" lon="05.838065"><ele>41</ele><time>2012-03-31T11:57:15Z</time><cmt>0.0 kmh</cmt></trkpt>
<trkpt lat="58.865523" lon="05.838065"><ele>41</ele><time>2012-03-31T11:57:17Z</time><cmt>0.0 kmh</cmt></trkpt>
<trkpt lat="58.865523" lon="05.838063"><ele>42</ele><time>2012-03-31T11:57:18Z</time><cmt>0.1 kmh</cmt></trkpt>
<trkpt lat="58.865523" lon="05.838062"><ele>42</ele><time>2012-03-31T11:57:19Z</time><cmt>0.4 kmh</cmt></trkpt>
<trkpt lat="58.865522" lon="05.838061"><ele>42</ele><time>2012-03-31T11:57:20Z</time><cmt>0.3 kmh</cmt></trkpt>
<trkpt lat="58.865523" lon="05.838062"><ele>42</ele><time>2012-03-31T11:57:21Z</time><cmt>0.0 kmh</cmt></trkpt>
<trkpt lat="58.865523" lon="05.838062"><ele>42</ele><time>2012-03-31T11:57:22Z</time><cmt>0.0 kmh</cmt></trkpt>
<trkpt lat="58.865523" lon="05.838063"><ele>42</ele><time>2012-03-31T11:57:23Z</time><cmt>0.0 kmh</cmt></trkpt>
<trkpt lat="58.865523" lon="05.838064"><ele>42</ele><time>2012-03-31T11:57:24Z</time><cmt>0.0 kmh</cmt></trkpt>
<trkpt lat="58.865523" lon="05.838063"><ele>42</ele><time>2012-03-31T11:57:25Z</time><cmt>0.0 kmh</cmt></trkpt>
<trkpt lat="58.865523" lon="05.838063"><ele>43</ele><time>2012-03-31T11:57:26Z</time><cmt>0.0 kmh</cmt></trkpt>
<trkpt lat="58.865523" lon="05.838064"><ele>43</ele><time>2012-03-31T11:57:27Z</time><cmt>0.0 kmh</cmt></trkpt>
<trkpt lat="58.865523" lon="05.838063"><ele>43</ele><time>2012-03-31T11:57:28Z</time><cmt>0.0 kmh</cmt></trkpt>
<trkpt lat="58.865523" lon="05.838062"><ele>43</ele><time>2012-03-31T11:57:29Z</time><cmt>0.0 kmh</cmt></trkpt>
<trkpt lat="58.865523" lon="05.838061"><ele>43</ele><time>2012-03-31T11:57:30Z</time><cmt>0.0 kmh</cmt></trkpt>
<trkpt lat="58.865523" lon="05.838062"><ele>43</ele><time>2012-03-31T11:57:31Z</time><cmt>0.0 kmh</cmt></trkpt>
<trkpt lat="58.865522" lon="05.838060"><ele>43</ele><time>2012-03-31T11:57:32Z</time><cmt>0.3 kmh</cmt></trkpt>
<trkpt lat="58.865522" lon="05.838056"><ele>43</ele><time>2012-03-31T11:57:33Z</time><cmt>0.6 kmh</cmt></trkpt>
<trkpt lat="58.865521" lon="05.838054"><ele>43</ele><time>2012-03-31T11:57:34Z</time><cmt>0.6 kmh</cmt></trkpt>
<trkpt lat="58.865521" lon="05.838056"><ele>43</ele><time>2012-03-31T11:57:35Z</time><cmt>0.3 kmh</cmt></trkpt>
<trkpt lat="58.865522" lon="05.838059"><ele>43</ele><time>2012-03-31T11:57:36Z</time><cmt>0.4 kmh</cmt></trkpt>
<trkpt lat="58.865523" lon="05.838064"><ele>43</ele><time>2012-03-31T11:57:37Z</time><cmt>0.9 kmh</cmt></trkpt>
<trkpt lat="58.865523" lon="05.838066"><ele>43</ele><time>2012-03-31T11:57:38Z</time><cmt>0.8 kmh</cmt></trkpt>
<trkpt lat="58.865524" lon="05.838069"><ele>43</ele><time>2012-03-31T11:57:39Z</time><cmt>0.6 kmh</cmt></trkpt>
<trkpt lat="58.865525" lon="05.838072"><ele>43</ele><time>2012-03-31T11:57:40Z</time><cmt>0.7 kmh</cmt></trkpt>
<trkpt lat="58.865525" lon="05.838076"><ele>43</ele><time>2012-03-31T11:57:41Z</time><cmt>0.6 kmh</cmt></trkpt>
<trkpt lat="58.865526" lon="05.838079"><ele>43</ele><time>2012-03-31T11:57:42Z</time><cmt>0.7 kmh</cmt></trkpt>
<trkpt lat="58.865526" lon="05.838081"><ele>42</ele><time>2012-03-31T11:57:43Z</time><cmt>0.6 kmh</cmt></trkpt>
<trkpt lat="58.865527" lon="05.838082"><ele>42</ele><time>2012-03-31T11:57:44Z</time><cmt>0.4 kmh</cmt></trkpt>
<trkpt lat="58.865527" lon="05.838083"><ele>42</ele><time>2012-03-31T11:57:45Z</time><cmt>0.4 kmh</cmt></trkpt>
<trkpt lat="58.865527" lon="05.838085"><ele>42</ele><time>2012-03-31T11:57:46Z</time><cmt>0.4 kmh</cmt></trkpt>
<trkpt lat="58.865527" lon="05.838086"><ele>42</ele><time>2012-03-31T11:57:47Z</time><cmt>0.4 kmh</cmt></trkpt>
<trkpt lat="58.865528" lon="05.838088"><ele>42</ele><time>2012-03-31T11:57:48Z</time><cmt>0.1 kmh</cmt></trkpt>
<trkpt lat="58.865527" lon="05.838088"><ele>41</ele><time>2012-03-31T11:57:49Z</time><cmt>0.0 kmh</cmt></trkpt>
<trkpt lat="58.865527" lon="05.838088"><ele>41</ele><time>2012-03-31T11:57:50Z</time><cmt>0.0 kmh</cmt></trkpt>
<trkpt lat="58.865528" lon="05.838090"><ele>41</ele><time>2012-03-31T11:57:51Z</time><cmt>0.3 kmh</cmt></trkpt>
<trkpt lat="58.865528" lon="05.838092"><ele>41</ele><time>2012-03-31T11:57:52Z</time><cmt>0.5 kmh</cmt></trkpt>
<trkpt lat="58.865528" lon="05.838094"><ele>41</ele><time>2012-03-31T11:57:53Z</time><cmt>0.3 kmh</cmt></trkpt>
<trkpt lat="58.865529" lon="05.838095"><ele>40</ele><time>2012-03-31T11:57:54Z</time><cmt>0.0 kmh</cmt></trkpt>
<trkpt lat="58.865529" lon="05.838097"><ele>40</ele><time>2012-03-31T11:57:55Z</time><cmt>0.0 kmh</cmt></trkpt>
<trkpt lat="58.865529" lon="05.838099"><ele>40</ele><time>2012-03-31T11:57:56Z</time><cmt>0.3 kmh</cmt></trkpt>
<trkpt lat="58.865529" lon="05.838101"><ele>40</ele><time>2012-03-31T11:57:57Z</time><cmt>0.5 kmh</cmt></trkpt>
<trkpt lat="58.865530" lon="05.838102"><ele>39</ele><time>2012-03-31T11:57:58Z</time><cmt>0.4 kmh</cmt></trkpt>
<trkpt lat="58.865530" lon="05.838103"><ele>39</ele><time>2012-03-31T11:57:59Z</time><cmt>0.2 kmh</cmt></trkpt>
<trkpt lat="58.865530" lon="05.838105"><ele>39</ele><time>2012-03-31T11:58:00Z</time><cmt>0.0 kmh</cmt></trkpt>
<trkpt lat="58.865530" lon="05.838106"><ele>39</ele><time>2012-03-31T11:58:01Z</time><cmt>0.0 kmh</cmt></trkpt>
<trkpt lat="58.865531" lon="05.838107"><ele>39</ele><time>2012-03-31T11:58:02Z</time><cmt>0.0 kmh</cmt></trkpt>
<trkpt lat="58.865531" lon="05.838108"><ele>38</ele><time>2012-03-31T11:58:03Z</time><cmt>0.0 kmh</cmt></trkpt>
<trkpt lat="58.865531" lon="05.838109"><ele>38</ele><time>2012-03-31T11:58:04Z</time><cmt>0.0 kmh</cmt></trkpt>
<trkpt lat="58.865531" lon="05.838110"><ele>38</ele><time>2012-03-31T11:58:05Z</time><cmt>0.2 kmh</cmt></trkpt>
<trkpt lat="58.865531" lon="05.838111"><ele>38</ele><time>2012-03-31T11:58:06Z</time><cmt>0.4 kmh</cmt></trkpt>
<trkpt lat="58.865531" lon="05.838111"><ele>38</ele><time>2012-03-31T11:58:07Z</time><cmt>0.4 kmh</cmt></trkpt>
<trkpt lat="58.865531" lon="05.838110"><ele>37</ele><time>2012-03-31T11:58:09Z</time><cmt>0.0 kmh</cmt></trkpt>
<trkpt lat="58.865531" lon="05.838109"><ele>37</ele><time>2012-03-31T11:58:10Z</time><cmt>0.0 kmh</cmt></trkpt>
<trkpt lat="58.865530" lon="05.838109"><ele>37</ele><time>2012-03-31T11:58:11Z</time><cmt>0.0 kmh</cmt></trkpt>
<trkpt lat="58.865530" lon="05.838108"><ele>37</ele><time>2012-03-31T11:58:12Z</time><cmt>0.0 kmh</cmt></trkpt>
<trkpt lat="58.865530" lon="05.838107"><ele>37</ele><time>2012-03-31T11:58:13Z</time><cmt>0.0 kmh</cmt></trkpt>
<trkpt lat="58.865530" lon="05.838106"><ele>37</ele><time>2012-03-31T11:58:14Z</time><cmt>0.0 kmh</cmt></trkpt>
<trkpt lat="58.865529" lon="05.838105"><ele>36</ele><time>2012-03-31T11:58:15Z</time><cmt>0.0 kmh</cmt></trkpt>
<trkpt lat="58.865529" lon="05.838105"><ele>36</ele><time>2012-03-31T11:58:16Z</time><cmt>0.0 kmh</cmt></trkpt>
<trkpt lat="58.865529" lon="05.838104"><ele>36</ele><time>2012-03-31T11:58:17Z</time><cmt>0.0 kmh</cmt></trkpt>
<trkpt lat="58.865529" lon="05.838104"><ele>36</ele><time>2012-03-31T11:58:18Z</time><cmt>0.0 kmh</cmt></trkpt>
<trkpt lat="58.865529" lon="05.838105"><ele>36</ele><time>2012-03-31T11:58:19Z</time><cmt>0.0 kmh</cmt></trkpt>
<trkpt lat="58.865529" lon="05.838105"><ele>36</ele><time>2012-03-31T11:58:20Z</time><cmt>0.0 kmh</cmt></trkpt>
<trkpt lat="58.865530" lon="05.838106"><ele>36</ele><time>2012-03-31T11:58:21Z</time><cmt>0.0 kmh</cmt></trkpt>
<trkpt lat="58.865530" lon="05.838107"><ele>36</ele><time>2012-03-31T11:58:22Z</time><cmt>0.0 kmh</cmt></trkpt>
<trkpt lat="58.865530" lon="05.838108"><ele>36</ele><time>2012-03-31T11:58:23Z</time><cmt>0.0 kmh</cmt></trkpt>
<trkpt lat="58.865530" lon="05.838109"><ele>36</ele><time>2012-03-31T11:58:24Z</time><cmt>0.0 kmh</cmt></trkpt>
<trkpt lat="58.865531" lon="05.838110"><ele>35</ele><time>2012-03-31T11:58:25Z</time><cmt>0.1 kmh</cmt></trkpt>
<trkpt lat="58.865531" lon="05.838111"><ele>35</ele><time>2012-03-31T11:58:26Z</time><cmt>0.4 kmh</cmt></trkpt>
<trkpt lat="58.865532" lon="05.838112"><ele>35</ele><time>2012-03-31T11:58:27Z</time><cmt>0.3 kmh</cmt></trkpt>
<trkpt lat="58.865532" lon="05.838113"><ele>35</ele><time>2012-03-31T11:58:28Z</time><cmt>0.0 kmh</cmt></trkpt>
<trkpt lat="58.865532" lon="05.838114"><ele>35</ele><time>2012-03-31T11:58:29Z</time><cmt>0.0 kmh</cmt></trkpt>
<trkpt lat="58.865532" lon="05.838115"><ele>35</ele><time>2012-03-31T11:58:30Z</time><cmt>0.0 kmh</cmt></trkpt>
<trkpt lat="58.865533" lon="05.838115"><ele>35</ele><time>2012-03-31T11:58:31Z</time><cmt>0.0 kmh</cmt></trkpt>
<trkpt lat="58.865533" lon="05.838116"><ele>35</ele><time>2012-03-31T11:58:32Z</time><cmt>0.0 kmh</cmt></trkpt>
<trkpt lat="58.865533" lon="05.838117"><ele>35</ele><time>2012-03-31T11:58:33Z</time><cmt>0.0 kmh</cmt></trkpt>
<trkpt lat="58.865533" lon="05.838118"><ele>35</ele><time>2012-03-31T11:58:34Z</time><cmt>0.0 kmh</cmt></trkpt>
<trkpt lat="58.865534" lon="05.838119"><ele>35</ele><time>2012-03-31T11:58:35Z</time><cmt>0.0 kmh</cmt></trkpt>
<trkpt lat="58.865534" lon="05.838119"><ele>34</ele><time>2012-03-31T11:58:36Z</time><cmt>0.2 kmh</cmt></trkpt>
<trkpt lat="58.865534" lon="05.838120"><ele>34</ele><time>2012-03-31T11:58:37Z</time><cmt>0.3 kmh</cmt></trkpt>
<trkpt lat="58.865534" lon="05.838121"><ele>34</ele><time>2012-03-31T11:58:38Z</time><cmt>0.1 kmh</cmt></trkpt>
<trkpt lat="58.865535" lon="05.838122"><ele>34</ele><time>2012-03-31T11:58:39Z</time><cmt>0.0 kmh</cmt></trkpt>
<trkpt lat="58.865535" lon="05.838123"><ele>34</ele><time>2012-03-31T11:58:40Z</time><cmt>0.0 kmh</cmt></trkpt>
<trkpt lat="58.865535" lon="05.838124"><ele>34</ele><time>2012-03-31T11:58:41Z</time><cmt>0.0 kmh</cmt></trkpt>
<trkpt lat="58.865535" lon="05.838125"><ele>34</ele><time>2012-03-31T11:58:42Z</time><cmt>0.0 kmh</cmt></trkpt>
<trkpt lat="58.865535" lon="05.838126"><ele>34</ele><time>2012-03-31T11:58:43Z</time><cmt>0.0 kmh</cmt></trkpt>
<trkpt lat="58.865536" lon="05.838127"><ele>34</ele><time>2012-03-31T11:58:44Z</time><cmt>0.1 kmh</cmt></trkpt>
<trkpt lat="58.865536" lon="05.838128"><ele>34</ele><time>2012-03-31T11:58:45Z</time><cmt>0.2 kmh</cmt></trkpt>
<trkpt lat="58.865536" lon="05.838129"><ele>34</ele><time>2012-03-31T11:58:46Z</time><cmt>0.0 kmh</cmt></trkpt>
<trkpt lat="58.865536" lon="05.838130"><ele>34</ele><time>2012-03-31T11:58:47Z</time><cmt>0.2 kmh</cmt></trkpt>
<trkpt lat="58.865537" lon="05.838131"><ele>34</ele><time>2012-03-31T11:58:48Z</time><cmt>0.2 kmh</cmt></trkpt>
<trkpt lat="58.865537" lon="05.838133"><ele>34</ele><time>2012-03-31T11:58:49Z</time><cmt>0.0 kmh</cmt></trkpt>
<trkpt lat="58.865537" lon="05.838134"><ele>34</ele><time>2012-03-31T11:58:50Z</time><cmt>0.0 kmh</cmt></trkpt>
<trkpt lat="58.865537" lon="05.838135"><ele>33</ele><time>2012-03-31T11:58:51Z</time><cmt>0.0 kmh</cmt></trkpt>
<trkpt lat="58.865537" lon="05.838136"><ele>33</ele><time>2012-03-31T11:58:52Z</time><cmt>0.0 kmh</cmt></trkpt>
<trkpt lat="58.865537" lon="05.838137"><ele>33</ele><time>2012-03-31T11:58:53Z</time><cmt>0.0 kmh</cmt></trkpt>
<trkpt lat="58.865538" lon="05.838138"><ele>33</ele><time>2012-03-31T11:58:54Z</time><cmt>0.0 kmh</cmt></trkpt>
<trkpt lat="58.865538" lon="05.838139"><ele>33</ele><time>2012-03-31T11:58:55Z</time><cmt>0.0 kmh</cmt></trkpt>
<trkpt lat="58.865538" lon="05.838140"><ele>33</ele><time>2012-03-31T11:58:56Z</time><cmt>0.0 kmh</cmt></trkpt>
<trkpt lat="58.865538" lon="05.838140"><ele>33</ele><time>2012-03-31T11:58:57Z</time><cmt>0.0 kmh</cmt></trkpt>
<trkpt lat="58.865538" lon="05.838141"><ele>33</ele><time>2012-03-31T11:58:58Z</time><cmt>0.0 kmh</cmt></trkpt>
<trkpt lat="58.865538" lon="05.838142"><ele>33</ele><time>2012-03-31T11:58:59Z</time><cmt>0.0 kmh</cmt></trkpt>
<trkpt lat="58.865538" lon="05.838143"><ele>33</ele><time>2012-03-31T11:59:00Z</time><cmt>0.0 kmh</cmt></trkpt>
<trkpt lat="58.865539" lon="05.838144"><ele>33</ele><time>2012-03-31T11:59:01Z</time><cmt>0.2 kmh</cmt></trkpt>
<trkpt lat="58.865539" lon="05.838145"><ele>33</ele><time>2012-03-31T11:59:02Z</time><cmt>0.1 kmh</cmt></trkpt>
<trkpt lat="58.865539" lon="05.838146"><ele>33</ele><time>2012-03-31T11:59:03Z</time><cmt>0.0 kmh</cmt></trkpt>
<trkpt lat="58.865539" lon="05.838146"><ele>32</ele><time>2012-03-31T11:59:04Z</time><cmt>0.0 kmh</cmt></trkpt>
<trkpt lat="58.865539" lon="05.838147"><ele>32</ele><time>2012-03-31T11:59:05Z</time><cmt>0.2 kmh</cmt></trkpt>
<trkpt lat="58.865539" lon="05.838148"><ele>32</ele><time>2012-03-31T11:59:06Z</time><cmt>0.2 kmh</cmt></trkpt>
<trkpt lat="58.865539" lon="05.838149"><ele>32</ele><time>2012-03-31T11:59:07Z</time><cmt>0.0 kmh</cmt></trkpt>
<trkpt lat="58.865540" lon="05.838150"><ele>32</ele><time>2012-03-31T11:59:08Z</time><cmt>0.0 kmh</cmt></trkpt>
<trkpt lat="58.865540" lon="05.838150"><ele>32</ele><time>2012-03-31T11:59:09Z</time><cmt>0.0 kmh</cmt></trkpt>
<trkpt lat="58.865540" lon="05.838151"><ele>32</ele><time>2012-03-31T11:59:10Z</time><cmt>0.0 kmh</cmt></trkpt>
<trkpt lat="58.865540" lon="05.838152"><ele>32</ele><time>2012-03-31T11:59:11Z</time><cmt>0.0 kmh</cmt></trkpt>
<trkpt lat="58.865540" lon="05.838152"><ele>32</ele><time>2012-03-31T11:59:12Z</time><cmt>0.0 kmh</cmt></trkpt>
<trkpt lat="58.865540" lon="05.838153"><ele>32</ele><time>2012-03-31T11:59:13Z</time><cmt>0.0 kmh</cmt></trkpt>
<trkpt lat="58.865540" lon="05.838154"><ele>32</ele><time>2012-03-31T11:59:14Z</time><cmt>0.0 kmh</cmt></trkpt>
<trkpt lat="58.865540" lon="05.838154"><ele>32</ele><time>2012-03-31T11:59:15Z</time><cmt>0.0 kmh</cmt></trkpt>
<trkpt lat="58.865540" lon="05.838155"><ele>32</ele><time>2012-03-31T11:59:16Z</time><cmt>0.2 kmh</cmt></trkpt>
<trkpt lat="58.865540" lon="05.838156"><ele>32</ele><time>2012-03-31T11:59:17Z</time><cmt>0.2 kmh</cmt></trkpt>
<trkpt lat="58.865541" lon="05.838156"><ele>31</ele><time>2012-03-31T11:59:18Z</time><cmt>0.0 kmh</cmt></trkpt>
<trkpt lat="58.865541" lon="05.838157"><ele>31</ele><time>2012-03-31T11:59:19Z</time><cmt>0.0 kmh</cmt></trkpt>
<trkpt lat="58.865541" lon="05.838158"><ele>31</ele><time>2012-03-31T11:59:20Z</time><cmt>0.0 kmh</cmt></trkpt>
<trkpt lat="58.865541" lon="05.838158"><ele>31</ele><time>2012-03-31T11:59:21Z</time><cmt>0.0 kmh</cmt></trkpt>
<trkpt lat="58.865541" lon="05.838159"><ele>31</ele><time>2012-03-31T11:59:22Z</time><cmt>0.0 kmh</cmt></trkpt>
<trkpt lat="58.865541" lon="05.838159"><ele>31</ele><time>2012-03-31T11:59:23Z</time><cmt>0.0 kmh</cmt></trkpt>
<trkpt lat="58.865541" lon="05.838160"><ele>31</ele><time>2012-03-31T11:59:24Z</time><cmt>0.0 kmh</cmt></trkpt>
<trkpt lat="58.865541" lon="05.838160"><ele>31</ele><time>2012-03-31T11:59:25Z</time><cmt>0.0 kmh</cmt></trkpt>
<trkpt lat="58.865541" lon="05.838161"><ele>31</ele><time>2012-03-31T11:59:26Z</time><cmt>0.0 kmh</cmt></trkpt>
<trkpt lat="58.865541" lon="05.838161"><ele>31</ele><time>2012-03-31T11:59:27Z</time><cmt>0.0 kmh</cmt></trkpt>
<trkpt lat="58.865541" lon="05.838161"><ele>31</ele><time>2012-03-31T11:59:28Z</time><cmt>0.0 kmh</cmt></trkpt>
<trkpt lat="58.865541" lon="05.838162"><ele>31</ele><time>2012-03-31T11:59:29Z</time><cmt>0.0 kmh</cmt></trkpt>
<trkpt lat="58.865541" lon="05.838162"><ele>31</ele><time>2012-03-31T11:59:30Z</time><cmt>0.0 kmh</cmt></trkpt>
<trkpt lat="58.865541" lon="05.838163"><ele>31</ele><time>2012-03-31T11:59:31Z</time><cmt>0.0 kmh</cmt></trkpt>
<trkpt lat="58.865541" lon="05.838163"><ele>31</ele><time>2012-03-31T11:59:32Z</time><cmt>0.0 kmh</cmt></trkpt>
<trkpt lat="58.865541" lon="05.838163"><ele>31</ele><time>2012-03-31T11:59:33Z</time><cmt>0.0 kmh</cmt></trkpt>
<trkpt lat="58.865541" lon="05.838164"><ele>31</ele><time>2012-03-31T11:59:34Z</time><cmt>0.0 kmh</cmt></trkpt>
<trkpt lat="58.865541" lon="05.838164"><ele>31</ele><time>2012-03-31T11:59:35Z</time><cmt>0.0 kmh</cmt></trkpt>
<trkpt lat="58.865541" lon="05.838164"><ele>31</ele><time>2012-03-31T11:59:36Z</time><cmt>0.0 kmh</cmt></trkpt>
<trkpt lat="58.865541" lon="05.838165"><ele>31</ele><time>2012-03-31T11:59:37Z</time><cmt>0.0 kmh</cmt></trkpt>
<trkpt lat="58.865541" lon="05.838165"><ele>31</ele><time>2012-03-31T11:59:38Z</time><cmt>0.0 kmh</cmt></trkpt>
<trkpt lat="58.865541" lon="05.838165"><ele>31</ele><time>2012-03-31T11:59:39Z</time><cmt>0.0 kmh</cmt></trkpt>
<trkpt lat="58.865541" lon="05.838165"><ele>31</ele><time>2012-03-31T11:59:40Z</time><cmt>0.0 kmh</cmt></trkpt>
<trkpt lat="58.865541" lon="05.838165"><ele>31</ele><time>2012-03-31T11:59:41Z</time><cmt>0.0 kmh</cmt></trkpt>
<trkpt lat="58.865541" lon="05.838165"><ele>30</ele><time>2012-03-31T11:59:42Z</time><cmt>0.0 kmh</cmt></trkpt>
<trkpt lat="58.865541" lon="05.838165"><ele>30</ele><time>2012-03-31T11:59:43Z</time><cmt>0.0 kmh</cmt></trkpt>
<trkpt lat="58.865541" lon="05.838166"><ele>30</ele><time>2012-03-31T11:59:44Z</time><cmt>0.0 kmh</cmt></trkpt>
<trkpt lat="58.865541" lon="05.838166"><ele>30</ele><time>2012-03-31T11:59:45Z</time><cmt>0.0 kmh</cmt></trkpt>
<trkpt lat="58.865541" lon="05.838166"><ele>30</ele><time>2012-03-31T11:59:46Z</time><cmt>0.0 kmh</cmt></trkpt>
<trkpt lat="58.865541" lon="05.838166"><ele>30</ele><time>2012-03-31T11:59:47Z</time><cmt>0.0 kmh</cmt></trkpt>
<trkpt lat="58.865541" lon="05.838166"><ele>30</ele><time>2012-03-31T11:59:48Z</time><cmt>0.2 kmh</cmt></trkpt>
<trkpt lat="58.865541" lon="05.838167"><ele>30</ele><time>2012-03-31T11:59:49Z</time><cmt>0.2 kmh</cmt></trkpt>
<trkpt lat="58.865541" lon="05.838169"><ele>30</ele><time>2012-03-31T11:59:50Z</time><cmt>0.2 kmh</cmt></trkpt>
<trkpt lat="58.865542" lon="05.838171"><ele>30</ele><time>2012-03-31T11:59:51Z</time><cmt>0.4 kmh</cmt></trkpt>
<trkpt lat="58.865542" lon="05.838172"><ele>30</ele><time>2012-03-31T11:59:52Z</time><cmt>0.1 kmh</cmt></trkpt>
<trkpt lat="58.865542" lon="05.838172"><ele>30</ele><time>2012-03-31T11:59:53Z</time><cmt>0.0 kmh</cmt></trkpt>
<trkpt lat="58.865542" lon="05.838173"><ele>30</ele><time>2012-03-31T11:59:54Z</time><cmt>0.0 kmh</cmt></trkpt>
<trkpt lat="58.865542" lon="05.838173"><ele>30</ele><time>2012-03-31T11:59:55Z</time><cmt>0.0 kmh</cmt></trkpt>
<trkpt lat="58.865543" lon="05.838175"><ele>30</ele><time>2012-03-31T11:59:56Z</time><cmt>0.3 kmh</cmt></trkpt>
<trkpt lat="58.865543" lon="05.838178"><ele>30</ele><time>2012-03-31T11:59:57Z</time><cmt>0.6 kmh</cmt></trkpt>
<trkpt lat="58.865544" lon="05.838182"><ele>30</ele><time>2012-03-31T11:59:58Z</time><cmt>0.7 kmh</cmt></trkpt>
<trkpt lat="58.865545" lon="05.838186"><ele>30</ele><time>2012-03-31T11:59:59Z</time><cmt>0.8 kmh</cmt></trkpt>
<trkpt lat="58.865545" lon="05.838188"><ele>30</ele><time>2012-03-31T12:00:00Z</time><cmt>0.5 kmh</cmt></trkpt>
<trkpt lat="58.865546" lon="05.838192"><ele>30</ele><time>2012-03-31T12:00:01Z</time><cmt>0.5 kmh</cmt></trkpt>
<trkpt lat="58.865547" lon="05.838195"><ele>30</ele><time>2012-03-31T12:00:02Z</time><cmt>0.9 kmh</cmt></trkpt>
<trkpt lat="58.865547" lon="05.838196"><ele>30</ele><time>2012-03-31T12:00:03Z</time><cmt>0.4 kmh</cmt></trkpt>
<trkpt lat="58.865547" lon="05.838197"><ele>30</ele><time>2012-03-31T12:00:04Z</time><cmt>0.0 kmh</cmt></trkpt>
<trkpt lat="58.865548" lon="05.838200"><ele>30</ele><time>2012-03-31T12:00:05Z</time><cmt>0.3 kmh</cmt></trkpt>
<trkpt lat="58.865549" lon="05.838205"><ele>30</ele><time>2012-03-31T12:00:06Z</time><cmt>1.1 kmh</cmt></trkpt>
<trkpt lat="58.865550" lon="05.838208"><ele>29</ele><time>2012-03-31T12:00:07Z</time><cmt>1.1 kmh</cmt></trkpt>
<trkpt lat="58.865550" lon="05.838211"><ele>29</ele><time>2012-03-31T12:00:08Z</time><cmt>0.8 kmh</cmt></trkpt>
<trkpt lat="58.865551" lon="05.838214"><ele>29</ele><time>2012-03-31T12:00:09Z</time><cmt>0.6 kmh</cmt></trkpt>
<trkpt lat="58.865552" lon="05.838217"><ele>29</ele><time>2012-03-31T12:00:10Z</time><cmt>0.6 kmh</cmt></trkpt>
<trkpt lat="58.865553" lon="05.838222"><ele>29</ele><time>2012-03-31T12:00:11Z</time><cmt>0.8 kmh</cmt></trkpt>
<trkpt lat="58.865554" lon="05.838227"><ele>29</ele><time>2012-03-31T12:00:12Z</time><cmt>1.1 kmh</cmt></trkpt>
<trkpt lat="58.865554" lon="05.838227"><ele>29</ele><time>2012-03-31T12:00:13Z</time><cmt>0.5 kmh</cmt></trkpt>
<trkpt lat="58.865554" lon="05.838227"><ele>29</ele><time>2012-03-31T12:00:14Z</time><cmt>0.0 kmh</cmt></trkpt>
<trkpt lat="58.865554" lon="05.838227"><ele>29</ele><time>2012-03-31T12:00:15Z</time><cmt>0.0 kmh</cmt></trkpt>
<trkpt lat="58.865553" lon="05.838227"><ele>29</ele><time>2012-03-31T12:00:16Z</time><cmt>0.0 kmh</cmt></trkpt>
<trkpt lat="58.865553" lon="05.838228"><ele>29</ele><time>2012-03-31T12:00:17Z</time><cmt>0.0 kmh</cmt></trkpt>
<trkpt lat="58.865553" lon="05.838228"><ele>29</ele><time>2012-03-31T12:00:18Z</time><cmt>0.0 kmh</cmt></trkpt>
<trkpt lat="58.865553" lon="05.838229"><ele>29</ele><time>2012-03-31T12:00:19Z</time><cmt>0.3 kmh</cmt></trkpt>
<trkpt lat="58.865553" lon="05.838230"><ele>29</ele><time>2012-03-31T12:00:20Z</time><cmt>0.5 kmh</cmt></trkpt>
<trkpt lat="58.865553" lon="05.838231"><ele>29</ele><time>2012-03-31T12:00:21Z</time><cmt>0.5 kmh</cmt></trkpt>
<trkpt lat="58.865553" lon="05.838232"><ele>29</ele><time>2012-03-31T12:00:22Z</time><cmt>0.4 kmh</cmt></trkpt>
<trkpt lat="58.865553" lon="05.838232"><ele>29</ele><time>2012-03-31T12:00:23Z</time><cmt>0.4 kmh</cmt></trkpt>
<trkpt lat="58.865553" lon="05.838233"><ele>29</ele><time>2012-03-31T12:00:24Z</time><cmt>0.2 kmh</cmt></trkpt>
<trkpt lat="58.865553" lon="05.838233"><ele>29</ele><time>2012-03-31T12:00:25Z</time><cmt>0.0 kmh</cmt></trkpt>
<trkpt lat="58.865553" lon="05.838233"><ele>29</ele><time>2012-03-31T12:00:26Z</time><cmt>0.0 kmh</cmt></trkpt>
<trkpt lat="58.865552" lon="05.838233"><ele>29</ele><time>2012-03-31T12:00:27Z</time><cmt>0.0 kmh</cmt></trkpt>
<trkpt lat="58.865552" lon="05.838233"><ele>29</ele><time>2012-03-31T12:00:28Z</time><cmt>0.0 kmh</cmt></trkpt>
<trkpt lat="58.865552" lon="05.838233"><ele>29</ele><time>2012-03-31T12:00:29Z</time><cmt>0.0 kmh</cmt></trkpt>
<trkpt lat="58.865552" lon="05.838233"><ele>29</ele><time>2012-03-31T12:00:30Z</time><cmt>0.0 kmh</cmt></trkpt>
<trkpt lat="58.865551" lon="05.838233"><ele>29</ele><time>2012-03-31T12:00:31Z</time><cmt>0.2 kmh</cmt></trkpt>
<trkpt lat="58.865551" lon="05.838233"><ele>29</ele><time>2012-03-31T12:00:32Z</time><cmt>0.2 kmh</cmt></trkpt>
<trkpt lat="58.865551" lon="05.838233"><ele>29</ele><time>2012-03-31T12:00:33Z</time><cmt>0.0 kmh</cmt></trkpt>
<trkpt lat="58.865551" lon="05.838232"><ele>29</ele><time>2012-03-31T12:00:34Z</time><cmt>0.0 kmh</cmt></trkpt>
<trkpt lat="58.865550" lon="05.838232"><ele>29</ele><time>2012-03-31T12:00:35Z</time><cmt>0.0 kmh</cmt></trkpt>
<trkpt lat="58.865550" lon="05.838232"><ele>29</ele><time>2012-03-31T12:00:36Z</time><cmt>0.2 kmh</cmt></trkpt>
<trkpt lat="58.865550" lon="05.838232"><ele>29</ele><time>2012-03-31T12:00:37Z</time><cmt>0.3 kmh</cmt></trkpt>
<trkpt lat="58.865549" lon="05.838231"><ele>29</ele><time>2012-03-31T12:00:38Z</time><cmt>0.0 kmh</cmt></trkpt>
<trkpt lat="58.865549" lon="05.838231"><ele>29</ele><time>2012-03-31T12:00:39Z</time><cmt>0.0 kmh</cmt></trkpt>
<trkpt lat="58.865549" lon="05.838231"><ele>29</ele><time>2012-03-31T12:00:40Z</time><cmt>0.0 kmh</cmt></trkpt>
<trkpt lat="58.865549" lon="05.838231"><ele>29</ele><time>2012-03-31T12:00:41Z</time><cmt>0.0 kmh</cmt></trkpt>
<trkpt lat="58.865548" lon="05.838230"><ele>29</ele><time>2012-03-31T12:00:42Z</time><cmt>0.0 kmh</cmt></trkpt>
<trkpt lat="58.865548" lon="05.838228"><ele>29</ele><time>2012-03-31T12:00:43Z</time><cmt>0.3 kmh</cmt></trkpt>
<trkpt lat="58.865547" lon="05.838226"><ele>29</ele><time>2012-03-31T12:00:44Z</time><cmt>0.6 kmh</cmt></trkpt>
<trkpt lat="58.865546" lon="05.838225"><ele>29</ele><time>2012-03-31T12:00:45Z</time><cmt>0.3 kmh</cmt></trkpt>
<trkpt lat="58.865546" lon="05.838224"><ele>29</ele><time>2012-03-31T12:00:46Z</time><cmt>0.2 kmh</cmt></trkpt>
<trkpt lat="58.865545" lon="05.838222"><ele>29</ele><time>2012-03-31T12:00:47Z</time><cmt>0.3 kmh</cmt></trkpt>
<trkpt lat="58.865545" lon="05.838221"><ele>29</ele><time>2012-03-31T12:00:48Z</time><cmt>0.3 kmh</cmt></trkpt>
<trkpt lat="58.865544" lon="05.838220"><ele>29</ele><time>2012-03-31T12:00:49Z</time><cmt>0.2 kmh</cmt></trkpt>
<trkpt lat="58.865544" lon="05.838219"><ele>29</ele><time>2012-03-31T12:00:50Z</time><cmt>0.0 kmh</cmt></trkpt>
<trkpt lat="58.865543" lon="05.838218"><ele>29</ele><time>2012-03-31T12:00:51Z</time><cmt>0.0 kmh</cmt></trkpt>
<trkpt lat="58.865543" lon="05.838218"><ele>30</ele><time>2012-03-31T12:00:52Z</time><cmt>0.2 kmh</cmt></trkpt>
<trkpt lat="58.865543" lon="05.838217"><ele>30</ele><time>2012-03-31T12:00:53Z</time><cmt>0.2 kmh</cmt></trkpt>
<trkpt lat="58.865542" lon="05.838216"><ele>30</ele><time>2012-03-31T12:00:54Z</time><cmt>0.0 kmh</cmt></trkpt>
<trkpt lat="58.865542" lon="05.838216"><ele>30</ele><time>2012-03-31T12:00:55Z</time><cmt>0.0 kmh</cmt></trkpt>
<trkpt lat="58.865541" lon="05.838214"><ele>30</ele><time>2012-03-31T12:00:56Z</time><cmt>0.2 kmh</cmt></trkpt>
<trkpt lat="58.865541" lon="05.838213"><ele>30</ele><time>2012-03-31T12:00:57Z</time><cmt>0.2 kmh</cmt></trkpt>
<trkpt lat="58.865540" lon="05.838212"><ele>30</ele><time>2012-03-31T12:00:58Z</time><cmt>0.0 kmh</cmt></trkpt>
<trkpt lat="58.865540" lon="05.838212"><ele>30</ele><time>2012-03-31T12:00:59Z</time><cmt>0.0 kmh</cmt></trkpt>
<trkpt lat="58.865540" lon="05.838211"><ele>30</ele><time>2012-03-31T12:01:00Z</time><cmt>0.0 kmh</cmt></trkpt>
<trkpt lat="58.865540" lon="05.838211"><ele>30</ele><time>2012-03-31T12:01:01Z</time><cmt>0.0 kmh</cmt></trkpt>
<trkpt lat="58.865540" lon="05.838211"><ele>30</ele><time>2012-03-31T12:01:02Z</time><cmt>0.2 kmh</cmt></trkpt>
<trkpt lat="58.865540" lon="05.838211"><ele>30</ele><time>2012-03-31T12:01:03Z</time><cmt>0.4 kmh</cmt></trkpt>
<trkpt lat="58.865539" lon="05.838210"><ele>30</ele><time>2012-03-31T12:01:04Z</time><cmt>0.2 kmh</cmt></trkpt>
<trkpt lat="58.865539" lon="05.838209"><ele>30</ele><time>2012-03-31T12:01:05Z</time><cmt>0.0 kmh</cmt></trkpt>
<trkpt lat="58.865538" lon="05.838208"><ele>30</ele><time>2012-03-31T12:01:06Z</time><cmt>0.0 kmh</cmt></trkpt>
<trkpt lat="58.865538" lon="05.838207"><ele>30</ele><time>2012-03-31T12:01:07Z</time><cmt>0.2 kmh</cmt></trkpt>
<trkpt lat="58.865537" lon="05.838205"><ele>30</ele><time>2012-03-31T12:01:08Z</time><cmt>0.5 kmh</cmt></trkpt>
<trkpt lat="58.865536" lon="05.838203"><ele>30</ele><time>2012-03-31T12:01:09Z</time><cmt>0.5 kmh</cmt></trkpt>
<trkpt lat="58.865535" lon="05.838202"><ele>31</ele><time>2012-03-31T12:01:10Z</time><cmt>0.5 kmh</cmt></trkpt>
<trkpt lat="58.865534" lon="05.838200"><ele>31</ele><time>2012-03-31T12:01:11Z</time><cmt>0.5 kmh</cmt></trkpt>
<trkpt lat="58.865533" lon="05.838198"><ele>31</ele><time>2012-03-31T12:01:12Z</time><cmt>0.4 kmh</cmt></trkpt>
<trkpt lat="58.865533" lon="05.838196"><ele>31</ele><time>2012-03-31T12:01:13Z</time><cmt>0.4 kmh</cmt></trkpt>
<trkpt lat="58.865532" lon="05.838194"><ele>31</ele><time>2012-03-31T12:01:14Z</time><cmt>0.5 kmh</cmt></trkpt>
<trkpt lat="58.865531" lon="05.838192"><ele>31</ele><time>2012-03-31T12:01:15Z</time><cmt>0.7 kmh</cmt></trkpt>
<trkpt lat="58.865529" lon="05.838190"><ele>31</ele><time>2012-03-31T12:01:16Z</time><cmt>0.8 kmh</cmt></trkpt>
<trkpt lat="58.865527" lon="05.838188"><ele>31</ele><time>2012-03-31T12:01:17Z</time><cmt>0.7 kmh</cmt></trkpt>
<trkpt lat="58.865526" lon="05.838185"><ele>32</ele><time>2012-03-31T12:01:18Z</time><cmt>0.8 kmh</cmt></trkpt>
<trkpt lat="58.865524" lon="05.838183"><ele>32</ele><time>2012-03-31T12:01:19Z</time><cmt>0.8 kmh</cmt></trkpt>
<trkpt lat="58.865521" lon="05.838180"><ele>32</ele><time>2012-03-31T12:01:20Z</time><cmt>0.9 kmh</cmt></trkpt>
<trkpt lat="58.865519" lon="05.838177"><ele>32</ele><time>2012-03-31T12:01:21Z</time><cmt>1.2 kmh</cmt></trkpt>
<trkpt lat="58.865518" lon="05.838174"><ele>33</ele><time>2012-03-31T12:01:22Z</time><cmt>1.1 kmh</cmt></trkpt>
<trkpt lat="58.865516" lon="05.838173"><ele>33</ele><time>2012-03-31T12:01:23Z</time><cmt>0.9 kmh</cmt></trkpt>
<trkpt lat="58.865516" lon="05.838172"><ele>33</ele><time>2012-03-31T12:01:24Z</time><cmt>0.4 kmh</cmt></trkpt>
<trkpt lat="58.865516" lon="05.838173"><ele>34</ele><time>2012-03-31T12:01:25Z</time><cmt>0.0 kmh</cmt></trkpt>
<trkpt lat="58.865517" lon="05.838173"><ele>34</ele><time>2012-03-31T12:01:26Z</time><cmt>0.0 kmh</cmt></trkpt>
<trkpt lat="58.865517" lon="05.838174"><ele>34</ele><time>2012-03-31T12:01:27Z</time><cmt>0.0 kmh</cmt></trkpt>
<trkpt lat="58.865518" lon="05.838175"><ele>34</ele><time>2012-03-31T12:01:28Z</time><cmt>0.0 kmh</cmt></trkpt>
<trkpt lat="58.865519" lon="05.838176"><ele>34</ele><time>2012-03-31T12:01:29Z</time><cmt>0.0 kmh</cmt></trkpt>
<trkpt lat="58.865519" lon="05.838176"><ele>34</ele><time>2012-03-31T12:01:30Z</time><cmt>0.0 kmh</cmt></trkpt>
<trkpt lat="58.865520" lon="05.838177"><ele>34</ele><time>2012-03-31T12:01:31Z</time><cmt>0.0 kmh</cmt></trkpt>
<trkpt lat="58.865520" lon="05.838177"><ele>35</ele><time>2012-03-31T12:01:32Z</time><cmt>0.0 kmh</cmt></trkpt>
<trkpt lat="58.865521" lon="05.838178"><ele>35</ele><time>2012-03-31T12:01:33Z</time><cmt>0.0 kmh</cmt></trkpt>
<trkpt lat="58.865521" lon="05.838178"><ele>35</ele><time>2012-03-31T12:01:34Z</time><cmt>0.0 kmh</cmt></trkpt>
<trkpt lat="58.865521" lon="05.838179"><ele>35</ele><time>2012-03-31T12:01:35Z</time><cmt>0.0 kmh</cmt></trkpt>
<trkpt lat="58.865522" lon="05.838179"><ele>35</ele><time>2012-03-31T12:01:36Z</time><cmt>0.0 kmh</cmt></trkpt>
<trkpt lat="58.865522" lon="05.838179"><ele>35</ele><time>2012-03-31T12:01:37Z</time><cmt>0.0 kmh</cmt></trkpt>
<trkpt lat="58.865522" lon="05.838179"><ele>35</ele><time>2012-03-31T12:01:38Z</time><cmt>0.0 kmh</cmt></trkpt>
<trkpt lat="58.865522" lon="05.838179"><ele>35</ele><time>2012-03-31T12:01:39Z</time><cmt>0.0 kmh</cmt></trkpt>
<trkpt lat="58.865522" lon="05.838178"><ele>35</ele><time>2012-03-31T12:01:40Z</time><cmt>0.0 kmh</cmt></trkpt>
<trkpt lat="58.865522" lon="05.838178"><ele>35</ele><time>2012-03-31T12:01:41Z</time><cmt>0.0 kmh</cmt></trkpt>
<trkpt lat="58.865521" lon="05.838177"><ele>35</ele><time>2012-03-31T12:01:42Z</time><cmt>0.0 kmh</cmt></trkpt>
<trkpt lat="58.865521" lon="05.838177"><ele>35</ele><time>2012-03-31T12:01:43Z</time><cmt>0.0 kmh</cmt></trkpt>
<trkpt lat="58.865521" lon="05.838176"><ele>35</ele><time>2012-03-31T12:01:44Z</time><cmt>0.0 kmh</cmt></trkpt>
<trkpt lat="58.865520" lon="05.838176"><ele>35</ele><time>2012-03-31T12:01:45Z</time><cmt>0.0 kmh</cmt></trkpt>
<trkpt lat="58.865520" lon="05.838175"><ele>35</ele><time>2012-03-31T12:01:46Z</time><cmt>0.0 kmh</cmt></trkpt>
<trkpt lat="58.865520" lon="05.838175"><ele>35</ele><time>2012-03-31T12:01:47Z</time><cmt>0.0 kmh</cmt></trkpt>
<trkpt lat="58.865520" lon="05.838174"><ele>35</ele><time>2012-03-31T12:01:48Z</time><cmt>0.0 kmh</cmt></trkpt>
<trkpt lat="58.865519" lon="05.838174"><ele>35</ele><time>2012-03-31T12:01:49Z</time><cmt>0.0 kmh</cmt></trkpt>
<trkpt lat="58.865519" lon="05.838173"><ele>35</ele><time>2012-03-31T12:01:50Z</time><cmt>0.0 kmh</cmt></trkpt>
<trkpt lat="58.865519" lon="05.838173"><ele>35</ele><time>2012-03-31T12:01:51Z</time><cmt>0.0 kmh</cmt></trkpt>
<trkpt lat="58.865519" lon="05.838172"><ele>35</ele><time>2012-03-31T12:01:52Z</time><cmt>0.0 kmh</cmt></trkpt>
<trkpt lat="58.865518" lon="05.838172"><ele>35</ele><time>2012-03-31T12:01:53Z</time><cmt>0.0 kmh</cmt></trkpt>
<trkpt lat="58.865518" lon="05.838171"><ele>35</ele><time>2012-03-31T12:01:54Z</time><cmt>0.0 kmh</cmt></trkpt>
<trkpt lat="58.865517" lon="05.838170"><ele>35</ele><time>2012-03-31T12:01:55Z</time><cmt>0.0 kmh</cmt></trkpt>
<trkpt lat="58.865517" lon="05.838169"><ele>35</ele><time>2012-03-31T12:01:56Z</time><cmt>0.0 kmh</cmt></trkpt>
<trkpt lat="58.865517" lon="05.838169"><ele>35</ele><time>2012-03-31T12:01:57Z</time><cmt>0.0 kmh</cmt></trkpt>
<trkpt lat="58.865516" lon="05.838168"><ele>35</ele><time>2012-03-31T12:01:58Z</time><cmt>0.0 kmh</cmt></trkpt>
<trkpt lat="58.865516" lon="05.838168"><ele>35</ele><time>2012-03-31T12:01:59Z</time><cmt>0.0 kmh</cmt></trkpt>
<trkpt lat="58.865516" lon="05.838168"><ele>35</ele><time>2012-03-31T12:02:00Z</time><cmt>0.0 kmh</cmt></trkpt>
<trkpt lat="58.865516" lon="05.838167"><ele>35</ele><time>2012-03-31T12:02:01Z</time><cmt>0.0 kmh</cmt></trkpt>
<trkpt lat="58.865515" lon="05.838167"><ele>35</ele><time>2012-03-31T12:02:02Z</time><cmt>0.0 kmh</cmt></trkpt>
<trkpt lat="58.865515" lon="05.838167"><ele>35</ele><time>2012-03-31T12:02:03Z</time><cmt>0.0 kmh</cmt></trkpt>
<trkpt lat="58.865515" lon="05.838166"><ele>35</ele><time>2012-03-31T12:02:04Z</time><cmt>0.0 kmh</cmt></trkpt>
<trkpt lat="58.865515" lon="05.838166"><ele>35</ele><time>2012-03-31T12:02:05Z</time><cmt>0.0 kmh</cmt></trkpt>
<trkpt lat="58.865514" lon="05.838165"><ele>35</ele><time>2012-03-31T12:02:06Z</time><cmt>0.0 kmh</cmt></trkpt>
<trkpt lat="58.865514" lon="05.838165"><ele>35</ele><time>2012-03-31T12:02:07Z</time><cmt>0.0 kmh</cmt></trkpt>
<trkpt lat="58.865514" lon="05.838165"><ele>35</ele><time>2012-03-31T12:02:08Z</time><cmt>0.0 kmh</cmt></trkpt>
<trkpt lat="58.865514" lon="05.838165"><ele>35</ele><time>2012-03-31T12:02:09Z</time><cmt>0.0 kmh</cmt></trkpt>
<trkpt lat="58.865514" lon="05.838165"><ele>35</ele><time>2012-03-31T12:02:10Z</time><cmt>0.0 kmh</cmt></trkpt>
<trkpt lat="58.865513" lon="05.838165"><ele>35</ele><time>2012-03-31T12:02:11Z</time><cmt>0.0 kmh</cmt></trkpt>
<trkpt lat="58.865513" lon="05.838164"><ele>35</ele><time>2012-03-31T12:02:12Z</time><cmt>0.0 kmh</cmt></trkpt>
<trkpt lat="58.865513" lon="05.838164"><ele>35</ele><time>2012-03-31T12:02:13Z</time><cmt>0.0 kmh</cmt></trkpt>
<trkpt lat="58.865513" lon="05.838164"><ele>35</ele><time>2012-03-31T12:02:14Z</time><cmt>0.0 kmh</cmt></trkpt>
<trkpt lat="58.865513" lon="05.838164"><ele>35</ele><time>2012-03-31T12:02:15Z</time><cmt>0.1 kmh</cmt></trkpt>
<trkpt lat="58.865513" lon="05.838164"><ele>35</ele><time>2012-03-31T12:02:16Z</time><cmt>0.2 kmh</cmt></trkpt>
<trkpt lat="58.865513" lon="05.838164"><ele>35</ele><time>2012-03-31T12:02:18Z</time><cmt>0.0 kmh</cmt></trkpt>
<trkpt lat="58.865513" lon="05.838164"><ele>35</ele><time>2012-03-31T12:02:19Z</time><cmt>0.0 kmh</cmt></trkpt>
<trkpt lat="58.865513" lon="05.838164"><ele>35</ele><time>2012-03-31T12:02:20Z</time><cmt>0.0 kmh</cmt></trkpt>
<trkpt lat="58.865513" lon="05.838165"><ele>35</ele><time>2012-03-31T12:02:21Z</time><cmt>0.0 kmh</cmt></trkpt>
<trkpt lat="58.865513" lon="05.838165"><ele>35</ele><time>2012-03-31T12:02:23Z</time><cmt>0.0 kmh</cmt></trkpt>
<trkpt lat="58.865513" lon="05.838165"><ele>35</ele><time>2012-03-31T12:02:24Z</time><cmt>0.0 kmh</cmt></trkpt>
<trkpt lat="58.865513" lon="05.838165"><ele>35</ele><time>2012-03-31T12:02:25Z</time><cmt>0.0 kmh</cmt></trkpt>
<trkpt lat="58.865513" lon="05.838165"><ele>35</ele><time>2012-03-31T12:02:26Z</time><cmt>0.0 kmh</cmt></trkpt>
<trkpt lat="58.865513" lon="05.838165"><ele>35</ele><time>2012-03-31T12:02:27Z</time><cmt>0.0 kmh</cmt></trkpt>
<trkpt lat="58.865513" lon="05.838165"><ele>35</ele><time>2012-03-31T12:02:28Z</time><cmt>0.0 kmh</cmt></trkpt>
<trkpt lat="58.865512" lon="05.838165"><ele>35</ele><time>2012-03-31T12:02:29Z</time><cmt>0.0 kmh</cmt></trkpt>
<trkpt lat="58.865512" lon="05.838164"><ele>35</ele><time>2012-03-31T12:02:30Z</time><cmt>0.0 kmh</cmt></trkpt>
<trkpt lat="58.865512" lon="05.838164"><ele>35</ele><time>2012-03-31T12:02:31Z</time><cmt>0.0 kmh</cmt></trkpt>
<trkpt lat="58.865512" lon="05.838164"><ele>35</ele><time>2012-03-31T12:02:32Z</time><cmt>0.0 kmh</cmt></trkpt>
<trkpt lat="58.865512" lon="05.838164"><ele>35</ele><time>2012-03-31T12:02:33Z</time><cmt>0.2 kmh</cmt></trkpt>
<trkpt lat="58.865512" lon="05.838164"><ele>35</ele><time>2012-03-31T12:02:34Z</time><cmt>0.4 kmh</cmt></trkpt>
<trkpt lat="58.865512" lon="05.838164"><ele>35</ele><time>2012-03-31T12:02:35Z</time><cmt>0.2 kmh</cmt></trkpt>
<trkpt lat="58.865512" lon="05.838164"><ele>35</ele><time>2012-03-31T12:02:36Z</time><cmt>0.0 kmh</cmt></trkpt>
<trkpt lat="58.865512" lon="05.838163"><ele>35</ele><time>2012-03-31T12:02:37Z</time><cmt>0.0 kmh</cmt></trkpt>
<trkpt lat="58.865511" lon="05.838163"><ele>35</ele><time>2012-03-31T12:02:38Z</time><cmt>0.0 kmh</cmt></trkpt>
<trkpt lat="58.865511" lon="05.838163"><ele>35</ele><time>2012-03-31T12:02:39Z</time><cmt>0.0 kmh</cmt></trkpt>
<trkpt lat="58.865511" lon="05.838163"><ele>35</ele><time>2012-03-31T12:02:40Z</time><cmt>0.0 kmh</cmt></trkpt>
<trkpt lat="58.865511" lon="05.838163"><ele>35</ele><time>2012-03-31T12:02:41Z</time><cmt>0.0 kmh</cmt></trkpt>
<trkpt lat="58.865511" lon="05.838163"><ele>35</ele><time>2012-03-31T12:02:42Z</time><cmt>0.0 kmh</cmt></trkpt>
<trkpt lat="58.865511" lon="05.838163"><ele>35</ele><time>2012-03-31T12:02:43Z</time><cmt>0.0 kmh</cmt></trkpt>
<trkpt lat="58.865511" lon="05.838163"><ele>35</ele><time>2012-03-31T12:02:44Z</time><cmt>0.0 kmh</cmt></trkpt>
<trkpt lat="58.865511" lon="05.838163"><ele>35</ele><time>2012-03-31T12:02:45Z</time><cmt>0.0 kmh</cmt></trkpt>
<trkpt lat="58.865511" lon="05.838163"><ele>35</ele><time>2012-03-31T12:02:46Z</time><cmt>0.0 kmh</cmt></trkpt>
<trkpt lat="58.865511" lon="05.838163"><ele>35</ele><time>2012-03-31T12:02:47Z</time><cmt>0.0 kmh</cmt></trkpt>
<trkpt lat="58.865511" lon="05.838163"><ele>35</ele><time>2012-03-31T12:02:48Z</time><cmt>0.0 kmh</cmt></trkpt>
<trkpt lat="58.865511" lon="05.838163"><ele>35</ele><time>2012-03-31T12:02:49Z</time><cmt>0.0 kmh</cmt></trkpt>
<trkpt lat="58.865511" lon="05.838163"><ele>35</ele><time>2012-03-31T12:02:50Z</time><cmt>0.0 kmh</cmt></trkpt>
<trkpt lat="58.865511" lon="05.838163"><ele>35</ele><time>2012-03-31T12:02:51Z</time><cmt>0.0 kmh</cmt></trkpt>
<trkpt lat="58.865511" lon="05.838163"><ele>35</ele><time>2012-03-31T12:02:52Z</time><cmt>0.0 kmh</cmt></trkpt>
<trkpt lat="58.865511" lon="05.838163"><ele>35</ele><time>2012-03-31T12:02:53Z</time><cmt>0.0 kmh</cmt></trkpt>
<trkpt lat="58.865511" lon="05.838163"><ele>35</ele><time>2012-03-31T12:02:54Z</time><cmt>0.0 kmh</cmt></trkpt>
<trkpt lat="58.865511" lon="05.838162"><ele>35</ele><time>2012-03-31T12:02:55Z</time><cmt>0.0 kmh</cmt></trkpt>
<trkpt lat="58.865511" lon="05.838162"><ele>35</ele><time>2012-03-31T12:02:56Z</time><cmt>0.0 kmh</cmt></trkpt>
<trkpt lat="58.865511" lon="05.838163"><ele>35</ele><time>2012-03-31T12:02:57Z</time><cmt>0.0 kmh</cmt></trkpt>
<trkpt lat="58.865511" lon="05.838163"><ele>35</ele><time>2012-03-31T12:02:58Z</time><cmt>0.0 kmh</cmt></trkpt>
<trkpt lat="58.865511" lon="05.838163"><ele>35</ele><time>2012-03-31T12:02:59Z</time><cmt>0.0 kmh</cmt></trkpt>
<trkpt lat="58.865511" lon="05.838163"><ele>35</ele><time>2012-03-31T12:03:00Z</time><cmt>0.0 kmh</cmt></trkpt>
<trkpt lat="58.865511" lon="05.838164"><ele>35</ele><time>2012-03-31T12:03:01Z</time><cmt>0.0 kmh</cmt></trkpt>
<trkpt lat="58.865511" lon="05.838164"><ele>35</ele><time>2012-03-31T12:03:02Z</time><cmt>0.0 kmh</cmt></trkpt>
<trkpt lat="58.865511" lon="05.838164"><ele>35</ele><time>2012-03-31T12:03:03Z</time><cmt>0.2 kmh</cmt></trkpt>
<trkpt lat="58.865511" lon="05.838164"><ele>34</ele><time>2012-03-31T12:03:04Z</time><cmt>0.1 kmh</cmt></trkpt>
<trkpt lat="58.865512" lon="05.838165"><ele>34</ele><time>2012-03-31T12:03:05Z</time><cmt>0.0 kmh</cmt></trkpt>
<trkpt lat="58.865513" lon="05.838166"><ele>34</ele><time>2012-03-31T12:03:06Z</time><cmt>0.0 kmh</cmt></trkpt>
<trkpt lat="58.865513" lon="05.838167"><ele>34</ele><time>2012-03-31T12:03:07Z</time><cmt>0.0 kmh</cmt></trkpt>
<trkpt lat="58.865513" lon="05.838167"><ele>34</ele><time>2012-03-31T12:03:08Z</time><cmt>0.2 kmh</cmt></trkpt>
<trkpt lat="58.865513" lon="05.838167"><ele>34</ele><time>2012-03-31T12:03:09Z</time><cmt>0.2 kmh</cmt></trkpt>
<trkpt lat="58.865513" lon="05.838167"><ele>34</ele><time>2012-03-31T12:03:10Z</time><cmt>0.0 kmh</cmt></trkpt>
<trkpt lat="58.865513" lon="05.838167"><ele>34</ele><time>2012-03-31T12:03:11Z</time><cmt>0.0 kmh</cmt></trkpt>
<trkpt lat="58.865513" lon="05.838167"><ele>34</ele><time>2012-03-31T12:03:15Z</time><cmt>0.0 kmh</cmt></trkpt>
<trkpt lat="58.865513" lon="05.838167"><ele>34</ele><time>2012-03-31T12:03:16Z</time><cmt>0.0 kmh</cmt></trkpt>
<trkpt lat="58.865513" lon="05.838167"><ele>34</ele><time>2012-03-31T12:03:17Z</time><cmt>0.0 kmh</cmt></trkpt>
<trkpt lat="58.865512" lon="05.838167"><ele>34</ele><time>2012-03-31T12:03:18Z</time><cmt>0.2 kmh</cmt></trkpt>
<trkpt lat="58.865512" lon="05.838167"><ele>33</ele><time>2012-03-31T12:03:19Z</time><cmt>0.2 kmh</cmt></trkpt>
<trkpt lat="58.865512" lon="05.838167"><ele>33</ele><time>2012-03-31T12:03:20Z</time><cmt>0.0 kmh</cmt></trkpt>
<trkpt lat="58.865512" lon="05.838167"><ele>33</ele><time>2012-03-31T12:03:21Z</time><cmt>0.0 kmh</cmt></trkpt>
<trkpt lat="58.865511" lon="05.838167"><ele>33</ele><time>2012-03-31T12:03:22Z</time><cmt>0.0 kmh</cmt></trkpt>
<trkpt lat="58.865511" lon="05.838167"><ele>33</ele><time>2012-03-31T12:03:23Z</time><cmt>0.0 kmh</cmt></trkpt>
<trkpt lat="58.865511" lon="05.838167"><ele>33</ele><time>2012-03-31T12:03:24Z</time><cmt>0.0 kmh</cmt></trkpt>
<trkpt lat="58.865511" lon="05.838167"><ele>33</ele><time>2012-03-31T12:03:25Z</time><cmt>0.0 kmh</cmt></trkpt>
<trkpt lat="58.865511" lon="05.838167"><ele>33</ele><time>2012-03-31T12:03:26Z</time><cmt>0.0 kmh</cmt></trkpt>
<trkpt lat="58.865511" lon="05.838167"><ele>33</ele><time>2012-03-31T12:03:27Z</time><cmt>0.0 kmh</cmt></trkpt>
<trkpt lat="58.865511" lon="05.838167"><ele>33</ele><time>2012-03-31T12:03:28Z</time><cmt>0.0 kmh</cmt></trkpt>
<trkpt lat="58.865510" lon="05.838166"><ele>33</ele><time>2012-03-31T12:03:29Z</time><cmt>0.0 kmh</cmt></trkpt>
<trkpt lat="58.865510" lon="05.838166"><ele>33</ele><time>2012-03-31T12:03:30Z</time><cmt>0.0 kmh</cmt></trkpt>
<trkpt lat="58.865509" lon="05.838166"><ele>33</ele><time>2012-03-31T12:03:31Z</time><cmt>0.0 kmh</cmt></trkpt>
<trkpt lat="58.865509" lon="05.838165"><ele>33</ele><time>2012-03-31T12:03:32Z</time><cmt>0.0 kmh</cmt></trkpt>
<trkpt lat="58.865508" lon="05.838165"><ele>33</ele><time>2012-03-31T12:03:33Z</time><cmt>0.0 kmh</cmt></trkpt>
<trkpt lat="58.865509" lon="05.838165"><ele>33</ele><time>2012-03-31T12:03:34Z</time><cmt>0.0 kmh</cmt></trkpt>
<trkpt lat="58.865509" lon="05.838165"><ele>33</ele><time>2012-03-31T12:03:35Z</time><cmt>0.0 kmh</cmt></trkpt>
<trkpt lat="58.865509" lon="05.838165"><ele>33</ele><time>2012-03-31T12:03:36Z</time><cmt>0.0 kmh</cmt></trkpt>
<trkpt lat="58.865509" lon="05.838164"><ele>33</ele><time>2012-03-31T12:03:37Z</time><cmt>0.3 kmh</cmt></trkpt>
<trkpt lat="58.865509" lon="05.838163"><ele>33</ele><time>2012-03-31T12:03:38Z</time><cmt>0.3 kmh</cmt></trkpt>
<trkpt lat="58.865509" lon="05.838164"><ele>33</ele><time>2012-03-31T12:03:39Z</time><cmt>0.0 kmh</cmt></trkpt>
<trkpt lat="58.865510" lon="05.838165"><ele>33</ele><time>2012-03-31T12:03:40Z</time><cmt>0.0 kmh</cmt></trkpt>
<trkpt lat="58.865511" lon="05.838166"><ele>33</ele><time>2012-03-31T12:03:41Z</time><cmt>0.1 kmh</cmt></trkpt>
<trkpt lat="58.865511" lon="05.838167"><ele>33</ele><time>2012-03-31T12:03:42Z</time><cmt>0.4 kmh</cmt></trkpt>
<trkpt lat="58.865512" lon="05.838168"><ele>33</ele><time>2012-03-31T12:03:43Z</time><cmt>0.5 kmh</cmt></trkpt>
<trkpt lat="58.865513" lon="05.838169"><ele>33</ele><time>2012-03-31T12:03:44Z</time><cmt>0.6 kmh</cmt></trkpt>
<trkpt lat="58.865513" lon="05.838170"><ele>33</ele><time>2012-03-31T12:03:45Z</time><cmt>0.6 kmh</cmt></trkpt>
<trkpt lat="58.865514" lon="05.838171"><ele>33</ele><time>2012-03-31T12:03:46Z</time><cmt>0.5 kmh</cmt></trkpt>
<trkpt lat="58.865514" lon="05.838171"><ele>33</ele><time>2012-03-31T12:03:47Z</time><cmt>0.4 kmh</cmt></trkpt>
<trkpt lat="58.865514" lon="05.838172"><ele>32</ele><time>2012-03-31T12:03:48Z</time><cmt>0.1 kmh</cmt></trkpt>
<trkpt lat="58.865515" lon="05.838172"><ele>32</ele><time>2012-03-31T12:03:49Z</time><cmt>0.0 kmh</cmt></trkpt>
<trkpt lat="58.865515" lon="05.838173"><ele>32</ele><time>2012-03-31T12:03:50Z</time><cmt>0.2 kmh</cmt></trkpt>
<trkpt lat="58.865515" lon="05.838173"><ele>32</ele><time>2012-03-31T12:03:51Z</time><cmt>0.2 kmh</cmt></trkpt>
<trkpt lat="58.865515" lon="05.838173"><ele>32</ele><time>2012-03-31T12:03:52Z</time><cmt>0.0 kmh</cmt></trkpt>
<trkpt lat="58.865516" lon="05.838173"><ele>32</ele><time>2012-03-31T12:03:53Z</time><cmt>0.0 kmh</cmt></trkpt>
<trkpt lat="58.865516" lon="05.838172"><ele>32</ele><time>2012-03-31T12:03:54Z</time><cmt>0.0 kmh</cmt></trkpt>
<trkpt lat="58.865517" lon="05.838174"><ele>31</ele><time>2012-03-31T12:03:55Z</time><cmt>0.2 kmh</cmt></trkpt>
<trkpt lat="58.865517" lon="05.838174"><ele>31</ele><time>2012-03-31T12:03:56Z</time><cmt>0.2 kmh</cmt></trkpt>
<trkpt lat="58.865517" lon="05.838174"><ele>31</ele><time>2012-03-31T12:03:57Z</time><cmt>0.0 kmh</cmt></trkpt>
<trkpt lat="58.865517" lon="05.838174"><ele>31</ele><time>2012-03-31T12:03:58Z</time><cmt>0.0 kmh</cmt></trkpt>
<trkpt lat="58.865517" lon="05.838173"><ele>31</ele><time>2012-03-31T12:03:59Z</time><cmt>0.0 kmh</cmt></trkpt>
<trkpt lat="58.865516" lon="05.838172"><ele>31</ele><time>2012-03-31T12:04:00Z</time><cmt>0.0 kmh</cmt></trkpt>
<trkpt lat="58.865516" lon="05.838171"><ele>31</ele><time>2012-03-31T12:04:01Z</time><cmt>0.0 kmh</cmt></trkpt>
<trkpt lat="58.865515" lon="05.838170"><ele>31</ele><time>2012-03-31T12:04:02Z</time><cmt>0.0 kmh</cmt></trkpt>
<trkpt lat="58.865515" lon="05.838168"><ele>31</ele><time>2012-03-31T12:04:03Z</time><cmt>0.2 kmh</cmt></trkpt>
<trkpt lat="58.865514" lon="05.838167"><ele>31</ele><time>2012-03-31T12:04:04Z</time><cmt>0.4 kmh</cmt></trkpt>
<trkpt lat="58.865514" lon="05.838166"><ele>31</ele><time>2012-03-31T12:04:05Z</time><cmt>0.4 kmh</cmt></trkpt>
<trkpt lat="58.865513" lon="05.838164"><ele>31</ele><time>2012-03-31T12:04:06Z</time><cmt>0.4 kmh</cmt></trkpt>
<trkpt lat="58.865513" lon="05.838163"><ele>31</ele><time>2012-03-31T12:04:07Z</time><cmt>0.4 kmh</cmt></trkpt>
<trkpt lat="58.865512" lon="05.838161"><ele>31</ele><time>2012-03-31T12:04:08Z</time><cmt>0.3 kmh</cmt></trkpt>
<trkpt lat="58.865511" lon="05.838160"><ele>31</ele><time>2012-03-31T12:04:09Z</time><cmt>0.0 kmh</cmt></trkpt>
<trkpt lat="58.865511" lon="05.838159"><ele>31</ele><time>2012-03-31T12:04:10Z</time><cmt>0.0 kmh</cmt></trkpt>
<trkpt lat="58.865510" lon="05.838157"><ele>31</ele><time>2012-03-31T12:04:11Z</time><cmt>0.0 kmh</cmt></trkpt>
<trkpt lat="58.865509" lon="05.838156"><ele>31</ele><time>2012-03-31T12:04:12Z</time><cmt>0.0 kmh</cmt></trkpt>
<trkpt lat="58.865509" lon="05.838155"><ele>31</ele><time>2012-03-31T12:04:13Z</time><cmt>0.2 kmh</cmt></trkpt>
<trkpt lat="58.865508" lon="05.838153"><ele>31</ele><time>2012-03-31T12:04:14Z</time><cmt>0.6 kmh</cmt></trkpt>
<trkpt lat="58.865507" lon="05.838151"><ele>32</ele><time>2012-03-31T12:04:15Z</time><cmt>0.6 kmh</cmt></trkpt>
<trkpt lat="58.865506" lon="05.838150"><ele>32</ele><time>2012-03-31T12:04:16Z</time><cmt>0.5 kmh</cmt></trkpt>
<trkpt lat="58.865505" lon="05.838148"><ele>32</ele><time>2012-03-31T12:04:17Z</time><cmt>0.5 kmh</cmt></trkpt>
<trkpt lat="58.865505" lon="05.838146"><ele>32</ele><time>2012-03-31T12:04:18Z</time><cmt>0.4 kmh</cmt></trkpt>
<trkpt lat="58.865504" lon="05.838146"><ele>32</ele><time>2012-03-31T12:04:19Z</time><cmt>0.1 kmh</cmt></trkpt>
<trkpt lat="58.865504" lon="05.838146"><ele>33</ele><time>2012-03-31T12:04:20Z</time><cmt>0.0 kmh</cmt></trkpt>
<trkpt lat="58.865505" lon="05.838147"><ele>33</ele><time>2012-03-31T12:04:21Z</time><cmt>0.0 kmh</cmt></trkpt>
<trkpt lat="58.865505" lon="05.838148"><ele>33</ele><time>2012-03-31T12:04:22Z</time><cmt>0.0 kmh</cmt></trkpt>
<trkpt lat="58.865505" lon="05.838149"><ele>33</ele><time>2012-03-31T12:04:23Z</time><cmt>0.0 kmh</cmt></trkpt>
<trkpt lat="58.865505" lon="05.838150"><ele>33</ele><time>2012-03-31T12:04:24Z</time><cmt>0.0 kmh</cmt></trkpt>
<trkpt lat="58.865506" lon="05.838151"><ele>33</ele><time>2012-03-31T12:04:25Z</time><cmt>0.0 kmh</cmt></trkpt>
<trkpt lat="58.865506" lon="05.838152"><ele>33</ele><time>2012-03-31T12:04:26Z</time><cmt>0.0 kmh</cmt></trkpt>
<trkpt lat="58.865506" lon="05.838153"><ele>33</ele><time>2012-03-31T12:04:27Z</time><cmt>0.0 kmh</cmt></trkpt>
<trkpt lat="58.865507" lon="05.838154"><ele>33</ele><time>2012-03-31T12:04:28Z</time><cmt>0.0 kmh</cmt></trkpt>
<trkpt lat="58.865507" lon="05.838154"><ele>33</ele><time>2012-03-31T12:04:29Z</time><cmt>0.0 kmh</cmt></trkpt>
<trkpt lat="58.865507" lon="05.838154"><ele>33</ele><time>2012-03-31T12:04:30Z</time><cmt>0.1 kmh</cmt></trkpt>
<trkpt lat="58.865507" lon="05.838154"><ele>33</ele><time>2012-03-31T12:04:31Z</time><cmt>0.1 kmh</cmt></trkpt>
<trkpt lat="58.865508" lon="05.838155"><ele>33</ele><time>2012-03-31T12:04:32Z</time><cmt>0.0 kmh</cmt></trkpt>
<trkpt lat="58.865508" lon="05.838155"><ele>33</ele><time>2012-03-31T12:04:33Z</time><cmt>0.0 kmh</cmt></trkpt>
<trkpt lat="58.865508" lon="05.838155"><ele>33</ele><time>2012-03-31T12:04:34Z</time><cmt>0.0 kmh</cmt></trkpt>
<trkpt lat="58.865508" lon="05.838156"><ele>33</ele><time>2012-03-31T12:04:35Z</time><cmt>0.0 kmh</cmt></trkpt>
<trkpt lat="58.865509" lon="05.838156"><ele>33</ele><time>2012-03-31T12:04:36Z</time><cmt>0.0 kmh</cmt></trkpt>
<trkpt lat="58.865509" lon="05.838156"><ele>33</ele><time>2012-03-31T12:04:37Z</time><cmt>0.0 kmh</cmt></trkpt>
<trkpt lat="58.865508" lon="05.838157"><ele>33</ele><time>2012-03-31T12:04:38Z</time><cmt>0.0 kmh</cmt></trkpt>
<trkpt lat="58.865508" lon="05.838157"><ele>33</ele><time>2012-03-31T12:04:39Z</time><cmt>0.0 kmh</cmt></trkpt>
<trkpt lat="58.865508" lon="05.838157"><ele>33</ele><time>2012-03-31T12:04:40Z</time><cmt>0.0 kmh</cmt></trkpt>
<trkpt lat="58.865508" lon="05.838158"><ele>33</ele><time>2012-03-31T12:04:41Z</time><cmt>0.0 kmh</cmt></trkpt>
<trkpt lat="58.865508" lon="05.838158"><ele>33</ele><time>2012-03-31T12:04:42Z</time><cmt>0.2 kmh</cmt></trkpt>
<trkpt lat="58.865509" lon="05.838159"><ele>33</ele><time>2012-03-31T12:04:43Z</time><cmt>0.1 kmh</cmt></trkpt>
<trkpt lat="58.865509" lon="05.838159"><ele>33</ele><time>2012-03-31T12:04:44Z</time><cmt>0.0 kmh</cmt></trkpt>
<trkpt lat="58.865509" lon="05.838159"><ele>32</ele><time>2012-03-31T12:04:45Z</time><cmt>0.0 kmh</cmt></trkpt>
<trkpt lat="58.865510" lon="05.838159"><ele>32</ele><time>2012-03-31T12:04:46Z</time><cmt>0.0 kmh</cmt></trkpt>
<trkpt lat="58.865510" lon="05.838160"><ele>32</ele><time>2012-03-31T12:04:47Z</time><cmt>0.0 kmh</cmt></trkpt>
<trkpt lat="58.865510" lon="05.838160"><ele>32</ele><time>2012-03-31T12:04:48Z</time><cmt>0.0 kmh</cmt></trkpt>
<trkpt lat="58.865511" lon="05.838160"><ele>32</ele><time>2012-03-31T12:04:49Z</time><cmt>0.0 kmh</cmt></trkpt>
<trkpt lat="58.865511" lon="05.838161"><ele>32</ele><time>2012-03-31T12:04:50Z</time><cmt>0.0 kmh</cmt></trkpt>
<trkpt lat="58.865512" lon="05.838161"><ele>32</ele><time>2012-03-31T12:04:51Z</time><cmt>0.0 kmh</cmt></trkpt>
<trkpt lat="58.865512" lon="05.838162"><ele>32</ele><time>2012-03-31T12:04:52Z</time><cmt>0.2 kmh</cmt></trkpt>
<trkpt lat="58.865513" lon="05.838162"><ele>32</ele><time>2012-03-31T12:04:53Z</time><cmt>0.2 kmh</cmt></trkpt>
<trkpt lat="58.865513" lon="05.838163"><ele>32</ele><time>2012-03-31T12:04:54Z</time><cmt>0.0 kmh</cmt></trkpt>
<trkpt lat="58.865513" lon="05.838163"><ele>32</ele><time>2012-03-31T12:04:55Z</time><cmt>0.0 kmh</cmt></trkpt>
<trkpt lat="58.865513" lon="05.838164"><ele>32</ele><time>2012-03-31T12:04:56Z</time><cmt>0.0 kmh</cmt></trkpt>
<trkpt lat="58.865513" lon="05.838164"><ele>31</ele><time>2012-03-31T12:04:57Z</time><cmt>0.2 kmh</cmt></trkpt>
<trkpt lat="58.865513" lon="05.838164"><ele>31</ele><time>2012-03-31T12:04:58Z</time><cmt>0.4 kmh</cmt></trkpt>
<trkpt lat="58.865514" lon="05.838165"><ele>31</ele><time>2012-03-31T12:04:59Z</time><cmt>0.4 kmh</cmt></trkpt>
<trkpt lat="58.865514" lon="05.838166"><ele>31</ele><time>2012-03-31T12:05:00Z</time><cmt>0.2 kmh</cmt></trkpt>
<trkpt lat="58.865515" lon="05.838166"><ele>31</ele><time>2012-03-31T12:05:01Z</time><cmt>0.0 kmh</cmt></trkpt>
<trkpt lat="58.865515" lon="05.838167"><ele>31</ele><time>2012-03-31T12:05:02Z</time><cmt>0.0 kmh</cmt></trkpt>
<trkpt lat="58.865515" lon="05.838167"><ele>31</ele><time>2012-03-31T12:05:03Z</time><cmt>0.0 kmh</cmt></trkpt>
<trkpt lat="58.865515" lon="05.838168"><ele>31</ele><time>2012-03-31T12:05:04Z</time><cmt>0.0 kmh</cmt></trkpt>
<trkpt lat="58.865515" lon="05.838168"><ele>31</ele><time>2012-03-31T12:05:05Z</time><cmt>0.0 kmh</cmt></trkpt>
<trkpt lat="58.865515" lon="05.838168"><ele>31</ele><time>2012-03-31T12:05:06Z</time><cmt>0.0 kmh</cmt></trkpt>
<trkpt lat="58.865515" lon="05.838169"><ele>31</ele><time>2012-03-31T12:05:07Z</time><cmt>0.0 kmh</cmt></trkpt>
<trkpt lat="58.865514" lon="05.838169"><ele>31</ele><time>2012-03-31T12:05:08Z</time><cmt>0.0 kmh</cmt></trkpt>
<trkpt lat="58.865515" lon="05.838169"><ele>31</ele><time>2012-03-31T12:05:09Z</time><cmt>0.0 kmh</cmt></trkpt>
<trkpt lat="58.865515" lon="05.838169"><ele>30</ele><time>2012-03-31T12:05:10Z</time><cmt>0.0 kmh</cmt></trkpt>
<trkpt lat="58.865515" lon="05.838170"><ele>30</ele><time>2012-03-31T12:05:11Z</time><cmt>0.0 kmh</cmt></trkpt>
<trkpt lat="58.865515" lon="05.838170"><ele>30</ele><time>2012-03-31T12:05:12Z</time><cmt>0.0 kmh</cmt></trkpt>
<trkpt lat="58.865515" lon="05.838170"><ele>30</ele><time>2012-03-31T12:05:13Z</time><cmt>0.0 kmh</cmt></trkpt>
<trkpt lat="58.865515" lon="05.838170"><ele>30</ele><time>2012-03-31T12:05:14Z</time><cmt>0.0 kmh</cmt></trkpt>
<trkpt lat="58.865515" lon="05.838170"><ele>30</ele><time>2012-03-31T12:05:15Z</time><cmt>0.0 kmh</cmt></trkpt>
<trkpt lat="58.865515" lon="05.838170"><ele>30</ele><time>2012-03-31T12:05:16Z</time><cmt>0.0 kmh</cmt></trkpt>
<trkpt lat="58.865516" lon="05.838170"><ele>30</ele><time>2012-03-31T12:05:17Z</time><cmt>0.0 kmh</cmt></trkpt>
<trkpt lat="58.865516" lon="05.838170"><ele>30</ele><time>2012-03-31T12:05:18Z</time><cmt>0.0 kmh</cmt></trkpt>
<trkpt lat="58.865516" lon="05.838170"><ele>30</ele><time>2012-03-31T12:05:19Z</time><cmt>0.0 kmh</cmt></trkpt>
<trkpt lat="58.865516" lon="05.838171"><ele>30</ele><time>2012-03-31T12:05:20Z</time><cmt>0.0 kmh</cmt></trkpt>
<trkpt lat="58.865517" lon="05.838171"><ele>30</ele><time>2012-03-31T12:05:21Z</time><cmt>0.0 kmh</cmt></trkpt>
<trkpt lat="58.865517" lon="05.838171"><ele>30</ele><time>2012-03-31T12:05:22Z</time><cmt>0.0 kmh</cmt></trkpt>
<trkpt lat="58.865518" lon="05.838171"><ele>30</ele><time>2012-03-31T12:05:23Z</time><cmt>0.0 kmh</cmt></trkpt>
<trkpt lat="58.865517" lon="05.838172"><ele>30</ele><time>2012-03-31T12:05:24Z</time><cmt>0.0 kmh</cmt></trkpt>
<trkpt lat="58.865517" lon="05.838172"><ele>29</ele><time>2012-03-31T12:05:25Z</time><cmt>0.0 kmh</cmt></trkpt>
<trkpt lat="58.865517" lon="05.838172"><ele>29</ele><time>2012-03-31T12:05:26Z</time><cmt>0.0 kmh</cmt></trkpt>
<trkpt lat="58.865516" lon="05.838173"><ele>29</ele><time>2012-03-31T12:05:27Z</time><cmt>0.0 kmh</cmt></trkpt>
<trkpt lat="58.865516" lon="05.838173"><ele>29</ele><time>2012-03-31T12:05:28Z</time><cmt>0.0 kmh</cmt></trkpt>
<trkpt lat="58.865515" lon="05.838174"><ele>29</ele><time>2012-03-31T12:05:29Z</time><cmt>0.0 kmh</cmt></trkpt>
<trkpt lat="58.865515" lon="05.838174"><ele>29</ele><time>2012-03-31T12:05:30Z</time><cmt>0.0 kmh</cmt></trkpt>
<trkpt lat="58.865515" lon="05.838174"><ele>29</ele><time>2012-03-31T12:05:31Z</time><cmt>0.0 kmh</cmt></trkpt>
<trkpt lat="58.865514" lon="05.838175"><ele>29</ele><time>2012-03-31T12:05:32Z</time><cmt>0.0 kmh</cmt></trkpt>
<trkpt lat="58.865514" lon="05.838175"><ele>29</ele><time>2012-03-31T12:05:33Z</time><cmt>0.0 kmh</cmt></trkpt>
<trkpt lat="58.865514" lon="05.838175"><ele>29</ele><time>2012-03-31T12:05:34Z</time><cmt>0.0 kmh</cmt></trkpt>
<trkpt lat="58.865513" lon="05.838176"><ele>29</ele><time>2012-03-31T12:05:35Z</time><cmt>0.0 kmh</cmt></trkpt>
<trkpt lat="58.865513" lon="05.838176"><ele>29</ele><time>2012-03-31T12:05:36Z</time><cmt>0.0 kmh</cmt></trkpt>
<trkpt lat="58.865513" lon="05.838176"><ele>29</ele><time>2012-03-31T12:05:37Z</time><cmt>0.0 kmh</cmt></trkpt>
<trkpt lat="58.865512" lon="05.838177"><ele>29</ele><time>2012-03-31T12:05:38Z</time><cmt>0.0 kmh</cmt></trkpt>
<trkpt lat="58.865512" lon="05.838177"><ele>29</ele><time>2012-03-31T12:05:39Z</time><cmt>0.0 kmh</cmt></trkpt>
<trkpt lat="58.865512" lon="05.838177"><ele>29</ele><time>2012-03-31T12:05:40Z</time><cmt>0.0 kmh</cmt></trkpt>
<trkpt lat="58.865512" lon="05.838177"><ele>29</ele><time>2012-03-31T12:05:41Z</time><cmt>0.0 kmh</cmt></trkpt>
<trkpt lat="58.865512" lon="05.838178"><ele>29</ele><time>2012-03-31T12:05:42Z</time><cmt>0.0 kmh</cmt></trkpt>
<trkpt lat="58.865512" lon="05.838178"><ele>29</ele><time>2012-03-31T12:05:43Z</time><cmt>0.0 kmh</cmt></trkpt>
<trkpt lat="58.865512" lon="05.838178"><ele>29</ele><time>2012-03-31T12:05:44Z</time><cmt>0.0 kmh</cmt></trkpt>
<trkpt lat="58.865512" lon="05.838178"><ele>29</ele><time>2012-03-31T12:05:45Z</time><cmt>0.0 kmh</cmt></trkpt>
<trkpt lat="58.865512" lon="05.838179"><ele>29</ele><time>2012-03-31T12:05:46Z</time><cmt>0.0 kmh</cmt></trkpt>
<trkpt lat="58.865512" lon="05.838179"><ele>29</ele><time>2012-03-31T12:05:47Z</time><cmt>0.0 kmh</cmt></trkpt>
<trkpt lat="58.865512" lon="05.838179"><ele>29</ele><time>2012-03-31T12:05:48Z</time><cmt>0.0 kmh</cmt></trkpt>
<trkpt lat="58.865512" lon="05.838179"><ele>29</ele><time>2012-03-31T12:05:49Z</time><cmt>0.0 kmh</cmt></trkpt>
<trkpt lat="58.865512" lon="05.838179"><ele>29</ele><time>2012-03-31T12:05:50Z</time><cmt>0.0 kmh</cmt></trkpt>
<trkpt lat="58.865511" lon="05.838179"><ele>29</ele><time>2012-03-31T12:05:51Z</time><cmt>0.0 kmh</cmt></trkpt>
<trkpt lat="58.865512" lon="05.838179"><ele>29</ele><time>2012-03-31T12:05:52Z</time><cmt>0.0 kmh</cmt></trkpt>
<trkpt lat="58.865513" lon="05.838176"><ele>29</ele><time>2012-03-31T12:05:53Z</time><cmt>0.2 kmh</cmt></trkpt>
<trkpt lat="58.865516" lon="05.838168"><ele>30</ele><time>2012-03-31T12:05:54Z</time><cmt>0.9 kmh</cmt></trkpt>
<trkpt lat="58.865517" lon="05.838153"><ele>30</ele><time>2012-03-31T12:05:55Z</time><cmt>2.7 kmh</cmt></trkpt>
<trkpt lat="58.865517" lon="05.838136"><ele>30</ele><time>2012-03-31T12:05:56Z</time><cmt>3.6 kmh</cmt></trkpt>
<trkpt lat="58.865515" lon="05.838118"><ele>30</ele><time>2012-03-31T12:05:57Z</time><cmt>3.2 kmh</cmt></trkpt>
<trkpt lat="58.865510" lon="05.838102"><ele>30</ele><time>2012-03-31T12:05:58Z</time><cmt>3.2 kmh</cmt></trkpt>
<trkpt lat="58.865504" lon="05.838088"><ele>30</ele><time>2012-03-31T12:05:59Z</time><cmt>4.1 kmh</cmt></trkpt>
<trkpt lat="58.865498" lon="05.838076"><ele>30</ele><time>2012-03-31T12:06:00Z</time><cmt>4.0 kmh</cmt></trkpt>
<trkpt lat="58.865492" lon="05.838070"><ele>30</ele><time>2012-03-31T12:06:01Z</time><cmt>3.3 kmh</cmt></trkpt>
<trkpt lat="58.865489" lon="05.838066"><ele>31</ele><time>2012-03-31T12:06:02Z</time><cmt>2.2 kmh</cmt></trkpt>
<trkpt lat="58.865486" lon="05.838062"><ele>31</ele><time>2012-03-31T12:06:03Z</time><cmt>1.2 kmh</cmt></trkpt>
<trkpt lat="58.865485" lon="05.838059"><ele>31</ele><time>2012-03-31T12:06:04Z</time><cmt>0.9 kmh</cmt></trkpt>
<trkpt lat="58.865483" lon="05.838056"><ele>31</ele><time>2012-03-31T12:06:05Z</time><cmt>1.0 kmh</cmt></trkpt>
<trkpt lat="58.865481" lon="05.838049"><ele>31</ele><time>2012-03-31T12:06:06Z</time><cmt>1.4 kmh</cmt></trkpt>
<trkpt lat="58.865477" lon="05.838040"><ele>31</ele><time>2012-03-31T12:06:07Z</time><cmt>2.2 kmh</cmt></trkpt>
<trkpt lat="58.865472" lon="05.838031"><ele>31</ele><time>2012-03-31T12:06:08Z</time><cmt>2.8 kmh</cmt></trkpt>
<trkpt lat="58.865466" lon="05.838025"><ele>31</ele><time>2012-03-31T12:06:09Z</time><cmt>2.9 kmh</cmt></trkpt>
<trkpt lat="58.865461" lon="05.838024"><ele>31</ele><time>2012-03-31T12:06:10Z</time><cmt>2.0 kmh</cmt></trkpt>
<trkpt lat="58.865458" lon="05.838024"><ele>31</ele><time>2012-03-31T12:06:11Z</time><cmt>1.4 kmh</cmt></trkpt>
<trkpt lat="58.865455" lon="05.838023"><ele>31</ele><time>2012-03-31T12:06:12Z</time><cmt>1.4 kmh</cmt></trkpt>
<trkpt lat="58.865450" lon="05.838020"><ele>31</ele><time>2012-03-31T12:06:13Z</time><cmt>1.7 kmh</cmt></trkpt>
<trkpt lat="58.865447" lon="05.838016"><ele>31</ele><time>2012-03-31T12:06:14Z</time><cmt>1.9 kmh</cmt></trkpt>
<trkpt lat="58.865446" lon="05.838012"><ele>31</ele><time>2012-03-31T12:06:15Z</time><cmt>1.4 kmh</cmt></trkpt>
<trkpt lat="58.865446" lon="05.838011"><ele>31</ele><time>2012-03-31T12:06:16Z</time><cmt>0.4 kmh</cmt></trkpt>
<trkpt lat="58.865446" lon="05.838010"><ele>31</ele><time>2012-03-31T12:06:17Z</time><cmt>0.0 kmh</cmt></trkpt>
<trkpt lat="58.865445" lon="05.838010"><ele>30</ele><time>2012-03-31T12:06:18Z</time><cmt>0.0 kmh</cmt></trkpt>
<trkpt lat="58.865443" lon="05.838014"><ele>30</ele><time>2012-03-31T12:06:19Z</time><cmt>0.4 kmh</cmt></trkpt>
<trkpt lat="58.865441" lon="05.838021"><ele>30</ele><time>2012-03-31T12:06:20Z</time><cmt>1.1 kmh</cmt></trkpt>
<trkpt lat="58.865438" lon="05.838028"><ele>30</ele><time>2012-03-31T12:06:21Z</time><cmt>1.8 kmh</cmt></trkpt>
<trkpt lat="58.865437" lon="05.838033"><ele>30</ele><time>2012-03-31T12:06:22Z</time><cmt>1.2 kmh</cmt></trkpt>
<trkpt lat="58.865438" lon="05.838037"><ele>30</ele><time>2012-03-31T12:06:23Z</time><cmt>0.9 kmh</cmt></trkpt>
<trkpt lat="58.865440" lon="05.838038"><ele>30</ele><time>2012-03-31T12:06:24Z</time><cmt>0.9 kmh</cmt></trkpt>
<trkpt lat="58.865442" lon="05.838037"><ele>30</ele><time>2012-03-31T12:06:25Z</time><cmt>0.8 kmh</cmt></trkpt>
<trkpt lat="58.865443" lon="05.838036"><ele>29</ele><time>2012-03-31T12:06:26Z</time><cmt>0.6 kmh</cmt></trkpt>
<trkpt lat="58.865444" lon="05.838034"><ele>29</ele><time>2012-03-31T12:06:27Z</time><cmt>0.5 kmh</cmt></trkpt>
<trkpt lat="58.865444" lon="05.838034"><ele>29</ele><time>2012-03-31T12:06:28Z</time><cmt>0.2 kmh</cmt></trkpt>
<trkpt lat="58.865444" lon="05.838033"><ele>29</ele><time>2012-03-31T12:06:29Z</time><cmt>0.0 kmh</cmt></trkpt>
<trkpt lat="58.865444" lon="05.838033"><ele>29</ele><time>2012-03-31T12:06:30Z</time><cmt>0.0 kmh</cmt></trkpt>
<trkpt lat="58.865444" lon="05.838033"><ele>29</ele><time>2012-03-31T12:06:31Z</time><cmt>0.0 kmh</cmt></trkpt>
<trkpt lat="58.865444" lon="05.838033"><ele>29</ele><time>2012-03-31T12:06:32Z</time><cmt>0.0 kmh</cmt></trkpt>
<trkpt lat="58.865445" lon="05.838032"><ele>29</ele><time>2012-03-31T12:06:33Z</time><cmt>0.3 kmh</cmt></trkpt>
<trkpt lat="58.865446" lon="05.838030"><ele>28</ele><time>2012-03-31T12:06:34Z</time><cmt>0.5 kmh</cmt></trkpt>
<trkpt lat="58.865446" lon="05.838029"><ele>28</ele><time>2012-03-31T12:06:35Z</time><cmt>0.3 kmh</cmt></trkpt>
<trkpt lat="58.865447" lon="05.838030"><ele>28</ele><time>2012-03-31T12:06:36Z</time><cmt>0.0 kmh</cmt></trkpt>
<trkpt lat="58.865446" lon="05.838030"><ele>28</ele><time>2012-03-31T12:06:37Z</time><cmt>0.2 kmh</cmt></trkpt>
<trkpt lat="58.865445" lon="05.838030"><ele>28</ele><time>2012-03-31T12:06:38Z</time><cmt>0.2 kmh</cmt></trkpt>
<trkpt lat="58.865445" lon="05.838031"><ele>28</ele><time>2012-03-31T12:06:39Z</time><cmt>0.0 kmh</cmt></trkpt>
<trkpt lat="58.865444" lon="05.838031"><ele>28</ele><time>2012-03-31T12:06:40Z</time><cmt>0.0 kmh</cmt></trkpt>
<trkpt lat="58.865443" lon="05.838032"><ele>28</ele><time>2012-03-31T12:06:41Z</time><cmt>0.0 kmh</cmt></trkpt>
<trkpt lat="58.865443" lon="05.838032"><ele>28</ele><time>2012-03-31T12:06:42Z</time><cmt>0.0 kmh</cmt></trkpt>
<trkpt lat="58.865442" lon="05.838032"><ele>28</ele><time>2012-03-31T12:06:43Z</time><cmt>0.0 kmh</cmt></trkpt>
<trkpt lat="58.865442" lon="05.838032"><ele>28</ele><time>2012-03-31T12:06:44Z</time><cmt>0.0 kmh</cmt></trkpt>
<trkpt lat="58.865442" lon="05.838030"><ele>28</ele><time>2012-03-31T12:06:45Z</time><cmt>0.0 kmh</cmt></trkpt>
<trkpt lat="58.865442" lon="05.838030"><ele>27</ele><time>2012-03-31T12:06:46Z</time><cmt>0.0 kmh</cmt></trkpt>
<trkpt lat="58.865441" lon="05.838030"><ele>27</ele><time>2012-03-31T12:06:47Z</time><cmt>0.0 kmh</cmt></trkpt>
<trkpt lat="58.865441" lon="05.838030"><ele>27</ele><time>2012-03-31T12:06:48Z</time><cmt>0.0 kmh</cmt></trkpt>
<trkpt lat="58.865441" lon="05.838029"><ele>27</ele><time>2012-03-31T12:06:49Z</time><cmt>0.0 kmh</cmt></trkpt>
<trkpt lat="58.865440" lon="05.838028"><ele>27</ele><time>2012-03-31T12:06:50Z</time><cmt>0.0 kmh</cmt></trkpt>
<trkpt lat="58.865440" lon="05.838027"><ele>27</ele><time>2012-03-31T12:06:51Z</time><cmt>0.3 kmh</cmt></trkpt>
<trkpt lat="58.865440" lon="05.838027"><ele>27</ele><time>2012-03-31T12:06:52Z</time><cmt>0.4 kmh</cmt></trkpt>
<trkpt lat="58.865440" lon="05.838026"><ele>27</ele><time>2012-03-31T12:06:53Z</time><cmt>0.1 kmh</cmt></trkpt>
<trkpt lat="58.865440" lon="05.838025"><ele>27</ele><time>2012-03-31T12:06:54Z</time><cmt>0.0 kmh</cmt></trkpt>
<trkpt lat="58.865440" lon="05.838024"><ele>27</ele><time>2012-03-31T12:06:55Z</time><cmt>0.2 kmh</cmt></trkpt>
<trkpt lat="58.865440" lon="05.838023"><ele>27</ele><time>2012-03-31T12:06:56Z</time><cmt>0.4 kmh</cmt></trkpt>
<trkpt lat="58.865439" lon="05.838022"><ele>26</ele><time>2012-03-31T12:06:57Z</time><cmt>0.2 kmh</cmt></trkpt>
<trkpt lat="58.865439" lon="05.838021"><ele>26</ele><time>2012-03-31T12:06:58Z</time><cmt>0.0 kmh</cmt></trkpt>
<trkpt lat="58.865439" lon="05.838020"><ele>26</ele><time>2012-03-31T12:06:59Z</time><cmt>0.0 kmh</cmt></trkpt>
<trkpt lat="58.865439" lon="05.838019"><ele>26</ele><time>2012-03-31T12:07:00Z</time><cmt>0.1 kmh</cmt></trkpt>
<trkpt lat="58.865439" lon="05.838018"><ele>26</ele><time>2012-03-31T12:07:01Z</time><cmt>0.2 kmh</cmt></trkpt>
<trkpt lat="58.865439" lon="05.838018"><ele>26</ele><time>2012-03-31T12:07:02Z</time><cmt>0.0 kmh</cmt></trkpt>
<trkpt lat="58.865439" lon="05.838017"><ele>26</ele><time>2012-03-31T12:07:03Z</time><cmt>0.0 kmh</cmt></trkpt>
<trkpt lat="58.865438" lon="05.838016"><ele>26</ele><time>2012-03-31T12:07:04Z</time><cmt>0.0 kmh</cmt></trkpt>
<trkpt lat="58.865438" lon="05.838015"><ele>26</ele><time>2012-03-31T12:07:05Z</time><cmt>0.0 kmh</cmt></trkpt>
<trkpt lat="58.865438" lon="05.838015"><ele>26</ele><time>2012-03-31T12:07:06Z</time><cmt>0.0 kmh</cmt></trkpt>
<trkpt lat="58.865438" lon="05.838014"><ele>26</ele><time>2012-03-31T12:07:07Z</time><cmt>0.0 kmh</cmt></trkpt>
<trkpt lat="58.865438" lon="05.838014"><ele>26</ele><time>2012-03-31T12:07:08Z</time><cmt>0.0 kmh</cmt></trkpt>
<trkpt lat="58.865437" lon="05.838013"><ele>26</ele><time>2012-03-31T12:07:09Z</time><cmt>0.0 kmh</cmt></trkpt>
<trkpt lat="58.865437" lon="05.838013"><ele>25</ele><time>2012-03-31T12:07:10Z</time><cmt>0.0 kmh</cmt></trkpt>
<trkpt lat="58.865437" lon="05.838012"><ele>25</ele><time>2012-03-31T12:07:11Z</time><cmt>0.2 kmh</cmt></trkpt>
<trkpt lat="58.865437" lon="05.838012"><ele>25</ele><time>2012-03-31T12:07:12Z</time><cmt>0.1 kmh</cmt></trkpt>
<trkpt lat="58.865437" lon="05.838012"><ele>25</ele><time>2012-03-31T12:07:13Z</time><cmt>0.0 kmh</cmt></trkpt>
<trkpt lat="58.865437" lon="05.838011"><ele>25</ele><time>2012-03-31T12:07:14Z</time><cmt>0.0 kmh</cmt></trkpt>
<trkpt lat="58.865436" lon="05.838011"><ele>25</ele><time>2012-03-31T12:07:15Z</time><cmt>0.0 kmh</cmt></trkpt>
<trkpt lat="58.865436" lon="05.838011"><ele>25</ele><time>2012-03-31T12:07:16Z</time><cmt>0.0 kmh</cmt></trkpt>
<trkpt lat="58.865436" lon="05.838011"><ele>25</ele><time>2012-03-31T12:07:17Z</time><cmt>0.0 kmh</cmt></trkpt>
<trkpt lat="58.865436" lon="05.838011"><ele>25</ele><time>2012-03-31T12:07:18Z</time><cmt>0.0 kmh</cmt></trkpt>
<trkpt lat="58.865435" lon="05.838011"><ele>25</ele><time>2012-03-31T12:07:19Z</time><cmt>0.1 kmh</cmt></trkpt>
<trkpt lat="58.865435" lon="05.838011"><ele>25</ele><time>2012-03-31T12:07:20Z</time><cmt>0.4 kmh</cmt></trkpt>
<trkpt lat="58.865434" lon="05.838011"><ele>25</ele><time>2012-03-31T12:07:21Z</time><cmt>0.2 kmh</cmt></trkpt>
<trkpt lat="58.865434" lon="05.838011"><ele>25</ele><time>2012-03-31T12:07:22Z</time><cmt>0.0 kmh</cmt></trkpt>
<trkpt lat="58.865434" lon="05.838011"><ele>25</ele><time>2012-03-31T12:07:23Z</time><cmt>0.0 kmh</cmt></trkpt>
<trkpt lat="58.865433" lon="05.838011"><ele>25</ele><time>2012-03-31T12:07:24Z</time><cmt>0.0 kmh</cmt></trkpt>
<trkpt lat="58.865433" lon="05.838011"><ele>25</ele><time>2012-03-31T12:07:25Z</time><cmt>0.0 kmh</cmt></trkpt>
<trkpt lat="58.865433" lon="05.838011"><ele>25</ele><time>2012-03-31T12:07:26Z</time><cmt>0.0 kmh</cmt></trkpt>
<trkpt lat="58.865432" lon="05.838011"><ele>25</ele><time>2012-03-31T12:07:27Z</time><cmt>0.0 kmh</cmt></trkpt>
<trkpt lat="58.865432" lon="05.838011"><ele>25</ele><time>2012-03-31T12:07:28Z</time><cmt>0.0 kmh</cmt></trkpt>
<trkpt lat="58.865432" lon="05.838011"><ele>25</ele><time>2012-03-31T12:07:29Z</time><cmt>0.0 kmh</cmt></trkpt>
<trkpt lat="58.865431" lon="05.838011"><ele>25</ele><time>2012-03-31T12:07:30Z</time><cmt>0.0 kmh</cmt></trkpt>
<trkpt lat="58.865431" lon="05.838011"><ele>25</ele><time>2012-03-31T12:07:31Z</time><cmt>0.0 kmh</cmt></trkpt>
<trkpt lat="58.865431" lon="05.838011"><ele>25</ele><time>2012-03-31T12:07:32Z</time><cmt>0.0 kmh</cmt></trkpt>
<trkpt lat="58.865430" lon="05.838011"><ele>24</ele><time>2012-03-31T12:07:33Z</time><cmt>0.0 kmh</cmt></trkpt>
<trkpt lat="58.865430" lon="05.838011"><ele>24</ele><time>2012-03-31T12:07:34Z</time><cmt>0.2 kmh</cmt></trkpt>
<trkpt lat="58.865430" lon="05.838012"><ele>24</ele><time>2012-03-31T12:07:35Z</time><cmt>0.2 kmh</cmt></trkpt>
<trkpt lat="58.865429" lon="05.838012"><ele>24</ele><time>2012-03-31T12:07:36Z</time><cmt>0.0 kmh</cmt></trkpt>
<trkpt lat="58.865429" lon="05.838012"><ele>24</ele><time>2012-03-31T12:07:37Z</time><cmt>0.0 kmh</cmt></trkpt>
<trkpt lat="58.865429" lon="05.838012"><ele>24</ele><time>2012-03-31T12:07:38Z</time><cmt>0.0 kmh</cmt></trkpt>
<trkpt lat="58.865429" lon="05.838012"><ele>24</ele><time>2012-03-31T12:07:39Z</time><cmt>0.0 kmh</cmt></trkpt>
<trkpt lat="58.865428" lon="05.838012"><ele>24</ele><time>2012-03-31T12:07:40Z</time><cmt>0.0 kmh</cmt></trkpt>
<trkpt lat="58.865428" lon="05.838012"><ele>24</ele><time>2012-03-31T12:07:41Z</time><cmt>0.0 kmh</cmt></trkpt>
<trkpt lat="58.865428" lon="05.838013"><ele>24</ele><time>2012-03-31T12:07:42Z</time><cmt>0.0 kmh</cmt></trkpt>
<trkpt lat="58.865427" lon="05.838013"><ele>24</ele><time>2012-03-31T12:07:43Z</time><cmt>0.0 kmh</cmt></trkpt>
<trkpt lat="58.865427" lon="05.838013"><ele>24</ele><time>2012-03-31T12:07:44Z</time><cmt>0.0 kmh</cmt></trkpt>
<trkpt lat="58.865427" lon="05.838013"><ele>24</ele><time>2012-03-31T12:07:45Z</time><cmt>0.0 kmh</cmt></trkpt>
<trkpt lat="58.865427" lon="05.838013"><ele>24</ele><time>2012-03-31T12:07:46Z</time><cmt>0.0 kmh</cmt></trkpt>
<trkpt lat="58.865426" lon="05.838013"><ele>24</ele><time>2012-03-31T12:07:47Z</time><cmt>0.2 kmh</cmt></trkpt>
<trkpt lat="58.865426" lon="05.838013"><ele>24</ele><time>2012-03-31T12:07:48Z</time><cmt>0.2 kmh</cmt></trkpt>
<trkpt lat="58.865426" lon="05.838013"><ele>24</ele><time>2012-03-31T12:07:49Z</time><cmt>0.0 kmh</cmt></trkpt>
<trkpt lat="58.865426" lon="05.838013"><ele>24</ele><time>2012-03-31T12:07:50Z</time><cmt>0.0 kmh</cmt></trkpt>
<trkpt lat="58.865425" lon="05.838013"><ele>24</ele><time>2012-03-31T12:07:51Z</time><cmt>0.0 kmh</cmt></trkpt>
<trkpt lat="58.865425" lon="05.838014"><ele>24</ele><time>2012-03-31T12:07:52Z</time><cmt>0.0 kmh</cmt></trkpt>
<trkpt lat="58.865425" lon="05.838014"><ele>24</ele><time>2012-03-31T12:07:53Z</time><cmt>0.0 kmh</cmt></trkpt>
<trkpt lat="58.865425" lon="05.838014"><ele>24</ele><time>2012-03-31T12:07:54Z</time><cmt>0.0 kmh</cmt></trkpt>
<trkpt lat="58.865425" lon="05.838014"><ele>24</ele><time>2012-03-31T12:07:55Z</time><cmt>0.0 kmh</cmt></trkpt>
<trkpt lat="58.865425" lon="05.838014"><ele>24</ele><time>2012-03-31T12:07:56Z</time><cmt>0.0 kmh</cmt></trkpt>
<trkpt lat="58.865424" lon="05.838014"><ele>24</ele><time>2012-03-31T12:07:57Z</time><cmt>0.0 kmh</cmt></trkpt>
<trkpt lat="58.865424" lon="05.838014"><ele>24</ele><time>2012-03-31T12:07:58Z</time><cmt>0.0 kmh</cmt></trkpt>
<trkpt lat="58.865424" lon="05.838014"><ele>24</ele><time>2012-03-31T12:07:59Z</time><cmt>0.0 kmh</cmt></trkpt>
<trkpt lat="58.865424" lon="05.838014"><ele>24</ele><time>2012-03-31T12:08:00Z</time><cmt>0.0 kmh</cmt></trkpt>
<trkpt lat="58.865424" lon="05.838014"><ele>24</ele><time>2012-03-31T12:08:01Z</time><cmt>0.0 kmh</cmt></trkpt>
<trkpt lat="58.865424" lon="05.838014"><ele>24</ele><time>2012-03-31T12:08:02Z</time><cmt>0.0 kmh</cmt></trkpt>
<trkpt lat="58.865424" lon="05.838013"><ele>24</ele><time>2012-03-31T12:08:03Z</time><cmt>0.0 kmh</cmt></trkpt>
<trkpt lat="58.865424" lon="05.838013"><ele>24</ele><time>2012-03-31T12:08:04Z</time><cmt>0.0 kmh</cmt></trkpt>
<trkpt lat="58.865424" lon="05.838013"><ele>24</ele><time>2012-03-31T12:08:05Z</time><cmt>0.0 kmh</cmt></trkpt>
<trkpt lat="58.865424" lon="05.838013"><ele>24</ele><time>2012-03-31T12:08:06Z</time><cmt>0.0 kmh</cmt></trkpt>
<trkpt lat="58.865424" lon="05.838013"><ele>24</ele><time>2012-03-31T12:08:07Z</time><cmt>0.0 kmh</cmt></trkpt>
<trkpt lat="58.865423" lon="05.838013"><ele>24</ele><time>2012-03-31T12:08:08Z</time><cmt>0.0 kmh</cmt></trkpt>
<trkpt lat="58.865423" lon="05.838013"><ele>24</ele><time>2012-03-31T12:08:09Z</time><cmt>0.0 kmh</cmt></trkpt>
<trkpt lat="58.865423" lon="05.838013"><ele>24</ele><time>2012-03-31T12:08:10Z</time><cmt>0.2 kmh</cmt></trkpt>
<trkpt lat="58.865423" lon="05.838013"><ele>24</ele><time>2012-03-31T12:08:11Z</time><cmt>0.4 kmh</cmt></trkpt>
<trkpt lat="58.865423" lon="05.838013"><ele>24</ele><time>2012-03-31T12:08:12Z</time><cmt>0.2 kmh</cmt></trkpt>
<trkpt lat="58.865423" lon="05.838013"><ele>24</ele><time>2012-03-31T12:08:13Z</time><cmt>0.0 kmh</cmt></trkpt>
<trkpt lat="58.865423" lon="05.838012"><ele>24</ele><time>2012-03-31T12:08:14Z</time><cmt>0.0 kmh</cmt></trkpt>
<trkpt lat="58.865423" lon="05.838012"><ele>24</ele><time>2012-03-31T12:08:15Z</time><cmt>0.0 kmh</cmt></trkpt>
<trkpt lat="58.865423" lon="05.838012"><ele>24</ele><time>2012-03-31T12:08:16Z</time><cmt>0.0 kmh</cmt></trkpt>
<trkpt lat="58.865423" lon="05.838012"><ele>24</ele><time>2012-03-31T12:08:17Z</time><cmt>0.2 kmh</cmt></trkpt>
<trkpt lat="58.865424" lon="05.838012"><ele>24</ele><time>2012-03-31T12:08:18Z</time><cmt>0.2 kmh</cmt></trkpt>
<trkpt lat="58.865424" lon="05.838011"><ele>24</ele><time>2012-03-31T12:08:19Z</time><cmt>0.0 kmh</cmt></trkpt>
<trkpt lat="58.865424" lon="05.838011"><ele>24</ele><time>2012-03-31T12:08:20Z</time><cmt>0.0 kmh</cmt></trkpt>
<trkpt lat="58.865424" lon="05.838011"><ele>24</ele><time>2012-03-31T12:08:21Z</time><cmt>0.0 kmh</cmt></trkpt>
<trkpt lat="58.865424" lon="05.838011"><ele>24</ele><time>2012-03-31T12:08:22Z</time><cmt>0.0 kmh</cmt></trkpt>
<trkpt lat="58.865424" lon="05.838011"><ele>24</ele><time>2012-03-31T12:08:23Z</time><cmt>0.0 kmh</cmt></trkpt>
<trkpt lat="58.865424" lon="05.838011"><ele>24</ele><time>2012-03-31T12:08:24Z</time><cmt>0.0 kmh</cmt></trkpt>
<trkpt lat="58.865423" lon="05.838010"><ele>24</ele><time>2012-03-31T12:08:25Z</time><cmt>0.0 kmh</cmt></trkpt>
<trkpt lat="58.865423" lon="05.838010"><ele>24</ele><time>2012-03-31T12:08:26Z</time><cmt>0.0 kmh</cmt></trkpt>
<trkpt lat="58.865423" lon="05.838010"><ele>24</ele><time>2012-03-31T12:08:27Z</time><cmt>0.0 kmh</cmt></trkpt>
<trkpt lat="58.865423" lon="05.838010"><ele>24</ele><time>2012-03-31T12:08:28Z</time><cmt>0.0 kmh</cmt></trkpt>
<trkpt lat="58.865423" lon="05.838010"><ele>24</ele><time>2012-03-31T12:08:29Z</time><cmt>0.2 kmh</cmt></trkpt>
<trkpt lat="58.865423" lon="05.838010"><ele>24</ele><time>2012-03-31T12:08:30Z</time><cmt>0.2 kmh</cmt></trkpt>
<trkpt lat="58.865423" lon="05.838010"><ele>24</ele><time>2012-03-31T12:08:31Z</time><cmt>0.0 kmh</cmt></trkpt>
<trkpt lat="58.865423" lon="05.838010"><ele>24</ele><time>2012-03-31T12:08:32Z</time><cmt>0.1 kmh</cmt></trkpt>
<trkpt lat="58.865423" lon="05.838010"><ele>23</ele><time>2012-03-31T12:08:33Z</time><cmt>0.1 kmh</cmt></trkpt>
<trkpt lat="58.865423" lon="05.838010"><ele>23</ele><time>2012-03-31T12:08:34Z</time><cmt>0.0 kmh</cmt></trkpt>
<trkpt lat="58.865422" lon="05.838009"><ele>23</ele><time>2012-03-31T12:08:35Z</time><cmt>0.0 kmh</cmt></trkpt>
<trkpt lat="58.865422" lon="05.838009"><ele>23</ele><time>2012-03-31T12:08:36Z</time><cmt>0.0 kmh</cmt></trkpt>
<trkpt lat="58.865422" lon="05.838009"><ele>23</ele><time>2012-03-31T12:08:37Z</time><cmt>0.0 kmh</cmt></trkpt>
<trkpt lat="58.865422" lon="05.838009"><ele>23</ele><time>2012-03-31T12:08:38Z</time><cmt>0.0 kmh</cmt></trkpt>
<trkpt lat="58.865422" lon="05.838009"><ele>23</ele><time>2012-03-31T12:08:39Z</time><cmt>0.0 kmh</cmt></trkpt>
<trkpt lat="58.865422" lon="05.838009"><ele>23</ele><time>2012-03-31T12:08:40Z</time><cmt>0.0 kmh</cmt></trkpt>
<trkpt lat="58.865422" lon="05.838009"><ele>23</ele><time>2012-03-31T12:08:41Z</time><cmt>0.0 kmh</cmt></trkpt>
<trkpt lat="58.865422" lon="05.838009"><ele>23</ele><time>2012-03-31T12:08:42Z</time><cmt>0.0 kmh</cmt></trkpt>
<trkpt lat="58.865422" lon="05.838008"><ele>23</ele><time>2012-03-31T12:08:43Z</time><cmt>0.0 kmh</cmt></trkpt>
<trkpt lat="58.865422" lon="05.838008"><ele>23</ele><time>2012-03-31T12:08:44Z</time><cmt>0.0 kmh</cmt></trkpt>
<trkpt lat="58.865422" lon="05.838008"><ele>23</ele><time>2012-03-31T12:08:45Z</time><cmt>0.0 kmh</cmt></trkpt>
<trkpt lat="58.865422" lon="05.838008"><ele>23</ele><time>2012-03-31T12:08:46Z</time><cmt>0.0 kmh</cmt></trkpt>
<trkpt lat="58.865422" lon="05.838008"><ele>23</ele><time>2012-03-31T12:08:47Z</time><cmt>0.0 kmh</cmt></trkpt>
<trkpt lat="58.865422" lon="05.838008"><ele>23</ele><time>2012-03-31T12:08:48Z</time><cmt>0.0 kmh</cmt></trkpt>
<trkpt lat="58.865422" lon="05.838008"><ele>23</ele><time>2012-03-31T12:08:49Z</time><cmt>0.0 kmh</cmt></trkpt>
<trkpt lat="58.865422" lon="05.838007"><ele>23</ele><time>2012-03-31T12:08:50Z</time><cmt>0.0 kmh</cmt></trkpt>
<trkpt lat="58.865422" lon="05.838007"><ele>23</ele><time>2012-03-31T12:08:51Z</time><cmt>0.0 kmh</cmt></trkpt>
<trkpt lat="58.865422" lon="05.838007"><ele>23</ele><time>2012-03-31T12:08:52Z</time><cmt>0.0 kmh</cmt></trkpt>
<trkpt lat="58.865422" lon="05.838007"><ele>23</ele><time>2012-03-31T12:08:53Z</time><cmt>0.0 kmh</cmt></trkpt>
<trkpt lat="58.865422" lon="05.838007"><ele>23</ele><time>2012-03-31T12:08:54Z</time><cmt>0.0 kmh</cmt></trkpt>
<trkpt lat="58.865422" lon="05.838007"><ele>23</ele><time>2012-03-31T12:08:55Z</time><cmt>0.0 kmh</cmt></trkpt>
<trkpt lat="58.865422" lon="05.838006"><ele>23</ele><time>2012-03-31T12:08:56Z</time><cmt>0.0 kmh</cmt></trkpt>
<trkpt lat="58.865422" lon="05.838006"><ele>23</ele><time>2012-03-31T12:08:57Z</time><cmt>0.0 kmh</cmt></trkpt>
<trkpt lat="58.865422" lon="05.838006"><ele>23</ele><time>2012-03-31T12:08:58Z</time><cmt>0.0 kmh</cmt></trkpt>
<trkpt lat="58.865422" lon="05.838006"><ele>23</ele><time>2012-03-31T12:08:59Z</time><cmt>0.0 kmh</cmt></trkpt>
<trkpt lat="58.865422" lon="05.838006"><ele>23</ele><time>2012-03-31T12:09:00Z</time><cmt>0.0 kmh</cmt></trkpt>
<trkpt lat="58.865422" lon="05.838005"><ele>23</ele><time>2012-03-31T12:09:01Z</time><cmt>0.0 kmh</cmt></trkpt>
<trkpt lat="58.865422" lon="05.838005"><ele>23</ele><time>2012-03-31T12:09:02Z</time><cmt>0.0 kmh</cmt></trkpt>
<trkpt lat="58.865422" lon="05.838005"><ele>23</ele><time>2012-03-31T12:09:03Z</time><cmt>0.0 kmh</cmt></trkpt>
<trkpt lat="58.865422" lon="05.838005"><ele>23</ele><time>2012-03-31T12:09:04Z</time><cmt>0.0 kmh</cmt></trkpt>
<trkpt lat="58.865422" lon="05.838005"><ele>23</ele><time>2012-03-31T12:09:05Z</time><cmt>0.0 kmh</cmt></trkpt>
<trkpt lat="58.865422" lon="05.838004"><ele>23</ele><time>2012-03-31T12:09:06Z</time><cmt>0.0 kmh</cmt></trkpt>
<trkpt lat="58.865422" lon="05.838004"><ele>23</ele><time>2012-03-31T12:09:07Z</time><cmt>0.0 kmh</cmt></trkpt>
<trkpt lat="58.865422" lon="05.838004"><ele>23</ele><time>2012-03-31T12:09:08Z</time><cmt>0.0 kmh</cmt></trkpt>
<trkpt lat="58.865422" lon="05.838004"><ele>23</ele><time>2012-03-31T12:09:09Z</time><cmt>0.0 kmh</cmt></trkpt>
<trkpt lat="58.865422" lon="05.838004"><ele>23</ele><time>2012-03-31T12:09:10Z</time><cmt>0.0 kmh</cmt></trkpt>
<trkpt lat="58.865422" lon="05.838003"><ele>23</ele><time>2012-03-31T12:09:11Z</time><cmt>0.0 kmh</cmt></trkpt>
<trkpt lat="58.865422" lon="05.838003"><ele>23</ele><time>2012-03-31T12:09:12Z</time><cmt>0.0 kmh</cmt></trkpt>
<trkpt lat="58.865423" lon="05.838003"><ele>23</ele><time>2012-03-31T12:09:13Z</time><cmt>0.0 kmh</cmt></trkpt>
<trkpt lat="58.865423" lon="05.838003"><ele>23</ele><time>2012-03-31T12:09:14Z</time><cmt>0.0 kmh</cmt></trkpt>
<trkpt lat="58.865423" lon="05.838003"><ele>23</ele><time>2012-03-31T12:09:15Z</time><cmt>0.0 kmh</cmt></trkpt>
<trkpt lat="58.865423" lon="05.838003"><ele>23</ele><time>2012-03-31T12:09:16Z</time><cmt>0.0 kmh</cmt></trkpt>
<trkpt lat="58.865422" lon="05.838003"><ele>23</ele><time>2012-03-31T12:09:17Z</time><cmt>0.0 kmh</cmt></trkpt>
<trkpt lat="58.865422" lon="05.838003"><ele>23</ele><time>2012-03-31T12:09:18Z</time><cmt>0.0 kmh</cmt></trkpt>
<trkpt lat="58.865422" lon="05.838003"><ele>23</ele><time>2012-03-31T12:09:20Z</time><cmt>0.0 kmh</cmt></trkpt>
<trkpt lat="58.865422" lon="05.838002"><ele>23</ele><time>2012-03-31T12:09:21Z</time><cmt>0.0 kmh</cmt></trkpt>
<trkpt lat="58.865422" lon="05.838002"><ele>23</ele><time>2012-03-31T12:09:22Z</time><cmt>0.0 kmh</cmt></trkpt>
<trkpt lat="58.865422" lon="05.838002"><ele>23</ele><time>2012-03-31T12:09:23Z</time><cmt>0.0 kmh</cmt></trkpt>
<trkpt lat="58.865422" lon="05.838002"><ele>23</ele><time>2012-03-31T12:09:24Z</time><cmt>0.0 kmh</cmt></trkpt>
<trkpt lat="58.865422" lon="05.838002"><ele>23</ele><time>2012-03-31T12:09:25Z</time><cmt>0.0 kmh</cmt></trkpt>
<trkpt lat="58.865422" lon="05.838002"><ele>23</ele><time>2012-03-31T12:09:26Z</time><cmt>0.0 kmh</cmt></trkpt>
<trkpt lat="58.865422" lon="05.838002"><ele>23</ele><time>2012-03-31T12:09:27Z</time><cmt>0.0 kmh</cmt></trkpt>
<trkpt lat="58.865423" lon="05.838001"><ele>23</ele><time>2012-03-31T12:09:28Z</time><cmt>0.0 kmh</cmt></trkpt>
<trkpt lat="58.865423" lon="05.838001"><ele>23</ele><time>2012-03-31T12:09:29Z</time><cmt>0.0 kmh</cmt></trkpt>
<trkpt lat="58.865422" lon="05.838001"><ele>23</ele><time>2012-03-31T12:09:30Z</time><cmt>0.0 kmh</cmt></trkpt>
<trkpt lat="58.865422" lon="05.838001"><ele>23</ele><time>2012-03-31T12:09:31Z</time><cmt>0.0 kmh</cmt></trkpt>
<trkpt lat="58.865421" lon="05.838001"><ele>23</ele><time>2012-03-31T12:09:32Z</time><cmt>0.0 kmh</cmt></trkpt>
<trkpt lat="58.865421" lon="05.838001"><ele>23</ele><time>2012-03-31T12:09:33Z</time><cmt>0.0 kmh</cmt></trkpt>
<trkpt lat="58.865421" lon="05.838001"><ele>23</ele><time>2012-03-31T12:09:34Z</time><cmt>0.0 kmh</cmt></trkpt>
<trkpt lat="58.865421" lon="05.838001"><ele>23</ele><time>2012-03-31T12:09:35Z</time><cmt>0.0 kmh</cmt></trkpt>
<trkpt lat="58.865421" lon="05.838001"><ele>23</ele><time>2012-03-31T12:09:36Z</time><cmt>0.0 kmh</cmt></trkpt>
<trkpt lat="58.865421" lon="05.838001"><ele>23</ele><time>2012-03-31T12:09:37Z</time><cmt>0.0 kmh</cmt></trkpt>
<trkpt lat="58.865421" lon="05.838001"><ele>23</ele><time>2012-03-31T12:09:38Z</time><cmt>0.2 kmh</cmt></trkpt>
<trkpt lat="58.865421" lon="05.838000"><ele>22</ele><time>2012-03-31T12:09:40Z</time><cmt>0.0 kmh</cmt></trkpt>
<trkpt lat="58.865421" lon="05.838000"><ele>22</ele><time>2012-03-31T12:09:41Z</time><cmt>0.0 kmh</cmt></trkpt>
<trkpt lat="58.865420" lon="05.838001"><ele>22</ele><time>2012-03-31T12:09:42Z</time><cmt>0.3 kmh</cmt></trkpt>
<trkpt lat="58.865419" lon="05.838003"><ele>22</ele><time>2012-03-31T12:09:43Z</time><cmt>0.5 kmh</cmt></trkpt>
<trkpt lat="58.865419" lon="05.838003"><ele>22</ele><time>2012-03-31T12:09:44Z</time><cmt>0.5 kmh</cmt></trkpt>
<trkpt lat="58.865418" lon="05.838004"><ele>22</ele><time>2012-03-31T12:09:45Z</time><cmt>0.3 kmh</cmt></trkpt>
<trkpt lat="58.865417" lon="05.838004"><ele>22</ele><time>2012-03-31T12:09:46Z</time><cmt>0.2 kmh</cmt></trkpt>
<trkpt lat="58.865416" lon="05.838004"><ele>22</ele><time>2012-03-31T12:09:47Z</time><cmt>0.4 kmh</cmt></trkpt>
<trkpt lat="58.865415" lon="05.838004"><ele>22</ele><time>2012-03-31T12:09:48Z</time><cmt>0.6 kmh</cmt></trkpt>
<trkpt lat="58.865413" lon="05.838005"><ele>22</ele><time>2012-03-31T12:09:49Z</time><cmt>0.7 kmh</cmt></trkpt>
<trkpt lat="58.865412" lon="05.838007"><ele>22</ele><time>2012-03-31T12:09:50Z</time><cmt>0.8 kmh</cmt></trkpt>
<trkpt lat="58.865410" lon="05.838009"><ele>22</ele><time>2012-03-31T12:09:51Z</time><cmt>0.9 kmh</cmt></trkpt>
<trkpt lat="58.865409" lon="05.838012"><ele>22</ele><time>2012-03-31T12:09:52Z</time><cmt>0.9 kmh</cmt></trkpt>
<trkpt lat="58.865407" lon="05.838015"><ele>22</ele><time>2012-03-31T12:09:53Z</time><cmt>0.8 kmh</cmt></trkpt>
<trkpt lat="58.865406" lon="05.838018"><ele>22</ele><time>2012-03-31T12:09:54Z</time><cmt>0.8 kmh</cmt></trkpt>
<trkpt lat="58.865404" lon="05.838021"><ele>22</ele><time>2012-03-31T12:09:55Z</time><cmt>0.9 kmh</cmt></trkpt>
<trkpt lat="58.865402" lon="05.838024"><ele>22</ele><time>2012-03-31T12:09:56Z</time><cmt>1.0 kmh</cmt></trkpt>
<trkpt lat="58.865401" lon="05.838027"><ele>22</ele><time>2012-03-31T12:09:57Z</time><cmt>1.0 kmh</cmt></trkpt>
<trkpt lat="58.865399" lon="05.838030"><ele>22</ele><time>2012-03-31T12:09:58Z</time><cmt>0.8 kmh</cmt></trkpt>
<trkpt lat="58.865398" lon="05.838032"><ele>22</ele><time>2012-03-31T12:09:59Z</time><cmt>0.6 kmh</cmt></trkpt>
<trkpt lat="58.865397" lon="05.838034"><ele>22</ele><time>2012-03-31T12:10:00Z</time><cmt>0.6 kmh</cmt></trkpt>
<trkpt lat="58.865396" lon="05.838037"><ele>22</ele><time>2012-03-31T12:10:01Z</time><cmt>0.7 kmh</cmt></trkpt>
<trkpt lat="58.865394" lon="05.838039"><ele>22</ele><time>2012-03-31T12:10:02Z</time><cmt>0.7 kmh</cmt></trkpt>
<trkpt lat="58.865393" lon="05.838042"><ele>22</ele><time>2012-03-31T12:10:03Z</time><cmt>0.7 kmh</cmt></trkpt>
<trkpt lat="58.865392" lon="05.838044"><ele>22</ele><time>2012-03-31T12:10:04Z</time><cmt>0.7 kmh</cmt></trkpt>
<trkpt lat="58.865391" lon="05.838046"><ele>22</ele><time>2012-03-31T12:10:05Z</time><cmt>0.6 kmh</cmt></trkpt>
<trkpt lat="58.865390" lon="05.838047"><ele>22</ele><time>2012-03-31T12:10:06Z</time><cmt>0.4 kmh</cmt></trkpt>
<trkpt lat="58.865389" lon="05.838047"><ele>22</ele><time>2012-03-31T12:10:07Z</time><cmt>0.4 kmh</cmt></trkpt>
<trkpt lat="58.865388" lon="05.838047"><ele>22</ele><time>2012-03-31T12:10:08Z</time><cmt>0.5 kmh</cmt></trkpt>
<trkpt lat="58.865387" lon="05.838048"><ele>22</ele><time>2012-03-31T12:10:09Z</time><cmt>0.5 kmh</cmt></trkpt>
<trkpt lat="58.865386" lon="05.838048"><ele>22</ele><time>2012-03-31T12:10:10Z</time><cmt>0.5 kmh</cmt></trkpt>
<trkpt lat="58.865385" lon="05.838049"><ele>22</ele><time>2012-03-31T12:10:11Z</time><cmt>0.4 kmh</cmt></trkpt>
<trkpt lat="58.865383" lon="05.838049"><ele>22</ele><time>2012-03-31T12:10:12Z</time><cmt>0.4 kmh</cmt></trkpt>
<trkpt lat="58.865382" lon="05.838050"><ele>22</ele><time>2012-03-31T12:10:13Z</time><cmt>0.3 kmh</cmt></trkpt>
<trkpt lat="58.865381" lon="05.838051"><ele>22</ele><time>2012-03-31T12:10:14Z</time><cmt>0.3 kmh</cmt></trkpt>
<trkpt lat="58.865380" lon="05.838052"><ele>22</ele><time>2012-03-31T12:10:15Z</time><cmt>0.4 kmh</cmt></trkpt>
<trkpt lat="58.865379" lon="05.838053"><ele>22</ele><time>2012-03-31T12:10:16Z</time><cmt>0.4 kmh</cmt></trkpt>
<trkpt lat="58.865378" lon="05.838054"><ele>22</ele><time>2012-03-31T12:10:17Z</time><cmt>0.5 kmh</cmt></trkpt>
<trkpt lat="58.865377" lon="05.838055"><ele>22</ele><time>2012-03-31T12:10:18Z</time><cmt>0.4 kmh</cmt></trkpt>
<trkpt lat="58.865376" lon="05.838056"><ele>22</ele><time>2012-03-31T12:10:19Z</time><cmt>0.4 kmh</cmt></trkpt>
<trkpt lat="58.865375" lon="05.838057"><ele>22</ele><time>2012-03-31T12:10:20Z</time><cmt>0.5 kmh</cmt></trkpt>
<trkpt lat="58.865374" lon="05.838057"><ele>22</ele><time>2012-03-31T12:10:21Z</time><cmt>0.4 kmh</cmt></trkpt>
<trkpt lat="58.865372" lon="05.838057"><ele>22</ele><time>2012-03-31T12:10:22Z</time><cmt>0.6 kmh</cmt></trkpt>
<trkpt lat="58.865370" lon="05.838055"><ele>22</ele><time>2012-03-31T12:10:23Z</time><cmt>0.9 kmh</cmt></trkpt>
<trkpt lat="58.865368" lon="05.838053"><ele>22</ele><time>2012-03-31T12:10:24Z</time><cmt>0.8 kmh</cmt></trkpt>
<trkpt lat="58.865366" lon="05.838051"><ele>22</ele><time>2012-03-31T12:10:25Z</time><cmt>0.7 kmh</cmt></trkpt>
<trkpt lat="58.865364" lon="05.838048"><ele>23</ele><time>2012-03-31T12:10:26Z</time><cmt>1.1 kmh</cmt></trkpt>
<trkpt lat="58.865362" lon="05.838047"><ele>23</ele><time>2012-03-31T12:10:27Z</time><cmt>1.1 kmh</cmt></trkpt>
<trkpt lat="58.865359" lon="05.838045"><ele>23</ele><time>2012-03-31T12:10:28Z</time><cmt>1.1 kmh</cmt></trkpt>
<trkpt lat="58.865354" lon="05.838045"><ele>23</ele><time>2012-03-31T12:10:29Z</time><cmt>1.6 kmh</cmt></trkpt>
<trkpt lat="58.865349" lon="05.838047"><ele>23</ele><time>2012-03-31T12:10:30Z</time><cmt>1.7 kmh</cmt></trkpt>
<trkpt lat="58.865343" lon="05.838052"><ele>23</ele><time>2012-03-31T12:10:31Z</time><cmt>2.1 kmh</cmt></trkpt>
<trkpt lat="58.865336" lon="05.838059"><ele>23</ele><time>2012-03-31T12:10:32Z</time><cmt>3.2 kmh</cmt></trkpt>
<trkpt lat="58.865329" lon="05.838066"><ele>23</ele><time>2012-03-31T12:10:33Z</time><cmt>3.3 kmh</cmt></trkpt>
<trkpt lat="58.865322" lon="05.838073"><ele>23</ele><time>2012-03-31T12:10:34Z</time><cmt>3.3 kmh</cmt></trkpt>
<trkpt lat="58.865316" lon="05.838079"><ele>24</ele><time>2012-03-31T12:10:35Z</time><cmt>3.1 kmh</cmt></trkpt>
<trkpt lat="58.865311" lon="05.838087"><ele>24</ele><time>2012-03-31T12:10:36Z</time><cmt>2.4 kmh</cmt></trkpt>
<trkpt lat="58.865305" lon="05.838096"><ele>24</ele><time>2012-03-31T12:10:37Z</time><cmt>2.4 kmh</cmt></trkpt>
<trkpt lat="58.865300" lon="05.838104"><ele>24</ele><time>2012-03-31T12:10:38Z</time><cmt>2.8 kmh</cmt></trkpt>
<trkpt lat="58.865296" lon="05.838111"><ele>24</ele><time>2012-03-31T12:10:39Z</time><cmt>2.6 kmh</cmt></trkpt>
<trkpt lat="58.865292" lon="05.838116"><ele>24</ele><time>2012-03-31T12:10:40Z</time><cmt>2.3 kmh</cmt></trkpt>
<trkpt lat="58.865288" lon="05.838120"><ele>24</ele><time>2012-03-31T12:10:41Z</time><cmt>1.9 kmh</cmt></trkpt>
<trkpt lat="58.865287" lon="05.838121"><ele>24</ele><time>2012-03-31T12:10:42Z</time><cmt>0.9 kmh</cmt></trkpt>
<trkpt lat="58.865286" lon="05.838120"><ele>24</ele><time>2012-03-31T12:10:43Z</time><cmt>0.3 kmh</cmt></trkpt>
<trkpt lat="58.865286" lon="05.838119"><ele>24</ele><time>2012-03-31T12:10:44Z</time><cmt>0.2 kmh</cmt></trkpt>
<trkpt lat="58.865285" lon="05.838118"><ele>24</ele><time>2012-03-31T12:10:45Z</time><cmt>0.2 kmh</cmt></trkpt>
<trkpt lat="58.865285" lon="05.838118"><ele>24</ele><time>2012-03-31T12:10:46Z</time><cmt>0.0 kmh</cmt></trkpt>
<trkpt lat="58.865284" lon="05.838117"><ele>24</ele><time>2012-03-31T12:10:47Z</time><cmt>0.0 kmh</cmt></trkpt>
<trkpt lat="58.865283" lon="05.838117"><ele>24</ele><time>2012-03-31T12:10:48Z</time><cmt>0.3 kmh</cmt></trkpt>
<trkpt lat="58.865281" lon="05.838117"><ele>24</ele><time>2012-03-31T12:10:49Z</time><cmt>0.4 kmh</cmt></trkpt>
<trkpt lat="58.865280" lon="05.838116"><ele>24</ele><time>2012-03-31T12:10:50Z</time><cmt>0.4 kmh</cmt></trkpt>
<trkpt lat="58.865279" lon="05.838116"><ele>24</ele><time>2012-03-31T12:10:51Z</time><cmt>0.5 kmh</cmt></trkpt>
<trkpt lat="58.865278" lon="05.838116"><ele>24</ele><time>2012-03-31T12:10:52Z</time><cmt>0.5 kmh</cmt></trkpt>
<trkpt lat="58.865276" lon="05.838116"><ele>24</ele><time>2012-03-31T12:10:53Z</time><cmt>0.3 kmh</cmt></trkpt>
<trkpt lat="58.865275" lon="05.838116"><ele>24</ele><time>2012-03-31T12:10:54Z</time><cmt>0.2 kmh</cmt></trkpt>
<trkpt lat="58.865274" lon="05.838115"><ele>24</ele><time>2012-03-31T12:10:55Z</time><cmt>0.4 kmh</cmt></trkpt>
<trkpt lat="58.865273" lon="05.838115"><ele>24</ele><time>2012-03-31T12:10:56Z</time><cmt>0.4 kmh</cmt></trkpt>
<trkpt lat="58.865271" lon="05.838115"><ele>24</ele><time>2012-03-31T12:10:57Z</time><cmt>0.5 kmh</cmt></trkpt>
<trkpt lat="58.865270" lon="05.838114"><ele>24</ele><time>2012-03-31T12:10:58Z</time><cmt>0.5 kmh</cmt></trkpt>
<trkpt lat="58.865269" lon="05.838113"><ele>24</ele><time>2012-03-31T12:10:59Z</time><cmt>0.3 kmh</cmt></trkpt>
<trkpt lat="58.865269" lon="05.838113"><ele>24</ele><time>2012-03-31T12:11:00Z</time><cmt>0.2 kmh</cmt></trkpt>
<trkpt lat="58.865268" lon="05.838113"><ele>24</ele><time>2012-03-31T12:11:01Z</time><cmt>0.3 kmh</cmt></trkpt>
<trkpt lat="58.865267" lon="05.838113"><ele>24</ele><time>2012-03-31T12:11:02Z</time><cmt>0.1 kmh</cmt></trkpt>
<trkpt lat="58.865266" lon="05.838113"><ele>24</ele><time>2012-03-31T12:11:03Z</time><cmt>0.2 kmh</cmt></trkpt>
<trkpt lat="58.865265" lon="05.838113"><ele>24</ele><time>2012-03-31T12:11:04Z</time><cmt>0.4 kmh</cmt></trkpt>
<trkpt lat="58.865264" lon="05.838114"><ele>24</ele><time>2012-03-31T12:11:05Z</time><cmt>0.5 kmh</cmt></trkpt>
<trkpt lat="58.865263" lon="05.838114"><ele>24</ele><time>2012-03-31T12:11:06Z</time><cmt>0.5 kmh</cmt></trkpt>
<trkpt lat="58.865262" lon="05.838114"><ele>24</ele><time>2012-03-31T12:11:07Z</time><cmt>0.2 kmh</cmt></trkpt>
<trkpt lat="58.865261" lon="05.838115"><ele>24</ele><time>2012-03-31T12:11:08Z</time><cmt>0.2 kmh</cmt></trkpt>
<trkpt lat="58.865259" lon="05.838115"><ele>24</ele><time>2012-03-31T12:11:09Z</time><cmt>0.6 kmh</cmt></trkpt>
<trkpt lat="58.865258" lon="05.838116"><ele>24</ele><time>2012-03-31T12:11:10Z</time><cmt>0.7 kmh</cmt></trkpt>
<trkpt lat="58.865256" lon="05.838116"><ele>24</ele><time>2012-03-31T12:11:11Z</time><cmt>0.7 kmh</cmt></trkpt>
<trkpt lat="58.865255" lon="05.838118"><ele>24</ele><time>2012-03-31T12:11:12Z</time><cmt>0.7 kmh</cmt></trkpt>
<trkpt lat="58.865253" lon="05.838119"><ele>24</ele><time>2012-03-31T12:11:13Z</time><cmt>0.5 kmh</cmt></trkpt>
<trkpt lat="58.865252" lon="05.838120"><ele>24</ele><time>2012-03-31T12:11:14Z</time><cmt>0.4 kmh</cmt></trkpt>
<trkpt lat="58.865251" lon="05.838121"><ele>24</ele><time>2012-03-31T12:11:15Z</time><cmt>0.6 kmh</cmt></trkpt>
<trkpt lat="58.865247" lon="05.838125"><ele>24</ele><time>2012-03-31T12:11:16Z</time><cmt>1.2 kmh</cmt></trkpt>
<trkpt lat="58.865245" lon="05.838129"><ele>24</ele><time>2012-03-31T12:11:17Z</time><cmt>1.5 kmh</cmt></trkpt>
<trkpt lat="58.865243" lon="05.838130"><ele>24</ele><time>2012-03-31T12:11:18Z</time><cmt>1.1 kmh</cmt></trkpt>
<trkpt lat="58.865241" lon="05.838132"><ele>24</ele><time>2012-03-31T12:11:19Z</time><cmt>0.6 kmh</cmt></trkpt>
<trkpt lat="58.865240" lon="05.838134"><ele>23</ele><time>2012-03-31T12:11:20Z</time><cmt>0.7 kmh</cmt></trkpt>
<trkpt lat="58.865239" lon="05.838133"><ele>23</ele><time>2012-03-31T12:11:21Z</time><cmt>0.6 kmh</cmt></trkpt>
<trkpt lat="58.865239" lon="05.838131"><ele>23</ele><time>2012-03-31T12:11:22Z</time><cmt>0.4 kmh</cmt></trkpt>
<trkpt lat="58.865238" lon="05.838128"><ele>23</ele><time>2012-03-31T12:11:23Z</time><cmt>0.6 kmh</cmt></trkpt>
<trkpt lat="58.865237" lon="05.838124"><ele>23</ele><time>2012-03-31T12:11:24Z</time><cmt>0.8 kmh</cmt></trkpt>
<trkpt lat="58.865237" lon="05.838120"><ele>23</ele><time>2012-03-31T12:11:25Z</time><cmt>0.9 kmh</cmt></trkpt>
<trkpt lat="58.865237" lon="05.838115"><ele>23</ele><time>2012-03-31T12:11:26Z</time><cmt>0.9 kmh</cmt></trkpt>
<trkpt lat="58.865238" lon="05.838110"><ele>23</ele><time>2012-03-31T12:11:27Z</time><cmt>1.0 kmh</cmt></trkpt>
<trkpt lat="58.865238" lon="05.838105"><ele>23</ele><time>2012-03-31T12:11:28Z</time><cmt>1.2 kmh</cmt></trkpt>
<trkpt lat="58.865239" lon="05.838099"><ele>23</ele><time>2012-03-31T12:11:29Z</time><cmt>1.2 kmh</cmt></trkpt>
<trkpt lat="58.865239" lon="05.838094"><ele>23</ele><time>2012-03-31T12:11:30Z</time><cmt>1.2 kmh</cmt></trkpt>
<trkpt lat="58.865240" lon="05.838089"><ele>23</ele><time>2012-03-31T12:11:31Z</time><cmt>1.2 kmh</cmt></trkpt>
<trkpt lat="58.865241" lon="05.838084"><ele>23</ele><time>2012-03-31T12:11:32Z</time><cmt>1.0 kmh</cmt></trkpt>
<trkpt lat="58.865241" lon="05.838079"><ele>23</ele><time>2012-03-31T12:11:33Z</time><cmt>0.9 kmh</cmt></trkpt>
<trkpt lat="58.865242" lon="05.838074"><ele>23</ele><time>2012-03-31T12:11:34Z</time><cmt>1.1 kmh</cmt></trkpt>
<trkpt lat="58.865242" lon="05.838069"><ele>23</ele><time>2012-03-31T12:11:35Z</time><cmt>1.1 kmh</cmt></trkpt>
<trkpt lat="58.865243" lon="05.838064"><ele>23</ele><time>2012-03-31T12:11:36Z</time><cmt>1.0 kmh</cmt></trkpt>
<trkpt lat="58.865243" lon="05.838060"><ele>23</ele><time>2012-03-31T12:11:37Z</time><cmt>1.0 kmh</cmt></trkpt>
<trkpt lat="58.865243" lon="05.838056"><ele>23</ele><time>2012-03-31T12:11:38Z</time><cmt>0.8 kmh</cmt></trkpt>
<trkpt lat="58.865243" lon="05.838052"><ele>23</ele><time>2012-03-31T12:11:39Z</time><cmt>0.8 kmh</cmt></trkpt>
<trkpt lat="58.865244" lon="05.838047"><ele>23</ele><time>2012-03-31T12:11:40Z</time><cmt>0.9 kmh</cmt></trkpt>
<trkpt lat="58.865244" lon="05.838043"><ele>23</ele><time>2012-03-31T12:11:41Z</time><cmt>0.9 kmh</cmt></trkpt>
<trkpt lat="58.865244" lon="05.838039"><ele>23</ele><time>2012-03-31T12:11:42Z</time><cmt>1.0 kmh</cmt></trkpt>
<trkpt lat="58.865245" lon="05.838036"><ele>23</ele><time>2012-03-31T12:11:43Z</time><cmt>0.9 kmh</cmt></trkpt>
<trkpt lat="58.865247" lon="05.838035"><ele>23</ele><time>2012-03-31T12:11:44Z</time><cmt>0.7 kmh</cmt></trkpt>
<trkpt lat="58.865249" lon="05.838037"><ele>23</ele><time>2012-03-31T12:11:45Z</time><cmt>0.6 kmh</cmt></trkpt>
<trkpt lat="58.865250" lon="05.838041"><ele>23</ele><time>2012-03-31T12:11:46Z</time><cmt>0.9 kmh</cmt></trkpt>
<trkpt lat="58.865251" lon="05.838046"><ele>23</ele><time>2012-03-31T12:11:47Z</time><cmt>1.2 kmh</cmt></trkpt>
<trkpt lat="58.865251" lon="05.838054"><ele>23</ele><time>2012-03-31T12:11:48Z</time><cmt>1.5 kmh</cmt></trkpt>
<trkpt lat="58.865250" lon="05.838065"><ele>23</ele><time>2012-03-31T12:11:49Z</time><cmt>2.0 kmh</cmt></trkpt>
<trkpt lat="58.865247" lon="05.838077"><ele>23</ele><time>2012-03-31T12:11:50Z</time><cmt>2.2 kmh</cmt></trkpt>
<trkpt lat="58.865243" lon="05.838090"><ele>23</ele><time>2012-03-31T12:11:51Z</time><cmt>2.5 kmh</cmt></trkpt>
<trkpt lat="58.865238" lon="05.838101"><ele>23</ele><time>2012-03-31T12:11:52Z</time><cmt>3.3 kmh</cmt></trkpt>
<trkpt lat="58.865233" lon="05.838112"><ele>23</ele><time>2012-03-31T12:11:53Z</time><cmt>3.4 kmh</cmt></trkpt>
<trkpt lat="58.865227" lon="05.838122"><ele>23</ele><time>2012-03-31T12:11:54Z</time><cmt>3.3 kmh</cmt></trkpt>
<trkpt lat="58.865223" lon="05.838131"><ele>23</ele><time>2012-03-31T12:11:55Z</time><cmt>3.0 kmh</cmt></trkpt>
<trkpt lat="58.865220" lon="05.838138"><ele>23</ele><time>2012-03-31T12:11:56Z</time><cmt>2.4 kmh</cmt></trkpt>
<trkpt lat="58.865218" lon="05.838143"><ele>23</ele><time>2012-03-31T12:11:57Z</time><cmt>1.4 kmh</cmt></trkpt>
<trkpt lat="58.865217" lon="05.838146"><ele>23</ele><time>2012-03-31T12:11:58Z</time><cmt>0.8 kmh</cmt></trkpt>
<trkpt lat="58.865216" lon="05.838148"><ele>23</ele><time>2012-03-31T12:11:59Z</time><cmt>0.4 kmh</cmt></trkpt>
<trkpt lat="58.865215" lon="05.838148"><ele>23</ele><time>2012-03-31T12:12:00Z</time><cmt>0.0 kmh</cmt></trkpt>
<trkpt lat="58.865215" lon="05.838148"><ele>23</ele><time>2012-03-31T12:12:01Z</time><cmt>0.0 kmh</cmt></trkpt>
<trkpt lat="58.865215" lon="05.838147"><ele>23</ele><time>2012-03-31T12:12:02Z</time><cmt>0.0 kmh</cmt></trkpt>
<trkpt lat="58.865215" lon="05.838147"><ele>23</ele><time>2012-03-31T12:12:03Z</time><cmt>0.0 kmh</cmt></trkpt>
<trkpt lat="58.865216" lon="05.838146"><ele>23</ele><time>2012-03-31T12:12:04Z</time><cmt>0.0 kmh</cmt></trkpt>
<trkpt lat="58.865216" lon="05.838145"><ele>23</ele><time>2012-03-31T12:12:05Z</time><cmt>0.0 kmh</cmt></trkpt>
<trkpt lat="58.865216" lon="05.838144"><ele>23</ele><time>2012-03-31T12:12:06Z</time><cmt>0.0 kmh</cmt></trkpt>
<trkpt lat="58.865216" lon="05.838144"><ele>23</ele><time>2012-03-31T12:12:07Z</time><cmt>0.0 kmh</cmt></trkpt>
<trkpt lat="58.865215" lon="05.838143"><ele>23</ele><time>2012-03-31T12:12:08Z</time><cmt>0.0 kmh</cmt></trkpt>
<trkpt lat="58.865215" lon="05.838143"><ele>23</ele><time>2012-03-31T12:12:09Z</time><cmt>0.0 kmh</cmt></trkpt>
<trkpt lat="58.865214" lon="05.838143"><ele>23</ele><time>2012-03-31T12:12:10Z</time><cmt>0.0 kmh</cmt></trkpt>
<trkpt lat="58.865213" lon="05.838143"><ele>23</ele><time>2012-03-31T12:12:11Z</time><cmt>0.0 kmh</cmt></trkpt>
<trkpt lat="58.865211" lon="05.838142"><ele>23</ele><time>2012-03-31T12:12:12Z</time><cmt>0.3 kmh</cmt></trkpt>
<trkpt lat="58.865210" lon="05.838142"><ele>23</ele><time>2012-03-31T12:12:13Z</time><cmt>0.5 kmh</cmt></trkpt>
<trkpt lat="58.865209" lon="05.838141"><ele>23</ele><time>2012-03-31T12:12:14Z</time><cmt>0.4 kmh</cmt></trkpt>
<trkpt lat="58.865208" lon="05.838141"><ele>23</ele><time>2012-03-31T12:12:15Z</time><cmt>0.4 kmh</cmt></trkpt>
<trkpt lat="58.865206" lon="05.838140"><ele>23</ele><time>2012-03-31T12:12:16Z</time><cmt>0.4 kmh</cmt></trkpt>
<trkpt lat="58.865205" lon="05.838139"><ele>23</ele><time>2012-03-31T12:12:17Z</time><cmt>0.5 kmh</cmt></trkpt>
<trkpt lat="58.865203" lon="05.838138"><ele>23</ele><time>2012-03-31T12:12:18Z</time><cmt>0.5 kmh</cmt></trkpt>
<trkpt lat="58.865202" lon="05.838138"><ele>23</ele><time>2012-03-31T12:12:19Z</time><cmt>0.6 kmh</cmt></trkpt>
<trkpt lat="58.865200" lon="05.838136"><ele>23</ele><time>2012-03-31T12:12:20Z</time><cmt>0.7 kmh</cmt></trkpt>
<trkpt lat="58.865199" lon="05.838135"><ele>23</ele><time>2012-03-31T12:12:21Z</time><cmt>0.5 kmh</cmt></trkpt>
<trkpt lat="58.865198" lon="05.838134"><ele>23</ele><time>2012-03-31T12:12:22Z</time><cmt>0.5 kmh</cmt></trkpt>
<trkpt lat="58.865196" lon="05.838133"><ele>23</ele><time>2012-03-31T12:12:23Z</time><cmt>0.6 kmh</cmt></trkpt>
<trkpt lat="58.865195" lon="05.838132"><ele>23</ele><time>2012-03-31T12:12:24Z</time><cmt>0.6 kmh</cmt></trkpt>
<trkpt lat="58.865194" lon="05.838130"><ele>23</ele><time>2012-03-31T12:12:25Z</time><cmt>0.7 kmh</cmt></trkpt>
<trkpt lat="58.865193" lon="05.838129"><ele>23</ele><time>2012-03-31T12:12:26Z</time><cmt>0.6 kmh</cmt></trkpt>
<trkpt lat="58.865192" lon="05.838130"><ele>23</ele><time>2012-03-31T12:12:27Z</time><cmt>0.3 kmh</cmt></trkpt>
<trkpt lat="58.865193" lon="05.838132"><ele>23</ele><time>2012-03-31T12:12:28Z</time><cmt>0.2 kmh</cmt></trkpt>
<trkpt lat="58.865193" lon="05.838134"><ele>23</ele><time>2012-03-31T12:12:29Z</time><cmt>0.4 kmh</cmt></trkpt>
<trkpt lat="58.865193" lon="05.838137"><ele>23</ele><time>2012-03-31T12:12:30Z</time><cmt>0.5 kmh</cmt></trkpt>
<trkpt lat="58.865193" lon="05.838139"><ele>23</ele><time>2012-03-31T12:12:31Z</time><cmt>0.5 kmh</cmt></trkpt>
<trkpt lat="58.865193" lon="05.838141"><ele>23</ele><time>2012-03-31T12:12:32Z</time><cmt>0.5 kmh</cmt></trkpt>
<trkpt lat="58.865193" lon="05.838143"><ele>23</ele><time>2012-03-31T12:12:33Z</time><cmt>0.3 kmh</cmt></trkpt>
<trkpt lat="58.865193" lon="05.838145"><ele>23</ele><time>2012-03-31T12:12:34Z</time><cmt>0.1 kmh</cmt></trkpt>
<trkpt lat="58.865193" lon="05.838147"><ele>23</ele><time>2012-03-31T12:12:35Z</time><cmt>0.3 kmh</cmt></trkpt>
<trkpt lat="58.865193" lon="05.838149"><ele>23</ele><time>2012-03-31T12:12:36Z</time><cmt>0.2 kmh</cmt></trkpt>
<trkpt lat="58.865193" lon="05.838149"><ele>23</ele><time>2012-03-31T12:12:37Z</time><cmt>0.0 kmh</cmt></trkpt>
<trkpt lat="58.865193" lon="05.838148"><ele>23</ele><time>2012-03-31T12:12:38Z</time><cmt>0.2 kmh</cmt></trkpt>
<trkpt lat="58.865192" lon="05.838146"><ele>23</ele><time>2012-03-31T12:12:39Z</time><cmt>0.2 kmh</cmt></trkpt>
<trkpt lat="58.865191" lon="05.838144"><ele>23</ele><time>2012-03-31T12:12:40Z</time><cmt>0.2 kmh</cmt></trkpt>
<trkpt lat="58.865191" lon="05.838142"><ele>23</ele><time>2012-03-31T12:12:41Z</time><cmt>0.4 kmh</cmt></trkpt>
<trkpt lat="58.865192" lon="05.838139"><ele>23</ele><time>2012-03-31T12:12:42Z</time><cmt>0.5 kmh</cmt></trkpt>
<trkpt lat="58.865193" lon="05.838138"><ele>23</ele><time>2012-03-31T12:12:43Z</time><cmt>0.6 kmh</cmt></trkpt>
<trkpt lat="58.865195" lon="05.838138"><ele>23</ele><time>2012-03-31T12:12:44Z</time><cmt>0.6 kmh</cmt></trkpt>
<trkpt lat="58.865196" lon="05.838140"><ele>23</ele><time>2012-03-31T12:12:45Z</time><cmt>0.7 kmh</cmt></trkpt>
<trkpt lat="58.865198" lon="05.838142"><ele>23</ele><time>2012-03-31T12:12:46Z</time><cmt>0.7 kmh</cmt></trkpt>
<trkpt lat="58.865199" lon="05.838145"><ele>23</ele><time>2012-03-31T12:12:47Z</time><cmt>0.7 kmh</cmt></trkpt>
<trkpt lat="58.865201" lon="05.838147"><ele>23</ele><time>2012-03-31T12:12:48Z</time><cmt>0.7 kmh</cmt></trkpt>
<trkpt lat="58.865202" lon="05.838149"><ele>23</ele><time>2012-03-31T12:12:49Z</time><cmt>0.6 kmh</cmt></trkpt>
<trkpt lat="58.865203" lon="05.838151"><ele>23</ele><time>2012-03-31T12:12:50Z</time><cmt>0.6 kmh</cmt></trkpt>
<trkpt lat="58.865204" lon="05.838153"><ele>23</ele><time>2012-03-31T12:12:51Z</time><cmt>0.7 kmh</cmt></trkpt>
<trkpt lat="58.865205" lon="05.838154"><ele>23</ele><time>2012-03-31T12:12:52Z</time><cmt>0.5 kmh</cmt></trkpt>
<trkpt lat="58.865206" lon="05.838156"><ele>23</ele><time>2012-03-31T12:12:53Z</time><cmt>0.4 kmh</cmt></trkpt>
<trkpt lat="58.865207" lon="05.838158"><ele>23</ele><time>2012-03-31T12:12:54Z</time><cmt>0.6 kmh</cmt></trkpt>
<trkpt lat="58.865208" lon="05.838161"><ele>23</ele><time>2012-03-31T12:12:55Z</time><cmt>0.7 kmh</cmt></trkpt>
<trkpt lat="58.865209" lon="05.838163"><ele>23</ele><time>2012-03-31T12:12:56Z</time><cmt>0.7 kmh</cmt></trkpt>
<trkpt lat="58.865210" lon="05.838165"><ele>23</ele><time>2012-03-31T12:12:57Z</time><cmt>0.6 kmh</cmt></trkpt>
<trkpt lat="58.865211" lon="05.838167"><ele>23</ele><time>2012-03-31T12:12:58Z</time><cmt>0.5 kmh</cmt></trkpt>
<trkpt lat="58.865212" lon="05.838169"><ele>23</ele><time>2012-03-31T12:12:59Z</time><cmt>0.4 kmh</cmt></trkpt>
<trkpt lat="58.865212" lon="05.838172"><ele>23</ele><time>2012-03-31T12:13:00Z</time><cmt>0.4 kmh</cmt></trkpt>
<trkpt lat="58.865213" lon="05.838173"><ele>23</ele><time>2012-03-31T12:13:01Z</time><cmt>0.6 kmh</cmt></trkpt>
<trkpt lat="58.865213" lon="05.838175"><ele>23</ele><time>2012-03-31T12:13:02Z</time><cmt>0.5 kmh</cmt></trkpt>
<trkpt lat="58.865214" lon="05.838178"><ele>23</ele><time>2012-03-31T12:13:03Z</time><cmt>0.4 kmh</cmt></trkpt>
<trkpt lat="58.865214" lon="05.838183"><ele>23</ele><time>2012-03-31T12:13:04Z</time><cmt>0.8 kmh</cmt></trkpt>
<trkpt lat="58.865215" lon="05.838191"><ele>23</ele><time>2012-03-31T12:13:05Z</time><cmt>1.2 kmh</cmt></trkpt>
<trkpt lat="58.865218" lon="05.838202"><ele>23</ele><time>2012-03-31T12:13:06Z</time><cmt>1.8 kmh</cmt></trkpt>
<trkpt lat="58.865221" lon="05.838218"><ele>23</ele><time>2012-03-31T12:13:07Z</time><cmt>3.2 kmh</cmt></trkpt>
<trkpt lat="58.865224" lon="05.838236"><ele>23</ele><time>2012-03-31T12:13:08Z</time><cmt>4.0 kmh</cmt></trkpt>
<trkpt lat="58.865228" lon="05.838258"><ele>23</ele><time>2012-03-31T12:13:09Z</time><cmt>5.0 kmh</cmt></trkpt>
<trkpt lat="58.865232" lon="05.838281"><ele>23</ele><time>2012-03-31T12:13:10Z</time><cmt>5.9 kmh</cmt></trkpt>
<trkpt lat="58.865237" lon="05.838307"><ele>23</ele><time>2012-03-31T12:13:11Z</time><cmt>6.5 kmh</cmt></trkpt>
<trkpt lat="58.865242" lon="05.838336"><ele>23</ele><time>2012-03-31T12:13:12Z</time><cmt>6.6 kmh</cmt></trkpt>
<trkpt lat="58.865247" lon="05.838366"><ele>23</ele><time>2012-03-31T12:13:13Z</time><cmt>6.8 kmh</cmt></trkpt>
<trkpt lat="58.865253" lon="05.838396"><ele>23</ele><time>2012-03-31T12:13:14Z</time><cmt>6.9 kmh</cmt></trkpt>
<trkpt lat="58.865259" lon="05.838428"><ele>23</ele><time>2012-03-31T12:13:15Z</time><cmt>7.3 kmh</cmt></trkpt>
<trkpt lat="58.865265" lon="05.838460"><ele>23</ele><time>2012-03-31T12:13:16Z</time><cmt>7.2 kmh</cmt></trkpt>
<trkpt lat="58.865271" lon="05.838493"><ele>23</ele><time>2012-03-31T12:13:17Z</time><cmt>7.5 kmh</cmt></trkpt>
<trkpt lat="58.865278" lon="05.838525"><ele>23</ele><time>2012-03-31T12:13:18Z</time><cmt>7.0 kmh</cmt></trkpt>
<trkpt lat="58.865285" lon="05.838556"><ele>23</ele><time>2012-03-31T12:13:19Z</time><cmt>7.1 kmh</cmt></trkpt>
<trkpt lat="58.865293" lon="05.838588"><ele>23</ele><time>2012-03-31T12:13:20Z</time><cmt>7.1 kmh</cmt></trkpt>
<trkpt lat="58.865302" lon="05.838618"><ele>23</ele><time>2012-03-31T12:13:21Z</time><cmt>6.6 kmh</cmt></trkpt>
<trkpt lat="58.865311" lon="05.838648"><ele>23</ele><time>2012-03-31T12:13:22Z</time><cmt>7.1 kmh</cmt></trkpt>
<trkpt lat="58.865320" lon="05.838677"><ele>23</ele><time>2012-03-31T12:13:23Z</time><cmt>6.7 kmh</cmt></trkpt>
<trkpt lat="58.865329" lon="05.838706"><ele>23</ele><time>2012-03-31T12:13:24Z</time><cmt>6.4 kmh</cmt></trkpt>
<trkpt lat="58.865338" lon="05.838733"><ele>23</ele><time>2012-03-31T12:13:25Z</time><cmt>6.4 kmh</cmt></trkpt>
<trkpt lat="58.865347" lon="05.838761"><ele>23</ele><time>2012-03-31T12:13:26Z</time><cmt>6.1 kmh</cmt></trkpt>
<trkpt lat="58.865355" lon="05.838786"><ele>23</ele><time>2012-03-31T12:13:27Z</time><cmt>5.6 kmh</cmt></trkpt>
<trkpt lat="58.865363" lon="05.838811"><ele>23</ele><time>2012-03-31T12:13:28Z</time><cmt>5.8 kmh</cmt></trkpt>
<trkpt lat="58.865372" lon="05.838835"><ele>23</ele><time>2012-03-31T12:13:29Z</time><cmt>5.8 kmh</cmt></trkpt>
<trkpt lat="58.865380" lon="05.838856"><ele>23</ele><time>2012-03-31T12:13:30Z</time><cmt>5.8 kmh</cmt></trkpt>
<trkpt lat="58.865388" lon="05.838877"><ele>22</ele><time>2012-03-31T12:13:31Z</time><cmt>5.2 kmh</cmt></trkpt>
<trkpt lat="58.865396" lon="05.838898"><ele>22</ele><time>2012-03-31T12:13:32Z</time><cmt>5.7 kmh</cmt></trkpt>
<trkpt lat="58.865403" lon="05.838914"><ele>22</ele><time>2012-03-31T12:13:33Z</time><cmt>6.0 kmh</cmt></trkpt>
<trkpt lat="58.865416" lon="05.838943"><ele>22</ele><time>2012-03-31T12:13:34Z</time><cmt>6.3 kmh</cmt></trkpt>
<trkpt lat="58.865426" lon="05.838964"><ele>22</ele><time>2012-03-31T12:13:35Z</time><cmt>6.3 kmh</cmt></trkpt>
<trkpt lat="58.865436" lon="05.838985"><ele>22</ele><time>2012-03-31T12:13:36Z</time><cmt>6.1 kmh</cmt></trkpt>
<trkpt lat="58.865446" lon="05.839007"><ele>22</ele><time>2012-03-31T12:13:37Z</time><cmt>6.1 kmh</cmt></trkpt>
<trkpt lat="58.865456" lon="05.839028"><ele>22</ele><time>2012-03-31T12:13:38Z</time><cmt>5.8 kmh</cmt></trkpt>
<trkpt lat="58.865466" lon="05.839049"><ele>22</ele><time>2012-03-31T12:13:39Z</time><cmt>5.6 kmh</cmt></trkpt>
<trkpt lat="58.865475" lon="05.839069"><ele>22</ele><time>2012-03-31T12:13:40Z</time><cmt>5.6 kmh</cmt></trkpt>
<trkpt lat="58.865485" lon="05.839088"><ele>22</ele><time>2012-03-31T12:13:41Z</time><cmt>5.3 kmh</cmt></trkpt>
<trkpt lat="58.865494" lon="05.839107"><ele>22</ele><time>2012-03-31T12:13:42Z</time><cmt>5.3 kmh</cmt></trkpt>
<trkpt lat="58.865503" lon="05.839126"><ele>22</ele><time>2012-03-31T12:13:43Z</time><cmt>5.3 kmh</cmt></trkpt>
<trkpt lat="58.865512" lon="05.839144"><ele>22</ele><time>2012-03-31T12:13:44Z</time><cmt>5.2 kmh</cmt></trkpt>
<trkpt lat="58.865521" lon="05.839163"><ele>21</ele><time>2012-03-31T12:13:45Z</time><cmt>5.2 kmh</cmt></trkpt>
<trkpt lat="58.865529" lon="05.839181"><ele>21</ele><time>2012-03-31T12:13:46Z</time><cmt>5.0 kmh</cmt></trkpt>
<trkpt lat="58.865537" lon="05.839198"><ele>21</ele><time>2012-03-31T12:13:47Z</time><cmt>5.0 kmh</cmt></trkpt>
<trkpt lat="58.865546" lon="05.839215"><ele>21</ele><time>2012-03-31T12:13:48Z</time><cmt>4.2 kmh</cmt></trkpt>
<trkpt lat="58.865554" lon="05.839232"><ele>21</ele><time>2012-03-31T12:13:49Z</time><cmt>4.2 kmh</cmt></trkpt>
<trkpt lat="58.865562" lon="05.839250"><ele>21</ele><time>2012-03-31T12:13:50Z</time><cmt>5.0 kmh</cmt></trkpt>
<trkpt lat="58.865571" lon="05.839268"><ele>21</ele><time>2012-03-31T12:13:51Z</time><cmt>5.2 kmh</cmt></trkpt>
<trkpt lat="58.865580" lon="05.839287"><ele>21</ele><time>2012-03-31T12:13:52Z</time><cmt>5.2 kmh</cmt></trkpt>
<trkpt lat="58.865588" lon="05.839306"><ele>21</ele><time>2012-03-31T12:13:53Z</time><cmt>5.1 kmh</cmt></trkpt>
<trkpt lat="58.865597" lon="05.839324"><ele>21</ele><time>2012-03-31T12:13:54Z</time><cmt>5.1 kmh</cmt></trkpt>
<trkpt lat="58.865606" lon="05.839340"><ele>21</ele><time>2012-03-31T12:13:55Z</time><cmt>5.1 kmh</cmt></trkpt>
<trkpt lat="58.865615" lon="05.839355"><ele>21</ele><time>2012-03-31T12:13:56Z</time><cmt>5.0 kmh</cmt></trkpt>
<trkpt lat="58.865622" lon="05.839369"><ele>21</ele><time>2012-03-31T12:13:57Z</time><cmt>4.7 kmh</cmt></trkpt>
<trkpt lat="58.865629" lon="05.839381"><ele>21</ele><time>2012-03-31T12:13:58Z</time><cmt>4.2 kmh</cmt></trkpt>
<trkpt lat="58.865636" lon="05.839391"><ele>21</ele><time>2012-03-31T12:13:59Z</time><cmt>3.8 kmh</cmt></trkpt>
<trkpt lat="58.865641" lon="05.839401"><ele>21</ele><time>2012-03-31T12:14:00Z</time><cmt>3.4 kmh</cmt></trkpt>
<trkpt lat="58.865646" lon="05.839409"><ele>21</ele><time>2012-03-31T12:14:01Z</time><cmt>2.3 kmh</cmt></trkpt>
<trkpt lat="58.865649" lon="05.839417"><ele>21</ele><time>2012-03-31T12:14:02Z</time><cmt>1.9 kmh</cmt></trkpt>
<trkpt lat="58.865650" lon="05.839424"><ele>21</ele><time>2012-03-31T12:14:03Z</time><cmt>2.0 kmh</cmt></trkpt>
<trkpt lat="58.865652" lon="05.839430"><ele>21</ele><time>2012-03-31T12:14:04Z</time><cmt>1.7 kmh</cmt></trkpt>
<trkpt lat="58.865653" lon="05.839436"><ele>21</ele><time>2012-03-31T12:14:05Z</time><cmt>1.5 kmh</cmt></trkpt>
<trkpt lat="58.865654" lon="05.839441"><ele>21</ele><time>2012-03-31T12:14:06Z</time><cmt>1.4 kmh</cmt></trkpt>
<trkpt lat="58.865654" lon="05.839447"><ele>21</ele><time>2012-03-31T12:14:07Z</time><cmt>1.0 kmh</cmt></trkpt>
<trkpt lat="58.865654" lon="05.839453"><ele>21</ele><time>2012-03-31T12:14:08Z</time><cmt>1.1 kmh</cmt></trkpt>
<trkpt lat="58.865654" lon="05.839462"><ele>21</ele><time>2012-03-31T12:14:09Z</time><cmt>1.8 kmh</cmt></trkpt>
<trkpt lat="58.865656" lon="05.839473"><ele>21</ele><time>2012-03-31T12:14:10Z</time><cmt>2.2 kmh</cmt></trkpt>
<trkpt lat="58.865657" lon="05.839485"><ele>21</ele><time>2012-03-31T12:14:11Z</time><cmt>2.6 kmh</cmt></trkpt>
<trkpt lat="58.865658" lon="05.839496"><ele>21</ele><time>2012-03-31T12:14:12Z</time><cmt>2.6 kmh</cmt></trkpt>
<trkpt lat="58.865661" lon="05.839509"><ele>21</ele><time>2012-03-31T12:14:13Z</time><cmt>2.2 kmh</cmt></trkpt>
<trkpt lat="58.865664" lon="05.839525"><ele>21</ele><time>2012-03-31T12:14:14Z</time><cmt>2.8 kmh</cmt></trkpt>
<trkpt lat="58.865668" lon="05.839544"><ele>21</ele><time>2012-03-31T12:14:15Z</time><cmt>4.2 kmh</cmt></trkpt>
<trkpt lat="58.865673" lon="05.839561"><ele>21</ele><time>2012-03-31T12:14:16Z</time><cmt>4.5 kmh</cmt></trkpt>
<trkpt lat="58.865678" lon="05.839580"><ele>21</ele><time>2012-03-31T12:14:17Z</time><cmt>4.6 kmh</cmt></trkpt>
<trkpt lat="58.865684" lon="05.839599"><ele>21</ele><time>2012-03-31T12:14:18Z</time><cmt>4.7 kmh</cmt></trkpt>
<trkpt lat="58.865690" lon="05.839617"><ele>21</ele><time>2012-03-31T12:14:19Z</time><cmt>3.9 kmh</cmt></trkpt>
<trkpt lat="58.865696" lon="05.839635"><ele>20</ele><time>2012-03-31T12:14:20Z</time><cmt>3.9 kmh</cmt></trkpt>
<trkpt lat="58.865703" lon="05.839652"><ele>20</ele><time>2012-03-31T12:14:21Z</time><cmt>4.9 kmh</cmt></trkpt>
<trkpt lat="58.865710" lon="05.839671"><ele>20</ele><time>2012-03-31T12:14:22Z</time><cmt>5.2 kmh</cmt></trkpt>
<trkpt lat="58.865718" lon="05.839691"><ele>20</ele><time>2012-03-31T12:14:23Z</time><cmt>5.3 kmh</cmt></trkpt>
<trkpt lat="58.865727" lon="05.839712"><ele>20</ele><time>2012-03-31T12:14:24Z</time><cmt>5.9 kmh</cmt></trkpt>
<trkpt lat="58.865736" lon="05.839734"><ele>20</ele><time>2012-03-31T12:14:25Z</time><cmt>6.1 kmh</cmt></trkpt>
<trkpt lat="58.865746" lon="05.839757"><ele>20</ele><time>2012-03-31T12:14:26Z</time><cmt>6.2 kmh</cmt></trkpt>
<trkpt lat="58.865756" lon="05.839782"><ele>20</ele><time>2012-03-31T12:14:27Z</time><cmt>6.9 kmh</cmt></trkpt>
<trkpt lat="58.865767" lon="05.839808"><ele>20</ele><time>2012-03-31T12:14:28Z</time><cmt>6.7 kmh</cmt></trkpt>
<trkpt lat="58.865778" lon="05.839834"><ele>20</ele><time>2012-03-31T12:14:29Z</time><cmt>6.7 kmh</cmt></trkpt>
<trkpt lat="58.865788" lon="05.839860"><ele>20</ele><time>2012-03-31T12:14:30Z</time><cmt>7.1 kmh</cmt></trkpt>
<trkpt lat="58.865799" lon="05.839887"><ele>20</ele><time>2012-03-31T12:14:31Z</time><cmt>6.8 kmh</cmt></trkpt>
<trkpt lat="58.865810" lon="05.839913"><ele>20</ele><time>2012-03-31T12:14:32Z</time><cmt>6.6 kmh</cmt></trkpt>
<trkpt lat="58.865820" lon="05.839936"><ele>20</ele><time>2012-03-31T12:14:33Z</time><cmt>5.9 kmh</cmt></trkpt>
<trkpt lat="58.865830" lon="05.839959"><ele>20</ele><time>2012-03-31T12:14:34Z</time><cmt>6.0 kmh</cmt></trkpt>
<trkpt lat="58.865839" lon="05.839982"><ele>20</ele><time>2012-03-31T12:14:35Z</time><cmt>5.8 kmh</cmt></trkpt>
<trkpt lat="58.865849" lon="05.840005"><ele>20</ele><time>2012-03-31T12:14:36Z</time><cmt>6.0 kmh</cmt></trkpt>
<trkpt lat="58.865858" lon="05.840028"><ele>20</ele><time>2012-03-31T12:14:37Z</time><cmt>6.1 kmh</cmt></trkpt>
<trkpt lat="58.865867" lon="05.840051"><ele>20</ele><time>2012-03-31T12:14:38Z</time><cmt>6.0 kmh</cmt></trkpt>
<trkpt lat="58.865876" lon="05.840075"><ele>20</ele><time>2012-03-31T12:14:39Z</time><cmt>6.2 kmh</cmt></trkpt>
<trkpt lat="58.865886" lon="05.840100"><ele>20</ele><time>2012-03-31T12:14:40Z</time><cmt>6.5 kmh</cmt></trkpt>
<trkpt lat="58.865895" lon="05.840127"><ele>20</ele><time>2012-03-31T12:14:41Z</time><cmt>7.0 kmh</cmt></trkpt>
<trkpt lat="58.865905" lon="05.840154"><ele>20</ele><time>2012-03-31T12:14:42Z</time><cmt>6.8 kmh</cmt></trkpt>
<trkpt lat="58.865914" lon="05.840182"><ele>20</ele><time>2012-03-31T12:14:43Z</time><cmt>6.7 kmh</cmt></trkpt>
<trkpt lat="58.865923" lon="05.840209"><ele>20</ele><time>2012-03-31T12:14:44Z</time><cmt>6.7 kmh</cmt></trkpt>
<trkpt lat="58.865932" lon="05.840238"><ele>20</ele><time>2012-03-31T12:14:45Z</time><cmt>7.1 kmh</cmt></trkpt>
<trkpt lat="58.865942" lon="05.840268"><ele>20</ele><time>2012-03-31T12:14:46Z</time><cmt>7.5 kmh</cmt></trkpt>
<trkpt lat="58.865952" lon="05.840300"><ele>20</ele><time>2012-03-31T12:14:47Z</time><cmt>7.5 kmh</cmt></trkpt>
<trkpt lat="58.865962" lon="05.840332"><ele>19</ele><time>2012-03-31T12:14:48Z</time><cmt>7.8 kmh</cmt></trkpt>
<trkpt lat="58.865973" lon="05.840364"><ele>19</ele><time>2012-03-31T12:14:49Z</time><cmt>7.7 kmh</cmt></trkpt>
<trkpt lat="58.865984" lon="05.840395"><ele>19</ele><time>2012-03-31T12:14:50Z</time><cmt>7.7 kmh</cmt></trkpt>
<trkpt lat="58.865996" lon="05.840425"><ele>19</ele><time>2012-03-31T12:14:51Z</time><cmt>7.3 kmh</cmt></trkpt>
<trkpt lat="58.866007" lon="05.840454"><ele>19</ele><time>2012-03-31T12:14:52Z</time><cmt>6.7 kmh</cmt></trkpt>
<trkpt lat="58.866017" lon="05.840480"><ele>19</ele><time>2012-03-31T12:14:53Z</time><cmt>7.2 kmh</cmt></trkpt>
<trkpt lat="58.866027" lon="05.840508"><ele>19</ele><time>2012-03-31T12:14:54Z</time><cmt>6.8 kmh</cmt></trkpt>
<trkpt lat="58.866038" lon="05.840535"><ele>19</ele><time>2012-03-31T12:14:55Z</time><cmt>7.1 kmh</cmt></trkpt>
<trkpt lat="58.866048" lon="05.840562"><ele>19</ele><time>2012-03-31T12:14:56Z</time><cmt>6.9 kmh</cmt></trkpt>
<trkpt lat="58.866059" lon="05.840589"><ele>19</ele><time>2012-03-31T12:14:57Z</time><cmt>6.8 kmh</cmt></trkpt>
<trkpt lat="58.866069" lon="05.840616"><ele>19</ele><time>2012-03-31T12:14:58Z</time><cmt>7.0 kmh</cmt></trkpt>
<trkpt lat="58.866080" lon="05.840645"><ele>19</ele><time>2012-03-31T12:14:59Z</time><cmt>7.1 kmh</cmt></trkpt>
<trkpt lat="58.866090" lon="05.840672"><ele>19</ele><time>2012-03-31T12:15:00Z</time><cmt>6.8 kmh</cmt></trkpt>
<trkpt lat="58.866100" lon="05.840699"><ele>19</ele><time>2012-03-31T12:15:01Z</time><cmt>6.5 kmh</cmt></trkpt>
<trkpt lat="58.866109" lon="05.840725"><ele>19</ele><time>2012-03-31T12:15:02Z</time><cmt>6.7 kmh</cmt></trkpt>
<trkpt lat="58.866118" lon="05.840753"><ele>19</ele><time>2012-03-31T12:15:03Z</time><cmt>6.8 kmh</cmt></trkpt>
<trkpt lat="58.866127" lon="05.840780"><ele>19</ele><time>2012-03-31T12:15:04Z</time><cmt>6.7 kmh</cmt></trkpt>
<trkpt lat="58.866136" lon="05.840808"><ele>19</ele><time>2012-03-31T12:15:05Z</time><cmt>6.9 kmh</cmt></trkpt>
<trkpt lat="58.866145" lon="05.840837"><ele>18</ele><time>2012-03-31T12:15:06Z</time><cmt>6.9 kmh</cmt></trkpt>
<trkpt lat="58.866154" lon="05.840866"><ele>18</ele><time>2012-03-31T12:15:07Z</time><cmt>6.9 kmh</cmt></trkpt>
<trkpt lat="58.866162" lon="05.840894"><ele>18</ele><time>2012-03-31T12:15:08Z</time><cmt>6.7 kmh</cmt></trkpt>
<trkpt lat="58.866169" lon="05.840922"><ele>18</ele><time>2012-03-31T12:15:09Z</time><cmt>6.9 kmh</cmt></trkpt>
<trkpt lat="58.866177" lon="05.840951"><ele>18</ele><time>2012-03-31T12:15:10Z</time><cmt>6.9 kmh</cmt></trkpt>
<trkpt lat="58.866183" lon="05.840978"><ele>18</ele><time>2012-03-31T12:15:11Z</time><cmt>6.8 kmh</cmt></trkpt>
<trkpt lat="58.866189" lon="05.841006"><ele>18</ele><time>2012-03-31T12:15:12Z</time><cmt>6.4 kmh</cmt></trkpt>
<trkpt lat="58.866194" lon="05.841031"><ele>18</ele><time>2012-03-31T12:15:13Z</time><cmt>6.1 kmh</cmt></trkpt>
<trkpt lat="58.866198" lon="05.841056"><ele>18</ele><time>2012-03-31T12:15:14Z</time><cmt>5.8 kmh</cmt></trkpt>
<trkpt lat="58.866202" lon="05.841080"><ele>18</ele><time>2012-03-31T12:15:15Z</time><cmt>5.8 kmh</cmt></trkpt>
<trkpt lat="58.866206" lon="05.841102"><ele>18</ele><time>2012-03-31T12:15:16Z</time><cmt>5.3 kmh</cmt></trkpt>
<trkpt lat="58.866209" lon="05.841124"><ele>18</ele><time>2012-03-31T12:15:17Z</time><cmt>5.0 kmh</cmt></trkpt>
<trkpt lat="58.866212" lon="05.841145"><ele>18</ele><time>2012-03-31T12:15:18Z</time><cmt>5.0 kmh</cmt></trkpt>
<trkpt lat="58.866215" lon="05.841164"><ele>18</ele><time>2012-03-31T12:15:19Z</time><cmt>4.6 kmh</cmt></trkpt>
<trkpt lat="58.866217" lon="05.841182"><ele>18</ele><time>2012-03-31T12:15:20Z</time><cmt>4.4 kmh</cmt></trkpt>
<trkpt lat="58.866220" lon="05.841203"><ele>18</ele><time>2012-03-31T12:15:21Z</time><cmt>3.6 kmh</cmt></trkpt>
<trkpt lat="58.866222" lon="05.841224"><ele>18</ele><time>2012-03-31T12:15:22Z</time><cmt>3.8 kmh</cmt></trkpt>
<trkpt lat="58.866224" lon="05.841247"><ele>18</ele><time>2012-03-31T12:15:23Z</time><cmt>5.2 kmh</cmt></trkpt>
<trkpt lat="58.866227" lon="05.841271"><ele>18</ele><time>2012-03-31T12:15:24Z</time><cmt>5.5 kmh</cmt></trkpt>
<trkpt lat="58.866230" lon="05.841296"><ele>18</ele><time>2012-03-31T12:15:25Z</time><cmt>5.7 kmh</cmt></trkpt>
<trkpt lat="58.866233" lon="05.841322"><ele>19</ele><time>2012-03-31T12:15:26Z</time><cmt>5.6 kmh</cmt></trkpt>
<trkpt lat="58.866235" lon="05.841348"><ele>19</ele><time>2012-03-31T12:15:27Z</time><cmt>5.7 kmh</cmt></trkpt>
<trkpt lat="58.866238" lon="05.841375"><ele>19</ele><time>2012-03-31T12:15:28Z</time><cmt>6.3 kmh</cmt></trkpt>
<trkpt lat="58.866240" lon="05.841405"><ele>19</ele><time>2012-03-31T12:15:29Z</time><cmt>6.4 kmh</cmt></trkpt>
<trkpt lat="58.866243" lon="05.841435"><ele>19</ele><time>2012-03-31T12:15:30Z</time><cmt>6.2 kmh</cmt></trkpt>
<trkpt lat="58.866246" lon="05.841464"><ele>19</ele><time>2012-03-31T12:15:31Z</time><cmt>6.2 kmh</cmt></trkpt>
<trkpt lat="58.866249" lon="05.841494"><ele>19</ele><time>2012-03-31T12:15:32Z</time><cmt>6.4 kmh</cmt></trkpt>
<trkpt lat="58.866251" lon="05.841524"><ele>19</ele><time>2012-03-31T12:15:33Z</time><cmt>6.3 kmh</cmt></trkpt>
<trkpt lat="58.866255" lon="05.841554"><ele>19</ele><time>2012-03-31T12:15:34Z</time><cmt>6.5 kmh</cmt></trkpt>
<trkpt lat="58.866258" lon="05.841585"><ele>19</ele><time>2012-03-31T12:15:35Z</time><cmt>6.8 kmh</cmt></trkpt>
<trkpt lat="58.866261" lon="05.841615"><ele>19</ele><time>2012-03-31T12:15:36Z</time><cmt>6.5 kmh</cmt></trkpt>
<trkpt lat="58.866265" lon="05.841646"><ele>19</ele><time>2012-03-31T12:15:37Z</time><cmt>6.8 kmh</cmt></trkpt>
<trkpt lat="58.866269" lon="05.841677"><ele>19</ele><time>2012-03-31T12:15:38Z</time><cmt>6.5 kmh</cmt></trkpt>
<trkpt lat="58.866273" lon="05.841707"><ele>19</ele><time>2012-03-31T12:15:39Z</time><cmt>6.4 kmh</cmt></trkpt>
<trkpt lat="58.866277" lon="05.841736"><ele>19</ele><time>2012-03-31T12:15:40Z</time><cmt>6.1 kmh</cmt></trkpt>
<trkpt lat="58.866282" lon="05.841763"><ele>19</ele><time>2012-03-31T12:15:41Z</time><cmt>5.7 kmh</cmt></trkpt>
<trkpt lat="58.866285" lon="05.841788"><ele>20</ele><time>2012-03-31T12:15:42Z</time><cmt>5.1 kmh</cmt></trkpt>
<trkpt lat="58.866289" lon="05.841811"><ele>20</ele><time>2012-03-31T12:15:43Z</time><cmt>5.1 kmh</cmt></trkpt>
<trkpt lat="58.866293" lon="05.841832"><ele>20</ele><time>2012-03-31T12:15:44Z</time><cmt>5.0 kmh</cmt></trkpt>
<trkpt lat="58.866297" lon="05.841852"><ele>20</ele><time>2012-03-31T12:15:45Z</time><cmt>4.8 kmh</cmt></trkpt>
<trkpt lat="58.866300" lon="05.841870"><ele>20</ele><time>2012-03-31T12:15:46Z</time><cmt>3.6 kmh</cmt></trkpt>
<trkpt lat="58.866304" lon="05.841887"><ele>20</ele><time>2012-03-31T12:15:47Z</time><cmt>3.4 kmh</cmt></trkpt>
<trkpt lat="58.866308" lon="05.841902"><ele>20</ele><time>2012-03-31T12:15:48Z</time><cmt>4.0 kmh</cmt></trkpt>
<trkpt lat="58.866311" lon="05.841917"><ele>20</ele><time>2012-03-31T12:15:49Z</time><cmt>3.7 kmh</cmt></trkpt>
<trkpt lat="58.866314" lon="05.841930"><ele>20</ele><time>2012-03-31T12:15:50Z</time><cmt>3.4 kmh</cmt></trkpt>
<trkpt lat="58.866316" lon="05.841943"><ele>20</ele><time>2012-03-31T12:15:51Z</time><cmt>3.1 kmh</cmt></trkpt>
<trkpt lat="58.866318" lon="05.841954"><ele>20</ele><time>2012-03-31T12:15:52Z</time><cmt>2.2 kmh</cmt></trkpt>
<trkpt lat="58.866319" lon="05.841965"><ele>20</ele><time>2012-03-31T12:15:53Z</time><cmt>2.1 kmh</cmt></trkpt>
<trkpt lat="58.866320" lon="05.841977"><ele>20</ele><time>2012-03-31T12:15:54Z</time><cmt>2.7 kmh</cmt></trkpt>
<trkpt lat="58.866322" lon="05.841990"><ele>20</ele><time>2012-03-31T12:15:55Z</time><cmt>2.8 kmh</cmt></trkpt>
<trkpt lat="58.866323" lon="05.842003"><ele>20</ele><time>2012-03-31T12:15:56Z</time><cmt>2.9 kmh</cmt></trkpt>
<trkpt lat="58.866325" lon="05.842015"><ele>20</ele><time>2012-03-31T12:15:57Z</time><cmt>2.8 kmh</cmt></trkpt>
<trkpt lat="58.866326" lon="05.842030"><ele>20</ele><time>2012-03-31T12:15:58Z</time><cmt>2.4 kmh</cmt></trkpt>
<trkpt lat="58.866326" lon="05.842046"><ele>20</ele><time>2012-03-31T12:15:59Z</time><cmt>2.7 kmh</cmt></trkpt>
<trkpt lat="58.866328" lon="05.842062"><ele>20</ele><time>2012-03-31T12:16:00Z</time><cmt>3.6 kmh</cmt></trkpt>
<trkpt lat="58.866331" lon="05.842078"><ele>20</ele><time>2012-03-31T12:16:01Z</time><cmt>3.7 kmh</cmt></trkpt>
<trkpt lat="58.866332" lon="05.842095"><ele>20</ele><time>2012-03-31T12:16:02Z</time><cmt>3.8 kmh</cmt></trkpt>
<trkpt lat="58.866334" lon="05.842114"><ele>20</ele><time>2012-03-31T12:16:03Z</time><cmt>4.1 kmh</cmt></trkpt>
<trkpt lat="58.866335" lon="05.842136"><ele>20</ele><time>2012-03-31T12:16:04Z</time><cmt>3.7 kmh</cmt></trkpt>
<trkpt lat="58.866337" lon="05.842159"><ele>20</ele><time>2012-03-31T12:16:05Z</time><cmt>4.0 kmh</cmt></trkpt>
<trkpt lat="58.866339" lon="05.842182"><ele>20</ele><time>2012-03-31T12:16:06Z</time><cmt>5.0 kmh</cmt></trkpt>
<trkpt lat="58.866341" lon="05.842206"><ele>20</ele><time>2012-03-31T12:16:07Z</time><cmt>5.2 kmh</cmt></trkpt>
<trkpt lat="58.866344" lon="05.842230"><ele>21</ele><time>2012-03-31T12:16:08Z</time><cmt>5.3 kmh</cmt></trkpt>
<trkpt lat="58.866347" lon="05.842255"><ele>21</ele><time>2012-03-31T12:16:09Z</time><cmt>5.3 kmh</cmt></trkpt>
<trkpt lat="58.866349" lon="05.842279"><ele>21</ele><time>2012-03-31T12:16:10Z</time><cmt>5.6 kmh</cmt></trkpt>
<trkpt lat="58.866352" lon="05.842304"><ele>21</ele><time>2012-03-31T12:16:11Z</time><cmt>5.4 kmh</cmt></trkpt>
<trkpt lat="58.866355" lon="05.842328"><ele>21</ele><time>2012-03-31T12:16:12Z</time><cmt>5.0 kmh</cmt></trkpt>
<trkpt lat="58.866359" lon="05.842351"><ele>21</ele><time>2012-03-31T12:16:13Z</time><cmt>5.0 kmh</cmt></trkpt>
<trkpt lat="58.866362" lon="05.842373"><ele>21</ele><time>2012-03-31T12:16:14Z</time><cmt>5.4 kmh</cmt></trkpt>
<trkpt lat="58.866365" lon="05.842396"><ele>21</ele><time>2012-03-31T12:16:15Z</time><cmt>5.4 kmh</cmt></trkpt>
<trkpt lat="58.866369" lon="05.842417"><ele>21</ele><time>2012-03-31T12:16:16Z</time><cmt>5.0 kmh</cmt></trkpt>
<trkpt lat="58.866373" lon="05.842440"><ele>21</ele><time>2012-03-31T12:16:17Z</time><cmt>5.3 kmh</cmt></trkpt>
<trkpt lat="58.866378" lon="05.842463"><ele>21</ele><time>2012-03-31T12:16:18Z</time><cmt>5.2 kmh</cmt></trkpt>
<trkpt lat="58.866382" lon="05.842488"><ele>21</ele><time>2012-03-31T12:16:19Z</time><cmt>5.7 kmh</cmt></trkpt>
<trkpt lat="58.866388" lon="05.842514"><ele>21</ele><time>2012-03-31T12:16:20Z</time><cmt>5.3 kmh</cmt></trkpt>
<trkpt lat="58.866393" lon="05.842540"><ele>21</ele><time>2012-03-31T12:16:21Z</time><cmt>6.2 kmh</cmt></trkpt>
<trkpt lat="58.866398" lon="05.842567"><ele>21</ele><time>2012-03-31T12:16:22Z</time><cmt>5.9 kmh</cmt></trkpt>
<trkpt lat="58.866403" lon="05.842596"><ele>21</ele><time>2012-03-31T12:16:23Z</time><cmt>6.8 kmh</cmt></trkpt>
<trkpt lat="58.866408" lon="05.842627"><ele>21</ele><time>2012-03-31T12:16:24Z</time><cmt>7.2 kmh</cmt></trkpt>
<trkpt lat="58.866413" lon="05.842660"><ele>21</ele><time>2012-03-31T12:16:25Z</time><cmt>7.7 kmh</cmt></trkpt>
<trkpt lat="58.866419" lon="05.842695"><ele>21</ele><time>2012-03-31T12:16:26Z</time><cmt>7.5 kmh</cmt></trkpt>
<trkpt lat="58.866426" lon="05.842731"><ele>21</ele><time>2012-03-31T12:16:27Z</time><cmt>7.7 kmh</cmt></trkpt>
<trkpt lat="58.866432" lon="05.842766"><ele>21</ele><time>2012-03-31T12:16:28Z</time><cmt>7.4 kmh</cmt></trkpt>
<trkpt lat="58.866438" lon="05.842800"><ele>21</ele><time>2012-03-31T12:16:29Z</time><cmt>7.5 kmh</cmt></trkpt>
<trkpt lat="58.866444" lon="05.842835"><ele>21</ele><time>2012-03-31T12:16:30Z</time><cmt>7.1 kmh</cmt></trkpt>
<trkpt lat="58.866450" lon="05.842867"><ele>21</ele><time>2012-03-31T12:16:31Z</time><cmt>6.9 kmh</cmt></trkpt>
<trkpt lat="58.866455" lon="05.842899"><ele>21</ele><time>2012-03-31T12:16:32Z</time><cmt>6.7 kmh</cmt></trkpt>
<trkpt lat="58.866460" lon="05.842930"><ele>21</ele><time>2012-03-31T12:16:33Z</time><cmt>6.2 kmh</cmt></trkpt>
<trkpt lat="58.866466" lon="05.842958"><ele>21</ele><time>2012-03-31T12:16:34Z</time><cmt>5.7 kmh</cmt></trkpt>
<trkpt lat="58.866472" lon="05.842985"><ele>21</ele><time>2012-03-31T12:16:35Z</time><cmt>5.3 kmh</cmt></trkpt>
<trkpt lat="58.866478" lon="05.843009"><ele>21</ele><time>2012-03-31T12:16:36Z</time><cmt>5.3 kmh</cmt></trkpt>
<trkpt lat="58.866484" lon="05.843032"><ele>21</ele><time>2012-03-31T12:16:37Z</time><cmt>5.0 kmh</cmt></trkpt>
<trkpt lat="58.866489" lon="05.843052"><ele>21</ele><time>2012-03-31T12:16:38Z</time><cmt>5.0 kmh</cmt></trkpt>
<trkpt lat="58.866492" lon="05.843070"><ele>21</ele><time>2012-03-31T12:16:39Z</time><cmt>4.7 kmh</cmt></trkpt>
<trkpt lat="58.866495" lon="05.843085"><ele>21</ele><time>2012-03-31T12:16:40Z</time><cmt>4.0 kmh</cmt></trkpt>
<trkpt lat="58.866496" lon="05.843099"><ele>21</ele><time>2012-03-31T12:16:41Z</time><cmt>3.3 kmh</cmt></trkpt>
<trkpt lat="58.866496" lon="05.843110"><ele>21</ele><time>2012-03-31T12:16:42Z</time><cmt>2.3 kmh</cmt></trkpt>
<trkpt lat="58.866495" lon="05.843119"><ele>21</ele><time>2012-03-31T12:16:43Z</time><cmt>1.8 kmh</cmt></trkpt>
<trkpt lat="58.866493" lon="05.843125"><ele>21</ele><time>2012-03-31T12:16:44Z</time><cmt>1.7 kmh</cmt></trkpt>
<trkpt lat="58.866491" lon="05.843131"><ele>21</ele><time>2012-03-31T12:16:45Z</time><cmt>1.6 kmh</cmt></trkpt>
<trkpt lat="58.866489" lon="05.843140"><ele>21</ele><time>2012-03-31T12:16:46Z</time><cmt>1.9 kmh</cmt></trkpt>
<trkpt lat="58.866487" lon="05.843151"><ele>21</ele><time>2012-03-31T12:16:47Z</time><cmt>2.4 kmh</cmt></trkpt>
<trkpt lat="58.866485" lon="05.843165"><ele>21</ele><time>2012-03-31T12:16:48Z</time><cmt>2.4 kmh</cmt></trkpt>
<trkpt lat="58.866482" lon="05.843182"><ele>21</ele><time>2012-03-31T12:16:49Z</time><cmt>2.9 kmh</cmt></trkpt>
<trkpt lat="58.866479" lon="05.843203"><ele>21</ele><time>2012-03-31T12:16:50Z</time><cmt>5.0 kmh</cmt></trkpt>
<trkpt lat="58.866475" lon="05.843226"><ele>21</ele><time>2012-03-31T12:16:51Z</time><cmt>5.5 kmh</cmt></trkpt>
<trkpt lat="58.866472" lon="05.843252"><ele>21</ele><time>2012-03-31T12:16:52Z</time><cmt>6.1 kmh</cmt></trkpt>
<trkpt lat="58.866468" lon="05.843281"><ele>21</ele><time>2012-03-31T12:16:53Z</time><cmt>6.6 kmh</cmt></trkpt>
<trkpt lat="58.866465" lon="05.843312"><ele>21</ele><time>2012-03-31T12:16:54Z</time><cmt>6.8 kmh</cmt></trkpt>
<trkpt lat="58.866463" lon="05.843344"><ele>21</ele><time>2012-03-31T12:16:55Z</time><cmt>7.1 kmh</cmt></trkpt>
<trkpt lat="58.866460" lon="05.843378"><ele>21</ele><time>2012-03-31T12:16:56Z</time><cmt>7.2 kmh</cmt></trkpt>
<trkpt lat="58.866457" lon="05.843411"><ele>21</ele><time>2012-03-31T12:16:57Z</time><cmt>6.8 kmh</cmt></trkpt>
<trkpt lat="58.866456" lon="05.843443"><ele>21</ele><time>2012-03-31T12:16:58Z</time><cmt>6.7 kmh</cmt></trkpt>
<trkpt lat="58.866454" lon="05.843475"><ele>21</ele><time>2012-03-31T12:16:59Z</time><cmt>6.9 kmh</cmt></trkpt>
<trkpt lat="58.866453" lon="05.843508"><ele>21</ele><time>2012-03-31T12:17:00Z</time><cmt>6.9 kmh</cmt></trkpt>
<trkpt lat="58.866454" lon="05.843542"><ele>21</ele><time>2012-03-31T12:17:01Z</time><cmt>6.9 kmh</cmt></trkpt>
<trkpt lat="58.866455" lon="05.843574"><ele>21</ele><time>2012-03-31T12:17:02Z</time><cmt>6.6 kmh</cmt></trkpt>
<trkpt lat="58.866457" lon="05.843605"><ele>21</ele><time>2012-03-31T12:17:03Z</time><cmt>6.0 kmh</cmt></trkpt>
<trkpt lat="58.866459" lon="05.843634"><ele>21</ele><time>2012-03-31T12:17:04Z</time><cmt>5.8 kmh</cmt></trkpt>
<trkpt lat="58.866460" lon="05.843663"><ele>21</ele><time>2012-03-31T12:17:05Z</time><cmt>6.1 kmh</cmt></trkpt>
<trkpt lat="58.866461" lon="05.843691"><ele>21</ele><time>2012-03-31T12:17:06Z</time><cmt>5.9 kmh</cmt></trkpt>
<trkpt lat="58.866463" lon="05.843719"><ele>22</ele><time>2012-03-31T12:17:07Z</time><cmt>5.5 kmh</cmt></trkpt>
<trkpt lat="58.866464" lon="05.843746"><ele>22</ele><time>2012-03-31T12:17:08Z</time><cmt>6.0 kmh</cmt></trkpt>
<trkpt lat="58.866466" lon="05.843775"><ele>22</ele><time>2012-03-31T12:17:09Z</time><cmt>6.0 kmh</cmt></trkpt>
<trkpt lat="58.866467" lon="05.843804"><ele>22</ele><time>2012-03-31T12:17:10Z</time><cmt>6.3 kmh</cmt></trkpt>
<trkpt lat="58.866469" lon="05.843834"><ele>22</ele><time>2012-03-31T12:17:11Z</time><cmt>6.2 kmh</cmt></trkpt>
<trkpt lat="58.866470" lon="05.843864"><ele>22</ele><time>2012-03-31T12:17:12Z</time><cmt>6.4 kmh</cmt></trkpt>
<trkpt lat="58.866472" lon="05.843894"><ele>22</ele><time>2012-03-31T12:17:13Z</time><cmt>6.2 kmh</cmt></trkpt>
<trkpt lat="58.866473" lon="05.843924"><ele>22</ele><time>2012-03-31T12:17:14Z</time><cmt>6.2 kmh</cmt></trkpt>
<trkpt lat="58.866474" lon="05.843954"><ele>22</ele><time>2012-03-31T12:17:15Z</time><cmt>6.1 kmh</cmt></trkpt>
<trkpt lat="58.866476" lon="05.843983"><ele>22</ele><time>2012-03-31T12:17:16Z</time><cmt>6.2 kmh</cmt></trkpt>
<trkpt lat="58.866477" lon="05.844013"><ele>22</ele><time>2012-03-31T12:17:17Z</time><cmt>6.2 kmh</cmt></trkpt>
<trkpt lat="58.866477" lon="05.844043"><ele>22</ele><time>2012-03-31T12:17:18Z</time><cmt>6.2 kmh</cmt></trkpt>
<trkpt lat="58.866478" lon="05.844072"><ele>22</ele><time>2012-03-31T12:17:19Z</time><cmt>6.2 kmh</cmt></trkpt>
<trkpt lat="58.866478" lon="05.844102"><ele>22</ele><time>2012-03-31T12:17:20Z</time><cmt>6.2 kmh</cmt></trkpt>
<trkpt lat="58.866478" lon="05.844132"><ele>22</ele><time>2012-03-31T12:17:21Z</time><cmt>6.3 kmh</cmt></trkpt>
<trkpt lat="58.866478" lon="05.844162"><ele>22</ele><time>2012-03-31T12:17:22Z</time><cmt>6.3 kmh</cmt></trkpt>
<trkpt lat="58.866479" lon="05.844193"><ele>22</ele><time>2012-03-31T12:17:23Z</time><cmt>6.5 kmh</cmt></trkpt>
<trkpt lat="58.866480" lon="05.844224"><ele>22</ele><time>2012-03-31T12:17:24Z</time><cmt>6.3 kmh</cmt></trkpt>
<trkpt lat="58.866481" lon="05.844255"><ele>23</ele><time>2012-03-31T12:17:25Z</time><cmt>6.4 kmh</cmt></trkpt>
<trkpt lat="58.866482" lon="05.844285"><ele>23</ele><time>2012-03-31T12:17:26Z</time><cmt>6.3 kmh</cmt></trkpt>
<trkpt lat="58.866482" lon="05.844316"><ele>23</ele><time>2012-03-31T12:17:27Z</time><cmt>6.4 kmh</cmt></trkpt>
<trkpt lat="58.866482" lon="05.844347"><ele>23</ele><time>2012-03-31T12:17:28Z</time><cmt>6.4 kmh</cmt></trkpt>
<trkpt lat="58.866482" lon="05.844378"><ele>23</ele><time>2012-03-31T12:17:29Z</time><cmt>6.6 kmh</cmt></trkpt>
<trkpt lat="58.866482" lon="05.844409"><ele>23</ele><time>2012-03-31T12:17:30Z</time><cmt>6.4 kmh</cmt></trkpt>
<trkpt lat="58.866482" lon="05.844440"><ele>23</ele><time>2012-03-31T12:17:31Z</time><cmt>6.5 kmh</cmt></trkpt>
<trkpt lat="58.866482" lon="05.844471"><ele>23</ele><time>2012-03-31T12:17:32Z</time><cmt>6.6 kmh</cmt></trkpt>
<trkpt lat="58.866482" lon="05.844503"><ele>23</ele><time>2012-03-31T12:17:33Z</time><cmt>6.7 kmh</cmt></trkpt>
<trkpt lat="58.866482" lon="05.844535"><ele>23</ele><time>2012-03-31T12:17:34Z</time><cmt>6.7 kmh</cmt></trkpt>
<trkpt lat="58.866482" lon="05.844568"><ele>23</ele><time>2012-03-31T12:17:35Z</time><cmt>6.9 kmh</cmt></trkpt>
<trkpt lat="58.866483" lon="05.844601"><ele>23</ele><time>2012-03-31T12:17:36Z</time><cmt>6.9 kmh</cmt></trkpt>
<trkpt lat="58.866484" lon="05.844634"><ele>23</ele><time>2012-03-31T12:17:37Z</time><cmt>7.0 kmh</cmt></trkpt>
<trkpt lat="58.866485" lon="05.844667"><ele>23</ele><time>2012-03-31T12:17:38Z</time><cmt>6.9 kmh</cmt></trkpt>
<trkpt lat="58.866486" lon="05.844700"><ele>23</ele><time>2012-03-31T12:17:39Z</time><cmt>7.1 kmh</cmt></trkpt>
<trkpt lat="58.866486" lon="05.844734"><ele>23</ele><time>2012-03-31T12:17:40Z</time><cmt>7.0 kmh</cmt></trkpt>
<trkpt lat="58.866487" lon="05.844767"><ele>23</ele><time>2012-03-31T12:17:41Z</time><cmt>6.9 kmh</cmt></trkpt>
<trkpt lat="58.866487" lon="05.844801"><ele>24</ele><time>2012-03-31T12:17:42Z</time><cmt>6.8 kmh</cmt></trkpt>
<trkpt lat="58.866488" lon="05.844833"><ele>24</ele><time>2012-03-31T12:17:43Z</time><cmt>6.9 kmh</cmt></trkpt>
<trkpt lat="58.866488" lon="05.844866"><ele>24</ele><time>2012-03-31T12:17:44Z</time><cmt>6.8 kmh</cmt></trkpt>
<trkpt lat="58.866489" lon="05.844899"><ele>24</ele><time>2012-03-31T12:17:45Z</time><cmt>6.7 kmh</cmt></trkpt>
<trkpt lat="58.866491" lon="05.844931"><ele>24</ele><time>2012-03-31T12:17:46Z</time><cmt>6.6 kmh</cmt></trkpt>
<trkpt lat="58.866493" lon="05.844963"><ele>24</ele><time>2012-03-31T12:17:47Z</time><cmt>6.7 kmh</cmt></trkpt>
<trkpt lat="58.866495" lon="05.844994"><ele>24</ele><time>2012-03-31T12:17:48Z</time><cmt>6.4 kmh</cmt></trkpt>
<trkpt lat="58.866497" lon="05.845025"><ele>24</ele><time>2012-03-31T12:17:49Z</time><cmt>6.3 kmh</cmt></trkpt>
<trkpt lat="58.866499" lon="05.845056"><ele>24</ele><time>2012-03-31T12:17:50Z</time><cmt>6.4 kmh</cmt></trkpt>
<trkpt lat="58.866502" lon="05.845086"><ele>24</ele><time>2012-03-31T12:17:51Z</time><cmt>6.3 kmh</cmt></trkpt>
<trkpt lat="58.866504" lon="05.845117"><ele>24</ele><time>2012-03-31T12:17:52Z</time><cmt>6.6 kmh</cmt></trkpt>
<trkpt lat="58.866506" lon="05.845148"><ele>24</ele><time>2012-03-31T12:17:53Z</time><cmt>6.4 kmh</cmt></trkpt>
<trkpt lat="58.866507" lon="05.845178"><ele>24</ele><time>2012-03-31T12:17:54Z</time><cmt>6.5 kmh</cmt></trkpt>
<trkpt lat="58.866509" lon="05.845209"><ele>24</ele><time>2012-03-31T12:17:55Z</time><cmt>6.4 kmh</cmt></trkpt>
<trkpt lat="58.866511" lon="05.845241"><ele>24</ele><time>2012-03-31T12:17:56Z</time><cmt>6.6 kmh</cmt></trkpt>
<trkpt lat="58.866512" lon="05.845272"><ele>24</ele><time>2012-03-31T12:17:57Z</time><cmt>6.5 kmh</cmt></trkpt>
<trkpt lat="58.866514" lon="05.845303"><ele>24</ele><time>2012-03-31T12:17:58Z</time><cmt>6.7 kmh</cmt></trkpt>
<trkpt lat="58.866516" lon="05.845335"><ele>24</ele><time>2012-03-31T12:17:59Z</time><cmt>6.4 kmh</cmt></trkpt>
<trkpt lat="58.866518" lon="05.845366"><ele>24</ele><time>2012-03-31T12:18:00Z</time><cmt>6.7 kmh</cmt></trkpt>
<trkpt lat="58.866519" lon="05.845398"><ele>24</ele><time>2012-03-31T12:18:01Z</time><cmt>6.6 kmh</cmt></trkpt>
<trkpt lat="58.866521" lon="05.845430"><ele>24</ele><time>2012-03-31T12:18:02Z</time><cmt>6.9 kmh</cmt></trkpt>
<trkpt lat="58.866523" lon="05.845463"><ele>24</ele><time>2012-03-31T12:18:03Z</time><cmt>6.9 kmh</cmt></trkpt>
<trkpt lat="58.866524" lon="05.845496"><ele>25</ele><time>2012-03-31T12:18:04Z</time><cmt>7.1 kmh</cmt></trkpt>
<trkpt lat="58.866526" lon="05.845530"><ele>25</ele><time>2012-03-31T12:18:05Z</time><cmt>7.0 kmh</cmt></trkpt>
<trkpt lat="58.866528" lon="05.845563"><ele>25</ele><time>2012-03-31T12:18:06Z</time><cmt>7.0 kmh</cmt></trkpt>
<trkpt lat="58.866529" lon="05.845597"><ele>25</ele><time>2012-03-31T12:18:07Z</time><cmt>6.9 kmh</cmt></trkpt>
<trkpt lat="58.866531" lon="05.845630"><ele>25</ele><time>2012-03-31T12:18:08Z</time><cmt>7.0 kmh</cmt></trkpt>
<trkpt lat="58.866533" lon="05.845664"><ele>25</ele><time>2012-03-31T12:18:09Z</time><cmt>7.1 kmh</cmt></trkpt>
<trkpt lat="58.866536" lon="05.845698"><ele>25</ele><time>2012-03-31T12:18:10Z</time><cmt>7.4 kmh</cmt></trkpt>
<trkpt lat="58.866538" lon="05.845733"><ele>25</ele><time>2012-03-31T12:18:11Z</time><cmt>7.3 kmh</cmt></trkpt>
<trkpt lat="58.866541" lon="05.845767"><ele>25</ele><time>2012-03-31T12:18:12Z</time><cmt>7.3 kmh</cmt></trkpt>
<trkpt lat="58.866544" lon="05.845802"><ele>25</ele><time>2012-03-31T12:18:13Z</time><cmt>7.2 kmh</cmt></trkpt>
<trkpt lat="58.866548" lon="05.845837"><ele>25</ele><time>2012-03-31T12:18:14Z</time><cmt>7.2 kmh</cmt></trkpt>
<trkpt lat="58.866551" lon="05.845871"><ele>25</ele><time>2012-03-31T12:18:15Z</time><cmt>7.1 kmh</cmt></trkpt>
<trkpt lat="58.866554" lon="05.845904"><ele>25</ele><time>2012-03-31T12:18:16Z</time><cmt>6.9 kmh</cmt></trkpt>
<trkpt lat="58.866557" lon="05.845937"><ele>25</ele><time>2012-03-31T12:18:17Z</time><cmt>6.9 kmh</cmt></trkpt>
<trkpt lat="58.866561" lon="05.845969"><ele>25</ele><time>2012-03-31T12:18:18Z</time><cmt>6.7 kmh</cmt></trkpt>
<trkpt lat="58.866564" lon="05.846001"><ele>25</ele><time>2012-03-31T12:18:19Z</time><cmt>6.7 kmh</cmt></trkpt>
<trkpt lat="58.866567" lon="05.846032"><ele>25</ele><time>2012-03-31T12:18:20Z</time><cmt>6.5 kmh</cmt></trkpt>
<trkpt lat="58.866570" lon="05.846063"><ele>25</ele><time>2012-03-31T12:18:21Z</time><cmt>6.8 kmh</cmt></trkpt>
<trkpt lat="58.866573" lon="05.846095"><ele>25</ele><time>2012-03-31T12:18:22Z</time><cmt>6.6 kmh</cmt></trkpt>
<trkpt lat="58.866576" lon="05.846126"><ele>25</ele><time>2012-03-31T12:18:23Z</time><cmt>6.7 kmh</cmt></trkpt>
<trkpt lat="58.866579" lon="05.846158"><ele>25</ele><time>2012-03-31T12:18:24Z</time><cmt>6.7 kmh</cmt></trkpt>
<trkpt lat="58.866581" lon="05.846189"><ele>25</ele><time>2012-03-31T12:18:25Z</time><cmt>6.6 kmh</cmt></trkpt>
<trkpt lat="58.866583" lon="05.846221"><ele>25</ele><time>2012-03-31T12:18:26Z</time><cmt>6.4 kmh</cmt></trkpt>
<trkpt lat="58.866585" lon="05.846251"><ele>25</ele><time>2012-03-31T12:18:27Z</time><cmt>6.5 kmh</cmt></trkpt>
<trkpt lat="58.866587" lon="05.846282"><ele>25</ele><time>2012-03-31T12:18:28Z</time><cmt>6.3 kmh</cmt></trkpt>
<trkpt lat="58.866589" lon="05.846313"><ele>25</ele><time>2012-03-31T12:18:29Z</time><cmt>6.5 kmh</cmt></trkpt>
<trkpt lat="58.866591" lon="05.846344"><ele>25</ele><time>2012-03-31T12:18:30Z</time><cmt>6.5 kmh</cmt></trkpt>
<trkpt lat="58.866592" lon="05.846375"><ele>25</ele><time>2012-03-31T12:18:31Z</time><cmt>6.4 kmh</cmt></trkpt>
<trkpt lat="58.866594" lon="05.846406"><ele>25</ele><time>2012-03-31T12:18:32Z</time><cmt>6.4 kmh</cmt></trkpt>
<trkpt lat="58.866595" lon="05.846437"><ele>25</ele><time>2012-03-31T12:18:33Z</time><cmt>6.6 kmh</cmt></trkpt>
<trkpt lat="58.866597" lon="05.846469"><ele>25</ele><time>2012-03-31T12:18:34Z</time><cmt>6.6 kmh</cmt></trkpt>
<trkpt lat="58.866600" lon="05.846500"><ele>25</ele><time>2012-03-31T12:18:35Z</time><cmt>6.8 kmh</cmt></trkpt>
<trkpt lat="58.866602" lon="05.846532"><ele>25</ele><time>2012-03-31T12:18:36Z</time><cmt>6.6 kmh</cmt></trkpt>
<trkpt lat="58.866604" lon="05.846564"><ele>25</ele><time>2012-03-31T12:18:37Z</time><cmt>6.7 kmh</cmt></trkpt>
<trkpt lat="58.866607" lon="05.846595"><ele>25</ele><time>2012-03-31T12:18:38Z</time><cmt>6.6 kmh</cmt></trkpt>
<trkpt lat="58.866610" lon="05.846626"><ele>25</ele><time>2012-03-31T12:18:39Z</time><cmt>6.4 kmh</cmt></trkpt>
<trkpt lat="58.866613" lon="05.846656"><ele>25</ele><time>2012-03-31T12:18:40Z</time><cmt>6.4 kmh</cmt></trkpt>
<trkpt lat="58.866616" lon="05.846686"><ele>25</ele><time>2012-03-31T12:18:41Z</time><cmt>6.3 kmh</cmt></trkpt>
<trkpt lat="58.866619" lon="05.846716"><ele>25</ele><time>2012-03-31T12:18:42Z</time><cmt>6.3 kmh</cmt></trkpt>
<trkpt lat="58.866622" lon="05.846745"><ele>25</ele><time>2012-03-31T12:18:43Z</time><cmt>6.4 kmh</cmt></trkpt>
<trkpt lat="58.866626" lon="05.846774"><ele>25</ele><time>2012-03-31T12:18:44Z</time><cmt>6.2 kmh</cmt></trkpt>
<trkpt lat="58.866630" lon="05.846803"><ele>25</ele><time>2012-03-31T12:18:45Z</time><cmt>6.3 kmh</cmt></trkpt>
<trkpt lat="58.866634" lon="05.846831"><ele>25</ele><time>2012-03-31T12:18:46Z</time><cmt>6.1 kmh</cmt></trkpt>
<trkpt lat="58.866639" lon="05.846860"><ele>25</ele><time>2012-03-31T12:18:47Z</time><cmt>5.9 kmh</cmt></trkpt>
<trkpt lat="58.866645" lon="05.846888"><ele>25</ele><time>2012-03-31T12:18:48Z</time><cmt>5.7 kmh</cmt></trkpt>
<trkpt lat="58.866650" lon="05.846915"><ele>25</ele><time>2012-03-31T12:18:49Z</time><cmt>5.5 kmh</cmt></trkpt>
<trkpt lat="58.866656" lon="05.846941"><ele>25</ele><time>2012-03-31T12:18:50Z</time><cmt>5.5 kmh</cmt></trkpt>
<trkpt lat="58.866661" lon="05.846968"><ele>25</ele><time>2012-03-31T12:18:51Z</time><cmt>5.5 kmh</cmt></trkpt>
<trkpt lat="58.866667" lon="05.846995"><ele>26</ele><time>2012-03-31T12:18:52Z</time><cmt>5.8 kmh</cmt></trkpt>
<trkpt lat="58.866672" lon="05.847021"><ele>26</ele><time>2012-03-31T12:18:53Z</time><cmt>5.6 kmh</cmt></trkpt>
<trkpt lat="58.866678" lon="05.847047"><ele>26</ele><time>2012-03-31T12:18:54Z</time><cmt>5.7 kmh</cmt></trkpt>
<trkpt lat="58.866684" lon="05.847074"><ele>26</ele><time>2012-03-31T12:18:55Z</time><cmt>5.8 kmh</cmt></trkpt>
<trkpt lat="58.866689" lon="05.847100"><ele>26</ele><time>2012-03-31T12:18:56Z</time><cmt>5.7 kmh</cmt></trkpt>
<trkpt lat="58.866696" lon="05.847127"><ele>26</ele><time>2012-03-31T12:18:57Z</time><cmt>5.7 kmh</cmt></trkpt>
<trkpt lat="58.866702" lon="05.847152"><ele>26</ele><time>2012-03-31T12:18:58Z</time><cmt>5.5 kmh</cmt></trkpt>
<trkpt lat="58.866707" lon="05.847177"><ele>26</ele><time>2012-03-31T12:18:59Z</time><cmt>5.3 kmh</cmt></trkpt>
<trkpt lat="58.866713" lon="05.847201"><ele>26</ele><time>2012-03-31T12:19:00Z</time><cmt>5.2 kmh</cmt></trkpt>
<trkpt lat="58.866718" lon="05.847224"><ele>26</ele><time>2012-03-31T12:19:01Z</time><cmt>5.2 kmh</cmt></trkpt>
<trkpt lat="58.866724" lon="05.847247"><ele>26</ele><time>2012-03-31T12:19:02Z</time><cmt>5.2 kmh</cmt></trkpt>
<trkpt lat="58.866729" lon="05.847271"><ele>26</ele><time>2012-03-31T12:19:03Z</time><cmt>5.3 kmh</cmt></trkpt>
<trkpt lat="58.866736" lon="05.847294"><ele>26</ele><time>2012-03-31T12:19:04Z</time><cmt>5.3 kmh</cmt></trkpt>
<trkpt lat="58.866742" lon="05.847317"><ele>26</ele><time>2012-03-31T12:19:05Z</time><cmt>5.4 kmh</cmt></trkpt>
<trkpt lat="58.866749" lon="05.847340"><ele>26</ele><time>2012-03-31T12:19:06Z</time><cmt>5.3 kmh</cmt></trkpt>
<trkpt lat="58.866756" lon="05.847363"><ele>26</ele><time>2012-03-31T12:19:07Z</time><cmt>5.1 kmh</cmt></trkpt>
<trkpt lat="58.866762" lon="05.847385"><ele>26</ele><time>2012-03-31T12:19:08Z</time><cmt>5.3 kmh</cmt></trkpt>
<trkpt lat="58.866768" lon="05.847408"><ele>26</ele><time>2012-03-31T12:19:09Z</time><cmt>5.3 kmh</cmt></trkpt>
<trkpt lat="58.866775" lon="05.847432"><ele>26</ele><time>2012-03-31T12:19:10Z</time><cmt>5.5 kmh</cmt></trkpt>
<trkpt lat="58.866782" lon="05.847455"><ele>26</ele><time>2012-03-31T12:19:11Z</time><cmt>5.4 kmh</cmt></trkpt>
<trkpt lat="58.866789" lon="05.847478"><ele>26</ele><time>2012-03-31T12:19:12Z</time><cmt>5.3 kmh</cmt></trkpt>
<trkpt lat="58.866795" lon="05.847502"><ele>26</ele><time>2012-03-31T12:19:13Z</time><cmt>5.5 kmh</cmt></trkpt>
<trkpt lat="58.866802" lon="05.847525"><ele>26</ele><time>2012-03-31T12:19:14Z</time><cmt>5.2 kmh</cmt></trkpt>
<trkpt lat="58.866807" lon="05.847548"><ele>26</ele><time>2012-03-31T12:19:15Z</time><cmt>5.1 kmh</cmt></trkpt>
<trkpt lat="58.866813" lon="05.847570"><ele>26</ele><time>2012-03-31T12:19:16Z</time><cmt>5.1 kmh</cmt></trkpt>
<trkpt lat="58.866819" lon="05.847593"><ele>25</ele><time>2012-03-31T12:19:17Z</time><cmt>5.2 kmh</cmt></trkpt>
<trkpt lat="58.866825" lon="05.847616"><ele>25</ele><time>2012-03-31T12:19:18Z</time><cmt>5.1 kmh</cmt></trkpt>
<trkpt lat="58.866830" lon="05.847639"><ele>25</ele><time>2012-03-31T12:19:19Z</time><cmt>5.1 kmh</cmt></trkpt>
<trkpt lat="58.866836" lon="05.847663"><ele>25</ele><time>2012-03-31T12:19:20Z</time><cmt>5.5 kmh</cmt></trkpt>
<trkpt lat="58.866842" lon="05.847687"><ele>25</ele><time>2012-03-31T12:19:21Z</time><cmt>5.2 kmh</cmt></trkpt>
<trkpt lat="58.866847" lon="05.847712"><ele>25</ele><time>2012-03-31T12:19:22Z</time><cmt>5.2 kmh</cmt></trkpt>
<trkpt lat="58.866852" lon="05.847735"><ele>25</ele><time>2012-03-31T12:19:23Z</time><cmt>5.1 kmh</cmt></trkpt>
<trkpt lat="58.866856" lon="05.847758"><ele>25</ele><time>2012-03-31T12:19:24Z</time><cmt>5.1 kmh</cmt></trkpt>
<trkpt lat="58.866860" lon="05.847781"><ele>25</ele><time>2012-03-31T12:19:25Z</time><cmt>5.0 kmh</cmt></trkpt>
<trkpt lat="58.866864" lon="05.847803"><ele>25</ele><time>2012-03-31T12:19:26Z</time><cmt>5.0 kmh</cmt></trkpt>
<trkpt lat="58.866868" lon="05.847826"><ele>25</ele><time>2012-03-31T12:19:27Z</time><cmt>5.1 kmh</cmt></trkpt>
<trkpt lat="58.866871" lon="05.847848"><ele>25</ele><time>2012-03-31T12:19:28Z</time><cmt>5.1 kmh</cmt></trkpt>
<trkpt lat="58.866874" lon="05.847869"><ele>25</ele><time>2012-03-31T12:19:29Z</time><cmt>4.1 kmh</cmt></trkpt>
<trkpt lat="58.866878" lon="05.847891"><ele>25</ele><time>2012-03-31T12:19:30Z</time><cmt>4.1 kmh</cmt></trkpt>
<trkpt lat="58.866881" lon="05.847913"><ele>25</ele><time>2012-03-31T12:19:31Z</time><cmt>5.0 kmh</cmt></trkpt>
<trkpt lat="58.866885" lon="05.847936"><ele>25</ele><time>2012-03-31T12:19:32Z</time><cmt>5.1 kmh</cmt></trkpt>
<trkpt lat="58.866888" lon="05.847958"><ele>25</ele><time>2012-03-31T12:19:33Z</time><cmt>5.1 kmh</cmt></trkpt>
<trkpt lat="58.866892" lon="05.847981"><ele>25</ele><time>2012-03-31T12:19:34Z</time><cmt>5.1 kmh</cmt></trkpt>
<trkpt lat="58.866895" lon="05.848005"><ele>25</ele><time>2012-03-31T12:19:35Z</time><cmt>5.1 kmh</cmt></trkpt>
<trkpt lat="58.866899" lon="05.848028"><ele>25</ele><time>2012-03-31T12:19:36Z</time><cmt>4.4 kmh</cmt></trkpt>
<trkpt lat="58.866902" lon="05.848051"><ele>25</ele><time>2012-03-31T12:19:37Z</time><cmt>5.0 kmh</cmt></trkpt>
<trkpt lat="58.866904" lon="05.848072"><ele>25</ele><time>2012-03-31T12:19:38Z</time><cmt>5.0 kmh</cmt></trkpt>
<trkpt lat="58.866905" lon="05.848094"><ele>25</ele><time>2012-03-31T12:19:39Z</time><cmt>5.1 kmh</cmt></trkpt>
<trkpt lat="58.866908" lon="05.848117"><ele>24</ele><time>2012-03-31T12:19:40Z</time><cmt>5.0 kmh</cmt></trkpt>
<trkpt lat="58.866910" lon="05.848140"><ele>24</ele><time>2012-03-31T12:19:41Z</time><cmt>5.2 kmh</cmt></trkpt>
<trkpt lat="58.866912" lon="05.848162"><ele>24</ele><time>2012-03-31T12:19:42Z</time><cmt>5.1 kmh</cmt></trkpt>
<trkpt lat="58.866915" lon="05.848186"><ele>24</ele><time>2012-03-31T12:19:43Z</time><cmt>5.0 kmh</cmt></trkpt>
<trkpt lat="58.866918" lon="05.848209"><ele>24</ele><time>2012-03-31T12:19:44Z</time><cmt>5.1 kmh</cmt></trkpt>
<trkpt lat="58.866921" lon="05.848232"><ele>24</ele><time>2012-03-31T12:19:45Z</time><cmt>5.1 kmh</cmt></trkpt>
<trkpt lat="58.866924" lon="05.848255"><ele>24</ele><time>2012-03-31T12:19:46Z</time><cmt>5.3 kmh</cmt></trkpt>
<trkpt lat="58.866928" lon="05.848279"><ele>24</ele><time>2012-03-31T12:19:47Z</time><cmt>5.1 kmh</cmt></trkpt>
<trkpt lat="58.866931" lon="05.848303"><ele>24</ele><time>2012-03-31T12:19:48Z</time><cmt>5.4 kmh</cmt></trkpt>
<trkpt lat="58.866935" lon="05.848329"><ele>24</ele><time>2012-03-31T12:19:49Z</time><cmt>5.4 kmh</cmt></trkpt>
<trkpt lat="58.866939" lon="05.848354"><ele>24</ele><time>2012-03-31T12:19:50Z</time><cmt>5.5 kmh</cmt></trkpt>
<trkpt lat="58.866943" lon="05.848380"><ele>24</ele><time>2012-03-31T12:19:51Z</time><cmt>5.5 kmh</cmt></trkpt>
<trkpt lat="58.866946" lon="05.848404"><ele>24</ele><time>2012-03-31T12:19:52Z</time><cmt>5.6 kmh</cmt></trkpt>
<trkpt lat="58.866949" lon="05.848429"><ele>24</ele><time>2012-03-31T12:19:53Z</time><cmt>5.7 kmh</cmt></trkpt>
<trkpt lat="58.866952" lon="05.848454"><ele>24</ele><time>2012-03-31T12:19:54Z</time><cmt>5.7 kmh</cmt></trkpt>
<trkpt lat="58.866956" lon="05.848479"><ele>24</ele><time>2012-03-31T12:19:55Z</time><cmt>5.9 kmh</cmt></trkpt>
<trkpt lat="58.866959" lon="05.848505"><ele>24</ele><time>2012-03-31T12:19:56Z</time><cmt>5.7 kmh</cmt></trkpt>
<trkpt lat="58.866964" lon="05.848532"><ele>24</ele><time>2012-03-31T12:19:57Z</time><cmt>5.8 kmh</cmt></trkpt>
<trkpt lat="58.866968" lon="05.848557"><ele>24</ele><time>2012-03-31T12:19:58Z</time><cmt>5.7 kmh</cmt></trkpt>
<trkpt lat="58.866972" lon="05.848583"><ele>24</ele><time>2012-03-31T12:19:59Z</time><cmt>5.8 kmh</cmt></trkpt>
<trkpt lat="58.866977" lon="05.848609"><ele>24</ele><time>2012-03-31T12:20:00Z</time><cmt>5.8 kmh</cmt></trkpt>
<trkpt lat="58.866982" lon="05.848636"><ele>24</ele><time>2012-03-31T12:20:01Z</time><cmt>5.8 kmh</cmt></trkpt>
<trkpt lat="58.866986" lon="05.848662"><ele>24</ele><time>2012-03-31T12:20:02Z</time><cmt>5.8 kmh</cmt></trkpt>
<trkpt lat="58.866991" lon="05.848688"><ele>24</ele><time>2012-03-31T12:20:03Z</time><cmt>5.8 kmh</cmt></trkpt>
<trkpt lat="58.866995" lon="05.848713"><ele>24</ele><time>2012-03-31T12:20:04Z</time><cmt>5.7 kmh</cmt></trkpt>
<trkpt lat="58.867000" lon="05.848739"><ele>24</ele><time>2012-03-31T12:20:05Z</time><cmt>5.5 kmh</cmt></trkpt>
<trkpt lat="58.867005" lon="05.848764"><ele>24</ele><time>2012-03-31T12:20:06Z</time><cmt>5.6 kmh</cmt></trkpt>
<trkpt lat="58.867010" lon="05.848789"><ele>24</ele><time>2012-03-31T12:20:07Z</time><cmt>5.4 kmh</cmt></trkpt>
<trkpt lat="58.867015" lon="05.848814"><ele>24</ele><time>2012-03-31T12:20:08Z</time><cmt>5.3 kmh</cmt></trkpt>
<trkpt lat="58.867020" lon="05.848839"><ele>24</ele><time>2012-03-31T12:20:09Z</time><cmt>5.0 kmh</cmt></trkpt>
<trkpt lat="58.867025" lon="05.848863"><ele>24</ele><time>2012-03-31T12:20:10Z</time><cmt>5.1 kmh</cmt></trkpt>
<trkpt lat="58.867029" lon="05.848888"><ele>24</ele><time>2012-03-31T12:20:11Z</time><cmt>5.1 kmh</cmt></trkpt>
<trkpt lat="58.867034" lon="05.848912"><ele>24</ele><time>2012-03-31T12:20:12Z</time><cmt>5.1 kmh</cmt></trkpt>
<trkpt lat="58.867038" lon="05.848936"><ele>24</ele><time>2012-03-31T12:20:13Z</time><cmt>5.3 kmh</cmt></trkpt>
<trkpt lat="58.867043" lon="05.848961"><ele>24</ele><time>2012-03-31T12:20:14Z</time><cmt>5.1 kmh</cmt></trkpt>
<trkpt lat="58.867048" lon="05.848986"><ele>24</ele><time>2012-03-31T12:20:15Z</time><cmt>5.2 kmh</cmt></trkpt>
<trkpt lat="58.867053" lon="05.849011"><ele>24</ele><time>2012-03-31T12:20:16Z</time><cmt>5.3 kmh</cmt></trkpt>
<trkpt lat="58.867058" lon="05.849036"><ele>24</ele><time>2012-03-31T12:20:17Z</time><cmt>5.3 kmh</cmt></trkpt>
<trkpt lat="58.867063" lon="05.849061"><ele>24</ele><time>2012-03-31T12:20:18Z</time><cmt>5.5 kmh</cmt></trkpt>
<trkpt lat="58.867069" lon="05.849086"><ele>24</ele><time>2012-03-31T12:20:19Z</time><cmt>5.5 kmh</cmt></trkpt>
<trkpt lat="58.867073" lon="05.849111"><ele>24</ele><time>2012-03-31T12:20:20Z</time><cmt>5.4 kmh</cmt></trkpt>
<trkpt lat="58.867078" lon="05.849136"><ele>24</ele><time>2012-03-31T12:20:21Z</time><cmt>5.5 kmh</cmt></trkpt>
<trkpt lat="58.867083" lon="05.849161"><ele>24</ele><time>2012-03-31T12:20:22Z</time><cmt>5.6 kmh</cmt></trkpt>
<trkpt lat="58.867088" lon="05.849187"><ele>24</ele><time>2012-03-31T12:20:23Z</time><cmt>5.4 kmh</cmt></trkpt>
<trkpt lat="58.867093" lon="05.849212"><ele>24</ele><time>2012-03-31T12:20:24Z</time><cmt>5.5 kmh</cmt></trkpt>
<trkpt lat="58.867098" lon="05.849238"><ele>24</ele><time>2012-03-31T12:20:25Z</time><cmt>5.5 kmh</cmt></trkpt>
<trkpt lat="58.867103" lon="05.849264"><ele>24</ele><time>2012-03-31T12:20:26Z</time><cmt>5.7 kmh</cmt></trkpt>
<trkpt lat="58.867107" lon="05.849289"><ele>24</ele><time>2012-03-31T12:20:27Z</time><cmt>5.6 kmh</cmt></trkpt>
<trkpt lat="58.867112" lon="05.849315"><ele>24</ele><time>2012-03-31T12:20:28Z</time><cmt>5.9 kmh</cmt></trkpt>
<trkpt lat="58.867117" lon="05.849342"><ele>24</ele><time>2012-03-31T12:20:29Z</time><cmt>5.8 kmh</cmt></trkpt>
<trkpt lat="58.867121" lon="05.849366"><ele>24</ele><time>2012-03-31T12:20:30Z</time><cmt>5.7 kmh</cmt></trkpt>
<trkpt lat="58.867125" lon="05.849391"><ele>24</ele><time>2012-03-31T12:20:31Z</time><cmt>5.8 kmh</cmt></trkpt>
<trkpt lat="58.867131" lon="05.849417"><ele>24</ele><time>2012-03-31T12:20:32Z</time><cmt>5.7 kmh</cmt></trkpt>
<trkpt lat="58.867136" lon="05.849443"><ele>23</ele><time>2012-03-31T12:20:33Z</time><cmt>5.7 kmh</cmt></trkpt>
<trkpt lat="58.867141" lon="05.849469"><ele>23</ele><time>2012-03-31T12:20:34Z</time><cmt>5.7 kmh</cmt></trkpt>
<trkpt lat="58.867146" lon="05.849495"><ele>23</ele><time>2012-03-31T12:20:35Z</time><cmt>5.7 kmh</cmt></trkpt>
<trkpt lat="58.867152" lon="05.849521"><ele>23</ele><time>2012-03-31T12:20:36Z</time><cmt>5.9 kmh</cmt></trkpt>
<trkpt lat="58.867158" lon="05.849548"><ele>23</ele><time>2012-03-31T12:20:37Z</time><cmt>5.7 kmh</cmt></trkpt>
<trkpt lat="58.867164" lon="05.849574"><ele>23</ele><time>2012-03-31T12:20:38Z</time><cmt>5.7 kmh</cmt></trkpt>
<trkpt lat="58.867170" lon="05.849599"><ele>23</ele><time>2012-03-31T12:20:39Z</time><cmt>5.6 kmh</cmt></trkpt>
<trkpt lat="58.867176" lon="05.849624"><ele>23</ele><time>2012-03-31T12:20:40Z</time><cmt>5.7 kmh</cmt></trkpt>
<trkpt lat="58.867182" lon="05.849649"><ele>23</ele><time>2012-03-31T12:20:41Z</time><cmt>5.8 kmh</cmt></trkpt>
<trkpt lat="58.867189" lon="05.849675"><ele>23</ele><time>2012-03-31T12:20:42Z</time><cmt>5.8 kmh</cmt></trkpt>
<trkpt lat="58.867195" lon="05.849700"><ele>23</ele><time>2012-03-31T12:20:43Z</time><cmt>5.9 kmh</cmt></trkpt>
<trkpt lat="58.867202" lon="05.849726"><ele>23</ele><time>2012-03-31T12:20:44Z</time><cmt>5.9 kmh</cmt></trkpt>
<trkpt lat="58.867209" lon="05.849752"><ele>23</ele><time>2012-03-31T12:20:45Z</time><cmt>5.8 kmh</cmt></trkpt>
<trkpt lat="58.867215" lon="05.849777"><ele>23</ele><time>2012-03-31T12:20:46Z</time><cmt>5.8 kmh</cmt></trkpt>
<trkpt lat="58.867222" lon="05.849802"><ele>23</ele><time>2012-03-31T12:20:47Z</time><cmt>5.7 kmh</cmt></trkpt>
<trkpt lat="58.867229" lon="05.849827"><ele>23</ele><time>2012-03-31T12:20:48Z</time><cmt>5.6 kmh</cmt></trkpt>
<trkpt lat="58.867236" lon="05.849851"><ele>23</ele><time>2012-03-31T12:20:49Z</time><cmt>5.7 kmh</cmt></trkpt>
<trkpt lat="58.867243" lon="05.849875"><ele>23</ele><time>2012-03-31T12:20:50Z</time><cmt>5.6 kmh</cmt></trkpt>
<trkpt lat="58.867250" lon="05.849898"><ele>23</ele><time>2012-03-31T12:20:51Z</time><cmt>5.5 kmh</cmt></trkpt>
<trkpt lat="58.867257" lon="05.849922"><ele>23</ele><time>2012-03-31T12:20:52Z</time><cmt>5.6 kmh</cmt></trkpt>
<trkpt lat="58.867264" lon="05.849946"><ele>23</ele><time>2012-03-31T12:20:53Z</time><cmt>5.6 kmh</cmt></trkpt>
<trkpt lat="58.867272" lon="05.849969"><ele>23</ele><time>2012-03-31T12:20:54Z</time><cmt>5.7 kmh</cmt></trkpt>
<trkpt lat="58.867279" lon="05.849993"><ele>23</ele><time>2012-03-31T12:20:55Z</time><cmt>5.5 kmh</cmt></trkpt>
<trkpt lat="58.867286" lon="05.850017"><ele>23</ele><time>2012-03-31T12:20:56Z</time><cmt>5.7 kmh</cmt></trkpt>
<trkpt lat="58.867293" lon="05.850041"><ele>23</ele><time>2012-03-31T12:20:57Z</time><cmt>5.5 kmh</cmt></trkpt>
<trkpt lat="58.867299" lon="05.850065"><ele>22</ele><time>2012-03-31T12:20:58Z</time><cmt>5.5 kmh</cmt></trkpt>
<trkpt lat="58.867306" lon="05.850088"><ele>22</ele><time>2012-03-31T12:20:59Z</time><cmt>5.4 kmh</cmt></trkpt>
<trkpt lat="58.867312" lon="05.850111"><ele>22</ele><time>2012-03-31T12:21:00Z</time><cmt>5.3 kmh</cmt></trkpt>
<trkpt lat="58.867319" lon="05.850133"><ele>22</ele><time>2012-03-31T12:21:01Z</time><cmt>5.4 kmh</cmt></trkpt>
<trkpt lat="58.867325" lon="05.850156"><ele>22</ele><time>2012-03-31T12:21:02Z</time><cmt>5.1 kmh</cmt></trkpt>
<trkpt lat="58.867331" lon="05.850178"><ele>22</ele><time>2012-03-31T12:21:03Z</time><cmt>5.2 kmh</cmt></trkpt>
<trkpt lat="58.867338" lon="05.850200"><ele>22</ele><time>2012-03-31T12:21:04Z</time><cmt>5.1 kmh</cmt></trkpt>
<trkpt lat="58.867344" lon="05.850221"><ele>22</ele><time>2012-03-31T12:21:05Z</time><cmt>5.1 kmh</cmt></trkpt>
<trkpt lat="58.867351" lon="05.850243"><ele>22</ele><time>2012-03-31T12:21:06Z</time><cmt>5.3 kmh</cmt></trkpt>
<trkpt lat="58.867358" lon="05.850266"><ele>22</ele><time>2012-03-31T12:21:07Z</time><cmt>5.4 kmh</cmt></trkpt>
<trkpt lat="58.867364" lon="05.850288"><ele>22</ele><time>2012-03-31T12:21:08Z</time><cmt>5.5 kmh</cmt></trkpt>
<trkpt lat="58.867372" lon="05.850311"><ele>22</ele><time>2012-03-31T12:21:09Z</time><cmt>5.5 kmh</cmt></trkpt>
<trkpt lat="58.867379" lon="05.850334"><ele>22</ele><time>2012-03-31T12:21:10Z</time><cmt>5.6 kmh</cmt></trkpt>
<trkpt lat="58.867386" lon="05.850358"><ele>22</ele><time>2012-03-31T12:21:11Z</time><cmt>5.7 kmh</cmt></trkpt>
<trkpt lat="58.867393" lon="05.850382"><ele>22</ele><time>2012-03-31T12:21:12Z</time><cmt>5.8 kmh</cmt></trkpt>
<trkpt lat="58.867401" lon="05.850406"><ele>22</ele><time>2012-03-31T12:21:13Z</time><cmt>5.7 kmh</cmt></trkpt>
<trkpt lat="58.867408" lon="05.850430"><ele>22</ele><time>2012-03-31T12:21:14Z</time><cmt>5.9 kmh</cmt></trkpt>
<trkpt lat="58.867416" lon="05.850454"><ele>22</ele><time>2012-03-31T12:21:15Z</time><cmt>5.8 kmh</cmt></trkpt>
<trkpt lat="58.867424" lon="05.850478"><ele>22</ele><time>2012-03-31T12:21:16Z</time><cmt>5.8 kmh</cmt></trkpt>
<trkpt lat="58.867432" lon="05.850502"><ele>22</ele><time>2012-03-31T12:21:17Z</time><cmt>5.7 kmh</cmt></trkpt>
<trkpt lat="58.867439" lon="05.850525"><ele>22</ele><time>2012-03-31T12:21:18Z</time><cmt>5.7 kmh</cmt></trkpt>
<trkpt lat="58.867446" lon="05.850549"><ele>22</ele><time>2012-03-31T12:21:19Z</time><cmt>5.7 kmh</cmt></trkpt>
<trkpt lat="58.867453" lon="05.850573"><ele>22</ele><time>2012-03-31T12:21:20Z</time><cmt>5.9 kmh</cmt></trkpt>
<trkpt lat="58.867461" lon="05.850598"><ele>21</ele><time>2012-03-31T12:21:21Z</time><cmt>5.9 kmh</cmt></trkpt>
<trkpt lat="58.867469" lon="05.850623"><ele>21</ele><time>2012-03-31T12:21:22Z</time><cmt>6.1 kmh</cmt></trkpt>
<trkpt lat="58.867476" lon="05.850648"><ele>21</ele><time>2012-03-31T12:21:23Z</time><cmt>6.0 kmh</cmt></trkpt>
<trkpt lat="58.867484" lon="05.850673"><ele>21</ele><time>2012-03-31T12:21:24Z</time><cmt>6.2 kmh</cmt></trkpt>
<trkpt lat="58.867492" lon="05.850699"><ele>21</ele><time>2012-03-31T12:21:25Z</time><cmt>6.3 kmh</cmt></trkpt>
<trkpt lat="58.867500" lon="05.850725"><ele>21</ele><time>2012-03-31T12:21:26Z</time><cmt>6.2 kmh</cmt></trkpt>
<trkpt lat="58.867508" lon="05.850750"><ele>21</ele><time>2012-03-31T12:21:27Z</time><cmt>6.0 kmh</cmt></trkpt>
<trkpt lat="58.867516" lon="05.850775"><ele>21</ele><time>2012-03-31T12:21:28Z</time><cmt>6.1 kmh</cmt></trkpt>
<trkpt lat="58.867525" lon="05.850800"><ele>21</ele><time>2012-03-31T12:21:29Z</time><cmt>6.2 kmh</cmt></trkpt>
<trkpt lat="58.867533" lon="05.850825"><ele>21</ele><time>2012-03-31T12:21:30Z</time><cmt>6.2 kmh</cmt></trkpt>
<trkpt lat="58.867541" lon="05.850850"><ele>21</ele><time>2012-03-31T12:21:31Z</time><cmt>6.3 kmh</cmt></trkpt>
<trkpt lat="58.867549" lon="05.850877"><ele>21</ele><time>2012-03-31T12:21:32Z</time><cmt>6.3 kmh</cmt></trkpt>
<trkpt lat="58.867558" lon="05.850904"><ele>21</ele><time>2012-03-31T12:21:33Z</time><cmt>6.7 kmh</cmt></trkpt>
<trkpt lat="58.867566" lon="05.850932"><ele>21</ele><time>2012-03-31T12:21:34Z</time><cmt>6.7 kmh</cmt></trkpt>
<trkpt lat="58.867574" lon="05.850961"><ele>21</ele><time>2012-03-31T12:21:35Z</time><cmt>6.7 kmh</cmt></trkpt>
<trkpt lat="58.867582" lon="05.850990"><ele>21</ele><time>2012-03-31T12:21:36Z</time><cmt>6.8 kmh</cmt></trkpt>
<trkpt lat="58.867590" lon="05.851019"><ele>21</ele><time>2012-03-31T12:21:37Z</time><cmt>6.8 kmh</cmt></trkpt>
<trkpt lat="58.867598" lon="05.851048"><ele>21</ele><time>2012-03-31T12:21:38Z</time><cmt>6.7 kmh</cmt></trkpt>
<trkpt lat="58.867605" lon="05.851077"><ele>21</ele><time>2012-03-31T12:21:39Z</time><cmt>6.6 kmh</cmt></trkpt>
<trkpt lat="58.867613" lon="05.851105"><ele>21</ele><time>2012-03-31T12:21:40Z</time><cmt>6.6 kmh</cmt></trkpt>
<trkpt lat="58.867620" lon="05.851133"><ele>21</ele><time>2012-03-31T12:21:41Z</time><cmt>6.6 kmh</cmt></trkpt>
<trkpt lat="58.867628" lon="05.851161"><ele>21</ele><time>2012-03-31T12:21:42Z</time><cmt>6.4 kmh</cmt></trkpt>
<trkpt lat="58.867636" lon="05.851188"><ele>21</ele><time>2012-03-31T12:21:43Z</time><cmt>6.3 kmh</cmt></trkpt>
<trkpt lat="58.867644" lon="05.851215"><ele>21</ele><time>2012-03-31T12:21:44Z</time><cmt>6.4 kmh</cmt></trkpt>
<trkpt lat="58.867652" lon="05.851242"><ele>21</ele><time>2012-03-31T12:21:45Z</time><cmt>6.5 kmh</cmt></trkpt>
<trkpt lat="58.867660" lon="05.851270"><ele>21</ele><time>2012-03-31T12:21:46Z</time><cmt>6.5 kmh</cmt></trkpt>
<trkpt lat="58.867668" lon="05.851297"><ele>21</ele><time>2012-03-31T12:21:47Z</time><cmt>6.5 kmh</cmt></trkpt>
<trkpt lat="58.867676" lon="05.851324"><ele>21</ele><time>2012-03-31T12:21:48Z</time><cmt>6.6 kmh</cmt></trkpt>
<trkpt lat="58.867684" lon="05.851351"><ele>21</ele><time>2012-03-31T12:21:49Z</time><cmt>6.4 kmh</cmt></trkpt>
<trkpt lat="58.867692" lon="05.851378"><ele>21</ele><time>2012-03-31T12:21:50Z</time><cmt>6.3 kmh</cmt></trkpt>
<trkpt lat="58.867700" lon="05.851404"><ele>21</ele><time>2012-03-31T12:21:51Z</time><cmt>6.2 kmh</cmt></trkpt>
<trkpt lat="58.867708" lon="05.851430"><ele>21</ele><time>2012-03-31T12:21:52Z</time><cmt>6.1 kmh</cmt></trkpt>
<trkpt lat="58.867716" lon="05.851455"><ele>21</ele><time>2012-03-31T12:21:53Z</time><cmt>6.1 kmh</cmt></trkpt>
<trkpt lat="58.867724" lon="05.851480"><ele>20</ele><time>2012-03-31T12:21:54Z</time><cmt>5.9 kmh</cmt></trkpt>
<trkpt lat="58.867732" lon="05.851505"><ele>20</ele><time>2012-03-31T12:21:55Z</time><cmt>6.2 kmh</cmt></trkpt>
<trkpt lat="58.867740" lon="05.851530"><ele>20</ele><time>2012-03-31T12:21:56Z</time><cmt>6.1 kmh</cmt></trkpt>
<trkpt lat="58.867748" lon="05.851555"><ele>20</ele><time>2012-03-31T12:21:57Z</time><cmt>6.3 kmh</cmt></trkpt>
<trkpt lat="58.867757" lon="05.851581"><ele>20</ele><time>2012-03-31T12:21:58Z</time><cmt>6.3 kmh</cmt></trkpt>
<trkpt lat="58.867766" lon="05.851607"><ele>20</ele><time>2012-03-31T12:21:59Z</time><cmt>6.6 kmh</cmt></trkpt>
<trkpt lat="58.867775" lon="05.851634"><ele>20</ele><time>2012-03-31T12:22:00Z</time><cmt>6.5 kmh</cmt></trkpt>
<trkpt lat="58.867783" lon="05.851660"><ele>20</ele><time>2012-03-31T12:22:01Z</time><cmt>6.5 kmh</cmt></trkpt>
<trkpt lat="58.867792" lon="05.851687"><ele>20</ele><time>2012-03-31T12:22:02Z</time><cmt>6.3 kmh</cmt></trkpt>
<trkpt lat="58.867800" lon="05.851712"><ele>20</ele><time>2012-03-31T12:22:03Z</time><cmt>6.2 kmh</cmt></trkpt>
<trkpt lat="58.867809" lon="05.851737"><ele>20</ele><time>2012-03-31T12:22:04Z</time><cmt>6.1 kmh</cmt></trkpt>
<trkpt lat="58.867817" lon="05.851762"><ele>20</ele><time>2012-03-31T12:22:05Z</time><cmt>5.9 kmh</cmt></trkpt>
<trkpt lat="58.867825" lon="05.851786"><ele>20</ele><time>2012-03-31T12:22:06Z</time><cmt>6.0 kmh</cmt></trkpt>
<trkpt lat="58.867833" lon="05.851810"><ele>20</ele><time>2012-03-31T12:22:07Z</time><cmt>5.9 kmh</cmt></trkpt>
<trkpt lat="58.867842" lon="05.851835"><ele>20</ele><time>2012-03-31T12:22:08Z</time><cmt>6.2 kmh</cmt></trkpt>
<trkpt lat="58.867850" lon="05.851859"><ele>20</ele><time>2012-03-31T12:22:09Z</time><cmt>6.0 kmh</cmt></trkpt>
<trkpt lat="58.867859" lon="05.851882"><ele>20</ele><time>2012-03-31T12:22:10Z</time><cmt>6.0 kmh</cmt></trkpt>
<trkpt lat="58.867867" lon="05.851906"><ele>20</ele><time>2012-03-31T12:22:11Z</time><cmt>5.9 kmh</cmt></trkpt>
<trkpt lat="58.867876" lon="05.851930"><ele>20</ele><time>2012-03-31T12:22:12Z</time><cmt>6.1 kmh</cmt></trkpt>
<trkpt lat="58.867885" lon="05.851954"><ele>20</ele><time>2012-03-31T12:22:13Z</time><cmt>6.2 kmh</cmt></trkpt>
<trkpt lat="58.867894" lon="05.851978"><ele>20</ele><time>2012-03-31T12:22:14Z</time><cmt>6.0 kmh</cmt></trkpt>
<trkpt lat="58.867902" lon="05.852001"><ele>20</ele><time>2012-03-31T12:22:15Z</time><cmt>6.0 kmh</cmt></trkpt>
<trkpt lat="58.867911" lon="05.852025"><ele>20</ele><time>2012-03-31T12:22:16Z</time><cmt>6.0 kmh</cmt></trkpt>
<trkpt lat="58.867920" lon="05.852048"><ele>20</ele><time>2012-03-31T12:22:17Z</time><cmt>6.2 kmh</cmt></trkpt>
<trkpt lat="58.867929" lon="05.852072"><ele>20</ele><time>2012-03-31T12:22:18Z</time><cmt>6.0 kmh</cmt></trkpt>
<trkpt lat="58.867938" lon="05.852095"><ele>20</ele><time>2012-03-31T12:22:19Z</time><cmt>6.0 kmh</cmt></trkpt>
<trkpt lat="58.867947" lon="05.852118"><ele>20</ele><time>2012-03-31T12:22:20Z</time><cmt>5.9 kmh</cmt></trkpt>
<trkpt lat="58.867956" lon="05.852141"><ele>20</ele><time>2012-03-31T12:22:21Z</time><cmt>5.8 kmh</cmt></trkpt>
<trkpt lat="58.867964" lon="05.852163"><ele>20</ele><time>2012-03-31T12:22:22Z</time><cmt>5.7 kmh</cmt></trkpt>
<trkpt lat="58.867973" lon="05.852184"><ele>20</ele><time>2012-03-31T12:22:23Z</time><cmt>5.8 kmh</cmt></trkpt>
<trkpt lat="58.867982" lon="05.852206"><ele>20</ele><time>2012-03-31T12:22:24Z</time><cmt>5.9 kmh</cmt></trkpt>
<trkpt lat="58.867992" lon="05.852227"><ele>20</ele><time>2012-03-31T12:22:25Z</time><cmt>5.8 kmh</cmt></trkpt>
<trkpt lat="58.868001" lon="05.852247"><ele>20</ele><time>2012-03-31T12:22:26Z</time><cmt>5.8 kmh</cmt></trkpt>
<trkpt lat="58.868011" lon="05.852267"><ele>20</ele><time>2012-03-31T12:22:27Z</time><cmt>5.8 kmh</cmt></trkpt>
<trkpt lat="58.868022" lon="05.852286"><ele>20</ele><time>2012-03-31T12:22:28Z</time><cmt>6.0 kmh</cmt></trkpt>
<trkpt lat="58.868033" lon="05.852304"><ele>20</ele><time>2012-03-31T12:22:29Z</time><cmt>5.6 kmh</cmt></trkpt>
<trkpt lat="58.868044" lon="05.852319"><ele>20</ele><time>2012-03-31T12:22:30Z</time><cmt>5.3 kmh</cmt></trkpt>
<trkpt lat="58.868055" lon="05.852333"><ele>20</ele><time>2012-03-31T12:22:31Z</time><cmt>5.3 kmh</cmt></trkpt>
<trkpt lat="58.868066" lon="05.852346"><ele>20</ele><time>2012-03-31T12:22:32Z</time><cmt>5.0 kmh</cmt></trkpt>
<trkpt lat="58.868076" lon="05.852357"><ele>20</ele><time>2012-03-31T12:22:33Z</time><cmt>5.0 kmh</cmt></trkpt>
<trkpt lat="58.868085" lon="05.852368"><ele>20</ele><time>2012-03-31T12:22:34Z</time><cmt>4.9 kmh</cmt></trkpt>
<trkpt lat="58.868094" lon="05.852379"><ele>20</ele><time>2012-03-31T12:22:35Z</time><cmt>3.8 kmh</cmt></trkpt>
<trkpt lat="58.868103" lon="05.852388"><ele>20</ele><time>2012-03-31T12:22:36Z</time><cmt>3.5 kmh</cmt></trkpt>
<trkpt lat="58.868111" lon="05.852400"><ele>20</ele><time>2012-03-31T12:22:37Z</time><cmt>4.4 kmh</cmt></trkpt>
<trkpt lat="58.868119" lon="05.852411"><ele>20</ele><time>2012-03-31T12:22:38Z</time><cmt>4.4 kmh</cmt></trkpt>
<trkpt lat="58.868128" lon="05.852423"><ele>20</ele><time>2012-03-31T12:22:39Z</time><cmt>4.4 kmh</cmt></trkpt>
<trkpt lat="58.868136" lon="05.852434"><ele>20</ele><time>2012-03-31T12:22:40Z</time><cmt>4.5 kmh</cmt></trkpt>
<trkpt lat="58.868146" lon="05.852446"><ele>20</ele><time>2012-03-31T12:22:41Z</time><cmt>3.8 kmh</cmt></trkpt>
<trkpt lat="58.868156" lon="05.852459"><ele>20</ele><time>2012-03-31T12:22:42Z</time><cmt>4.0 kmh</cmt></trkpt>
<trkpt lat="58.868166" lon="05.852472"><ele>20</ele><time>2012-03-31T12:22:43Z</time><cmt>5.0 kmh</cmt></trkpt>
<trkpt lat="58.868176" lon="05.852486"><ele>20</ele><time>2012-03-31T12:22:44Z</time><cmt>5.0 kmh</cmt></trkpt>
<trkpt lat="58.868186" lon="05.852498"><ele>20</ele><time>2012-03-31T12:22:45Z</time><cmt>5.0 kmh</cmt></trkpt>
<trkpt lat="58.868197" lon="05.852511"><ele>20</ele><time>2012-03-31T12:22:46Z</time><cmt>5.1 kmh</cmt></trkpt>
<trkpt lat="58.868208" lon="05.852523"><ele>20</ele><time>2012-03-31T12:22:47Z</time><cmt>5.1 kmh</cmt></trkpt>
<trkpt lat="58.868218" lon="05.852533"><ele>20</ele><time>2012-03-31T12:22:48Z</time><cmt>4.3 kmh</cmt></trkpt>
<trkpt lat="58.868228" lon="05.852543"><ele>20</ele><time>2012-03-31T12:22:49Z</time><cmt>5.1 kmh</cmt></trkpt>
<trkpt lat="58.868239" lon="05.852554"><ele>20</ele><time>2012-03-31T12:22:50Z</time><cmt>5.3 kmh</cmt></trkpt>
<trkpt lat="58.868250" lon="05.852565"><ele>20</ele><time>2012-03-31T12:22:51Z</time><cmt>5.3 kmh</cmt></trkpt>
<trkpt lat="58.868262" lon="05.852578"><ele>20</ele><time>2012-03-31T12:22:52Z</time><cmt>5.9 kmh</cmt></trkpt>
<trkpt lat="58.868274" lon="05.852592"><ele>20</ele><time>2012-03-31T12:22:53Z</time><cmt>5.8 kmh</cmt></trkpt>
<trkpt lat="58.868285" lon="05.852608"><ele>20</ele><time>2012-03-31T12:22:54Z</time><cmt>5.7 kmh</cmt></trkpt>
<trkpt lat="58.868296" lon="05.852623"><ele>20</ele><time>2012-03-31T12:22:55Z</time><cmt>5.4 kmh</cmt></trkpt>
<trkpt lat="58.868307" lon="05.852638"><ele>20</ele><time>2012-03-31T12:22:56Z</time><cmt>5.2 kmh</cmt></trkpt>
<trkpt lat="58.868317" lon="05.852653"><ele>20</ele><time>2012-03-31T12:22:57Z</time><cmt>5.2 kmh</cmt></trkpt>
<trkpt lat="58.868326" lon="05.852667"><ele>20</ele><time>2012-03-31T12:22:58Z</time><cmt>5.0 kmh</cmt></trkpt>
<trkpt lat="58.868335" lon="05.852681"><ele>20</ele><time>2012-03-31T12:22:59Z</time><cmt>4.0 kmh</cmt></trkpt>
<trkpt lat="58.868343" lon="05.852694"><ele>20</ele><time>2012-03-31T12:23:00Z</time><cmt>3.8 kmh</cmt></trkpt>
<trkpt lat="58.868351" lon="05.852707"><ele>20</ele><time>2012-03-31T12:23:01Z</time><cmt>4.5 kmh</cmt></trkpt>
<trkpt lat="58.868358" lon="05.852718"><ele>20</ele><time>2012-03-31T12:23:02Z</time><cmt>4.3 kmh</cmt></trkpt>
<trkpt lat="58.868366" lon="05.852729"><ele>20</ele><time>2012-03-31T12:23:03Z</time><cmt>4.1 kmh</cmt></trkpt>
<trkpt lat="58.868373" lon="05.852739"><ele>20</ele><time>2012-03-31T12:23:04Z</time><cmt>3.9 kmh</cmt></trkpt>
<trkpt lat="58.868380" lon="05.852748"><ele>20</ele><time>2012-03-31T12:23:05Z</time><cmt>3.0 kmh</cmt></trkpt>
<trkpt lat="58.868387" lon="05.852756"><ele>20</ele><time>2012-03-31T12:23:06Z</time><cmt>2.8 kmh</cmt></trkpt>
<trkpt lat="58.868393" lon="05.852764"><ele>20</ele><time>2012-03-31T12:23:07Z</time><cmt>3.4 kmh</cmt></trkpt>
<trkpt lat="58.868399" lon="05.852773"><ele>20</ele><time>2012-03-31T12:23:08Z</time><cmt>3.4 kmh</cmt></trkpt>
<trkpt lat="58.868406" lon="05.852784"><ele>20</ele><time>2012-03-31T12:23:09Z</time><cmt>3.5 kmh</cmt></trkpt>
<trkpt lat="58.868412" lon="05.852794"><ele>20</ele><time>2012-03-31T12:23:10Z</time><cmt>3.6 kmh</cmt></trkpt>
<trkpt lat="58.868418" lon="05.852804"><ele>20</ele><time>2012-03-31T12:23:11Z</time><cmt>3.4 kmh</cmt></trkpt>
<trkpt lat="58.868423" lon="05.852814"><ele>20</ele><time>2012-03-31T12:23:12Z</time><cmt>2.7 kmh</cmt></trkpt>
<trkpt lat="58.868429" lon="05.852823"><ele>20</ele><time>2012-03-31T12:23:13Z</time><cmt>2.6 kmh</cmt></trkpt>
<trkpt lat="58.868434" lon="05.852835"><ele>20</ele><time>2012-03-31T12:23:14Z</time><cmt>3.3 kmh</cmt></trkpt>
<trkpt lat="58.868441" lon="05.852847"><ele>20</ele><time>2012-03-31T12:23:15Z</time><cmt>3.7 kmh</cmt></trkpt>
<trkpt lat="58.868448" lon="05.852861"><ele>20</ele><time>2012-03-31T12:23:16Z</time><cmt>4.2 kmh</cmt></trkpt>
<trkpt lat="58.868457" lon="05.852877"><ele>20</ele><time>2012-03-31T12:23:17Z</time><cmt>4.7 kmh</cmt></trkpt>
<trkpt lat="58.868466" lon="05.852892"><ele>20</ele><time>2012-03-31T12:23:18Z</time><cmt>5.4 kmh</cmt></trkpt>
<trkpt lat="58.868476" lon="05.852908"><ele>20</ele><time>2012-03-31T12:23:19Z</time><cmt>5.1 kmh</cmt></trkpt>
<trkpt lat="58.868485" lon="05.852922"><ele>20</ele><time>2012-03-31T12:23:20Z</time><cmt>5.1 kmh</cmt></trkpt>
<trkpt lat="58.868495" lon="05.852935"><ele>20</ele><time>2012-03-31T12:23:21Z</time><cmt>5.0 kmh</cmt></trkpt>
<trkpt lat="58.868504" lon="05.852947"><ele>20</ele><time>2012-03-31T12:23:22Z</time><cmt>4.9 kmh</cmt></trkpt>
<trkpt lat="58.868513" lon="05.852961"><ele>20</ele><time>2012-03-31T12:23:23Z</time><cmt>4.9 kmh</cmt></trkpt>
<trkpt lat="58.868523" lon="05.852973"><ele>20</ele><time>2012-03-31T12:23:24Z</time><cmt>4.0 kmh</cmt></trkpt>
<trkpt lat="58.868532" lon="05.852986"><ele>20</ele><time>2012-03-31T12:23:25Z</time><cmt>4.0 kmh</cmt></trkpt>
<trkpt lat="58.868541" lon="05.852998"><ele>20</ele><time>2012-03-31T12:23:26Z</time><cmt>4.7 kmh</cmt></trkpt>
<trkpt lat="58.868548" lon="05.853010"><ele>20</ele><time>2012-03-31T12:23:27Z</time><cmt>4.4 kmh</cmt></trkpt>
<trkpt lat="58.868556" lon="05.853022"><ele>20</ele><time>2012-03-31T12:23:28Z</time><cmt>4.3 kmh</cmt></trkpt>
<trkpt lat="58.868564" lon="05.853035"><ele>20</ele><time>2012-03-31T12:23:29Z</time><cmt>4.4 kmh</cmt></trkpt>
<trkpt lat="58.868573" lon="05.853049"><ele>20</ele><time>2012-03-31T12:23:30Z</time><cmt>3.8 kmh</cmt></trkpt>
<trkpt lat="58.868581" lon="05.853064"><ele>20</ele><time>2012-03-31T12:23:31Z</time><cmt>3.9 kmh</cmt></trkpt>
<trkpt lat="58.868589" lon="05.853080"><ele>20</ele><time>2012-03-31T12:23:32Z</time><cmt>5.0 kmh</cmt></trkpt>
<trkpt lat="58.868597" lon="05.853097"><ele>20</ele><time>2012-03-31T12:23:33Z</time><cmt>5.0 kmh</cmt></trkpt>
<trkpt lat="58.868604" lon="05.853113"><ele>20</ele><time>2012-03-31T12:23:34Z</time><cmt>4.8 kmh</cmt></trkpt>
<trkpt lat="58.868611" lon="05.853128"><ele>20</ele><time>2012-03-31T12:23:35Z</time><cmt>4.5 kmh</cmt></trkpt>
<trkpt lat="58.868617" lon="05.853143"><ele>20</ele><time>2012-03-31T12:23:36Z</time><cmt>4.4 kmh</cmt></trkpt>
<trkpt lat="58.868625" lon="05.853158"><ele>21</ele><time>2012-03-31T12:23:37Z</time><cmt>3.7 kmh</cmt></trkpt>
<trkpt lat="58.868633" lon="05.853174"><ele>21</ele><time>2012-03-31T12:23:38Z</time><cmt>3.8 kmh</cmt></trkpt>
<trkpt lat="58.868641" lon="05.853189"><ele>21</ele><time>2012-03-31T12:23:39Z</time><cmt>4.9 kmh</cmt></trkpt>
<trkpt lat="58.868649" lon="05.853204"><ele>21</ele><time>2012-03-31T12:23:40Z</time><cmt>4.8 kmh</cmt></trkpt>
<trkpt lat="58.868657" lon="05.853221"><ele>21</ele><time>2012-03-31T12:23:41Z</time><cmt>5.2 kmh</cmt></trkpt>
<trkpt lat="58.868667" lon="05.853238"><ele>21</ele><time>2012-03-31T12:23:42Z</time><cmt>5.0 kmh</cmt></trkpt>
<trkpt lat="58.868677" lon="05.853254"><ele>21</ele><time>2012-03-31T12:23:43Z</time><cmt>5.0 kmh</cmt></trkpt>
<trkpt lat="58.868687" lon="05.853269"><ele>21</ele><time>2012-03-31T12:23:44Z</time><cmt>5.1 kmh</cmt></trkpt>
<trkpt lat="58.868697" lon="05.853284"><ele>21</ele><time>2012-03-31T12:23:45Z</time><cmt>5.1 kmh</cmt></trkpt>
<trkpt lat="58.868708" lon="05.853299"><ele>21</ele><time>2012-03-31T12:23:46Z</time><cmt>5.3 kmh</cmt></trkpt>
<trkpt lat="58.868719" lon="05.853315"><ele>21</ele><time>2012-03-31T12:23:47Z</time><cmt>5.5 kmh</cmt></trkpt>
<trkpt lat="58.868730" lon="05.853330"><ele>21</ele><time>2012-03-31T12:23:48Z</time><cmt>5.4 kmh</cmt></trkpt>
<trkpt lat="58.868741" lon="05.853347"><ele>21</ele><time>2012-03-31T12:23:49Z</time><cmt>5.7 kmh</cmt></trkpt>
<trkpt lat="58.868752" lon="05.853364"><ele>21</ele><time>2012-03-31T12:23:50Z</time><cmt>6.0 kmh</cmt></trkpt>
<trkpt lat="58.868763" lon="05.853383"><ele>21</ele><time>2012-03-31T12:23:51Z</time><cmt>6.0 kmh</cmt></trkpt>
<trkpt lat="58.868775" lon="05.853402"><ele>21</ele><time>2012-03-31T12:23:52Z</time><cmt>6.0 kmh</cmt></trkpt>
<trkpt lat="58.868787" lon="05.853421"><ele>21</ele><time>2012-03-31T12:23:53Z</time><cmt>6.3 kmh</cmt></trkpt>
<trkpt lat="58.868799" lon="05.853439"><ele>21</ele><time>2012-03-31T12:23:54Z</time><cmt>5.9 kmh</cmt></trkpt>
<trkpt lat="58.868810" lon="05.853456"><ele>21</ele><time>2012-03-31T12:23:55Z</time><cmt>5.6 kmh</cmt></trkpt>
<trkpt lat="58.868822" lon="05.853472"><ele>21</ele><time>2012-03-31T12:23:56Z</time><cmt>5.1 kmh</cmt></trkpt>
<trkpt lat="58.868834" lon="05.853486"><ele>21</ele><time>2012-03-31T12:23:57Z</time><cmt>5.1 kmh</cmt></trkpt>
<trkpt lat="58.868846" lon="05.853499"><ele>21</ele><time>2012-03-31T12:23:58Z</time><cmt>5.0 kmh</cmt></trkpt>
<trkpt lat="58.868856" lon="05.853509"><ele>21</ele><time>2012-03-31T12:23:59Z</time><cmt>5.0 kmh</cmt></trkpt>
<trkpt lat="58.868866" lon="05.853517"><ele>21</ele><time>2012-03-31T12:24:00Z</time><cmt>5.0 kmh</cmt></trkpt>
<trkpt lat="58.868876" lon="05.853525"><ele>21</ele><time>2012-03-31T12:24:01Z</time><cmt>3.6 kmh</cmt></trkpt>
<trkpt lat="58.868883" lon="05.853534"><ele>21</ele><time>2012-03-31T12:24:02Z</time><cmt>3.2 kmh</cmt></trkpt>
<trkpt lat="58.868889" lon="05.853542"><ele>21</ele><time>2012-03-31T12:24:03Z</time><cmt>3.5 kmh</cmt></trkpt>
<trkpt lat="58.868894" lon="05.853550"><ele>21</ele><time>2012-03-31T12:24:04Z</time><cmt>3.1 kmh</cmt></trkpt>
<trkpt lat="58.868901" lon="05.853558"><ele>21</ele><time>2012-03-31T12:24:05Z</time><cmt>3.1 kmh</cmt></trkpt>
<trkpt lat="58.868907" lon="05.853567"><ele>21</ele><time>2012-03-31T12:24:06Z</time><cmt>3.3 kmh</cmt></trkpt>
<trkpt lat="58.868913" lon="05.853576"><ele>21</ele><time>2012-03-31T12:24:07Z</time><cmt>2.7 kmh</cmt></trkpt>
<trkpt lat="58.868919" lon="05.853586"><ele>21</ele><time>2012-03-31T12:24:08Z</time><cmt>2.7 kmh</cmt></trkpt>
<trkpt lat="58.868926" lon="05.853598"><ele>21</ele><time>2012-03-31T12:24:09Z</time><cmt>3.6 kmh</cmt></trkpt>
<trkpt lat="58.868933" lon="05.853610"><ele>21</ele><time>2012-03-31T12:24:10Z</time><cmt>4.0 kmh</cmt></trkpt>
<trkpt lat="58.868940" lon="05.853623"><ele>21</ele><time>2012-03-31T12:24:11Z</time><cmt>4.3 kmh</cmt></trkpt>
<trkpt lat="58.868949" lon="05.853637"><ele>21</ele><time>2012-03-31T12:24:12Z</time><cmt>4.5 kmh</cmt></trkpt>
<trkpt lat="58.868957" lon="05.853651"><ele>21</ele><time>2012-03-31T12:24:13Z</time><cmt>4.7 kmh</cmt></trkpt>
<trkpt lat="58.868966" lon="05.853666"><ele>21</ele><time>2012-03-31T12:24:14Z</time><cmt>5.1 kmh</cmt></trkpt>
<trkpt lat="58.868975" lon="05.853682"><ele>21</ele><time>2012-03-31T12:24:15Z</time><cmt>5.3 kmh</cmt></trkpt>
<trkpt lat="58.868985" lon="05.853698"><ele>21</ele><time>2012-03-31T12:24:16Z</time><cmt>5.4 kmh</cmt></trkpt>
<trkpt lat="58.868996" lon="05.853715"><ele>21</ele><time>2012-03-31T12:24:17Z</time><cmt>5.7 kmh</cmt></trkpt>
<trkpt lat="58.869007" lon="05.853733"><ele>21</ele><time>2012-03-31T12:24:18Z</time><cmt>5.8 kmh</cmt></trkpt>
<trkpt lat="58.869018" lon="05.853751"><ele>21</ele><time>2012-03-31T12:24:19Z</time><cmt>5.7 kmh</cmt></trkpt>
<trkpt lat="58.869028" lon="05.853770"><ele>21</ele><time>2012-03-31T12:24:20Z</time><cmt>5.8 kmh</cmt></trkpt>
<trkpt lat="58.869039" lon="05.853789"><ele>21</ele><time>2012-03-31T12:24:21Z</time><cmt>5.9 kmh</cmt></trkpt>
<trkpt lat="58.869050" lon="05.853808"><ele>21</ele><time>2012-03-31T12:24:22Z</time><cmt>5.9 kmh</cmt></trkpt>
<trkpt lat="58.869061" lon="05.853826"><ele>21</ele><time>2012-03-31T12:24:23Z</time><cmt>6.0 kmh</cmt></trkpt>
<trkpt lat="58.869073" lon="05.853845"><ele>21</ele><time>2012-03-31T12:24:24Z</time><cmt>6.1 kmh</cmt></trkpt>
<trkpt lat="58.869084" lon="05.853863"><ele>21</ele><time>2012-03-31T12:24:25Z</time><cmt>5.4 kmh</cmt></trkpt>
<trkpt lat="58.869095" lon="05.853881"><ele>21</ele><time>2012-03-31T12:24:26Z</time><cmt>5.5 kmh</cmt></trkpt>
<trkpt lat="58.869106" lon="05.853898"><ele>21</ele><time>2012-03-31T12:24:27Z</time><cmt>5.5 kmh</cmt></trkpt>
<trkpt lat="58.869116" lon="05.853915"><ele>21</ele><time>2012-03-31T12:24:28Z</time><cmt>5.5 kmh</cmt></trkpt>
<trkpt lat="58.869126" lon="05.853931"><ele>21</ele><time>2012-03-31T12:24:29Z</time><cmt>5.0 kmh</cmt></trkpt>
<trkpt lat="58.869136" lon="05.853947"><ele>21</ele><time>2012-03-31T12:24:30Z</time><cmt>5.0 kmh</cmt></trkpt>
<trkpt lat="58.869146" lon="05.853962"><ele>21</ele><time>2012-03-31T12:24:31Z</time><cmt>5.2 kmh</cmt></trkpt>
<trkpt lat="58.869156" lon="05.853977"><ele>21</ele><time>2012-03-31T12:24:32Z</time><cmt>5.3 kmh</cmt></trkpt>
<trkpt lat="58.869166" lon="05.853992"><ele>21</ele><time>2012-03-31T12:24:33Z</time><cmt>5.3 kmh</cmt></trkpt>
<trkpt lat="58.869178" lon="05.854007"><ele>21</ele><time>2012-03-31T12:24:34Z</time><cmt>5.6 kmh</cmt></trkpt>
<trkpt lat="58.869189" lon="05.854020"><ele>21</ele><time>2012-03-31T12:24:35Z</time><cmt>5.9 kmh</cmt></trkpt>
<trkpt lat="58.869201" lon="05.854036"><ele>21</ele><time>2012-03-31T12:24:36Z</time><cmt>5.9 kmh</cmt></trkpt>
<trkpt lat="58.869214" lon="05.854051"><ele>21</ele><time>2012-03-31T12:24:37Z</time><cmt>6.0 kmh</cmt></trkpt>
<trkpt lat="58.869227" lon="05.854068"><ele>21</ele><time>2012-03-31T12:24:38Z</time><cmt>6.3 kmh</cmt></trkpt>
<trkpt lat="58.869240" lon="05.854084"><ele>21</ele><time>2012-03-31T12:24:39Z</time><cmt>6.3 kmh</cmt></trkpt>
<trkpt lat="58.869253" lon="05.854101"><ele>22</ele><time>2012-03-31T12:24:40Z</time><cmt>6.5 kmh</cmt></trkpt>
<trkpt lat="58.869267" lon="05.854118"><ele>22</ele><time>2012-03-31T12:24:41Z</time><cmt>6.4 kmh</cmt></trkpt>
<trkpt lat="58.869281" lon="05.854136"><ele>22</ele><time>2012-03-31T12:24:42Z</time><cmt>6.7 kmh</cmt></trkpt>
<trkpt lat="58.869305" lon="05.854167"><ele>22</ele><time>2012-03-31T12:24:44Z</time><cmt>6.6 kmh</cmt></trkpt>
<trkpt lat="58.869320" lon="05.854187"><ele>22</ele><time>2012-03-31T12:24:45Z</time><cmt>6.7 kmh</cmt></trkpt>
<trkpt lat="58.869334" lon="05.854207"><ele>22</ele><time>2012-03-31T12:24:46Z</time><cmt>6.9 kmh</cmt></trkpt>
<trkpt lat="58.869349" lon="05.854229"><ele>22</ele><time>2012-03-31T12:24:47Z</time><cmt>7.2 kmh</cmt></trkpt>
<trkpt lat="58.869363" lon="05.854251"><ele>22</ele><time>2012-03-31T12:24:48Z</time><cmt>7.2 kmh</cmt></trkpt>
<trkpt lat="58.869377" lon="05.854273"><ele>22</ele><time>2012-03-31T12:24:49Z</time><cmt>7.3 kmh</cmt></trkpt>
<trkpt lat="58.869390" lon="05.854295"><ele>22</ele><time>2012-03-31T12:24:50Z</time><cmt>7.2 kmh</cmt></trkpt>
<trkpt lat="58.869406" lon="05.854319"><ele>22</ele><time>2012-03-31T12:24:51Z</time><cmt>7.1 kmh</cmt></trkpt>
<trkpt lat="58.869420" lon="05.854341"><ele>22</ele><time>2012-03-31T12:24:52Z</time><cmt>6.9 kmh</cmt></trkpt>
<trkpt lat="58.869450" lon="05.854390"><ele>22</ele><time>2012-03-31T12:24:54Z</time><cmt>6.6 kmh</cmt></trkpt>
<trkpt lat="58.869462" lon="05.854408"><ele>22</ele><time>2012-03-31T12:24:55Z</time><cmt>6.5 kmh</cmt></trkpt>
<trkpt lat="58.869473" lon="05.854428"><ele>22</ele><time>2012-03-31T12:24:56Z</time><cmt>6.3 kmh</cmt></trkpt>
<trkpt lat="58.869485" lon="05.854447"><ele>22</ele><time>2012-03-31T12:24:57Z</time><cmt>6.2 kmh</cmt></trkpt>
<trkpt lat="58.869497" lon="05.854466"><ele>22</ele><time>2012-03-31T12:24:58Z</time><cmt>6.0 kmh</cmt></trkpt>
<trkpt lat="58.869509" lon="05.854483"><ele>22</ele><time>2012-03-31T12:24:59Z</time><cmt>6.0 kmh</cmt></trkpt>
<trkpt lat="58.869521" lon="05.854500"><ele>22</ele><time>2012-03-31T12:25:00Z</time><cmt>5.8 kmh</cmt></trkpt>
<trkpt lat="58.869532" lon="05.854516"><ele>22</ele><time>2012-03-31T12:25:01Z</time><cmt>5.6 kmh</cmt></trkpt>
<trkpt lat="58.869544" lon="05.854530"><ele>22</ele><time>2012-03-31T12:25:02Z</time><cmt>5.7 kmh</cmt></trkpt>
<trkpt lat="58.869556" lon="05.854545"><ele>22</ele><time>2012-03-31T12:25:03Z</time><cmt>6.0 kmh</cmt></trkpt>
<trkpt lat="58.869568" lon="05.854560"><ele>22</ele><time>2012-03-31T12:25:04Z</time><cmt>5.8 kmh</cmt></trkpt>
<trkpt lat="58.869581" lon="05.854576"><ele>22</ele><time>2012-03-31T12:25:05Z</time><cmt>6.0 kmh</cmt></trkpt>
<trkpt lat="58.869592" lon="05.854593"><ele>22</ele><time>2012-03-31T12:25:06Z</time><cmt>5.7 kmh</cmt></trkpt>
<trkpt lat="58.869603" lon="05.854611"><ele>22</ele><time>2012-03-31T12:25:07Z</time><cmt>5.3 kmh</cmt></trkpt>
<trkpt lat="58.869612" lon="05.854629"><ele>22</ele><time>2012-03-31T12:25:08Z</time><cmt>5.3 kmh</cmt></trkpt>
<trkpt lat="58.869621" lon="05.854648"><ele>22</ele><time>2012-03-31T12:25:09Z</time><cmt>5.4 kmh</cmt></trkpt>
<trkpt lat="58.869630" lon="05.854667"><ele>22</ele><time>2012-03-31T12:25:10Z</time><cmt>5.3 kmh</cmt></trkpt>
<trkpt lat="58.869639" lon="05.854686"><ele>22</ele><time>2012-03-31T12:25:11Z</time><cmt>5.3 kmh</cmt></trkpt>
<trkpt lat="58.869647" lon="05.854706"><ele>22</ele><time>2012-03-31T12:25:12Z</time><cmt>5.2 kmh</cmt></trkpt>
<trkpt lat="58.869654" lon="05.854725"><ele>22</ele><time>2012-03-31T12:25:13Z</time><cmt>5.2 kmh</cmt></trkpt>
<trkpt lat="58.869660" lon="05.854743"><ele>22</ele><time>2012-03-31T12:25:14Z</time><cmt>5.0 kmh</cmt></trkpt>
<trkpt lat="58.869665" lon="05.854760"><ele>22</ele><time>2012-03-31T12:25:15Z</time><cmt>4.5 kmh</cmt></trkpt>
<trkpt lat="58.869668" lon="05.854777"><ele>23</ele><time>2012-03-31T12:25:16Z</time><cmt>3.3 kmh</cmt></trkpt>
<trkpt lat="58.869672" lon="05.854794"><ele>23</ele><time>2012-03-31T12:25:17Z</time><cmt>3.2 kmh</cmt></trkpt>
<trkpt lat="58.869675" lon="05.854811"><ele>23</ele><time>2012-03-31T12:25:18Z</time><cmt>4.1 kmh</cmt></trkpt>
<trkpt lat="58.869678" lon="05.854829"><ele>23</ele><time>2012-03-31T12:25:19Z</time><cmt>4.2 kmh</cmt></trkpt>
<trkpt lat="58.869680" lon="05.854844"><ele>23</ele><time>2012-03-31T12:25:20Z</time><cmt>3.8 kmh</cmt></trkpt>
<trkpt lat="58.869682" lon="05.854860"><ele>23</ele><time>2012-03-31T12:25:21Z</time><cmt>3.7 kmh</cmt></trkpt>
<trkpt lat="58.869684" lon="05.854876"><ele>23</ele><time>2012-03-31T12:25:22Z</time><cmt>3.0 kmh</cmt></trkpt>
<trkpt lat="58.869685" lon="05.854891"><ele>23</ele><time>2012-03-31T12:25:23Z</time><cmt>2.8 kmh</cmt></trkpt>
<trkpt lat="58.869686" lon="05.854906"><ele>23</ele><time>2012-03-31T12:25:24Z</time><cmt>3.4 kmh</cmt></trkpt>
<trkpt lat="58.869687" lon="05.854922"><ele>23</ele><time>2012-03-31T12:25:25Z</time><cmt>3.4 kmh</cmt></trkpt>
<trkpt lat="58.869688" lon="05.854937"><ele>23</ele><time>2012-03-31T12:25:26Z</time><cmt>3.4 kmh</cmt></trkpt>
<trkpt lat="58.869688" lon="05.854951"><ele>23</ele><time>2012-03-31T12:25:27Z</time><cmt>3.3 kmh</cmt></trkpt>
<trkpt lat="58.869687" lon="05.854964"><ele>24</ele><time>2012-03-31T12:25:28Z</time><cmt>2.5 kmh</cmt></trkpt>
<trkpt lat="58.869687" lon="05.854977"><ele>24</ele><time>2012-03-31T12:25:29Z</time><cmt>2.4 kmh</cmt></trkpt>
<trkpt lat="58.869686" lon="05.854988"><ele>24</ele><time>2012-03-31T12:25:30Z</time><cmt>2.7 kmh</cmt></trkpt>
<trkpt lat="58.869684" lon="05.854995"><ele>24</ele><time>2012-03-31T12:25:31Z</time><cmt>2.1 kmh</cmt></trkpt>
<trkpt lat="58.869683" lon="05.854999"><ele>24</ele><time>2012-03-31T12:25:32Z</time><cmt>1.4 kmh</cmt></trkpt>
<trkpt lat="58.869681" lon="05.855002"><ele>24</ele><time>2012-03-31T12:25:33Z</time><cmt>0.9 kmh</cmt></trkpt>
<trkpt lat="58.869679" lon="05.855004"><ele>24</ele><time>2012-03-31T12:25:34Z</time><cmt>0.7 kmh</cmt></trkpt>
<trkpt lat="58.869677" lon="05.855006"><ele>24</ele><time>2012-03-31T12:25:35Z</time><cmt>0.8 kmh</cmt></trkpt>
<trkpt lat="58.869674" lon="05.855008"><ele>24</ele><time>2012-03-31T12:25:36Z</time><cmt>1.3 kmh</cmt></trkpt>
<trkpt lat="58.869670" lon="05.855009"><ele>24</ele><time>2012-03-31T12:25:37Z</time><cmt>1.5 kmh</cmt></trkpt>
<trkpt lat="58.869665" lon="05.855010"><ele>25</ele><time>2012-03-31T12:25:38Z</time><cmt>1.9 kmh</cmt></trkpt>
<trkpt lat="58.869659" lon="05.855010"><ele>25</ele><time>2012-03-31T12:25:39Z</time><cmt>2.4 kmh</cmt></trkpt>
<trkpt lat="58.869652" lon="05.855009"><ele>25</ele><time>2012-03-31T12:25:40Z</time><cmt>2.2 kmh</cmt></trkpt>
<trkpt lat="58.869646" lon="05.855007"><ele>25</ele><time>2012-03-31T12:25:41Z</time><cmt>2.3 kmh</cmt></trkpt>
<trkpt lat="58.869639" lon="05.855006"><ele>25</ele><time>2012-03-31T12:25:42Z</time><cmt>2.9 kmh</cmt></trkpt>
<trkpt lat="58.869632" lon="05.855004"><ele>25</ele><time>2012-03-31T12:25:43Z</time><cmt>2.9 kmh</cmt></trkpt>
<trkpt lat="58.869625" lon="05.855001"><ele>25</ele><time>2012-03-31T12:25:44Z</time><cmt>2.9 kmh</cmt></trkpt>
<trkpt lat="58.869619" lon="05.854998"><ele>25</ele><time>2012-03-31T12:25:45Z</time><cmt>3.0 kmh</cmt></trkpt>
<trkpt lat="58.869612" lon="05.854993"><ele>25</ele><time>2012-03-31T12:25:46Z</time><cmt>3.2 kmh</cmt></trkpt>
<trkpt lat="58.869591" lon="05.854979"><ele>25</ele><time>2012-03-31T12:25:49Z</time><cmt>2.7 kmh</cmt></trkpt>
<trkpt lat="58.869571" lon="05.854963"><ele>25</ele><time>2012-03-31T12:25:51Z</time><cmt>4.7 kmh</cmt></trkpt>
<trkpt lat="58.869549" lon="05.854944"><ele>25</ele><time>2012-03-31T12:25:53Z</time><cmt>4.4 kmh</cmt></trkpt>
<trkpt lat="58.869527" lon="05.854919"><ele>26</ele><time>2012-03-31T12:25:55Z</time><cmt>5.2 kmh</cmt></trkpt>
<trkpt lat="58.869498" lon="05.854881"><ele>26</ele><time>2012-03-31T12:25:57Z</time><cmt>5.1 kmh</cmt></trkpt>
<trkpt lat="58.869487" lon="05.854867"><ele>26</ele><time>2012-03-31T12:25:58Z</time><cmt>5.8 kmh</cmt></trkpt>
<trkpt lat="58.869476" lon="05.854851"><ele>26</ele><time>2012-03-31T12:25:59Z</time><cmt>5.7 kmh</cmt></trkpt>
<trkpt lat="58.869465" lon="05.854834"><ele>26</ele><time>2012-03-31T12:26:00Z</time><cmt>5.7 kmh</cmt></trkpt>
<trkpt lat="58.869453" lon="05.854815"><ele>26</ele><time>2012-03-31T12:26:01Z</time><cmt>5.8 kmh</cmt></trkpt>
<trkpt lat="58.869442" lon="05.854796"><ele>26</ele><time>2012-03-31T12:26:02Z</time><cmt>5.5 kmh</cmt></trkpt>
<trkpt lat="58.869431" lon="05.854777"><ele>26</ele><time>2012-03-31T12:26:03Z</time><cmt>5.3 kmh</cmt></trkpt>
<trkpt lat="58.869421" lon="05.854759"><ele>26</ele><time>2012-03-31T12:26:04Z</time><cmt>5.2 kmh</cmt></trkpt>
<trkpt lat="58.869411" lon="05.854742"><ele>26</ele><time>2012-03-31T12:26:05Z</time><cmt>5.0 kmh</cmt></trkpt>
<trkpt lat="58.869402" lon="05.854724"><ele>26</ele><time>2012-03-31T12:26:06Z</time><cmt>5.0 kmh</cmt></trkpt>
<trkpt lat="58.869394" lon="05.854709"><ele>25</ele><time>2012-03-31T12:26:07Z</time><cmt>5.0 kmh</cmt></trkpt>
<trkpt lat="58.869387" lon="05.854693"><ele>25</ele><time>2012-03-31T12:26:08Z</time><cmt>4.8 kmh</cmt></trkpt>
<trkpt lat="58.869381" lon="05.854678"><ele>25</ele><time>2012-03-31T12:26:09Z</time><cmt>4.4 kmh</cmt></trkpt>
<trkpt lat="58.869376" lon="05.854665"><ele>25</ele><time>2012-03-31T12:26:10Z</time><cmt>3.9 kmh</cmt></trkpt>
<trkpt lat="58.869372" lon="05.854653"><ele>25</ele><time>2012-03-31T12:26:11Z</time><cmt>2.7 kmh</cmt></trkpt>
<trkpt lat="58.869369" lon="05.854643"><ele>25</ele><time>2012-03-31T12:26:12Z</time><cmt>2.3 kmh</cmt></trkpt>
<trkpt lat="58.869366" lon="05.854633"><ele>25</ele><time>2012-03-31T12:26:13Z</time><cmt>2.6 kmh</cmt></trkpt>
<trkpt lat="58.869364" lon="05.854625"><ele>25</ele><time>2012-03-31T12:26:14Z</time><cmt>2.3 kmh</cmt></trkpt>
<trkpt lat="58.869363" lon="05.854615"><ele>25</ele><time>2012-03-31T12:26:15Z</time><cmt>2.2 kmh</cmt></trkpt>
<trkpt lat="58.869361" lon="05.854601"><ele>25</ele><time>2012-03-31T12:26:16Z</time><cmt>2.7 kmh</cmt></trkpt>
<trkpt lat="58.869359" lon="05.854586"><ele>25</ele><time>2012-03-31T12:26:17Z</time><cmt>3.3 kmh</cmt></trkpt>
<trkpt lat="58.869354" lon="05.854569"><ele>25</ele><time>2012-03-31T12:26:18Z</time><cmt>3.1 kmh</cmt></trkpt>
<trkpt lat="58.869348" lon="05.854551"><ele>25</ele><time>2012-03-31T12:26:19Z</time><cmt>3.6 kmh</cmt></trkpt>
<trkpt lat="58.869341" lon="05.854533"><ele>25</ele><time>2012-03-31T12:26:20Z</time><cmt>4.9 kmh</cmt></trkpt>
<trkpt lat="58.869333" lon="05.854513"><ele>25</ele><time>2012-03-31T12:26:21Z</time><cmt>5.7 kmh</cmt></trkpt>
<trkpt lat="58.869323" lon="05.854493"><ele>25</ele><time>2012-03-31T12:26:22Z</time><cmt>6.3 kmh</cmt></trkpt>
<trkpt lat="58.869311" lon="05.854473"><ele>25</ele><time>2012-03-31T12:26:23Z</time><cmt>7.1 kmh</cmt></trkpt>
<trkpt lat="58.869297" lon="05.854451"><ele>25</ele><time>2012-03-31T12:26:24Z</time><cmt>7.6 kmh</cmt></trkpt>
<trkpt lat="58.869282" lon="05.854430"><ele>25</ele><time>2012-03-31T12:26:25Z</time><cmt>7.1 kmh</cmt></trkpt>
<trkpt lat="58.869268" lon="05.854413"><ele>25</ele><time>2012-03-31T12:26:26Z</time><cmt>6.2 kmh</cmt></trkpt>
<trkpt lat="58.869254" lon="05.854400"><ele>25</ele><time>2012-03-31T12:26:27Z</time><cmt>5.6 kmh</cmt></trkpt>
<trkpt lat="58.869240" lon="05.854393"><ele>25</ele><time>2012-03-31T12:26:28Z</time><cmt>5.6 kmh</cmt></trkpt>
<trkpt lat="58.869229" lon="05.854392"><ele>25</ele><time>2012-03-31T12:26:29Z</time><cmt>5.0 kmh</cmt></trkpt>
<trkpt lat="58.869219" lon="05.854394"><ele>25</ele><time>2012-03-31T12:26:30Z</time><cmt>3.6 kmh</cmt></trkpt>
<trkpt lat="58.869211" lon="05.854396"><ele>25</ele><time>2012-03-31T12:26:31Z</time><cmt>3.1 kmh</cmt></trkpt>
<trkpt lat="58.869205" lon="05.854394"><ele>24</ele><time>2012-03-31T12:26:32Z</time><cmt>3.1 kmh</cmt></trkpt>
<trkpt lat="58.869198" lon="05.854391"><ele>24</ele><time>2012-03-31T12:26:33Z</time><cmt>2.9 kmh</cmt></trkpt>
<trkpt lat="58.869190" lon="05.854387"><ele>24</ele><time>2012-03-31T12:26:34Z</time><cmt>3.4 kmh</cmt></trkpt>
<trkpt lat="58.869179" lon="05.854381"><ele>24</ele><time>2012-03-31T12:26:35Z</time><cmt>5.3 kmh</cmt></trkpt>
<trkpt lat="58.869166" lon="05.854374"><ele>24</ele><time>2012-03-31T12:26:36Z</time><cmt>6.2 kmh</cmt></trkpt>
<trkpt lat="58.869151" lon="05.854367"><ele>24</ele><time>2012-03-31T12:26:37Z</time><cmt>6.8 kmh</cmt></trkpt>
<trkpt lat="58.869135" lon="05.854359"><ele>24</ele><time>2012-03-31T12:26:38Z</time><cmt>7.3 kmh</cmt></trkpt>
<trkpt lat="58.869117" lon="05.854351"><ele>24</ele><time>2012-03-31T12:26:39Z</time><cmt>7.2 kmh</cmt></trkpt>
<trkpt lat="58.869100" lon="05.854343"><ele>24</ele><time>2012-03-31T12:26:40Z</time><cmt>6.7 kmh</cmt></trkpt>
<trkpt lat="58.869084" lon="05.854340"><ele>24</ele><time>2012-03-31T12:26:41Z</time><cmt>5.9 kmh</cmt></trkpt>
<trkpt lat="58.869070" lon="05.854342"><ele>24</ele><time>2012-03-31T12:26:42Z</time><cmt>5.9 kmh</cmt></trkpt>
<trkpt lat="58.869059" lon="05.854347"><ele>24</ele><time>2012-03-31T12:26:43Z</time><cmt>4.4 kmh</cmt></trkpt>
<trkpt lat="58.869050" lon="05.854352"><ele>24</ele><time>2012-03-31T12:26:44Z</time><cmt>4.4 kmh</cmt></trkpt>
<trkpt lat="58.869044" lon="05.854354"><ele>24</ele><time>2012-03-31T12:26:45Z</time><cmt>3.3 kmh</cmt></trkpt>
<trkpt lat="58.869039" lon="05.854356"><ele>24</ele><time>2012-03-31T12:26:46Z</time><cmt>2.4 kmh</cmt></trkpt>
<trkpt lat="58.869034" lon="05.854358"><ele>24</ele><time>2012-03-31T12:26:47Z</time><cmt>2.1 kmh</cmt></trkpt>
<trkpt lat="58.869030" lon="05.854359"><ele>23</ele><time>2012-03-31T12:26:48Z</time><cmt>2.1 kmh</cmt></trkpt>
<trkpt lat="58.869025" lon="05.854357"><ele>23</ele><time>2012-03-31T12:26:49Z</time><cmt>1.5 kmh</cmt></trkpt>
<trkpt lat="58.869021" lon="05.854356"><ele>23</ele><time>2012-03-31T12:26:50Z</time><cmt>1.5 kmh</cmt></trkpt>
<trkpt lat="58.869016" lon="05.854354"><ele>23</ele><time>2012-03-31T12:26:51Z</time><cmt>2.0 kmh</cmt></trkpt>
<trkpt lat="58.869011" lon="05.854351"><ele>23</ele><time>2012-03-31T12:26:52Z</time><cmt>2.2 kmh</cmt></trkpt>
<trkpt lat="58.869004" lon="05.854348"><ele>23</ele><time>2012-03-31T12:26:53Z</time><cmt>2.6 kmh</cmt></trkpt>
<trkpt lat="58.868997" lon="05.854344"><ele>23</ele><time>2012-03-31T12:26:54Z</time><cmt>3.0 kmh</cmt></trkpt>
<trkpt lat="58.868990" lon="05.854341"><ele>23</ele><time>2012-03-31T12:26:55Z</time><cmt>2.6 kmh</cmt></trkpt>
<trkpt lat="58.868983" lon="05.854337"><ele>23</ele><time>2012-03-31T12:26:56Z</time><cmt>2.6 kmh</cmt></trkpt>
<trkpt lat="58.868976" lon="05.854334"><ele>22</ele><time>2012-03-31T12:26:57Z</time><cmt>3.1 kmh</cmt></trkpt>
<trkpt lat="58.868969" lon="05.854331"><ele>22</ele><time>2012-03-31T12:26:58Z</time><cmt>3.0 kmh</cmt></trkpt>
<trkpt lat="58.868963" lon="05.854327"><ele>22</ele><time>2012-03-31T12:26:59Z</time><cmt>2.8 kmh</cmt></trkpt>
<trkpt lat="58.868957" lon="05.854323"><ele>22</ele><time>2012-03-31T12:27:00Z</time><cmt>2.7 kmh</cmt></trkpt>
<trkpt lat="58.868952" lon="05.854320"><ele>22</ele><time>2012-03-31T12:27:01Z</time><cmt>2.1 kmh</cmt></trkpt>
<trkpt lat="58.868946" lon="05.854317"><ele>22</ele><time>2012-03-31T12:27:02Z</time><cmt>2.1 kmh</cmt></trkpt>
<trkpt lat="58.868940" lon="05.854314"><ele>22</ele><time>2012-03-31T12:27:03Z</time><cmt>2.6 kmh</cmt></trkpt>
<trkpt lat="58.868935" lon="05.854311"><ele>22</ele><time>2012-03-31T12:27:04Z</time><cmt>2.5 kmh</cmt></trkpt>
<trkpt lat="58.868929" lon="05.854309"><ele>22</ele><time>2012-03-31T12:27:05Z</time><cmt>2.4 kmh</cmt></trkpt>
<trkpt lat="58.868924" lon="05.854308"><ele>22</ele><time>2012-03-31T12:27:06Z</time><cmt>2.4 kmh</cmt></trkpt>
<trkpt lat="58.868918" lon="05.854307"><ele>22</ele><time>2012-03-31T12:27:07Z</time><cmt>1.9 kmh</cmt></trkpt>
<trkpt lat="58.868913" lon="05.854306"><ele>21</ele><time>2012-03-31T12:27:08Z</time><cmt>1.8 kmh</cmt></trkpt>
<trkpt lat="58.868909" lon="05.854304"><ele>21</ele><time>2012-03-31T12:27:09Z</time><cmt>2.2 kmh</cmt></trkpt>
<trkpt lat="58.868905" lon="05.854301"><ele>21</ele><time>2012-03-31T12:27:10Z</time><cmt>1.9 kmh</cmt></trkpt>
<trkpt lat="58.868903" lon="05.854297"><ele>21</ele><time>2012-03-31T12:27:11Z</time><cmt>1.5 kmh</cmt></trkpt>
<trkpt lat="58.868902" lon="05.854293"><ele>21</ele><time>2012-03-31T12:27:12Z</time><cmt>1.1 kmh</cmt></trkpt>
<trkpt lat="58.868902" lon="05.854291"><ele>21</ele><time>2012-03-31T12:27:13Z</time><cmt>0.6 kmh</cmt></trkpt>
<trkpt lat="58.868900" lon="05.854289"><ele>21</ele><time>2012-03-31T12:27:14Z</time><cmt>0.6 kmh</cmt></trkpt>
<trkpt lat="58.868897" lon="05.854288"><ele>21</ele><time>2012-03-31T12:27:15Z</time><cmt>1.2 kmh</cmt></trkpt>
<trkpt lat="58.868893" lon="05.854284"><ele>21</ele><time>2012-03-31T12:27:16Z</time><cmt>1.6 kmh</cmt></trkpt>
<trkpt lat="58.868889" lon="05.854278"><ele>21</ele><time>2012-03-31T12:27:17Z</time><cmt>2.0 kmh</cmt></trkpt>
<trkpt lat="58.868884" lon="05.854272"><ele>21</ele><time>2012-03-31T12:27:18Z</time><cmt>2.3 kmh</cmt></trkpt>
<trkpt lat="58.868879" lon="05.854266"><ele>21</ele><time>2012-03-31T12:27:19Z</time><cmt>2.5 kmh</cmt></trkpt>
<trkpt lat="58.868874" lon="05.854261"><ele>21</ele><time>2012-03-31T12:27:20Z</time><cmt>2.0 kmh</cmt></trkpt>
<trkpt lat="58.868869" lon="05.854255"><ele>21</ele><time>2012-03-31T12:27:21Z</time><cmt>2.0 kmh</cmt></trkpt>
<trkpt lat="58.868865" lon="05.854250"><ele>21</ele><time>2012-03-31T12:27:22Z</time><cmt>2.4 kmh</cmt></trkpt>
<trkpt lat="58.868862" lon="05.854245"><ele>21</ele><time>2012-03-31T12:27:23Z</time><cmt>2.0 kmh</cmt></trkpt>
<trkpt lat="58.868859" lon="05.854241"><ele>20</ele><time>2012-03-31T12:27:24Z</time><cmt>1.6 kmh</cmt></trkpt>
<trkpt lat="58.868856" lon="05.854237"><ele>20</ele><time>2012-03-31T12:27:25Z</time><cmt>1.4 kmh</cmt></trkpt>
<trkpt lat="58.868853" lon="05.854235"><ele>20</ele><time>2012-03-31T12:27:26Z</time><cmt>1.1 kmh</cmt></trkpt>
<trkpt lat="58.868851" lon="05.854232"><ele>20</ele><time>2012-03-31T12:27:27Z</time><cmt>1.1 kmh</cmt></trkpt>
<trkpt lat="58.868848" lon="05.854229"><ele>20</ele><time>2012-03-31T12:27:28Z</time><cmt>1.2 kmh</cmt></trkpt>
<trkpt lat="58.868846" lon="05.854227"><ele>20</ele><time>2012-03-31T12:27:29Z</time><cmt>1.2 kmh</cmt></trkpt>
<trkpt lat="58.868844" lon="05.854226"><ele>20</ele><time>2012-03-31T12:27:30Z</time><cmt>1.1 kmh</cmt></trkpt>
<trkpt lat="58.868842" lon="05.854224"><ele>20</ele><time>2012-03-31T12:27:31Z</time><cmt>0.9 kmh</cmt></trkpt>
<trkpt lat="58.868840" lon="05.854223"><ele>20</ele><time>2012-03-31T12:27:32Z</time><cmt>0.6 kmh</cmt></trkpt>
<trkpt lat="58.868838" lon="05.854221"><ele>20</ele><time>2012-03-31T12:27:33Z</time><cmt>0.8 kmh</cmt></trkpt>
<trkpt lat="58.868834" lon="05.854218"><ele>20</ele><time>2012-03-31T12:27:34Z</time><cmt>1.5 kmh</cmt></trkpt>
<trkpt lat="58.868830" lon="05.854215"><ele>20</ele><time>2012-03-31T12:27:35Z</time><cmt>1.8 kmh</cmt></trkpt>
<trkpt lat="58.868826" lon="05.854211"><ele>20</ele><time>2012-03-31T12:27:36Z</time><cmt>1.8 kmh</cmt></trkpt>
<trkpt lat="58.868823" lon="05.854207"><ele>20</ele><time>2012-03-31T12:27:37Z</time><cmt>1.8 kmh</cmt></trkpt>
<trkpt lat="58.868818" lon="05.854201"><ele>19</ele><time>2012-03-31T12:27:38Z</time><cmt>1.7 kmh</cmt></trkpt>
<trkpt lat="58.868810" lon="05.854194"><ele>19</ele><time>2012-03-31T12:27:39Z</time><cmt>2.4 kmh</cmt></trkpt>
<trkpt lat="58.868802" lon="05.854185"><ele>19</ele><time>2012-03-31T12:27:40Z</time><cmt>3.8 kmh</cmt></trkpt>
<trkpt lat="58.868792" lon="05.854177"><ele>19</ele><time>2012-03-31T12:27:41Z</time><cmt>4.3 kmh</cmt></trkpt>
<trkpt lat="58.868783" lon="05.854171"><ele>19</ele><time>2012-03-31T12:27:42Z</time><cmt>4.3 kmh</cmt></trkpt>
<trkpt lat="58.868775" lon="05.854166"><ele>19</ele><time>2012-03-31T12:27:43Z</time><cmt>3.9 kmh</cmt></trkpt>
<trkpt lat="58.868769" lon="05.854160"><ele>19</ele><time>2012-03-31T12:27:44Z</time><cmt>2.7 kmh</cmt></trkpt>
<trkpt lat="58.868763" lon="05.854155"><ele>19</ele><time>2012-03-31T12:27:45Z</time><cmt>2.3 kmh</cmt></trkpt>
<trkpt lat="58.868757" lon="05.854150"><ele>19</ele><time>2012-03-31T12:27:46Z</time><cmt>2.7 kmh</cmt></trkpt>
<trkpt lat="58.868752" lon="05.854145"><ele>19</ele><time>2012-03-31T12:27:47Z</time><cmt>2.6 kmh</cmt></trkpt>
<trkpt lat="58.868747" lon="05.854141"><ele>19</ele><time>2012-03-31T12:27:48Z</time><cmt>2.6 kmh</cmt></trkpt>
<trkpt lat="58.868742" lon="05.854138"><ele>19</ele><time>2012-03-31T12:27:49Z</time><cmt>2.3 kmh</cmt></trkpt>
<trkpt lat="58.868738" lon="05.854136"><ele>19</ele><time>2012-03-31T12:27:50Z</time><cmt>1.7 kmh</cmt></trkpt>
<trkpt lat="58.868733" lon="05.854134"><ele>19</ele><time>2012-03-31T12:27:51Z</time><cmt>1.6 kmh</cmt></trkpt>
<trkpt lat="58.868729" lon="05.854131"><ele>19</ele><time>2012-03-31T12:27:52Z</time><cmt>1.9 kmh</cmt></trkpt>
<trkpt lat="58.868725" lon="05.854129"><ele>19</ele><time>2012-03-31T12:27:53Z</time><cmt>1.8 kmh</cmt></trkpt>
<trkpt lat="58.868721" lon="05.854127"><ele>19</ele><time>2012-03-31T12:27:54Z</time><cmt>1.6 kmh</cmt></trkpt>
<trkpt lat="58.868718" lon="05.854125"><ele>19</ele><time>2012-03-31T12:27:55Z</time><cmt>1.5 kmh</cmt></trkpt>
<trkpt lat="58.868716" lon="05.854122"><ele>19</ele><time>2012-03-31T12:27:56Z</time><cmt>1.4 kmh</cmt></trkpt>
<trkpt lat="58.868715" lon="05.854118"><ele>19</ele><time>2012-03-31T12:27:57Z</time><cmt>0.9 kmh</cmt></trkpt>
<trkpt lat="58.868716" lon="05.854115"><ele>19</ele><time>2012-03-31T12:27:58Z</time><cmt>0.7 kmh</cmt></trkpt>
<trkpt lat="58.868716" lon="05.854113"><ele>19</ele><time>2012-03-31T12:27:59Z</time><cmt>0.6 kmh</cmt></trkpt>
<trkpt lat="58.868716" lon="05.854112"><ele>19</ele><time>2012-03-31T12:28:00Z</time><cmt>0.3 kmh</cmt></trkpt>
<trkpt lat="58.868718" lon="05.854112"><ele>19</ele><time>2012-03-31T12:28:01Z</time><cmt>0.0 kmh</cmt></trkpt>
<trkpt lat="58.868720" lon="05.854112"><ele>19</ele><time>2012-03-31T12:28:02Z</time><cmt>0.4 kmh</cmt></trkpt>
<trkpt lat="58.868721" lon="05.854112"><ele>19</ele><time>2012-03-31T12:28:03Z</time><cmt>0.6 kmh</cmt></trkpt>
<trkpt lat="58.868724" lon="05.854113"><ele>19</ele><time>2012-03-31T12:28:04Z</time><cmt>0.7 kmh</cmt></trkpt>
<trkpt lat="58.868726" lon="05.854116"><ele>19</ele><time>2012-03-31T12:28:05Z</time><cmt>1.2 kmh</cmt></trkpt>
<trkpt lat="58.868728" lon="05.854118"><ele>19</ele><time>2012-03-31T12:28:06Z</time><cmt>1.1 kmh</cmt></trkpt>
<trkpt lat="58.868728" lon="05.854120"><ele>19</ele><time>2012-03-31T12:28:07Z</time><cmt>0.7 kmh</cmt></trkpt>
<trkpt lat="58.868727" lon="05.854121"><ele>18</ele><time>2012-03-31T12:28:08Z</time><cmt>0.4 kmh</cmt></trkpt>
<trkpt lat="58.868727" lon="05.854121"><ele>18</ele><time>2012-03-31T12:28:09Z</time><cmt>0.1 kmh</cmt></trkpt>
<trkpt lat="58.868726" lon="05.854120"><ele>18</ele><time>2012-03-31T12:28:10Z</time><cmt>0.0 kmh</cmt></trkpt>
<trkpt lat="58.868725" lon="05.854116"><ele>18</ele><time>2012-03-31T12:28:11Z</time><cmt>0.3 kmh</cmt></trkpt>
<trkpt lat="58.868722" lon="05.854109"><ele>18</ele><time>2012-03-31T12:28:12Z</time><cmt>1.0 kmh</cmt></trkpt>
<trkpt lat="58.868716" lon="05.854100"><ele>18</ele><time>2012-03-31T12:28:13Z</time><cmt>2.6 kmh</cmt></trkpt>
<trkpt lat="58.868710" lon="05.854089"><ele>18</ele><time>2012-03-31T12:28:14Z</time><cmt>3.3 kmh</cmt></trkpt>
<trkpt lat="58.868704" lon="05.854078"><ele>18</ele><time>2012-03-31T12:28:15Z</time><cmt>2.8 kmh</cmt></trkpt>
<trkpt lat="58.868698" lon="05.854068"><ele>18</ele><time>2012-03-31T12:28:16Z</time><cmt>2.8 kmh</cmt></trkpt>
<trkpt lat="58.868692" lon="05.854059"><ele>18</ele><time>2012-03-31T12:28:17Z</time><cmt>3.3 kmh</cmt></trkpt>
<trkpt lat="58.868688" lon="05.854051"><ele>18</ele><time>2012-03-31T12:28:18Z</time><cmt>3.0 kmh</cmt></trkpt>
<trkpt lat="58.868684" lon="05.854043"><ele>18</ele><time>2012-03-31T12:28:19Z</time><cmt>2.6 kmh</cmt></trkpt>
<trkpt lat="58.868681" lon="05.854035"><ele>18</ele><time>2012-03-31T12:28:20Z</time><cmt>2.3 kmh</cmt></trkpt>
<trkpt lat="58.868677" lon="05.854028"><ele>18</ele><time>2012-03-31T12:28:21Z</time><cmt>1.7 kmh</cmt></trkpt>
<trkpt lat="58.868674" lon="05.854021"><ele>18</ele><time>2012-03-31T12:28:22Z</time><cmt>1.7 kmh</cmt></trkpt>
<trkpt lat="58.868670" lon="05.854014"><ele>18</ele><time>2012-03-31T12:28:23Z</time><cmt>2.1 kmh</cmt></trkpt>
<trkpt lat="58.868667" lon="05.854008"><ele>18</ele><time>2012-03-31T12:28:24Z</time><cmt>2.1 kmh</cmt></trkpt>
<trkpt lat="58.868664" lon="05.854001"><ele>18</ele><time>2012-03-31T12:28:25Z</time><cmt>2.0 kmh</cmt></trkpt>
<trkpt lat="58.868661" lon="05.853994"><ele>17</ele><time>2012-03-31T12:28:26Z</time><cmt>2.0 kmh</cmt></trkpt>
<trkpt lat="58.868659" lon="05.853988"><ele>17</ele><time>2012-03-31T12:28:27Z</time><cmt>1.9 kmh</cmt></trkpt>
<trkpt lat="58.868656" lon="05.853982"><ele>17</ele><time>2012-03-31T12:28:28Z</time><cmt>1.4 kmh</cmt></trkpt>
<trkpt lat="58.868654" lon="05.853974"><ele>17</ele><time>2012-03-31T12:28:29Z</time><cmt>1.4 kmh</cmt></trkpt>
<trkpt lat="58.868652" lon="05.853963"><ele>17</ele><time>2012-03-31T12:28:30Z</time><cmt>2.2 kmh</cmt></trkpt>
<trkpt lat="58.868649" lon="05.853950"><ele>17</ele><time>2012-03-31T12:28:31Z</time><cmt>2.9 kmh</cmt></trkpt>
<trkpt lat="58.868645" lon="05.853930"><ele>17</ele><time>2012-03-31T12:28:32Z</time><cmt>5.2 kmh</cmt></trkpt>
<trkpt lat="58.868640" lon="05.853905"><ele>17</ele><time>2012-03-31T12:28:33Z</time><cmt>6.2 kmh</cmt></trkpt>
<trkpt lat="58.868635" lon="05.853876"><ele>17</ele><time>2012-03-31T12:28:34Z</time><cmt>7.0 kmh</cmt></trkpt>
<trkpt lat="58.868630" lon="05.853844"><ele>17</ele><time>2012-03-31T12:28:35Z</time><cmt>7.3 kmh</cmt></trkpt>
<trkpt lat="58.868626" lon="05.853810"><ele>17</ele><time>2012-03-31T12:28:36Z</time><cmt>7.0 kmh</cmt></trkpt>
<trkpt lat="58.868625" lon="05.853778"><ele>17</ele><time>2012-03-31T12:28:37Z</time><cmt>6.0 kmh</cmt></trkpt>
<trkpt lat="58.868626" lon="05.853751"><ele>17</ele><time>2012-03-31T12:28:38Z</time><cmt>6.0 kmh</cmt></trkpt>
<trkpt lat="58.868632" lon="05.853730"><ele>17</ele><time>2012-03-31T12:28:39Z</time><cmt>5.0 kmh</cmt></trkpt>
<trkpt lat="58.868637" lon="05.853714"><ele>17</ele><time>2012-03-31T12:28:40Z</time><cmt>3.8 kmh</cmt></trkpt>
<trkpt lat="58.868642" lon="05.853699"><ele>17</ele><time>2012-03-31T12:28:41Z</time><cmt>3.4 kmh</cmt></trkpt>
<trkpt lat="58.868647" lon="05.853685"><ele>17</ele><time>2012-03-31T12:28:42Z</time><cmt>3.8 kmh</cmt></trkpt>
<trkpt lat="58.868651" lon="05.853672"><ele>17</ele><time>2012-03-31T12:28:43Z</time><cmt>3.5 kmh</cmt></trkpt>
<trkpt lat="58.868655" lon="05.853661"><ele>17</ele><time>2012-03-31T12:28:44Z</time><cmt>3.2 kmh</cmt></trkpt>
<trkpt lat="58.868658" lon="05.853652"><ele>17</ele><time>2012-03-31T12:28:45Z</time><cmt>2.8 kmh</cmt></trkpt>
<trkpt lat="58.868662" lon="05.853644"><ele>17</ele><time>2012-03-31T12:28:46Z</time><cmt>1.9 kmh</cmt></trkpt>
<trkpt lat="58.868665" lon="05.853639"><ele>17</ele><time>2012-03-31T12:28:47Z</time><cmt>1.7 kmh</cmt></trkpt>
<trkpt lat="58.868669" lon="05.853634"><ele>17</ele><time>2012-03-31T12:28:48Z</time><cmt>1.9 kmh</cmt></trkpt>
<trkpt lat="58.868672" lon="05.853630"><ele>18</ele><time>2012-03-31T12:28:49Z</time><cmt>1.7 kmh</cmt></trkpt>
<trkpt lat="58.868674" lon="05.853625"><ele>18</ele><time>2012-03-31T12:28:50Z</time><cmt>1.6 kmh</cmt></trkpt>
<trkpt lat="58.868676" lon="05.853621"><ele>18</ele><time>2012-03-31T12:28:51Z</time><cmt>1.4 kmh</cmt></trkpt>
<trkpt lat="58.868678" lon="05.853618"><ele>18</ele><time>2012-03-31T12:28:52Z</time><cmt>0.9 kmh</cmt></trkpt>
<trkpt lat="58.868678" lon="05.853614"><ele>18</ele><time>2012-03-31T12:28:53Z</time><cmt>0.7 kmh</cmt></trkpt>
<trkpt lat="58.868677" lon="05.853610"><ele>18</ele><time>2012-03-31T12:28:54Z</time><cmt>0.9 kmh</cmt></trkpt>
<trkpt lat="58.868674" lon="05.853605"><ele>18</ele><time>2012-03-31T12:28:55Z</time><cmt>1.4 kmh</cmt></trkpt>
<trkpt lat="58.868670" lon="05.853602"><ele>18</ele><time>2012-03-31T12:28:56Z</time><cmt>1.7 kmh</cmt></trkpt>
<trkpt lat="58.868667" lon="05.853599"><ele>18</ele><time>2012-03-31T12:28:57Z</time><cmt>1.7 kmh</cmt></trkpt>
<trkpt lat="58.868663" lon="05.853596"><ele>18</ele><time>2012-03-31T12:28:58Z</time><cmt>1.6 kmh</cmt></trkpt>
<trkpt lat="58.868661" lon="05.853592"><ele>19</ele><time>2012-03-31T12:28:59Z</time><cmt>1.2 kmh</cmt></trkpt>
<trkpt lat="58.868659" lon="05.853588"><ele>19</ele><time>2012-03-31T12:29:00Z</time><cmt>1.1 kmh</cmt></trkpt>
<trkpt lat="58.868659" lon="05.853583"><ele>19</ele><time>2012-03-31T12:29:01Z</time><cmt>1.2 kmh</cmt></trkpt>
<trkpt lat="58.868659" lon="05.853579"><ele>19</ele><time>2012-03-31T12:29:02Z</time><cmt>1.0 kmh</cmt></trkpt>
<trkpt lat="58.868659" lon="05.853575"><ele>19</ele><time>2012-03-31T12:29:03Z</time><cmt>0.9 kmh</cmt></trkpt>
<trkpt lat="58.868660" lon="05.853571"><ele>19</ele><time>2012-03-31T12:29:04Z</time><cmt>0.9 kmh</cmt></trkpt>
<trkpt lat="58.868661" lon="05.853567"><ele>19</ele><time>2012-03-31T12:29:05Z</time><cmt>0.7 kmh</cmt></trkpt>
<trkpt lat="58.868661" lon="05.853563"><ele>19</ele><time>2012-03-31T12:29:06Z</time><cmt>0.8 kmh</cmt></trkpt>
<trkpt lat="58.868662" lon="05.853556"><ele>20</ele><time>2012-03-31T12:29:07Z</time><cmt>1.4 kmh</cmt></trkpt>
<trkpt lat="58.868663" lon="05.853546"><ele>20</ele><time>2012-03-31T12:29:08Z</time><cmt>2.0 kmh</cmt></trkpt>
<trkpt lat="58.868663" lon="05.853534"><ele>20</ele><time>2012-03-31T12:29:09Z</time><cmt>2.5 kmh</cmt></trkpt>
<trkpt lat="58.868665" lon="05.853519"><ele>20</ele><time>2012-03-31T12:29:10Z</time><cmt>3.0 kmh</cmt></trkpt>
<trkpt lat="58.868665" lon="05.853502"><ele>20</ele><time>2012-03-31T12:29:11Z</time><cmt>2.9 kmh</cmt></trkpt>
<trkpt lat="58.868664" lon="05.853484"><ele>20</ele><time>2012-03-31T12:29:12Z</time><cmt>3.2 kmh</cmt></trkpt>
<trkpt lat="58.868662" lon="05.853466"><ele>21</ele><time>2012-03-31T12:29:13Z</time><cmt>4.1 kmh</cmt></trkpt>
<trkpt lat="58.868660" lon="05.853449"><ele>21</ele><time>2012-03-31T12:29:14Z</time><cmt>3.9 kmh</cmt></trkpt>
<trkpt lat="58.868656" lon="05.853434"><ele>21</ele><time>2012-03-31T12:29:15Z</time><cmt>3.8 kmh</cmt></trkpt>
<trkpt lat="58.868651" lon="05.853419"><ele>21</ele><time>2012-03-31T12:29:16Z</time><cmt>3.9 kmh</cmt></trkpt>
<trkpt lat="58.868645" lon="05.853405"><ele>21</ele><time>2012-03-31T12:29:17Z</time><cmt>3.2 kmh</cmt></trkpt>
<trkpt lat="58.868640" lon="05.853392"><ele>22</ele><time>2012-03-31T12:29:18Z</time><cmt>3.1 kmh</cmt></trkpt>
<trkpt lat="58.868634" lon="05.853381"><ele>22</ele><time>2012-03-31T12:29:19Z</time><cmt>3.5 kmh</cmt></trkpt>
<trkpt lat="58.868629" lon="05.853373"><ele>22</ele><time>2012-03-31T12:29:20Z</time><cmt>3.2 kmh</cmt></trkpt>
<trkpt lat="58.868624" lon="05.853365"><ele>22</ele><time>2012-03-31T12:29:21Z</time><cmt>2.9 kmh</cmt></trkpt>
<trkpt lat="58.868620" lon="05.853357"><ele>22</ele><time>2012-03-31T12:29:22Z</time><cmt>2.5 kmh</cmt></trkpt>
<trkpt lat="58.868616" lon="05.853349"><ele>22</ele><time>2012-03-31T12:29:23Z</time><cmt>1.9 kmh</cmt></trkpt>
<trkpt lat="58.868613" lon="05.853340"><ele>22</ele><time>2012-03-31T12:29:24Z</time><cmt>2.0 kmh</cmt></trkpt>
<trkpt lat="58.868608" lon="05.853330"><ele>22</ele><time>2012-03-31T12:29:25Z</time><cmt>2.8 kmh</cmt></trkpt>
<trkpt lat="58.868602" lon="05.853320"><ele>22</ele><time>2012-03-31T12:29:26Z</time><cmt>3.2 kmh</cmt></trkpt>
<trkpt lat="58.868595" lon="05.853310"><ele>23</ele><time>2012-03-31T12:29:27Z</time><cmt>3.6 kmh</cmt></trkpt>
<trkpt lat="58.868588" lon="05.853301"><ele>23</ele><time>2012-03-31T12:29:28Z</time><cmt>3.7 kmh</cmt></trkpt>
<trkpt lat="58.868579" lon="05.853294"><ele>23</ele><time>2012-03-31T12:29:29Z</time><cmt>3.9 kmh</cmt></trkpt>
<trkpt lat="58.868570" lon="05.853288"><ele>23</ele><time>2012-03-31T12:29:30Z</time><cmt>3.3 kmh</cmt></trkpt>
<trkpt lat="58.868560" lon="05.853284"><ele>23</ele><time>2012-03-31T12:29:31Z</time><cmt>3.5 kmh</cmt></trkpt>
<trkpt lat="58.868549" lon="05.853282"><ele>23</ele><time>2012-03-31T12:29:32Z</time><cmt>4.6 kmh</cmt></trkpt>
<trkpt lat="58.868539" lon="05.853281"><ele>23</ele><time>2012-03-31T12:29:33Z</time><cmt>4.5 kmh</cmt></trkpt>
<trkpt lat="58.868531" lon="05.853278"><ele>23</ele><time>2012-03-31T12:29:34Z</time><cmt>3.9 kmh</cmt></trkpt>
<trkpt lat="58.868526" lon="05.853275"><ele>23</ele><time>2012-03-31T12:29:35Z</time><cmt>2.8 kmh</cmt></trkpt>
<trkpt lat="58.868523" lon="05.853273"><ele>23</ele><time>2012-03-31T12:29:36Z</time><cmt>1.5 kmh</cmt></trkpt>
<trkpt lat="58.868519" lon="05.853272"><ele>23</ele><time>2012-03-31T12:29:37Z</time><cmt>1.2 kmh</cmt></trkpt>
<trkpt lat="58.868516" lon="05.853271"><ele>23</ele><time>2012-03-31T12:29:38Z</time><cmt>1.5 kmh</cmt></trkpt>
<trkpt lat="58.868513" lon="05.853268"><ele>23</ele><time>2012-03-31T12:29:39Z</time><cmt>1.6 kmh</cmt></trkpt>
<trkpt lat="58.868508" lon="05.853263"><ele>23</ele><time>2012-03-31T12:29:40Z</time><cmt>1.9 kmh</cmt></trkpt>
<trkpt lat="58.868504" lon="05.853256"><ele>23</ele><time>2012-03-31T12:29:41Z</time><cmt>2.3 kmh</cmt></trkpt>
<trkpt lat="58.868500" lon="05.853249"><ele>23</ele><time>2012-03-31T12:29:42Z</time><cmt>1.9 kmh</cmt></trkpt>
<trkpt lat="58.868496" lon="05.853243"><ele>23</ele><time>2012-03-31T12:29:43Z</time><cmt>1.8 kmh</cmt></trkpt>
<trkpt lat="58.868494" lon="05.853238"><ele>23</ele><time>2012-03-31T12:29:44Z</time><cmt>1.8 kmh</cmt></trkpt>
<trkpt lat="58.868491" lon="05.853235"><ele>23</ele><time>2012-03-31T12:29:45Z</time><cmt>1.4 kmh</cmt></trkpt>
<trkpt lat="58.868488" lon="05.853230"><ele>23</ele><time>2012-03-31T12:29:46Z</time><cmt>1.5 kmh</cmt></trkpt>
<trkpt lat="58.868484" lon="05.853224"><ele>23</ele><time>2012-03-31T12:29:47Z</time><cmt>2.0 kmh</cmt></trkpt>
<trkpt lat="58.868480" lon="05.853217"><ele>23</ele><time>2012-03-31T12:29:48Z</time><cmt>1.8 kmh</cmt></trkpt>
<trkpt lat="58.868475" lon="05.853208"><ele>23</ele><time>2012-03-31T12:29:49Z</time><cmt>2.1 kmh</cmt></trkpt>
<trkpt lat="58.868470" lon="05.853198"><ele>23</ele><time>2012-03-31T12:29:50Z</time><cmt>3.1 kmh</cmt></trkpt>
<trkpt lat="58.868465" lon="05.853186"><ele>23</ele><time>2012-03-31T12:29:51Z</time><cmt>3.3 kmh</cmt></trkpt>
<trkpt lat="58.868461" lon="05.853174"><ele>23</ele><time>2012-03-31T12:29:52Z</time><cmt>3.2 kmh</cmt></trkpt>
<trkpt lat="58.868458" lon="05.853164"><ele>23</ele><time>2012-03-31T12:29:53Z</time><cmt>2.8 kmh</cmt></trkpt>
<trkpt lat="58.868455" lon="05.853157"><ele>23</ele><time>2012-03-31T12:29:54Z</time><cmt>2.3 kmh</cmt></trkpt>
<trkpt lat="58.868453" lon="05.853152"><ele>23</ele><time>2012-03-31T12:29:55Z</time><cmt>1.4 kmh</cmt></trkpt>
<trkpt lat="58.868451" lon="05.853146"><ele>23</ele><time>2012-03-31T12:29:56Z</time><cmt>1.3 kmh</cmt></trkpt>
<trkpt lat="58.868449" lon="05.853139"><ele>23</ele><time>2012-03-31T12:29:57Z</time><cmt>1.7 kmh</cmt></trkpt>
<trkpt lat="58.868446" lon="05.853129"><ele>23</ele><time>2012-03-31T12:29:58Z</time><cmt>2.2 kmh</cmt></trkpt>
<trkpt lat="58.868442" lon="05.853116"><ele>22</ele><time>2012-03-31T12:29:59Z</time><cmt>2.9 kmh</cmt></trkpt>
<trkpt lat="58.868438" lon="05.853099"><ele>22</ele><time>2012-03-31T12:30:00Z</time><cmt>3.8 kmh</cmt></trkpt>
<trkpt lat="58.868433" lon="05.853077"><ele>22</ele><time>2012-03-31T12:30:01Z</time><cmt>5.8 kmh</cmt></trkpt>
<trkpt lat="58.868428" lon="05.853051"><ele>22</ele><time>2012-03-31T12:30:02Z</time><cmt>6.3 kmh</cmt></trkpt>
<trkpt lat="58.868423" lon="05.853021"><ele>22</ele><time>2012-03-31T12:30:03Z</time><cmt>6.9 kmh</cmt></trkpt>
<trkpt lat="58.868420" lon="05.852989"><ele>22</ele><time>2012-03-31T12:30:04Z</time><cmt>6.9 kmh</cmt></trkpt>
<trkpt lat="58.868417" lon="05.852955"><ele>22</ele><time>2012-03-31T12:30:05Z</time><cmt>7.5 kmh</cmt></trkpt>
<trkpt lat="58.868416" lon="05.852919"><ele>22</ele><time>2012-03-31T12:30:06Z</time><cmt>7.6 kmh</cmt></trkpt>
<trkpt lat="58.868417" lon="05.852881"><ele>22</ele><time>2012-03-31T12:30:07Z</time><cmt>7.8 kmh</cmt></trkpt>
<trkpt lat="58.868417" lon="05.852845"><ele>22</ele><time>2012-03-31T12:30:08Z</time><cmt>7.0 kmh</cmt></trkpt>
<trkpt lat="58.868418" lon="05.852812"><ele>22</ele><time>2012-03-31T12:30:09Z</time><cmt>6.4 kmh</cmt></trkpt>
<trkpt lat="58.868420" lon="05.852781"><ele>22</ele><time>2012-03-31T12:30:10Z</time><cmt>6.1 kmh</cmt></trkpt>
<trkpt lat="58.868423" lon="05.852753"><ele>22</ele><time>2012-03-31T12:30:11Z</time><cmt>5.5 kmh</cmt></trkpt>
<trkpt lat="58.868427" lon="05.852727"><ele>22</ele><time>2012-03-31T12:30:12Z</time><cmt>5.1 kmh</cmt></trkpt>
<trkpt lat="58.868432" lon="05.852704"><ele>22</ele><time>2012-03-31T12:30:13Z</time><cmt>5.1 kmh</cmt></trkpt>
<trkpt lat="58.868436" lon="05.852683"><ele>22</ele><time>2012-03-31T12:30:14Z</time><cmt>4.3 kmh</cmt></trkpt>
<trkpt lat="58.868441" lon="05.852664"><ele>22</ele><time>2012-03-31T12:30:15Z</time><cmt>4.9 kmh</cmt></trkpt>
<trkpt lat="58.868445" lon="05.852647"><ele>22</ele><time>2012-03-31T12:30:16Z</time><cmt>4.5 kmh</cmt></trkpt>
<trkpt lat="58.868449" lon="05.852632"><ele>22</ele><time>2012-03-31T12:30:17Z</time><cmt>3.9 kmh</cmt></trkpt>
<trkpt lat="58.868453" lon="05.852618"><ele>22</ele><time>2012-03-31T12:30:18Z</time><cmt>3.5 kmh</cmt></trkpt>
<trkpt lat="58.868456" lon="05.852605"><ele>22</ele><time>2012-03-31T12:30:19Z</time><cmt>2.7 kmh</cmt></trkpt>
<trkpt lat="58.868459" lon="05.852591"><ele>22</ele><time>2012-03-31T12:30:20Z</time><cmt>2.7 kmh</cmt></trkpt>
<trkpt lat="58.868463" lon="05.852578"><ele>22</ele><time>2012-03-31T12:30:21Z</time><cmt>3.3 kmh</cmt></trkpt>
<trkpt lat="58.868466" lon="05.852565"><ele>22</ele><time>2012-03-31T12:30:22Z</time><cmt>3.2 kmh</cmt></trkpt>
<trkpt lat="58.868469" lon="05.852552"><ele>22</ele><time>2012-03-31T12:30:23Z</time><cmt>3.3 kmh</cmt></trkpt>
<trkpt lat="58.868473" lon="05.852538"><ele>22</ele><time>2012-03-31T12:30:24Z</time><cmt>3.4 kmh</cmt></trkpt>
<trkpt lat="58.868477" lon="05.852524"><ele>22</ele><time>2012-03-31T12:30:25Z</time><cmt>3.6 kmh</cmt></trkpt>
<trkpt lat="58.868481" lon="05.852510"><ele>22</ele><time>2012-03-31T12:30:26Z</time><cmt>2.9 kmh</cmt></trkpt>
<trkpt lat="58.868485" lon="05.852497"><ele>22</ele><time>2012-03-31T12:30:27Z</time><cmt>2.8 kmh</cmt></trkpt>
<trkpt lat="58.868489" lon="05.852484"><ele>22</ele><time>2012-03-31T12:30:28Z</time><cmt>3.3 kmh</cmt></trkpt>
<trkpt lat="58.868492" lon="05.852472"><ele>22</ele><time>2012-03-31T12:30:29Z</time><cmt>3.2 kmh</cmt></trkpt>
<trkpt lat="58.868495" lon="05.852460"><ele>22</ele><time>2012-03-31T12:30:30Z</time><cmt>3.0 kmh</cmt></trkpt>
<trkpt lat="58.868498" lon="05.852448"><ele>22</ele><time>2012-03-31T12:30:31Z</time><cmt>2.9 kmh</cmt></trkpt>
<trkpt lat="58.868500" lon="05.852437"><ele>22</ele><time>2012-03-31T12:30:32Z</time><cmt>2.2 kmh</cmt></trkpt>
<trkpt lat="58.868501" lon="05.852426"><ele>22</ele><time>2012-03-31T12:30:33Z</time><cmt>2.0 kmh</cmt></trkpt>
<trkpt lat="58.868503" lon="05.852417"><ele>22</ele><time>2012-03-31T12:30:34Z</time><cmt>2.3 kmh</cmt></trkpt>
<trkpt lat="58.868505" lon="05.852408"><ele>22</ele><time>2012-03-31T12:30:35Z</time><cmt>2.2 kmh</cmt></trkpt>
<trkpt lat="58.868508" lon="05.852401"><ele>22</ele><time>2012-03-31T12:30:36Z</time><cmt>2.1 kmh</cmt></trkpt>
<trkpt lat="58.868511" lon="05.852394"><ele>22</ele><time>2012-03-31T12:30:37Z</time><cmt>2.0 kmh</cmt></trkpt>
<trkpt lat="58.868513" lon="05.852385"><ele>23</ele><time>2012-03-31T12:30:38Z</time><cmt>1.7 kmh</cmt></trkpt>
<trkpt lat="58.868516" lon="05.852374"><ele>23</ele><time>2012-03-31T12:30:39Z</time><cmt>2.0 kmh</cmt></trkpt>
<trkpt lat="58.868519" lon="05.852364"><ele>23</ele><time>2012-03-31T12:30:40Z</time><cmt>2.7 kmh</cmt></trkpt>
<trkpt lat="58.868522" lon="05.852353"><ele>23</ele><time>2012-03-31T12:30:41Z</time><cmt>2.6 kmh</cmt></trkpt>
<trkpt lat="58.868525" lon="05.852343"><ele>23</ele><time>2012-03-31T12:30:42Z</time><cmt>2.5 kmh</cmt></trkpt>
<trkpt lat="58.868528" lon="05.852335"><ele>23</ele><time>2012-03-31T12:30:43Z</time><cmt>2.4 kmh</cmt></trkpt>
<trkpt lat="58.868531" lon="05.852328"><ele>23</ele><time>2012-03-31T12:30:44Z</time><cmt>1.8 kmh</cmt></trkpt>
<trkpt lat="58.868534" lon="05.852321"><ele>23</ele><time>2012-03-31T12:30:45Z</time><cmt>1.7 kmh</cmt></trkpt>
<trkpt lat="58.868537" lon="05.852314"><ele>23</ele><time>2012-03-31T12:30:46Z</time><cmt>2.0 kmh</cmt></trkpt>
<trkpt lat="58.868540" lon="05.852308"><ele>23</ele><time>2012-03-31T12:30:47Z</time><cmt>2.0 kmh</cmt></trkpt>
<trkpt lat="58.868543" lon="05.852302"><ele>23</ele><time>2012-03-31T12:30:48Z</time><cmt>1.9 kmh</cmt></trkpt>
<trkpt lat="58.868546" lon="05.852297"><ele>23</ele><time>2012-03-31T12:30:49Z</time><cmt>1.8 kmh</cmt></trkpt>
<trkpt lat="58.868549" lon="05.852291"><ele>23</ele><time>2012-03-31T12:30:50Z</time><cmt>1.4 kmh</cmt></trkpt>
<trkpt lat="58.868551" lon="05.852284"><ele>23</ele><time>2012-03-31T12:30:51Z</time><cmt>1.4 kmh</cmt></trkpt>
<trkpt lat="58.868553" lon="05.852278"><ele>23</ele><time>2012-03-31T12:30:52Z</time><cmt>1.7 kmh</cmt></trkpt>
<trkpt lat="58.868554" lon="05.852272"><ele>23</ele><time>2012-03-31T12:30:53Z</time><cmt>1.6 kmh</cmt></trkpt>
<trkpt lat="58.868556" lon="05.852265"><ele>23</ele><time>2012-03-31T12:30:54Z</time><cmt>1.6 kmh</cmt></trkpt>
<trkpt lat="58.868557" lon="05.852259"><ele>23</ele><time>2012-03-31T12:30:55Z</time><cmt>1.5 kmh</cmt></trkpt>
<trkpt lat="58.868558" lon="05.852253"><ele>23</ele><time>2012-03-31T12:30:56Z</time><cmt>1.2 kmh</cmt></trkpt>
<trkpt lat="58.868560" lon="05.852248"><ele>24</ele><time>2012-03-31T12:30:57Z</time><cmt>1.2 kmh</cmt></trkpt>
<trkpt lat="58.868561" lon="05.852242"><ele>24</ele><time>2012-03-31T12:30:58Z</time><cmt>1.5 kmh</cmt></trkpt>
<trkpt lat="58.868563" lon="05.852235"><ele>24</ele><time>2012-03-31T12:30:59Z</time><cmt>1.6 kmh</cmt></trkpt>
<trkpt lat="58.868565" lon="05.852223"><ele>24</ele><time>2012-03-31T12:31:00Z</time><cmt>2.3 kmh</cmt></trkpt>
<trkpt lat="58.868567" lon="05.852206"><ele>24</ele><time>2012-03-31T12:31:01Z</time><cmt>3.3 kmh</cmt></trkpt>
<trkpt lat="58.868568" lon="05.852184"><ele>24</ele><time>2012-03-31T12:31:02Z</time><cmt>5.7 kmh</cmt></trkpt>
<trkpt lat="58.868570" lon="05.852156"><ele>24</ele><time>2012-03-31T12:31:03Z</time><cmt>6.7 kmh</cmt></trkpt>
<trkpt lat="58.868573" lon="05.852123"><ele>24</ele><time>2012-03-31T12:31:04Z</time><cmt>7.7 kmh</cmt></trkpt>
<trkpt lat="58.868576" lon="05.852087"><ele>24</ele><time>2012-03-31T12:31:05Z</time><cmt>8.1 kmh</cmt></trkpt>
<trkpt lat="58.868579" lon="05.852049"><ele>24</ele><time>2012-03-31T12:31:06Z</time><cmt>7.8 kmh</cmt></trkpt>
<trkpt lat="58.868580" lon="05.852012"><ele>24</ele><time>2012-03-31T12:31:07Z</time><cmt>7.4 kmh</cmt></trkpt>
<trkpt lat="58.868583" lon="05.851975"><ele>24</ele><time>2012-03-31T12:31:08Z</time><cmt>7.1 kmh</cmt></trkpt>
<trkpt lat="58.868585" lon="05.851939"><ele>24</ele><time>2012-03-31T12:31:09Z</time><cmt>6.5 kmh</cmt></trkpt>
<trkpt lat="58.868586" lon="05.851907"><ele>25</ele><time>2012-03-31T12:31:10Z</time><cmt>6.5 kmh</cmt></trkpt>
<trkpt lat="58.868586" lon="05.851885"><ele>25</ele><time>2012-03-31T12:31:11Z</time><cmt>5.0 kmh</cmt></trkpt>
<trkpt lat="58.868588" lon="05.851871"><ele>25</ele><time>2012-03-31T12:31:12Z</time><cmt>4.1 kmh</cmt></trkpt>
<trkpt lat="58.868589" lon="05.851860"><ele>25</ele><time>2012-03-31T12:31:13Z</time><cmt>2.9 kmh</cmt></trkpt>
<trkpt lat="58.868591" lon="05.851850"><ele>25</ele><time>2012-03-31T12:31:14Z</time><cmt>2.4 kmh</cmt></trkpt>
<trkpt lat="58.868592" lon="05.851839"><ele>25</ele><time>2012-03-31T12:31:15Z</time><cmt>1.9 kmh</cmt></trkpt>
<trkpt lat="58.868592" lon="05.851827"><ele>25</ele><time>2012-03-31T12:31:16Z</time><cmt>2.1 kmh</cmt></trkpt>
<trkpt lat="58.868594" lon="05.851815"><ele>25</ele><time>2012-03-31T12:31:17Z</time><cmt>2.7 kmh</cmt></trkpt>
<trkpt lat="58.868595" lon="05.851803"><ele>25</ele><time>2012-03-31T12:31:18Z</time><cmt>2.7 kmh</cmt></trkpt>
<trkpt lat="58.868597" lon="05.851791"><ele>25</ele><time>2012-03-31T12:31:19Z</time><cmt>2.7 kmh</cmt></trkpt>
<trkpt lat="58.868600" lon="05.851780"><ele>25</ele><time>2012-03-31T12:31:20Z</time><cmt>2.7 kmh</cmt></trkpt>
<trkpt lat="58.868602" lon="05.851769"><ele>25</ele><time>2012-03-31T12:31:21Z</time><cmt>2.2 kmh</cmt></trkpt>
<trkpt lat="58.868604" lon="05.851758"><ele>25</ele><time>2012-03-31T12:31:22Z</time><cmt>2.1 kmh</cmt></trkpt>
<trkpt lat="58.868605" lon="05.851747"><ele>25</ele><time>2012-03-31T12:31:23Z</time><cmt>2.5 kmh</cmt></trkpt>
<trkpt lat="58.868606" lon="05.851737"><ele>26</ele><time>2012-03-31T12:31:24Z</time><cmt>2.3 kmh</cmt></trkpt>
<trkpt lat="58.868607" lon="05.851728"><ele>26</ele><time>2012-03-31T12:31:25Z</time><cmt>2.2 kmh</cmt></trkpt>
<trkpt lat="58.868609" lon="05.851719"><ele>26</ele><time>2012-03-31T12:31:26Z</time><cmt>2.2 kmh</cmt></trkpt>
<trkpt lat="58.868612" lon="05.851708"><ele>26</ele><time>2012-03-31T12:31:27Z</time><cmt>2.4 kmh</cmt></trkpt>
<trkpt lat="58.868614" lon="05.851695"><ele>26</ele><time>2012-03-31T12:31:28Z</time><cmt>2.3 kmh</cmt></trkpt>
<trkpt lat="58.868617" lon="05.851682"><ele>26</ele><time>2012-03-31T12:31:29Z</time><cmt>2.5 kmh</cmt></trkpt>
<trkpt lat="58.868621" lon="05.851668"><ele>26</ele><time>2012-03-31T12:31:30Z</time><cmt>3.4 kmh</cmt></trkpt>
<trkpt lat="58.868625" lon="05.851653"><ele>26</ele><time>2012-03-31T12:31:31Z</time><cmt>3.6 kmh</cmt></trkpt>
<trkpt lat="58.868629" lon="05.851638"><ele>26</ele><time>2012-03-31T12:31:32Z</time><cmt>3.7 kmh</cmt></trkpt>
<trkpt lat="58.868633" lon="05.851624"><ele>26</ele><time>2012-03-31T12:31:33Z</time><cmt>3.7 kmh</cmt></trkpt>
<trkpt lat="58.868638" lon="05.851609"><ele>26</ele><time>2012-03-31T12:31:34Z</time><cmt>3.1 kmh</cmt></trkpt>
<trkpt lat="58.868644" lon="05.851595"><ele>26</ele><time>2012-03-31T12:31:35Z</time><cmt>3.1 kmh</cmt></trkpt>
<trkpt lat="58.868650" lon="05.851580"><ele>26</ele><time>2012-03-31T12:31:36Z</time><cmt>4.2 kmh</cmt></trkpt>
<trkpt lat="58.868657" lon="05.851564"><ele>26</ele><time>2012-03-31T12:31:37Z</time><cmt>4.5 kmh</cmt></trkpt>
<trkpt lat="58.868663" lon="05.851548"><ele>26</ele><time>2012-03-31T12:31:38Z</time><cmt>4.6 kmh</cmt></trkpt>
<trkpt lat="58.868670" lon="05.851532"><ele>26</ele><time>2012-03-31T12:31:39Z</time><cmt>4.6 kmh</cmt></trkpt>
<trkpt lat="58.868677" lon="05.851518"><ele>26</ele><time>2012-03-31T12:31:40Z</time><cmt>3.6 kmh</cmt></trkpt>
<trkpt lat="58.868684" lon="05.851503"><ele>26</ele><time>2012-03-31T12:31:41Z</time><cmt>3.6 kmh</cmt></trkpt>
<trkpt lat="58.868691" lon="05.851487"><ele>26</ele><time>2012-03-31T12:31:42Z</time><cmt>4.5 kmh</cmt></trkpt>
<trkpt lat="58.868697" lon="05.851472"><ele>26</ele><time>2012-03-31T12:31:43Z</time><cmt>4.5 kmh</cmt></trkpt>
<trkpt lat="58.868704" lon="05.851458"><ele>26</ele><time>2012-03-31T12:31:44Z</time><cmt>4.3 kmh</cmt></trkpt>
<trkpt lat="58.868709" lon="05.851445"><ele>26</ele><time>2012-03-31T12:31:45Z</time><cmt>3.9 kmh</cmt></trkpt>
<trkpt lat="58.868714" lon="05.851432"><ele>26</ele><time>2012-03-31T12:31:46Z</time><cmt>2.9 kmh</cmt></trkpt>
<trkpt lat="58.868718" lon="05.851420"><ele>26</ele><time>2012-03-31T12:31:47Z</time><cmt>2.7 kmh</cmt></trkpt>
<trkpt lat="58.868723" lon="05.851409"><ele>26</ele><time>2012-03-31T12:31:48Z</time><cmt>3.2 kmh</cmt></trkpt>
<trkpt lat="58.868726" lon="05.851397"><ele>26</ele><time>2012-03-31T12:31:49Z</time><cmt>3.0 kmh</cmt></trkpt>
<trkpt lat="58.868729" lon="05.851386"><ele>26</ele><time>2012-03-31T12:31:50Z</time><cmt>2.9 kmh</cmt></trkpt>
<trkpt lat="58.868731" lon="05.851377"><ele>26</ele><time>2012-03-31T12:31:51Z</time><cmt>2.6 kmh</cmt></trkpt>
<trkpt lat="58.868734" lon="05.851369"><ele>26</ele><time>2012-03-31T12:31:52Z</time><cmt>1.8 kmh</cmt></trkpt>
<trkpt lat="58.868737" lon="05.851365"><ele>26</ele><time>2012-03-31T12:31:53Z</time><cmt>1.4 kmh</cmt></trkpt>
<trkpt lat="58.868739" lon="05.851361"><ele>26</ele><time>2012-03-31T12:31:54Z</time><cmt>1.3 kmh</cmt></trkpt>
<trkpt lat="58.868741" lon="05.851358"><ele>26</ele><time>2012-03-31T12:31:55Z</time><cmt>1.0 kmh</cmt></trkpt>
<trkpt lat="58.868742" lon="05.851356"><ele>26</ele><time>2012-03-31T12:31:56Z</time><cmt>0.8 kmh</cmt></trkpt>
<trkpt lat="58.868743" lon="05.851351"><ele>26</ele><time>2012-03-31T12:31:57Z</time><cmt>1.0 kmh</cmt></trkpt>
<trkpt lat="58.868747" lon="05.851344"><ele>26</ele><time>2012-03-31T12:31:58Z</time><cmt>1.3 kmh</cmt></trkpt>
<trkpt lat="58.868752" lon="05.851334"><ele>26</ele><time>2012-03-31T12:31:59Z</time><cmt>2.1 kmh</cmt></trkpt>
<trkpt lat="58.868759" lon="05.851320"><ele>25</ele><time>2012-03-31T12:32:00Z</time><cmt>3.8 kmh</cmt></trkpt>
<trkpt lat="58.868766" lon="05.851305"><ele>25</ele><time>2012-03-31T12:32:01Z</time><cmt>4.4 kmh</cmt></trkpt>
<trkpt lat="58.868773" lon="05.851290"><ele>25</ele><time>2012-03-31T12:32:02Z</time><cmt>4.6 kmh</cmt></trkpt>
<trkpt lat="58.868780" lon="05.851274"><ele>25</ele><time>2012-03-31T12:32:03Z</time><cmt>4.6 kmh</cmt></trkpt>
<trkpt lat="58.868786" lon="05.851260"><ele>25</ele><time>2012-03-31T12:32:04Z</time><cmt>4.3 kmh</cmt></trkpt>
<trkpt lat="58.868792" lon="05.851246"><ele>25</ele><time>2012-03-31T12:32:05Z</time><cmt>3.3 kmh</cmt></trkpt>
<trkpt lat="58.868797" lon="05.851232"><ele>25</ele><time>2012-03-31T12:32:06Z</time><cmt>3.1 kmh</cmt></trkpt>
<trkpt lat="58.868801" lon="05.851219"><ele>25</ele><time>2012-03-31T12:32:07Z</time><cmt>3.6 kmh</cmt></trkpt>
<trkpt lat="58.868805" lon="05.851206"><ele>25</ele><time>2012-03-31T12:32:08Z</time><cmt>3.5 kmh</cmt></trkpt>
<trkpt lat="58.868809" lon="05.851192"><ele>25</ele><time>2012-03-31T12:32:09Z</time><cmt>3.4 kmh</cmt></trkpt>
<trkpt lat="58.868813" lon="05.851177"><ele>25</ele><time>2012-03-31T12:32:10Z</time><cmt>3.7 kmh</cmt></trkpt>
<trkpt lat="58.868820" lon="05.851160"><ele>25</ele><time>2012-03-31T12:32:11Z</time><cmt>3.5 kmh</cmt></trkpt>
<trkpt lat="58.868826" lon="05.851142"><ele>25</ele><time>2012-03-31T12:32:12Z</time><cmt>3.9 kmh</cmt></trkpt>
<trkpt lat="58.868833" lon="05.851124"><ele>25</ele><time>2012-03-31T12:32:13Z</time><cmt>4.9 kmh</cmt></trkpt>
<trkpt lat="58.868840" lon="05.851106"><ele>25</ele><time>2012-03-31T12:32:14Z</time><cmt>5.0 kmh</cmt></trkpt>
<trkpt lat="58.868847" lon="05.851088"><ele>25</ele><time>2012-03-31T12:32:15Z</time><cmt>5.0 kmh</cmt></trkpt>
<trkpt lat="58.868854" lon="05.851071"><ele>25</ele><time>2012-03-31T12:32:16Z</time><cmt>5.0 kmh</cmt></trkpt>
<trkpt lat="58.868861" lon="05.851052"><ele>25</ele><time>2012-03-31T12:32:17Z</time><cmt>5.6 kmh</cmt></trkpt>
<trkpt lat="58.868871" lon="05.851031"><ele>25</ele><time>2012-03-31T12:32:18Z</time><cmt>6.3 kmh</cmt></trkpt>
<trkpt lat="58.868883" lon="05.851009"><ele>25</ele><time>2012-03-31T12:32:19Z</time><cmt>7.1 kmh</cmt></trkpt>
<trkpt lat="58.868896" lon="05.850985"><ele>25</ele><time>2012-03-31T12:32:20Z</time><cmt>8.2 kmh</cmt></trkpt>
<trkpt lat="58.868912" lon="05.850961"><ele>25</ele><time>2012-03-31T12:32:21Z</time><cmt>8.4 kmh</cmt></trkpt>
<trkpt lat="58.868928" lon="05.850934"><ele>25</ele><time>2012-03-31T12:32:22Z</time><cmt>8.6 kmh</cmt></trkpt>
<trkpt lat="58.868944" lon="05.850909"><ele>25</ele><time>2012-03-31T12:32:23Z</time><cmt>7.7 kmh</cmt></trkpt>
<trkpt lat="58.868959" lon="05.850887"><ele>25</ele><time>2012-03-31T12:32:24Z</time><cmt>6.9 kmh</cmt></trkpt>
<trkpt lat="58.868972" lon="05.850866"><ele>25</ele><time>2012-03-31T12:32:25Z</time><cmt>6.3 kmh</cmt></trkpt>
<trkpt lat="58.868984" lon="05.850846"><ele>25</ele><time>2012-03-31T12:32:26Z</time><cmt>5.7 kmh</cmt></trkpt>
<trkpt lat="58.868994" lon="05.850828"><ele>25</ele><time>2012-03-31T12:32:27Z</time><cmt>5.7 kmh</cmt></trkpt>
<trkpt lat="58.869003" lon="05.850812"><ele>25</ele><time>2012-03-31T12:32:28Z</time><cmt>5.0 kmh</cmt></trkpt>
<trkpt lat="58.869012" lon="05.850800"><ele>25</ele><time>2012-03-31T12:32:29Z</time><cmt>4.0 kmh</cmt></trkpt>
<trkpt lat="58.869021" lon="05.850789"><ele>25</ele><time>2012-03-31T12:32:30Z</time><cmt>3.7 kmh</cmt></trkpt>
<trkpt lat="58.869030" lon="05.850777"><ele>25</ele><time>2012-03-31T12:32:31Z</time><cmt>4.8 kmh</cmt></trkpt>
<trkpt lat="58.869041" lon="05.850765"><ele>25</ele><time>2012-03-31T12:32:32Z</time><cmt>5.0 kmh</cmt></trkpt>
<trkpt lat="58.869051" lon="05.850751"><ele>24</ele><time>2012-03-31T12:32:33Z</time><cmt>5.0 kmh</cmt></trkpt>
<trkpt lat="58.869061" lon="05.850738"><ele>24</ele><time>2012-03-31T12:32:34Z</time><cmt>5.0 kmh</cmt></trkpt>
<trkpt lat="58.869070" lon="05.850723"><ele>24</ele><time>2012-03-31T12:32:35Z</time><cmt>5.0 kmh</cmt></trkpt>
<trkpt lat="58.869078" lon="05.850709"><ele>24</ele><time>2012-03-31T12:32:36Z</time><cmt>3.9 kmh</cmt></trkpt>
<trkpt lat="58.869085" lon="05.850694"><ele>24</ele><time>2012-03-31T12:32:37Z</time><cmt>3.7 kmh</cmt></trkpt>
<trkpt lat="58.869092" lon="05.850679"><ele>24</ele><time>2012-03-31T12:32:38Z</time><cmt>4.6 kmh</cmt></trkpt>
<trkpt lat="58.869099" lon="05.850664"><ele>24</ele><time>2012-03-31T12:32:39Z</time><cmt>4.6 kmh</cmt></trkpt>
<trkpt lat="58.869106" lon="05.850649"><ele>24</ele><time>2012-03-31T12:32:40Z</time><cmt>4.5 kmh</cmt></trkpt>
<trkpt lat="58.869111" lon="05.850635"><ele>24</ele><time>2012-03-31T12:32:41Z</time><cmt>4.1 kmh</cmt></trkpt>
<trkpt lat="58.869115" lon="05.850621"><ele>24</ele><time>2012-03-31T12:32:42Z</time><cmt>3.0 kmh</cmt></trkpt>
<trkpt lat="58.869120" lon="05.850609"><ele>24</ele><time>2012-03-31T12:32:43Z</time><cmt>2.8 kmh</cmt></trkpt>
<trkpt lat="58.869125" lon="05.850596"><ele>24</ele><time>2012-03-31T12:32:44Z</time><cmt>3.6 kmh</cmt></trkpt>
<trkpt lat="58.869131" lon="05.850582"><ele>24</ele><time>2012-03-31T12:32:45Z</time><cmt>3.8 kmh</cmt></trkpt>
<trkpt lat="58.869137" lon="05.850567"><ele>24</ele><time>2012-03-31T12:32:46Z</time><cmt>4.1 kmh</cmt></trkpt>
<trkpt lat="58.869143" lon="05.850552"><ele>24</ele><time>2012-03-31T12:32:47Z</time><cmt>4.3 kmh</cmt></trkpt>
<trkpt lat="58.869150" lon="05.850537"><ele>24</ele><time>2012-03-31T12:32:48Z</time><cmt>3.6 kmh</cmt></trkpt>
<trkpt lat="58.869157" lon="05.850522"><ele>24</ele><time>2012-03-31T12:32:49Z</time><cmt>3.6 kmh</cmt></trkpt>
<trkpt lat="58.869165" lon="05.850508"><ele>24</ele><time>2012-03-31T12:32:50Z</time><cmt>4.6 kmh</cmt></trkpt>
<trkpt lat="58.869174" lon="05.850494"><ele>24</ele><time>2012-03-31T12:32:51Z</time><cmt>4.8 kmh</cmt></trkpt>
<trkpt lat="58.869183" lon="05.850480"><ele>24</ele><time>2012-03-31T12:32:52Z</time><cmt>4.9 kmh</cmt></trkpt>
<trkpt lat="58.869192" lon="05.850466"><ele>24</ele><time>2012-03-31T12:32:53Z</time><cmt>5.1 kmh</cmt></trkpt>
<trkpt lat="58.869202" lon="05.850451"><ele>24</ele><time>2012-03-31T12:32:54Z</time><cmt>5.0 kmh</cmt></trkpt>
<trkpt lat="58.869212" lon="05.850436"><ele>24</ele><time>2012-03-31T12:32:55Z</time><cmt>5.1 kmh</cmt></trkpt>
<trkpt lat="58.869222" lon="05.850421"><ele>24</ele><time>2012-03-31T12:32:56Z</time><cmt>5.1 kmh</cmt></trkpt>
<trkpt lat="58.869232" lon="05.850406"><ele>23</ele><time>2012-03-31T12:32:57Z</time><cmt>5.1 kmh</cmt></trkpt>
<trkpt lat="58.869242" lon="05.850391"><ele>23</ele><time>2012-03-31T12:32:58Z</time><cmt>5.3 kmh</cmt></trkpt>
<trkpt lat="58.869253" lon="05.850375"><ele>23</ele><time>2012-03-31T12:32:59Z</time><cmt>5.4 kmh</cmt></trkpt>
<trkpt lat="58.869263" lon="05.850358"><ele>23</ele><time>2012-03-31T12:33:00Z</time><cmt>5.3 kmh</cmt></trkpt>
<trkpt lat="58.869272" lon="05.850341"><ele>23</ele><time>2012-03-31T12:33:01Z</time><cmt>5.3 kmh</cmt></trkpt>
<trkpt lat="58.869282" lon="05.850324"><ele>23</ele><time>2012-03-31T12:33:02Z</time><cmt>5.0 kmh</cmt></trkpt>
<trkpt lat="58.869290" lon="05.850307"><ele>23</ele><time>2012-03-31T12:33:03Z</time><cmt>5.0 kmh</cmt></trkpt>
<trkpt lat="58.869298" lon="05.850291"><ele>23</ele><time>2012-03-31T12:33:04Z</time><cmt>5.0 kmh</cmt></trkpt>
<trkpt lat="58.869306" lon="05.850276"><ele>23</ele><time>2012-03-31T12:33:05Z</time><cmt>4.8 kmh</cmt></trkpt>
<trkpt lat="58.869312" lon="05.850262"><ele>23</ele><time>2012-03-31T12:33:06Z</time><cmt>4.3 kmh</cmt></trkpt>
<trkpt lat="58.869318" lon="05.850250"><ele>23</ele><time>2012-03-31T12:33:07Z</time><cmt>3.2 kmh</cmt></trkpt>
<trkpt lat="58.869323" lon="05.850238"><ele>23</ele><time>2012-03-31T12:33:08Z</time><cmt>2.9 kmh</cmt></trkpt>
<trkpt lat="58.869328" lon="05.850227"><ele>23</ele><time>2012-03-31T12:33:09Z</time><cmt>3.4 kmh</cmt></trkpt>
<trkpt lat="58.869333" lon="05.850216"><ele>23</ele><time>2012-03-31T12:33:10Z</time><cmt>3.2 kmh</cmt></trkpt>
<trkpt lat="58.869337" lon="05.850207"><ele>23</ele><time>2012-03-31T12:33:11Z</time><cmt>3.0 kmh</cmt></trkpt>
<trkpt lat="58.869341" lon="05.850198"><ele>23</ele><time>2012-03-31T12:33:12Z</time><cmt>2.7 kmh</cmt></trkpt>
<trkpt lat="58.869345" lon="05.850190"><ele>23</ele><time>2012-03-31T12:33:13Z</time><cmt>2.0 kmh</cmt></trkpt>
<trkpt lat="58.869349" lon="05.850184"><ele>23</ele><time>2012-03-31T12:33:14Z</time><cmt>1.9 kmh</cmt></trkpt>
<trkpt lat="58.869354" lon="05.850176"><ele>23</ele><time>2012-03-31T12:33:15Z</time><cmt>2.4 kmh</cmt></trkpt>
<trkpt lat="58.869358" lon="05.850167"><ele>23</ele><time>2012-03-31T12:33:16Z</time><cmt>2.7 kmh</cmt></trkpt>
<trkpt lat="58.869364" lon="05.850158"><ele>23</ele><time>2012-03-31T12:33:17Z</time><cmt>2.9 kmh</cmt></trkpt>
<trkpt lat="58.869368" lon="05.850149"><ele>23</ele><time>2012-03-31T12:33:18Z</time><cmt>3.0 kmh</cmt></trkpt>
<trkpt lat="58.869373" lon="05.850140"><ele>23</ele><time>2012-03-31T12:33:19Z</time><cmt>2.3 kmh</cmt></trkpt>
<trkpt lat="58.869378" lon="05.850133"><ele>23</ele><time>2012-03-31T12:33:20Z</time><cmt>2.1 kmh</cmt></trkpt>
<trkpt lat="58.869382" lon="05.850127"><ele>23</ele><time>2012-03-31T12:33:21Z</time><cmt>2.4 kmh</cmt></trkpt>
<trkpt lat="58.869386" lon="05.850123"><ele>23</ele><time>2012-03-31T12:33:22Z</time><cmt>2.0 kmh</cmt></trkpt>
<trkpt lat="58.869389" lon="05.850118"><ele>23</ele><time>2012-03-31T12:33:23Z</time><cmt>1.8 kmh</cmt></trkpt>
<trkpt lat="58.869391" lon="05.850114"><ele>23</ele><time>2012-03-31T12:33:24Z</time><cmt>1.5 kmh</cmt></trkpt>
<trkpt lat="58.869392" lon="05.850109"><ele>23</ele><time>2012-03-31T12:33:25Z</time><cmt>1.0 kmh</cmt></trkpt>
<trkpt lat="58.869392" lon="05.850105"><ele>23</ele><time>2012-03-31T12:33:26Z</time><cmt>0.8 kmh</cmt></trkpt>
<trkpt lat="58.869392" lon="05.850099"><ele>23</ele><time>2012-03-31T12:33:27Z</time><cmt>1.1 kmh</cmt></trkpt>
<trkpt lat="58.869392" lon="05.850092"><ele>23</ele><time>2012-03-31T12:33:28Z</time><cmt>1.4 kmh</cmt></trkpt>
<trkpt lat="58.869392" lon="05.850084"><ele>23</ele><time>2012-03-31T12:33:29Z</time><cmt>1.7 kmh</cmt></trkpt>
<trkpt lat="58.869392" lon="05.850076"><ele>23</ele><time>2012-03-31T12:33:30Z</time><cmt>1.9 kmh</cmt></trkpt>
<trkpt lat="58.869393" lon="05.850066"><ele>23</ele><time>2012-03-31T12:33:31Z</time><cmt>1.7 kmh</cmt></trkpt>
<trkpt lat="58.869395" lon="05.850056"><ele>23</ele><time>2012-03-31T12:33:32Z</time><cmt>1.8 kmh</cmt></trkpt>
<trkpt lat="58.869396" lon="05.850047"><ele>23</ele><time>2012-03-31T12:33:33Z</time><cmt>2.2 kmh</cmt></trkpt>
<trkpt lat="58.869397" lon="05.850038"><ele>23</ele><time>2012-03-31T12:33:34Z</time><cmt>2.1 kmh</cmt></trkpt>
<trkpt lat="58.869398" lon="05.850029"><ele>23</ele><time>2012-03-31T12:33:35Z</time><cmt>2.0 kmh</cmt></trkpt>
<trkpt lat="58.869399" lon="05.850020"><ele>23</ele><time>2012-03-31T12:33:36Z</time><cmt>2.0 kmh</cmt></trkpt>
<trkpt lat="58.869400" lon="05.850011"><ele>23</ele><time>2012-03-31T12:33:37Z</time><cmt>1.7 kmh</cmt></trkpt>
<trkpt lat="58.869403" lon="05.850000"><ele>23</ele><time>2012-03-31T12:33:38Z</time><cmt>1.9 kmh</cmt></trkpt>
<trkpt lat="58.869406" lon="05.849989"><ele>23</ele><time>2012-03-31T12:33:39Z</time><cmt>2.7 kmh</cmt></trkpt>
<trkpt lat="58.869410" lon="05.849976"><ele>23</ele><time>2012-03-31T12:33:40Z</time><cmt>3.1 kmh</cmt></trkpt>
<trkpt lat="58.869414" lon="05.849964"><ele>23</ele><time>2012-03-31T12:33:41Z</time><cmt>3.4 kmh</cmt></trkpt>
<trkpt lat="58.869419" lon="05.849952"><ele>23</ele><time>2012-03-31T12:33:42Z</time><cmt>3.4 kmh</cmt></trkpt>
<trkpt lat="58.869423" lon="05.849939"><ele>23</ele><time>2012-03-31T12:33:43Z</time><cmt>3.4 kmh</cmt></trkpt>
<trkpt lat="58.869429" lon="05.849926"><ele>23</ele><time>2012-03-31T12:33:44Z</time><cmt>2.9 kmh</cmt></trkpt>
<trkpt lat="58.869434" lon="05.849914"><ele>23</ele><time>2012-03-31T12:33:45Z</time><cmt>2.9 kmh</cmt></trkpt>
<trkpt lat="58.869439" lon="05.849902"><ele>23</ele><time>2012-03-31T12:33:46Z</time><cmt>3.5 kmh</cmt></trkpt>
<trkpt lat="58.869443" lon="05.849892"><ele>23</ele><time>2012-03-31T12:33:47Z</time><cmt>3.1 kmh</cmt></trkpt>
<trkpt lat="58.869446" lon="05.849887"><ele>23</ele><time>2012-03-31T12:33:48Z</time><cmt>2.3 kmh</cmt></trkpt>
<trkpt lat="58.869448" lon="05.849883"><ele>23</ele><time>2012-03-31T12:33:49Z</time><cmt>1.5 kmh</cmt></trkpt>
<trkpt lat="58.869449" lon="05.849880"><ele>23</ele><time>2012-03-31T12:33:50Z</time><cmt>0.8 kmh</cmt></trkpt>
<trkpt lat="58.869450" lon="05.849874"><ele>23</ele><time>2012-03-31T12:33:51Z</time><cmt>0.9 kmh</cmt></trkpt>
<trkpt lat="58.869454" lon="05.849867"><ele>23</ele><time>2012-03-31T12:33:52Z</time><cmt>1.7 kmh</cmt></trkpt>
<trkpt lat="58.869459" lon="05.849857"><ele>23</ele><time>2012-03-31T12:33:53Z</time><cmt>2.6 kmh</cmt></trkpt>
<trkpt lat="58.869466" lon="05.849845"><ele>23</ele><time>2012-03-31T12:33:54Z</time><cmt>3.6 kmh</cmt></trkpt>
<trkpt lat="58.869474" lon="05.849830"><ele>23</ele><time>2012-03-31T12:33:55Z</time><cmt>5.1 kmh</cmt></trkpt>
<trkpt lat="58.869484" lon="05.849814"><ele>23</ele><time>2012-03-31T12:33:56Z</time><cmt>5.5 kmh</cmt></trkpt>
<trkpt lat="58.869495" lon="05.849796"><ele>23</ele><time>2012-03-31T12:33:57Z</time><cmt>5.8 kmh</cmt></trkpt>
<trkpt lat="58.869506" lon="05.849779"><ele>23</ele><time>2012-03-31T12:33:58Z</time><cmt>6.1 kmh</cmt></trkpt>
<trkpt lat="58.869518" lon="05.849761"><ele>23</ele><time>2012-03-31T12:33:59Z</time><cmt>6.4 kmh</cmt></trkpt>
<trkpt lat="58.869531" lon="05.849742"><ele>23</ele><time>2012-03-31T12:34:00Z</time><cmt>6.6 kmh</cmt></trkpt>
<trkpt lat="58.869545" lon="05.849723"><ele>23</ele><time>2012-03-31T12:34:01Z</time><cmt>6.9 kmh</cmt></trkpt>
<trkpt lat="58.869559" lon="05.849703"><ele>23</ele><time>2012-03-31T12:34:02Z</time><cmt>6.8 kmh</cmt></trkpt>
<trkpt lat="58.869573" lon="05.849683"><ele>23</ele><time>2012-03-31T12:34:03Z</time><cmt>6.8 kmh</cmt></trkpt>
<trkpt lat="58.869587" lon="05.849664"><ele>23</ele><time>2012-03-31T12:34:04Z</time><cmt>6.9 kmh</cmt></trkpt>
<trkpt lat="58.869601" lon="05.849644"><ele>23</ele><time>2012-03-31T12:34:05Z</time><cmt>7.0 kmh</cmt></trkpt>
<trkpt lat="58.869616" lon="05.849623"><ele>23</ele><time>2012-03-31T12:34:06Z</time><cmt>7.0 kmh</cmt></trkpt>
<trkpt lat="58.869630" lon="05.849603"><ele>23</ele><time>2012-03-31T12:34:07Z</time><cmt>7.0 kmh</cmt></trkpt>
<trkpt lat="58.869644" lon="05.849583"><ele>23</ele><time>2012-03-31T12:34:08Z</time><cmt>6.9 kmh</cmt></trkpt>
<trkpt lat="58.869658" lon="05.849563"><ele>23</ele><time>2012-03-31T12:34:09Z</time><cmt>6.8 kmh</cmt></trkpt>
<trkpt lat="58.869672" lon="05.849543"><ele>23</ele><time>2012-03-31T12:34:10Z</time><cmt>6.8 kmh</cmt></trkpt>
<trkpt lat="58.869686" lon="05.849523"><ele>23</ele><time>2012-03-31T12:34:11Z</time><cmt>6.9 kmh</cmt></trkpt>
<trkpt lat="58.869699" lon="05.849502"><ele>23</ele><time>2012-03-31T12:34:12Z</time><cmt>6.9 kmh</cmt></trkpt>
<trkpt lat="58.869713" lon="05.849482"><ele>23</ele><time>2012-03-31T12:34:13Z</time><cmt>6.8 kmh</cmt></trkpt>
<trkpt lat="58.869726" lon="05.849460"><ele>23</ele><time>2012-03-31T12:34:14Z</time><cmt>6.8 kmh</cmt></trkpt>
<trkpt lat="58.869739" lon="05.849438"><ele>23</ele><time>2012-03-31T12:34:15Z</time><cmt>6.9 kmh</cmt></trkpt>
<trkpt lat="58.869752" lon="05.849416"><ele>23</ele><time>2012-03-31T12:34:16Z</time><cmt>6.9 kmh</cmt></trkpt>
<trkpt lat="58.869764" lon="05.849393"><ele>23</ele><time>2012-03-31T12:34:17Z</time><cmt>6.6 kmh</cmt></trkpt>
<trkpt lat="58.869776" lon="05.849370"><ele>23</ele><time>2012-03-31T12:34:18Z</time><cmt>6.4 kmh</cmt></trkpt>
<trkpt lat="58.869787" lon="05.849349"><ele>23</ele><time>2012-03-31T12:34:19Z</time><cmt>6.1 kmh</cmt></trkpt>
<trkpt lat="58.869798" lon="05.849328"><ele>23</ele><time>2012-03-31T12:34:20Z</time><cmt>5.8 kmh</cmt></trkpt>
<trkpt lat="58.869808" lon="05.849308"><ele>23</ele><time>2012-03-31T12:34:21Z</time><cmt>5.5 kmh</cmt></trkpt>
<trkpt lat="58.869818" lon="05.849288"><ele>23</ele><time>2012-03-31T12:34:22Z</time><cmt>5.7 kmh</cmt></trkpt>
<trkpt lat="58.869827" lon="05.849267"><ele>23</ele><time>2012-03-31T12:34:23Z</time><cmt>5.6 kmh</cmt></trkpt>
<trkpt lat="58.869837" lon="05.849247"><ele>23</ele><time>2012-03-31T12:34:24Z</time><cmt>5.7 kmh</cmt></trkpt>
<trkpt lat="58.869847" lon="05.849227"><ele>23</ele><time>2012-03-31T12:34:25Z</time><cmt>5.5 kmh</cmt></trkpt>
<trkpt lat="58.869857" lon="05.849208"><ele>23</ele><time>2012-03-31T12:34:26Z</time><cmt>5.7 kmh</cmt></trkpt>
<trkpt lat="58.869867" lon="05.849188"><ele>23</ele><time>2012-03-31T12:34:27Z</time><cmt>5.9 kmh</cmt></trkpt>
<trkpt lat="58.869877" lon="05.849168"><ele>23</ele><time>2012-03-31T12:34:28Z</time><cmt>5.9 kmh</cmt></trkpt>
<trkpt lat="58.869888" lon="05.849149"><ele>23</ele><time>2012-03-31T12:34:29Z</time><cmt>5.7 kmh</cmt></trkpt>
<trkpt lat="58.869898" lon="05.849130"><ele>23</ele><time>2012-03-31T12:34:30Z</time><cmt>5.7 kmh</cmt></trkpt>
<trkpt lat="58.869909" lon="05.849111"><ele>23</ele><time>2012-03-31T12:34:31Z</time><cmt>5.7 kmh</cmt></trkpt>
<trkpt lat="58.869919" lon="05.849092"><ele>23</ele><time>2012-03-31T12:34:32Z</time><cmt>5.8 kmh</cmt></trkpt>
<trkpt lat="58.869930" lon="05.849073"><ele>23</ele><time>2012-03-31T12:34:33Z</time><cmt>5.8 kmh</cmt></trkpt>
<trkpt lat="58.869941" lon="05.849054"><ele>23</ele><time>2012-03-31T12:34:34Z</time><cmt>6.2 kmh</cmt></trkpt>
<trkpt lat="58.869952" lon="05.849034"><ele>23</ele><time>2012-03-31T12:34:35Z</time><cmt>6.2 kmh</cmt></trkpt>
<trkpt lat="58.869963" lon="05.849013"><ele>23</ele><time>2012-03-31T12:34:36Z</time><cmt>6.3 kmh</cmt></trkpt>
<trkpt lat="58.869975" lon="05.848993"><ele>23</ele><time>2012-03-31T12:34:37Z</time><cmt>6.5 kmh</cmt></trkpt>
<trkpt lat="58.869987" lon="05.848972"><ele>23</ele><time>2012-03-31T12:34:38Z</time><cmt>6.6 kmh</cmt></trkpt>
<trkpt lat="58.869999" lon="05.848951"><ele>23</ele><time>2012-03-31T12:34:39Z</time><cmt>6.0 kmh</cmt></trkpt>
<trkpt lat="58.870010" lon="05.848931"><ele>23</ele><time>2012-03-31T12:34:40Z</time><cmt>5.5 kmh</cmt></trkpt>
<trkpt lat="58.870020" lon="05.848913"><ele>23</ele><time>2012-03-31T12:34:41Z</time><cmt>5.5 kmh</cmt></trkpt>
<trkpt lat="58.870029" lon="05.848897"><ele>23</ele><time>2012-03-31T12:34:42Z</time><cmt>5.0 kmh</cmt></trkpt>
<trkpt lat="58.870037" lon="05.848884"><ele>23</ele><time>2012-03-31T12:34:43Z</time><cmt>4.9 kmh</cmt></trkpt>
<trkpt lat="58.870044" lon="05.848871"><ele>23</ele><time>2012-03-31T12:34:44Z</time><cmt>4.5 kmh</cmt></trkpt>
<trkpt lat="58.870052" lon="05.848858"><ele>23</ele><time>2012-03-31T12:34:45Z</time><cmt>4.4 kmh</cmt></trkpt>
<trkpt lat="58.870061" lon="05.848844"><ele>23</ele><time>2012-03-31T12:34:46Z</time><cmt>3.7 kmh</cmt></trkpt>
<trkpt lat="58.870069" lon="05.848828"><ele>23</ele><time>2012-03-31T12:34:47Z</time><cmt>4.0 kmh</cmt></trkpt>
<trkpt lat="58.870078" lon="05.848811"><ele>23</ele><time>2012-03-31T12:34:48Z</time><cmt>5.0 kmh</cmt></trkpt>
<trkpt lat="58.870087" lon="05.848794"><ele>23</ele><time>2012-03-31T12:34:49Z</time><cmt>5.4 kmh</cmt></trkpt>
<trkpt lat="58.870097" lon="05.848777"><ele>23</ele><time>2012-03-31T12:34:50Z</time><cmt>5.2 kmh</cmt></trkpt>
<trkpt lat="58.870106" lon="05.848760"><ele>23</ele><time>2012-03-31T12:34:51Z</time><cmt>5.2 kmh</cmt></trkpt>
<trkpt lat="58.870115" lon="05.848745"><ele>23</ele><time>2012-03-31T12:34:52Z</time><cmt>4.2 kmh</cmt></trkpt>
<trkpt lat="58.870123" lon="05.848731"><ele>23</ele><time>2012-03-31T12:34:53Z</time><cmt>3.9 kmh</cmt></trkpt>
<trkpt lat="58.870130" lon="05.848718"><ele>23</ele><time>2012-03-31T12:34:54Z</time><cmt>4.5 kmh</cmt></trkpt>
<trkpt lat="58.870138" lon="05.848705"><ele>23</ele><time>2012-03-31T12:34:55Z</time><cmt>4.3 kmh</cmt></trkpt>
<trkpt lat="58.870145" lon="05.848693"><ele>23</ele><time>2012-03-31T12:34:56Z</time><cmt>4.2 kmh</cmt></trkpt>
<trkpt lat="58.870153" lon="05.848681"><ele>23</ele><time>2012-03-31T12:34:57Z</time><cmt>4.4 kmh</cmt></trkpt>
<trkpt lat="58.870162" lon="05.848669"><ele>23</ele><time>2012-03-31T12:34:58Z</time><cmt>3.7 kmh</cmt></trkpt>
<trkpt lat="58.870172" lon="05.848657"><ele>23</ele><time>2012-03-31T12:34:59Z</time><cmt>3.8 kmh</cmt></trkpt>
<trkpt lat="58.870181" lon="05.848645"><ele>23</ele><time>2012-03-31T12:35:00Z</time><cmt>4.9 kmh</cmt></trkpt>
<trkpt lat="58.870192" lon="05.848633"><ele>23</ele><time>2012-03-31T12:35:01Z</time><cmt>5.0 kmh</cmt></trkpt>
<trkpt lat="58.870202" lon="05.848620"><ele>23</ele><time>2012-03-31T12:35:02Z</time><cmt>5.0 kmh</cmt></trkpt>
<trkpt lat="58.870212" lon="05.848608"><ele>23</ele><time>2012-03-31T12:35:03Z</time><cmt>5.0 kmh</cmt></trkpt>
<trkpt lat="58.870223" lon="05.848595"><ele>23</ele><time>2012-03-31T12:35:04Z</time><cmt>5.0 kmh</cmt></trkpt>
<trkpt lat="58.870233" lon="05.848582"><ele>23</ele><time>2012-03-31T12:35:05Z</time><cmt>4.3 kmh</cmt></trkpt>
<trkpt lat="58.870244" lon="05.848569"><ele>23</ele><time>2012-03-31T12:35:06Z</time><cmt>5.0 kmh</cmt></trkpt>
<trkpt lat="58.870254" lon="05.848555"><ele>23</ele><time>2012-03-31T12:35:07Z</time><cmt>5.0 kmh</cmt></trkpt>
<trkpt lat="58.870264" lon="05.848542"><ele>23</ele><time>2012-03-31T12:35:08Z</time><cmt>5.0 kmh</cmt></trkpt>
<trkpt lat="58.870273" lon="05.848529"><ele>23</ele><time>2012-03-31T12:35:09Z</time><cmt>5.0 kmh</cmt></trkpt>
<trkpt lat="58.870283" lon="05.848516"><ele>23</ele><time>2012-03-31T12:35:10Z</time><cmt>5.0 kmh</cmt></trkpt>
<trkpt lat="58.870292" lon="05.848503"><ele>23</ele><time>2012-03-31T12:35:11Z</time><cmt>4.0 kmh</cmt></trkpt>
<trkpt lat="58.870302" lon="05.848490"><ele>23</ele><time>2012-03-31T12:35:12Z</time><cmt>4.0 kmh</cmt></trkpt>
<trkpt lat="58.870311" lon="05.848476"><ele>23</ele><time>2012-03-31T12:35:13Z</time><cmt>5.0 kmh</cmt></trkpt>
<trkpt lat="58.870321" lon="05.848462"><ele>23</ele><time>2012-03-31T12:35:14Z</time><cmt>5.0 kmh</cmt></trkpt>
<trkpt lat="58.870330" lon="05.848448"><ele>23</ele><time>2012-03-31T12:35:15Z</time><cmt>5.0 kmh</cmt></trkpt>
<trkpt lat="58.870340" lon="05.848434"><ele>23</ele><time>2012-03-31T12:35:16Z</time><cmt>5.0 kmh</cmt></trkpt>
<trkpt lat="58.870350" lon="05.848421"><ele>23</ele><time>2012-03-31T12:35:17Z</time><cmt>4.2 kmh</cmt></trkpt>
<trkpt lat="58.870360" lon="05.848408"><ele>22</ele><time>2012-03-31T12:35:18Z</time><cmt>4.2 kmh</cmt></trkpt>
<trkpt lat="58.870371" lon="05.848396"><ele>22</ele><time>2012-03-31T12:35:19Z</time><cmt>5.0 kmh</cmt></trkpt>
<trkpt lat="58.870381" lon="05.848383"><ele>22</ele><time>2012-03-31T12:35:20Z</time><cmt>5.0 kmh</cmt></trkpt>
<trkpt lat="58.870392" lon="05.848371"><ele>22</ele><time>2012-03-31T12:35:21Z</time><cmt>5.0 kmh</cmt></trkpt>
<trkpt lat="58.870403" lon="05.848358"><ele>22</ele><time>2012-03-31T12:35:22Z</time><cmt>5.1 kmh</cmt></trkpt>
<trkpt lat="58.870414" lon="05.848345"><ele>22</ele><time>2012-03-31T12:35:23Z</time><cmt>5.2 kmh</cmt></trkpt>
<trkpt lat="58.870424" lon="05.848332"><ele>22</ele><time>2012-03-31T12:35:24Z</time><cmt>5.2 kmh</cmt></trkpt>
<trkpt lat="58.870435" lon="05.848319"><ele>22</ele><time>2012-03-31T12:35:25Z</time><cmt>5.0 kmh</cmt></trkpt>
<trkpt lat="58.870445" lon="05.848307"><ele>22</ele><time>2012-03-31T12:35:26Z</time><cmt>5.0 kmh</cmt></trkpt>
<trkpt lat="58.870455" lon="05.848296"><ele>22</ele><time>2012-03-31T12:35:27Z</time><cmt>5.0 kmh</cmt></trkpt>
<trkpt lat="58.870465" lon="05.848284"><ele>22</ele><time>2012-03-31T12:35:28Z</time><cmt>5.0 kmh</cmt></trkpt>
<trkpt lat="58.870475" lon="05.848273"><ele>22</ele><time>2012-03-31T12:35:29Z</time><cmt>4.0 kmh</cmt></trkpt>
<trkpt lat="58.870485" lon="05.848261"><ele>22</ele><time>2012-03-31T12:35:30Z</time><cmt>4.0 kmh</cmt></trkpt>
<trkpt lat="58.870494" lon="05.848250"><ele>22</ele><time>2012-03-31T12:35:31Z</time><cmt>4.9 kmh</cmt></trkpt>
<trkpt lat="58.870503" lon="05.848238"><ele>22</ele><time>2012-03-31T12:35:32Z</time><cmt>4.8 kmh</cmt></trkpt>
<trkpt lat="58.870512" lon="05.848226"><ele>22</ele><time>2012-03-31T12:35:33Z</time><cmt>4.7 kmh</cmt></trkpt>
<trkpt lat="58.870521" lon="05.848214"><ele>22</ele><time>2012-03-31T12:35:34Z</time><cmt>4.6 kmh</cmt></trkpt>
<trkpt lat="58.870529" lon="05.848201"><ele>22</ele><time>2012-03-31T12:35:35Z</time><cmt>3.7 kmh</cmt></trkpt>
<trkpt lat="58.870537" lon="05.848188"><ele>22</ele><time>2012-03-31T12:35:36Z</time><cmt>3.7 kmh</cmt></trkpt>
<trkpt lat="58.870546" lon="05.848175"><ele>22</ele><time>2012-03-31T12:35:37Z</time><cmt>4.6 kmh</cmt></trkpt>
<trkpt lat="58.870554" lon="05.848162"><ele>22</ele><time>2012-03-31T12:35:38Z</time><cmt>4.7 kmh</cmt></trkpt>
<trkpt lat="58.870563" lon="05.848149"><ele>22</ele><time>2012-03-31T12:35:39Z</time><cmt>4.7 kmh</cmt></trkpt>
<trkpt lat="58.870572" lon="05.848136"><ele>22</ele><time>2012-03-31T12:35:40Z</time><cmt>4.8 kmh</cmt></trkpt>
<trkpt lat="58.870581" lon="05.848124"><ele>22</ele><time>2012-03-31T12:35:41Z</time><cmt>3.9 kmh</cmt></trkpt>
<trkpt lat="58.870590" lon="05.848111"><ele>22</ele><time>2012-03-31T12:35:42Z</time><cmt>3.9 kmh</cmt></trkpt>
<trkpt lat="58.870600" lon="05.848098"><ele>22</ele><time>2012-03-31T12:35:43Z</time><cmt>5.0 kmh</cmt></trkpt>
<trkpt lat="58.870610" lon="05.848085"><ele>22</ele><time>2012-03-31T12:35:44Z</time><cmt>5.0 kmh</cmt></trkpt>
<trkpt lat="58.870619" lon="05.848073"><ele>22</ele><time>2012-03-31T12:35:45Z</time><cmt>5.0 kmh</cmt></trkpt>
<trkpt lat="58.870630" lon="05.848060"><ele>22</ele><time>2012-03-31T12:35:46Z</time><cmt>5.0 kmh</cmt></trkpt>
<trkpt lat="58.870640" lon="05.848048"><ele>22</ele><time>2012-03-31T12:35:47Z</time><cmt>5.0 kmh</cmt></trkpt>
<trkpt lat="58.870651" lon="05.848034"><ele>22</ele><time>2012-03-31T12:35:48Z</time><cmt>5.3 kmh</cmt></trkpt>
<trkpt lat="58.870661" lon="05.848020"><ele>22</ele><time>2012-03-31T12:35:49Z</time><cmt>5.2 kmh</cmt></trkpt>
<trkpt lat="58.870672" lon="05.848005"><ele>22</ele><time>2012-03-31T12:35:50Z</time><cmt>5.2 kmh</cmt></trkpt>
<trkpt lat="58.870682" lon="05.847991"><ele>22</ele><time>2012-03-31T12:35:51Z</time><cmt>5.1 kmh</cmt></trkpt>
<trkpt lat="58.870693" lon="05.847978"><ele>22</ele><time>2012-03-31T12:35:52Z</time><cmt>5.1 kmh</cmt></trkpt>
<trkpt lat="58.870703" lon="05.847964"><ele>22</ele><time>2012-03-31T12:35:53Z</time><cmt>5.1 kmh</cmt></trkpt>
<trkpt lat="58.870714" lon="05.847952"><ele>22</ele><time>2012-03-31T12:35:54Z</time><cmt>4.3 kmh</cmt></trkpt>
<trkpt lat="58.870724" lon="05.847941"><ele>22</ele><time>2012-03-31T12:35:55Z</time><cmt>4.2 kmh</cmt></trkpt>
<trkpt lat="58.870734" lon="05.847931"><ele>22</ele><time>2012-03-31T12:35:56Z</time><cmt>4.9 kmh</cmt></trkpt>
<trkpt lat="58.870742" lon="05.847922"><ele>22</ele><time>2012-03-31T12:35:57Z</time><cmt>4.5 kmh</cmt></trkpt>
<trkpt lat="58.870751" lon="05.847912"><ele>22</ele><time>2012-03-31T12:35:58Z</time><cmt>4.2 kmh</cmt></trkpt>
<trkpt lat="58.870759" lon="05.847902"><ele>22</ele><time>2012-03-31T12:35:59Z</time><cmt>4.2 kmh</cmt></trkpt>
<trkpt lat="58.870768" lon="05.847891"><ele>22</ele><time>2012-03-31T12:36:00Z</time><cmt>3.6 kmh</cmt></trkpt>
<trkpt lat="58.870778" lon="05.847879"><ele>22</ele><time>2012-03-31T12:36:01Z</time><cmt>3.9 kmh</cmt></trkpt>
<trkpt lat="58.870789" lon="05.847866"><ele>22</ele><time>2012-03-31T12:36:02Z</time><cmt>5.4 kmh</cmt></trkpt>
<trkpt lat="58.870801" lon="05.847851"><ele>22</ele><time>2012-03-31T12:36:03Z</time><cmt>6.4 kmh</cmt></trkpt>
<trkpt lat="58.870815" lon="05.847835"><ele>22</ele><time>2012-03-31T12:36:04Z</time><cmt>7.7 kmh</cmt></trkpt>
<trkpt lat="58.870832" lon="05.847817"><ele>22</ele><time>2012-03-31T12:36:05Z</time><cmt>8.6 kmh</cmt></trkpt>
<trkpt lat="58.870851" lon="05.847799"><ele>22</ele><time>2012-03-31T12:36:06Z</time><cmt>9.2 kmh</cmt></trkpt>
<trkpt lat="58.870873" lon="05.847784"><ele>22</ele><time>2012-03-31T12:36:07Z</time><cmt>9.8 kmh</cmt></trkpt>
<trkpt lat="58.870896" lon="05.847770"><ele>22</ele><time>2012-03-31T12:36:08Z</time><cmt>9.5 kmh</cmt></trkpt>
<trkpt lat="58.870919" lon="05.847758"><ele>22</ele><time>2012-03-31T12:36:09Z</time><cmt>9.4 kmh</cmt></trkpt>
<trkpt lat="58.870942" lon="05.847746"><ele>22</ele><time>2012-03-31T12:36:10Z</time><cmt>9.9 kmh</cmt></trkpt>
<trkpt lat="58.870965" lon="05.847736"><ele>22</ele><time>2012-03-31T12:36:11Z</time><cmt>9.4 kmh</cmt></trkpt>
<trkpt lat="58.870989" lon="05.847728"><ele>22</ele><time>2012-03-31T12:36:12Z</time><cmt>9.9 kmh</cmt></trkpt>
<trkpt lat="58.871013" lon="05.847722"><ele>22</ele><time>2012-03-31T12:36:13Z</time><cmt>9.8 kmh</cmt></trkpt>
<trkpt lat="58.871036" lon="05.847717"><ele>21</ele><time>2012-03-31T12:36:14Z</time><cmt>9.6 kmh</cmt></trkpt>
<trkpt lat="58.871060" lon="05.847713"><ele>21</ele><time>2012-03-31T12:36:15Z</time><cmt>9.8 kmh</cmt></trkpt>
<trkpt lat="58.871083" lon="05.847708"><ele>21</ele><time>2012-03-31T12:36:16Z</time><cmt>9.9 kmh</cmt></trkpt>
<trkpt lat="58.871107" lon="05.847703"><ele>21</ele><time>2012-03-31T12:36:17Z</time><cmt>9.3 kmh</cmt></trkpt>
<trkpt lat="58.871130" lon="05.847699"><ele>21</ele><time>2012-03-31T12:36:18Z</time><cmt>9.7 kmh</cmt></trkpt>
<trkpt lat="58.871153" lon="05.847696"><ele>21</ele><time>2012-03-31T12:36:19Z</time><cmt>8.7 kmh</cmt></trkpt>
<trkpt lat="58.871172" lon="05.847692"><ele>21</ele><time>2012-03-31T12:36:20Z</time><cmt>6.9 kmh</cmt></trkpt>
<trkpt lat="58.871190" lon="05.847691"><ele>21</ele><time>2012-03-31T12:36:21Z</time><cmt>5.3 kmh</cmt></trkpt>
<trkpt lat="58.871222" lon="05.847684"><ele>21</ele><time>2012-03-31T12:36:26Z</time><cmt>5.0 kmh</cmt></trkpt>
<trkpt lat="58.871222" lon="05.847685"><ele>21</ele><time>2012-03-31T12:36:27Z</time><cmt>5.0 kmh</cmt></trkpt>
<trkpt lat="58.871221" lon="05.847687"><ele>21</ele><time>2012-03-31T12:36:28Z</time><cmt>0.5 kmh</cmt></trkpt>
<trkpt lat="58.871220" lon="05.847689"><ele>21</ele><time>2012-03-31T12:36:29Z</time><cmt>0.7 kmh</cmt></trkpt>
<trkpt lat="58.871219" lon="05.847693"><ele>21</ele><time>2012-03-31T12:36:30Z</time><cmt>0.9 kmh</cmt></trkpt>
<trkpt lat="58.871218" lon="05.847697"><ele>21</ele><time>2012-03-31T12:36:31Z</time><cmt>0.7 kmh</cmt></trkpt>
<trkpt lat="58.871217" lon="05.847702"><ele>21</ele><time>2012-03-31T12:36:32Z</time><cmt>0.8 kmh</cmt></trkpt>
<trkpt lat="58.871217" lon="05.847706"><ele>21</ele><time>2012-03-31T12:36:33Z</time><cmt>1.1 kmh</cmt></trkpt>
<trkpt lat="58.871216" lon="05.847708"><ele>21</ele><time>2012-03-31T12:36:34Z</time><cmt>0.7 kmh</cmt></trkpt>
<trkpt lat="58.871215" lon="05.847707"><ele>21</ele><time>2012-03-31T12:36:35Z</time><cmt>0.3 kmh</cmt></trkpt>
<trkpt lat="58.871215" lon="05.847706"><ele>21</ele><time>2012-03-31T12:36:36Z</time><cmt>0.0 kmh</cmt></trkpt>
<trkpt lat="58.871215" lon="05.847705"><ele>21</ele><time>2012-03-31T12:36:37Z</time><cmt>0.0 kmh</cmt></trkpt>
<trkpt lat="58.871214" lon="05.847705"><ele>21</ele><time>2012-03-31T12:36:38Z</time><cmt>0.0 kmh</cmt></trkpt>
<trkpt lat="58.871214" lon="05.847705"><ele>21</ele><time>2012-03-31T12:36:39Z</time><cmt>0.0 kmh</cmt></trkpt>
<trkpt lat="58.871214" lon="05.847705"><ele>21</ele><time>2012-03-31T12:36:40Z</time><cmt>0.0 kmh</cmt></trkpt>
<trkpt lat="58.871214" lon="05.847706"><ele>21</ele><time>2012-03-31T12:36:41Z</time><cmt>0.0 kmh</cmt></trkpt>
<trkpt lat="58.871214" lon="05.847706"><ele>21</ele><time>2012-03-31T12:36:42Z</time><cmt>0.0 kmh</cmt></trkpt>
<trkpt lat="58.871214" lon="05.847704"><ele>21</ele><time>2012-03-31T12:36:43Z</time><cmt>0.2 kmh</cmt></trkpt>
<trkpt lat="58.871214" lon="05.847700"><ele>21</ele><time>2012-03-31T12:36:44Z</time><cmt>0.6 kmh</cmt></trkpt>
<trkpt lat="58.871215" lon="05.847694"><ele>21</ele><time>2012-03-31T12:36:45Z</time><cmt>1.1 kmh</cmt></trkpt>
<trkpt lat="58.871216" lon="05.847687"><ele>22</ele><time>2012-03-31T12:36:46Z</time><cmt>1.5 kmh</cmt></trkpt>
<trkpt lat="58.871217" lon="05.847680"><ele>22</ele><time>2012-03-31T12:36:47Z</time><cmt>1.6 kmh</cmt></trkpt>
<trkpt lat="58.871218" lon="05.847673"><ele>22</ele><time>2012-03-31T12:36:48Z</time><cmt>1.6 kmh</cmt></trkpt>
<trkpt lat="58.871219" lon="05.847667"><ele>22</ele><time>2012-03-31T12:36:49Z</time><cmt>1.6 kmh</cmt></trkpt>
<trkpt lat="58.871220" lon="05.847661"><ele>22</ele><time>2012-03-31T12:36:50Z</time><cmt>1.2 kmh</cmt></trkpt>
<trkpt lat="58.871221" lon="05.847654"><ele>22</ele><time>2012-03-31T12:36:51Z</time><cmt>1.1 kmh</cmt></trkpt>
<trkpt lat="58.871222" lon="05.847649"><ele>22</ele><time>2012-03-31T12:36:52Z</time><cmt>1.4 kmh</cmt></trkpt>
<trkpt lat="58.871223" lon="05.847643"><ele>23</ele><time>2012-03-31T12:36:53Z</time><cmt>1.4 kmh</cmt></trkpt>
<trkpt lat="58.871223" lon="05.847637"><ele>23</ele><time>2012-03-31T12:36:54Z</time><cmt>1.3 kmh</cmt></trkpt>
<trkpt lat="58.871224" lon="05.847630"><ele>23</ele><time>2012-03-31T12:36:55Z</time><cmt>1.4 kmh</cmt></trkpt>
<trkpt lat="58.871225" lon="05.847623"><ele>23</ele><time>2012-03-31T12:36:56Z</time><cmt>1.3 kmh</cmt></trkpt>
<trkpt lat="58.871227" lon="05.847615"><ele>23</ele><time>2012-03-31T12:36:57Z</time><cmt>1.4 kmh</cmt></trkpt>
<trkpt lat="58.871229" lon="05.847605"><ele>23</ele><time>2012-03-31T12:36:58Z</time><cmt>2.1 kmh</cmt></trkpt>
<trkpt lat="58.871232" lon="05.847595"><ele>23</ele><time>2012-03-31T12:36:59Z</time><cmt>2.5 kmh</cmt></trkpt>
<trkpt lat="58.871235" lon="05.847582"><ele>23</ele><time>2012-03-31T12:37:00Z</time><cmt>2.9 kmh</cmt></trkpt>
<trkpt lat="58.871238" lon="05.847568"><ele>24</ele><time>2012-03-31T12:37:01Z</time><cmt>3.3 kmh</cmt></trkpt>
<trkpt lat="58.871242" lon="05.847553"><ele>24</ele><time>2012-03-31T12:37:02Z</time><cmt>2.9 kmh</cmt></trkpt>
<trkpt lat="58.871247" lon="05.847539"><ele>24</ele><time>2012-03-31T12:37:03Z</time><cmt>3.1 kmh</cmt></trkpt>
<trkpt lat="58.871252" lon="05.847524"><ele>24</ele><time>2012-03-31T12:37:04Z</time><cmt>3.9 kmh</cmt></trkpt>
<trkpt lat="58.871256" lon="05.847510"><ele>24</ele><time>2012-03-31T12:37:05Z</time><cmt>3.7 kmh</cmt></trkpt>
<trkpt lat="58.871261" lon="05.847498"><ele>24</ele><time>2012-03-31T12:37:06Z</time><cmt>3.6 kmh</cmt></trkpt>
<trkpt lat="58.871266" lon="05.847485"><ele>24</ele><time>2012-03-31T12:37:07Z</time><cmt>3.6 kmh</cmt></trkpt>
<trkpt lat="58.871272" lon="05.847472"><ele>25</ele><time>2012-03-31T12:37:08Z</time><cmt>3.0 kmh</cmt></trkpt>
<trkpt lat="58.871279" lon="05.847460"><ele>25</ele><time>2012-03-31T12:37:09Z</time><cmt>3.1 kmh</cmt></trkpt>
<trkpt lat="58.871286" lon="05.847447"><ele>25</ele><time>2012-03-31T12:37:10Z</time><cmt>4.1 kmh</cmt></trkpt>
<trkpt lat="58.871294" lon="05.847432"><ele>25</ele><time>2012-03-31T12:37:11Z</time><cmt>4.5 kmh</cmt></trkpt>
<trkpt lat="58.871302" lon="05.847418"><ele>25</ele><time>2012-03-31T12:37:12Z</time><cmt>4.7 kmh</cmt></trkpt>
<trkpt lat="58.871311" lon="05.847405"><ele>25</ele><time>2012-03-31T12:37:13Z</time><cmt>4.7 kmh</cmt></trkpt>
<trkpt lat="58.871319" lon="05.847391"><ele>25</ele><time>2012-03-31T12:37:14Z</time><cmt>3.8 kmh</cmt></trkpt>
<trkpt lat="58.871329" lon="05.847378"><ele>25</ele><time>2012-03-31T12:37:15Z</time><cmt>4.0 kmh</cmt></trkpt>
<trkpt lat="58.871339" lon="05.847365"><ele>25</ele><time>2012-03-31T12:37:16Z</time><cmt>5.0 kmh</cmt></trkpt>
<trkpt lat="58.871350" lon="05.847353"><ele>25</ele><time>2012-03-31T12:37:17Z</time><cmt>5.0 kmh</cmt></trkpt>
<trkpt lat="58.871361" lon="05.847341"><ele>25</ele><time>2012-03-31T12:37:18Z</time><cmt>5.0 kmh</cmt></trkpt>
<trkpt lat="58.871372" lon="05.847329"><ele>25</ele><time>2012-03-31T12:37:19Z</time><cmt>5.5 kmh</cmt></trkpt>
<trkpt lat="58.871384" lon="05.847315"><ele>25</ele><time>2012-03-31T12:37:20Z</time><cmt>5.6 kmh</cmt></trkpt>
<trkpt lat="58.871396" lon="05.847302"><ele>25</ele><time>2012-03-31T12:37:21Z</time><cmt>5.7 kmh</cmt></trkpt>
<trkpt lat="58.871409" lon="05.847287"><ele>25</ele><time>2012-03-31T12:37:22Z</time><cmt>5.6 kmh</cmt></trkpt>
<trkpt lat="58.871421" lon="05.847273"><ele>25</ele><time>2012-03-31T12:37:23Z</time><cmt>5.5 kmh</cmt></trkpt>
<trkpt lat="58.871433" lon="05.847259"><ele>25</ele><time>2012-03-31T12:37:24Z</time><cmt>5.7 kmh</cmt></trkpt>
<trkpt lat="58.871445" lon="05.847245"><ele>25</ele><time>2012-03-31T12:37:25Z</time><cmt>5.6 kmh</cmt></trkpt>
<trkpt lat="58.871457" lon="05.847231"><ele>25</ele><time>2012-03-31T12:37:26Z</time><cmt>5.5 kmh</cmt></trkpt>
<trkpt lat="58.871469" lon="05.847217"><ele>25</ele><time>2012-03-31T12:37:27Z</time><cmt>5.5 kmh</cmt></trkpt>
<trkpt lat="58.871481" lon="05.847205"><ele>25</ele><time>2012-03-31T12:37:28Z</time><cmt>5.2 kmh</cmt></trkpt>
<trkpt lat="58.871493" lon="05.847192"><ele>25</ele><time>2012-03-31T12:37:29Z</time><cmt>5.5 kmh</cmt></trkpt>
<trkpt lat="58.871506" lon="05.847180"><ele>25</ele><time>2012-03-31T12:37:30Z</time><cmt>5.2 kmh</cmt></trkpt>
<trkpt lat="58.871518" lon="05.847170"><ele>25</ele><time>2012-03-31T12:37:31Z</time><cmt>5.2 kmh</cmt></trkpt>
<trkpt lat="58.871530" lon="05.847162"><ele>25</ele><time>2012-03-31T12:37:32Z</time><cmt>5.1 kmh</cmt></trkpt>
<trkpt lat="58.871540" lon="05.847152"><ele>25</ele><time>2012-03-31T12:37:33Z</time><cmt>5.0 kmh</cmt></trkpt>
<trkpt lat="58.871559" lon="05.847147"><ele>25</ele><time>2012-03-31T12:37:35Z</time><cmt>5.1 kmh</cmt></trkpt>
<trkpt lat="58.871586" lon="05.847141"><ele>25</ele><time>2012-03-31T12:37:38Z</time><cmt>3.8 kmh</cmt></trkpt>
<trkpt lat="58.871657" lon="05.847177"><ele>27</ele><time>2012-03-31T12:40:21Z</time><cmt>5.0 kmh</cmt></trkpt>
<trkpt lat="58.871677" lon="05.847125"><ele>27</ele><time>2012-03-31T12:40:28Z</time><cmt>3.2 kmh</cmt></trkpt>
<trkpt lat="58.871695" lon="05.847075"><ele>27</ele><time>2012-03-31T12:40:31Z</time><cmt>5.2 kmh</cmt></trkpt>
<trkpt lat="58.871709" lon="05.847033"><ele>27</ele><time>2012-03-31T12:40:33Z</time><cmt>5.5 kmh</cmt></trkpt>
<trkpt lat="58.871717" lon="05.846998"><ele>27</ele><time>2012-03-31T12:40:35Z</time><cmt>5.0 kmh</cmt></trkpt>
<trkpt lat="58.871726" lon="05.846938"><ele>27</ele><time>2012-03-31T12:40:39Z</time><cmt>3.1 kmh</cmt></trkpt>
<trkpt lat="58.871726" lon="05.846931"><ele>27</ele><time>2012-03-31T12:40:40Z</time><cmt>4.4 kmh</cmt></trkpt>
<trkpt lat="58.871726" lon="05.846925"><ele>27</ele><time>2012-03-31T12:40:41Z</time><cmt>1.4 kmh</cmt></trkpt>
<trkpt lat="58.871725" lon="05.846919"><ele>27</ele><time>2012-03-31T12:40:42Z</time><cmt>1.3 kmh</cmt></trkpt>
<trkpt lat="58.871724" lon="05.846913"><ele>27</ele><time>2012-03-31T12:40:43Z</time><cmt>1.3 kmh</cmt></trkpt>
<trkpt lat="58.871723" lon="05.846908"><ele>27</ele><time>2012-03-31T12:40:44Z</time><cmt>1.3 kmh</cmt></trkpt>
<trkpt lat="58.871721" lon="05.846904"><ele>27</ele><time>2012-03-31T12:40:45Z</time><cmt>1.0 kmh</cmt></trkpt>
<trkpt lat="58.871690" lon="05.846874"><ele>27</ele><time>2012-03-31T12:40:54Z</time><cmt>5.0 kmh</cmt></trkpt>
<trkpt lat="58.871686" lon="05.846871"><ele>27</ele><time>2012-03-31T12:40:55Z</time><cmt>5.0 kmh</cmt></trkpt>
<trkpt lat="58.871682" lon="05.846869"><ele>27</ele><time>2012-03-31T12:40:56Z</time><cmt>2.0 kmh</cmt></trkpt>
<trkpt lat="58.871677" lon="05.846868"><ele>27</ele><time>2012-03-31T12:40:57Z</time><cmt>1.6 kmh</cmt></trkpt>
<trkpt lat="58.871672" lon="05.846866"><ele>27</ele><time>2012-03-31T12:40:58Z</time><cmt>1.7 kmh</cmt></trkpt>
<trkpt lat="58.871667" lon="05.846864"><ele>27</ele><time>2012-03-31T12:40:59Z</time><cmt>2.2 kmh</cmt></trkpt>
<trkpt lat="58.871661" lon="05.846861"><ele>27</ele><time>2012-03-31T12:41:00Z</time><cmt>2.2 kmh</cmt></trkpt>
<trkpt lat="58.871656" lon="05.846858"><ele>27</ele><time>2012-03-31T12:41:01Z</time><cmt>2.3 kmh</cmt></trkpt>
<trkpt lat="58.871652" lon="05.846855"><ele>27</ele><time>2012-03-31T12:41:02Z</time><cmt>2.2 kmh</cmt></trkpt>
<trkpt lat="58.871648" lon="05.846851"><ele>27</ele><time>2012-03-31T12:41:03Z</time><cmt>1.6 kmh</cmt></trkpt>
<trkpt lat="58.871644" lon="05.846848"><ele>27</ele><time>2012-03-31T12:41:04Z</time><cmt>1.5 kmh</cmt></trkpt>
<trkpt lat="58.871641" lon="05.846847"><ele>27</ele><time>2012-03-31T12:41:05Z</time><cmt>1.6 kmh</cmt></trkpt>
<trkpt lat="58.871637" lon="05.846849"><ele>27</ele><time>2012-03-31T12:41:06Z</time><cmt>1.5 kmh</cmt></trkpt>
<trkpt lat="58.871634" lon="05.846850"><ele>27</ele><time>2012-03-31T12:41:07Z</time><cmt>1.6 kmh</cmt></trkpt>
<trkpt lat="58.871628" lon="05.846834"><ele>27</ele><time>2012-03-31T12:41:10Z</time><cmt>1.3 kmh</cmt></trkpt>
<trkpt lat="58.871628" lon="05.846824"><ele>27</ele><time>2012-03-31T12:41:11Z</time><cmt>2.6 kmh</cmt></trkpt>
<trkpt lat="58.871629" lon="05.846811"><ele>27</ele><time>2012-03-31T12:41:12Z</time><cmt>2.6 kmh</cmt></trkpt>
<trkpt lat="58.871632" lon="05.846795"><ele>27</ele><time>2012-03-31T12:41:13Z</time><cmt>3.4 kmh</cmt></trkpt>
<trkpt lat="58.871636" lon="05.846778"><ele>27</ele><time>2012-03-31T12:41:14Z</time><cmt>4.0 kmh</cmt></trkpt>
<trkpt lat="58.871642" lon="05.846759"><ele>27</ele><time>2012-03-31T12:41:15Z</time><cmt>4.5 kmh</cmt></trkpt>
<trkpt lat="58.871649" lon="05.846742"><ele>27</ele><time>2012-03-31T12:41:16Z</time><cmt>4.0 kmh</cmt></trkpt>
<trkpt lat="58.871659" lon="05.846726"><ele>27</ele><time>2012-03-31T12:41:17Z</time><cmt>4.2 kmh</cmt></trkpt>
<trkpt lat="58.871669" lon="05.846714"><ele>27</ele><time>2012-03-31T12:41:18Z</time><cmt>5.0 kmh</cmt></trkpt>
<trkpt lat="58.871681" lon="05.846704"><ele>27</ele><time>2012-03-31T12:41:19Z</time><cmt>5.0 kmh</cmt></trkpt>
<trkpt lat="58.871694" lon="05.846700"><ele>27</ele><time>2012-03-31T12:41:20Z</time><cmt>5.0 kmh</cmt></trkpt>
<trkpt lat="58.871706" lon="05.846698"><ele>27</ele><time>2012-03-31T12:41:21Z</time><cmt>5.0 kmh</cmt></trkpt>
<trkpt lat="58.871718" lon="05.846699"><ele>27</ele><time>2012-03-31T12:41:22Z</time><cmt>4.2 kmh</cmt></trkpt>
<trkpt lat="58.871730" lon="05.846702"><ele>27</ele><time>2012-03-31T12:41:23Z</time><cmt>4.1 kmh</cmt></trkpt>
<trkpt lat="58.871742" lon="05.846706"><ele>27</ele><time>2012-03-31T12:41:24Z</time><cmt>5.1 kmh</cmt></trkpt>
<trkpt lat="58.871754" lon="05.846713"><ele>26</ele><time>2012-03-31T12:41:25Z</time><cmt>5.1 kmh</cmt></trkpt>
<trkpt lat="58.871766" lon="05.846723"><ele>26</ele><time>2012-03-31T12:41:26Z</time><cmt>5.7 kmh</cmt></trkpt>
<trkpt lat="58.871779" lon="05.846735"><ele>26</ele><time>2012-03-31T12:41:27Z</time><cmt>5.9 kmh</cmt></trkpt>
<trkpt lat="58.871792" lon="05.846748"><ele>26</ele><time>2012-03-31T12:41:28Z</time><cmt>6.0 kmh</cmt></trkpt>
<trkpt lat="58.871804" lon="05.846763"><ele>26</ele><time>2012-03-31T12:41:29Z</time><cmt>6.2 kmh</cmt></trkpt>
<trkpt lat="58.871817" lon="05.846780"><ele>26</ele><time>2012-03-31T12:41:30Z</time><cmt>6.0 kmh</cmt></trkpt>
<trkpt lat="58.871839" lon="05.846809"><ele>26</ele><time>2012-03-31T12:41:32Z</time><cmt>6.6 kmh</cmt></trkpt>
<trkpt lat="58.871868" lon="05.846843"><ele>26</ele><time>2012-03-31T12:41:34Z</time><cmt>6.6 kmh</cmt></trkpt>
<trkpt lat="58.871899" lon="05.846874"><ele>26</ele><time>2012-03-31T12:41:36Z</time><cmt>7.2 kmh</cmt></trkpt>
<trkpt lat="58.871930" lon="05.846908"><ele>25</ele><time>2012-03-31T12:41:38Z</time><cmt>7.0 kmh</cmt></trkpt>
<trkpt lat="58.871958" lon="05.846944"><ele>25</ele><time>2012-03-31T12:41:40Z</time><cmt>6.6 kmh</cmt></trkpt>
<trkpt lat="58.871985" lon="05.846981"><ele>25</ele><time>2012-03-31T12:41:42Z</time><cmt>6.5 kmh</cmt></trkpt>
<trkpt lat="58.872011" lon="05.847016"><ele>25</ele><time>2012-03-31T12:41:44Z</time><cmt>6.6 kmh</cmt></trkpt>
<trkpt lat="58.872037" lon="05.847050"><ele>25</ele><time>2012-03-31T12:41:46Z</time><cmt>6.6 kmh</cmt></trkpt>
<trkpt lat="58.872063" lon="05.847086"><ele>24</ele><time>2012-03-31T12:41:48Z</time><cmt>6.7 kmh</cmt></trkpt>
<trkpt lat="58.872089" lon="05.847121"><ele>24</ele><time>2012-03-31T12:41:50Z</time><cmt>6.1 kmh</cmt></trkpt>
<trkpt lat="58.872115" lon="05.847156"><ele>24</ele><time>2012-03-31T12:41:52Z</time><cmt>5.9 kmh</cmt></trkpt>
<trkpt lat="58.872139" lon="05.847190"><ele>24</ele><time>2012-03-31T12:41:54Z</time><cmt>6.0 kmh</cmt></trkpt>
<trkpt lat="58.872175" lon="05.847244"><ele>24</ele><time>2012-03-31T12:41:57Z</time><cmt>6.0 kmh</cmt></trkpt>
<trkpt lat="58.872210" lon="05.847300"><ele>24</ele><time>2012-03-31T12:42:00Z</time><cmt>6.0 kmh</cmt></trkpt>
<trkpt lat="58.872244" lon="05.847356"><ele>24</ele><time>2012-03-31T12:42:03Z</time><cmt>6.2 kmh</cmt></trkpt>
<trkpt lat="58.872270" lon="05.847397"><ele>24</ele><time>2012-03-31T12:42:05Z</time><cmt>6.7 kmh</cmt></trkpt>
<trkpt lat="58.872294" lon="05.847441"><ele>24</ele><time>2012-03-31T12:42:07Z</time><cmt>6.4 kmh</cmt></trkpt>
<trkpt lat="58.872317" lon="05.847491"><ele>24</ele><time>2012-03-31T12:42:09Z</time><cmt>6.9 kmh</cmt></trkpt>
<trkpt lat="58.872341" lon="05.847542"><ele>23</ele><time>2012-03-31T12:42:11Z</time><cmt>7.1 kmh</cmt></trkpt>
<trkpt lat="58.872366" lon="05.847595"><ele>23</ele><time>2012-03-31T12:42:13Z</time><cmt>7.4 kmh</cmt></trkpt>
<trkpt lat="58.872390" lon="05.847654"><ele>23</ele><time>2012-03-31T12:42:15Z</time><cmt>7.7 kmh</cmt></trkpt>
<trkpt lat="58.872412" lon="05.847717"><ele>23</ele><time>2012-03-31T12:42:17Z</time><cmt>7.8 kmh</cmt></trkpt>
<trkpt lat="58.872435" lon="05.847779"><ele>23</ele><time>2012-03-31T12:42:19Z</time><cmt>7.7 kmh</cmt></trkpt>
<trkpt lat="58.872459" lon="05.847842"><ele>22</ele><time>2012-03-31T12:42:21Z</time><cmt>7.8 kmh</cmt></trkpt>
<trkpt lat="58.872483" lon="05.847904"><ele>22</ele><time>2012-03-31T12:42:23Z</time><cmt>7.6 kmh</cmt></trkpt>
<trkpt lat="58.872505" lon="05.847963"><ele>22</ele><time>2012-03-31T12:42:25Z</time><cmt>7.3 kmh</cmt></trkpt>
<trkpt lat="58.872527" lon="05.848021"><ele>21</ele><time>2012-03-31T12:42:27Z</time><cmt>7.2 kmh</cmt></trkpt>
<trkpt lat="58.872548" lon="05.848078"><ele>21</ele><time>2012-03-31T12:42:29Z</time><cmt>7.0 kmh</cmt></trkpt>
<trkpt lat="58.872570" lon="05.848132"><ele>21</ele><time>2012-03-31T12:42:31Z</time><cmt>7.0 kmh</cmt></trkpt>
<trkpt lat="58.872592" lon="05.848184"><ele>21</ele><time>2012-03-31T12:42:33Z</time><cmt>7.1 kmh</cmt></trkpt>
<trkpt lat="58.872614" lon="05.848235"><ele>21</ele><time>2012-03-31T12:42:35Z</time><cmt>6.9 kmh</cmt></trkpt>
<trkpt lat="58.872636" lon="05.848286"><ele>20</ele><time>2012-03-31T12:42:37Z</time><cmt>6.6 kmh</cmt></trkpt>
<trkpt lat="58.872656" lon="05.848338"><ele>20</ele><time>2012-03-31T12:42:39Z</time><cmt>6.7 kmh</cmt></trkpt>
<trkpt lat="58.872677" lon="05.848388"><ele>20</ele><time>2012-03-31T12:42:41Z</time><cmt>6.5 kmh</cmt></trkpt>
<trkpt lat="58.872698" lon="05.848434"><ele>20</ele><time>2012-03-31T12:42:43Z</time><cmt>5.9 kmh</cmt></trkpt>
<trkpt lat="58.872717" lon="05.848472"><ele>20</ele><time>2012-03-31T12:42:45Z</time><cmt>5.3 kmh</cmt></trkpt>
<trkpt lat="58.872742" lon="05.848530"><ele>20</ele><time>2012-03-31T12:42:48Z</time><cmt>5.5 kmh</cmt></trkpt>
<trkpt lat="58.872769" lon="05.848598"><ele>20</ele><time>2012-03-31T12:42:51Z</time><cmt>6.4 kmh</cmt></trkpt>
<trkpt lat="58.872789" lon="05.848645"><ele>20</ele><time>2012-03-31T12:42:53Z</time><cmt>6.7 kmh</cmt></trkpt>
<trkpt lat="58.872811" lon="05.848694"><ele>20</ele><time>2012-03-31T12:42:55Z</time><cmt>6.7 kmh</cmt></trkpt>
<trkpt lat="58.872833" lon="05.848743"><ele>20</ele><time>2012-03-31T12:42:57Z</time><cmt>7.0 kmh</cmt></trkpt>
<trkpt lat="58.872856" lon="05.848795"><ele>20</ele><time>2012-03-31T12:42:59Z</time><cmt>7.1 kmh</cmt></trkpt>
<trkpt lat="58.872879" lon="05.848849"><ele>20</ele><time>2012-03-31T12:43:01Z</time><cmt>7.4 kmh</cmt></trkpt>
<trkpt lat="58.872903" lon="05.848903"><ele>20</ele><time>2012-03-31T12:43:03Z</time><cmt>7.5 kmh</cmt></trkpt>
<trkpt lat="58.872927" lon="05.848957"><ele>20</ele><time>2012-03-31T12:43:05Z</time><cmt>7.5 kmh</cmt></trkpt>
<trkpt lat="58.872952" lon="05.849009"><ele>20</ele><time>2012-03-31T12:43:07Z</time><cmt>7.3 kmh</cmt></trkpt>
<trkpt lat="58.872976" lon="05.849062"><ele>20</ele><time>2012-03-31T12:43:09Z</time><cmt>7.3 kmh</cmt></trkpt>
<trkpt lat="58.873000" lon="05.849116"><ele>20</ele><time>2012-03-31T12:43:11Z</time><cmt>7.5 kmh</cmt></trkpt>
<trkpt lat="58.873023" lon="05.849170"><ele>20</ele><time>2012-03-31T12:43:13Z</time><cmt>7.2 kmh</cmt></trkpt>
<trkpt lat="58.873044" lon="05.849224"><ele>20</ele><time>2012-03-31T12:43:15Z</time><cmt>7.1 kmh</cmt></trkpt>
<trkpt lat="58.873065" lon="05.849282"><ele>20</ele><time>2012-03-31T12:43:17Z</time><cmt>7.2 kmh</cmt></trkpt>
<trkpt lat="58.873084" lon="05.849338"><ele>20</ele><time>2012-03-31T12:43:19Z</time><cmt>7.1 kmh</cmt></trkpt>
<trkpt lat="58.873104" lon="05.849397"><ele>20</ele><time>2012-03-31T12:43:21Z</time><cmt>7.4 kmh</cmt></trkpt>
<trkpt lat="58.873124" lon="05.849456"><ele>20</ele><time>2012-03-31T12:43:23Z</time><cmt>7.4 kmh</cmt></trkpt>
<trkpt lat="58.873142" lon="05.849515"><ele>20</ele><time>2012-03-31T12:43:25Z</time><cmt>7.1 kmh</cmt></trkpt>
<trkpt lat="58.873160" lon="05.849573"><ele>20</ele><time>2012-03-31T12:43:27Z</time><cmt>7.0 kmh</cmt></trkpt>
<trkpt lat="58.873177" lon="05.849633"><ele>20</ele><time>2012-03-31T12:43:29Z</time><cmt>7.3 kmh</cmt></trkpt>
<trkpt lat="58.873195" lon="05.849693"><ele>20</ele><time>2012-03-31T12:43:31Z</time><cmt>7.2 kmh</cmt></trkpt>
<trkpt lat="58.873211" lon="05.849761"><ele>20</ele><time>2012-03-31T12:43:33Z</time><cmt>7.5 kmh</cmt></trkpt>
<trkpt lat="58.873226" lon="05.849826"><ele>20</ele><time>2012-03-31T12:43:35Z</time><cmt>7.7 kmh</cmt></trkpt>
<trkpt lat="58.873241" lon="05.849890"><ele>20</ele><time>2012-03-31T12:43:37Z</time><cmt>7.6 kmh</cmt></trkpt>
<trkpt lat="58.873258" lon="05.849953"><ele>20</ele><time>2012-03-31T12:43:39Z</time><cmt>7.6 kmh</cmt></trkpt>
<trkpt lat="58.873274" lon="05.850014"><ele>20</ele><time>2012-03-31T12:43:41Z</time><cmt>7.4 kmh</cmt></trkpt>
<trkpt lat="58.873290" lon="05.850074"><ele>20</ele><time>2012-03-31T12:43:43Z</time><cmt>7.0 kmh</cmt></trkpt>
<trkpt lat="58.873305" lon="05.850129"><ele>20</ele><time>2012-03-31T12:43:45Z</time><cmt>6.8 kmh</cmt></trkpt>
<trkpt lat="58.873320" lon="05.850186"><ele>20</ele><time>2012-03-31T12:43:47Z</time><cmt>6.9 kmh</cmt></trkpt>
<trkpt lat="58.873335" lon="05.850244"><ele>20</ele><time>2012-03-31T12:43:49Z</time><cmt>7.0 kmh</cmt></trkpt>
<trkpt lat="58.873349" lon="05.850307"><ele>20</ele><time>2012-03-31T12:43:51Z</time><cmt>7.2 kmh</cmt></trkpt>
<trkpt lat="58.873356" lon="05.850340"><ele>20</ele><time>2012-03-31T12:43:52Z</time><cmt>7.6 kmh</cmt></trkpt>
<trkpt lat="58.873362" lon="05.850375"><ele>20</ele><time>2012-03-31T12:43:53Z</time><cmt>7.8 kmh</cmt></trkpt>
<trkpt lat="58.873368" lon="05.850409"><ele>20</ele><time>2012-03-31T12:43:54Z</time><cmt>7.8 kmh</cmt></trkpt>
<trkpt lat="58.873375" lon="05.850444"><ele>20</ele><time>2012-03-31T12:43:55Z</time><cmt>7.9 kmh</cmt></trkpt>
<trkpt lat="58.873382" lon="05.850477"><ele>20</ele><time>2012-03-31T12:43:56Z</time><cmt>7.6 kmh</cmt></trkpt>
<trkpt lat="58.873389" lon="05.850514"><ele>20</ele><time>2012-03-31T12:43:57Z</time><cmt>8.2 kmh</cmt></trkpt>
<trkpt lat="58.873395" lon="05.850548"><ele>20</ele><time>2012-03-31T12:43:58Z</time><cmt>7.7 kmh</cmt></trkpt>
<trkpt lat="58.873403" lon="05.850593"><ele>20</ele><time>2012-03-31T12:43:59Z</time><cmt>7.3 kmh</cmt></trkpt>
<trkpt lat="58.873406" lon="05.850623"><ele>20</ele><time>2012-03-31T12:44:00Z</time><cmt>7.4 kmh</cmt></trkpt>
<trkpt lat="58.873409" lon="05.850657"><ele>20</ele><time>2012-03-31T12:44:01Z</time><cmt>8.0 kmh</cmt></trkpt>
<trkpt lat="58.873411" lon="05.850694"><ele>20</ele><time>2012-03-31T12:44:02Z</time><cmt>8.0 kmh</cmt></trkpt>
<trkpt lat="58.873410" lon="05.850731"><ele>21</ele><time>2012-03-31T12:44:03Z</time><cmt>7.8 kmh</cmt></trkpt>
<trkpt lat="58.873409" lon="05.850804"><ele>21</ele><time>2012-03-31T12:44:05Z</time><cmt>8.4 kmh</cmt></trkpt>
<trkpt lat="58.873408" lon="05.850845"><ele>21</ele><time>2012-03-31T12:44:06Z</time><cmt>8.4 kmh</cmt></trkpt>
<trkpt lat="58.873406" lon="05.850886"><ele>21</ele><time>2012-03-31T12:44:07Z</time><cmt>8.4 kmh</cmt></trkpt>
<trkpt lat="58.873403" lon="05.850924"><ele>21</ele><time>2012-03-31T12:44:08Z</time><cmt>8.2 kmh</cmt></trkpt>
<trkpt lat="58.873400" lon="05.850963"><ele>21</ele><time>2012-03-31T12:44:09Z</time><cmt>8.2 kmh</cmt></trkpt>
<trkpt lat="58.873397" lon="05.851001"><ele>21</ele><time>2012-03-31T12:44:10Z</time><cmt>8.0 kmh</cmt></trkpt>
<trkpt lat="58.873393" lon="05.851040"><ele>21</ele><time>2012-03-31T12:44:11Z</time><cmt>8.2 kmh</cmt></trkpt>
<trkpt lat="58.873389" lon="05.851079"><ele>21</ele><time>2012-03-31T12:44:12Z</time><cmt>8.3 kmh</cmt></trkpt>
<trkpt lat="58.873384" lon="05.851118"><ele>21</ele><time>2012-03-31T12:44:13Z</time><cmt>8.3 kmh</cmt></trkpt>
<trkpt lat="58.873379" lon="05.851166"><ele>21</ele><time>2012-03-31T12:44:14Z</time><cmt>8.3 kmh</cmt></trkpt>
<trkpt lat="58.873374" lon="05.851200"><ele>21</ele><time>2012-03-31T12:44:15Z</time><cmt>8.3 kmh</cmt></trkpt>
<trkpt lat="58.873369" lon="05.851237"><ele>21</ele><time>2012-03-31T12:44:16Z</time><cmt>8.3 kmh</cmt></trkpt>
<trkpt lat="58.873363" lon="05.851275"><ele>21</ele><time>2012-03-31T12:44:17Z</time><cmt>8.5 kmh</cmt></trkpt>
<trkpt lat="58.873358" lon="05.851314"><ele>21</ele><time>2012-03-31T12:44:18Z</time><cmt>8.4 kmh</cmt></trkpt>
<trkpt lat="58.873352" lon="05.851352"><ele>21</ele><time>2012-03-31T12:44:19Z</time><cmt>8.3 kmh</cmt></trkpt>
<trkpt lat="58.873346" lon="05.851389"><ele>21</ele><time>2012-03-31T12:44:20Z</time><cmt>7.8 kmh</cmt></trkpt>
<trkpt lat="58.873340" lon="05.851425"><ele>21</ele><time>2012-03-31T12:44:21Z</time><cmt>7.3 kmh</cmt></trkpt>
<trkpt lat="58.873335" lon="05.851458"><ele>21</ele><time>2012-03-31T12:44:22Z</time><cmt>7.0 kmh</cmt></trkpt>
<trkpt lat="58.873330" lon="05.851490"><ele>21</ele><time>2012-03-31T12:44:23Z</time><cmt>6.6 kmh</cmt></trkpt>
<trkpt lat="58.873325" lon="05.851520"><ele>21</ele><time>2012-03-31T12:44:24Z</time><cmt>6.1 kmh</cmt></trkpt>
<trkpt lat="58.873321" lon="05.851549"><ele>21</ele><time>2012-03-31T12:44:25Z</time><cmt>6.3 kmh</cmt></trkpt>
<trkpt lat="58.873317" lon="05.851578"><ele>21</ele><time>2012-03-31T12:44:26Z</time><cmt>6.5 kmh</cmt></trkpt>
<trkpt lat="58.873312" lon="05.851609"><ele>21</ele><time>2012-03-31T12:44:27Z</time><cmt>7.0 kmh</cmt></trkpt>
<trkpt lat="58.873307" lon="05.851638"><ele>21</ele><time>2012-03-31T12:44:28Z</time><cmt>7.0 kmh</cmt></trkpt>
<trkpt lat="58.873300" lon="05.851671"><ele>22</ele><time>2012-03-31T12:44:29Z</time><cmt>7.1 kmh</cmt></trkpt>
<trkpt lat="58.873294" lon="05.851703"><ele>22</ele><time>2012-03-31T12:44:30Z</time><cmt>7.4 kmh</cmt></trkpt>
<trkpt lat="58.873287" lon="05.851737"><ele>22</ele><time>2012-03-31T12:44:31Z</time><cmt>7.6 kmh</cmt></trkpt>
<trkpt lat="58.873279" lon="05.851771"><ele>22</ele><time>2012-03-31T12:44:32Z</time><cmt>8.0 kmh</cmt></trkpt>
<trkpt lat="58.873271" lon="05.851806"><ele>22</ele><time>2012-03-31T12:44:33Z</time><cmt>8.1 kmh</cmt></trkpt>
<trkpt lat="58.873262" lon="05.851842"><ele>22</ele><time>2012-03-31T12:44:34Z</time><cmt>8.3 kmh</cmt></trkpt>
<trkpt lat="58.873254" lon="05.851878"><ele>22</ele><time>2012-03-31T12:44:35Z</time><cmt>8.3 kmh</cmt></trkpt>
<trkpt lat="58.873245" lon="05.851914"><ele>22</ele><time>2012-03-31T12:44:36Z</time><cmt>8.2 kmh</cmt></trkpt>
<trkpt lat="58.873236" lon="05.851951"><ele>22</ele><time>2012-03-31T12:44:37Z</time><cmt>8.4 kmh</cmt></trkpt>
<trkpt lat="58.873227" lon="05.851989"><ele>22</ele><time>2012-03-31T12:44:38Z</time><cmt>8.2 kmh</cmt></trkpt>
<trkpt lat="58.873217" lon="05.852025"><ele>22</ele><time>2012-03-31T12:44:39Z</time><cmt>8.2 kmh</cmt></trkpt>
<trkpt lat="58.873207" lon="05.852060"><ele>22</ele><time>2012-03-31T12:44:40Z</time><cmt>8.5 kmh</cmt></trkpt>
<trkpt lat="58.873197" lon="05.852097"><ele>22</ele><time>2012-03-31T12:44:41Z</time><cmt>8.5 kmh</cmt></trkpt>
<trkpt lat="58.873188" lon="05.852135"><ele>22</ele><time>2012-03-31T12:44:42Z</time><cmt>8.7 kmh</cmt></trkpt>
<trkpt lat="58.873179" lon="05.852173"><ele>22</ele><time>2012-03-31T12:44:43Z</time><cmt>8.6 kmh</cmt></trkpt>
<trkpt lat="58.873170" lon="05.852211"><ele>23</ele><time>2012-03-31T12:44:44Z</time><cmt>8.2 kmh</cmt></trkpt>
<trkpt lat="58.873162" lon="05.852247"><ele>23</ele><time>2012-03-31T12:44:45Z</time><cmt>8.3 kmh</cmt></trkpt>
<trkpt lat="58.873154" lon="05.852284"><ele>23</ele><time>2012-03-31T12:44:46Z</time><cmt>8.0 kmh</cmt></trkpt>
<trkpt lat="58.873145" lon="05.852319"><ele>23</ele><time>2012-03-31T12:44:47Z</time><cmt>7.8 kmh</cmt></trkpt>
<trkpt lat="58.873137" lon="05.852353"><ele>23</ele><time>2012-03-31T12:44:48Z</time><cmt>7.8 kmh</cmt></trkpt>
<trkpt lat="58.873129" lon="05.852387"><ele>23</ele><time>2012-03-31T12:44:49Z</time><cmt>7.7 kmh</cmt></trkpt>
<trkpt lat="58.873121" lon="05.852421"><ele>23</ele><time>2012-03-31T12:44:50Z</time><cmt>7.5 kmh</cmt></trkpt>
<trkpt lat="58.873114" lon="05.852454"><ele>23</ele><time>2012-03-31T12:44:51Z</time><cmt>7.5 kmh</cmt></trkpt>
<trkpt lat="58.873106" lon="05.852487"><ele>23</ele><time>2012-03-31T12:44:52Z</time><cmt>7.4 kmh</cmt></trkpt>
<trkpt lat="58.873099" lon="05.852519"><ele>23</ele><time>2012-03-31T12:44:53Z</time><cmt>7.0 kmh</cmt></trkpt>
<trkpt lat="58.873092" lon="05.852551"><ele>23</ele><time>2012-03-31T12:44:54Z</time><cmt>7.0 kmh</cmt></trkpt>
<trkpt lat="58.873085" lon="05.852581"><ele>23</ele><time>2012-03-31T12:44:55Z</time><cmt>6.9 kmh</cmt></trkpt>
<trkpt lat="58.873078" lon="05.852611"><ele>23</ele><time>2012-03-31T12:44:56Z</time><cmt>6.5 kmh</cmt></trkpt>
<trkpt lat="58.873072" lon="05.852639"><ele>23</ele><time>2012-03-31T12:44:57Z</time><cmt>6.3 kmh</cmt></trkpt>
<trkpt lat="58.873066" lon="05.852667"><ele>23</ele><time>2012-03-31T12:44:58Z</time><cmt>6.1 kmh</cmt></trkpt>
<trkpt lat="58.873059" lon="05.852695"><ele>23</ele><time>2012-03-31T12:44:59Z</time><cmt>6.8 kmh</cmt></trkpt>
<trkpt lat="58.873052" lon="05.852723"><ele>23</ele><time>2012-03-31T12:45:00Z</time><cmt>6.6 kmh</cmt></trkpt>
<trkpt lat="58.873045" lon="05.852752"><ele>23</ele><time>2012-03-31T12:45:01Z</time><cmt>6.6 kmh</cmt></trkpt>
<trkpt lat="58.873038" lon="05.852780"><ele>23</ele><time>2012-03-31T12:45:02Z</time><cmt>6.4 kmh</cmt></trkpt>
<trkpt lat="58.873031" lon="05.852808"><ele>24</ele><time>2012-03-31T12:45:03Z</time><cmt>6.3 kmh</cmt></trkpt>
<trkpt lat="58.873025" lon="05.852835"><ele>24</ele><time>2012-03-31T12:45:04Z</time><cmt>6.0 kmh</cmt></trkpt>
<trkpt lat="58.873020" lon="05.852862"><ele>24</ele><time>2012-03-31T12:45:05Z</time><cmt>5.8 kmh</cmt></trkpt>
<trkpt lat="58.873015" lon="05.852888"><ele>24</ele><time>2012-03-31T12:45:06Z</time><cmt>5.9 kmh</cmt></trkpt>
<trkpt lat="58.873010" lon="05.852915"><ele>24</ele><time>2012-03-31T12:45:07Z</time><cmt>5.9 kmh</cmt></trkpt>
<trkpt lat="58.873006" lon="05.852942"><ele>24</ele><time>2012-03-31T12:45:08Z</time><cmt>5.7 kmh</cmt></trkpt>
<trkpt lat="58.873002" lon="05.852968"><ele>24</ele><time>2012-03-31T12:45:09Z</time><cmt>5.7 kmh</cmt></trkpt>
<trkpt lat="58.872998" lon="05.852995"><ele>24</ele><time>2012-03-31T12:45:10Z</time><cmt>5.9 kmh</cmt></trkpt>
<trkpt lat="58.872995" lon="05.853022"><ele>24</ele><time>2012-03-31T12:45:11Z</time><cmt>6.0 kmh</cmt></trkpt>
<trkpt lat="58.872991" lon="05.853050"><ele>24</ele><time>2012-03-31T12:45:12Z</time><cmt>6.3 kmh</cmt></trkpt>
<trkpt lat="58.872988" lon="05.853079"><ele>24</ele><time>2012-03-31T12:45:13Z</time><cmt>6.0 kmh</cmt></trkpt>
<trkpt lat="58.872984" lon="05.853108"><ele>24</ele><time>2012-03-31T12:45:14Z</time><cmt>6.6 kmh</cmt></trkpt>
<trkpt lat="58.872981" lon="05.853138"><ele>24</ele><time>2012-03-31T12:45:15Z</time><cmt>6.7 kmh</cmt></trkpt>
<trkpt lat="58.872977" lon="05.853168"><ele>24</ele><time>2012-03-31T12:45:16Z</time><cmt>6.5 kmh</cmt></trkpt>
<trkpt lat="58.872972" lon="05.853198"><ele>24</ele><time>2012-03-31T12:45:17Z</time><cmt>6.3 kmh</cmt></trkpt>
<trkpt lat="58.872967" lon="05.853226"><ele>24</ele><time>2012-03-31T12:45:18Z</time><cmt>6.1 kmh</cmt></trkpt>
<trkpt lat="58.872963" lon="05.853254"><ele>24</ele><time>2012-03-31T12:45:19Z</time><cmt>6.0 kmh</cmt></trkpt>
<trkpt lat="58.872957" lon="05.853280"><ele>24</ele><time>2012-03-31T12:45:20Z</time><cmt>5.6 kmh</cmt></trkpt>
<trkpt lat="58.872952" lon="05.853304"><ele>24</ele><time>2012-03-31T12:45:21Z</time><cmt>5.2 kmh</cmt></trkpt>
<trkpt lat="58.872947" lon="05.853327"><ele>24</ele><time>2012-03-31T12:45:22Z</time><cmt>5.0 kmh</cmt></trkpt>
<trkpt lat="58.872942" lon="05.853349"><ele>24</ele><time>2012-03-31T12:45:23Z</time><cmt>5.0 kmh</cmt></trkpt>
<trkpt lat="58.872936" lon="05.853369"><ele>25</ele><time>2012-03-31T12:45:24Z</time><cmt>4.2 kmh</cmt></trkpt>
<trkpt lat="58.872930" lon="05.853388"><ele>25</ele><time>2012-03-31T12:45:25Z</time><cmt>4.0 kmh</cmt></trkpt>
<trkpt lat="58.872924" lon="05.853405"><ele>25</ele><time>2012-03-31T12:45:26Z</time><cmt>4.7 kmh</cmt></trkpt>
<trkpt lat="58.872919" lon="05.853422"><ele>25</ele><time>2012-03-31T12:45:27Z</time><cmt>4.5 kmh</cmt></trkpt>
<trkpt lat="58.872913" lon="05.853437"><ele>25</ele><time>2012-03-31T12:45:28Z</time><cmt>4.4 kmh</cmt></trkpt>
<trkpt lat="58.872907" lon="05.853452"><ele>25</ele><time>2012-03-31T12:45:29Z</time><cmt>4.2 kmh</cmt></trkpt>
<trkpt lat="58.872901" lon="05.853465"><ele>25</ele><time>2012-03-31T12:45:30Z</time><cmt>3.2 kmh</cmt></trkpt>
<trkpt lat="58.872895" lon="05.853478"><ele>25</ele><time>2012-03-31T12:45:31Z</time><cmt>3.1 kmh</cmt></trkpt>
<trkpt lat="58.872890" lon="05.853490"><ele>25</ele><time>2012-03-31T12:45:32Z</time><cmt>3.6 kmh</cmt></trkpt>
<trkpt lat="58.872886" lon="05.853501"><ele>25</ele><time>2012-03-31T12:45:33Z</time><cmt>3.3 kmh</cmt></trkpt>
<trkpt lat="58.872882" lon="05.853512"><ele>25</ele><time>2012-03-31T12:45:34Z</time><cmt>3.1 kmh</cmt></trkpt>
<trkpt lat="58.872878" lon="05.853522"><ele>25</ele><time>2012-03-31T12:45:35Z</time><cmt>2.8 kmh</cmt></trkpt>
<trkpt lat="58.872877" lon="05.853531"><ele>25</ele><time>2012-03-31T12:45:36Z</time><cmt>1.9 kmh</cmt></trkpt>
<trkpt lat="58.872876" lon="05.853538"><ele>25</ele><time>2012-03-31T12:45:37Z</time><cmt>1.5 kmh</cmt></trkpt>
<trkpt lat="58.872875" lon="05.853544"><ele>25</ele><time>2012-03-31T12:45:38Z</time><cmt>1.4 kmh</cmt></trkpt>
<trkpt lat="58.872874" lon="05.853549"><ele>25</ele><time>2012-03-31T12:45:39Z</time><cmt>1.3 kmh</cmt></trkpt>
<trkpt lat="58.872873" lon="05.853555"><ele>25</ele><time>2012-03-31T12:45:40Z</time><cmt>1.3 kmh</cmt></trkpt>
<trkpt lat="58.872872" lon="05.853560"><ele>25</ele><time>2012-03-31T12:45:41Z</time><cmt>1.3 kmh</cmt></trkpt>
<trkpt lat="58.872871" lon="05.853565"><ele>25</ele><time>2012-03-31T12:45:42Z</time><cmt>1.0 kmh</cmt></trkpt>
<trkpt lat="58.872869" lon="05.853571"><ele>25</ele><time>2012-03-31T12:45:43Z</time><cmt>1.1 kmh</cmt></trkpt>
<trkpt lat="58.872867" lon="05.853579"><ele>25</ele><time>2012-03-31T12:45:44Z</time><cmt>1.6 kmh</cmt></trkpt>
<trkpt lat="58.872866" lon="05.853588"><ele>25</ele><time>2012-03-31T12:45:45Z</time><cmt>2.0 kmh</cmt></trkpt>
<trkpt lat="58.872865" lon="05.853599"><ele>25</ele><time>2012-03-31T12:45:46Z</time><cmt>2.4 kmh</cmt></trkpt>
<trkpt lat="58.872863" lon="05.853612"><ele>25</ele><time>2012-03-31T12:45:47Z</time><cmt>2.7 kmh</cmt></trkpt>
<trkpt lat="58.872862" lon="05.853627"><ele>25</ele><time>2012-03-31T12:45:48Z</time><cmt>3.1 kmh</cmt></trkpt>
<trkpt lat="58.872862" lon="05.853644"><ele>25</ele><time>2012-03-31T12:45:49Z</time><cmt>2.9 kmh</cmt></trkpt>
<trkpt lat="58.872861" lon="05.853662"><ele>25</ele><time>2012-03-31T12:45:50Z</time><cmt>3.2 kmh</cmt></trkpt>
<trkpt lat="58.872862" lon="05.853683"><ele>25</ele><time>2012-03-31T12:45:51Z</time><cmt>4.4 kmh</cmt></trkpt>
<trkpt lat="58.872863" lon="05.853705"><ele>25</ele><time>2012-03-31T12:45:52Z</time><cmt>4.8 kmh</cmt></trkpt>
<trkpt lat="58.872865" lon="05.853727"><ele>25</ele><time>2012-03-31T12:45:53Z</time><cmt>5.0 kmh</cmt></trkpt>
<trkpt lat="58.872868" lon="05.853749"><ele>25</ele><time>2012-03-31T12:45:54Z</time><cmt>5.0 kmh</cmt></trkpt>
<trkpt lat="58.872871" lon="05.853772"><ele>25</ele><time>2012-03-31T12:45:55Z</time><cmt>5.2 kmh</cmt></trkpt>
<trkpt lat="58.872876" lon="05.853794"><ele>25</ele><time>2012-03-31T12:45:56Z</time><cmt>5.1 kmh</cmt></trkpt>
<trkpt lat="58.872882" lon="05.853816"><ele>25</ele><time>2012-03-31T12:45:57Z</time><cmt>5.3 kmh</cmt></trkpt>
<trkpt lat="58.872889" lon="05.853838"><ele>26</ele><time>2012-03-31T12:45:58Z</time><cmt>5.4 kmh</cmt></trkpt>
<trkpt lat="58.872895" lon="05.853860"><ele>26</ele><time>2012-03-31T12:45:59Z</time><cmt>5.4 kmh</cmt></trkpt>
<trkpt lat="58.872902" lon="05.853882"><ele>26</ele><time>2012-03-31T12:46:00Z</time><cmt>5.6 kmh</cmt></trkpt>
<trkpt lat="58.872910" lon="05.853905"><ele>26</ele><time>2012-03-31T12:46:01Z</time><cmt>5.6 kmh</cmt></trkpt>
<trkpt lat="58.872918" lon="05.853926"><ele>26</ele><time>2012-03-31T12:46:02Z</time><cmt>5.5 kmh</cmt></trkpt>
<trkpt lat="58.872927" lon="05.853946"><ele>26</ele><time>2012-03-31T12:46:03Z</time><cmt>5.2 kmh</cmt></trkpt>
<trkpt lat="58.872937" lon="05.853963"><ele>26</ele><time>2012-03-31T12:46:04Z</time><cmt>5.3 kmh</cmt></trkpt>
<trkpt lat="58.872948" lon="05.853978"><ele>26</ele><time>2012-03-31T12:46:05Z</time><cmt>5.3 kmh</cmt></trkpt>
<trkpt lat="58.872958" lon="05.853991"><ele>26</ele><time>2012-03-31T12:46:06Z</time><cmt>5.0 kmh</cmt></trkpt>
<trkpt lat="58.872968" lon="05.854003"><ele>26</ele><time>2012-03-31T12:46:07Z</time><cmt>4.2 kmh</cmt></trkpt>
<trkpt lat="58.872977" lon="05.854013"><ele>26</ele><time>2012-03-31T12:46:08Z</time><cmt>3.8 kmh</cmt></trkpt>
<trkpt lat="58.872986" lon="05.854022"><ele>26</ele><time>2012-03-31T12:46:09Z</time><cmt>4.3 kmh</cmt></trkpt>
<trkpt lat="58.872992" lon="05.854030"><ele>26</ele><time>2012-03-31T12:46:10Z</time><cmt>3.7 kmh</cmt></trkpt>
<trkpt lat="58.872996" lon="05.854038"><ele>26</ele><time>2012-03-31T12:46:11Z</time><cmt>2.9 kmh</cmt></trkpt>
<trkpt lat="58.872997" lon="05.854044"><ele>26</ele><time>2012-03-31T12:46:12Z</time><cmt>2.0 kmh</cmt></trkpt>
<trkpt lat="58.872998" lon="05.854048"><ele>26</ele><time>2012-03-31T12:46:13Z</time><cmt>1.0 kmh</cmt></trkpt>
<trkpt lat="58.872997" lon="05.854051"><ele>26</ele><time>2012-03-31T12:46:14Z</time><cmt>0.6 kmh</cmt></trkpt>
<trkpt lat="58.872996" lon="05.854050"><ele>26</ele><time>2012-03-31T12:46:15Z</time><cmt>0.5 kmh</cmt></trkpt>
<trkpt lat="58.872994" lon="05.854049"><ele>26</ele><time>2012-03-31T12:46:16Z</time><cmt>0.6 kmh</cmt></trkpt>
<trkpt lat="58.872993" lon="05.854049"><ele>26</ele><time>2012-03-31T12:46:17Z</time><cmt>0.6 kmh</cmt></trkpt>
<trkpt lat="58.872993" lon="05.854051"><ele>26</ele><time>2012-03-31T12:46:18Z</time><cmt>0.5 kmh</cmt></trkpt>
<trkpt lat="58.872991" lon="05.854054"><ele>26</ele><time>2012-03-31T12:46:19Z</time><cmt>0.7 kmh</cmt></trkpt>
<trkpt lat="58.872989" lon="05.854059"><ele>26</ele><time>2012-03-31T12:46:20Z</time><cmt>1.0 kmh</cmt></trkpt>
<trkpt lat="58.872987" lon="05.854068"><ele>26</ele><time>2012-03-31T12:46:21Z</time><cmt>1.4 kmh</cmt></trkpt>
<trkpt lat="58.872984" lon="05.854079"><ele>26</ele><time>2012-03-31T12:46:22Z</time><cmt>2.5 kmh</cmt></trkpt>
<trkpt lat="58.872979" lon="05.854092"><ele>26</ele><time>2012-03-31T12:46:23Z</time><cmt>3.2 kmh</cmt></trkpt>
<trkpt lat="58.872974" lon="05.854107"><ele>26</ele><time>2012-03-31T12:46:24Z</time><cmt>3.9 kmh</cmt></trkpt>
<trkpt lat="58.872967" lon="05.854123"><ele>26</ele><time>2012-03-31T12:46:25Z</time><cmt>4.4 kmh</cmt></trkpt>
<trkpt lat="58.872958" lon="05.854139"><ele>26</ele><time>2012-03-31T12:46:26Z</time><cmt>5.1 kmh</cmt></trkpt>
<trkpt lat="58.872948" lon="05.854156"><ele>26</ele><time>2012-03-31T12:46:27Z</time><cmt>5.5 kmh</cmt></trkpt>
<trkpt lat="58.872936" lon="05.854171"><ele>26</ele><time>2012-03-31T12:46:28Z</time><cmt>6.0 kmh</cmt></trkpt>
<trkpt lat="58.872924" lon="05.854186"><ele>26</ele><time>2012-03-31T12:46:29Z</time><cmt>6.1 kmh</cmt></trkpt>
<trkpt lat="58.872911" lon="05.854201"><ele>26</ele><time>2012-03-31T12:46:30Z</time><cmt>6.7 kmh</cmt></trkpt>
<trkpt lat="58.872897" lon="05.854217"><ele>25</ele><time>2012-03-31T12:46:31Z</time><cmt>6.9 kmh</cmt></trkpt>
<trkpt lat="58.872882" lon="05.854232"><ele>25</ele><time>2012-03-31T12:46:32Z</time><cmt>7.0 kmh</cmt></trkpt>
<trkpt lat="58.872867" lon="05.854246"><ele>25</ele><time>2012-03-31T12:46:33Z</time><cmt>6.8 kmh</cmt></trkpt>
<trkpt lat="58.872852" lon="05.854261"><ele>25</ele><time>2012-03-31T12:46:34Z</time><cmt>7.0 kmh</cmt></trkpt>
<trkpt lat="58.872836" lon="05.854276"><ele>25</ele><time>2012-03-31T12:46:35Z</time><cmt>7.3 kmh</cmt></trkpt>
<trkpt lat="58.872819" lon="05.854291"><ele>25</ele><time>2012-03-31T12:46:36Z</time><cmt>7.0 kmh</cmt></trkpt>
<trkpt lat="58.872803" lon="05.854305"><ele>25</ele><time>2012-03-31T12:46:37Z</time><cmt>7.3 kmh</cmt></trkpt>
<trkpt lat="58.872787" lon="05.854319"><ele>25</ele><time>2012-03-31T12:46:38Z</time><cmt>7.1 kmh</cmt></trkpt>
<trkpt lat="58.872770" lon="05.854331"><ele>25</ele><time>2012-03-31T12:46:39Z</time><cmt>7.2 kmh</cmt></trkpt>
<trkpt lat="58.872754" lon="05.854346"><ele>25</ele><time>2012-03-31T12:46:40Z</time><cmt>7.4 kmh</cmt></trkpt>
<trkpt lat="58.872737" lon="05.854363"><ele>25</ele><time>2012-03-31T12:46:41Z</time><cmt>7.3 kmh</cmt></trkpt>
<trkpt lat="58.872720" lon="05.854379"><ele>25</ele><time>2012-03-31T12:46:42Z</time><cmt>7.2 kmh</cmt></trkpt>
<trkpt lat="58.872704" lon="05.854396"><ele>25</ele><time>2012-03-31T12:46:43Z</time><cmt>7.4 kmh</cmt></trkpt>
<trkpt lat="58.872687" lon="05.854413"><ele>25</ele><time>2012-03-31T12:46:44Z</time><cmt>7.4 kmh</cmt></trkpt>
<trkpt lat="58.872671" lon="05.854431"><ele>25</ele><time>2012-03-31T12:46:45Z</time><cmt>7.3 kmh</cmt></trkpt>
<trkpt lat="58.872655" lon="05.854449"><ele>25</ele><time>2012-03-31T12:46:46Z</time><cmt>7.2 kmh</cmt></trkpt>
<trkpt lat="58.872640" lon="05.854466"><ele>25</ele><time>2012-03-31T12:46:47Z</time><cmt>6.9 kmh</cmt></trkpt>
<trkpt lat="58.872626" lon="05.854481"><ele>25</ele><time>2012-03-31T12:46:48Z</time><cmt>6.9 kmh</cmt></trkpt>
<trkpt lat="58.872611" lon="05.854498"><ele>25</ele><time>2012-03-31T12:46:49Z</time><cmt>7.1 kmh</cmt></trkpt>
<trkpt lat="58.872598" lon="05.854514"><ele>25</ele><time>2012-03-31T12:46:50Z</time><cmt>6.9 kmh</cmt></trkpt>
<trkpt lat="58.872584" lon="05.854531"><ele>25</ele><time>2012-03-31T12:46:51Z</time><cmt>7.1 kmh</cmt></trkpt>
<trkpt lat="58.872570" lon="05.854549"><ele>25</ele><time>2012-03-31T12:46:52Z</time><cmt>7.4 kmh</cmt></trkpt>
<trkpt lat="58.872556" lon="05.854568"><ele>25</ele><time>2012-03-31T12:46:53Z</time><cmt>7.5 kmh</cmt></trkpt>
<trkpt lat="58.872542" lon="05.854589"><ele>25</ele><time>2012-03-31T12:46:54Z</time><cmt>7.2 kmh</cmt></trkpt>
<trkpt lat="58.872527" lon="05.854610"><ele>25</ele><time>2012-03-31T12:46:55Z</time><cmt>7.6 kmh</cmt></trkpt>
<trkpt lat="58.872512" lon="05.854633"><ele>25</ele><time>2012-03-31T12:46:56Z</time><cmt>7.3 kmh</cmt></trkpt>
<trkpt lat="58.872498" lon="05.854656"><ele>25</ele><time>2012-03-31T12:46:57Z</time><cmt>7.0 kmh</cmt></trkpt>
<trkpt lat="58.872485" lon="05.854680"><ele>25</ele><time>2012-03-31T12:46:58Z</time><cmt>6.7 kmh</cmt></trkpt>
<trkpt lat="58.872472" lon="05.854704"><ele>25</ele><time>2012-03-31T12:46:59Z</time><cmt>7.2 kmh</cmt></trkpt>
<trkpt lat="58.872459" lon="05.854729"><ele>25</ele><time>2012-03-31T12:47:00Z</time><cmt>7.3 kmh</cmt></trkpt>
<trkpt lat="58.872445" lon="05.854754"><ele>25</ele><time>2012-03-31T12:47:01Z</time><cmt>7.6 kmh</cmt></trkpt>
<trkpt lat="58.872431" lon="05.854781"><ele>25</ele><time>2012-03-31T12:47:02Z</time><cmt>7.7 kmh</cmt></trkpt>
<trkpt lat="58.872417" lon="05.854808"><ele>25</ele><time>2012-03-31T12:47:03Z</time><cmt>7.9 kmh</cmt></trkpt>
<trkpt lat="58.872402" lon="05.854835"><ele>25</ele><time>2012-03-31T12:47:04Z</time><cmt>8.0 kmh</cmt></trkpt>
<trkpt lat="58.872387" lon="05.854863"><ele>25</ele><time>2012-03-31T12:47:05Z</time><cmt>7.9 kmh</cmt></trkpt>
<trkpt lat="58.872372" lon="05.854891"><ele>25</ele><time>2012-03-31T12:47:06Z</time><cmt>8.1 kmh</cmt></trkpt>
<trkpt lat="58.872358" lon="05.854919"><ele>25</ele><time>2012-03-31T12:47:07Z</time><cmt>8.0 kmh</cmt></trkpt>
<trkpt lat="58.872343" lon="05.854948"><ele>25</ele><time>2012-03-31T12:47:08Z</time><cmt>8.0 kmh</cmt></trkpt>
<trkpt lat="58.872330" lon="05.854976"><ele>25</ele><time>2012-03-31T12:47:09Z</time><cmt>7.9 kmh</cmt></trkpt>
<trkpt lat="58.872317" lon="05.855005"><ele>25</ele><time>2012-03-31T12:47:10Z</time><cmt>8.0 kmh</cmt></trkpt>
<trkpt lat="58.872303" lon="05.855034"><ele>25</ele><time>2012-03-31T12:47:11Z</time><cmt>7.8 kmh</cmt></trkpt>
<trkpt lat="58.872289" lon="05.855063"><ele>25</ele><time>2012-03-31T12:47:12Z</time><cmt>8.1 kmh</cmt></trkpt>
<trkpt lat="58.872276" lon="05.855093"><ele>25</ele><time>2012-03-31T12:47:13Z</time><cmt>8.0 kmh</cmt></trkpt>
<trkpt lat="58.872262" lon="05.855124"><ele>25</ele><time>2012-03-31T12:47:14Z</time><cmt>8.0 kmh</cmt></trkpt>
<trkpt lat="58.872248" lon="05.855154"><ele>25</ele><time>2012-03-31T12:47:15Z</time><cmt>8.1 kmh</cmt></trkpt>
<trkpt lat="58.872235" lon="05.855184"><ele>25</ele><time>2012-03-31T12:47:16Z</time><cmt>8.0 kmh</cmt></trkpt>
<trkpt lat="58.872221" lon="05.855213"><ele>25</ele><time>2012-03-31T12:47:17Z</time><cmt>8.0 kmh</cmt></trkpt>
<trkpt lat="58.872208" lon="05.855243"><ele>25</ele><time>2012-03-31T12:47:18Z</time><cmt>7.9 kmh</cmt></trkpt>
<trkpt lat="58.872194" lon="05.855272"><ele>25</ele><time>2012-03-31T12:47:19Z</time><cmt>8.0 kmh</cmt></trkpt>
<trkpt lat="58.872181" lon="05.855301"><ele>25</ele><time>2012-03-31T12:47:20Z</time><cmt>7.9 kmh</cmt></trkpt>
<trkpt lat="58.872168" lon="05.855330"><ele>25</ele><time>2012-03-31T12:47:21Z</time><cmt>7.8 kmh</cmt></trkpt>
<trkpt lat="58.872155" lon="05.855359"><ele>25</ele><time>2012-03-31T12:47:22Z</time><cmt>7.7 kmh</cmt></trkpt>
<trkpt lat="58.872142" lon="05.855387"><ele>25</ele><time>2012-03-31T12:47:23Z</time><cmt>7.8 kmh</cmt></trkpt>
<trkpt lat="58.872129" lon="05.855415"><ele>25</ele><time>2012-03-31T12:47:24Z</time><cmt>7.6 kmh</cmt></trkpt>
<trkpt lat="58.872117" lon="05.855443"><ele>25</ele><time>2012-03-31T12:47:25Z</time><cmt>7.6 kmh</cmt></trkpt>
<trkpt lat="58.872104" lon="05.855471"><ele>25</ele><time>2012-03-31T12:47:26Z</time><cmt>7.6 kmh</cmt></trkpt>
<trkpt lat="58.872091" lon="05.855499"><ele>25</ele><time>2012-03-31T12:47:27Z</time><cmt>7.9 kmh</cmt></trkpt>
<trkpt lat="58.872078" lon="05.855529"><ele>25</ele><time>2012-03-31T12:47:28Z</time><cmt>7.8 kmh</cmt></trkpt>
<trkpt lat="58.872066" lon="05.855558"><ele>25</ele><time>2012-03-31T12:47:29Z</time><cmt>8.0 kmh</cmt></trkpt>
<trkpt lat="58.872053" lon="05.855588"><ele>25</ele><time>2012-03-31T12:47:30Z</time><cmt>7.9 kmh</cmt></trkpt>
<trkpt lat="58.872040" lon="05.855618"><ele>24</ele><time>2012-03-31T12:47:31Z</time><cmt>8.1 kmh</cmt></trkpt>
<trkpt lat="58.872027" lon="05.855648"><ele>24</ele><time>2012-03-31T12:47:32Z</time><cmt>7.9 kmh</cmt></trkpt>
<trkpt lat="58.872015" lon="05.855677"><ele>24</ele><time>2012-03-31T12:47:33Z</time><cmt>7.9 kmh</cmt></trkpt>
<trkpt lat="58.872003" lon="05.855707"><ele>24</ele><time>2012-03-31T12:47:34Z</time><cmt>7.6 kmh</cmt></trkpt>
<trkpt lat="58.871991" lon="05.855737"><ele>24</ele><time>2012-03-31T12:47:35Z</time><cmt>7.9 kmh</cmt></trkpt>
<trkpt lat="58.871980" lon="05.855767"><ele>24</ele><time>2012-03-31T12:47:36Z</time><cmt>7.6 kmh</cmt></trkpt>
<trkpt lat="58.871968" lon="05.855796"><ele>24</ele><time>2012-03-31T12:47:37Z</time><cmt>7.6 kmh</cmt></trkpt>
<trkpt lat="58.871957" lon="05.855825"><ele>24</ele><time>2012-03-31T12:47:38Z</time><cmt>7.4 kmh</cmt></trkpt>
<trkpt lat="58.871946" lon="05.855853"><ele>24</ele><time>2012-03-31T12:47:39Z</time><cmt>7.6 kmh</cmt></trkpt>
<trkpt lat="58.871935" lon="05.855882"><ele>24</ele><time>2012-03-31T12:47:40Z</time><cmt>7.3 kmh</cmt></trkpt>
<trkpt lat="58.871925" lon="05.855911"><ele>24</ele><time>2012-03-31T12:47:41Z</time><cmt>7.4 kmh</cmt></trkpt>
<trkpt lat="58.871915" lon="05.855939"><ele>24</ele><time>2012-03-31T12:47:42Z</time><cmt>7.2 kmh</cmt></trkpt>
<trkpt lat="58.871904" lon="05.855967"><ele>24</ele><time>2012-03-31T12:47:43Z</time><cmt>7.4 kmh</cmt></trkpt>
<trkpt lat="58.871894" lon="05.855995"><ele>24</ele><time>2012-03-31T12:47:44Z</time><cmt>7.2 kmh</cmt></trkpt>
<trkpt lat="58.871883" lon="05.856023"><ele>24</ele><time>2012-03-31T12:47:45Z</time><cmt>7.6 kmh</cmt></trkpt>
<trkpt lat="58.871872" lon="05.856051"><ele>24</ele><time>2012-03-31T12:47:46Z</time><cmt>7.2 kmh</cmt></trkpt>
<trkpt lat="58.871862" lon="05.856079"><ele>24</ele><time>2012-03-31T12:47:47Z</time><cmt>7.5 kmh</cmt></trkpt>
<trkpt lat="58.871851" lon="05.856108"><ele>24</ele><time>2012-03-31T12:47:48Z</time><cmt>7.1 kmh</cmt></trkpt>
<trkpt lat="58.871840" lon="05.856136"><ele>24</ele><time>2012-03-31T12:47:49Z</time><cmt>7.6 kmh</cmt></trkpt>
<trkpt lat="58.871830" lon="05.856165"><ele>24</ele><time>2012-03-31T12:47:50Z</time><cmt>7.2 kmh</cmt></trkpt>
<trkpt lat="58.871820" lon="05.856193"><ele>24</ele><time>2012-03-31T12:47:51Z</time><cmt>7.7 kmh</cmt></trkpt>
<trkpt lat="58.871809" lon="05.856223"><ele>24</ele><time>2012-03-31T12:47:53Z</time><cmt>7.5 kmh</cmt></trkpt>
<trkpt lat="58.871798" lon="05.856253"><ele>24</ele><time>2012-03-31T12:47:53Z</time><cmt>8.0 kmh</cmt></trkpt>
<trkpt lat="58.871787" lon="05.856283"><ele>24</ele><time>2012-03-31T12:47:54Z</time><cmt>7.6 kmh</cmt></trkpt>
<trkpt lat="58.871775" lon="05.856312"><ele>24</ele><time>2012-03-31T12:47:55Z</time><cmt>7.6 kmh</cmt></trkpt>
<trkpt lat="58.871764" lon="05.856341"><ele>24</ele><time>2012-03-31T12:47:56Z</time><cmt>7.6 kmh</cmt></trkpt>
<trkpt lat="58.871753" lon="05.856370"><ele>24</ele><time>2012-03-31T12:47:57Z</time><cmt>7.4 kmh</cmt></trkpt>
<trkpt lat="58.871742" lon="05.856398"><ele>24</ele><time>2012-03-31T12:47:58Z</time><cmt>7.5 kmh</cmt></trkpt>
<trkpt lat="58.871730" lon="05.856425"><ele>24</ele><time>2012-03-31T12:47:59Z</time><cmt>7.4 kmh</cmt></trkpt>
<trkpt lat="58.871718" lon="05.856451"><ele>24</ele><time>2012-03-31T12:48:00Z</time><cmt>7.2 kmh</cmt></trkpt>
<trkpt lat="58.871706" lon="05.856477"><ele>24</ele><time>2012-03-31T12:48:01Z</time><cmt>7.4 kmh</cmt></trkpt>
<trkpt lat="58.871693" lon="05.856502"><ele>24</ele><time>2012-03-31T12:48:02Z</time><cmt>7.4 kmh</cmt></trkpt>
<trkpt lat="58.871680" lon="05.856527"><ele>24</ele><time>2012-03-31T12:48:03Z</time><cmt>7.4 kmh</cmt></trkpt>
<trkpt lat="58.871666" lon="05.856553"><ele>24</ele><time>2012-03-31T12:48:04Z</time><cmt>7.5 kmh</cmt></trkpt>
<trkpt lat="58.871653" lon="05.856578"><ele>24</ele><time>2012-03-31T12:48:05Z</time><cmt>7.5 kmh</cmt></trkpt>
<trkpt lat="58.871640" lon="05.856603"><ele>24</ele><time>2012-03-31T12:48:06Z</time><cmt>7.6 kmh</cmt></trkpt>
<trkpt lat="58.871626" lon="05.856628"><ele>24</ele><time>2012-03-31T12:48:07Z</time><cmt>7.6 kmh</cmt></trkpt>
<trkpt lat="58.871612" lon="05.856653"><ele>24</ele><time>2012-03-31T12:48:08Z</time><cmt>7.6 kmh</cmt></trkpt>
<trkpt lat="58.871597" lon="05.856678"><ele>24</ele><time>2012-03-31T12:48:09Z</time><cmt>7.8 kmh</cmt></trkpt>
<trkpt lat="58.871582" lon="05.856705"><ele>24</ele><time>2012-03-31T12:48:10Z</time><cmt>8.0 kmh</cmt></trkpt>
<trkpt lat="58.871567" lon="05.856732"><ele>24</ele><time>2012-03-31T12:48:11Z</time><cmt>8.0 kmh</cmt></trkpt>
<trkpt lat="58.871553" lon="05.856759"><ele>24</ele><time>2012-03-31T12:48:12Z</time><cmt>8.0 kmh</cmt></trkpt>
<trkpt lat="58.871538" lon="05.856786"><ele>24</ele><time>2012-03-31T12:48:13Z</time><cmt>7.7 kmh</cmt></trkpt>
<trkpt lat="58.871524" lon="05.856813"><ele>24</ele><time>2012-03-31T12:48:14Z</time><cmt>7.8 kmh</cmt></trkpt>
<trkpt lat="58.871510" lon="05.856840"><ele>24</ele><time>2012-03-31T12:48:15Z</time><cmt>8.0 kmh</cmt></trkpt>
<trkpt lat="58.871496" lon="05.856869"><ele>24</ele><time>2012-03-31T12:48:16Z</time><cmt>8.2 kmh</cmt></trkpt>
<trkpt lat="58.871482" lon="05.856897"><ele>24</ele><time>2012-03-31T12:48:17Z</time><cmt>7.8 kmh</cmt></trkpt>
<trkpt lat="58.871467" lon="05.856925"><ele>24</ele><time>2012-03-31T12:48:18Z</time><cmt>8.0 kmh</cmt></trkpt>
<trkpt lat="58.871453" lon="05.856954"><ele>24</ele><time>2012-03-31T12:48:19Z</time><cmt>8.1 kmh</cmt></trkpt>
<trkpt lat="58.871439" lon="05.856983"><ele>24</ele><time>2012-03-31T12:48:20Z</time><cmt>8.2 kmh</cmt></trkpt>
<trkpt lat="58.871425" lon="05.857013"><ele>24</ele><time>2012-03-31T12:48:21Z</time><cmt>8.1 kmh</cmt></trkpt>
<trkpt lat="58.871412" lon="05.857043"><ele>24</ele><time>2012-03-31T12:48:22Z</time><cmt>8.4 kmh</cmt></trkpt>
<trkpt lat="58.871398" lon="05.857072"><ele>24</ele><time>2012-03-31T12:48:23Z</time><cmt>8.0 kmh</cmt></trkpt>
<trkpt lat="58.871384" lon="05.857102"><ele>24</ele><time>2012-03-31T12:48:24Z</time><cmt>8.2 kmh</cmt></trkpt>
<trkpt lat="58.871371" lon="05.857130"><ele>24</ele><time>2012-03-31T12:48:25Z</time><cmt>7.9 kmh</cmt></trkpt>
<trkpt lat="58.871357" lon="05.857159"><ele>24</ele><time>2012-03-31T12:48:26Z</time><cmt>8.1 kmh</cmt></trkpt>
<trkpt lat="58.871343" lon="05.857187"><ele>24</ele><time>2012-03-31T12:48:27Z</time><cmt>8.0 kmh</cmt></trkpt>
<trkpt lat="58.871330" lon="05.857215"><ele>24</ele><time>2012-03-31T12:48:28Z</time><cmt>7.7 kmh</cmt></trkpt>
<trkpt lat="58.871317" lon="05.857242"><ele>24</ele><time>2012-03-31T12:48:29Z</time><cmt>7.6 kmh</cmt></trkpt>
<trkpt lat="58.871304" lon="05.857270"><ele>24</ele><time>2012-03-31T12:48:30Z</time><cmt>7.8 kmh</cmt></trkpt>
<trkpt lat="58.871291" lon="05.857298"><ele>24</ele><time>2012-03-31T12:48:31Z</time><cmt>7.5 kmh</cmt></trkpt>
<trkpt lat="58.871279" lon="05.857326"><ele>24</ele><time>2012-03-31T12:48:32Z</time><cmt>7.8 kmh</cmt></trkpt>
<trkpt lat="58.871266" lon="05.857353"><ele>24</ele><time>2012-03-31T12:48:33Z</time><cmt>7.5 kmh</cmt></trkpt>
<trkpt lat="58.871254" lon="05.857380"><ele>24</ele><time>2012-03-31T12:48:34Z</time><cmt>7.6 kmh</cmt></trkpt>
<trkpt lat="58.871241" lon="05.857407"><ele>24</ele><time>2012-03-31T12:48:35Z</time><cmt>7.3 kmh</cmt></trkpt>
<trkpt lat="58.871229" lon="05.857433"><ele>24</ele><time>2012-03-31T12:48:36Z</time><cmt>7.7 kmh</cmt></trkpt>
<trkpt lat="58.871217" lon="05.857460"><ele>24</ele><time>2012-03-31T12:48:37Z</time><cmt>7.4 kmh</cmt></trkpt>
<trkpt lat="58.871204" lon="05.857487"><ele>24</ele><time>2012-03-31T12:48:38Z</time><cmt>7.8 kmh</cmt></trkpt>
<trkpt lat="58.871191" lon="05.857514"><ele>24</ele><time>2012-03-31T12:48:39Z</time><cmt>7.6 kmh</cmt></trkpt>
<trkpt lat="58.871178" lon="05.857541"><ele>24</ele><time>2012-03-31T12:48:40Z</time><cmt>8.1 kmh</cmt></trkpt>
<trkpt lat="58.871165" lon="05.857569"><ele>24</ele><time>2012-03-31T12:48:41Z</time><cmt>7.7 kmh</cmt></trkpt>
<trkpt lat="58.871152" lon="05.857596"><ele>24</ele><time>2012-03-31T12:48:42Z</time><cmt>8.0 kmh</cmt></trkpt>
<trkpt lat="58.871139" lon="05.857624"><ele>24</ele><time>2012-03-31T12:48:43Z</time><cmt>7.7 kmh</cmt></trkpt>
<trkpt lat="58.871126" lon="05.857652"><ele>24</ele><time>2012-03-31T12:48:44Z</time><cmt>7.7 kmh</cmt></trkpt>
<trkpt lat="58.871114" lon="05.857680"><ele>24</ele><time>2012-03-31T12:48:45Z</time><cmt>7.5 kmh</cmt></trkpt>
<trkpt lat="58.871102" lon="05.857708"><ele>24</ele><time>2012-03-31T12:48:46Z</time><cmt>7.6 kmh</cmt></trkpt>
<trkpt lat="58.871090" lon="05.857736"><ele>24</ele><time>2012-03-31T12:48:47Z</time><cmt>7.5 kmh</cmt></trkpt>
<trkpt lat="58.871078" lon="05.857763"><ele>24</ele><time>2012-03-31T12:48:48Z</time><cmt>7.6 kmh</cmt></trkpt>
<trkpt lat="58.871066" lon="05.857790"><ele>24</ele><time>2012-03-31T12:48:49Z</time><cmt>7.5 kmh</cmt></trkpt>
<trkpt lat="58.871053" lon="05.857816"><ele>24</ele><time>2012-03-31T12:48:50Z</time><cmt>7.3 kmh</cmt></trkpt>
<trkpt lat="58.871041" lon="05.857841"><ele>24</ele><time>2012-03-31T12:48:51Z</time><cmt>7.4 kmh</cmt></trkpt>
<trkpt lat="58.871028" lon="05.857865"><ele>24</ele><time>2012-03-31T12:48:52Z</time><cmt>7.3 kmh</cmt></trkpt>
<trkpt lat="58.871015" lon="05.857886"><ele>24</ele><time>2012-03-31T12:48:53Z</time><cmt>7.0 kmh</cmt></trkpt>
<trkpt lat="58.871002" lon="05.857906"><ele>24</ele><time>2012-03-31T12:48:54Z</time><cmt>7.1 kmh</cmt></trkpt>
<trkpt lat="58.870989" lon="05.857924"><ele>24</ele><time>2012-03-31T12:48:55Z</time><cmt>6.7 kmh</cmt></trkpt>
<trkpt lat="58.870976" lon="05.857941"><ele>24</ele><time>2012-03-31T12:48:56Z</time><cmt>7.1 kmh</cmt></trkpt>
<trkpt lat="58.870962" lon="05.857958"><ele>24</ele><time>2012-03-31T12:48:57Z</time><cmt>7.0 kmh</cmt></trkpt>
<trkpt lat="58.870948" lon="05.857976"><ele>24</ele><time>2012-03-31T12:48:58Z</time><cmt>7.5 kmh</cmt></trkpt>
<trkpt lat="58.870934" lon="05.857996"><ele>24</ele><time>2012-03-31T12:48:59Z</time><cmt>6.8 kmh</cmt></trkpt>
<trkpt lat="58.870921" lon="05.858017"><ele>24</ele><time>2012-03-31T12:49:00Z</time><cmt>7.2 kmh</cmt></trkpt>
<trkpt lat="58.870910" lon="05.858038"><ele>24</ele><time>2012-03-31T12:49:01Z</time><cmt>6.4 kmh</cmt></trkpt>
<trkpt lat="58.870902" lon="05.858060"><ele>24</ele><time>2012-03-31T12:49:02Z</time><cmt>5.1 kmh</cmt></trkpt>
<trkpt lat="58.870896" lon="05.858082"><ele>24</ele><time>2012-03-31T12:49:03Z</time><cmt>5.7 kmh</cmt></trkpt>
<trkpt lat="58.870892" lon="05.858106"><ele>24</ele><time>2012-03-31T12:49:04Z</time><cmt>5.7 kmh</cmt></trkpt>
<trkpt lat="58.870889" lon="05.858128"><ele>25</ele><time>2012-03-31T12:49:05Z</time><cmt>5.0 kmh</cmt></trkpt>
<trkpt lat="58.870887" lon="05.858151"><ele>25</ele><time>2012-03-31T12:49:06Z</time><cmt>5.1 kmh</cmt></trkpt>
<trkpt lat="58.870885" lon="05.858174"><ele>25</ele><time>2012-03-31T12:49:07Z</time><cmt>5.1 kmh</cmt></trkpt>
<trkpt lat="58.870884" lon="05.858199"><ele>25</ele><time>2012-03-31T12:49:08Z</time><cmt>5.6 kmh</cmt></trkpt>
<trkpt lat="58.870884" lon="05.858225"><ele>25</ele><time>2012-03-31T12:49:09Z</time><cmt>5.9 kmh</cmt></trkpt>
<trkpt lat="58.870885" lon="05.858252"><ele>25</ele><time>2012-03-31T12:49:10Z</time><cmt>6.0 kmh</cmt></trkpt>
<trkpt lat="58.870890" lon="05.858297"><ele>25</ele><time>2012-03-31T12:49:12Z</time><cmt>6.0 kmh</cmt></trkpt>
<trkpt lat="58.870900" lon="05.858353"><ele>25</ele><time>2012-03-31T12:49:14Z</time><cmt>6.2 kmh</cmt></trkpt>
<trkpt lat="58.870915" lon="05.858403"><ele>25</ele><time>2012-03-31T12:49:16Z</time><cmt>6.2 kmh</cmt></trkpt>
<trkpt lat="58.870934" lon="05.858446"><ele>25</ele><time>2012-03-31T12:49:18Z</time><cmt>5.8 kmh</cmt></trkpt>
<trkpt lat="58.870956" lon="05.858486"><ele>25</ele><time>2012-03-31T12:49:20Z</time><cmt>6.3 kmh</cmt></trkpt>
<trkpt lat="58.870981" lon="05.858520"><ele>26</ele><time>2012-03-31T12:49:22Z</time><cmt>6.2 kmh</cmt></trkpt>
<trkpt lat="58.871009" lon="05.858548"><ele>26</ele><time>2012-03-31T12:49:24Z</time><cmt>6.3 kmh</cmt></trkpt>
<trkpt lat="58.871039" lon="05.858569"><ele>26</ele><time>2012-03-31T12:49:26Z</time><cmt>6.3 kmh</cmt></trkpt>
<trkpt lat="58.871070" lon="05.858587"><ele>26</ele><time>2012-03-31T12:49:28Z</time><cmt>6.8 kmh</cmt></trkpt>
<trkpt lat="58.871098" lon="05.858606"><ele>26</ele><time>2012-03-31T12:49:30Z</time><cmt>5.7 kmh</cmt></trkpt>
<trkpt lat="58.871125" lon="05.858629"><ele>26</ele><time>2012-03-31T12:49:32Z</time><cmt>6.2 kmh</cmt></trkpt>
<trkpt lat="58.871150" lon="05.858653"><ele>27</ele><time>2012-03-31T12:49:34Z</time><cmt>5.1 kmh</cmt></trkpt>
<trkpt lat="58.871196" lon="05.858753"><ele>29</ele><time>2012-03-31T12:50:18Z</time><cmt>5.0 kmh</cmt></trkpt>
<trkpt lat="58.871214" lon="05.858803"><ele>29</ele><time>2012-03-31T12:50:23Z</time><cmt>3.9 kmh</cmt></trkpt>
<trkpt lat="58.871235" lon="05.858834"><ele>29</ele><time>2012-03-31T12:50:26Z</time><cmt>3.8 kmh</cmt></trkpt>
<trkpt lat="58.871260" lon="05.858853"><ele>29</ele><time>2012-03-31T12:50:29Z</time><cmt>3.3 kmh</cmt></trkpt>
<trkpt lat="58.871289" lon="05.858866"><ele>29</ele><time>2012-03-31T12:50:33Z</time><cmt>3.2 kmh</cmt></trkpt>
<trkpt lat="58.871314" lon="05.858865"><ele>29</ele><time>2012-03-31T12:50:36Z</time><cmt>3.1 kmh</cmt></trkpt>
<trkpt lat="58.871345" lon="05.858851"><ele>30</ele><time>2012-03-31T12:50:39Z</time><cmt>4.7 kmh</cmt></trkpt>
<trkpt lat="58.871383" lon="05.858835"><ele>30</ele><time>2012-03-31T12:50:42Z</time><cmt>5.7 kmh</cmt></trkpt>
<trkpt lat="58.871409" lon="05.858818"><ele>30</ele><time>2012-03-31T12:50:44Z</time><cmt>5.4 kmh</cmt></trkpt>
<trkpt lat="58.871435" lon="05.858798"><ele>30</ele><time>2012-03-31T12:50:46Z</time><cmt>5.7 kmh</cmt></trkpt>
<trkpt lat="58.871462" lon="05.858771"><ele>30</ele><time>2012-03-31T12:50:48Z</time><cmt>6.1 kmh</cmt></trkpt>
<trkpt lat="58.871488" lon="05.858738"><ele>30</ele><time>2012-03-31T12:50:50Z</time><cmt>6.4 kmh</cmt></trkpt>
<trkpt lat="58.871514" lon="05.858701"><ele>30</ele><time>2012-03-31T12:50:52Z</time><cmt>6.5 kmh</cmt></trkpt>
<trkpt lat="58.871544" lon="05.858657"><ele>30</ele><time>2012-03-31T12:50:54Z</time><cmt>6.9 kmh</cmt></trkpt>
<trkpt lat="58.871569" lon="05.858614"><ele>30</ele><time>2012-03-31T12:50:56Z</time><cmt>6.8 kmh</cmt></trkpt>
<trkpt lat="58.871593" lon="05.858572"><ele>30</ele><time>2012-03-31T12:50:58Z</time><cmt>6.6 kmh</cmt></trkpt>
<trkpt lat="58.871615" lon="05.858530"><ele>30</ele><time>2012-03-31T12:51:00Z</time><cmt>6.5 kmh</cmt></trkpt>
<trkpt lat="58.871638" lon="05.858487"><ele>30</ele><time>2012-03-31T12:51:02Z</time><cmt>6.6 kmh</cmt></trkpt>
<trkpt lat="58.871662" lon="05.858443"><ele>30</ele><time>2012-03-31T12:51:04Z</time><cmt>6.8 kmh</cmt></trkpt>
<trkpt lat="58.871686" lon="05.858397"><ele>29</ele><time>2012-03-31T12:51:06Z</time><cmt>6.9 kmh</cmt></trkpt>
<trkpt lat="58.871703" lon="05.858366"><ele>29</ele><time>2012-03-31T12:51:07Z</time><cmt>6.8 kmh</cmt></trkpt>
<trkpt lat="58.871713" lon="05.858345"><ele>29</ele><time>2012-03-31T12:51:08Z</time><cmt>6.8 kmh</cmt></trkpt>
<trkpt lat="58.871725" lon="05.858323"><ele>29</ele><time>2012-03-31T12:51:09Z</time><cmt>6.7 kmh</cmt></trkpt>
<trkpt lat="58.871736" lon="05.858300"><ele>29</ele><time>2012-03-31T12:51:10Z</time><cmt>6.7 kmh</cmt></trkpt>
<trkpt lat="58.871748" lon="05.858276"><ele>29</ele><time>2012-03-31T12:51:11Z</time><cmt>6.9 kmh</cmt></trkpt>
<trkpt lat="58.871760" lon="05.858252"><ele>28</ele><time>2012-03-31T12:51:12Z</time><cmt>6.9 kmh</cmt></trkpt>
<trkpt lat="58.871771" lon="05.858228"><ele>28</ele><time>2012-03-31T12:51:13Z</time><cmt>6.3 kmh</cmt></trkpt>
<trkpt lat="58.871781" lon="05.858205"><ele>28</ele><time>2012-03-31T12:51:14Z</time><cmt>6.0 kmh</cmt></trkpt>
<trkpt lat="58.871791" lon="05.858182"><ele>28</ele><time>2012-03-31T12:51:15Z</time><cmt>6.0 kmh</cmt></trkpt>
<trkpt lat="58.871801" lon="05.858159"><ele>28</ele><time>2012-03-31T12:51:16Z</time><cmt>6.4 kmh</cmt></trkpt>
<trkpt lat="58.871811" lon="05.858136"><ele>28</ele><time>2012-03-31T12:51:17Z</time><cmt>6.1 kmh</cmt></trkpt>
<trkpt lat="58.871822" lon="05.858114"><ele>28</ele><time>2012-03-31T12:51:18Z</time><cmt>6.2 kmh</cmt></trkpt>
<trkpt lat="58.871832" lon="05.858092"><ele>28</ele><time>2012-03-31T12:51:19Z</time><cmt>6.3 kmh</cmt></trkpt>
<trkpt lat="58.871843" lon="05.858070"><ele>27</ele><time>2012-03-31T12:51:20Z</time><cmt>6.1 kmh</cmt></trkpt>
<trkpt lat="58.871853" lon="05.858049"><ele>27</ele><time>2012-03-31T12:51:21Z</time><cmt>5.9 kmh</cmt></trkpt>
<trkpt lat="58.871864" lon="05.858029"><ele>27</ele><time>2012-03-31T12:51:22Z</time><cmt>5.7 kmh</cmt></trkpt>
<trkpt lat="58.871874" lon="05.858009"><ele>27</ele><time>2012-03-31T12:51:23Z</time><cmt>6.0 kmh</cmt></trkpt>
<trkpt lat="58.871885" lon="05.857990"><ele>27</ele><time>2012-03-31T12:51:24Z</time><cmt>5.7 kmh</cmt></trkpt>
<trkpt lat="58.871896" lon="05.857972"><ele>27</ele><time>2012-03-31T12:51:25Z</time><cmt>5.4 kmh</cmt></trkpt>
<trkpt lat="58.871906" lon="05.857955"><ele>27</ele><time>2012-03-31T12:51:26Z</time><cmt>5.2 kmh</cmt></trkpt>
<trkpt lat="58.871915" lon="05.857938"><ele>26</ele><time>2012-03-31T12:51:27Z</time><cmt>5.2 kmh</cmt></trkpt>
<trkpt lat="58.871924" lon="05.857920"><ele>26</ele><time>2012-03-31T12:51:28Z</time><cmt>5.2 kmh</cmt></trkpt>
<trkpt lat="58.871933" lon="05.857903"><ele>26</ele><time>2012-03-31T12:51:29Z</time><cmt>5.1 kmh</cmt></trkpt>
<trkpt lat="58.871942" lon="05.857885"><ele>26</ele><time>2012-03-31T12:51:30Z</time><cmt>5.1 kmh</cmt></trkpt>
<trkpt lat="58.871951" lon="05.857869"><ele>26</ele><time>2012-03-31T12:51:31Z</time><cmt>4.3 kmh</cmt></trkpt>
<trkpt lat="58.871960" lon="05.857854"><ele>26</ele><time>2012-03-31T12:51:32Z</time><cmt>5.0 kmh</cmt></trkpt>
<trkpt lat="58.871969" lon="05.857839"><ele>26</ele><time>2012-03-31T12:51:33Z</time><cmt>5.0 kmh</cmt></trkpt>
<trkpt lat="58.871977" lon="05.857825"><ele>26</ele><time>2012-03-31T12:51:34Z</time><cmt>4.9 kmh</cmt></trkpt>
<trkpt lat="58.871986" lon="05.857810"><ele>26</ele><time>2012-03-31T12:51:35Z</time><cmt>4.8 kmh</cmt></trkpt>
<trkpt lat="58.871994" lon="05.857796"><ele>26</ele><time>2012-03-31T12:51:36Z</time><cmt>4.8 kmh</cmt></trkpt>
<trkpt lat="58.872002" lon="05.857783"><ele>26</ele><time>2012-03-31T12:51:37Z</time><cmt>3.8 kmh</cmt></trkpt>
<trkpt lat="58.872010" lon="05.857769"><ele>26</ele><time>2012-03-31T12:51:38Z</time><cmt>3.7 kmh</cmt></trkpt>
<trkpt lat="58.872019" lon="05.857755"><ele>25</ele><time>2012-03-31T12:51:39Z</time><cmt>4.7 kmh</cmt></trkpt>
<trkpt lat="58.872027" lon="05.857740"><ele>25</ele><time>2012-03-31T12:51:40Z</time><cmt>4.7 kmh</cmt></trkpt>
<trkpt lat="58.872035" lon="05.857725"><ele>25</ele><time>2012-03-31T12:51:41Z</time><cmt>4.9 kmh</cmt></trkpt>
<trkpt lat="58.872044" lon="05.857708"><ele>25</ele><time>2012-03-31T12:51:42Z</time><cmt>5.0 kmh</cmt></trkpt>
<trkpt lat="58.872052" lon="05.857691"><ele>25</ele><time>2012-03-31T12:51:43Z</time><cmt>4.2 kmh</cmt></trkpt>
<trkpt lat="58.872060" lon="05.857673"><ele>25</ele><time>2012-03-31T12:51:44Z</time><cmt>5.1 kmh</cmt></trkpt>
<trkpt lat="58.872068" lon="05.857654"><ele>25</ele><time>2012-03-31T12:51:45Z</time><cmt>5.1 kmh</cmt></trkpt>
<trkpt lat="58.872076" lon="05.857634"><ele>25</ele><time>2012-03-31T12:51:46Z</time><cmt>5.3 kmh</cmt></trkpt>
<trkpt lat="58.872085" lon="05.857614"><ele>25</ele><time>2012-03-31T12:51:47Z</time><cmt>5.4 kmh</cmt></trkpt>
<trkpt lat="58.872093" lon="05.857593"><ele>25</ele><time>2012-03-31T12:51:48Z</time><cmt>5.4 kmh</cmt></trkpt>
<trkpt lat="58.872102" lon="05.857571"><ele>25</ele><time>2012-03-31T12:51:49Z</time><cmt>5.7 kmh</cmt></trkpt>
<trkpt lat="58.872110" lon="05.857548"><ele>25</ele><time>2012-03-31T12:51:50Z</time><cmt>5.8 kmh</cmt></trkpt>
<trkpt lat="58.872119" lon="05.857525"><ele>25</ele><time>2012-03-31T12:51:51Z</time><cmt>5.8 kmh</cmt></trkpt>
<trkpt lat="58.872128" lon="05.857503"><ele>25</ele><time>2012-03-31T12:51:52Z</time><cmt>5.9 kmh</cmt></trkpt>
<trkpt lat="58.872138" lon="05.857480"><ele>25</ele><time>2012-03-31T12:51:53Z</time><cmt>5.8 kmh</cmt></trkpt>
<trkpt lat="58.872147" lon="05.857457"><ele>25</ele><time>2012-03-31T12:51:54Z</time><cmt>6.0 kmh</cmt></trkpt>
<trkpt lat="58.872156" lon="05.857434"><ele>25</ele><time>2012-03-31T12:51:55Z</time><cmt>5.8 kmh</cmt></trkpt>
<trkpt lat="58.872165" lon="05.857411"><ele>25</ele><time>2012-03-31T12:51:56Z</time><cmt>5.9 kmh</cmt></trkpt>
<trkpt lat="58.872174" lon="05.857388"><ele>25</ele><time>2012-03-31T12:51:57Z</time><cmt>5.9 kmh</cmt></trkpt>
<trkpt lat="58.872184" lon="05.857365"><ele>25</ele><time>2012-03-31T12:51:58Z</time><cmt>5.9 kmh</cmt></trkpt>
<trkpt lat="58.872193" lon="05.857343"><ele>25</ele><time>2012-03-31T12:51:59Z</time><cmt>5.8 kmh</cmt></trkpt>
<trkpt lat="58.872202" lon="05.857321"><ele>24</ele><time>2012-03-31T12:52:00Z</time><cmt>5.5 kmh</cmt></trkpt>
<trkpt lat="58.872211" lon="05.857299"><ele>24</ele><time>2012-03-31T12:52:01Z</time><cmt>5.5 kmh</cmt></trkpt>
<trkpt lat="58.872220" lon="05.857278"><ele>24</ele><time>2012-03-31T12:52:02Z</time><cmt>5.8 kmh</cmt></trkpt>
<trkpt lat="58.872229" lon="05.857257"><ele>24</ele><time>2012-03-31T12:52:03Z</time><cmt>5.6 kmh</cmt></trkpt>
<trkpt lat="58.872239" lon="05.857237"><ele>24</ele><time>2012-03-31T12:52:04Z</time><cmt>5.4 kmh</cmt></trkpt>
<trkpt lat="58.872249" lon="05.857217"><ele>24</ele><time>2012-03-31T12:52:05Z</time><cmt>5.8 kmh</cmt></trkpt>
<trkpt lat="58.872259" lon="05.857195"><ele>24</ele><time>2012-03-31T12:52:06Z</time><cmt>5.8 kmh</cmt></trkpt>
<trkpt lat="58.872269" lon="05.857174"><ele>24</ele><time>2012-03-31T12:52:07Z</time><cmt>5.9 kmh</cmt></trkpt>
<trkpt lat="58.872279" lon="05.857153"><ele>24</ele><time>2012-03-31T12:52:08Z</time><cmt>6.0 kmh</cmt></trkpt>
<trkpt lat="58.872289" lon="05.857131"><ele>24</ele><time>2012-03-31T12:52:09Z</time><cmt>6.0 kmh</cmt></trkpt>
<trkpt lat="58.872299" lon="05.857108"><ele>24</ele><time>2012-03-31T12:52:10Z</time><cmt>6.3 kmh</cmt></trkpt>
<trkpt lat="58.872310" lon="05.857085"><ele>24</ele><time>2012-03-31T12:52:11Z</time><cmt>6.4 kmh</cmt></trkpt>
<trkpt lat="58.872321" lon="05.857061"><ele>24</ele><time>2012-03-31T12:52:12Z</time><cmt>6.4 kmh</cmt></trkpt>
<trkpt lat="58.872331" lon="05.857037"><ele>24</ele><time>2012-03-31T12:52:13Z</time><cmt>6.3 kmh</cmt></trkpt>
<trkpt lat="58.872341" lon="05.857012"><ele>24</ele><time>2012-03-31T12:52:14Z</time><cmt>6.7 kmh</cmt></trkpt>
<trkpt lat="58.872351" lon="05.856986"><ele>24</ele><time>2012-03-31T12:52:15Z</time><cmt>6.7 kmh</cmt></trkpt>
<trkpt lat="58.872362" lon="05.856960"><ele>24</ele><time>2012-03-31T12:52:16Z</time><cmt>6.7 kmh</cmt></trkpt>
<trkpt lat="58.872371" lon="05.856933"><ele>24</ele><time>2012-03-31T12:52:17Z</time><cmt>6.6 kmh</cmt></trkpt>
<trkpt lat="58.872381" lon="05.856907"><ele>24</ele><time>2012-03-31T12:52:18Z</time><cmt>6.5 kmh</cmt></trkpt>
<trkpt lat="58.872391" lon="05.856880"><ele>24</ele><time>2012-03-31T12:52:19Z</time><cmt>7.0 kmh</cmt></trkpt>
<trkpt lat="58.872400" lon="05.856852"><ele>24</ele><time>2012-03-31T12:52:20Z</time><cmt>6.8 kmh</cmt></trkpt>
<trkpt lat="58.872409" lon="05.856823"><ele>24</ele><time>2012-03-31T12:52:21Z</time><cmt>6.9 kmh</cmt></trkpt>
<trkpt lat="58.872418" lon="05.856794"><ele>24</ele><time>2012-03-31T12:52:22Z</time><cmt>6.9 kmh</cmt></trkpt>
<trkpt lat="58.872428" lon="05.856765"><ele>24</ele><time>2012-03-31T12:52:23Z</time><cmt>6.9 kmh</cmt></trkpt>
<trkpt lat="58.872438" lon="05.856736"><ele>24</ele><time>2012-03-31T12:52:24Z</time><cmt>7.1 kmh</cmt></trkpt>
<trkpt lat="58.872448" lon="05.856707"><ele>24</ele><time>2012-03-31T12:52:25Z</time><cmt>6.9 kmh</cmt></trkpt>
<trkpt lat="58.872458" lon="05.856677"><ele>24</ele><time>2012-03-31T12:52:26Z</time><cmt>7.1 kmh</cmt></trkpt>
<trkpt lat="58.872467" lon="05.856648"><ele>24</ele><time>2012-03-31T12:52:27Z</time><cmt>6.9 kmh</cmt></trkpt>
<trkpt lat="58.872477" lon="05.856619"><ele>24</ele><time>2012-03-31T12:52:28Z</time><cmt>6.7 kmh</cmt></trkpt>
<trkpt lat="58.872485" lon="05.856590"><ele>24</ele><time>2012-03-31T12:52:29Z</time><cmt>6.7 kmh</cmt></trkpt>
<trkpt lat="58.872492" lon="05.856559"><ele>24</ele><time>2012-03-31T12:52:30Z</time><cmt>6.9 kmh</cmt></trkpt>
<trkpt lat="58.872499" lon="05.856529"><ele>24</ele><time>2012-03-31T12:52:31Z</time><cmt>6.6 kmh</cmt></trkpt>
<trkpt lat="58.872507" lon="05.856498"><ele>24</ele><time>2012-03-31T12:52:32Z</time><cmt>7.0 kmh</cmt></trkpt>
<trkpt lat="58.872514" lon="05.856467"><ele>24</ele><time>2012-03-31T12:52:33Z</time><cmt>6.9 kmh</cmt></trkpt>
<trkpt lat="58.872521" lon="05.856437"><ele>24</ele><time>2012-03-31T12:52:34Z</time><cmt>6.7 kmh</cmt></trkpt>
<trkpt lat="58.872528" lon="05.856406"><ele>24</ele><time>2012-03-31T12:52:35Z</time><cmt>6.9 kmh</cmt></trkpt>
<trkpt lat="58.872535" lon="05.856375"><ele>24</ele><time>2012-03-31T12:52:36Z</time><cmt>6.9 kmh</cmt></trkpt>
<trkpt lat="58.872542" lon="05.856344"><ele>24</ele><time>2012-03-31T12:52:37Z</time><cmt>6.9 kmh</cmt></trkpt>
<trkpt lat="58.872549" lon="05.856313"><ele>24</ele><time>2012-03-31T12:52:38Z</time><cmt>7.0 kmh</cmt></trkpt>
<trkpt lat="58.872556" lon="05.856282"><ele>24</ele><time>2012-03-31T12:52:39Z</time><cmt>6.9 kmh</cmt></trkpt>
<trkpt lat="58.872563" lon="05.856250"><ele>24</ele><time>2012-03-31T12:52:40Z</time><cmt>6.8 kmh</cmt></trkpt>
<trkpt lat="58.872569" lon="05.856220"><ele>24</ele><time>2012-03-31T12:52:41Z</time><cmt>6.5 kmh</cmt></trkpt>
<trkpt lat="58.872576" lon="05.856192"><ele>24</ele><time>2012-03-31T12:52:42Z</time><cmt>6.1 kmh</cmt></trkpt>
<trkpt lat="58.872582" lon="05.856165"><ele>24</ele><time>2012-03-31T12:52:43Z</time><cmt>6.1 kmh</cmt></trkpt>
<trkpt lat="58.872589" lon="05.856138"><ele>24</ele><time>2012-03-31T12:52:44Z</time><cmt>6.0 kmh</cmt></trkpt>
<trkpt lat="58.872595" lon="05.856110"><ele>24</ele><time>2012-03-31T12:52:45Z</time><cmt>6.2 kmh</cmt></trkpt>
<trkpt lat="58.872601" lon="05.856083"><ele>24</ele><time>2012-03-31T12:52:46Z</time><cmt>5.9 kmh</cmt></trkpt>
<trkpt lat="58.872608" lon="05.856056"><ele>24</ele><time>2012-03-31T12:52:47Z</time><cmt>6.3 kmh</cmt></trkpt>
<trkpt lat="58.872614" lon="05.856028"><ele>24</ele><time>2012-03-31T12:52:48Z</time><cmt>6.3 kmh</cmt></trkpt>
<trkpt lat="58.872622" lon="05.856001"><ele>25</ele><time>2012-03-31T12:52:49Z</time><cmt>6.2 kmh</cmt></trkpt>
<trkpt lat="58.872629" lon="05.855974"><ele>25</ele><time>2012-03-31T12:52:50Z</time><cmt>6.0 kmh</cmt></trkpt>
<trkpt lat="58.872636" lon="05.855948"><ele>25</ele><time>2012-03-31T12:52:51Z</time><cmt>6.0 kmh</cmt></trkpt>
<trkpt lat="58.872643" lon="05.855922"><ele>25</ele><time>2012-03-31T12:52:52Z</time><cmt>5.8 kmh</cmt></trkpt>
<trkpt lat="58.872651" lon="05.855897"><ele>25</ele><time>2012-03-31T12:52:53Z</time><cmt>6.0 kmh</cmt></trkpt>
<trkpt lat="58.872658" lon="05.855872"><ele>25</ele><time>2012-03-31T12:52:54Z</time><cmt>6.0 kmh</cmt></trkpt>
<trkpt lat="58.872665" lon="05.855846"><ele>25</ele><time>2012-03-31T12:52:55Z</time><cmt>5.9 kmh</cmt></trkpt>
<trkpt lat="58.872672" lon="05.855820"><ele>25</ele><time>2012-03-31T12:52:56Z</time><cmt>6.1 kmh</cmt></trkpt>
<trkpt lat="58.872679" lon="05.855793"><ele>25</ele><time>2012-03-31T12:52:57Z</time><cmt>5.7 kmh</cmt></trkpt>
<trkpt lat="58.872684" lon="05.855768"><ele>25</ele><time>2012-03-31T12:52:58Z</time><cmt>5.4 kmh</cmt></trkpt>
<trkpt lat="58.872689" lon="05.855743"><ele>25</ele><time>2012-03-31T12:52:59Z</time><cmt>5.4 kmh</cmt></trkpt>
<trkpt lat="58.872692" lon="05.855721"><ele>25</ele><time>2012-03-31T12:53:00Z</time><cmt>5.0 kmh</cmt></trkpt>
<trkpt lat="58.872695" lon="05.855702"><ele>25</ele><time>2012-03-31T12:53:01Z</time><cmt>4.8 kmh</cmt></trkpt>
<trkpt lat="58.872698" lon="05.855685"><ele>25</ele><time>2012-03-31T12:53:02Z</time><cmt>4.2 kmh</cmt></trkpt>
<trkpt lat="58.872701" lon="05.855671"><ele>25</ele><time>2012-03-31T12:53:03Z</time><cmt>2.9 kmh</cmt></trkpt>
<trkpt lat="58.872703" lon="05.855659"><ele>25</ele><time>2012-03-31T12:53:04Z</time><cmt>2.4 kmh</cmt></trkpt>
<trkpt lat="58.872703" lon="05.855649"><ele>25</ele><time>2012-03-31T12:53:05Z</time><cmt>2.5 kmh</cmt></trkpt>
<trkpt lat="58.872704" lon="05.855641"><ele>25</ele><time>2012-03-31T12:53:06Z</time><cmt>2.0 kmh</cmt></trkpt>
<trkpt lat="58.872705" lon="05.855637"><ele>25</ele><time>2012-03-31T12:53:07Z</time><cmt>1.4 kmh</cmt></trkpt>
<trkpt lat="58.872706" lon="05.855636"><ele>25</ele><time>2012-03-31T12:53:08Z</time><cmt>0.9 kmh</cmt></trkpt>
<trkpt lat="58.872707" lon="05.855636"><ele>25</ele><time>2012-03-31T12:53:09Z</time><cmt>0.3 kmh</cmt></trkpt>
<trkpt lat="58.872706" lon="05.855636"><ele>25</ele><time>2012-03-31T12:53:10Z</time><cmt>0.0 kmh</cmt></trkpt>
<trkpt lat="58.872706" lon="05.855634"><ele>25</ele><time>2012-03-31T12:53:11Z</time><cmt>0.2 kmh</cmt></trkpt>
<trkpt lat="58.872705" lon="05.855630"><ele>25</ele><time>2012-03-31T12:53:12Z</time><cmt>0.6 kmh</cmt></trkpt>
<trkpt lat="58.872703" lon="05.855626"><ele>25</ele><time>2012-03-31T12:53:13Z</time><cmt>1.0 kmh</cmt></trkpt>
<trkpt lat="58.872701" lon="05.855625"><ele>25</ele><time>2012-03-31T12:53:14Z</time><cmt>1.0 kmh</cmt></trkpt>
<trkpt lat="58.872699" lon="05.855624"><ele>25</ele><time>2012-03-31T12:53:15Z</time><cmt>0.8 kmh</cmt></trkpt>
<trkpt lat="58.872698" lon="05.855622"><ele>25</ele><time>2012-03-31T12:53:16Z</time><cmt>0.6 kmh</cmt></trkpt>
<trkpt lat="58.872697" lon="05.855619"><ele>25</ele><time>2012-03-31T12:53:17Z</time><cmt>0.7 kmh</cmt></trkpt>
<trkpt lat="58.872697" lon="05.855615"><ele>25</ele><time>2012-03-31T12:53:18Z</time><cmt>0.9 kmh</cmt></trkpt>
<trkpt lat="58.872697" lon="05.855614"><ele>25</ele><time>2012-03-31T12:53:19Z</time><cmt>0.7 kmh</cmt></trkpt>
<trkpt lat="58.872697" lon="05.855615"><ele>25</ele><time>2012-03-31T12:53:20Z</time><cmt>0.3 kmh</cmt></trkpt>
<trkpt lat="58.872698" lon="05.855617"><ele>25</ele><time>2012-03-31T12:53:21Z</time><cmt>0.3 kmh</cmt></trkpt>
<trkpt lat="58.872699" lon="05.855619"><ele>26</ele><time>2012-03-31T12:53:22Z</time><cmt>0.5 kmh</cmt></trkpt>
<trkpt lat="58.872700" lon="05.855621"><ele>26</ele><time>2012-03-31T12:53:23Z</time><cmt>0.5 kmh</cmt></trkpt>
<trkpt lat="58.872700" lon="05.855624"><ele>26</ele><time>2012-03-31T12:53:24Z</time><cmt>0.5 kmh</cmt></trkpt>
<trkpt lat="58.872700" lon="05.855625"><ele>26</ele><time>2012-03-31T12:53:25Z</time><cmt>0.5 kmh</cmt></trkpt>
<trkpt lat="58.872700" lon="05.855627"><ele>26</ele><time>2012-03-31T12:53:26Z</time><cmt>0.5 kmh</cmt></trkpt>
<trkpt lat="58.872700" lon="05.855629"><ele>26</ele><time>2012-03-31T12:53:27Z</time><cmt>0.5 kmh</cmt></trkpt>
<trkpt lat="58.872700" lon="05.855632"><ele>26</ele><time>2012-03-31T12:53:28Z</time><cmt>0.4 kmh</cmt></trkpt>
<trkpt lat="58.872701" lon="05.855634"><ele>26</ele><time>2012-03-31T12:53:29Z</time><cmt>0.4 kmh</cmt></trkpt>
<trkpt lat="58.872701" lon="05.855636"><ele>26</ele><time>2012-03-31T12:53:30Z</time><cmt>0.5 kmh</cmt></trkpt>
<trkpt lat="58.872702" lon="05.855638"><ele>26</ele><time>2012-03-31T12:53:31Z</time><cmt>0.5 kmh</cmt></trkpt>
<trkpt lat="58.872702" lon="05.855639"><ele>26</ele><time>2012-03-31T12:53:32Z</time><cmt>0.5 kmh</cmt></trkpt>
<trkpt lat="58.872703" lon="05.855641"><ele>26</ele><time>2012-03-31T12:53:33Z</time><cmt>0.4 kmh</cmt></trkpt>
<trkpt lat="58.872703" lon="05.855642"><ele>26</ele><time>2012-03-31T12:53:34Z</time><cmt>0.4 kmh</cmt></trkpt>
<trkpt lat="58.872703" lon="05.855643"><ele>26</ele><time>2012-03-31T12:53:35Z</time><cmt>0.2 kmh</cmt></trkpt>
<trkpt lat="58.872703" lon="05.855645"><ele>26</ele><time>2012-03-31T12:53:36Z</time><cmt>0.0 kmh</cmt></trkpt>
<trkpt lat="58.872703" lon="05.855646"><ele>26</ele><time>2012-03-31T12:53:37Z</time><cmt>0.0 kmh</cmt></trkpt>
<trkpt lat="58.872703" lon="05.855648"><ele>26</ele><time>2012-03-31T12:53:38Z</time><cmt>0.2 kmh</cmt></trkpt>
<trkpt lat="58.872704" lon="05.855649"><ele>26</ele><time>2012-03-31T12:53:39Z</time><cmt>0.4 kmh</cmt></trkpt>
<trkpt lat="58.872704" lon="05.855651"><ele>26</ele><time>2012-03-31T12:53:40Z</time><cmt>0.4 kmh</cmt></trkpt>
<trkpt lat="58.872705" lon="05.855653"><ele>26</ele><time>2012-03-31T12:53:41Z</time><cmt>0.4 kmh</cmt></trkpt>
<trkpt lat="58.872706" lon="05.855654"><ele>26</ele><time>2012-03-31T12:53:42Z</time><cmt>0.5 kmh</cmt></trkpt>
<trkpt lat="58.872708" lon="05.855655"><ele>26</ele><time>2012-03-31T12:53:43Z</time><cmt>0.8 kmh</cmt></trkpt>
<trkpt lat="58.872710" lon="05.855656"><ele>26</ele><time>2012-03-31T12:53:44Z</time><cmt>0.8 kmh</cmt></trkpt>
<trkpt lat="58.872712" lon="05.855656"><ele>26</ele><time>2012-03-31T12:53:45Z</time><cmt>0.7 kmh</cmt></trkpt>
<trkpt lat="58.872713" lon="05.855656"><ele>26</ele><time>2012-03-31T12:53:46Z</time><cmt>0.6 kmh</cmt></trkpt>
<trkpt lat="58.872713" lon="05.855656"><ele>26</ele><time>2012-03-31T12:53:47Z</time><cmt>0.2 kmh</cmt></trkpt>
<trkpt lat="58.872714" lon="05.855657"><ele>26</ele><time>2012-03-31T12:53:48Z</time><cmt>0.0 kmh</cmt></trkpt>
<trkpt lat="58.872714" lon="05.855659"><ele>26</ele><time>2012-03-31T12:53:49Z</time><cmt>0.0 kmh</cmt></trkpt>
<trkpt lat="58.872714" lon="05.855660"><ele>26</ele><time>2012-03-31T12:53:50Z</time><cmt>0.3 kmh</cmt></trkpt>
<trkpt lat="58.872714" lon="05.855660"><ele>26</ele><time>2012-03-31T12:53:51Z</time><cmt>0.4 kmh</cmt></trkpt>
<trkpt lat="58.872714" lon="05.855658"><ele>26</ele><time>2012-03-31T12:53:52Z</time><cmt>0.2 kmh</cmt></trkpt>
<trkpt lat="58.872714" lon="05.855656"><ele>26</ele><time>2012-03-31T12:53:53Z</time><cmt>0.2 kmh</cmt></trkpt>
<trkpt lat="58.872714" lon="05.855654"><ele>26</ele><time>2012-03-31T12:53:54Z</time><cmt>0.4 kmh</cmt></trkpt>
<trkpt lat="58.872714" lon="05.855654"><ele>26</ele><time>2012-03-31T12:53:55Z</time><cmt>0.2 kmh</cmt></trkpt>
<trkpt lat="58.872713" lon="05.855655"><ele>26</ele><time>2012-03-31T12:53:56Z</time><cmt>0.0 kmh</cmt></trkpt>
<trkpt lat="58.872713" lon="05.855655"><ele>26</ele><time>2012-03-31T12:53:57Z</time><cmt>0.0 kmh</cmt></trkpt>
<trkpt lat="58.872713" lon="05.855655"><ele>26</ele><time>2012-03-31T12:53:58Z</time><cmt>0.0 kmh</cmt></trkpt>
<trkpt lat="58.872713" lon="05.855655"><ele>26</ele><time>2012-03-31T12:53:59Z</time><cmt>0.0 kmh</cmt></trkpt>
<trkpt lat="58.872713" lon="05.855655"><ele>26</ele><time>2012-03-31T12:54:00Z</time><cmt>0.0 kmh</cmt></trkpt>
<trkpt lat="58.872713" lon="05.855655"><ele>26</ele><time>2012-03-31T12:54:01Z</time><cmt>0.0 kmh</cmt></trkpt>
<trkpt lat="58.872713" lon="05.855654"><ele>25</ele><time>2012-03-31T12:54:02Z</time><cmt>0.2 kmh</cmt></trkpt>
<trkpt lat="58.872713" lon="05.855654"><ele>25</ele><time>2012-03-31T12:54:03Z</time><cmt>0.2 kmh</cmt></trkpt>
<trkpt lat="58.872713" lon="05.855654"><ele>25</ele><time>2012-03-31T12:54:04Z</time><cmt>0.0 kmh</cmt></trkpt>
<trkpt lat="58.872712" lon="05.855654"><ele>25</ele><time>2012-03-31T12:54:05Z</time><cmt>0.0 kmh</cmt></trkpt>
<trkpt lat="58.872712" lon="05.855654"><ele>25</ele><time>2012-03-31T12:54:06Z</time><cmt>0.0 kmh</cmt></trkpt>
<trkpt lat="58.872712" lon="05.855653"><ele>25</ele><time>2012-03-31T12:54:07Z</time><cmt>0.0 kmh</cmt></trkpt>
<trkpt lat="58.872711" lon="05.855653"><ele>25</ele><time>2012-03-31T12:54:08Z</time><cmt>0.2 kmh</cmt></trkpt>
<trkpt lat="58.872711" lon="05.855652"><ele>25</ele><time>2012-03-31T12:54:09Z</time><cmt>0.2 kmh</cmt></trkpt>
<trkpt lat="58.872710" lon="05.855652"><ele>25</ele><time>2012-03-31T12:54:10Z</time><cmt>0.0 kmh</cmt></trkpt>
<trkpt lat="58.872710" lon="05.855651"><ele>25</ele><time>2012-03-31T12:54:11Z</time><cmt>0.0 kmh</cmt></trkpt>
<trkpt lat="58.872709" lon="05.855651"><ele>25</ele><time>2012-03-31T12:54:12Z</time><cmt>0.0 kmh</cmt></trkpt>
<trkpt lat="58.872709" lon="05.855650"><ele>25</ele><time>2012-03-31T12:54:13Z</time><cmt>0.0 kmh</cmt></trkpt>
<trkpt lat="58.872709" lon="05.855650"><ele>25</ele><time>2012-03-31T12:54:15Z</time><cmt>0.0 kmh</cmt></trkpt>
<trkpt lat="58.872709" lon="05.855650"><ele>25</ele><time>2012-03-31T12:54:16Z</time><cmt>0.0 kmh</cmt></trkpt>
<trkpt lat="58.872708" lon="05.855650"><ele>25</ele><time>2012-03-31T12:54:17Z</time><cmt>0.0 kmh</cmt></trkpt>
<trkpt lat="58.872707" lon="05.855650"><ele>25</ele><time>2012-03-31T12:54:18Z</time><cmt>0.0 kmh</cmt></trkpt>
<trkpt lat="58.872707" lon="05.855650"><ele>25</ele><time>2012-03-31T12:54:19Z</time><cmt>0.1 kmh</cmt></trkpt>
<trkpt lat="58.872706" lon="05.855650"><ele>25</ele><time>2012-03-31T12:54:20Z</time><cmt>0.2 kmh</cmt></trkpt>
<trkpt lat="58.872705" lon="05.855650"><ele>25</ele><time>2012-03-31T12:54:21Z</time><cmt>0.0 kmh</cmt></trkpt>
<trkpt lat="58.872704" lon="05.855650"><ele>25</ele><time>2012-03-31T12:54:22Z</time><cmt>0.0 kmh</cmt></trkpt>
<trkpt lat="58.872704" lon="05.855651"><ele>25</ele><time>2012-03-31T12:54:23Z</time><cmt>0.0 kmh</cmt></trkpt>
<trkpt lat="58.872704" lon="05.855651"><ele>25</ele><time>2012-03-31T12:54:24Z</time><cmt>0.0 kmh</cmt></trkpt>
<trkpt lat="58.872704" lon="05.855651"><ele>25</ele><time>2012-03-31T12:54:25Z</time><cmt>0.0 kmh</cmt></trkpt>
<trkpt lat="58.872703" lon="05.855652"><ele>25</ele><time>2012-03-31T12:54:26Z</time><cmt>0.3 kmh</cmt></trkpt>
<trkpt lat="58.872703" lon="05.855652"><ele>25</ele><time>2012-03-31T12:54:27Z</time><cmt>0.3 kmh</cmt></trkpt>
<trkpt lat="58.872703" lon="05.855653"><ele>25</ele><time>2012-03-31T12:54:28Z</time><cmt>0.0 kmh</cmt></trkpt>
<trkpt lat="58.872703" lon="05.855654"><ele>25</ele><time>2012-03-31T12:54:29Z</time><cmt>0.0 kmh</cmt></trkpt>
<trkpt lat="58.872703" lon="05.855655"><ele>25</ele><time>2012-03-31T12:54:30Z</time><cmt>0.0 kmh</cmt></trkpt>
<trkpt lat="58.872703" lon="05.855655"><ele>25</ele><time>2012-03-31T12:54:31Z</time><cmt>0.0 kmh</cmt></trkpt>
<trkpt lat="58.872702" lon="05.855656"><ele>25</ele><time>2012-03-31T12:54:32Z</time><cmt>0.0 kmh</cmt></trkpt>
<trkpt lat="58.872703" lon="05.855656"><ele>25</ele><time>2012-03-31T12:54:33Z</time><cmt>0.0 kmh</cmt></trkpt>
<trkpt lat="58.872704" lon="05.855656"><ele>25</ele><time>2012-03-31T12:54:34Z</time><cmt>0.0 kmh</cmt></trkpt>
<trkpt lat="58.872704" lon="05.855656"><ele>25</ele><time>2012-03-31T12:54:35Z</time><cmt>0.3 kmh</cmt></trkpt>
<trkpt lat="58.872705" lon="05.855657"><ele>25</ele><time>2012-03-31T12:54:36Z</time><cmt>0.2 kmh</cmt></trkpt>
<trkpt lat="58.872705" lon="05.855657"><ele>25</ele><time>2012-03-31T12:54:37Z</time><cmt>0.0 kmh</cmt></trkpt>
<trkpt lat="58.872705" lon="05.855657"><ele>25</ele><time>2012-03-31T12:54:38Z</time><cmt>0.3 kmh</cmt></trkpt>
<trkpt lat="58.872705" lon="05.855657"><ele>25</ele><time>2012-03-31T12:54:39Z</time><cmt>0.3 kmh</cmt></trkpt>
<trkpt lat="58.872705" lon="05.855656"><ele>25</ele><time>2012-03-31T12:54:40Z</time><cmt>0.0 kmh</cmt></trkpt>
<trkpt lat="58.872705" lon="05.855656"><ele>25</ele><time>2012-03-31T12:54:41Z</time><cmt>0.0 kmh</cmt></trkpt>
<trkpt lat="58.872705" lon="05.855656"><ele>25</ele><time>2012-03-31T12:54:42Z</time><cmt>0.0 kmh</cmt></trkpt>
<trkpt lat="58.872705" lon="05.855656"><ele>25</ele><time>2012-03-31T12:54:43Z</time><cmt>0.0 kmh</cmt></trkpt>
<trkpt lat="58.872706" lon="05.855656"><ele>25</ele><time>2012-03-31T12:54:44Z</time><cmt>0.0 kmh</cmt></trkpt>
<trkpt lat="58.872706" lon="05.855655"><ele>25</ele><time>2012-03-31T12:54:45Z</time><cmt>0.0 kmh</cmt></trkpt>
<trkpt lat="58.872708" lon="05.855655"><ele>25</ele><time>2012-03-31T12:54:46Z</time><cmt>0.4 kmh</cmt></trkpt>
<trkpt lat="58.872710" lon="05.855654"><ele>25</ele><time>2012-03-31T12:54:47Z</time><cmt>0.8 kmh</cmt></trkpt>
<trkpt lat="58.872713" lon="05.855653"><ele>25</ele><time>2012-03-31T12:54:48Z</time><cmt>1.0 kmh</cmt></trkpt>
<trkpt lat="58.872714" lon="05.855652"><ele>25</ele><time>2012-03-31T12:54:49Z</time><cmt>0.8 kmh</cmt></trkpt>
<trkpt lat="58.872716" lon="05.855651"><ele>25</ele><time>2012-03-31T12:54:50Z</time><cmt>0.6 kmh</cmt></trkpt>
<trkpt lat="58.872716" lon="05.855650"><ele>25</ele><time>2012-03-31T12:54:51Z</time><cmt>0.3 kmh</cmt></trkpt>
<trkpt lat="58.872716" lon="05.855650"><ele>25</ele><time>2012-03-31T12:54:52Z</time><cmt>0.0 kmh</cmt></trkpt>
<trkpt lat="58.872716" lon="05.855649"><ele>25</ele><time>2012-03-31T12:54:53Z</time><cmt>0.0 kmh</cmt></trkpt>
<trkpt lat="58.872716" lon="05.855649"><ele>24</ele><time>2012-03-31T12:54:54Z</time><cmt>0.0 kmh</cmt></trkpt>
<trkpt lat="58.872717" lon="05.855649"><ele>24</ele><time>2012-03-31T12:54:55Z</time><cmt>0.1 kmh</cmt></trkpt>
<trkpt lat="58.872718" lon="05.855648"><ele>24</ele><time>2012-03-31T12:54:56Z</time><cmt>0.4 kmh</cmt></trkpt>
<trkpt lat="58.872720" lon="05.855647"><ele>24</ele><time>2012-03-31T12:54:57Z</time><cmt>0.5 kmh</cmt></trkpt>
<trkpt lat="58.872722" lon="05.855647"><ele>24</ele><time>2012-03-31T12:54:58Z</time><cmt>0.6 kmh</cmt></trkpt>
<trkpt lat="58.872724" lon="05.855646"><ele>24</ele><time>2012-03-31T12:54:59Z</time><cmt>0.9 kmh</cmt></trkpt>
<trkpt lat="58.872726" lon="05.855646"><ele>24</ele><time>2012-03-31T12:55:00Z</time><cmt>1.0 kmh</cmt></trkpt>
<trkpt lat="58.872728" lon="05.855646"><ele>24</ele><time>2012-03-31T12:55:01Z</time><cmt>0.7 kmh</cmt></trkpt>
<trkpt lat="58.872730" lon="05.855645"><ele>24</ele><time>2012-03-31T12:55:02Z</time><cmt>0.5 kmh</cmt></trkpt>
<trkpt lat="58.872731" lon="05.855645"><ele>24</ele><time>2012-03-31T12:55:03Z</time><cmt>0.3 kmh</cmt></trkpt>
<trkpt lat="58.872732" lon="05.855645"><ele>24</ele><time>2012-03-31T12:55:04Z</time><cmt>0.0 kmh</cmt></trkpt>
<trkpt lat="58.872732" lon="05.855645"><ele>24</ele><time>2012-03-31T12:55:05Z</time><cmt>0.0 kmh</cmt></trkpt>
<trkpt lat="58.872733" lon="05.855644"><ele>23</ele><time>2012-03-31T12:55:06Z</time><cmt>0.0 kmh</cmt></trkpt>
<trkpt lat="58.872737" lon="05.855667"><ele>22</ele><time>2012-03-31T12:56:03Z</time><cmt>2.1 kmh</cmt></trkpt>
<trkpt lat="58.872736" lon="05.855668"><ele>22</ele><time>2012-03-31T12:56:04Z</time><cmt>2.1 kmh</cmt></trkpt>
<trkpt lat="58.872736" lon="05.855669"><ele>22</ele><time>2012-03-31T12:56:05Z</time><cmt>0.2 kmh</cmt></trkpt>
<trkpt lat="58.872735" lon="05.855670"><ele>22</ele><time>2012-03-31T12:56:06Z</time><cmt>0.4 kmh</cmt></trkpt>
<trkpt lat="58.872734" lon="05.855671"><ele>22</ele><time>2012-03-31T12:56:07Z</time><cmt>0.5 kmh</cmt></trkpt>
<trkpt lat="58.872734" lon="05.855672"><ele>22</ele><time>2012-03-31T12:56:08Z</time><cmt>0.5 kmh</cmt></trkpt>
<trkpt lat="58.872733" lon="05.855673"><ele>22</ele><time>2012-03-31T12:56:09Z</time><cmt>0.4 kmh</cmt></trkpt>
<trkpt lat="58.872733" lon="05.855675"><ele>22</ele><time>2012-03-31T12:56:10Z</time><cmt>0.3 kmh</cmt></trkpt>
<trkpt lat="58.872732" lon="05.855676"><ele>22</ele><time>2012-03-31T12:56:11Z</time><cmt>0.4 kmh</cmt></trkpt>
<trkpt lat="58.872732" lon="05.855678"><ele>22</ele><time>2012-03-31T12:56:12Z</time><cmt>0.2 kmh</cmt></trkpt>
<trkpt lat="58.872732" lon="05.855679"><ele>22</ele><time>2012-03-31T12:56:13Z</time><cmt>0.0 kmh</cmt></trkpt>
<trkpt lat="58.872731" lon="05.855681"><ele>22</ele><time>2012-03-31T12:56:14Z</time><cmt>0.3 kmh</cmt></trkpt>
<trkpt lat="58.872731" lon="05.855682"><ele>22</ele><time>2012-03-31T12:56:15Z</time><cmt>0.5 kmh</cmt></trkpt>
<trkpt lat="58.872731" lon="05.855684"><ele>22</ele><time>2012-03-31T12:56:16Z</time><cmt>0.2 kmh</cmt></trkpt>
<trkpt lat="58.872731" lon="05.855686"><ele>22</ele><time>2012-03-31T12:56:17Z</time><cmt>0.2 kmh</cmt></trkpt>
<trkpt lat="58.872731" lon="05.855687"><ele>22</ele><time>2012-03-31T12:56:18Z</time><cmt>0.4 kmh</cmt></trkpt>
<trkpt lat="58.872731" lon="05.855689"><ele>22</ele><time>2012-03-31T12:56:19Z</time><cmt>0.4 kmh</cmt></trkpt>
<trkpt lat="58.872730" lon="05.855691"><ele>22</ele><time>2012-03-31T12:56:20Z</time><cmt>0.5 kmh</cmt></trkpt>
<trkpt lat="58.872730" lon="05.855692"><ele>22</ele><time>2012-03-31T12:56:21Z</time><cmt>0.6 kmh</cmt></trkpt>
<trkpt lat="58.872730" lon="05.855694"><ele>22</ele><time>2012-03-31T12:56:22Z</time><cmt>0.5 kmh</cmt></trkpt>
<trkpt lat="58.872730" lon="05.855695"><ele>22</ele><time>2012-03-31T12:56:23Z</time><cmt>0.2 kmh</cmt></trkpt>
<trkpt lat="58.872730" lon="05.855696"><ele>22</ele><time>2012-03-31T12:56:24Z</time><cmt>0.0 kmh</cmt></trkpt>
<trkpt lat="58.872730" lon="05.855697"><ele>22</ele><time>2012-03-31T12:56:25Z</time><cmt>0.0 kmh</cmt></trkpt>
<trkpt lat="58.872730" lon="05.855698"><ele>22</ele><time>2012-03-31T12:56:26Z</time><cmt>0.0 kmh</cmt></trkpt>
<trkpt lat="58.872729" lon="05.855699"><ele>22</ele><time>2012-03-31T12:56:27Z</time><cmt>0.0 kmh</cmt></trkpt>
<trkpt lat="58.872729" lon="05.855700"><ele>22</ele><time>2012-03-31T12:56:28Z</time><cmt>0.0 kmh</cmt></trkpt>
<trkpt lat="58.872728" lon="05.855701"><ele>22</ele><time>2012-03-31T12:56:29Z</time><cmt>0.0 kmh</cmt></trkpt>
<trkpt lat="58.872728" lon="05.855702"><ele>22</ele><time>2012-03-31T12:56:30Z</time><cmt>0.0 kmh</cmt></trkpt>
<trkpt lat="58.872727" lon="05.855703"><ele>22</ele><time>2012-03-31T12:56:31Z</time><cmt>0.0 kmh</cmt></trkpt>
<trkpt lat="58.872727" lon="05.855704"><ele>22</ele><time>2012-03-31T12:56:32Z</time><cmt>0.2 kmh</cmt></trkpt>
<trkpt lat="58.872726" lon="05.855705"><ele>22</ele><time>2012-03-31T12:56:33Z</time><cmt>0.2 kmh</cmt></trkpt>
<trkpt lat="58.872725" lon="05.855706"><ele>22</ele><time>2012-03-31T12:56:34Z</time><cmt>0.0 kmh</cmt></trkpt>
<trkpt lat="58.872724" lon="05.855706"><ele>21</ele><time>2012-03-31T12:56:35Z</time><cmt>0.0 kmh</cmt></trkpt>
<trkpt lat="58.872724" lon="05.855705"><ele>21</ele><time>2012-03-31T12:56:36Z</time><cmt>0.3 kmh</cmt></trkpt>
<trkpt lat="58.872723" lon="05.855705"><ele>21</ele><time>2012-03-31T12:56:37Z</time><cmt>0.5 kmh</cmt></trkpt>
<trkpt lat="58.872721" lon="05.855705"><ele>21</ele><time>2012-03-31T12:56:38Z</time><cmt>0.4 kmh</cmt></trkpt>
<trkpt lat="58.872720" lon="05.855705"><ele>21</ele><time>2012-03-31T12:56:39Z</time><cmt>0.4 kmh</cmt></trkpt>
<trkpt lat="58.872719" lon="05.855706"><ele>21</ele><time>2012-03-31T12:56:40Z</time><cmt>0.4 kmh</cmt></trkpt>
<trkpt lat="58.872717" lon="05.855706"><ele>21</ele><time>2012-03-31T12:56:41Z</time><cmt>0.4 kmh</cmt></trkpt>
<trkpt lat="58.872715" lon="05.855707"><ele>21</ele><time>2012-03-31T12:56:42Z</time><cmt>0.6 kmh</cmt></trkpt>
<trkpt lat="58.872713" lon="05.855708"><ele>21</ele><time>2012-03-31T12:56:43Z</time><cmt>0.8 kmh</cmt></trkpt>
<trkpt lat="58.872711" lon="05.855709"><ele>21</ele><time>2012-03-31T12:56:44Z</time><cmt>0.9 kmh</cmt></trkpt>
<trkpt lat="58.872709" lon="05.855710"><ele>21</ele><time>2012-03-31T12:56:45Z</time><cmt>1.0 kmh</cmt></trkpt>
<trkpt lat="58.872707" lon="05.855711"><ele>21</ele><time>2012-03-31T12:56:46Z</time><cmt>0.8 kmh</cmt></trkpt>
<trkpt lat="58.872705" lon="05.855712"><ele>21</ele><time>2012-03-31T12:56:47Z</time><cmt>0.7 kmh</cmt></trkpt>
<trkpt lat="58.872703" lon="05.855713"><ele>21</ele><time>2012-03-31T12:56:48Z</time><cmt>0.9 kmh</cmt></trkpt>
<trkpt lat="58.872700" lon="05.855714"><ele>21</ele><time>2012-03-31T12:56:49Z</time><cmt>1.0 kmh</cmt></trkpt>
<trkpt lat="58.872698" lon="05.855714"><ele>21</ele><time>2012-03-31T12:56:50Z</time><cmt>1.0 kmh</cmt></trkpt>
<trkpt lat="58.872695" lon="05.855715"><ele>21</ele><time>2012-03-31T12:56:51Z</time><cmt>1.1 kmh</cmt></trkpt>
<trkpt lat="58.872692" lon="05.855715"><ele>21</ele><time>2012-03-31T12:56:52Z</time><cmt>1.2 kmh</cmt></trkpt>
<trkpt lat="58.872689" lon="05.855716"><ele>21</ele><time>2012-03-31T12:56:53Z</time><cmt>1.0 kmh</cmt></trkpt>
<trkpt lat="58.872686" lon="05.855716"><ele>21</ele><time>2012-03-31T12:56:54Z</time><cmt>1.1 kmh</cmt></trkpt>
<trkpt lat="58.872683" lon="05.855716"><ele>21</ele><time>2012-03-31T12:56:55Z</time><cmt>1.3 kmh</cmt></trkpt>
<trkpt lat="58.872680" lon="05.855717"><ele>21</ele><time>2012-03-31T12:56:56Z</time><cmt>1.3 kmh</cmt></trkpt>
<trkpt lat="58.872677" lon="05.855717"><ele>21</ele><time>2012-03-31T12:56:57Z</time><cmt>1.4 kmh</cmt></trkpt>
<trkpt lat="58.872674" lon="05.855718"><ele>21</ele><time>2012-03-31T12:56:58Z</time><cmt>1.4 kmh</cmt></trkpt>
<trkpt lat="58.872671" lon="05.855720"><ele>21</ele><time>2012-03-31T12:56:59Z</time><cmt>1.0 kmh</cmt></trkpt>
<trkpt lat="58.872669" lon="05.855723"><ele>21</ele><time>2012-03-31T12:57:00Z</time><cmt>0.9 kmh</cmt></trkpt>
<trkpt lat="58.872667" lon="05.855727"><ele>21</ele><time>2012-03-31T12:57:01Z</time><cmt>1.2 kmh</cmt></trkpt>
<trkpt lat="58.872665" lon="05.855731"><ele>21</ele><time>2012-03-31T12:57:02Z</time><cmt>1.4 kmh</cmt></trkpt>
<trkpt lat="58.872662" lon="05.855735"><ele>21</ele><time>2012-03-31T12:57:03Z</time><cmt>1.3 kmh</cmt></trkpt>
<trkpt lat="58.872659" lon="05.855738"><ele>21</ele><time>2012-03-31T12:57:04Z</time><cmt>1.6 kmh</cmt></trkpt>
<trkpt lat="58.872655" lon="05.855741"><ele>21</ele><time>2012-03-31T12:57:05Z</time><cmt>1.4 kmh</cmt></trkpt>
<trkpt lat="58.872651" lon="05.855744"><ele>22</ele><time>2012-03-31T12:57:06Z</time><cmt>1.4 kmh</cmt></trkpt>
<trkpt lat="58.872649" lon="05.855748"><ele>22</ele><time>2012-03-31T12:57:07Z</time><cmt>1.6 kmh</cmt></trkpt>
<trkpt lat="58.872647" lon="05.855751"><ele>22</ele><time>2012-03-31T12:57:08Z</time><cmt>1.2 kmh</cmt></trkpt>
<trkpt lat="58.872646" lon="05.855755"><ele>22</ele><time>2012-03-31T12:57:09Z</time><cmt>1.0 kmh</cmt></trkpt>
<trkpt lat="58.872645" lon="05.855759"><ele>22</ele><time>2012-03-31T12:57:10Z</time><cmt>1.0 kmh</cmt></trkpt>
<trkpt lat="58.872644" lon="05.855763"><ele>22</ele><time>2012-03-31T12:57:11Z</time><cmt>0.8 kmh</cmt></trkpt>
<trkpt lat="58.872645" lon="05.855767"><ele>22</ele><time>2012-03-31T12:57:12Z</time><cmt>0.8 kmh</cmt></trkpt>
<trkpt lat="58.872647" lon="05.855771"><ele>22</ele><time>2012-03-31T12:57:13Z</time><cmt>1.1 kmh</cmt></trkpt>
<trkpt lat="58.872648" lon="05.855776"><ele>22</ele><time>2012-03-31T12:57:14Z</time><cmt>1.2 kmh</cmt></trkpt>
<trkpt lat="58.872646" lon="05.855781"><ele>23</ele><time>2012-03-31T12:57:15Z</time><cmt>1.3 kmh</cmt></trkpt>
<trkpt lat="58.872608" lon="05.855805"><ele>24</ele><time>2012-03-31T12:57:33Z</time><cmt>5.0 kmh</cmt></trkpt>
<trkpt lat="58.872603" lon="05.855801"><ele>24</ele><time>2012-03-31T12:57:34Z</time><cmt>5.0 kmh</cmt></trkpt>
<trkpt lat="58.872597" lon="05.855793"><ele>24</ele><time>2012-03-31T12:57:35Z</time><cmt>2.7 kmh</cmt></trkpt>
<trkpt lat="58.872590" lon="05.855782"><ele>24</ele><time>2012-03-31T12:57:36Z</time><cmt>2.7 kmh</cmt></trkpt>
<trkpt lat="58.872583" lon="05.855768"><ele>24</ele><time>2012-03-31T12:57:37Z</time><cmt>3.2 kmh</cmt></trkpt>
<trkpt lat="58.872577" lon="05.855751"><ele>24</ele><time>2012-03-31T12:57:38Z</time><cmt>4.5 kmh</cmt></trkpt>
<trkpt lat="58.872571" lon="05.855731"><ele>24</ele><time>2012-03-31T12:57:39Z</time><cmt>4.9 kmh</cmt></trkpt>
<trkpt lat="58.872566" lon="05.855709"><ele>24</ele><time>2012-03-31T12:57:40Z</time><cmt>5.1 kmh</cmt></trkpt>
<trkpt lat="58.872562" lon="05.855683"><ele>24</ele><time>2012-03-31T12:57:41Z</time><cmt>5.1 kmh</cmt></trkpt>
<trkpt lat="58.872559" lon="05.855658"><ele>24</ele><time>2012-03-31T12:57:42Z</time><cmt>5.1 kmh</cmt></trkpt>
<trkpt lat="58.872558" lon="05.855633"><ele>24</ele><time>2012-03-31T12:57:43Z</time><cmt>5.2 kmh</cmt></trkpt>
<trkpt lat="58.872558" lon="05.855607"><ele>25</ele><time>2012-03-31T12:57:44Z</time><cmt>5.3 kmh</cmt></trkpt>
<trkpt lat="58.872559" lon="05.855580"><ele>25</ele><time>2012-03-31T12:57:45Z</time><cmt>5.5 kmh</cmt></trkpt>
<trkpt lat="58.872562" lon="05.855554"><ele>25</ele><time>2012-03-31T12:57:46Z</time><cmt>5.7 kmh</cmt></trkpt>
<trkpt lat="58.872568" lon="05.855527"><ele>25</ele><time>2012-03-31T12:57:47Z</time><cmt>5.8 kmh</cmt></trkpt>
<trkpt lat="58.872575" lon="05.855502"><ele>25</ele><time>2012-03-31T12:57:48Z</time><cmt>5.7 kmh</cmt></trkpt>
<trkpt lat="58.872582" lon="05.855477"><ele>25</ele><time>2012-03-31T12:57:49Z</time><cmt>6.1 kmh</cmt></trkpt>
<trkpt lat="58.872591" lon="05.855452"><ele>25</ele><time>2012-03-31T12:57:50Z</time><cmt>5.8 kmh</cmt></trkpt>
<trkpt lat="58.872600" lon="05.855428"><ele>25</ele><time>2012-03-31T12:57:51Z</time><cmt>5.9 kmh</cmt></trkpt>
<trkpt lat="58.872609" lon="05.855405"><ele>25</ele><time>2012-03-31T12:57:52Z</time><cmt>5.6 kmh</cmt></trkpt>
<trkpt lat="58.872618" lon="05.855383"><ele>25</ele><time>2012-03-31T12:57:53Z</time><cmt>5.7 kmh</cmt></trkpt>
<trkpt lat="58.872627" lon="05.855361"><ele>25</ele><time>2012-03-31T12:57:54Z</time><cmt>5.5 kmh</cmt></trkpt>
<trkpt lat="58.872637" lon="05.855339"><ele>25</ele><time>2012-03-31T12:57:55Z</time><cmt>5.8 kmh</cmt></trkpt>
<trkpt lat="58.872647" lon="05.855318"><ele>25</ele><time>2012-03-31T12:57:56Z</time><cmt>5.8 kmh</cmt></trkpt>
<trkpt lat="58.872656" lon="05.855296"><ele>25</ele><time>2012-03-31T12:57:57Z</time><cmt>5.8 kmh</cmt></trkpt>
<trkpt lat="58.872664" lon="05.855272"><ele>25</ele><time>2012-03-31T12:57:58Z</time><cmt>5.9 kmh</cmt></trkpt>
<trkpt lat="58.872673" lon="05.855248"><ele>25</ele><time>2012-03-31T12:57:59Z</time><cmt>6.4 kmh</cmt></trkpt>
<trkpt lat="58.872682" lon="05.855222"><ele>25</ele><time>2012-03-31T12:58:00Z</time><cmt>6.6 kmh</cmt></trkpt>
<trkpt lat="58.872692" lon="05.855195"><ele>25</ele><time>2012-03-31T12:58:01Z</time><cmt>6.6 kmh</cmt></trkpt>
<trkpt lat="58.872701" lon="05.855169"><ele>25</ele><time>2012-03-31T12:58:02Z</time><cmt>6.7 kmh</cmt></trkpt>
<trkpt lat="58.872711" lon="05.855142"><ele>25</ele><time>2012-03-31T12:58:03Z</time><cmt>6.8 kmh</cmt></trkpt>
<trkpt lat="58.872722" lon="05.855114"><ele>25</ele><time>2012-03-31T12:58:04Z</time><cmt>6.9 kmh</cmt></trkpt>
<trkpt lat="58.872732" lon="05.855088"><ele>25</ele><time>2012-03-31T12:58:05Z</time><cmt>6.7 kmh</cmt></trkpt>
<trkpt lat="58.872743" lon="05.855063"><ele>25</ele><time>2012-03-31T12:58:06Z</time><cmt>6.5 kmh</cmt></trkpt>
<trkpt lat="58.872754" lon="05.855037"><ele>25</ele><time>2012-03-31T12:58:07Z</time><cmt>6.4 kmh</cmt></trkpt>
<trkpt lat="58.872764" lon="05.855012"><ele>25</ele><time>2012-03-31T12:58:08Z</time><cmt>6.3 kmh</cmt></trkpt>
<trkpt lat="58.872774" lon="05.854986"><ele>25</ele><time>2012-03-31T12:58:09Z</time><cmt>6.2 kmh</cmt></trkpt>
<trkpt lat="58.872784" lon="05.854962"><ele>25</ele><time>2012-03-31T12:58:10Z</time><cmt>6.5 kmh</cmt></trkpt>
<trkpt lat="58.872794" lon="05.854937"><ele>25</ele><time>2012-03-31T12:58:11Z</time><cmt>6.4 kmh</cmt></trkpt>
<trkpt lat="58.872805" lon="05.854914"><ele>25</ele><time>2012-03-31T12:58:12Z</time><cmt>6.6 kmh</cmt></trkpt>
<trkpt lat="58.872817" lon="05.854889"><ele>24</ele><time>2012-03-31T12:58:13Z</time><cmt>6.9 kmh</cmt></trkpt>
<trkpt lat="58.872828" lon="05.854864"><ele>24</ele><time>2012-03-31T12:58:14Z</time><cmt>6.8 kmh</cmt></trkpt>
<trkpt lat="58.872839" lon="05.854838"><ele>24</ele><time>2012-03-31T12:58:15Z</time><cmt>6.3 kmh</cmt></trkpt>
<trkpt lat="58.872848" lon="05.854811"><ele>24</ele><time>2012-03-31T12:58:16Z</time><cmt>6.8 kmh</cmt></trkpt>
<trkpt lat="58.872857" lon="05.854783"><ele>24</ele><time>2012-03-31T12:58:17Z</time><cmt>6.5 kmh</cmt></trkpt>
<trkpt lat="58.872866" lon="05.854755"><ele>24</ele><time>2012-03-31T12:58:18Z</time><cmt>6.8 kmh</cmt></trkpt>
<trkpt lat="58.872876" lon="05.854727"><ele>24</ele><time>2012-03-31T12:58:19Z</time><cmt>6.8 kmh</cmt></trkpt>
<trkpt lat="58.872885" lon="05.854699"><ele>24</ele><time>2012-03-31T12:58:20Z</time><cmt>6.7 kmh</cmt></trkpt>
<trkpt lat="58.872894" lon="05.854671"><ele>24</ele><time>2012-03-31T12:58:21Z</time><cmt>6.8 kmh</cmt></trkpt>
<trkpt lat="58.872904" lon="05.854643"><ele>24</ele><time>2012-03-31T12:58:22Z</time><cmt>6.8 kmh</cmt></trkpt>
<trkpt lat="58.872913" lon="05.854616"><ele>24</ele><time>2012-03-31T12:58:23Z</time><cmt>6.4 kmh</cmt></trkpt>
<trkpt lat="58.872923" lon="05.854589"><ele>24</ele><time>2012-03-31T12:58:24Z</time><cmt>6.6 kmh</cmt></trkpt>
<trkpt lat="58.872933" lon="05.854564"><ele>24</ele><time>2012-03-31T12:58:25Z</time><cmt>6.5 kmh</cmt></trkpt>
<trkpt lat="58.872944" lon="05.854540"><ele>24</ele><time>2012-03-31T12:58:26Z</time><cmt>6.6 kmh</cmt></trkpt>
<trkpt lat="58.872956" lon="05.854515"><ele>24</ele><time>2012-03-31T12:58:27Z</time><cmt>6.8 kmh</cmt></trkpt>
<trkpt lat="58.872968" lon="05.854491"><ele>24</ele><time>2012-03-31T12:58:28Z</time><cmt>6.6 kmh</cmt></trkpt>
<trkpt lat="58.872979" lon="05.854468"><ele>24</ele><time>2012-03-31T12:58:29Z</time><cmt>6.3 kmh</cmt></trkpt>
<trkpt lat="58.872990" lon="05.854446"><ele>24</ele><time>2012-03-31T12:58:30Z</time><cmt>5.9 kmh</cmt></trkpt>
<trkpt lat="58.873001" lon="05.854424"><ele>24</ele><time>2012-03-31T12:58:31Z</time><cmt>6.2 kmh</cmt></trkpt>
<trkpt lat="58.873011" lon="05.854402"><ele>24</ele><time>2012-03-31T12:58:32Z</time><cmt>6.0 kmh</cmt></trkpt>
<trkpt lat="58.873021" lon="05.854380"><ele>24</ele><time>2012-03-31T12:58:33Z</time><cmt>5.7 kmh</cmt></trkpt>
<trkpt lat="58.873031" lon="05.854359"><ele>24</ele><time>2012-03-31T12:58:34Z</time><cmt>5.3 kmh</cmt></trkpt>
<trkpt lat="58.873039" lon="05.854339"><ele>24</ele><time>2012-03-31T12:58:35Z</time><cmt>5.3 kmh</cmt></trkpt>
<trkpt lat="58.873046" lon="05.854321"><ele>24</ele><time>2012-03-31T12:58:36Z</time><cmt>5.0 kmh</cmt></trkpt>
<trkpt lat="58.873051" lon="05.854304"><ele>24</ele><time>2012-03-31T12:58:37Z</time><cmt>4.7 kmh</cmt></trkpt>
<trkpt lat="58.873054" lon="05.854290"><ele>24</ele><time>2012-03-31T12:58:38Z</time><cmt>3.1 kmh</cmt></trkpt>
<trkpt lat="58.873056" lon="05.854277"><ele>24</ele><time>2012-03-31T12:58:39Z</time><cmt>2.5 kmh</cmt></trkpt>
<trkpt lat="58.873056" lon="05.854267"><ele>24</ele><time>2012-03-31T12:58:40Z</time><cmt>2.6 kmh</cmt></trkpt>
<trkpt lat="58.873054" lon="05.854257"><ele>24</ele><time>2012-03-31T12:58:41Z</time><cmt>2.3 kmh</cmt></trkpt>
<trkpt lat="58.873052" lon="05.854250"><ele>24</ele><time>2012-03-31T12:58:42Z</time><cmt>2.0 kmh</cmt></trkpt>
<trkpt lat="58.873050" lon="05.854244"><ele>24</ele><time>2012-03-31T12:58:43Z</time><cmt>1.7 kmh</cmt></trkpt>
<trkpt lat="58.873048" lon="05.854241"><ele>24</ele><time>2012-03-31T12:58:44Z</time><cmt>1.0 kmh</cmt></trkpt>
<trkpt lat="58.873046" lon="05.854241"><ele>24</ele><time>2012-03-31T12:58:45Z</time><cmt>0.8 kmh</cmt></trkpt>
<trkpt lat="58.873043" lon="05.854241"><ele>24</ele><time>2012-03-31T12:58:46Z</time><cmt>1.1 kmh</cmt></trkpt>
<trkpt lat="58.873040" lon="05.854242"><ele>24</ele><time>2012-03-31T12:58:47Z</time><cmt>1.2 kmh</cmt></trkpt>
<trkpt lat="58.873037" lon="05.854246"><ele>24</ele><time>2012-03-31T12:58:48Z</time><cmt>1.4 kmh</cmt></trkpt>
<trkpt lat="58.873034" lon="05.854252"><ele>24</ele><time>2012-03-31T12:58:49Z</time><cmt>1.7 kmh</cmt></trkpt>
<trkpt lat="58.873032" lon="05.854256"><ele>25</ele><time>2012-03-31T12:58:50Z</time><cmt>1.3 kmh</cmt></trkpt>
<trkpt lat="58.873030" lon="05.854256"><ele>25</ele><time>2012-03-31T12:58:51Z</time><cmt>0.8 kmh</cmt></trkpt>
<trkpt lat="58.873028" lon="05.854253"><ele>25</ele><time>2012-03-31T12:58:52Z</time><cmt>0.8 kmh</cmt></trkpt>
<trkpt lat="58.873027" lon="05.854247"><ele>25</ele><time>2012-03-31T12:58:53Z</time><cmt>1.2 kmh</cmt></trkpt>
<trkpt lat="58.873026" lon="05.854240"><ele>25</ele><time>2012-03-31T12:58:54Z</time><cmt>1.6 kmh</cmt></trkpt>
<trkpt lat="58.873025" lon="05.854231"><ele>25</ele><time>2012-03-31T12:58:55Z</time><cmt>1.8 kmh</cmt></trkpt>
<trkpt lat="58.873024" lon="05.854220"><ele>25</ele><time>2012-03-31T12:58:56Z</time><cmt>1.8 kmh</cmt></trkpt>
<trkpt lat="58.873024" lon="05.854208"><ele>25</ele><time>2012-03-31T12:58:57Z</time><cmt>2.1 kmh</cmt></trkpt>
<trkpt lat="58.873026" lon="05.854194"><ele>25</ele><time>2012-03-31T12:58:58Z</time><cmt>3.0 kmh</cmt></trkpt>
<trkpt lat="58.873029" lon="05.854179"><ele>25</ele><time>2012-03-31T12:58:59Z</time><cmt>3.3 kmh</cmt></trkpt>
<trkpt lat="58.873032" lon="05.854164"><ele>25</ele><time>2012-03-31T12:59:00Z</time><cmt>3.6 kmh</cmt></trkpt>
<trkpt lat="58.873036" lon="05.854150"><ele>25</ele><time>2012-03-31T12:59:01Z</time><cmt>3.7 kmh</cmt></trkpt>
<trkpt lat="58.873041" lon="05.854136"><ele>25</ele><time>2012-03-31T12:59:02Z</time><cmt>3.7 kmh</cmt></trkpt>
<trkpt lat="58.873045" lon="05.854124"><ele>25</ele><time>2012-03-31T12:59:03Z</time><cmt>2.8 kmh</cmt></trkpt>
<trkpt lat="58.873050" lon="05.854113"><ele>25</ele><time>2012-03-31T12:59:04Z</time><cmt>2.6 kmh</cmt></trkpt>
<trkpt lat="58.873054" lon="05.854104"><ele>25</ele><time>2012-03-31T12:59:05Z</time><cmt>2.9 kmh</cmt></trkpt>
<trkpt lat="58.873058" lon="05.854096"><ele>25</ele><time>2012-03-31T12:59:06Z</time><cmt>2.7 kmh</cmt></trkpt>
<trkpt lat="58.873062" lon="05.854090"><ele>25</ele><time>2012-03-31T12:59:07Z</time><cmt>2.4 kmh</cmt></trkpt>
<trkpt lat="58.873066" lon="05.854085"><ele>25</ele><time>2012-03-31T12:59:08Z</time><cmt>2.1 kmh</cmt></trkpt>
<trkpt lat="58.873070" lon="05.854081"><ele>25</ele><time>2012-03-31T12:59:09Z</time><cmt>1.5 kmh</cmt></trkpt>
<trkpt lat="58.873073" lon="05.854079"><ele>25</ele><time>2012-03-31T12:59:10Z</time><cmt>1.3 kmh</cmt></trkpt>
<trkpt lat="58.873075" lon="05.854078"><ele>25</ele><time>2012-03-31T12:59:11Z</time><cmt>1.2 kmh</cmt></trkpt>
<trkpt lat="58.873077" lon="05.854077"><ele>25</ele><time>2012-03-31T12:59:12Z</time><cmt>0.9 kmh</cmt></trkpt>
<trkpt lat="58.873079" lon="05.854078"><ele>25</ele><time>2012-03-31T12:59:13Z</time><cmt>0.9 kmh</cmt></trkpt>
<trkpt lat="58.873081" lon="05.854079"><ele>25</ele><time>2012-03-31T12:59:14Z</time><cmt>0.8 kmh</cmt></trkpt>
<trkpt lat="58.873082" lon="05.854081"><ele>25</ele><time>2012-03-31T12:59:15Z</time><cmt>0.5 kmh</cmt></trkpt>
<trkpt lat="58.873083" lon="05.854083"><ele>25</ele><time>2012-03-31T12:59:16Z</time><cmt>0.4 kmh</cmt></trkpt>
<trkpt lat="58.873083" lon="05.854085"><ele>25</ele><time>2012-03-31T12:59:17Z</time><cmt>0.5 kmh</cmt></trkpt>
<trkpt lat="58.873083" lon="05.854088"><ele>25</ele><time>2012-03-31T12:59:18Z</time><cmt>0.6 kmh</cmt></trkpt>
<trkpt lat="58.873083" lon="05.854091"><ele>25</ele><time>2012-03-31T12:59:19Z</time><cmt>0.7 kmh</cmt></trkpt>
<trkpt lat="58.873083" lon="05.854096"><ele>25</ele><time>2012-03-31T12:59:20Z</time><cmt>1.0 kmh</cmt></trkpt>
<trkpt lat="58.873084" lon="05.854103"><ele>25</ele><time>2012-03-31T12:59:21Z</time><cmt>1.0 kmh</cmt></trkpt>
<trkpt lat="58.873084" lon="05.854111"><ele>25</ele><time>2012-03-31T12:59:22Z</time><cmt>1.2 kmh</cmt></trkpt>
<trkpt lat="58.873083" lon="05.854118"><ele>25</ele><time>2012-03-31T12:59:23Z</time><cmt>1.7 kmh</cmt></trkpt>
<trkpt lat="58.873083" lon="05.854125"><ele>25</ele><time>2012-03-31T12:59:24Z</time><cmt>1.6 kmh</cmt></trkpt>
<trkpt lat="58.873082" lon="05.854131"><ele>25</ele><time>2012-03-31T12:59:25Z</time><cmt>1.5 kmh</cmt></trkpt>
<trkpt lat="58.873082" lon="05.854138"><ele>25</ele><time>2012-03-31T12:59:26Z</time><cmt>1.5 kmh</cmt></trkpt>
<trkpt lat="58.873083" lon="05.854142"><ele>25</ele><time>2012-03-31T12:59:27Z</time><cmt>1.3 kmh</cmt></trkpt>
<trkpt lat="58.873088" lon="05.854144"><ele>25</ele><time>2012-03-31T12:59:28Z</time><cmt>1.3 kmh</cmt></trkpt>
<trkpt lat="58.873095" lon="05.854145"><ele>25</ele><time>2012-03-31T12:59:29Z</time><cmt>2.0 kmh</cmt></trkpt>
<trkpt lat="58.873104" lon="05.854144"><ele>25</ele><time>2012-03-31T12:59:30Z</time><cmt>3.5 kmh</cmt></trkpt>
<trkpt lat="58.873115" lon="05.854140"><ele>25</ele><time>2012-03-31T12:59:31Z</time><cmt>5.3 kmh</cmt></trkpt>
<trkpt lat="58.873128" lon="05.854134"><ele>25</ele><time>2012-03-31T12:59:32Z</time><cmt>5.3 kmh</cmt></trkpt>
<trkpt lat="58.873141" lon="05.854128"><ele>25</ele><time>2012-03-31T12:59:33Z</time><cmt>6.0 kmh</cmt></trkpt>
<trkpt lat="58.873155" lon="05.854118"><ele>25</ele><time>2012-03-31T12:59:34Z</time><cmt>5.5 kmh</cmt></trkpt>
<trkpt lat="58.873168" lon="05.854107"><ele>25</ele><time>2012-03-31T12:59:35Z</time><cmt>5.9 kmh</cmt></trkpt>
<trkpt lat="58.873181" lon="05.854095"><ele>25</ele><time>2012-03-31T12:59:36Z</time><cmt>5.6 kmh</cmt></trkpt>
<trkpt lat="58.873194" lon="05.854080"><ele>25</ele><time>2012-03-31T12:59:37Z</time><cmt>6.0 kmh</cmt></trkpt>
<trkpt lat="58.873208" lon="05.854065"><ele>25</ele><time>2012-03-31T12:59:38Z</time><cmt>6.1 kmh</cmt></trkpt>
<trkpt lat="58.873221" lon="05.854048"><ele>25</ele><time>2012-03-31T12:59:39Z</time><cmt>6.2 kmh</cmt></trkpt>
<trkpt lat="58.873234" lon="05.854031"><ele>25</ele><time>2012-03-31T12:59:40Z</time><cmt>6.2 kmh</cmt></trkpt>
<trkpt lat="58.873247" lon="05.854015"><ele>25</ele><time>2012-03-31T12:59:41Z</time><cmt>6.3 kmh</cmt></trkpt>
<trkpt lat="58.873260" lon="05.853997"><ele>25</ele><time>2012-03-31T12:59:42Z</time><cmt>6.6 kmh</cmt></trkpt>
<trkpt lat="58.873273" lon="05.853977"><ele>25</ele><time>2012-03-31T12:59:43Z</time><cmt>6.6 kmh</cmt></trkpt>
<trkpt lat="58.873287" lon="05.853956"><ele>25</ele><time>2012-03-31T12:59:44Z</time><cmt>6.8 kmh</cmt></trkpt>
<trkpt lat="58.873300" lon="05.853935"><ele>25</ele><time>2012-03-31T12:59:45Z</time><cmt>6.8 kmh</cmt></trkpt>
<trkpt lat="58.873314" lon="05.853913"><ele>25</ele><time>2012-03-31T12:59:46Z</time><cmt>7.1 kmh</cmt></trkpt>
<trkpt lat="58.873328" lon="05.853891"><ele>25</ele><time>2012-03-31T12:59:47Z</time><cmt>7.3 kmh</cmt></trkpt>
<trkpt lat="58.873342" lon="05.853868"><ele>25</ele><time>2012-03-31T12:59:48Z</time><cmt>7.3 kmh</cmt></trkpt>
<trkpt lat="58.873356" lon="05.853844"><ele>25</ele><time>2012-03-31T12:59:49Z</time><cmt>7.4 kmh</cmt></trkpt>
<trkpt lat="58.873369" lon="05.853820"><ele>25</ele><time>2012-03-31T12:59:50Z</time><cmt>7.1 kmh</cmt></trkpt>
<trkpt lat="58.873383" lon="05.853796"><ele>25</ele><time>2012-03-31T12:59:51Z</time><cmt>7.2 kmh</cmt></trkpt>
<trkpt lat="58.873397" lon="05.853772"><ele>25</ele><time>2012-03-31T12:59:52Z</time><cmt>7.2 kmh</cmt></trkpt>
<trkpt lat="58.873410" lon="05.853748"><ele>25</ele><time>2012-03-31T12:59:53Z</time><cmt>7.3 kmh</cmt></trkpt>
<trkpt lat="58.873424" lon="05.853723"><ele>25</ele><time>2012-03-31T12:59:54Z</time><cmt>7.3 kmh</cmt></trkpt>
<trkpt lat="58.873437" lon="05.853698"><ele>24</ele><time>2012-03-31T12:59:55Z</time><cmt>7.2 kmh</cmt></trkpt>
<trkpt lat="58.873450" lon="05.853675"><ele>24</ele><time>2012-03-31T12:59:56Z</time><cmt>6.9 kmh</cmt></trkpt>
<trkpt lat="58.873463" lon="05.853651"><ele>24</ele><time>2012-03-31T12:59:57Z</time><cmt>6.6 kmh</cmt></trkpt>
<trkpt lat="58.873475" lon="05.853628"><ele>24</ele><time>2012-03-31T12:59:58Z</time><cmt>6.8 kmh</cmt></trkpt>
<trkpt lat="58.873488" lon="05.853605"><ele>24</ele><time>2012-03-31T12:59:59Z</time><cmt>7.0 kmh</cmt></trkpt>
<trkpt lat="58.873500" lon="05.853581"><ele>24</ele><time>2012-03-31T13:00:00Z</time><cmt>6.8 kmh</cmt></trkpt>
<trkpt lat="58.873513" lon="05.853557"><ele>24</ele><time>2012-03-31T13:00:01Z</time><cmt>7.2 kmh</cmt></trkpt>
<trkpt lat="58.873526" lon="05.853533"><ele>24</ele><time>2012-03-31T13:00:02Z</time><cmt>7.0 kmh</cmt></trkpt>
<trkpt lat="58.873539" lon="05.853509"><ele>24</ele><time>2012-03-31T13:00:03Z</time><cmt>7.3 kmh</cmt></trkpt>
<trkpt lat="58.873553" lon="05.853483"><ele>24</ele><time>2012-03-31T13:00:04Z</time><cmt>7.5 kmh</cmt></trkpt>
<trkpt lat="58.873567" lon="05.853457"><ele>24</ele><time>2012-03-31T13:00:05Z</time><cmt>7.8 kmh</cmt></trkpt>
<trkpt lat="58.873581" lon="05.853430"><ele>24</ele><time>2012-03-31T13:00:06Z</time><cmt>8.0 kmh</cmt></trkpt>
<trkpt lat="58.873595" lon="05.853402"><ele>24</ele><time>2012-03-31T13:00:07Z</time><cmt>8.0 kmh</cmt></trkpt>
<trkpt lat="58.873609" lon="05.853375"><ele>24</ele><time>2012-03-31T13:00:08Z</time><cmt>7.7 kmh</cmt></trkpt>
<trkpt lat="58.873624" lon="05.853348"><ele>24</ele><time>2012-03-31T13:00:09Z</time><cmt>7.9 kmh</cmt></trkpt>
<trkpt lat="58.873638" lon="05.853321"><ele>24</ele><time>2012-03-31T13:00:10Z</time><cmt>7.7 kmh</cmt></trkpt>
<trkpt lat="58.873651" lon="05.853293"><ele>24</ele><time>2012-03-31T13:00:11Z</time><cmt>7.6 kmh</cmt></trkpt>
<trkpt lat="58.873665" lon="05.853267"><ele>24</ele><time>2012-03-31T13:00:12Z</time><cmt>7.3 kmh</cmt></trkpt>
<trkpt lat="58.873679" lon="05.853243"><ele>24</ele><time>2012-03-31T13:00:13Z</time><cmt>7.4 kmh</cmt></trkpt>
<trkpt lat="58.873693" lon="05.853218"><ele>24</ele><time>2012-03-31T13:00:14Z</time><cmt>7.3 kmh</cmt></trkpt>
<trkpt lat="58.873705" lon="05.853192"><ele>24</ele><time>2012-03-31T13:00:15Z</time><cmt>6.9 kmh</cmt></trkpt>
<trkpt lat="58.873718" lon="05.853168"><ele>24</ele><time>2012-03-31T13:00:16Z</time><cmt>7.2 kmh</cmt></trkpt>
<trkpt lat="58.873732" lon="05.853143"><ele>23</ele><time>2012-03-31T13:00:17Z</time><cmt>7.2 kmh</cmt></trkpt>
<trkpt lat="58.873745" lon="05.853119"><ele>23</ele><time>2012-03-31T13:00:18Z</time><cmt>7.1 kmh</cmt></trkpt>
<trkpt lat="58.873757" lon="05.853095"><ele>23</ele><time>2012-03-31T13:00:19Z</time><cmt>6.8 kmh</cmt></trkpt>
<trkpt lat="58.873769" lon="05.853072"><ele>23</ele><time>2012-03-31T13:00:20Z</time><cmt>6.7 kmh</cmt></trkpt>
<trkpt lat="58.873782" lon="05.853049"><ele>23</ele><time>2012-03-31T13:00:21Z</time><cmt>6.7 kmh</cmt></trkpt>
<trkpt lat="58.873795" lon="05.853026"><ele>23</ele><time>2012-03-31T13:00:22Z</time><cmt>7.0 kmh</cmt></trkpt>
<trkpt lat="58.873809" lon="05.853004"><ele>23</ele><time>2012-03-31T13:00:23Z</time><cmt>7.3 kmh</cmt></trkpt>
<trkpt lat="58.873823" lon="05.852982"><ele>23</ele><time>2012-03-31T13:00:24Z</time><cmt>7.3 kmh</cmt></trkpt>
<trkpt lat="58.873838" lon="05.852959"><ele>23</ele><time>2012-03-31T13:00:25Z</time><cmt>7.5 kmh</cmt></trkpt>
<trkpt lat="58.873852" lon="05.852936"><ele>23</ele><time>2012-03-31T13:00:26Z</time><cmt>7.5 kmh</cmt></trkpt>
<trkpt lat="58.873867" lon="05.852912"><ele>23</ele><time>2012-03-31T13:00:27Z</time><cmt>7.5 kmh</cmt></trkpt>
<trkpt lat="58.873881" lon="05.852888"><ele>23</ele><time>2012-03-31T13:00:28Z</time><cmt>7.2 kmh</cmt></trkpt>
<trkpt lat="58.873895" lon="05.852864"><ele>23</ele><time>2012-03-31T13:00:29Z</time><cmt>7.5 kmh</cmt></trkpt>
<trkpt lat="58.873909" lon="05.852840"><ele>23</ele><time>2012-03-31T13:00:30Z</time><cmt>7.1 kmh</cmt></trkpt>
<trkpt lat="58.873923" lon="05.852816"><ele>23</ele><time>2012-03-31T13:00:31Z</time><cmt>7.0 kmh</cmt></trkpt>
<trkpt lat="58.873936" lon="05.852793"><ele>23</ele><time>2012-03-31T13:00:32Z</time><cmt>6.8 kmh</cmt></trkpt>
<trkpt lat="58.873949" lon="05.852771"><ele>23</ele><time>2012-03-31T13:00:33Z</time><cmt>6.7 kmh</cmt></trkpt>
<trkpt lat="58.873962" lon="05.852749"><ele>23</ele><time>2012-03-31T13:00:34Z</time><cmt>6.4 kmh</cmt></trkpt>
<trkpt lat="58.873974" lon="05.852729"><ele>23</ele><time>2012-03-31T13:00:35Z</time><cmt>5.9 kmh</cmt></trkpt>
<trkpt lat="58.873986" lon="05.852708"><ele>23</ele><time>2012-03-31T13:00:36Z</time><cmt>6.3 kmh</cmt></trkpt>
<trkpt lat="58.873997" lon="05.852688"><ele>23</ele><time>2012-03-31T13:00:37Z</time><cmt>6.2 kmh</cmt></trkpt>
<trkpt lat="58.874009" lon="05.852667"><ele>23</ele><time>2012-03-31T13:00:38Z</time><cmt>6.3 kmh</cmt></trkpt>
<trkpt lat="58.874021" lon="05.852646"><ele>23</ele><time>2012-03-31T13:00:39Z</time><cmt>6.5 kmh</cmt></trkpt>
<trkpt lat="58.874033" lon="05.852624"><ele>23</ele><time>2012-03-31T13:00:40Z</time><cmt>6.7 kmh</cmt></trkpt>
<trkpt lat="58.874045" lon="05.852602"><ele>23</ele><time>2012-03-31T13:00:41Z</time><cmt>6.8 kmh</cmt></trkpt>
<trkpt lat="58.874058" lon="05.852579"><ele>22</ele><time>2012-03-31T13:00:42Z</time><cmt>6.9 kmh</cmt></trkpt>
<trkpt lat="58.874072" lon="05.852557"><ele>22</ele><time>2012-03-31T13:00:43Z</time><cmt>7.3 kmh</cmt></trkpt>
<trkpt lat="58.874085" lon="05.852534"><ele>22</ele><time>2012-03-31T13:00:44Z</time><cmt>6.9 kmh</cmt></trkpt>
<trkpt lat="58.874099" lon="05.852511"><ele>22</ele><time>2012-03-31T13:00:45Z</time><cmt>7.0 kmh</cmt></trkpt>
<trkpt lat="58.874112" lon="05.852489"><ele>22</ele><time>2012-03-31T13:00:46Z</time><cmt>7.2 kmh</cmt></trkpt>
<trkpt lat="58.874126" lon="05.852466"><ele>22</ele><time>2012-03-31T13:00:47Z</time><cmt>6.9 kmh</cmt></trkpt>
<trkpt lat="58.874139" lon="05.852443"><ele>22</ele><time>2012-03-31T13:00:48Z</time><cmt>6.9 kmh</cmt></trkpt>
<trkpt lat="58.874151" lon="05.852420"><ele>22</ele><time>2012-03-31T13:00:49Z</time><cmt>6.8 kmh</cmt></trkpt>
<trkpt lat="58.874164" lon="05.852396"><ele>22</ele><time>2012-03-31T13:00:50Z</time><cmt>6.8 kmh</cmt></trkpt>
<trkpt lat="58.874176" lon="05.852371"><ele>22</ele><time>2012-03-31T13:00:51Z</time><cmt>6.9 kmh</cmt></trkpt>
<trkpt lat="58.874187" lon="05.852346"><ele>22</ele><time>2012-03-31T13:00:52Z</time><cmt>6.7 kmh</cmt></trkpt>
<trkpt lat="58.874198" lon="05.852321"><ele>22</ele><time>2012-03-31T13:00:53Z</time><cmt>6.6 kmh</cmt></trkpt>
<trkpt lat="58.874208" lon="05.852295"><ele>22</ele><time>2012-03-31T13:00:54Z</time><cmt>6.3 kmh</cmt></trkpt>
<trkpt lat="58.874218" lon="05.852271"><ele>22</ele><time>2012-03-31T13:00:55Z</time><cmt>5.9 kmh</cmt></trkpt>
<trkpt lat="58.874228" lon="05.852248"><ele>22</ele><time>2012-03-31T13:00:56Z</time><cmt>6.0 kmh</cmt></trkpt>
<trkpt lat="58.874238" lon="05.852224"><ele>22</ele><time>2012-03-31T13:00:57Z</time><cmt>6.5 kmh</cmt></trkpt>
<trkpt lat="58.874248" lon="05.852199"><ele>22</ele><time>2012-03-31T13:00:58Z</time><cmt>6.5 kmh</cmt></trkpt>
<trkpt lat="58.874258" lon="05.852173"><ele>22</ele><time>2012-03-31T13:00:59Z</time><cmt>6.8 kmh</cmt></trkpt>
<trkpt lat="58.874269" lon="05.852147"><ele>22</ele><time>2012-03-31T13:01:00Z</time><cmt>6.8 kmh</cmt></trkpt>
<trkpt lat="58.874280" lon="05.852121"><ele>22</ele><time>2012-03-31T13:01:01Z</time><cmt>6.8 kmh</cmt></trkpt>
<trkpt lat="58.874291" lon="05.852095"><ele>22</ele><time>2012-03-31T13:01:02Z</time><cmt>6.8 kmh</cmt></trkpt>
<trkpt lat="58.874301" lon="05.852067"><ele>22</ele><time>2012-03-31T13:01:03Z</time><cmt>6.8 kmh</cmt></trkpt>
<trkpt lat="58.874311" lon="05.852039"><ele>22</ele><time>2012-03-31T13:01:04Z</time><cmt>7.3 kmh</cmt></trkpt>
<trkpt lat="58.874321" lon="05.852013"><ele>22</ele><time>2012-03-31T13:01:05Z</time><cmt>7.3 kmh</cmt></trkpt>
<trkpt lat="58.874333" lon="05.851985"><ele>22</ele><time>2012-03-31T13:01:06Z</time><cmt>7.4 kmh</cmt></trkpt>
<trkpt lat="58.874345" lon="05.851958"><ele>22</ele><time>2012-03-31T13:01:07Z</time><cmt>7.2 kmh</cmt></trkpt>
<trkpt lat="58.874357" lon="05.851930"><ele>22</ele><time>2012-03-31T13:01:08Z</time><cmt>7.3 kmh</cmt></trkpt>
<trkpt lat="58.874369" lon="05.851902"><ele>22</ele><time>2012-03-31T13:01:09Z</time><cmt>7.5 kmh</cmt></trkpt>
<trkpt lat="58.874382" lon="05.851875"><ele>22</ele><time>2012-03-31T13:01:10Z</time><cmt>7.2 kmh</cmt></trkpt>
<trkpt lat="58.874394" lon="05.851848"><ele>22</ele><time>2012-03-31T13:01:11Z</time><cmt>7.2 kmh</cmt></trkpt>
<trkpt lat="58.874407" lon="05.851821"><ele>21</ele><time>2012-03-31T13:01:12Z</time><cmt>7.4 kmh</cmt></trkpt>
<trkpt lat="58.874419" lon="05.851794"><ele>21</ele><time>2012-03-31T13:01:13Z</time><cmt>7.4 kmh</cmt></trkpt>
<trkpt lat="58.874432" lon="05.851766"><ele>21</ele><time>2012-03-31T13:01:14Z</time><cmt>7.5 kmh</cmt></trkpt>
<trkpt lat="58.874445" lon="05.851739"><ele>21</ele><time>2012-03-31T13:01:15Z</time><cmt>7.3 kmh</cmt></trkpt>
<trkpt lat="58.874458" lon="05.851711"><ele>21</ele><time>2012-03-31T13:01:16Z</time><cmt>7.7 kmh</cmt></trkpt>
<trkpt lat="58.874471" lon="05.851682"><ele>21</ele><time>2012-03-31T13:01:17Z</time><cmt>7.9 kmh</cmt></trkpt>
<trkpt lat="58.874484" lon="05.851654"><ele>21</ele><time>2012-03-31T13:01:18Z</time><cmt>7.6 kmh</cmt></trkpt>
<trkpt lat="58.874497" lon="05.851625"><ele>21</ele><time>2012-03-31T13:01:19Z</time><cmt>7.9 kmh</cmt></trkpt>
<trkpt lat="58.874510" lon="05.851596"><ele>21</ele><time>2012-03-31T13:01:20Z</time><cmt>7.7 kmh</cmt></trkpt>
<trkpt lat="58.874523" lon="05.851568"><ele>21</ele><time>2012-03-31T13:01:21Z</time><cmt>7.6 kmh</cmt></trkpt>
<trkpt lat="58.874537" lon="05.851541"><ele>21</ele><time>2012-03-31T13:01:22Z</time><cmt>7.2 kmh</cmt></trkpt>
<trkpt lat="58.874550" lon="05.851515"><ele>21</ele><time>2012-03-31T13:01:23Z</time><cmt>7.3 kmh</cmt></trkpt>
<trkpt lat="58.874564" lon="05.851491"><ele>21</ele><time>2012-03-31T13:01:24Z</time><cmt>6.9 kmh</cmt></trkpt>
<trkpt lat="58.874577" lon="05.851468"><ele>21</ele><time>2012-03-31T13:01:25Z</time><cmt>6.9 kmh</cmt></trkpt>
<trkpt lat="58.874590" lon="05.851446"><ele>21</ele><time>2012-03-31T13:01:26Z</time><cmt>6.6 kmh</cmt></trkpt>
<trkpt lat="58.874604" lon="05.851425"><ele>21</ele><time>2012-03-31T13:01:27Z</time><cmt>6.4 kmh</cmt></trkpt>
<trkpt lat="58.874617" lon="05.851406"><ele>21</ele><time>2012-03-31T13:01:28Z</time><cmt>6.3 kmh</cmt></trkpt>
<trkpt lat="58.874628" lon="05.851389"><ele>21</ele><time>2012-03-31T13:01:29Z</time><cmt>6.1 kmh</cmt></trkpt>
<trkpt lat="58.874640" lon="05.851370"><ele>21</ele><time>2012-03-31T13:01:30Z</time><cmt>5.9 kmh</cmt></trkpt>
<trkpt lat="58.874652" lon="05.851352"><ele>20</ele><time>2012-03-31T13:01:31Z</time><cmt>5.9 kmh</cmt></trkpt>
<trkpt lat="58.874666" lon="05.851333"><ele>20</ele><time>2012-03-31T13:01:32Z</time><cmt>5.9 kmh</cmt></trkpt>
<trkpt lat="58.874679" lon="05.851316"><ele>20</ele><time>2012-03-31T13:01:33Z</time><cmt>5.8 kmh</cmt></trkpt>
<trkpt lat="58.874691" lon="05.851301"><ele>20</ele><time>2012-03-31T13:01:34Z</time><cmt>5.9 kmh</cmt></trkpt>
<trkpt lat="58.874704" lon="05.851286"><ele>20</ele><time>2012-03-31T13:01:35Z</time><cmt>5.7 kmh</cmt></trkpt>
<trkpt lat="58.874716" lon="05.851270"><ele>20</ele><time>2012-03-31T13:01:36Z</time><cmt>6.1 kmh</cmt></trkpt>
<trkpt lat="58.874729" lon="05.851254"><ele>20</ele><time>2012-03-31T13:01:37Z</time><cmt>6.2 kmh</cmt></trkpt>
<trkpt lat="58.874742" lon="05.851238"><ele>20</ele><time>2012-03-31T13:01:38Z</time><cmt>6.5 kmh</cmt></trkpt>
<trkpt lat="58.874755" lon="05.851222"><ele>20</ele><time>2012-03-31T13:01:39Z</time><cmt>6.4 kmh</cmt></trkpt>
<trkpt lat="58.874769" lon="05.851205"><ele>20</ele><time>2012-03-31T13:01:40Z</time><cmt>6.3 kmh</cmt></trkpt>
<trkpt lat="58.874782" lon="05.851188"><ele>20</ele><time>2012-03-31T13:01:41Z</time><cmt>6.3 kmh</cmt></trkpt>
<trkpt lat="58.874804" lon="05.851158"><ele>20</ele><time>2012-03-31T13:01:43Z</time><cmt>6.2 kmh</cmt></trkpt>
<trkpt lat="58.874827" lon="05.851119"><ele>19</ele><time>2012-03-31T13:01:45Z</time><cmt>5.3 kmh</cmt></trkpt>
<trkpt lat="58.874846" lon="05.851085"><ele>19</ele><time>2012-03-31T13:01:47Z</time><cmt>5.3 kmh</cmt></trkpt>
<trkpt lat="58.874872" lon="05.851034"><ele>19</ele><time>2012-03-31T13:01:51Z</time><cmt>5.0 kmh</cmt></trkpt>
<trkpt lat="58.874876" lon="05.851028"><ele>19</ele><time>2012-03-31T13:01:52Z</time><cmt>5.0 kmh</cmt></trkpt>
<trkpt lat="58.874880" lon="05.851021"><ele>19</ele><time>2012-03-31T13:01:53Z</time><cmt>2.1 kmh</cmt></trkpt>
<trkpt lat="58.874884" lon="05.851011"><ele>19</ele><time>2012-03-31T13:01:54Z</time><cmt>2.6 kmh</cmt></trkpt>
<trkpt lat="58.874889" lon="05.851002"><ele>19</ele><time>2012-03-31T13:01:55Z</time><cmt>3.0 kmh</cmt></trkpt>
<trkpt lat="58.874895" lon="05.850991"><ele>19</ele><time>2012-03-31T13:01:56Z</time><cmt>2.6 kmh</cmt></trkpt>
<trkpt lat="58.874901" lon="05.850979"><ele>19</ele><time>2012-03-31T13:01:57Z</time><cmt>2.9 kmh</cmt></trkpt>
<trkpt lat="58.874907" lon="05.850964"><ele>19</ele><time>2012-03-31T13:01:58Z</time><cmt>4.0 kmh</cmt></trkpt>
<trkpt lat="58.874914" lon="05.850947"><ele>19</ele><time>2012-03-31T13:01:59Z</time><cmt>4.5 kmh</cmt></trkpt>
<trkpt lat="58.874922" lon="05.850930"><ele>19</ele><time>2012-03-31T13:02:00Z</time><cmt>5.0 kmh</cmt></trkpt>
<trkpt lat="58.874930" lon="05.850911"><ele>19</ele><time>2012-03-31T13:02:01Z</time><cmt>5.0 kmh</cmt></trkpt>
<trkpt lat="58.874939" lon="05.850892"><ele>19</ele><time>2012-03-31T13:02:02Z</time><cmt>5.2 kmh</cmt></trkpt>
<trkpt lat="58.874949" lon="05.850874"><ele>19</ele><time>2012-03-31T13:02:03Z</time><cmt>5.5 kmh</cmt></trkpt>
<trkpt lat="58.874960" lon="05.850856"><ele>19</ele><time>2012-03-31T13:02:04Z</time><cmt>6.2 kmh</cmt></trkpt>
<trkpt lat="58.874973" lon="05.850839"><ele>19</ele><time>2012-03-31T13:02:05Z</time><cmt>6.8 kmh</cmt></trkpt>
<trkpt lat="58.874987" lon="05.850823"><ele>19</ele><time>2012-03-31T13:02:06Z</time><cmt>7.0 kmh</cmt></trkpt>
<trkpt lat="58.875005" lon="05.850803"><ele>19</ele><time>2012-03-31T13:02:07Z</time><cmt>7.8 kmh</cmt></trkpt>
<trkpt lat="58.875022" lon="05.850786"><ele>19</ele><time>2012-03-31T13:02:08Z</time><cmt>7.9 kmh</cmt></trkpt>
<trkpt lat="58.875037" lon="05.850770"><ele>19</ele><time>2012-03-31T13:02:09Z</time><cmt>5.1 kmh</cmt></trkpt>
<trkpt lat="58.875049" lon="05.850758"><ele>19</ele><time>2012-03-31T13:02:10Z</time><cmt>5.1 kmh</cmt></trkpt>
<trkpt lat="58.875058" lon="05.850748"><ele>19</ele><time>2012-03-31T13:02:11Z</time><cmt>5.0 kmh</cmt></trkpt>
<trkpt lat="58.875067" lon="05.850739"><ele>19</ele><time>2012-03-31T13:02:12Z</time><cmt>4.6 kmh</cmt></trkpt>
<trkpt lat="58.875076" lon="05.850731"><ele>19</ele><time>2012-03-31T13:02:13Z</time><cmt>4.2 kmh</cmt></trkpt>
<trkpt lat="58.875083" lon="05.850724"><ele>19</ele><time>2012-03-31T13:02:14Z</time><cmt>3.7 kmh</cmt></trkpt>
<trkpt lat="58.875090" lon="05.850719"><ele>19</ele><time>2012-03-31T13:02:15Z</time><cmt>2.7 kmh</cmt></trkpt>
<trkpt lat="58.875097" lon="05.850712"><ele>19</ele><time>2012-03-31T13:02:16Z</time><cmt>2.7 kmh</cmt></trkpt>
<trkpt lat="58.875106" lon="05.850703"><ele>19</ele><time>2012-03-31T13:02:17Z</time><cmt>3.8 kmh</cmt></trkpt>
<trkpt lat="58.875116" lon="05.850691"><ele>19</ele><time>2012-03-31T13:02:18Z</time><cmt>5.4 kmh</cmt></trkpt>
<trkpt lat="58.875127" lon="05.850676"><ele>19</ele><time>2012-03-31T13:02:19Z</time><cmt>6.2 kmh</cmt></trkpt>
<trkpt lat="58.875140" lon="05.850656"><ele>19</ele><time>2012-03-31T13:02:20Z</time><cmt>7.1 kmh</cmt></trkpt>
<trkpt lat="58.875154" lon="05.850634"><ele>19</ele><time>2012-03-31T13:02:21Z</time><cmt>7.2 kmh</cmt></trkpt>
<trkpt lat="58.875168" lon="05.850610"><ele>19</ele><time>2012-03-31T13:02:22Z</time><cmt>7.9 kmh</cmt></trkpt>
<trkpt lat="58.875184" lon="05.850586"><ele>19</ele><time>2012-03-31T13:02:23Z</time><cmt>8.1 kmh</cmt></trkpt>
<trkpt lat="58.875200" lon="05.850561"><ele>19</ele><time>2012-03-31T13:02:24Z</time><cmt>7.9 kmh</cmt></trkpt>
<trkpt lat="58.875216" lon="05.850536"><ele>19</ele><time>2012-03-31T13:02:25Z</time><cmt>7.9 kmh</cmt></trkpt>
<trkpt lat="58.875230" lon="05.850511"><ele>20</ele><time>2012-03-31T13:02:26Z</time><cmt>7.2 kmh</cmt></trkpt>
<trkpt lat="58.875243" lon="05.850487"><ele>20</ele><time>2012-03-31T13:02:27Z</time><cmt>6.5 kmh</cmt></trkpt>
<trkpt lat="58.875255" lon="05.850465"><ele>20</ele><time>2012-03-31T13:02:28Z</time><cmt>5.9 kmh</cmt></trkpt>
<trkpt lat="58.875265" lon="05.850443"><ele>20</ele><time>2012-03-31T13:02:29Z</time><cmt>5.2 kmh</cmt></trkpt>
<trkpt lat="58.875273" lon="05.850423"><ele>20</ele><time>2012-03-31T13:02:30Z</time><cmt>5.2 kmh</cmt></trkpt>
<trkpt lat="58.875278" lon="05.850405"><ele>20</ele><time>2012-03-31T13:02:31Z</time><cmt>5.0 kmh</cmt></trkpt>
<trkpt lat="58.875284" lon="05.850388"><ele>20</ele><time>2012-03-31T13:02:32Z</time><cmt>4.7 kmh</cmt></trkpt>
<trkpt lat="58.875289" lon="05.850372"><ele>20</ele><time>2012-03-31T13:02:33Z</time><cmt>3.5 kmh</cmt></trkpt>
<trkpt lat="58.875294" lon="05.850359"><ele>20</ele><time>2012-03-31T13:02:34Z</time><cmt>3.1 kmh</cmt></trkpt>
<trkpt lat="58.875300" lon="05.850348"><ele>20</ele><time>2012-03-31T13:02:35Z</time><cmt>3.6 kmh</cmt></trkpt>
<trkpt lat="58.875305" lon="05.850336"><ele>20</ele><time>2012-03-31T13:02:36Z</time><cmt>3.5 kmh</cmt></trkpt>
<trkpt lat="58.875312" lon="05.850325"><ele>20</ele><time>2012-03-31T13:02:37Z</time><cmt>3.6 kmh</cmt></trkpt>
<trkpt lat="58.875319" lon="05.850314"><ele>20</ele><time>2012-03-31T13:02:38Z</time><cmt>3.8 kmh</cmt></trkpt>
<trkpt lat="58.875326" lon="05.850304"><ele>20</ele><time>2012-03-31T13:02:39Z</time><cmt>3.1 kmh</cmt></trkpt>
<trkpt lat="58.875334" lon="05.850292"><ele>20</ele><time>2012-03-31T13:02:40Z</time><cmt>3.3 kmh</cmt></trkpt>
<trkpt lat="58.875343" lon="05.850281"><ele>20</ele><time>2012-03-31T13:02:41Z</time><cmt>4.4 kmh</cmt></trkpt>
<trkpt lat="58.875352" lon="05.850270"><ele>20</ele><time>2012-03-31T13:02:42Z</time><cmt>4.5 kmh</cmt></trkpt>
<trkpt lat="58.875362" lon="05.850257"><ele>20</ele><time>2012-03-31T13:02:43Z</time><cmt>5.2 kmh</cmt></trkpt>
<trkpt lat="58.875373" lon="05.850244"><ele>20</ele><time>2012-03-31T13:02:44Z</time><cmt>5.3 kmh</cmt></trkpt>
<trkpt lat="58.875384" lon="05.850229"><ele>20</ele><time>2012-03-31T13:02:45Z</time><cmt>5.2 kmh</cmt></trkpt>
<trkpt lat="58.875396" lon="05.850215"><ele>20</ele><time>2012-03-31T13:02:46Z</time><cmt>5.7 kmh</cmt></trkpt>
<trkpt lat="58.875408" lon="05.850200"><ele>20</ele><time>2012-03-31T13:02:47Z</time><cmt>5.7 kmh</cmt></trkpt>
<trkpt lat="58.875420" lon="05.850184"><ele>20</ele><time>2012-03-31T13:02:48Z</time><cmt>5.6 kmh</cmt></trkpt>
<trkpt lat="58.875432" lon="05.850168"><ele>20</ele><time>2012-03-31T13:02:49Z</time><cmt>5.5 kmh</cmt></trkpt>
<trkpt lat="58.875443" lon="05.850150"><ele>20</ele><time>2012-03-31T13:02:50Z</time><cmt>5.8 kmh</cmt></trkpt>
<trkpt lat="58.875454" lon="05.850131"><ele>20</ele><time>2012-03-31T13:02:51Z</time><cmt>6.3 kmh</cmt></trkpt>
<trkpt lat="58.875467" lon="05.850111"><ele>20</ele><time>2012-03-31T13:02:52Z</time><cmt>6.3 kmh</cmt></trkpt>
<trkpt lat="58.875479" lon="05.850093"><ele>20</ele><time>2012-03-31T13:02:53Z</time><cmt>6.0 kmh</cmt></trkpt>
<trkpt lat="58.875491" lon="05.850075"><ele>20</ele><time>2012-03-31T13:02:54Z</time><cmt>5.6 kmh</cmt></trkpt>
<trkpt lat="58.875501" lon="05.850057"><ele>20</ele><time>2012-03-31T13:02:55Z</time><cmt>5.0 kmh</cmt></trkpt>
<trkpt lat="58.875511" lon="05.850040"><ele>20</ele><time>2012-03-31T13:02:56Z</time><cmt>5.0 kmh</cmt></trkpt>
<trkpt lat="58.875518" lon="05.850025"><ele>20</ele><time>2012-03-31T13:02:57Z</time><cmt>5.0 kmh</cmt></trkpt>
<trkpt lat="58.875526" lon="05.850009"><ele>20</ele><time>2012-03-31T13:02:58Z</time><cmt>3.9 kmh</cmt></trkpt>
<trkpt lat="58.875534" lon="05.849994"><ele>20</ele><time>2012-03-31T13:02:59Z</time><cmt>3.8 kmh</cmt></trkpt>
<trkpt lat="58.875541" lon="05.849981"><ele>20</ele><time>2012-03-31T13:03:00Z</time><cmt>4.5 kmh</cmt></trkpt>
<trkpt lat="58.875547" lon="05.849968"><ele>20</ele><time>2012-03-31T13:03:01Z</time><cmt>4.1 kmh</cmt></trkpt>
<trkpt lat="58.875552" lon="05.849956"><ele>20</ele><time>2012-03-31T13:03:02Z</time><cmt>3.6 kmh</cmt></trkpt>
<trkpt lat="58.875555" lon="05.849946"><ele>20</ele><time>2012-03-31T13:03:03Z</time><cmt>3.0 kmh</cmt></trkpt>
<trkpt lat="58.875557" lon="05.849938"><ele>20</ele><time>2012-03-31T13:03:04Z</time><cmt>1.9 kmh</cmt></trkpt>
<trkpt lat="58.875560" lon="05.849932"><ele>20</ele><time>2012-03-31T13:03:05Z</time><cmt>1.5 kmh</cmt></trkpt>
<trkpt lat="58.875562" lon="05.849928"><ele>20</ele><time>2012-03-31T13:03:06Z</time><cmt>1.5 kmh</cmt></trkpt>
<trkpt lat="58.875564" lon="05.849925"><ele>20</ele><time>2012-03-31T13:03:07Z</time><cmt>1.1 kmh</cmt></trkpt>
<trkpt lat="58.875565" lon="05.849924"><ele>20</ele><time>2012-03-31T13:03:08Z</time><cmt>0.7 kmh</cmt></trkpt>
<trkpt lat="58.875566" lon="05.849925"><ele>20</ele><time>2012-03-31T13:03:09Z</time><cmt>0.4 kmh</cmt></trkpt>
<trkpt lat="58.875566" lon="05.849926"><ele>20</ele><time>2012-03-31T13:03:10Z</time><cmt>0.4 kmh</cmt></trkpt>
<trkpt lat="58.875566" lon="05.849928"><ele>20</ele><time>2012-03-31T13:03:11Z</time><cmt>0.4 kmh</cmt></trkpt>
<trkpt lat="58.875567" lon="05.849931"><ele>20</ele><time>2012-03-31T13:03:12Z</time><cmt>0.5 kmh</cmt></trkpt>
<trkpt lat="58.875567" lon="05.849934"><ele>20</ele><time>2012-03-31T13:03:13Z</time><cmt>0.7 kmh</cmt></trkpt>
<trkpt lat="58.875567" lon="05.849938"><ele>20</ele><time>2012-03-31T13:03:14Z</time><cmt>0.8 kmh</cmt></trkpt>
<trkpt lat="58.875567" lon="05.849943"><ele>20</ele><time>2012-03-31T13:03:15Z</time><cmt>0.9 kmh</cmt></trkpt>
<trkpt lat="58.875566" lon="05.849948"><ele>20</ele><time>2012-03-31T13:03:16Z</time><cmt>1.0 kmh</cmt></trkpt>
<trkpt lat="58.875566" lon="05.849953"><ele>20</ele><time>2012-03-31T13:03:17Z</time><cmt>0.9 kmh</cmt></trkpt>
<trkpt lat="58.875566" lon="05.849958"><ele>20</ele><time>2012-03-31T13:03:18Z</time><cmt>0.9 kmh</cmt></trkpt>
<trkpt lat="58.875566" lon="05.849962"><ele>20</ele><time>2012-03-31T13:03:19Z</time><cmt>1.0 kmh</cmt></trkpt>
<trkpt lat="58.875565" lon="05.849964"><ele>21</ele><time>2012-03-31T13:03:20Z</time><cmt>0.7 kmh</cmt></trkpt>
<trkpt lat="58.875565" lon="05.849965"><ele>21</ele><time>2012-03-31T13:03:21Z</time><cmt>0.3 kmh</cmt></trkpt>
<trkpt lat="58.875565" lon="05.849965"><ele>21</ele><time>2012-03-31T13:03:22Z</time><cmt>0.0 kmh</cmt></trkpt>
<trkpt lat="58.875565" lon="05.849965"><ele>21</ele><time>2012-03-31T13:03:23Z</time><cmt>0.0 kmh</cmt></trkpt>
<trkpt lat="58.875565" lon="05.849965"><ele>21</ele><time>2012-03-31T13:03:24Z</time><cmt>0.0 kmh</cmt></trkpt>
<trkpt lat="58.875565" lon="05.849965"><ele>21</ele><time>2012-03-31T13:03:25Z</time><cmt>0.0 kmh</cmt></trkpt>
<trkpt lat="58.875565" lon="05.849965"><ele>21</ele><time>2012-03-31T13:03:26Z</time><cmt>0.0 kmh</cmt></trkpt>
<trkpt lat="58.875566" lon="05.849967"><ele>21</ele><time>2012-03-31T13:03:27Z</time><cmt>0.3 kmh</cmt></trkpt>
<trkpt lat="58.875566" lon="05.849969"><ele>21</ele><time>2012-03-31T13:03:28Z</time><cmt>0.5 kmh</cmt></trkpt>
<trkpt lat="58.875566" lon="05.849972"><ele>21</ele><time>2012-03-31T13:03:29Z</time><cmt>0.5 kmh</cmt></trkpt>
<trkpt lat="58.875566" lon="05.849976"><ele>21</ele><time>2012-03-31T13:03:30Z</time><cmt>0.6 kmh</cmt></trkpt>
<trkpt lat="58.875566" lon="05.849978"><ele>21</ele><time>2012-03-31T13:03:31Z</time><cmt>0.6 kmh</cmt></trkpt>
<trkpt lat="58.875566" lon="05.849979"><ele>21</ele><time>2012-03-31T13:03:32Z</time><cmt>0.3 kmh</cmt></trkpt>
<trkpt lat="58.875566" lon="05.849980"><ele>21</ele><time>2012-03-31T13:03:33Z</time><cmt>0.0 kmh</cmt></trkpt>
<trkpt lat="58.875567" lon="05.849981"><ele>21</ele><time>2012-03-31T13:03:34Z</time><cmt>0.0 kmh</cmt></trkpt>
<trkpt lat="58.875568" lon="05.849981"><ele>22</ele><time>2012-03-31T13:03:35Z</time><cmt>0.0 kmh</cmt></trkpt>
<trkpt lat="58.875569" lon="05.849982"><ele>22</ele><time>2012-03-31T13:03:36Z</time><cmt>0.0 kmh</cmt></trkpt>
<trkpt lat="58.875570" lon="05.849982"><ele>22</ele><time>2012-03-31T13:03:37Z</time><cmt>0.0 kmh</cmt></trkpt>
<trkpt lat="58.875569" lon="05.849982"><ele>22</ele><time>2012-03-31T13:03:38Z</time><cmt>0.0 kmh</cmt></trkpt>
<trkpt lat="58.875569" lon="05.849981"><ele>22</ele><time>2012-03-31T13:03:39Z</time><cmt>0.0 kmh</cmt></trkpt>
<trkpt lat="58.875569" lon="05.849981"><ele>22</ele><time>2012-03-31T13:03:40Z</time><cmt>0.0 kmh</cmt></trkpt>
<trkpt lat="58.875564" lon="05.849985"><ele>22</ele><time>2012-03-31T13:03:47Z</time><cmt>1.4 kmh</cmt></trkpt>
<trkpt lat="58.875563" lon="05.849983"><ele>22</ele><time>2012-03-31T13:03:48Z</time><cmt>1.3 kmh</cmt></trkpt>
<trkpt lat="58.875564" lon="05.849981"><ele>22</ele><time>2012-03-31T13:03:49Z</time><cmt>0.5 kmh</cmt></trkpt>
<trkpt lat="58.875564" lon="05.849979"><ele>22</ele><time>2012-03-31T13:03:50Z</time><cmt>0.5 kmh</cmt></trkpt>
<trkpt lat="58.875564" lon="05.849978"><ele>22</ele><time>2012-03-31T13:03:51Z</time><cmt>0.2 kmh</cmt></trkpt>
<trkpt lat="58.875565" lon="05.849977"><ele>22</ele><time>2012-03-31T13:03:52Z</time><cmt>0.0 kmh</cmt></trkpt>
<trkpt lat="58.875565" lon="05.849976"><ele>22</ele><time>2012-03-31T13:03:53Z</time><cmt>0.0 kmh</cmt></trkpt>
<trkpt lat="58.875546" lon="05.849789"><ele>21</ele><time>2012-03-31T13:04:47Z</time><cmt>5.0 kmh</cmt></trkpt>
<trkpt lat="58.875538" lon="05.849752"><ele>21</ele><time>2012-03-31T13:04:50Z</time><cmt>2.5 kmh</cmt></trkpt>
<trkpt lat="58.875529" lon="05.849628"><ele>22</ele><time>2012-03-31T13:05:01Z</time><cmt>5.0 kmh</cmt></trkpt>
<trkpt lat="58.875529" lon="05.849621"><ele>22</ele><time>2012-03-31T13:05:02Z</time><cmt>5.0 kmh</cmt></trkpt>
<trkpt lat="58.875529" lon="05.849614"><ele>22</ele><time>2012-03-31T13:05:03Z</time><cmt>1.3 kmh</cmt></trkpt>
<trkpt lat="58.875530" lon="05.849607"><ele>22</ele><time>2012-03-31T13:05:04Z</time><cmt>1.6 kmh</cmt></trkpt>
<trkpt lat="58.875531" lon="05.849599"><ele>22</ele><time>2012-03-31T13:05:05Z</time><cmt>1.7 kmh</cmt></trkpt>
<trkpt lat="58.875532" lon="05.849590"><ele>22</ele><time>2012-03-31T13:05:06Z</time><cmt>1.9 kmh</cmt></trkpt>
<trkpt lat="58.875534" lon="05.849580"><ele>22</ele><time>2012-03-31T13:05:07Z</time><cmt>2.1 kmh</cmt></trkpt>
<trkpt lat="58.875535" lon="05.849571"><ele>22</ele><time>2012-03-31T13:05:08Z</time><cmt>1.7 kmh</cmt></trkpt>
<trkpt lat="58.875536" lon="05.849562"><ele>22</ele><time>2012-03-31T13:05:09Z</time><cmt>1.7 kmh</cmt></trkpt>
<trkpt lat="58.875538" lon="05.849551"><ele>22</ele><time>2012-03-31T13:05:10Z</time><cmt>2.3 kmh</cmt></trkpt>
<trkpt lat="58.875541" lon="05.849541"><ele>22</ele><time>2012-03-31T13:05:11Z</time><cmt>2.5 kmh</cmt></trkpt>
<trkpt lat="58.875543" lon="05.849532"><ele>22</ele><time>2012-03-31T13:05:12Z</time><cmt>2.4 kmh</cmt></trkpt>
<trkpt lat="58.875546" lon="05.849525"><ele>22</ele><time>2012-03-31T13:05:13Z</time><cmt>2.2 kmh</cmt></trkpt>
<trkpt lat="58.875548" lon="05.849519"><ele>22</ele><time>2012-03-31T13:05:14Z</time><cmt>1.4 kmh</cmt></trkpt>
<trkpt lat="58.875550" lon="05.849516"><ele>22</ele><time>2012-03-31T13:05:15Z</time><cmt>1.1 kmh</cmt></trkpt>
<trkpt lat="58.875552" lon="05.849514"><ele>22</ele><time>2012-03-31T13:05:16Z</time><cmt>1.0 kmh</cmt></trkpt>
<trkpt lat="58.875572" lon="05.849474"><ele>23</ele><time>2012-03-31T13:05:22Z</time><cmt>5.0 kmh</cmt></trkpt>
<trkpt lat="58.875577" lon="05.849461"><ele>23</ele><time>2012-03-31T13:05:23Z</time><cmt>5.0 kmh</cmt></trkpt>
<trkpt lat="58.875583" lon="05.849445"><ele>23</ele><time>2012-03-31T13:05:24Z</time><cmt>4.0 kmh</cmt></trkpt>
<trkpt lat="58.875590" lon="05.849426"><ele>23</ele><time>2012-03-31T13:05:25Z</time><cmt>5.4 kmh</cmt></trkpt>
<trkpt lat="58.875597" lon="05.849403"><ele>23</ele><time>2012-03-31T13:05:26Z</time><cmt>6.0 kmh</cmt></trkpt>
<trkpt lat="58.875604" lon="05.849376"><ele>23</ele><time>2012-03-31T13:05:27Z</time><cmt>6.9 kmh</cmt></trkpt>
<trkpt lat="58.875612" lon="05.849346"><ele>23</ele><time>2012-03-31T13:05:28Z</time><cmt>7.4 kmh</cmt></trkpt>
<trkpt lat="58.875621" lon="05.849314"><ele>23</ele><time>2012-03-31T13:05:29Z</time><cmt>7.6 kmh</cmt></trkpt>
<trkpt lat="58.875629" lon="05.849281"><ele>23</ele><time>2012-03-31T13:05:30Z</time><cmt>7.3 kmh</cmt></trkpt>
<trkpt lat="58.875643" lon="05.849224"><ele>23</ele><time>2012-03-31T13:05:32Z</time><cmt>7.0 kmh</cmt></trkpt>
<trkpt lat="58.875650" lon="05.849191"><ele>23</ele><time>2012-03-31T13:05:33Z</time><cmt>6.9 kmh</cmt></trkpt>
<trkpt lat="58.875664" lon="05.849129"><ele>23</ele><time>2012-03-31T13:05:35Z</time><cmt>6.6 kmh</cmt></trkpt>
<trkpt lat="58.875679" lon="05.849071"><ele>23</ele><time>2012-03-31T13:05:37Z</time><cmt>6.3 kmh</cmt></trkpt>
<trkpt lat="58.875695" lon="05.849015"><ele>23</ele><time>2012-03-31T13:05:39Z</time><cmt>6.3 kmh</cmt></trkpt>
<trkpt lat="58.875712" lon="05.848961"><ele>23</ele><time>2012-03-31T13:05:41Z</time><cmt>6.1 kmh</cmt></trkpt>
<trkpt lat="58.875727" lon="05.848912"><ele>23</ele><time>2012-03-31T13:05:43Z</time><cmt>5.5 kmh</cmt></trkpt>
<trkpt lat="58.875741" lon="05.848864"><ele>23</ele><time>2012-03-31T13:05:45Z</time><cmt>5.4 kmh</cmt></trkpt>
<trkpt lat="58.875754" lon="05.848817"><ele>23</ele><time>2012-03-31T13:05:47Z</time><cmt>5.4 kmh</cmt></trkpt>
<trkpt lat="58.875767" lon="05.848770"><ele>23</ele><time>2012-03-31T13:05:49Z</time><cmt>5.4 kmh</cmt></trkpt>
<trkpt lat="58.875780" lon="05.848723"><ele>23</ele><time>2012-03-31T13:05:51Z</time><cmt>5.7 kmh</cmt></trkpt>
<trkpt lat="58.875794" lon="05.848675"><ele>23</ele><time>2012-03-31T13:05:53Z</time><cmt>5.5 kmh</cmt></trkpt>
<trkpt lat="58.875807" lon="05.848626"><ele>23</ele><time>2012-03-31T13:05:55Z</time><cmt>5.8 kmh</cmt></trkpt>
<trkpt lat="58.875820" lon="05.848578"><ele>23</ele><time>2012-03-31T13:05:57Z</time><cmt>5.4 kmh</cmt></trkpt>
<trkpt lat="58.875834" lon="05.848532"><ele>23</ele><time>2012-03-31T13:05:59Z</time><cmt>5.3 kmh</cmt></trkpt>
<trkpt lat="58.875849" lon="05.848486"><ele>23</ele><time>2012-03-31T13:06:01Z</time><cmt>5.5 kmh</cmt></trkpt>
<trkpt lat="58.875864" lon="05.848438"><ele>23</ele><time>2012-03-31T13:06:03Z</time><cmt>5.7 kmh</cmt></trkpt>
<trkpt lat="58.875878" lon="05.848390"><ele>23</ele><time>2012-03-31T13:06:05Z</time><cmt>5.6 kmh</cmt></trkpt>
<trkpt lat="58.875892" lon="05.848342"><ele>23</ele><time>2012-03-31T13:06:07Z</time><cmt>5.6 kmh</cmt></trkpt>
<trkpt lat="58.875907" lon="05.848296"><ele>23</ele><time>2012-03-31T13:06:09Z</time><cmt>5.5 kmh</cmt></trkpt>
<trkpt lat="58.875922" lon="05.848249"><ele>23</ele><time>2012-03-31T13:06:11Z</time><cmt>5.4 kmh</cmt></trkpt>
<trkpt lat="58.875937" lon="05.848204"><ele>23</ele><time>2012-03-31T13:06:13Z</time><cmt>5.4 kmh</cmt></trkpt>
<trkpt lat="58.875954" lon="05.848162"><ele>23</ele><time>2012-03-31T13:06:15Z</time><cmt>5.2 kmh</cmt></trkpt>
<trkpt lat="58.875968" lon="05.848125"><ele>23</ele><time>2012-03-31T13:06:17Z</time><cmt>4.2 kmh</cmt></trkpt>
<trkpt lat="58.875985" lon="05.848086"><ele>23</ele><time>2012-03-31T13:06:19Z</time><cmt>5.0 kmh</cmt></trkpt>
<trkpt lat="58.876003" lon="05.848043"><ele>23</ele><time>2012-03-31T13:06:21Z</time><cmt>5.3 kmh</cmt></trkpt>
<trkpt lat="58.876021" lon="05.848002"><ele>23</ele><time>2012-03-31T13:06:23Z</time><cmt>5.1 kmh</cmt></trkpt>
<trkpt lat="58.876037" lon="05.847960"><ele>23</ele><time>2012-03-31T13:06:25Z</time><cmt>5.0 kmh</cmt></trkpt>
<trkpt lat="58.876052" lon="05.847919"><ele>23</ele><time>2012-03-31T13:06:27Z</time><cmt>5.0 kmh</cmt></trkpt>
<trkpt lat="58.876075" lon="05.847872"><ele>23</ele><time>2012-03-31T13:06:29Z</time><cmt>5.0 kmh</cmt></trkpt>
<trkpt lat="58.876084" lon="05.847857"><ele>23</ele><time>2012-03-31T13:06:30Z</time><cmt>5.1 kmh</cmt></trkpt>
<trkpt lat="58.876092" lon="05.847841"><ele>23</ele><time>2012-03-31T13:06:31Z</time><cmt>5.1 kmh</cmt></trkpt>
<trkpt lat="58.876101" lon="05.847824"><ele>22</ele><time>2012-03-31T13:06:32Z</time><cmt>5.0 kmh</cmt></trkpt>
<trkpt lat="58.876110" lon="05.847808"><ele>22</ele><time>2012-03-31T13:06:33Z</time><cmt>5.0 kmh</cmt></trkpt>
<trkpt lat="58.876119" lon="05.847792"><ele>22</ele><time>2012-03-31T13:06:34Z</time><cmt>5.0 kmh</cmt></trkpt>
<trkpt lat="58.876128" lon="05.847776"><ele>22</ele><time>2012-03-31T13:06:35Z</time><cmt>4.2 kmh</cmt></trkpt>
<trkpt lat="58.876137" lon="05.847761"><ele>22</ele><time>2012-03-31T13:06:36Z</time><cmt>4.1 kmh</cmt></trkpt>
<trkpt lat="58.876144" lon="05.847745"><ele>22</ele><time>2012-03-31T13:06:37Z</time><cmt>5.0 kmh</cmt></trkpt>
<trkpt lat="58.876152" lon="05.847729"><ele>22</ele><time>2012-03-31T13:06:38Z</time><cmt>4.9 kmh</cmt></trkpt>
<trkpt lat="58.876160" lon="05.847712"><ele>22</ele><time>2012-03-31T13:06:39Z</time><cmt>5.0 kmh</cmt></trkpt>
<trkpt lat="58.876168" lon="05.847694"><ele>22</ele><time>2012-03-31T13:06:40Z</time><cmt>5.0 kmh</cmt></trkpt>
<trkpt lat="58.876176" lon="05.847676"><ele>22</ele><time>2012-03-31T13:06:41Z</time><cmt>4.2 kmh</cmt></trkpt>
<trkpt lat="58.876184" lon="05.847659"><ele>22</ele><time>2012-03-31T13:06:42Z</time><cmt>4.2 kmh</cmt></trkpt>
<trkpt lat="58.876192" lon="05.847642"><ele>21</ele><time>2012-03-31T13:06:43Z</time><cmt>5.0 kmh</cmt></trkpt>
<trkpt lat="58.876201" lon="05.847625"><ele>21</ele><time>2012-03-31T13:06:44Z</time><cmt>5.0 kmh</cmt></trkpt>
<trkpt lat="58.876209" lon="05.847608"><ele>21</ele><time>2012-03-31T13:06:45Z</time><cmt>5.1 kmh</cmt></trkpt>
<trkpt lat="58.876218" lon="05.847590"><ele>21</ele><time>2012-03-31T13:06:46Z</time><cmt>5.1 kmh</cmt></trkpt>
<trkpt lat="58.876226" lon="05.847571"><ele>21</ele><time>2012-03-31T13:06:47Z</time><cmt>4.4 kmh</cmt></trkpt>
<trkpt lat="58.876235" lon="05.847553"><ele>21</ele><time>2012-03-31T13:06:48Z</time><cmt>5.2 kmh</cmt></trkpt>
<trkpt lat="58.876244" lon="05.847534"><ele>21</ele><time>2012-03-31T13:06:49Z</time><cmt>5.1 kmh</cmt></trkpt>
<trkpt lat="58.876252" lon="05.847514"><ele>21</ele><time>2012-03-31T13:06:50Z</time><cmt>5.4 kmh</cmt></trkpt>
<trkpt lat="58.876261" lon="05.847494"><ele>21</ele><time>2012-03-31T13:06:51Z</time><cmt>5.3 kmh</cmt></trkpt>
<trkpt lat="58.876271" lon="05.847475"><ele>21</ele><time>2012-03-31T13:06:52Z</time><cmt>5.2 kmh</cmt></trkpt>
<trkpt lat="58.876280" lon="05.847456"><ele>21</ele><time>2012-03-31T13:06:53Z</time><cmt>5.0 kmh</cmt></trkpt>
<trkpt lat="58.876289" lon="05.847438"><ele>21</ele><time>2012-03-31T13:06:54Z</time><cmt>5.0 kmh</cmt></trkpt>
<trkpt lat="58.876298" lon="05.847420"><ele>21</ele><time>2012-03-31T13:06:55Z</time><cmt>5.0 kmh</cmt></trkpt>
<trkpt lat="58.876306" lon="05.847403"><ele>21</ele><time>2012-03-31T13:06:56Z</time><cmt>5.0 kmh</cmt></trkpt>
<trkpt lat="58.876315" lon="05.847386"><ele>21</ele><time>2012-03-31T13:06:57Z</time><cmt>5.0 kmh</cmt></trkpt>
<trkpt lat="58.876324" lon="05.847370"><ele>21</ele><time>2012-03-31T13:06:58Z</time><cmt>5.0 kmh</cmt></trkpt>
<trkpt lat="58.876333" lon="05.847355"><ele>21</ele><time>2012-03-31T13:06:59Z</time><cmt>5.0 kmh</cmt></trkpt>
<trkpt lat="58.876343" lon="05.847340"><ele>21</ele><time>2012-03-31T13:07:00Z</time><cmt>4.3 kmh</cmt></trkpt>
<trkpt lat="58.876353" lon="05.847325"><ele>21</ele><time>2012-03-31T13:07:01Z</time><cmt>4.3 kmh</cmt></trkpt>
<trkpt lat="58.876363" lon="05.847310"><ele>21</ele><time>2012-03-31T13:07:02Z</time><cmt>5.0 kmh</cmt></trkpt>
<trkpt lat="58.876373" lon="05.847294"><ele>20</ele><time>2012-03-31T13:07:03Z</time><cmt>5.2 kmh</cmt></trkpt>
<trkpt lat="58.876384" lon="05.847279"><ele>20</ele><time>2012-03-31T13:07:04Z</time><cmt>5.4 kmh</cmt></trkpt>
<trkpt lat="58.876395" lon="05.847263"><ele>20</ele><time>2012-03-31T13:07:05Z</time><cmt>5.6 kmh</cmt></trkpt>
<trkpt lat="58.876407" lon="05.847247"><ele>20</ele><time>2012-03-31T13:07:06Z</time><cmt>5.8 kmh</cmt></trkpt>
<trkpt lat="58.876419" lon="05.847230"><ele>20</ele><time>2012-03-31T13:07:07Z</time><cmt>6.0 kmh</cmt></trkpt>
<trkpt lat="58.876432" lon="05.847213"><ele>20</ele><time>2012-03-31T13:07:08Z</time><cmt>5.9 kmh</cmt></trkpt>
<trkpt lat="58.876444" lon="05.847196"><ele>20</ele><time>2012-03-31T13:07:09Z</time><cmt>5.9 kmh</cmt></trkpt>
<trkpt lat="58.876456" lon="05.847179"><ele>20</ele><time>2012-03-31T13:07:10Z</time><cmt>5.8 kmh</cmt></trkpt>
<trkpt lat="58.876469" lon="05.847163"><ele>20</ele><time>2012-03-31T13:07:11Z</time><cmt>5.9 kmh</cmt></trkpt>
<trkpt lat="58.876481" lon="05.847147"><ele>20</ele><time>2012-03-31T13:07:12Z</time><cmt>5.9 kmh</cmt></trkpt>
<trkpt lat="58.876494" lon="05.847131"><ele>20</ele><time>2012-03-31T13:07:13Z</time><cmt>6.0 kmh</cmt></trkpt>
<trkpt lat="58.876507" lon="05.847115"><ele>20</ele><time>2012-03-31T13:07:14Z</time><cmt>5.8 kmh</cmt></trkpt>
<trkpt lat="58.876520" lon="05.847100"><ele>20</ele><time>2012-03-31T13:07:15Z</time><cmt>6.0 kmh</cmt></trkpt>
<trkpt lat="58.876533" lon="05.847086"><ele>20</ele><time>2012-03-31T13:07:16Z</time><cmt>5.5 kmh</cmt></trkpt>
<trkpt lat="58.876545" lon="05.847072"><ele>20</ele><time>2012-03-31T13:07:17Z</time><cmt>5.5 kmh</cmt></trkpt>
<trkpt lat="58.876557" lon="05.847056"><ele>20</ele><time>2012-03-31T13:07:18Z</time><cmt>5.6 kmh</cmt></trkpt>
<trkpt lat="58.876569" lon="05.847040"><ele>20</ele><time>2012-03-31T13:07:19Z</time><cmt>5.7 kmh</cmt></trkpt>
<trkpt lat="58.876581" lon="05.847023"><ele>20</ele><time>2012-03-31T13:07:20Z</time><cmt>5.5 kmh</cmt></trkpt>
<trkpt lat="58.876592" lon="05.847007"><ele>20</ele><time>2012-03-31T13:07:21Z</time><cmt>5.4 kmh</cmt></trkpt>
<trkpt lat="58.876603" lon="05.846991"><ele>20</ele><time>2012-03-31T13:07:22Z</time><cmt>5.2 kmh</cmt></trkpt>
<trkpt lat="58.876613" lon="05.846974"><ele>20</ele><time>2012-03-31T13:07:23Z</time><cmt>5.1 kmh</cmt></trkpt>
<trkpt lat="58.876623" lon="05.846956"><ele>20</ele><time>2012-03-31T13:07:24Z</time><cmt>5.5 kmh</cmt></trkpt>
<trkpt lat="58.876633" lon="05.846938"><ele>20</ele><time>2012-03-31T13:07:25Z</time><cmt>5.4 kmh</cmt></trkpt>
<trkpt lat="58.876644" lon="05.846919"><ele>20</ele><time>2012-03-31T13:07:26Z</time><cmt>5.7 kmh</cmt></trkpt>
<trkpt lat="58.876655" lon="05.846901"><ele>20</ele><time>2012-03-31T13:07:27Z</time><cmt>6.1 kmh</cmt></trkpt>
<trkpt lat="58.876667" lon="05.846882"><ele>20</ele><time>2012-03-31T13:07:28Z</time><cmt>6.3 kmh</cmt></trkpt>
<trkpt lat="58.876680" lon="05.846863"><ele>20</ele><time>2012-03-31T13:07:29Z</time><cmt>6.4 kmh</cmt></trkpt>
<trkpt lat="58.876693" lon="05.846844"><ele>20</ele><time>2012-03-31T13:07:30Z</time><cmt>6.2 kmh</cmt></trkpt>
<trkpt lat="58.876706" lon="05.846825"><ele>20</ele><time>2012-03-31T13:07:31Z</time><cmt>6.3 kmh</cmt></trkpt>
<trkpt lat="58.876719" lon="05.846806"><ele>20</ele><time>2012-03-31T13:07:32Z</time><cmt>6.3 kmh</cmt></trkpt>
<trkpt lat="58.876732" lon="05.846788"><ele>20</ele><time>2012-03-31T13:07:33Z</time><cmt>6.2 kmh</cmt></trkpt>
<trkpt lat="58.876744" lon="05.846769"><ele>20</ele><time>2012-03-31T13:07:34Z</time><cmt>5.9 kmh</cmt></trkpt>
<trkpt lat="58.876756" lon="05.846750"><ele>20</ele><time>2012-03-31T13:07:35Z</time><cmt>6.0 kmh</cmt></trkpt>
<trkpt lat="58.876768" lon="05.846732"><ele>20</ele><time>2012-03-31T13:07:36Z</time><cmt>5.8 kmh</cmt></trkpt>
<trkpt lat="58.876779" lon="05.846714"><ele>20</ele><time>2012-03-31T13:07:37Z</time><cmt>5.8 kmh</cmt></trkpt>
<trkpt lat="58.876791" lon="05.846696"><ele>20</ele><time>2012-03-31T13:07:38Z</time><cmt>5.2 kmh</cmt></trkpt>
<trkpt lat="58.876801" lon="05.846680"><ele>20</ele><time>2012-03-31T13:07:39Z</time><cmt>5.0 kmh</cmt></trkpt>
<trkpt lat="58.876811" lon="05.846663"><ele>20</ele><time>2012-03-31T13:07:40Z</time><cmt>5.0 kmh</cmt></trkpt>
<trkpt lat="58.876820" lon="05.846645"><ele>20</ele><time>2012-03-31T13:07:41Z</time><cmt>5.0 kmh</cmt></trkpt>
<trkpt lat="58.876829" lon="05.846626"><ele>20</ele><time>2012-03-31T13:07:42Z</time><cmt>5.1 kmh</cmt></trkpt>
<trkpt lat="58.876837" lon="05.846607"><ele>20</ele><time>2012-03-31T13:07:43Z</time><cmt>5.2 kmh</cmt></trkpt>
<trkpt lat="58.876847" lon="05.846587"><ele>20</ele><time>2012-03-31T13:07:44Z</time><cmt>5.4 kmh</cmt></trkpt>
<trkpt lat="58.876856" lon="05.846568"><ele>20</ele><time>2012-03-31T13:07:45Z</time><cmt>5.4 kmh</cmt></trkpt>
<trkpt lat="58.876865" lon="05.846549"><ele>20</ele><time>2012-03-31T13:07:46Z</time><cmt>5.4 kmh</cmt></trkpt>
<trkpt lat="58.876873" lon="05.846531"><ele>20</ele><time>2012-03-31T13:07:47Z</time><cmt>5.0 kmh</cmt></trkpt>
<trkpt lat="58.876881" lon="05.846515"><ele>20</ele><time>2012-03-31T13:07:48Z</time><cmt>5.0 kmh</cmt></trkpt>
<trkpt lat="58.876887" lon="05.846500"><ele>20</ele><time>2012-03-31T13:07:49Z</time><cmt>3.7 kmh</cmt></trkpt>
<trkpt lat="58.876894" lon="05.846487"><ele>20</ele><time>2012-03-31T13:07:50Z</time><cmt>3.4 kmh</cmt></trkpt>
<trkpt lat="58.876899" lon="05.846474"><ele>20</ele><time>2012-03-31T13:07:51Z</time><cmt>3.8 kmh</cmt></trkpt>
<trkpt lat="58.876903" lon="05.846463"><ele>20</ele><time>2012-03-31T13:07:52Z</time><cmt>3.2 kmh</cmt></trkpt>
<trkpt lat="58.876906" lon="05.846456"><ele>20</ele><time>2012-03-31T13:07:53Z</time><cmt>2.7 kmh</cmt></trkpt>
<trkpt lat="58.876909" lon="05.846451"><ele>20</ele><time>2012-03-31T13:07:54Z</time><cmt>2.0 kmh</cmt></trkpt>
<trkpt lat="58.876911" lon="05.846448"><ele>20</ele><time>2012-03-31T13:07:55Z</time><cmt>1.4 kmh</cmt></trkpt>
<trkpt lat="58.876913" lon="05.846446"><ele>20</ele><time>2012-03-31T13:07:56Z</time><cmt>0.8 kmh</cmt></trkpt>
<trkpt lat="58.876914" lon="05.846445"><ele>20</ele><time>2012-03-31T13:07:57Z</time><cmt>0.5 kmh</cmt></trkpt>
<trkpt lat="58.876915" lon="05.846444"><ele>20</ele><time>2012-03-31T13:07:58Z</time><cmt>0.5 kmh</cmt></trkpt>
<trkpt lat="58.876916" lon="05.846443"><ele>20</ele><time>2012-03-31T13:07:59Z</time><cmt>0.5 kmh</cmt></trkpt>
<trkpt lat="58.876916" lon="05.846443"><ele>20</ele><time>2012-03-31T13:08:00Z</time><cmt>0.3 kmh</cmt></trkpt>
<trkpt lat="58.876917" lon="05.846443"><ele>20</ele><time>2012-03-31T13:08:01Z</time><cmt>0.0 kmh</cmt></trkpt>
<trkpt lat="58.876916" lon="05.846443"><ele>20</ele><time>2012-03-31T13:08:02Z</time><cmt>0.0 kmh</cmt></trkpt>
<trkpt lat="58.876916" lon="05.846444"><ele>20</ele><time>2012-03-31T13:08:03Z</time><cmt>0.0 kmh</cmt></trkpt>
<trkpt lat="58.876915" lon="05.846445"><ele>20</ele><time>2012-03-31T13:08:04Z</time><cmt>0.2 kmh</cmt></trkpt>
<trkpt lat="58.876914" lon="05.846447"><ele>20</ele><time>2012-03-31T13:08:05Z</time><cmt>0.4 kmh</cmt></trkpt>
<trkpt lat="58.876913" lon="05.846449"><ele>20</ele><time>2012-03-31T13:08:06Z</time><cmt>0.6 kmh</cmt></trkpt>
<trkpt lat="58.876912" lon="05.846452"><ele>20</ele><time>2012-03-31T13:08:07Z</time><cmt>0.8 kmh</cmt></trkpt>
<trkpt lat="58.876911" lon="05.846456"><ele>20</ele><time>2012-03-31T13:08:08Z</time><cmt>0.8 kmh</cmt></trkpt>
<trkpt lat="58.876907" lon="05.846515"><ele>22</ele><time>2012-03-31T13:08:38Z</time><cmt>4.5 kmh</cmt></trkpt>
<trkpt lat="58.876905" lon="05.846519"><ele>22</ele><time>2012-03-31T13:08:39Z</time><cmt>5.0 kmh</cmt></trkpt>
<trkpt lat="58.876904" lon="05.846525"><ele>22</ele><time>2012-03-31T13:08:40Z</time><cmt>0.9 kmh</cmt></trkpt>
<trkpt lat="58.876903" lon="05.846529"><ele>22</ele><time>2012-03-31T13:08:41Z</time><cmt>1.2 kmh</cmt></trkpt>
<trkpt lat="58.876902" lon="05.846534"><ele>22</ele><time>2012-03-31T13:08:42Z</time><cmt>1.2 kmh</cmt></trkpt>
<trkpt lat="58.876901" lon="05.846539"><ele>22</ele><time>2012-03-31T13:08:43Z</time><cmt>1.2 kmh</cmt></trkpt>
<trkpt lat="58.876899" lon="05.846541"><ele>22</ele><time>2012-03-31T13:08:44Z</time><cmt>1.0 kmh</cmt></trkpt>
<trkpt lat="58.876898" lon="05.846542"><ele>22</ele><time>2012-03-31T13:08:45Z</time><cmt>0.6 kmh</cmt></trkpt>
<trkpt lat="58.876898" lon="05.846543"><ele>22</ele><time>2012-03-31T13:08:46Z</time><cmt>0.2 kmh</cmt></trkpt>
<trkpt lat="58.876897" lon="05.846543"><ele>22</ele><time>2012-03-31T13:08:47Z</time><cmt>0.0 kmh</cmt></trkpt>
<trkpt lat="58.876896" lon="05.846543"><ele>22</ele><time>2012-03-31T13:08:48Z</time><cmt>0.3 kmh</cmt></trkpt>
<trkpt lat="58.876895" lon="05.846542"><ele>22</ele><time>2012-03-31T13:08:49Z</time><cmt>0.5 kmh</cmt></trkpt>
<trkpt lat="58.876894" lon="05.846542"><ele>22</ele><time>2012-03-31T13:08:50Z</time><cmt>0.5 kmh</cmt></trkpt>
<trkpt lat="58.876893" lon="05.846542"><ele>22</ele><time>2012-03-31T13:08:51Z</time><cmt>0.2 kmh</cmt></trkpt>
<trkpt lat="58.876893" lon="05.846542"><ele>22</ele><time>2012-03-31T13:08:52Z</time><cmt>0.1 kmh</cmt></trkpt>
<trkpt lat="58.876892" lon="05.846543"><ele>22</ele><time>2012-03-31T13:08:53Z</time><cmt>0.2 kmh</cmt></trkpt>
<trkpt lat="58.876891" lon="05.846543"><ele>22</ele><time>2012-03-31T13:08:54Z</time><cmt>0.3 kmh</cmt></trkpt>
<trkpt lat="58.876890" lon="05.846542"><ele>22</ele><time>2012-03-31T13:08:55Z</time><cmt>0.5 kmh</cmt></trkpt>
<trkpt lat="58.876889" lon="05.846542"><ele>22</ele><time>2012-03-31T13:08:56Z</time><cmt>0.5 kmh</cmt></trkpt>
<trkpt lat="58.876887" lon="05.846541"><ele>22</ele><time>2012-03-31T13:08:57Z</time><cmt>0.4 kmh</cmt></trkpt>
<trkpt lat="58.876886" lon="05.846541"><ele>22</ele><time>2012-03-31T13:08:58Z</time><cmt>0.5 kmh</cmt></trkpt>
<trkpt lat="58.876884" lon="05.846540"><ele>22</ele><time>2012-03-31T13:08:59Z</time><cmt>0.8 kmh</cmt></trkpt>
<trkpt lat="58.876883" lon="05.846541"><ele>22</ele><time>2012-03-31T13:09:00Z</time><cmt>0.7 kmh</cmt></trkpt>
<trkpt lat="58.876845" lon="05.846662"><ele>23</ele><time>2012-03-31T13:09:51Z</time><cmt>5.0 kmh</cmt></trkpt>
<trkpt lat="58.876845" lon="05.846661"><ele>23</ele><time>2012-03-31T13:09:52Z</time><cmt>5.0 kmh</cmt></trkpt>
<trkpt lat="58.876845" lon="05.846660"><ele>23</ele><time>2012-03-31T13:09:53Z</time><cmt>0.1 kmh</cmt></trkpt>
<trkpt lat="58.876846" lon="05.846661"><ele>23</ele><time>2012-03-31T13:09:54Z</time><cmt>0.0 kmh</cmt></trkpt>
<trkpt lat="58.876846" lon="05.846664"><ele>23</ele><time>2012-03-31T13:09:55Z</time><cmt>0.3 kmh</cmt></trkpt>
<trkpt lat="58.876846" lon="05.846665"><ele>23</ele><time>2012-03-31T13:09:56Z</time><cmt>0.6 kmh</cmt></trkpt>
<trkpt lat="58.876846" lon="05.846665"><ele>23</ele><time>2012-03-31T13:09:57Z</time><cmt>0.3 kmh</cmt></trkpt>
<trkpt lat="58.876846" lon="05.846663"><ele>23</ele><time>2012-03-31T13:09:58Z</time><cmt>0.3 kmh</cmt></trkpt>
<trkpt lat="58.876837" lon="05.846651"><ele>23</ele><time>2012-03-31T13:10:16Z</time><cmt>2.4 kmh</cmt></trkpt>
<trkpt lat="58.876837" lon="05.846650"><ele>23</ele><time>2012-03-31T13:10:17Z</time><cmt>2.4 kmh</cmt></trkpt>
<trkpt lat="58.876837" lon="05.846650"><ele>23</ele><time>2012-03-31T13:10:18Z</time><cmt>0.0 kmh</cmt></trkpt>
<trkpt lat="58.876837" lon="05.846649"><ele>23</ele><time>2012-03-31T13:10:19Z</time><cmt>0.0 kmh</cmt></trkpt>
<trkpt lat="58.876837" lon="05.846647"><ele>23</ele><time>2012-03-31T13:10:20Z</time><cmt>0.0 kmh</cmt></trkpt>
<trkpt lat="58.876837" lon="05.846646"><ele>23</ele><time>2012-03-31T13:10:21Z</time><cmt>0.0 kmh</cmt></trkpt>
<trkpt lat="58.876836" lon="05.846646"><ele>23</ele><time>2012-03-31T13:10:22Z</time><cmt>0.0 kmh</cmt></trkpt>
<trkpt lat="58.876836" lon="05.846645"><ele>23</ele><time>2012-03-31T13:10:23Z</time><cmt>0.0 kmh</cmt></trkpt>
<trkpt lat="58.876836" lon="05.846645"><ele>23</ele><time>2012-03-31T13:10:24Z</time><cmt>0.0 kmh</cmt></trkpt>
<trkpt lat="58.876835" lon="05.846646"><ele>23</ele><time>2012-03-31T13:10:25Z</time><cmt>0.0 kmh</cmt></trkpt>
<trkpt lat="58.876835" lon="05.846648"><ele>23</ele><time>2012-03-31T13:10:26Z</time><cmt>0.0 kmh</cmt></trkpt>
<trkpt lat="58.876833" lon="05.846651"><ele>24</ele><time>2012-03-31T13:13:27Z</time><cmt>0.6 kmh</cmt></trkpt>
<trkpt lat="58.876833" lon="05.846652"><ele>24</ele><time>2012-03-31T13:13:28Z</time><cmt>0.8 kmh</cmt></trkpt>
<trkpt lat="58.876834" lon="05.846653"><ele>24</ele><time>2012-03-31T13:13:29Z</time><cmt>0.3 kmh</cmt></trkpt>
<trkpt lat="58.876835" lon="05.846654"><ele>24</ele><time>2012-03-31T13:13:30Z</time><cmt>0.2 kmh</cmt></trkpt>
<trkpt lat="58.876836" lon="05.846654"><ele>24</ele><time>2012-03-31T13:13:31Z</time><cmt>0.4 kmh</cmt></trkpt>
<trkpt lat="58.876825" lon="05.846615"><ele>24</ele><time>2012-03-31T13:13:55Z</time><cmt>2.2 kmh</cmt></trkpt>
<trkpt lat="58.876808" lon="05.846582"><ele>24</ele><time>2012-03-31T13:13:58Z</time><cmt>3.5 kmh</cmt></trkpt>
<trkpt lat="58.876792" lon="05.846550"><ele>24</ele><time>2012-03-31T13:14:01Z</time><cmt>2.8 kmh</cmt></trkpt>
<trkpt lat="58.876779" lon="05.846501"><ele>24</ele><time>2012-03-31T13:14:04Z</time><cmt>4.1 kmh</cmt></trkpt>
<trkpt lat="58.876775" lon="05.846460"><ele>24</ele><time>2012-03-31T13:14:06Z</time><cmt>5.0 kmh</cmt></trkpt>
<trkpt lat="58.876776" lon="05.846415"><ele>24</ele><time>2012-03-31T13:14:08Z</time><cmt>4.0 kmh</cmt></trkpt>
<trkpt lat="58.876783" lon="05.846372"><ele>24</ele><time>2012-03-31T13:14:10Z</time><cmt>5.0 kmh</cmt></trkpt>
<trkpt lat="58.876794" lon="05.846335"><ele>23</ele><time>2012-03-31T13:14:12Z</time><cmt>4.9 kmh</cmt></trkpt>
<trkpt lat="58.876806" lon="05.846309"><ele>23</ele><time>2012-03-31T13:14:13Z</time><cmt>4.9 kmh</cmt></trkpt>
<trkpt lat="58.876812" lon="05.846297"><ele>23</ele><time>2012-03-31T13:14:14Z</time><cmt>4.7 kmh</cmt></trkpt>
<trkpt lat="58.876821" lon="05.846285"><ele>23</ele><time>2012-03-31T13:14:15Z</time><cmt>4.2 kmh</cmt></trkpt>
<trkpt lat="58.876830" lon="05.846274"><ele>23</ele><time>2012-03-31T13:14:16Z</time><cmt>4.6 kmh</cmt></trkpt>
<trkpt lat="58.876840" lon="05.846262"><ele>23</ele><time>2012-03-31T13:14:17Z</time><cmt>4.9 kmh</cmt></trkpt>
<trkpt lat="58.876856" lon="05.846245"><ele>23</ele><time>2012-03-31T13:14:19Z</time><cmt>4.3 kmh</cmt></trkpt>
<trkpt lat="58.876877" lon="05.846224"><ele>23</ele><time>2012-03-31T13:14:21Z</time><cmt>4.1 kmh</cmt></trkpt>
<trkpt lat="58.876898" lon="05.846204"><ele>22</ele><time>2012-03-31T13:14:23Z</time><cmt>5.0 kmh</cmt></trkpt>
<trkpt lat="58.876918" lon="05.846185"><ele>22</ele><time>2012-03-31T13:14:25Z</time><cmt>4.9 kmh</cmt></trkpt>
<trkpt lat="58.876938" lon="05.846167"><ele>22</ele><time>2012-03-31T13:14:27Z</time><cmt>3.8 kmh</cmt></trkpt>
<trkpt lat="58.876959" lon="05.846149"><ele>22</ele><time>2012-03-31T13:14:29Z</time><cmt>5.0 kmh</cmt></trkpt>
<trkpt lat="58.876978" lon="05.846130"><ele>22</ele><time>2012-03-31T13:14:31Z</time><cmt>4.8 kmh</cmt></trkpt>
<trkpt lat="58.876999" lon="05.846108"><ele>22</ele><time>2012-03-31T13:14:33Z</time><cmt>4.0 kmh</cmt></trkpt>
<trkpt lat="58.877018" lon="05.846086"><ele>22</ele><time>2012-03-31T13:14:35Z</time><cmt>5.0 kmh</cmt></trkpt>
<trkpt lat="58.877041" lon="05.846055"><ele>21</ele><time>2012-03-31T13:14:38Z</time><cmt>3.5 kmh</cmt></trkpt>
<trkpt lat="58.877120" lon="05.845910"><ele>21</ele><time>2012-03-31T13:15:05Z</time><cmt>5.0 kmh</cmt></trkpt>
<trkpt lat="58.877124" lon="05.845900"><ele>21</ele><time>2012-03-31T13:15:06Z</time><cmt>5.0 kmh</cmt></trkpt>
<trkpt lat="58.877128" lon="05.845887"><ele>21</ele><time>2012-03-31T13:15:07Z</time><cmt>3.0 kmh</cmt></trkpt>
<trkpt lat="58.877133" lon="05.845873"><ele>21</ele><time>2012-03-31T13:15:08Z</time><cmt>3.6 kmh</cmt></trkpt>
<trkpt lat="58.877139" lon="05.845859"><ele>21</ele><time>2012-03-31T13:15:09Z</time><cmt>3.1 kmh</cmt></trkpt>
<trkpt lat="58.877144" lon="05.845845"><ele>21</ele><time>2012-03-31T13:15:10Z</time><cmt>3.2 kmh</cmt></trkpt>
<trkpt lat="58.877150" lon="05.845831"><ele>21</ele><time>2012-03-31T13:15:11Z</time><cmt>4.0 kmh</cmt></trkpt>
<trkpt lat="58.877156" lon="05.845818"><ele>21</ele><time>2012-03-31T13:15:12Z</time><cmt>3.8 kmh</cmt></trkpt>
<trkpt lat="58.877162" lon="05.845805"><ele>21</ele><time>2012-03-31T13:15:13Z</time><cmt>3.9 kmh</cmt></trkpt>
<trkpt lat="58.877169" lon="05.845791"><ele>21</ele><time>2012-03-31T13:15:14Z</time><cmt>4.1 kmh</cmt></trkpt>
<trkpt lat="58.877176" lon="05.845776"><ele>21</ele><time>2012-03-31T13:15:15Z</time><cmt>3.6 kmh</cmt></trkpt>
<trkpt lat="58.877184" lon="05.845760"><ele>21</ele><time>2012-03-31T13:15:16Z</time><cmt>3.8 kmh</cmt></trkpt>
<trkpt lat="58.877192" lon="05.845743"><ele>21</ele><time>2012-03-31T13:15:17Z</time><cmt>5.0 kmh</cmt></trkpt>
<trkpt lat="58.877200" lon="05.845724"><ele>21</ele><time>2012-03-31T13:15:18Z</time><cmt>5.0 kmh</cmt></trkpt>
<trkpt lat="58.877208" lon="05.845705"><ele>21</ele><time>2012-03-31T13:15:19Z</time><cmt>5.0 kmh</cmt></trkpt>
<trkpt lat="58.877216" lon="05.845685"><ele>21</ele><time>2012-03-31T13:15:20Z</time><cmt>5.4 kmh</cmt></trkpt>
<trkpt lat="58.877225" lon="05.845664"><ele>21</ele><time>2012-03-31T13:15:21Z</time><cmt>5.2 kmh</cmt></trkpt>
<trkpt lat="58.877233" lon="05.845643"><ele>21</ele><time>2012-03-31T13:15:22Z</time><cmt>5.1 kmh</cmt></trkpt>
<trkpt lat="58.877241" lon="05.845624"><ele>21</ele><time>2012-03-31T13:15:23Z</time><cmt>5.1 kmh</cmt></trkpt>
<trkpt lat="58.877249" lon="05.845606"><ele>21</ele><time>2012-03-31T13:15:24Z</time><cmt>5.0 kmh</cmt></trkpt>
<trkpt lat="58.877257" lon="05.845588"><ele>21</ele><time>2012-03-31T13:15:25Z</time><cmt>5.0 kmh</cmt></trkpt>
<trkpt lat="58.877265" lon="05.845570"><ele>21</ele><time>2012-03-31T13:15:26Z</time><cmt>5.0 kmh</cmt></trkpt>
<trkpt lat="58.877273" lon="05.845552"><ele>21</ele><time>2012-03-31T13:15:27Z</time><cmt>5.0 kmh</cmt></trkpt>
<trkpt lat="58.877280" lon="05.845535"><ele>21</ele><time>2012-03-31T13:15:28Z</time><cmt>4.1 kmh</cmt></trkpt>
<trkpt lat="58.877287" lon="05.845517"><ele>21</ele><time>2012-03-31T13:15:29Z</time><cmt>4.0 kmh</cmt></trkpt>
<trkpt lat="58.877294" lon="05.845499"><ele>21</ele><time>2012-03-31T13:15:30Z</time><cmt>5.0 kmh</cmt></trkpt>
<trkpt lat="58.877301" lon="05.845481"><ele>21</ele><time>2012-03-31T13:15:31Z</time><cmt>5.0 kmh</cmt></trkpt>
<trkpt lat="58.877309" lon="05.845462"><ele>21</ele><time>2012-03-31T13:15:32Z</time><cmt>5.0 kmh</cmt></trkpt>
<trkpt lat="58.877316" lon="05.845445"><ele>21</ele><time>2012-03-31T13:15:33Z</time><cmt>5.0 kmh</cmt></trkpt>
<trkpt lat="58.877323" lon="05.845430"><ele>21</ele><time>2012-03-31T13:15:34Z</time><cmt>3.8 kmh</cmt></trkpt>
<trkpt lat="58.877330" lon="05.845414"><ele>21</ele><time>2012-03-31T13:15:35Z</time><cmt>3.7 kmh</cmt></trkpt>
<trkpt lat="58.877337" lon="05.845399"><ele>21</ele><time>2012-03-31T13:15:36Z</time><cmt>4.6 kmh</cmt></trkpt>
<trkpt lat="58.877344" lon="05.845386"><ele>21</ele><time>2012-03-31T13:15:37Z</time><cmt>4.3 kmh</cmt></trkpt>
<trkpt lat="58.877351" lon="05.845373"><ele>21</ele><time>2012-03-31T13:15:38Z</time><cmt>4.1 kmh</cmt></trkpt>
<trkpt lat="58.877357" lon="05.845362"><ele>21</ele><time>2012-03-31T13:15:39Z</time><cmt>3.9 kmh</cmt></trkpt>
<trkpt lat="58.877364" lon="05.845351"><ele>21</ele><time>2012-03-31T13:15:40Z</time><cmt>3.0 kmh</cmt></trkpt>
<trkpt lat="58.877371" lon="05.845341"><ele>21</ele><time>2012-03-31T13:15:41Z</time><cmt>3.0 kmh</cmt></trkpt>
<trkpt lat="58.877377" lon="05.845332"><ele>21</ele><time>2012-03-31T13:15:42Z</time><cmt>3.6 kmh</cmt></trkpt>
<trkpt lat="58.877384" lon="05.845324"><ele>21</ele><time>2012-03-31T13:15:43Z</time><cmt>3.6 kmh</cmt></trkpt>
<trkpt lat="58.877391" lon="05.845316"><ele>21</ele><time>2012-03-31T13:15:44Z</time><cmt>3.5 kmh</cmt></trkpt>
<trkpt lat="58.877411" lon="05.845295"><ele>21</ele><time>2012-03-31T13:15:47Z</time><cmt>2.8 kmh</cmt></trkpt>
<trkpt lat="58.877430" lon="05.845280"><ele>21</ele><time>2012-03-31T13:15:49Z</time><cmt>5.0 kmh</cmt></trkpt>
<trkpt lat="58.877451" lon="05.845266"><ele>21</ele><time>2012-03-31T13:15:51Z</time><cmt>4.6 kmh</cmt></trkpt>
<trkpt lat="58.877474" lon="05.845254"><ele>21</ele><time>2012-03-31T13:15:53Z</time><cmt>4.4 kmh</cmt></trkpt>
<trkpt lat="58.877497" lon="05.845242"><ele>21</ele><time>2012-03-31T13:15:55Z</time><cmt>5.2 kmh</cmt></trkpt>
<trkpt lat="58.877520" lon="05.845230"><ele>21</ele><time>2012-03-31T13:15:57Z</time><cmt>5.0 kmh</cmt></trkpt>
<trkpt lat="58.877568" lon="05.845202"><ele>20</ele><time>2012-03-31T13:16:04Z</time><cmt>5.0 kmh</cmt></trkpt>
<trkpt lat="58.877592" lon="05.845191"><ele>20</ele><time>2012-03-31T13:16:07Z</time><cmt>3.0 kmh</cmt></trkpt>
<trkpt lat="58.877615" lon="05.845181"><ele>20</ele><time>2012-03-31T13:16:09Z</time><cmt>6.0 kmh</cmt></trkpt>
<trkpt lat="58.877647" lon="05.845165"><ele>20</ele><time>2012-03-31T13:16:11Z</time><cmt>7.5 kmh</cmt></trkpt>
<trkpt lat="58.877686" lon="05.845141"><ele>20</ele><time>2012-03-31T13:16:13Z</time><cmt>8.4 kmh</cmt></trkpt>
<trkpt lat="58.877707" lon="05.845126"><ele>20</ele><time>2012-03-31T13:16:14Z</time><cmt>8.9 kmh</cmt></trkpt>
<trkpt lat="58.877748" lon="05.845097"><ele>20</ele><time>2012-03-31T13:16:16Z</time><cmt>8.7 kmh</cmt></trkpt>
<trkpt lat="58.877770" lon="05.845079"><ele>20</ele><time>2012-03-31T13:16:17Z</time><cmt>9.1 kmh</cmt></trkpt>
<trkpt lat="58.877807" lon="05.845050"><ele>20</ele><time>2012-03-31T13:16:19Z</time><cmt>8.0 kmh</cmt></trkpt>
<trkpt lat="58.877845" lon="05.845021"><ele>20</ele><time>2012-03-31T13:16:21Z</time><cmt>8.1 kmh</cmt></trkpt>
<trkpt lat="58.877882" lon="05.844993"><ele>20</ele><time>2012-03-31T13:16:23Z</time><cmt>7.7 kmh</cmt></trkpt>
<trkpt lat="58.877919" lon="05.844967"><ele>20</ele><time>2012-03-31T13:16:25Z</time><cmt>7.3 kmh</cmt></trkpt>
<trkpt lat="58.877955" lon="05.844943"><ele>20</ele><time>2012-03-31T13:16:27Z</time><cmt>7.5 kmh</cmt></trkpt>
<trkpt lat="58.877991" lon="05.844920"><ele>20</ele><time>2012-03-31T13:16:29Z</time><cmt>7.7 kmh</cmt></trkpt>
<trkpt lat="58.878026" lon="05.844895"><ele>20</ele><time>2012-03-31T13:16:31Z</time><cmt>7.3 kmh</cmt></trkpt>
<trkpt lat="58.878060" lon="05.844870"><ele>20</ele><time>2012-03-31T13:16:33Z</time><cmt>7.2 kmh</cmt></trkpt>
<trkpt lat="58.878091" lon="05.844848"><ele>20</ele><time>2012-03-31T13:16:35Z</time><cmt>6.3 kmh</cmt></trkpt>
<trkpt lat="58.878123" lon="05.844828"><ele>20</ele><time>2012-03-31T13:16:37Z</time><cmt>6.3 kmh</cmt></trkpt>
<trkpt lat="58.878153" lon="05.844810"><ele>20</ele><time>2012-03-31T13:16:39Z</time><cmt>5.8 kmh</cmt></trkpt>
<trkpt lat="58.878181" lon="05.844796"><ele>19</ele><time>2012-03-31T13:16:41Z</time><cmt>5.5 kmh</cmt></trkpt>
<trkpt lat="58.878209" lon="05.844787"><ele>19</ele><time>2012-03-31T13:16:43Z</time><cmt>5.7 kmh</cmt></trkpt>
<trkpt lat="58.878237" lon="05.844780"><ele>19</ele><time>2012-03-31T13:16:45Z</time><cmt>5.6 kmh</cmt></trkpt>
<trkpt lat="58.878266" lon="05.844776"><ele>19</ele><time>2012-03-31T13:16:47Z</time><cmt>5.8 kmh</cmt></trkpt>
<trkpt lat="58.878295" lon="05.844774"><ele>19</ele><time>2012-03-31T13:16:49Z</time><cmt>5.6 kmh</cmt></trkpt>
<trkpt lat="58.878324" lon="05.844774"><ele>19</ele><time>2012-03-31T13:16:51Z</time><cmt>5.6 kmh</cmt></trkpt>
<trkpt lat="58.878351" lon="05.844777"><ele>19</ele><time>2012-03-31T13:16:53Z</time><cmt>5.5 kmh</cmt></trkpt>
<trkpt lat="58.878380" lon="05.844782"><ele>19</ele><time>2012-03-31T13:16:55Z</time><cmt>5.7 kmh</cmt></trkpt>
<trkpt lat="58.878409" lon="05.844789"><ele>19</ele><time>2012-03-31T13:16:57Z</time><cmt>5.7 kmh</cmt></trkpt>
<trkpt lat="58.878441" lon="05.844795"><ele>19</ele><time>2012-03-31T13:16:59Z</time><cmt>6.4 kmh</cmt></trkpt>
<trkpt lat="58.878473" lon="05.844801"><ele>19</ele><time>2012-03-31T13:17:01Z</time><cmt>6.3 kmh</cmt></trkpt>
<trkpt lat="58.878504" lon="05.844804"><ele>19</ele><time>2012-03-31T13:17:03Z</time><cmt>6.1 kmh</cmt></trkpt>
<trkpt lat="58.878535" lon="05.844806"><ele>19</ele><time>2012-03-31T13:17:05Z</time><cmt>5.9 kmh</cmt></trkpt>
<trkpt lat="58.878564" lon="05.844809"><ele>19</ele><time>2012-03-31T13:17:07Z</time><cmt>5.7 kmh</cmt></trkpt>
<trkpt lat="58.878593" lon="05.844812"><ele>19</ele><time>2012-03-31T13:17:09Z</time><cmt>5.8 kmh</cmt></trkpt>
<trkpt lat="58.878622" lon="05.844813"><ele>19</ele><time>2012-03-31T13:17:11Z</time><cmt>5.7 kmh</cmt></trkpt>
<trkpt lat="58.878652" lon="05.844815"><ele>18</ele><time>2012-03-31T13:17:13Z</time><cmt>5.7 kmh</cmt></trkpt>
<trkpt lat="58.878681" lon="05.844817"><ele>18</ele><time>2012-03-31T13:17:15Z</time><cmt>5.5 kmh</cmt></trkpt>
<trkpt lat="58.878710" lon="05.844816"><ele>18</ele><time>2012-03-31T13:17:17Z</time><cmt>5.3 kmh</cmt></trkpt>
<trkpt lat="58.878738" lon="05.844814"><ele>18</ele><time>2012-03-31T13:17:19Z</time><cmt>5.4 kmh</cmt></trkpt>
<trkpt lat="58.878766" lon="05.844812"><ele>18</ele><time>2012-03-31T13:17:21Z</time><cmt>5.2 kmh</cmt></trkpt>
<trkpt lat="58.878793" lon="05.844810"><ele>18</ele><time>2012-03-31T13:17:23Z</time><cmt>5.2 kmh</cmt></trkpt>
<trkpt lat="58.878820" lon="05.844807"><ele>18</ele><time>2012-03-31T13:17:25Z</time><cmt>5.1 kmh</cmt></trkpt>
<trkpt lat="58.878847" lon="05.844804"><ele>18</ele><time>2012-03-31T13:17:27Z</time><cmt>5.3 kmh</cmt></trkpt>
<trkpt lat="58.878875" lon="05.844795"><ele>18</ele><time>2012-03-31T13:17:29Z</time><cmt>5.2 kmh</cmt></trkpt>
<trkpt lat="58.878900" lon="05.844744"><ele>18</ele><time>2012-03-31T13:17:39Z</time><cmt>5.0 kmh</cmt></trkpt>
<trkpt lat="58.878921" lon="05.844748"><ele>18</ele><time>2012-03-31T13:17:42Z</time><cmt>3.1 kmh</cmt></trkpt>
<trkpt lat="58.878939" lon="05.844755"><ele>18</ele><time>2012-03-31T13:17:44Z</time><cmt>4.9 kmh</cmt></trkpt>
<trkpt lat="58.878958" lon="05.844765"><ele>18</ele><time>2012-03-31T13:17:46Z</time><cmt>3.6 kmh</cmt></trkpt>
<trkpt lat="58.878975" lon="05.844776"><ele>18</ele><time>2012-03-31T13:17:48Z</time><cmt>4.1 kmh</cmt></trkpt>
<trkpt lat="58.878989" lon="05.844786"><ele>18</ele><time>2012-03-31T13:17:49Z</time><cmt>4.8 kmh</cmt></trkpt>
<trkpt lat="58.878997" lon="05.844793"><ele>18</ele><time>2012-03-31T13:17:50Z</time><cmt>4.0 kmh</cmt></trkpt>
<trkpt lat="58.879021" lon="05.844820"><ele>18</ele><time>2012-03-31T13:17:53Z</time><cmt>4.0 kmh</cmt></trkpt>
<trkpt lat="58.879041" lon="05.844845"><ele>18</ele><time>2012-03-31T13:17:55Z</time><cmt>5.1 kmh</cmt></trkpt>
<trkpt lat="58.879061" lon="05.844870"><ele>18</ele><time>2012-03-31T13:17:57Z</time><cmt>5.0 kmh</cmt></trkpt>
<trkpt lat="58.879080" lon="05.844897"><ele>18</ele><time>2012-03-31T13:17:59Z</time><cmt>4.5 kmh</cmt></trkpt>
<trkpt lat="58.879100" lon="05.844927"><ele>18</ele><time>2012-03-31T13:18:01Z</time><cmt>5.1 kmh</cmt></trkpt>
<trkpt lat="58.879123" lon="05.844960"><ele>18</ele><time>2012-03-31T13:18:03Z</time><cmt>5.8 kmh</cmt></trkpt>
<trkpt lat="58.879143" lon="05.844998"><ele>18</ele><time>2012-03-31T13:18:05Z</time><cmt>5.8 kmh</cmt></trkpt>
<trkpt lat="58.879165" lon="05.845036"><ele>18</ele><time>2012-03-31T13:18:07Z</time><cmt>5.8 kmh</cmt></trkpt>
<trkpt lat="58.879186" lon="05.845077"><ele>19</ele><time>2012-03-31T13:18:09Z</time><cmt>6.2 kmh</cmt></trkpt>
<trkpt lat="58.879207" lon="05.845122"><ele>19</ele><time>2012-03-31T13:18:11Z</time><cmt>6.1 kmh</cmt></trkpt>
<trkpt lat="58.879228" lon="05.845166"><ele>19</ele><time>2012-03-31T13:18:13Z</time><cmt>6.2 kmh</cmt></trkpt>
<trkpt lat="58.879244" lon="05.845212"><ele>19</ele><time>2012-03-31T13:18:15Z</time><cmt>5.2 kmh</cmt></trkpt>
<trkpt lat="58.879258" lon="05.845252"><ele>19</ele><time>2012-03-31T13:18:17Z</time><cmt>5.2 kmh</cmt></trkpt>
<trkpt lat="58.879272" lon="05.845285"><ele>19</ele><time>2012-03-31T13:18:19Z</time><cmt>5.0 kmh</cmt></trkpt>
<trkpt lat="58.879289" lon="05.845319"><ele>19</ele><time>2012-03-31T13:18:21Z</time><cmt>5.2 kmh</cmt></trkpt>
<trkpt lat="58.879305" lon="05.845357"><ele>19</ele><time>2012-03-31T13:18:23Z</time><cmt>5.3 kmh</cmt></trkpt>
<trkpt lat="58.879326" lon="05.845418"><ele>19</ele><time>2012-03-31T13:18:26Z</time><cmt>5.5 kmh</cmt></trkpt>
<trkpt lat="58.879343" lon="05.845463"><ele>19</ele><time>2012-03-31T13:18:28Z</time><cmt>5.9 kmh</cmt></trkpt>
<trkpt lat="58.879358" lon="05.845511"><ele>19</ele><time>2012-03-31T13:18:30Z</time><cmt>6.0 kmh</cmt></trkpt>
<trkpt lat="58.879373" lon="05.845562"><ele>19</ele><time>2012-03-31T13:18:32Z</time><cmt>6.1 kmh</cmt></trkpt>
<trkpt lat="58.879395" lon="05.845643"><ele>19</ele><time>2012-03-31T13:18:35Z</time><cmt>6.5 kmh</cmt></trkpt>
<trkpt lat="58.879418" lon="05.845715"><ele>19</ele><time>2012-03-31T13:18:38Z</time><cmt>6.8 kmh</cmt></trkpt>
<trkpt lat="58.879449" lon="05.845804"><ele>19</ele><time>2012-03-31T13:18:41Z</time><cmt>6.7 kmh</cmt></trkpt>
<trkpt lat="58.879485" lon="05.845900"><ele>19</ele><time>2012-03-31T13:18:44Z</time><cmt>7.4 kmh</cmt></trkpt>
<trkpt lat="58.879519" lon="05.845994"><ele>20</ele><time>2012-03-31T13:18:47Z</time><cmt>7.5 kmh</cmt></trkpt>
<trkpt lat="58.879537" lon="05.846058"><ele>20</ele><time>2012-03-31T13:18:49Z</time><cmt>7.3 kmh</cmt></trkpt>
<trkpt lat="58.879549" lon="05.846156"><ele>21</ele><time>2012-03-31T13:18:52Z</time><cmt>7.3 kmh</cmt></trkpt>
<trkpt lat="58.879550" lon="05.846225"><ele>21</ele><time>2012-03-31T13:18:54Z</time><cmt>7.5 kmh</cmt></trkpt>
<trkpt lat="58.879546" lon="05.846302"><ele>21</ele><time>2012-03-31T13:18:56Z</time><cmt>8.0 kmh</cmt></trkpt>
<trkpt lat="58.879552" lon="05.846376"><ele>21</ele><time>2012-03-31T13:18:58Z</time><cmt>8.0 kmh</cmt></trkpt>
<trkpt lat="58.879559" lon="05.846441"><ele>21</ele><time>2012-03-31T13:19:00Z</time><cmt>7.7 kmh</cmt></trkpt>
<trkpt lat="58.879568" lon="05.846516"><ele>22</ele><time>2012-03-31T13:19:02Z</time><cmt>8.0 kmh</cmt></trkpt>
<trkpt lat="58.879576" lon="05.846590"><ele>22</ele><time>2012-03-31T13:19:04Z</time><cmt>8.1 kmh</cmt></trkpt>
<trkpt lat="58.879583" lon="05.846664"><ele>22</ele><time>2012-03-31T13:19:06Z</time><cmt>8.0 kmh</cmt></trkpt>
<trkpt lat="58.879590" lon="05.846736"><ele>22</ele><time>2012-03-31T13:19:08Z</time><cmt>7.8 kmh</cmt></trkpt>
<trkpt lat="58.879595" lon="05.846806"><ele>22</ele><time>2012-03-31T13:19:10Z</time><cmt>7.6 kmh</cmt></trkpt>
<trkpt lat="58.879600" lon="05.846874"><ele>22</ele><time>2012-03-31T13:19:12Z</time><cmt>7.3 kmh</cmt></trkpt>
<trkpt lat="58.879607" lon="05.846942"><ele>23</ele><time>2012-03-31T13:19:14Z</time><cmt>7.3 kmh</cmt></trkpt>
<trkpt lat="58.879613" lon="05.847011"><ele>23</ele><time>2012-03-31T13:19:16Z</time><cmt>7.4 kmh</cmt></trkpt>
<trkpt lat="58.879618" lon="05.847081"><ele>23</ele><time>2012-03-31T13:19:18Z</time><cmt>7.5 kmh</cmt></trkpt>
<trkpt lat="58.879622" lon="05.847151"><ele>23</ele><time>2012-03-31T13:19:20Z</time><cmt>7.6 kmh</cmt></trkpt>
<trkpt lat="58.879627" lon="05.847221"><ele>23</ele><time>2012-03-31T13:19:22Z</time><cmt>7.4 kmh</cmt></trkpt>
<trkpt lat="58.879629" lon="05.847293"><ele>23</ele><time>2012-03-31T13:19:24Z</time><cmt>7.6 kmh</cmt></trkpt>
<trkpt lat="58.879631" lon="05.847364"><ele>23</ele><time>2012-03-31T13:19:26Z</time><cmt>7.5 kmh</cmt></trkpt>
<trkpt lat="58.879631" lon="05.847436"><ele>23</ele><time>2012-03-31T13:19:28Z</time><cmt>7.7 kmh</cmt></trkpt>
<trkpt lat="58.879630" lon="05.847509"><ele>23</ele><time>2012-03-31T13:19:30Z</time><cmt>7.7 kmh</cmt></trkpt>
<trkpt lat="58.879629" lon="05.847582"><ele>23</ele><time>2012-03-31T13:19:32Z</time><cmt>7.7 kmh</cmt></trkpt>
<trkpt lat="58.879628" lon="05.847656"><ele>23</ele><time>2012-03-31T13:19:34Z</time><cmt>7.8 kmh</cmt></trkpt>
<trkpt lat="58.879628" lon="05.847731"><ele>24</ele><time>2012-03-31T13:19:36Z</time><cmt>7.8 kmh</cmt></trkpt>
<trkpt lat="58.879629" lon="05.847807"><ele>24</ele><time>2012-03-31T13:19:38Z</time><cmt>8.0 kmh</cmt></trkpt>
<trkpt lat="58.879630" lon="05.847885"><ele>24</ele><time>2012-03-31T13:19:40Z</time><cmt>8.3 kmh</cmt></trkpt>
<trkpt lat="58.879632" lon="05.847962"><ele>24</ele><time>2012-03-31T13:19:42Z</time><cmt>8.1 kmh</cmt></trkpt>
<trkpt lat="58.879634" lon="05.848038"><ele>24</ele><time>2012-03-31T13:19:44Z</time><cmt>8.0 kmh</cmt></trkpt>
<trkpt lat="58.879637" lon="05.848116"><ele>24</ele><time>2012-03-31T13:19:46Z</time><cmt>8.4 kmh</cmt></trkpt>
<trkpt lat="58.879641" lon="05.848195"><ele>24</ele><time>2012-03-31T13:19:48Z</time><cmt>8.5 kmh</cmt></trkpt>
<trkpt lat="58.879646" lon="05.848273"><ele>24</ele><time>2012-03-31T13:19:50Z</time><cmt>8.2 kmh</cmt></trkpt>
<trkpt lat="58.879648" lon="05.848354"><ele>24</ele><time>2012-03-31T13:19:52Z</time><cmt>8.6 kmh</cmt></trkpt>
<trkpt lat="58.879649" lon="05.848433"><ele>24</ele><time>2012-03-31T13:19:54Z</time><cmt>8.3 kmh</cmt></trkpt>
<trkpt lat="58.879646" lon="05.848517"><ele>24</ele><time>2012-03-31T13:19:56Z</time><cmt>8.3 kmh</cmt></trkpt>
<trkpt lat="58.879648" lon="05.848597"><ele>24</ele><time>2012-03-31T13:19:58Z</time><cmt>8.3 kmh</cmt></trkpt>
<trkpt lat="58.879651" lon="05.848678"><ele>24</ele><time>2012-03-31T13:20:00Z</time><cmt>8.5 kmh</cmt></trkpt>
<trkpt lat="58.879652" lon="05.848757"><ele>25</ele><time>2012-03-31T13:20:02Z</time><cmt>8.2 kmh</cmt></trkpt>
<trkpt lat="58.879654" lon="05.848796"><ele>25</ele><time>2012-03-31T13:20:03Z</time><cmt>8.2 kmh</cmt></trkpt>
<trkpt lat="58.879656" lon="05.848836"><ele>25</ele><time>2012-03-31T13:20:04Z</time><cmt>8.2 kmh</cmt></trkpt>
<trkpt lat="58.879658" lon="05.848876"><ele>25</ele><time>2012-03-31T13:20:05Z</time><cmt>8.4 kmh</cmt></trkpt>
<trkpt lat="58.879661" lon="05.848914"><ele>25</ele><time>2012-03-31T13:20:06Z</time><cmt>8.1 kmh</cmt></trkpt>
<trkpt lat="58.879665" lon="05.848961"><ele>25</ele><time>2012-03-31T13:20:07Z</time><cmt>8.5 kmh</cmt></trkpt>
<trkpt lat="58.879668" lon="05.848997"><ele>25</ele><time>2012-03-31T13:20:08Z</time><cmt>8.5 kmh</cmt></trkpt>
<trkpt lat="58.879669" lon="05.849036"><ele>25</ele><time>2012-03-31T13:20:09Z</time><cmt>8.7 kmh</cmt></trkpt>
<trkpt lat="58.879670" lon="05.849076"><ele>25</ele><time>2012-03-31T13:20:10Z</time><cmt>8.4 kmh</cmt></trkpt>
<trkpt lat="58.879671" lon="05.849116"><ele>25</ele><time>2012-03-31T13:20:11Z</time><cmt>8.4 kmh</cmt></trkpt>
<trkpt lat="58.879671" lon="05.849156"><ele>26</ele><time>2012-03-31T13:20:12Z</time><cmt>8.1 kmh</cmt></trkpt>
<trkpt lat="58.879670" lon="05.849195"><ele>26</ele><time>2012-03-31T13:20:13Z</time><cmt>8.2 kmh</cmt></trkpt>
<trkpt lat="58.879670" lon="05.849234"><ele>26</ele><time>2012-03-31T13:20:14Z</time><cmt>8.2 kmh</cmt></trkpt>
<trkpt lat="58.879669" lon="05.849273"><ele>26</ele><time>2012-03-31T13:20:15Z</time><cmt>8.0 kmh</cmt></trkpt>
<trkpt lat="58.879670" lon="05.849311"><ele>26</ele><time>2012-03-31T13:20:16Z</time><cmt>8.0 kmh</cmt></trkpt>
<trkpt lat="58.879670" lon="05.849349"><ele>26</ele><time>2012-03-31T13:20:17Z</time><cmt>8.1 kmh</cmt></trkpt>
<trkpt lat="58.879670" lon="05.849387"><ele>26</ele><time>2012-03-31T13:20:18Z</time><cmt>7.8 kmh</cmt></trkpt>
<trkpt lat="58.879671" lon="05.849425"><ele>26</ele><time>2012-03-31T13:20:19Z</time><cmt>8.0 kmh</cmt></trkpt>
<trkpt lat="58.879674" lon="05.849462"><ele>26</ele><time>2012-03-31T13:20:20Z</time><cmt>7.6 kmh</cmt></trkpt>
<trkpt lat="58.879677" lon="05.849498"><ele>26</ele><time>2012-03-31T13:20:21Z</time><cmt>7.8 kmh</cmt></trkpt>
<trkpt lat="58.879682" lon="05.849533"><ele>26</ele><time>2012-03-31T13:20:22Z</time><cmt>7.6 kmh</cmt></trkpt>
<trkpt lat="58.879686" lon="05.849569"><ele>26</ele><time>2012-03-31T13:20:23Z</time><cmt>7.7 kmh</cmt></trkpt>
<trkpt lat="58.879691" lon="05.849604"><ele>26</ele><time>2012-03-31T13:20:24Z</time><cmt>7.7 kmh</cmt></trkpt>
<trkpt lat="58.879697" lon="05.849640"><ele>26</ele><time>2012-03-31T13:20:25Z</time><cmt>7.9 kmh</cmt></trkpt>
<trkpt lat="58.879701" lon="05.849676"><ele>26</ele><time>2012-03-31T13:20:26Z</time><cmt>7.7 kmh</cmt></trkpt>
<trkpt lat="58.879704" lon="05.849712"><ele>26</ele><time>2012-03-31T13:20:27Z</time><cmt>8.0 kmh</cmt></trkpt>
<trkpt lat="58.879708" lon="05.849749"><ele>26</ele><time>2012-03-31T13:20:28Z</time><cmt>7.9 kmh</cmt></trkpt>
<trkpt lat="58.879712" lon="05.849786"><ele>26</ele><time>2012-03-31T13:20:29Z</time><cmt>8.0 kmh</cmt></trkpt>
<trkpt lat="58.879715" lon="05.849823"><ele>26</ele><time>2012-03-31T13:20:30Z</time><cmt>8.0 kmh</cmt></trkpt>
<trkpt lat="58.879717" lon="05.849859"><ele>26</ele><time>2012-03-31T13:20:31Z</time><cmt>7.7 kmh</cmt></trkpt>
<trkpt lat="58.879721" lon="05.849894"><ele>26</ele><time>2012-03-31T13:20:32Z</time><cmt>7.2 kmh</cmt></trkpt>
<trkpt lat="58.879725" lon="05.849926"><ele>26</ele><time>2012-03-31T13:20:33Z</time><cmt>6.7 kmh</cmt></trkpt>
<trkpt lat="58.879729" lon="05.849955"><ele>26</ele><time>2012-03-31T13:20:34Z</time><cmt>6.3 kmh</cmt></trkpt>
<trkpt lat="58.879737" lon="05.849984"><ele>26</ele><time>2012-03-31T13:20:35Z</time><cmt>6.8 kmh</cmt></trkpt>
<trkpt lat="58.879745" lon="05.850014"><ele>26</ele><time>2012-03-31T13:20:36Z</time><cmt>6.7 kmh</cmt></trkpt>
<trkpt lat="58.879752" lon="05.850042"><ele>26</ele><time>2012-03-31T13:20:37Z</time><cmt>6.2 kmh</cmt></trkpt>
<trkpt lat="58.879756" lon="05.850069"><ele>26</ele><time>2012-03-31T13:20:38Z</time><cmt>5.8 kmh</cmt></trkpt>
<trkpt lat="58.879761" lon="05.850094"><ele>26</ele><time>2012-03-31T13:20:39Z</time><cmt>5.6 kmh</cmt></trkpt>
<trkpt lat="58.879766" lon="05.850119"><ele>26</ele><time>2012-03-31T13:20:40Z</time><cmt>5.7 kmh</cmt></trkpt>
<trkpt lat="58.879771" lon="05.850146"><ele>26</ele><time>2012-03-31T13:20:41Z</time><cmt>5.9 kmh</cmt></trkpt>
<trkpt lat="58.879775" lon="05.850173"><ele>26</ele><time>2012-03-31T13:20:42Z</time><cmt>6.3 kmh</cmt></trkpt>
<trkpt lat="58.879780" lon="05.850202"><ele>27</ele><time>2012-03-31T13:20:43Z</time><cmt>6.7 kmh</cmt></trkpt>
<trkpt lat="58.879783" lon="05.850232"><ele>27</ele><time>2012-03-31T13:20:44Z</time><cmt>7.1 kmh</cmt></trkpt>
<trkpt lat="58.879785" lon="05.850263"><ele>27</ele><time>2012-03-31T13:20:45Z</time><cmt>7.1 kmh</cmt></trkpt>
<trkpt lat="58.879789" lon="05.850295"><ele>27</ele><time>2012-03-31T13:20:46Z</time><cmt>7.5 kmh</cmt></trkpt>
<trkpt lat="58.879792" lon="05.850328"><ele>27</ele><time>2012-03-31T13:20:47Z</time><cmt>7.3 kmh</cmt></trkpt>
<trkpt lat="58.879795" lon="05.850363"><ele>27</ele><time>2012-03-31T13:20:48Z</time><cmt>7.7 kmh</cmt></trkpt>
<trkpt lat="58.879797" lon="05.850398"><ele>27</ele><time>2012-03-31T13:20:49Z</time><cmt>7.6 kmh</cmt></trkpt>
<trkpt lat="58.879799" lon="05.850434"><ele>27</ele><time>2012-03-31T13:20:50Z</time><cmt>7.9 kmh</cmt></trkpt>
<trkpt lat="58.879800" lon="05.850470"><ele>27</ele><time>2012-03-31T13:20:51Z</time><cmt>7.7 kmh</cmt></trkpt>
<trkpt lat="58.879800" lon="05.850506"><ele>27</ele><time>2012-03-31T13:20:52Z</time><cmt>7.5 kmh</cmt></trkpt>
<trkpt lat="58.879801" lon="05.850541"><ele>27</ele><time>2012-03-31T13:20:53Z</time><cmt>7.3 kmh</cmt></trkpt>
<trkpt lat="58.879801" lon="05.850575"><ele>27</ele><time>2012-03-31T13:20:54Z</time><cmt>7.3 kmh</cmt></trkpt>
<trkpt lat="58.879802" lon="05.850610"><ele>27</ele><time>2012-03-31T13:20:55Z</time><cmt>7.3 kmh</cmt></trkpt>
<trkpt lat="58.879802" lon="05.850645"><ele>27</ele><time>2012-03-31T13:20:56Z</time><cmt>7.4 kmh</cmt></trkpt>
<trkpt lat="58.879802" lon="05.850680"><ele>27</ele><time>2012-03-31T13:20:57Z</time><cmt>7.6 kmh</cmt></trkpt>
<trkpt lat="58.879801" lon="05.850715"><ele>27</ele><time>2012-03-31T13:20:58Z</time><cmt>7.4 kmh</cmt></trkpt>
<trkpt lat="58.879801" lon="05.850750"><ele>27</ele><time>2012-03-31T13:20:59Z</time><cmt>7.7 kmh</cmt></trkpt>
<trkpt lat="58.879800" lon="05.850786"><ele>27</ele><time>2012-03-31T13:21:00Z</time><cmt>7.6 kmh</cmt></trkpt>
<trkpt lat="58.879799" lon="05.850822"><ele>27</ele><time>2012-03-31T13:21:01Z</time><cmt>7.5 kmh</cmt></trkpt>
<trkpt lat="58.879798" lon="05.850858"><ele>27</ele><time>2012-03-31T13:21:02Z</time><cmt>7.7 kmh</cmt></trkpt>
<trkpt lat="58.879797" lon="05.850894"><ele>27</ele><time>2012-03-31T13:21:03Z</time><cmt>7.6 kmh</cmt></trkpt>
<trkpt lat="58.879795" lon="05.850930"><ele>27</ele><time>2012-03-31T13:21:04Z</time><cmt>7.7 kmh</cmt></trkpt>
<trkpt lat="58.879793" lon="05.850965"><ele>27</ele><time>2012-03-31T13:21:05Z</time><cmt>7.2 kmh</cmt></trkpt>
<trkpt lat="58.879790" lon="05.851000"><ele>27</ele><time>2012-03-31T13:21:06Z</time><cmt>7.9 kmh</cmt></trkpt>
<trkpt lat="58.879786" lon="05.851035"><ele>27</ele><time>2012-03-31T13:21:07Z</time><cmt>7.4 kmh</cmt></trkpt>
<trkpt lat="58.879783" lon="05.851069"><ele>27</ele><time>2012-03-31T13:21:08Z</time><cmt>7.3 kmh</cmt></trkpt>
<trkpt lat="58.879780" lon="05.851104"><ele>27</ele><time>2012-03-31T13:21:09Z</time><cmt>7.7 kmh</cmt></trkpt>
<trkpt lat="58.879777" lon="05.851139"><ele>27</ele><time>2012-03-31T13:21:10Z</time><cmt>7.2 kmh</cmt></trkpt>
<trkpt lat="58.879775" lon="05.851173"><ele>27</ele><time>2012-03-31T13:21:11Z</time><cmt>7.2 kmh</cmt></trkpt>
<trkpt lat="58.879773" lon="05.851207"><ele>27</ele><time>2012-03-31T13:21:12Z</time><cmt>7.3 kmh</cmt></trkpt>
<trkpt lat="58.879771" lon="05.851242"><ele>27</ele><time>2012-03-31T13:21:13Z</time><cmt>7.6 kmh</cmt></trkpt>
<trkpt lat="58.879770" lon="05.851277"><ele>27</ele><time>2012-03-31T13:21:14Z</time><cmt>7.4 kmh</cmt></trkpt>
<trkpt lat="58.879768" lon="05.851312"><ele>27</ele><time>2012-03-31T13:21:15Z</time><cmt>7.6 kmh</cmt></trkpt>
<trkpt lat="58.879766" lon="05.851348"><ele>27</ele><time>2012-03-31T13:21:16Z</time><cmt>7.6 kmh</cmt></trkpt>
<trkpt lat="58.879764" lon="05.851384"><ele>27</ele><time>2012-03-31T13:21:17Z</time><cmt>7.8 kmh</cmt></trkpt>
<trkpt lat="58.879762" lon="05.851421"><ele>26</ele><time>2012-03-31T13:21:18Z</time><cmt>8.0 kmh</cmt></trkpt>
<trkpt lat="58.879760" lon="05.851459"><ele>26</ele><time>2012-03-31T13:21:19Z</time><cmt>8.1 kmh</cmt></trkpt>
<trkpt lat="58.879759" lon="05.851497"><ele>26</ele><time>2012-03-31T13:21:20Z</time><cmt>8.4 kmh</cmt></trkpt>
<trkpt lat="58.879758" lon="05.851536"><ele>26</ele><time>2012-03-31T13:21:21Z</time><cmt>8.0 kmh</cmt></trkpt>
<trkpt lat="58.879758" lon="05.851575"><ele>26</ele><time>2012-03-31T13:21:22Z</time><cmt>8.3 kmh</cmt></trkpt>
<trkpt lat="58.879758" lon="05.851614"><ele>26</ele><time>2012-03-31T13:21:23Z</time><cmt>8.4 kmh</cmt></trkpt>
<trkpt lat="58.879759" lon="05.851654"><ele>26</ele><time>2012-03-31T13:21:24Z</time><cmt>8.5 kmh</cmt></trkpt>
<trkpt lat="58.879759" lon="05.851693"><ele>26</ele><time>2012-03-31T13:21:25Z</time><cmt>8.1 kmh</cmt></trkpt>
<trkpt lat="58.879760" lon="05.851731"><ele>26</ele><time>2012-03-31T13:21:26Z</time><cmt>8.0 kmh</cmt></trkpt>
<trkpt lat="58.879760" lon="05.851769"><ele>26</ele><time>2012-03-31T13:21:27Z</time><cmt>8.1 kmh</cmt></trkpt>
<trkpt lat="58.879759" lon="05.851807"><ele>26</ele><time>2012-03-31T13:21:28Z</time><cmt>8.0 kmh</cmt></trkpt>
<trkpt lat="58.879759" lon="05.851845"><ele>26</ele><time>2012-03-31T13:21:29Z</time><cmt>7.9 kmh</cmt></trkpt>
<trkpt lat="58.879758" lon="05.851883"><ele>26</ele><time>2012-03-31T13:21:30Z</time><cmt>8.3 kmh</cmt></trkpt>
<trkpt lat="58.879758" lon="05.851922"><ele>26</ele><time>2012-03-31T13:21:31Z</time><cmt>8.1 kmh</cmt></trkpt>
<trkpt lat="58.879757" lon="05.851960"><ele>26</ele><time>2012-03-31T13:21:32Z</time><cmt>8.0 kmh</cmt></trkpt>
<trkpt lat="58.879756" lon="05.851997"><ele>26</ele><time>2012-03-31T13:21:33Z</time><cmt>7.5 kmh</cmt></trkpt>
<trkpt lat="58.879756" lon="05.852032"><ele>26</ele><time>2012-03-31T13:21:34Z</time><cmt>7.3 kmh</cmt></trkpt>
<trkpt lat="58.879756" lon="05.852066"><ele>26</ele><time>2012-03-31T13:21:35Z</time><cmt>6.8 kmh</cmt></trkpt>
<trkpt lat="58.879757" lon="05.852098"><ele>26</ele><time>2012-03-31T13:21:36Z</time><cmt>6.6 kmh</cmt></trkpt>
<trkpt lat="58.879756" lon="05.852129"><ele>26</ele><time>2012-03-31T13:21:37Z</time><cmt>6.2 kmh</cmt></trkpt>
<trkpt lat="58.879756" lon="05.852157"><ele>26</ele><time>2012-03-31T13:21:38Z</time><cmt>5.3 kmh</cmt></trkpt>
<trkpt lat="58.879757" lon="05.852181"><ele>26</ele><time>2012-03-31T13:21:39Z</time><cmt>5.3 kmh</cmt></trkpt>
<trkpt lat="58.879757" lon="05.852199"><ele>26</ele><time>2012-03-31T13:21:40Z</time><cmt>3.8 kmh</cmt></trkpt>
<trkpt lat="58.879757" lon="05.852212"><ele>26</ele><time>2012-03-31T13:21:41Z</time><cmt>2.8 kmh</cmt></trkpt>
<trkpt lat="58.879757" lon="05.852222"><ele>26</ele><time>2012-03-31T13:21:42Z</time><cmt>2.5 kmh</cmt></trkpt>
<trkpt lat="58.879755" lon="05.852231"><ele>26</ele><time>2012-03-31T13:21:43Z</time><cmt>2.3 kmh</cmt></trkpt>
<trkpt lat="58.879753" lon="05.852241"><ele>26</ele><time>2012-03-31T13:21:44Z</time><cmt>2.4 kmh</cmt></trkpt>
<trkpt lat="58.879751" lon="05.852251"><ele>26</ele><time>2012-03-31T13:21:45Z</time><cmt>2.4 kmh</cmt></trkpt>
<trkpt lat="58.879749" lon="05.852262"><ele>26</ele><time>2012-03-31T13:21:46Z</time><cmt>2.1 kmh</cmt></trkpt>
<trkpt lat="58.879744" lon="05.852275"><ele>26</ele><time>2012-03-31T13:21:47Z</time><cmt>2.4 kmh</cmt></trkpt>
<trkpt lat="58.879740" lon="05.852289"><ele>26</ele><time>2012-03-31T13:21:48Z</time><cmt>3.5 kmh</cmt></trkpt>
<trkpt lat="58.879736" lon="05.852301"><ele>26</ele><time>2012-03-31T13:21:49Z</time><cmt>3.4 kmh</cmt></trkpt>
<trkpt lat="58.879733" lon="05.852311"><ele>26</ele><time>2012-03-31T13:21:50Z</time><cmt>3.0 kmh</cmt></trkpt>
<trkpt lat="58.879729" lon="05.852320"><ele>26</ele><time>2012-03-31T13:21:51Z</time><cmt>2.6 kmh</cmt></trkpt>
<trkpt lat="58.879726" lon="05.852328"><ele>26</ele><time>2012-03-31T13:21:52Z</time><cmt>2.0 kmh</cmt></trkpt>
<trkpt lat="58.879722" lon="05.852338"><ele>26</ele><time>2012-03-31T13:21:53Z</time><cmt>2.0 kmh</cmt></trkpt>
<trkpt lat="58.879720" lon="05.852349"><ele>26</ele><time>2012-03-31T13:21:54Z</time><cmt>2.6 kmh</cmt></trkpt>
<trkpt lat="58.879717" lon="05.852359"><ele>26</ele><time>2012-03-31T13:21:55Z</time><cmt>2.6 kmh</cmt></trkpt>
<trkpt lat="58.879714" lon="05.852372"><ele>26</ele><time>2012-03-31T13:21:56Z</time><cmt>2.9 kmh</cmt></trkpt>
<trkpt lat="58.879710" lon="05.852386"><ele>26</ele><time>2012-03-31T13:21:57Z</time><cmt>3.3 kmh</cmt></trkpt>
<trkpt lat="58.879707" lon="05.852402"><ele>26</ele><time>2012-03-31T13:21:58Z</time><cmt>2.9 kmh</cmt></trkpt>
<trkpt lat="58.879704" lon="05.852416"><ele>26</ele><time>2012-03-31T13:21:59Z</time><cmt>2.9 kmh</cmt></trkpt>
<trkpt lat="58.879700" lon="05.852429"><ele>26</ele><time>2012-03-31T13:22:00Z</time><cmt>3.4 kmh</cmt></trkpt>
<trkpt lat="58.879697" lon="05.852441"><ele>26</ele><time>2012-03-31T13:22:01Z</time><cmt>3.0 kmh</cmt></trkpt>
<trkpt lat="58.879694" lon="05.852452"><ele>26</ele><time>2012-03-31T13:22:02Z</time><cmt>2.8 kmh</cmt></trkpt>
<trkpt lat="58.879691" lon="05.852463"><ele>26</ele><time>2012-03-31T13:22:03Z</time><cmt>2.8 kmh</cmt></trkpt>
<trkpt lat="58.879688" lon="05.852475"><ele>26</ele><time>2012-03-31T13:22:04Z</time><cmt>2.3 kmh</cmt></trkpt>
<trkpt lat="58.879684" lon="05.852487"><ele>26</ele><time>2012-03-31T13:22:05Z</time><cmt>2.4 kmh</cmt></trkpt>
<trkpt lat="58.879681" lon="05.852499"><ele>26</ele><time>2012-03-31T13:22:06Z</time><cmt>3.1 kmh</cmt></trkpt>
<trkpt lat="58.879678" lon="05.852511"><ele>26</ele><time>2012-03-31T13:22:07Z</time><cmt>3.1 kmh</cmt></trkpt>
<trkpt lat="58.879674" lon="05.852524"><ele>25</ele><time>2012-03-31T13:22:08Z</time><cmt>3.2 kmh</cmt></trkpt>
<trkpt lat="58.879670" lon="05.852536"><ele>25</ele><time>2012-03-31T13:22:09Z</time><cmt>3.1 kmh</cmt></trkpt>
<trkpt lat="58.879666" lon="05.852546"><ele>25</ele><time>2012-03-31T13:22:10Z</time><cmt>2.9 kmh</cmt></trkpt>
<trkpt lat="58.879662" lon="05.852555"><ele>25</ele><time>2012-03-31T13:22:11Z</time><cmt>2.2 kmh</cmt></trkpt>
<trkpt lat="58.879658" lon="05.852565"><ele>25</ele><time>2012-03-31T13:22:12Z</time><cmt>2.2 kmh</cmt></trkpt>
<trkpt lat="58.879654" lon="05.852575"><ele>25</ele><time>2012-03-31T13:22:13Z</time><cmt>2.8 kmh</cmt></trkpt>
<trkpt lat="58.879650" lon="05.852586"><ele>25</ele><time>2012-03-31T13:22:14Z</time><cmt>2.9 kmh</cmt></trkpt>
<trkpt lat="58.879646" lon="05.852597"><ele>25</ele><time>2012-03-31T13:22:15Z</time><cmt>3.0 kmh</cmt></trkpt>
<trkpt lat="58.879642" lon="05.852608"><ele>25</ele><time>2012-03-31T13:22:16Z</time><cmt>3.0 kmh</cmt></trkpt>
<trkpt lat="58.879638" lon="05.852619"><ele>25</ele><time>2012-03-31T13:22:17Z</time><cmt>2.4 kmh</cmt></trkpt>
<trkpt lat="58.879634" lon="05.852630"><ele>25</ele><time>2012-03-31T13:22:18Z</time><cmt>2.4 kmh</cmt></trkpt>
<trkpt lat="58.879630" lon="05.852640"><ele>25</ele><time>2012-03-31T13:22:19Z</time><cmt>3.0 kmh</cmt></trkpt>
<trkpt lat="58.879626" lon="05.852651"><ele>25</ele><time>2012-03-31T13:22:20Z</time><cmt>3.0 kmh</cmt></trkpt>
<trkpt lat="58.879622" lon="05.852661"><ele>25</ele><time>2012-03-31T13:22:21Z</time><cmt>2.9 kmh</cmt></trkpt>
<trkpt lat="58.879618" lon="05.852672"><ele>25</ele><time>2012-03-31T13:22:22Z</time><cmt>2.9 kmh</cmt></trkpt>
<trkpt lat="58.879615" lon="05.852684"><ele>25</ele><time>2012-03-31T13:22:23Z</time><cmt>2.4 kmh</cmt></trkpt>
<trkpt lat="58.879611" lon="05.852695"><ele>25</ele><time>2012-03-31T13:22:24Z</time><cmt>2.4 kmh</cmt></trkpt>
<trkpt lat="58.879607" lon="05.852707"><ele>25</ele><time>2012-03-31T13:22:25Z</time><cmt>3.0 kmh</cmt></trkpt>
<trkpt lat="58.879604" lon="05.852719"><ele>25</ele><time>2012-03-31T13:22:26Z</time><cmt>3.1 kmh</cmt></trkpt>
<trkpt lat="58.879600" lon="05.852731"><ele>25</ele><time>2012-03-31T13:22:27Z</time><cmt>3.1 kmh</cmt></trkpt>
<trkpt lat="58.879597" lon="05.852742"><ele>25</ele><time>2012-03-31T13:22:28Z</time><cmt>3.0 kmh</cmt></trkpt>
<trkpt lat="58.879593" lon="05.852754"><ele>25</ele><time>2012-03-31T13:22:29Z</time><cmt>2.4 kmh</cmt></trkpt>
<trkpt lat="58.879589" lon="05.852765"><ele>25</ele><time>2012-03-31T13:22:30Z</time><cmt>2.4 kmh</cmt></trkpt>
<trkpt lat="58.879586" lon="05.852776"><ele>25</ele><time>2012-03-31T13:22:31Z</time><cmt>2.9 kmh</cmt></trkpt>
<trkpt lat="58.879583" lon="05.852787"><ele>25</ele><time>2012-03-31T13:22:32Z</time><cmt>2.8 kmh</cmt></trkpt>
<trkpt lat="58.879580" lon="05.852799"><ele>25</ele><time>2012-03-31T13:22:33Z</time><cmt>2.8 kmh</cmt></trkpt>
<trkpt lat="58.879577" lon="05.852809"><ele>25</ele><time>2012-03-31T13:22:34Z</time><cmt>2.7 kmh</cmt></trkpt>
<trkpt lat="58.879575" lon="05.852820"><ele>25</ele><time>2012-03-31T13:22:35Z</time><cmt>2.0 kmh</cmt></trkpt>
<trkpt lat="58.879572" lon="05.852829"><ele>25</ele><time>2012-03-31T13:22:36Z</time><cmt>1.9 kmh</cmt></trkpt>
<trkpt lat="58.879570" lon="05.852836"><ele>25</ele><time>2012-03-31T13:22:37Z</time><cmt>2.2 kmh</cmt></trkpt>
<trkpt lat="58.879566" lon="05.852841"><ele>25</ele><time>2012-03-31T13:22:38Z</time><cmt>1.9 kmh</cmt></trkpt>
<trkpt lat="58.879563" lon="05.852846"><ele>25</ele><time>2012-03-31T13:22:39Z</time><cmt>1.8 kmh</cmt></trkpt>
<trkpt lat="58.879560" lon="05.852852"><ele>25</ele><time>2012-03-31T13:22:40Z</time><cmt>1.8 kmh</cmt></trkpt>
<trkpt lat="58.879558" lon="05.852860"><ele>25</ele><time>2012-03-31T13:22:41Z</time><cmt>1.6 kmh</cmt></trkpt>
<trkpt lat="58.879554" lon="05.852870"><ele>25</ele><time>2012-03-31T13:22:42Z</time><cmt>1.9 kmh</cmt></trkpt>
<trkpt lat="58.879551" lon="05.852880"><ele>25</ele><time>2012-03-31T13:22:43Z</time><cmt>2.7 kmh</cmt></trkpt>
<trkpt lat="58.879548" lon="05.852891"><ele>25</ele><time>2012-03-31T13:22:44Z</time><cmt>2.8 kmh</cmt></trkpt>
<trkpt lat="58.879546" lon="05.852902"><ele>25</ele><time>2012-03-31T13:22:45Z</time><cmt>2.7 kmh</cmt></trkpt>
<trkpt lat="58.879543" lon="05.852913"><ele>25</ele><time>2012-03-31T13:22:46Z</time><cmt>2.7 kmh</cmt></trkpt>
<trkpt lat="58.879540" lon="05.852924"><ele>25</ele><time>2012-03-31T13:22:47Z</time><cmt>2.7 kmh</cmt></trkpt>
<trkpt lat="58.879538" lon="05.852934"><ele>25</ele><time>2012-03-31T13:22:48Z</time><cmt>2.0 kmh</cmt></trkpt>
<trkpt lat="58.879537" lon="05.852945"><ele>25</ele><time>2012-03-31T13:22:49Z</time><cmt>2.0 kmh</cmt></trkpt>
<trkpt lat="58.879535" lon="05.852956"><ele>25</ele><time>2012-03-31T13:22:50Z</time><cmt>2.5 kmh</cmt></trkpt>
<trkpt lat="58.879532" lon="05.852968"><ele>25</ele><time>2012-03-31T13:22:51Z</time><cmt>2.7 kmh</cmt></trkpt>
<trkpt lat="58.879530" lon="05.852978"><ele>25</ele><time>2012-03-31T13:22:52Z</time><cmt>2.6 kmh</cmt></trkpt>
<trkpt lat="58.879529" lon="05.852988"><ele>25</ele><time>2012-03-31T13:22:53Z</time><cmt>2.4 kmh</cmt></trkpt>
<trkpt lat="58.879528" lon="05.852998"><ele>25</ele><time>2012-03-31T13:22:54Z</time><cmt>1.8 kmh</cmt></trkpt>
<trkpt lat="58.879528" lon="05.853007"><ele>25</ele><time>2012-03-31T13:22:55Z</time><cmt>1.8 kmh</cmt></trkpt>
<trkpt lat="58.879528" lon="05.853017"><ele>25</ele><time>2012-03-31T13:22:56Z</time><cmt>2.1 kmh</cmt></trkpt>
<trkpt lat="58.879527" lon="05.853025"><ele>25</ele><time>2012-03-31T13:22:57Z</time><cmt>2.1 kmh</cmt></trkpt>
<trkpt lat="58.879526" lon="05.853035"><ele>25</ele><time>2012-03-31T13:22:58Z</time><cmt>2.1 kmh</cmt></trkpt>
<trkpt lat="58.879525" lon="05.853043"><ele>25</ele><time>2012-03-31T13:22:59Z</time><cmt>1.9 kmh</cmt></trkpt>
<trkpt lat="58.879525" lon="05.853051"><ele>25</ele><time>2012-03-31T13:23:00Z</time><cmt>1.5 kmh</cmt></trkpt>
<trkpt lat="58.879525" lon="05.853059"><ele>25</ele><time>2012-03-31T13:23:01Z</time><cmt>1.5 kmh</cmt></trkpt>
<trkpt lat="58.879525" lon="05.853068"><ele>25</ele><time>2012-03-31T13:23:02Z</time><cmt>1.9 kmh</cmt></trkpt>
<trkpt lat="58.879526" lon="05.853076"><ele>25</ele><time>2012-03-31T13:23:03Z</time><cmt>1.9 kmh</cmt></trkpt>
<trkpt lat="58.879528" lon="05.853085"><ele>25</ele><time>2012-03-31T13:23:04Z</time><cmt>1.9 kmh</cmt></trkpt>
<trkpt lat="58.879528" lon="05.853093"><ele>25</ele><time>2012-03-31T13:23:05Z</time><cmt>1.8 kmh</cmt></trkpt>
<trkpt lat="58.879528" lon="05.853101"><ele>25</ele><time>2012-03-31T13:23:06Z</time><cmt>1.4 kmh</cmt></trkpt>
<trkpt lat="58.879529" lon="05.853109"><ele>25</ele><time>2012-03-31T13:23:07Z</time><cmt>1.5 kmh</cmt></trkpt>
<trkpt lat="58.879529" lon="05.853117"><ele>25</ele><time>2012-03-31T13:23:08Z</time><cmt>1.8 kmh</cmt></trkpt>
<trkpt lat="58.879529" lon="05.853125"><ele>25</ele><time>2012-03-31T13:23:09Z</time><cmt>1.8 kmh</cmt></trkpt>
<trkpt lat="58.879529" lon="05.853133"><ele>25</ele><time>2012-03-31T13:23:10Z</time><cmt>1.8 kmh</cmt></trkpt>
<trkpt lat="58.879529" lon="05.853141"><ele>26</ele><time>2012-03-31T13:23:11Z</time><cmt>1.7 kmh</cmt></trkpt>
<trkpt lat="58.879529" lon="05.853148"><ele>26</ele><time>2012-03-31T13:23:12Z</time><cmt>1.6 kmh</cmt></trkpt>
<trkpt lat="58.879529" lon="05.853155"><ele>26</ele><time>2012-03-31T13:23:13Z</time><cmt>1.3 kmh</cmt></trkpt>
<trkpt lat="58.879529" lon="05.853162"><ele>26</ele><time>2012-03-31T13:23:14Z</time><cmt>1.3 kmh</cmt></trkpt>
<trkpt lat="58.879529" lon="05.853170"><ele>26</ele><time>2012-03-31T13:23:15Z</time><cmt>1.7 kmh</cmt></trkpt>
<trkpt lat="58.879529" lon="05.853181"><ele>26</ele><time>2012-03-31T13:23:16Z</time><cmt>2.1 kmh</cmt></trkpt>
<trkpt lat="58.879530" lon="05.853193"><ele>26</ele><time>2012-03-31T13:23:17Z</time><cmt>2.6 kmh</cmt></trkpt>
<trkpt lat="58.879528" lon="05.853204"><ele>26</ele><time>2012-03-31T13:23:18Z</time><cmt>2.6 kmh</cmt></trkpt>
<trkpt lat="58.879525" lon="05.853210"><ele>26</ele><time>2012-03-31T13:23:19Z</time><cmt>1.8 kmh</cmt></trkpt>
<trkpt lat="58.879521" lon="05.853212"><ele>26</ele><time>2012-03-31T13:23:20Z</time><cmt>1.5 kmh</cmt></trkpt>
<trkpt lat="58.879516" lon="05.853211"><ele>27</ele><time>2012-03-31T13:23:21Z</time><cmt>1.9 kmh</cmt></trkpt>
<trkpt lat="58.879510" lon="05.853215"><ele>27</ele><time>2012-03-31T13:23:22Z</time><cmt>2.3 kmh</cmt></trkpt>
<trkpt lat="58.879504" lon="05.853223"><ele>27</ele><time>2012-03-31T13:23:23Z</time><cmt>2.9 kmh</cmt></trkpt>
<trkpt lat="58.879498" lon="05.853236"><ele>27</ele><time>2012-03-31T13:23:24Z</time><cmt>3.6 kmh</cmt></trkpt>
<trkpt lat="58.879491" lon="05.853252"><ele>27</ele><time>2012-03-31T13:23:25Z</time><cmt>3.4 kmh</cmt></trkpt>
<trkpt lat="58.879484" lon="05.853273"><ele>27</ele><time>2012-03-31T13:23:26Z</time><cmt>5.9 kmh</cmt></trkpt>
<trkpt lat="58.879476" lon="05.853297"><ele>27</ele><time>2012-03-31T13:23:27Z</time><cmt>6.3 kmh</cmt></trkpt>
<trkpt lat="58.879468" lon="05.853324"><ele>27</ele><time>2012-03-31T13:23:28Z</time><cmt>6.9 kmh</cmt></trkpt>
<trkpt lat="58.879460" lon="05.853353"><ele>27</ele><time>2012-03-31T13:23:29Z</time><cmt>7.0 kmh</cmt></trkpt>
<trkpt lat="58.879452" lon="05.853381"><ele>27</ele><time>2012-03-31T13:23:30Z</time><cmt>6.4 kmh</cmt></trkpt>
<trkpt lat="58.879444" lon="05.853406"><ele>27</ele><time>2012-03-31T13:23:31Z</time><cmt>5.6 kmh</cmt></trkpt>
<trkpt lat="58.879436" lon="05.853431"><ele>27</ele><time>2012-03-31T13:23:32Z</time><cmt>6.2 kmh</cmt></trkpt>
<trkpt lat="58.879428" lon="05.853456"><ele>27</ele><time>2012-03-31T13:23:33Z</time><cmt>6.4 kmh</cmt></trkpt>
<trkpt lat="58.879418" lon="05.853482"><ele>27</ele><time>2012-03-31T13:23:34Z</time><cmt>6.8 kmh</cmt></trkpt>
<trkpt lat="58.879409" lon="05.853509"><ele>27</ele><time>2012-03-31T13:23:35Z</time><cmt>6.5 kmh</cmt></trkpt>
<trkpt lat="58.879400" lon="05.853535"><ele>26</ele><time>2012-03-31T13:23:36Z</time><cmt>6.7 kmh</cmt></trkpt>
<trkpt lat="58.879390" lon="05.853563"><ele>26</ele><time>2012-03-31T13:23:37Z</time><cmt>7.4 kmh</cmt></trkpt>
<trkpt lat="58.879379" lon="05.853592"><ele>26</ele><time>2012-03-31T13:23:38Z</time><cmt>8.0 kmh</cmt></trkpt>
<trkpt lat="58.879369" lon="05.853623"><ele>26</ele><time>2012-03-31T13:23:39Z</time><cmt>7.7 kmh</cmt></trkpt>
<trkpt lat="58.879358" lon="05.853654"><ele>26</ele><time>2012-03-31T13:23:40Z</time><cmt>7.9 kmh</cmt></trkpt>
<trkpt lat="58.879348" lon="05.853687"><ele>26</ele><time>2012-03-31T13:23:41Z</time><cmt>8.2 kmh</cmt></trkpt>
<trkpt lat="58.879338" lon="05.853721"><ele>26</ele><time>2012-03-31T13:23:42Z</time><cmt>8.1 kmh</cmt></trkpt>
<trkpt lat="58.879329" lon="05.853754"><ele>26</ele><time>2012-03-31T13:23:43Z</time><cmt>7.3 kmh</cmt></trkpt>
<trkpt lat="58.879321" lon="05.853785"><ele>26</ele><time>2012-03-31T13:23:44Z</time><cmt>6.9 kmh</cmt></trkpt>
<trkpt lat="58.879312" lon="05.853812"><ele>26</ele><time>2012-03-31T13:23:45Z</time><cmt>6.4 kmh</cmt></trkpt>
<trkpt lat="58.879303" lon="05.853836"><ele>26</ele><time>2012-03-31T13:23:46Z</time><cmt>5.7 kmh</cmt></trkpt>
<trkpt lat="58.879294" lon="05.853858"><ele>26</ele><time>2012-03-31T13:23:47Z</time><cmt>5.4 kmh</cmt></trkpt>
<trkpt lat="58.879286" lon="05.853878"><ele>26</ele><time>2012-03-31T13:23:48Z</time><cmt>5.3 kmh</cmt></trkpt>
<trkpt lat="58.879278" lon="05.853898"><ele>26</ele><time>2012-03-31T13:23:49Z</time><cmt>5.0 kmh</cmt></trkpt>
<trkpt lat="58.879271" lon="05.853918"><ele>26</ele><time>2012-03-31T13:23:50Z</time><cmt>5.1 kmh</cmt></trkpt>
<trkpt lat="58.879264" lon="05.853937"><ele>26</ele><time>2012-03-31T13:23:51Z</time><cmt>5.1 kmh</cmt></trkpt>
<trkpt lat="58.879258" lon="05.853956"><ele>26</ele><time>2012-03-31T13:23:52Z</time><cmt>5.0 kmh</cmt></trkpt>
<trkpt lat="58.879252" lon="05.853975"><ele>26</ele><time>2012-03-31T13:23:53Z</time><cmt>5.0 kmh</cmt></trkpt>
<trkpt lat="58.879247" lon="05.853994"><ele>26</ele><time>2012-03-31T13:23:54Z</time><cmt>4.9 kmh</cmt></trkpt>
<trkpt lat="58.879241" lon="05.854014"><ele>26</ele><time>2012-03-31T13:23:55Z</time><cmt>4.9 kmh</cmt></trkpt>
<trkpt lat="58.879236" lon="05.854034"><ele>25</ele><time>2012-03-31T13:23:56Z</time><cmt>5.2 kmh</cmt></trkpt>
<trkpt lat="58.879230" lon="05.854055"><ele>25</ele><time>2012-03-31T13:23:57Z</time><cmt>5.3 kmh</cmt></trkpt>
<trkpt lat="58.879225" lon="05.854078"><ele>25</ele><time>2012-03-31T13:23:58Z</time><cmt>5.4 kmh</cmt></trkpt>
<trkpt lat="58.879220" lon="05.854101"><ele>25</ele><time>2012-03-31T13:23:59Z</time><cmt>5.2 kmh</cmt></trkpt>
<trkpt lat="58.879216" lon="05.854122"><ele>25</ele><time>2012-03-31T13:24:00Z</time><cmt>5.2 kmh</cmt></trkpt>
<trkpt lat="58.879211" lon="05.854141"><ele>25</ele><time>2012-03-31T13:24:01Z</time><cmt>4.9 kmh</cmt></trkpt>
<trkpt lat="58.879207" lon="05.854158"><ele>25</ele><time>2012-03-31T13:24:02Z</time><cmt>3.6 kmh</cmt></trkpt>
<trkpt lat="58.879202" lon="05.854175"><ele>25</ele><time>2012-03-31T13:24:03Z</time><cmt>3.5 kmh</cmt></trkpt>
<trkpt lat="58.879196" lon="05.854193"><ele>25</ele><time>2012-03-31T13:24:04Z</time><cmt>4.6 kmh</cmt></trkpt>
<trkpt lat="58.879188" lon="05.854212"><ele>25</ele><time>2012-03-31T13:24:05Z</time><cmt>5.4 kmh</cmt></trkpt>
<trkpt lat="58.879180" lon="05.854233"><ele>25</ele><time>2012-03-31T13:24:06Z</time><cmt>6.3 kmh</cmt></trkpt>
<trkpt lat="58.879170" lon="05.854255"><ele>25</ele><time>2012-03-31T13:24:07Z</time><cmt>6.3 kmh</cmt></trkpt>
<trkpt lat="58.879160" lon="05.854278"><ele>25</ele><time>2012-03-31T13:24:08Z</time><cmt>6.6 kmh</cmt></trkpt>
<trkpt lat="58.879149" lon="05.854302"><ele>25</ele><time>2012-03-31T13:24:09Z</time><cmt>7.3 kmh</cmt></trkpt>
<trkpt lat="58.879138" lon="05.854328"><ele>25</ele><time>2012-03-31T13:24:10Z</time><cmt>7.3 kmh</cmt></trkpt>
<trkpt lat="58.879127" lon="05.854354"><ele>25</ele><time>2012-03-31T13:24:11Z</time><cmt>6.7 kmh</cmt></trkpt>
<trkpt lat="58.879117" lon="05.854376"><ele>25</ele><time>2012-03-31T13:24:12Z</time><cmt>5.6 kmh</cmt></trkpt>
<trkpt lat="58.879108" lon="05.854396"><ele>25</ele><time>2012-03-31T13:24:13Z</time><cmt>5.1 kmh</cmt></trkpt>
<trkpt lat="58.879100" lon="05.854413"><ele>25</ele><time>2012-03-31T13:24:14Z</time><cmt>5.1 kmh</cmt></trkpt>
<trkpt lat="58.879094" lon="05.854431"><ele>25</ele><time>2012-03-31T13:24:15Z</time><cmt>3.9 kmh</cmt></trkpt>
<trkpt lat="58.879088" lon="05.854450"><ele>25</ele><time>2012-03-31T13:24:16Z</time><cmt>5.6 kmh</cmt></trkpt>
<trkpt lat="58.879081" lon="05.854472"><ele>25</ele><time>2012-03-31T13:24:17Z</time><cmt>5.7 kmh</cmt></trkpt>
<trkpt lat="58.879073" lon="05.854497"><ele>25</ele><time>2012-03-31T13:24:18Z</time><cmt>6.8 kmh</cmt></trkpt>
<trkpt lat="58.879065" lon="05.854524"><ele>25</ele><time>2012-03-31T13:24:19Z</time><cmt>7.2 kmh</cmt></trkpt>
<trkpt lat="58.879056" lon="05.854553"><ele>25</ele><time>2012-03-31T13:24:20Z</time><cmt>7.2 kmh</cmt></trkpt>
<trkpt lat="58.879047" lon="05.854583"><ele>25</ele><time>2012-03-31T13:24:21Z</time><cmt>7.3 kmh</cmt></trkpt>
<trkpt lat="58.879037" lon="05.854613"><ele>25</ele><time>2012-03-31T13:24:22Z</time><cmt>7.4 kmh</cmt></trkpt>
<trkpt lat="58.879028" lon="05.854643"><ele>25</ele><time>2012-03-31T13:24:23Z</time><cmt>7.4 kmh</cmt></trkpt>
<trkpt lat="58.879019" lon="05.854674"><ele>25</ele><time>2012-03-31T13:24:24Z</time><cmt>7.7 kmh</cmt></trkpt>
<trkpt lat="58.879011" lon="05.854707"><ele>25</ele><time>2012-03-31T13:24:25Z</time><cmt>7.6 kmh</cmt></trkpt>
<trkpt lat="58.879003" lon="05.854739"><ele>25</ele><time>2012-03-31T13:24:26Z</time><cmt>7.1 kmh</cmt></trkpt>
<trkpt lat="58.878997" lon="05.854770"><ele>25</ele><time>2012-03-31T13:24:27Z</time><cmt>6.6 kmh</cmt></trkpt>
<trkpt lat="58.878991" lon="05.854798"><ele>25</ele><time>2012-03-31T13:24:28Z</time><cmt>5.9 kmh</cmt></trkpt>
<trkpt lat="58.878987" lon="05.854825"><ele>24</ele><time>2012-03-31T13:24:29Z</time><cmt>5.5 kmh</cmt></trkpt>
<trkpt lat="58.878982" lon="05.854849"><ele>24</ele><time>2012-03-31T13:24:30Z</time><cmt>5.0 kmh</cmt></trkpt>
<trkpt lat="58.878978" lon="05.854871"><ele>24</ele><time>2012-03-31T13:24:31Z</time><cmt>5.0 kmh</cmt></trkpt>
<trkpt lat="58.878974" lon="05.854891"><ele>24</ele><time>2012-03-31T13:24:32Z</time><cmt>5.0 kmh</cmt></trkpt>
<trkpt lat="58.878969" lon="05.854910"><ele>24</ele><time>2012-03-31T13:24:33Z</time><cmt>5.1 kmh</cmt></trkpt>
<trkpt lat="58.878963" lon="05.854932"><ele>24</ele><time>2012-03-31T13:24:34Z</time><cmt>5.5 kmh</cmt></trkpt>
<trkpt lat="58.878956" lon="05.854957"><ele>24</ele><time>2012-03-31T13:24:35Z</time><cmt>6.8 kmh</cmt></trkpt>
<trkpt lat="58.878948" lon="05.854985"><ele>24</ele><time>2012-03-31T13:24:36Z</time><cmt>7.2 kmh</cmt></trkpt>
<trkpt lat="58.878939" lon="05.855015"><ele>24</ele><time>2012-03-31T13:24:37Z</time><cmt>7.8 kmh</cmt></trkpt>
<trkpt lat="58.878929" lon="05.855047"><ele>24</ele><time>2012-03-31T13:24:38Z</time><cmt>8.3 kmh</cmt></trkpt>
<trkpt lat="58.878920" lon="05.855081"><ele>24</ele><time>2012-03-31T13:24:39Z</time><cmt>8.2 kmh</cmt></trkpt>
<trkpt lat="58.878910" lon="05.855116"><ele>24</ele><time>2012-03-31T13:24:40Z</time><cmt>8.2 kmh</cmt></trkpt>
<trkpt lat="58.878902" lon="05.855150"><ele>24</ele><time>2012-03-31T13:24:41Z</time><cmt>7.8 kmh</cmt></trkpt>
<trkpt lat="58.878895" lon="05.855185"><ele>24</ele><time>2012-03-31T13:24:42Z</time><cmt>7.5 kmh</cmt></trkpt>
<trkpt lat="58.878890" lon="05.855217"><ele>24</ele><time>2012-03-31T13:24:43Z</time><cmt>6.8 kmh</cmt></trkpt>
<trkpt lat="58.878885" lon="05.855247"><ele>24</ele><time>2012-03-31T13:24:44Z</time><cmt>5.9 kmh</cmt></trkpt>
<trkpt lat="58.878881" lon="05.855272"><ele>24</ele><time>2012-03-31T13:24:45Z</time><cmt>5.9 kmh</cmt></trkpt>
<trkpt lat="58.878877" lon="05.855294"><ele>24</ele><time>2012-03-31T13:24:46Z</time><cmt>4.4 kmh</cmt></trkpt>
<trkpt lat="58.878872" lon="05.855312"><ele>24</ele><time>2012-03-31T13:24:47Z</time><cmt>4.8 kmh</cmt></trkpt>
<trkpt lat="58.878867" lon="05.855330"><ele>24</ele><time>2012-03-31T13:24:48Z</time><cmt>4.6 kmh</cmt></trkpt>
<trkpt lat="58.878860" lon="05.855348"><ele>24</ele><time>2012-03-31T13:24:49Z</time><cmt>5.0 kmh</cmt></trkpt>
<trkpt lat="58.878853" lon="05.855367"><ele>24</ele><time>2012-03-31T13:24:50Z</time><cmt>5.2 kmh</cmt></trkpt>
<trkpt lat="58.878844" lon="05.855385"><ele>24</ele><time>2012-03-31T13:24:51Z</time><cmt>5.5 kmh</cmt></trkpt>
<trkpt lat="58.878835" lon="05.855405"><ele>24</ele><time>2012-03-31T13:24:52Z</time><cmt>5.9 kmh</cmt></trkpt>
<trkpt lat="58.878824" lon="05.855425"><ele>24</ele><time>2012-03-31T13:24:53Z</time><cmt>7.0 kmh</cmt></trkpt>
<trkpt lat="58.878812" lon="05.855449"><ele>24</ele><time>2012-03-31T13:24:54Z</time><cmt>7.8 kmh</cmt></trkpt>
<trkpt lat="58.878799" lon="05.855475"><ele>24</ele><time>2012-03-31T13:24:55Z</time><cmt>7.6 kmh</cmt></trkpt>
<trkpt lat="58.878787" lon="05.855503"><ele>24</ele><time>2012-03-31T13:24:56Z</time><cmt>8.3 kmh</cmt></trkpt>
<trkpt lat="58.878773" lon="05.855532"><ele>24</ele><time>2012-03-31T13:24:57Z</time><cmt>8.6 kmh</cmt></trkpt>
<trkpt lat="58.878759" lon="05.855565"><ele>24</ele><time>2012-03-31T13:24:58Z</time><cmt>9.6 kmh</cmt></trkpt>
<trkpt lat="58.878745" lon="05.855600"><ele>24</ele><time>2012-03-31T13:24:59Z</time><cmt>9.9 kmh</cmt></trkpt>
<trkpt lat="58.878732" lon="05.855632"><ele>24</ele><time>2012-03-31T13:25:00Z</time><cmt>8.7 kmh</cmt></trkpt>
<trkpt lat="58.878717" lon="05.855668"><ele>23</ele><time>2012-03-31T13:25:01Z</time><cmt>8.1 kmh</cmt></trkpt>
<trkpt lat="58.878705" lon="05.855697"><ele>23</ele><time>2012-03-31T13:25:02Z</time><cmt>7.6 kmh</cmt></trkpt>
<trkpt lat="58.878694" lon="05.855725"><ele>23</ele><time>2012-03-31T13:25:03Z</time><cmt>7.7 kmh</cmt></trkpt>
<trkpt lat="58.878684" lon="05.855754"><ele>23</ele><time>2012-03-31T13:25:04Z</time><cmt>7.0 kmh</cmt></trkpt>
<trkpt lat="58.878676" lon="05.855782"><ele>23</ele><time>2012-03-31T13:25:05Z</time><cmt>6.6 kmh</cmt></trkpt>
<trkpt lat="58.878669" lon="05.855809"><ele>23</ele><time>2012-03-31T13:25:06Z</time><cmt>5.9 kmh</cmt></trkpt>
<trkpt lat="58.878662" lon="05.855834"><ele>23</ele><time>2012-03-31T13:25:07Z</time><cmt>5.5 kmh</cmt></trkpt>
<trkpt lat="58.878656" lon="05.855856"><ele>23</ele><time>2012-03-31T13:25:08Z</time><cmt>5.2 kmh</cmt></trkpt>
<trkpt lat="58.878650" lon="05.855878"><ele>23</ele><time>2012-03-31T13:25:09Z</time><cmt>5.1 kmh</cmt></trkpt>
<trkpt lat="58.878645" lon="05.855899"><ele>23</ele><time>2012-03-31T13:25:10Z</time><cmt>5.1 kmh</cmt></trkpt>
<trkpt lat="58.878640" lon="05.855919"><ele>23</ele><time>2012-03-31T13:25:11Z</time><cmt>5.3 kmh</cmt></trkpt>
<trkpt lat="58.878635" lon="05.855941"><ele>23</ele><time>2012-03-31T13:25:12Z</time><cmt>5.3 kmh</cmt></trkpt>
<trkpt lat="58.878629" lon="05.855962"><ele>23</ele><time>2012-03-31T13:25:13Z</time><cmt>5.3 kmh</cmt></trkpt>
<trkpt lat="58.878624" lon="05.855983"><ele>23</ele><time>2012-03-31T13:25:14Z</time><cmt>5.0 kmh</cmt></trkpt>
<trkpt lat="58.878619" lon="05.856001"><ele>23</ele><time>2012-03-31T13:25:15Z</time><cmt>4.8 kmh</cmt></trkpt>
<trkpt lat="58.878613" lon="05.856018"><ele>23</ele><time>2012-03-31T13:25:16Z</time><cmt>3.6 kmh</cmt></trkpt>
<trkpt lat="58.878608" lon="05.856035"><ele>23</ele><time>2012-03-31T13:25:17Z</time><cmt>3.5 kmh</cmt></trkpt>
<trkpt lat="58.878604" lon="05.856052"><ele>23</ele><time>2012-03-31T13:25:18Z</time><cmt>4.4 kmh</cmt></trkpt>
<trkpt lat="58.878598" lon="05.856071"><ele>23</ele><time>2012-03-31T13:25:19Z</time><cmt>5.3 kmh</cmt></trkpt>
<trkpt lat="58.878592" lon="05.856093"><ele>23</ele><time>2012-03-31T13:25:20Z</time><cmt>5.5 kmh</cmt></trkpt>
<trkpt lat="58.878585" lon="05.856115"><ele>23</ele><time>2012-03-31T13:25:21Z</time><cmt>5.7 kmh</cmt></trkpt>
<trkpt lat="58.878578" lon="05.856138"><ele>23</ele><time>2012-03-31T13:25:22Z</time><cmt>5.9 kmh</cmt></trkpt>
<trkpt lat="58.878572" lon="05.856164"><ele>23</ele><time>2012-03-31T13:25:23Z</time><cmt>6.7 kmh</cmt></trkpt>
<trkpt lat="58.878565" lon="05.856192"><ele>23</ele><time>2012-03-31T13:25:24Z</time><cmt>6.5 kmh</cmt></trkpt>
<trkpt lat="58.878558" lon="05.856221"><ele>23</ele><time>2012-03-31T13:25:25Z</time><cmt>6.9 kmh</cmt></trkpt>
<trkpt lat="58.878552" lon="05.856251"><ele>23</ele><time>2012-03-31T13:25:26Z</time><cmt>6.8 kmh</cmt></trkpt>
<trkpt lat="58.878545" lon="05.856281"><ele>23</ele><time>2012-03-31T13:25:27Z</time><cmt>7.1 kmh</cmt></trkpt>
<trkpt lat="58.878539" lon="05.856312"><ele>23</ele><time>2012-03-31T13:25:28Z</time><cmt>7.0 kmh</cmt></trkpt>
<trkpt lat="58.878534" lon="05.856344"><ele>23</ele><time>2012-03-31T13:25:29Z</time><cmt>7.3 kmh</cmt></trkpt>
<trkpt lat="58.878529" lon="05.856378"><ele>23</ele><time>2012-03-31T13:25:30Z</time><cmt>7.5 kmh</cmt></trkpt>
<trkpt lat="58.878525" lon="05.856411"><ele>23</ele><time>2012-03-31T13:25:31Z</time><cmt>6.9 kmh</cmt></trkpt>
<trkpt lat="58.878520" lon="05.856442"><ele>23</ele><time>2012-03-31T13:25:32Z</time><cmt>6.3 kmh</cmt></trkpt>
<trkpt lat="58.878516" lon="05.856470"><ele>23</ele><time>2012-03-31T13:25:33Z</time><cmt>5.8 kmh</cmt></trkpt>
<trkpt lat="58.878511" lon="05.856495"><ele>23</ele><time>2012-03-31T13:25:34Z</time><cmt>5.1 kmh</cmt></trkpt>
<trkpt lat="58.878505" lon="05.856519"><ele>23</ele><time>2012-03-31T13:25:35Z</time><cmt>5.9 kmh</cmt></trkpt>
<trkpt lat="58.878498" lon="05.856543"><ele>23</ele><time>2012-03-31T13:25:36Z</time><cmt>6.0 kmh</cmt></trkpt>
<trkpt lat="58.878491" lon="05.856568"><ele>23</ele><time>2012-03-31T13:25:37Z</time><cmt>6.0 kmh</cmt></trkpt>
<trkpt lat="58.878484" lon="05.856593"><ele>23</ele><time>2012-03-31T13:25:38Z</time><cmt>5.9 kmh</cmt></trkpt>
<trkpt lat="58.878477" lon="05.856618"><ele>23</ele><time>2012-03-31T13:25:39Z</time><cmt>6.7 kmh</cmt></trkpt>
<trkpt lat="58.878469" lon="05.856645"><ele>23</ele><time>2012-03-31T13:25:40Z</time><cmt>6.6 kmh</cmt></trkpt>
<trkpt lat="58.878461" lon="05.856671"><ele>23</ele><time>2012-03-31T13:25:41Z</time><cmt>6.4 kmh</cmt></trkpt>
<trkpt lat="58.878454" lon="05.856698"><ele>23</ele><time>2012-03-31T13:25:42Z</time><cmt>6.3 kmh</cmt></trkpt>
<trkpt lat="58.878447" lon="05.856725"><ele>23</ele><time>2012-03-31T13:25:43Z</time><cmt>6.7 kmh</cmt></trkpt>
<trkpt lat="58.878440" lon="05.856753"><ele>23</ele><time>2012-03-31T13:25:44Z</time><cmt>6.4 kmh</cmt></trkpt>
<trkpt lat="58.878434" lon="05.856780"><ele>23</ele><time>2012-03-31T13:25:45Z</time><cmt>5.7 kmh</cmt></trkpt>
<trkpt lat="58.878428" lon="05.856802"><ele>23</ele><time>2012-03-31T13:25:46Z</time><cmt>5.7 kmh</cmt></trkpt>
<trkpt lat="58.878422" lon="05.856823"><ele>23</ele><time>2012-03-31T13:25:47Z</time><cmt>5.1 kmh</cmt></trkpt>
<trkpt lat="58.878416" lon="05.856844"><ele>23</ele><time>2012-03-31T13:25:48Z</time><cmt>5.0 kmh</cmt></trkpt>
<trkpt lat="58.878410" lon="05.856864"><ele>23</ele><time>2012-03-31T13:25:49Z</time><cmt>5.0 kmh</cmt></trkpt>
<trkpt lat="58.878404" lon="05.856883"><ele>23</ele><time>2012-03-31T13:25:50Z</time><cmt>5.0 kmh</cmt></trkpt>
<trkpt lat="58.878399" lon="05.856903"><ele>23</ele><time>2012-03-31T13:25:51Z</time><cmt>5.0 kmh</cmt></trkpt>
<trkpt lat="58.878393" lon="05.856922"><ele>23</ele><time>2012-03-31T13:25:52Z</time><cmt>5.0 kmh</cmt></trkpt>
<trkpt lat="58.878387" lon="05.856940"><ele>23</ele><time>2012-03-31T13:25:53Z</time><cmt>4.8 kmh</cmt></trkpt>
<trkpt lat="58.878382" lon="05.856957"><ele>23</ele><time>2012-03-31T13:25:54Z</time><cmt>3.7 kmh</cmt></trkpt>
<trkpt lat="58.878377" lon="05.856970"><ele>23</ele><time>2012-03-31T13:25:55Z</time><cmt>3.2 kmh</cmt></trkpt>
<trkpt lat="58.878371" lon="05.856982"><ele>23</ele><time>2012-03-31T13:25:56Z</time><cmt>3.7 kmh</cmt></trkpt>
<trkpt lat="58.878364" lon="05.856993"><ele>23</ele><time>2012-03-31T13:25:57Z</time><cmt>3.8 kmh</cmt></trkpt>
<trkpt lat="58.878357" lon="05.857004"><ele>23</ele><time>2012-03-31T13:25:58Z</time><cmt>3.9 kmh</cmt></trkpt>
<trkpt lat="58.878348" lon="05.857016"><ele>23</ele><time>2012-03-31T13:25:59Z</time><cmt>5.1 kmh</cmt></trkpt>
<trkpt lat="58.878337" lon="05.857030"><ele>23</ele><time>2012-03-31T13:26:00Z</time><cmt>5.8 kmh</cmt></trkpt>
<trkpt lat="58.878325" lon="05.857044"><ele>23</ele><time>2012-03-31T13:26:01Z</time><cmt>5.9 kmh</cmt></trkpt>
<trkpt lat="58.878312" lon="05.857058"><ele>23</ele><time>2012-03-31T13:26:02Z</time><cmt>6.8 kmh</cmt></trkpt>
<trkpt lat="58.878297" lon="05.857071"><ele>23</ele><time>2012-03-31T13:26:03Z</time><cmt>6.2 kmh</cmt></trkpt>
<trkpt lat="58.878284" lon="05.857084"><ele>23</ele><time>2012-03-31T13:26:04Z</time><cmt>5.6 kmh</cmt></trkpt>
<trkpt lat="58.878272" lon="05.857096"><ele>23</ele><time>2012-03-31T13:26:05Z</time><cmt>5.6 kmh</cmt></trkpt>
<trkpt lat="58.878261" lon="05.857108"><ele>23</ele><time>2012-03-31T13:26:06Z</time><cmt>5.4 kmh</cmt></trkpt>
<trkpt lat="58.878249" lon="05.857119"><ele>23</ele><time>2012-03-31T13:26:07Z</time><cmt>5.1 kmh</cmt></trkpt>
<trkpt lat="58.878238" lon="05.857131"><ele>23</ele><time>2012-03-31T13:26:08Z</time><cmt>5.1 kmh</cmt></trkpt>
<trkpt lat="58.878229" lon="05.857142"><ele>23</ele><time>2012-03-31T13:26:09Z</time><cmt>5.0 kmh</cmt></trkpt>
<trkpt lat="58.878220" lon="05.857154"><ele>23</ele><time>2012-03-31T13:26:10Z</time><cmt>4.8 kmh</cmt></trkpt>
<trkpt lat="58.878210" lon="05.857166"><ele>23</ele><time>2012-03-31T13:26:11Z</time><cmt>4.9 kmh</cmt></trkpt>
<trkpt lat="58.878200" lon="05.857178"><ele>23</ele><time>2012-03-31T13:26:12Z</time><cmt>4.1 kmh</cmt></trkpt>
<trkpt lat="58.878189" lon="05.857191"><ele>23</ele><time>2012-03-31T13:26:13Z</time><cmt>5.7 kmh</cmt></trkpt>
<trkpt lat="58.878177" lon="05.857205"><ele>23</ele><time>2012-03-31T13:26:14Z</time><cmt>6.3 kmh</cmt></trkpt>
<trkpt lat="58.878166" lon="05.857223"><ele>23</ele><time>2012-03-31T13:26:15Z</time><cmt>6.0 kmh</cmt></trkpt>
<trkpt lat="58.878154" lon="05.857241"><ele>23</ele><time>2012-03-31T13:26:16Z</time><cmt>6.4 kmh</cmt></trkpt>
<trkpt lat="58.878140" lon="05.857260"><ele>23</ele><time>2012-03-31T13:26:17Z</time><cmt>7.1 kmh</cmt></trkpt>
<trkpt lat="58.878125" lon="05.857278"><ele>23</ele><time>2012-03-31T13:26:18Z</time><cmt>7.0 kmh</cmt></trkpt>
<trkpt lat="58.878111" lon="05.857294"><ele>23</ele><time>2012-03-31T13:26:19Z</time><cmt>6.4 kmh</cmt></trkpt>
<trkpt lat="58.878097" lon="05.857310"><ele>23</ele><time>2012-03-31T13:26:20Z</time><cmt>5.7 kmh</cmt></trkpt>
<trkpt lat="58.878085" lon="05.857325"><ele>23</ele><time>2012-03-31T13:26:21Z</time><cmt>5.3 kmh</cmt></trkpt>
<trkpt lat="58.878074" lon="05.857339"><ele>23</ele><time>2012-03-31T13:26:22Z</time><cmt>5.3 kmh</cmt></trkpt>
<trkpt lat="58.878066" lon="05.857353"><ele>23</ele><time>2012-03-31T13:26:23Z</time><cmt>5.0 kmh</cmt></trkpt>
<trkpt lat="58.878058" lon="05.857369"><ele>23</ele><time>2012-03-31T13:26:24Z</time><cmt>4.9 kmh</cmt></trkpt>
<trkpt lat="58.878049" lon="05.857385"><ele>23</ele><time>2012-03-31T13:26:25Z</time><cmt>5.2 kmh</cmt></trkpt>
<trkpt lat="58.878040" lon="05.857402"><ele>23</ele><time>2012-03-31T13:26:26Z</time><cmt>5.5 kmh</cmt></trkpt>
<trkpt lat="58.878031" lon="05.857421"><ele>23</ele><time>2012-03-31T13:26:27Z</time><cmt>5.6 kmh</cmt></trkpt>
<trkpt lat="58.878022" lon="05.857442"><ele>24</ele><time>2012-03-31T13:26:28Z</time><cmt>5.9 kmh</cmt></trkpt>
<trkpt lat="58.878012" lon="05.857465"><ele>24</ele><time>2012-03-31T13:26:29Z</time><cmt>6.3 kmh</cmt></trkpt>
<trkpt lat="58.878003" lon="05.857489"><ele>24</ele><time>2012-03-31T13:26:30Z</time><cmt>6.8 kmh</cmt></trkpt>
<trkpt lat="58.877992" lon="05.857515"><ele>24</ele><time>2012-03-31T13:26:31Z</time><cmt>7.2 kmh</cmt></trkpt>
<trkpt lat="58.877982" lon="05.857544"><ele>24</ele><time>2012-03-31T13:26:32Z</time><cmt>7.5 kmh</cmt></trkpt>
<trkpt lat="58.877973" lon="05.857575"><ele>24</ele><time>2012-03-31T13:26:33Z</time><cmt>7.3 kmh</cmt></trkpt>
<trkpt lat="58.877965" lon="05.857606"><ele>24</ele><time>2012-03-31T13:26:34Z</time><cmt>7.0 kmh</cmt></trkpt>
<trkpt lat="58.877959" lon="05.857638"><ele>24</ele><time>2012-03-31T13:26:35Z</time><cmt>7.0 kmh</cmt></trkpt>
<trkpt lat="58.877953" lon="05.857670"><ele>24</ele><time>2012-03-31T13:26:36Z</time><cmt>6.9 kmh</cmt></trkpt>
<trkpt lat="58.877947" lon="05.857702"><ele>24</ele><time>2012-03-31T13:26:37Z</time><cmt>7.4 kmh</cmt></trkpt>
<trkpt lat="58.877941" lon="05.857737"><ele>24</ele><time>2012-03-31T13:26:38Z</time><cmt>7.9 kmh</cmt></trkpt>
<trkpt lat="58.877935" lon="05.857772"><ele>24</ele><time>2012-03-31T13:26:39Z</time><cmt>7.8 kmh</cmt></trkpt>
<trkpt lat="58.877929" lon="05.857807"><ele>24</ele><time>2012-03-31T13:26:40Z</time><cmt>6.9 kmh</cmt></trkpt>
<trkpt lat="58.877923" lon="05.857837"><ele>24</ele><time>2012-03-31T13:26:41Z</time><cmt>6.3 kmh</cmt></trkpt>
<trkpt lat="58.877917" lon="05.857865"><ele>24</ele><time>2012-03-31T13:26:42Z</time><cmt>5.9 kmh</cmt></trkpt>
<trkpt lat="58.877910" lon="05.857890"><ele>24</ele><time>2012-03-31T13:26:43Z</time><cmt>5.5 kmh</cmt></trkpt>
<trkpt lat="58.877903" lon="05.857913"><ele>24</ele><time>2012-03-31T13:26:44Z</time><cmt>5.4 kmh</cmt></trkpt>
<trkpt lat="58.877896" lon="05.857935"><ele>24</ele><time>2012-03-31T13:26:45Z</time><cmt>5.5 kmh</cmt></trkpt>
<trkpt lat="58.877888" lon="05.857957"><ele>24</ele><time>2012-03-31T13:26:46Z</time><cmt>5.6 kmh</cmt></trkpt>
<trkpt lat="58.877880" lon="05.857978"><ele>24</ele><time>2012-03-31T13:26:47Z</time><cmt>5.4 kmh</cmt></trkpt>
<trkpt lat="58.877872" lon="05.857998"><ele>24</ele><time>2012-03-31T13:26:48Z</time><cmt>5.3 kmh</cmt></trkpt>
<trkpt lat="58.877864" lon="05.858019"><ele>24</ele><time>2012-03-31T13:26:49Z</time><cmt>5.5 kmh</cmt></trkpt>
<trkpt lat="58.877855" lon="05.858040"><ele>24</ele><time>2012-03-31T13:26:50Z</time><cmt>6.0 kmh</cmt></trkpt>
<trkpt lat="58.877846" lon="05.858062"><ele>24</ele><time>2012-03-31T13:26:51Z</time><cmt>5.9 kmh</cmt></trkpt>
<trkpt lat="58.877837" lon="05.858082"><ele>24</ele><time>2012-03-31T13:26:52Z</time><cmt>5.5 kmh</cmt></trkpt>
<trkpt lat="58.877827" lon="05.858103"><ele>24</ele><time>2012-03-31T13:26:53Z</time><cmt>6.0 kmh</cmt></trkpt>
<trkpt lat="58.877817" lon="05.858125"><ele>24</ele><time>2012-03-31T13:26:54Z</time><cmt>6.2 kmh</cmt></trkpt>
<trkpt lat="58.877808" lon="05.858148"><ele>24</ele><time>2012-03-31T13:26:55Z</time><cmt>6.1 kmh</cmt></trkpt>
<trkpt lat="58.877798" lon="05.858170"><ele>24</ele><time>2012-03-31T13:26:56Z</time><cmt>5.9 kmh</cmt></trkpt>
<trkpt lat="58.877788" lon="05.858191"><ele>24</ele><time>2012-03-31T13:26:57Z</time><cmt>6.2 kmh</cmt></trkpt>
<trkpt lat="58.877778" lon="05.858212"><ele>24</ele><time>2012-03-31T13:26:58Z</time><cmt>5.5 kmh</cmt></trkpt>
<trkpt lat="58.877768" lon="05.858231"><ele>24</ele><time>2012-03-31T13:26:59Z</time><cmt>5.3 kmh</cmt></trkpt>
<trkpt lat="58.877760" lon="05.858250"><ele>24</ele><time>2012-03-31T13:27:00Z</time><cmt>5.2 kmh</cmt></trkpt>
<trkpt lat="58.877752" lon="05.858269"><ele>24</ele><time>2012-03-31T13:27:01Z</time><cmt>5.0 kmh</cmt></trkpt>
<trkpt lat="58.877744" lon="05.858288"><ele>24</ele><time>2012-03-31T13:27:02Z</time><cmt>5.0 kmh</cmt></trkpt>
<trkpt lat="58.877736" lon="05.858306"><ele>24</ele><time>2012-03-31T13:27:03Z</time><cmt>4.2 kmh</cmt></trkpt>
<trkpt lat="58.877729" lon="05.858325"><ele>24</ele><time>2012-03-31T13:27:04Z</time><cmt>5.0 kmh</cmt></trkpt>
<trkpt lat="58.877721" lon="05.858342"><ele>24</ele><time>2012-03-31T13:27:05Z</time><cmt>5.0 kmh</cmt></trkpt>
<trkpt lat="58.877714" lon="05.858359"><ele>24</ele><time>2012-03-31T13:27:06Z</time><cmt>5.0 kmh</cmt></trkpt>
<trkpt lat="58.877707" lon="05.858376"><ele>24</ele><time>2012-03-31T13:27:07Z</time><cmt>4.9 kmh</cmt></trkpt>
<trkpt lat="58.877699" lon="05.858391"><ele>24</ele><time>2012-03-31T13:27:08Z</time><cmt>3.8 kmh</cmt></trkpt>
<trkpt lat="58.877692" lon="05.858406"><ele>24</ele><time>2012-03-31T13:27:09Z</time><cmt>3.7 kmh</cmt></trkpt>
<trkpt lat="58.877686" lon="05.858423"><ele>24</ele><time>2012-03-31T13:27:10Z</time><cmt>4.6 kmh</cmt></trkpt>
<trkpt lat="58.877679" lon="05.858439"><ele>24</ele><time>2012-03-31T13:27:11Z</time><cmt>4.6 kmh</cmt></trkpt>
<trkpt lat="58.877672" lon="05.858455"><ele>24</ele><time>2012-03-31T13:27:12Z</time><cmt>4.6 kmh</cmt></trkpt>
<trkpt lat="58.877665" lon="05.858470"><ele>24</ele><time>2012-03-31T13:27:13Z</time><cmt>4.6 kmh</cmt></trkpt>
<trkpt lat="58.877658" lon="05.858486"><ele>24</ele><time>2012-03-31T13:27:14Z</time><cmt>3.8 kmh</cmt></trkpt>
<trkpt lat="58.877649" lon="05.858502"><ele>24</ele><time>2012-03-31T13:27:15Z</time><cmt>5.3 kmh</cmt></trkpt>
<trkpt lat="58.877640" lon="05.858518"><ele>24</ele><time>2012-03-31T13:27:16Z</time><cmt>5.1 kmh</cmt></trkpt>
<trkpt lat="58.877630" lon="05.858535"><ele>24</ele><time>2012-03-31T13:27:17Z</time><cmt>5.4 kmh</cmt></trkpt>
<trkpt lat="58.877620" lon="05.858551"><ele>24</ele><time>2012-03-31T13:27:18Z</time><cmt>5.3 kmh</cmt></trkpt>
<trkpt lat="58.877610" lon="05.858566"><ele>24</ele><time>2012-03-31T13:27:19Z</time><cmt>5.1 kmh</cmt></trkpt>
<trkpt lat="58.877600" lon="05.858580"><ele>24</ele><time>2012-03-31T13:27:20Z</time><cmt>5.1 kmh</cmt></trkpt>
<trkpt lat="58.877590" lon="05.858593"><ele>24</ele><time>2012-03-31T13:27:21Z</time><cmt>4.3 kmh</cmt></trkpt>
<trkpt lat="58.877580" lon="05.858606"><ele>24</ele><time>2012-03-31T13:27:22Z</time><cmt>5.0 kmh</cmt></trkpt>
<trkpt lat="58.877570" lon="05.858619"><ele>24</ele><time>2012-03-31T13:27:23Z</time><cmt>5.0 kmh</cmt></trkpt>
<trkpt lat="58.877561" lon="05.858632"><ele>24</ele><time>2012-03-31T13:27:24Z</time><cmt>5.0 kmh</cmt></trkpt>
<trkpt lat="58.877550" lon="05.858645"><ele>24</ele><time>2012-03-31T13:27:25Z</time><cmt>5.2 kmh</cmt></trkpt>
<trkpt lat="58.877539" lon="05.858659"><ele>24</ele><time>2012-03-31T13:27:26Z</time><cmt>5.3 kmh</cmt></trkpt>
<trkpt lat="58.877527" lon="05.858672"><ele>24</ele><time>2012-03-31T13:27:27Z</time><cmt>5.6 kmh</cmt></trkpt>
<trkpt lat="58.877514" lon="05.858685"><ele>24</ele><time>2012-03-31T13:27:28Z</time><cmt>6.0 kmh</cmt></trkpt>
<trkpt lat="58.877501" lon="05.858698"><ele>24</ele><time>2012-03-31T13:27:29Z</time><cmt>5.8 kmh</cmt></trkpt>
<trkpt lat="58.877486" lon="05.858710"><ele>24</ele><time>2012-03-31T13:27:30Z</time><cmt>6.4 kmh</cmt></trkpt>
<trkpt lat="58.877471" lon="05.858723"><ele>24</ele><time>2012-03-31T13:27:31Z</time><cmt>7.0 kmh</cmt></trkpt>
<trkpt lat="58.877455" lon="05.858736"><ele>25</ele><time>2012-03-31T13:27:32Z</time><cmt>7.4 kmh</cmt></trkpt>
<trkpt lat="58.877437" lon="05.858751"><ele>25</ele><time>2012-03-31T13:27:33Z</time><cmt>7.9 kmh</cmt></trkpt>
<trkpt lat="58.877419" lon="05.858767"><ele>25</ele><time>2012-03-31T13:27:34Z</time><cmt>7.8 kmh</cmt></trkpt>
<trkpt lat="58.877402" lon="05.858782"><ele>25</ele><time>2012-03-31T13:27:35Z</time><cmt>7.5 kmh</cmt></trkpt>
<trkpt lat="58.877385" lon="05.858798"><ele>25</ele><time>2012-03-31T13:27:36Z</time><cmt>7.2 kmh</cmt></trkpt>
<trkpt lat="58.877368" lon="05.858813"><ele>25</ele><time>2012-03-31T13:27:37Z</time><cmt>7.0 kmh</cmt></trkpt>
<trkpt lat="58.877353" lon="05.858830"><ele>25</ele><time>2012-03-31T13:27:38Z</time><cmt>7.1 kmh</cmt></trkpt>
<trkpt lat="58.877338" lon="05.858847"><ele>25</ele><time>2012-03-31T13:27:39Z</time><cmt>6.7 kmh</cmt></trkpt>
<trkpt lat="58.877324" lon="05.858864"><ele>25</ele><time>2012-03-31T13:27:40Z</time><cmt>6.7 kmh</cmt></trkpt>
<trkpt lat="58.877311" lon="05.858883"><ele>25</ele><time>2012-03-31T13:27:41Z</time><cmt>6.4 kmh</cmt></trkpt>
<trkpt lat="58.877298" lon="05.858901"><ele>25</ele><time>2012-03-31T13:27:42Z</time><cmt>6.8 kmh</cmt></trkpt>
<trkpt lat="58.877285" lon="05.858921"><ele>25</ele><time>2012-03-31T13:27:43Z</time><cmt>6.8 kmh</cmt></trkpt>
<trkpt lat="58.877271" lon="05.858944"><ele>25</ele><time>2012-03-31T13:27:44Z</time><cmt>7.3 kmh</cmt></trkpt>
<trkpt lat="58.877259" lon="05.858967"><ele>25</ele><time>2012-03-31T13:27:45Z</time><cmt>6.9 kmh</cmt></trkpt>
<trkpt lat="58.877247" lon="05.858992"><ele>25</ele><time>2012-03-31T13:27:46Z</time><cmt>6.9 kmh</cmt></trkpt>
<trkpt lat="58.877235" lon="05.859019"><ele>25</ele><time>2012-03-31T13:27:47Z</time><cmt>7.6 kmh</cmt></trkpt>
<trkpt lat="58.877223" lon="05.859047"><ele>25</ele><time>2012-03-31T13:27:48Z</time><cmt>7.8 kmh</cmt></trkpt>
<trkpt lat="58.877211" lon="05.859077"><ele>25</ele><time>2012-03-31T13:27:49Z</time><cmt>8.0 kmh</cmt></trkpt>
<trkpt lat="58.877199" lon="05.859106"><ele>25</ele><time>2012-03-31T13:27:50Z</time><cmt>7.8 kmh</cmt></trkpt>
<trkpt lat="58.877186" lon="05.859135"><ele>25</ele><time>2012-03-31T13:27:51Z</time><cmt>7.9 kmh</cmt></trkpt>
<trkpt lat="58.877173" lon="05.859162"><ele>25</ele><time>2012-03-31T13:27:52Z</time><cmt>7.6 kmh</cmt></trkpt>
<trkpt lat="58.877159" lon="05.859187"><ele>25</ele><time>2012-03-31T13:27:53Z</time><cmt>7.5 kmh</cmt></trkpt>
<trkpt lat="58.877144" lon="05.859209"><ele>25</ele><time>2012-03-31T13:27:54Z</time><cmt>7.7 kmh</cmt></trkpt>
<trkpt lat="58.877128" lon="05.859229"><ele>25</ele><time>2012-03-31T13:27:55Z</time><cmt>7.6 kmh</cmt></trkpt>
<trkpt lat="58.877112" lon="05.859248"><ele>25</ele><time>2012-03-31T13:27:56Z</time><cmt>7.5 kmh</cmt></trkpt>
<trkpt lat="58.877096" lon="05.859265"><ele>25</ele><time>2012-03-31T13:27:57Z</time><cmt>7.3 kmh</cmt></trkpt>
<trkpt lat="58.877080" lon="05.859281"><ele>25</ele><time>2012-03-31T13:27:58Z</time><cmt>7.1 kmh</cmt></trkpt>
<trkpt lat="58.877064" lon="05.859297"><ele>25</ele><time>2012-03-31T13:27:59Z</time><cmt>6.7 kmh</cmt></trkpt>
<trkpt lat="58.877048" lon="05.859312"><ele>25</ele><time>2012-03-31T13:28:00Z</time><cmt>7.1 kmh</cmt></trkpt>
<trkpt lat="58.877032" lon="05.859327"><ele>25</ele><time>2012-03-31T13:28:01Z</time><cmt>6.8 kmh</cmt></trkpt>
<trkpt lat="58.877018" lon="05.859341"><ele>25</ele><time>2012-03-31T13:28:02Z</time><cmt>6.4 kmh</cmt></trkpt>
<trkpt lat="58.877003" lon="05.859356"><ele>25</ele><time>2012-03-31T13:28:03Z</time><cmt>6.3 kmh</cmt></trkpt>
<trkpt lat="58.876990" lon="05.859371"><ele>25</ele><time>2012-03-31T13:28:04Z</time><cmt>6.0 kmh</cmt></trkpt>
<trkpt lat="58.876977" lon="05.859386"><ele>25</ele><time>2012-03-31T13:28:05Z</time><cmt>5.6 kmh</cmt></trkpt>
<trkpt lat="58.876965" lon="05.859399"><ele>25</ele><time>2012-03-31T13:28:06Z</time><cmt>5.8 kmh</cmt></trkpt>
<trkpt lat="58.876952" lon="05.859414"><ele>25</ele><time>2012-03-31T13:28:07Z</time><cmt>5.9 kmh</cmt></trkpt>
<trkpt lat="58.876938" lon="05.859428"><ele>25</ele><time>2012-03-31T13:28:08Z</time><cmt>5.7 kmh</cmt></trkpt>
<trkpt lat="58.876926" lon="05.859441"><ele>25</ele><time>2012-03-31T13:28:09Z</time><cmt>5.5 kmh</cmt></trkpt>
<trkpt lat="58.876913" lon="05.859455"><ele>25</ele><time>2012-03-31T13:28:10Z</time><cmt>5.4 kmh</cmt></trkpt>
<trkpt lat="58.876901" lon="05.859468"><ele>25</ele><time>2012-03-31T13:28:11Z</time><cmt>5.1 kmh</cmt></trkpt>
<trkpt lat="58.876890" lon="05.859481"><ele>25</ele><time>2012-03-31T13:28:12Z</time><cmt>5.2 kmh</cmt></trkpt>
<trkpt lat="58.876878" lon="05.859494"><ele>25</ele><time>2012-03-31T13:28:13Z</time><cmt>5.3 kmh</cmt></trkpt>
<trkpt lat="58.876867" lon="05.859507"><ele>25</ele><time>2012-03-31T13:28:14Z</time><cmt>5.3 kmh</cmt></trkpt>
<trkpt lat="58.876856" lon="05.859521"><ele>25</ele><time>2012-03-31T13:28:15Z</time><cmt>5.3 kmh</cmt></trkpt>
<trkpt lat="58.876845" lon="05.859535"><ele>25</ele><time>2012-03-31T13:28:16Z</time><cmt>5.5 kmh</cmt></trkpt>
<trkpt lat="58.876834" lon="05.859550"><ele>25</ele><time>2012-03-31T13:28:17Z</time><cmt>5.1 kmh</cmt></trkpt>
<trkpt lat="58.876823" lon="05.859566"><ele>25</ele><time>2012-03-31T13:28:18Z</time><cmt>5.2 kmh</cmt></trkpt>
<trkpt lat="58.876812" lon="05.859579"><ele>25</ele><time>2012-03-31T13:28:19Z</time><cmt>5.2 kmh</cmt></trkpt>
<trkpt lat="58.876802" lon="05.859591"><ele>25</ele><time>2012-03-31T13:28:20Z</time><cmt>5.0 kmh</cmt></trkpt>
<trkpt lat="58.876791" lon="05.859603"><ele>25</ele><time>2012-03-31T13:28:21Z</time><cmt>5.0 kmh</cmt></trkpt>
<trkpt lat="58.876781" lon="05.859615"><ele>25</ele><time>2012-03-31T13:28:22Z</time><cmt>4.1 kmh</cmt></trkpt>
<trkpt lat="58.876771" lon="05.859626"><ele>25</ele><time>2012-03-31T13:28:23Z</time><cmt>4.1 kmh</cmt></trkpt>
<trkpt lat="58.876763" lon="05.859638"><ele>25</ele><time>2012-03-31T13:28:24Z</time><cmt>4.7 kmh</cmt></trkpt>
<trkpt lat="58.876754" lon="05.859650"><ele>25</ele><time>2012-03-31T13:28:25Z</time><cmt>4.6 kmh</cmt></trkpt>
<trkpt lat="58.876746" lon="05.859660"><ele>25</ele><time>2012-03-31T13:28:26Z</time><cmt>4.4 kmh</cmt></trkpt>
<trkpt lat="58.876738" lon="05.859669"><ele>25</ele><time>2012-03-31T13:28:27Z</time><cmt>4.1 kmh</cmt></trkpt>
<trkpt lat="58.876731" lon="05.859677"><ele>25</ele><time>2012-03-31T13:28:28Z</time><cmt>2.9 kmh</cmt></trkpt>
<trkpt lat="58.876725" lon="05.859684"><ele>25</ele><time>2012-03-31T13:28:29Z</time><cmt>2.6 kmh</cmt></trkpt>
<trkpt lat="58.876719" lon="05.859690"><ele>25</ele><time>2012-03-31T13:28:30Z</time><cmt>3.0 kmh</cmt></trkpt>
<trkpt lat="58.876714" lon="05.859696"><ele>25</ele><time>2012-03-31T13:28:31Z</time><cmt>2.8 kmh</cmt></trkpt>
<trkpt lat="58.876707" lon="05.859702"><ele>25</ele><time>2012-03-31T13:28:32Z</time><cmt>2.9 kmh</cmt></trkpt>
<trkpt lat="58.876700" lon="05.859709"><ele>25</ele><time>2012-03-31T13:28:33Z</time><cmt>3.3 kmh</cmt></trkpt>
<trkpt lat="58.876692" lon="05.859715"><ele>25</ele><time>2012-03-31T13:28:34Z</time><cmt>3.7 kmh</cmt></trkpt>
<trkpt lat="58.876684" lon="05.859722"><ele>25</ele><time>2012-03-31T13:28:35Z</time><cmt>2.9 kmh</cmt></trkpt>
<trkpt lat="58.876677" lon="05.859729"><ele>25</ele><time>2012-03-31T13:28:36Z</time><cmt>2.8 kmh</cmt></trkpt>
<trkpt lat="58.876671" lon="05.859736"><ele>25</ele><time>2012-03-31T13:28:37Z</time><cmt>3.3 kmh</cmt></trkpt>
<trkpt lat="58.876664" lon="05.859742"><ele>25</ele><time>2012-03-31T13:28:38Z</time><cmt>3.2 kmh</cmt></trkpt>
<trkpt lat="58.876658" lon="05.859749"><ele>25</ele><time>2012-03-31T13:28:39Z</time><cmt>3.2 kmh</cmt></trkpt>
<trkpt lat="58.876651" lon="05.859756"><ele>25</ele><time>2012-03-31T13:28:40Z</time><cmt>3.3 kmh</cmt></trkpt>
<trkpt lat="58.876644" lon="05.859764"><ele>24</ele><time>2012-03-31T13:28:41Z</time><cmt>2.7 kmh</cmt></trkpt>
<trkpt lat="58.876638" lon="05.859771"><ele>24</ele><time>2012-03-31T13:28:42Z</time><cmt>2.6 kmh</cmt></trkpt>
<trkpt lat="58.876631" lon="05.859778"><ele>24</ele><time>2012-03-31T13:28:43Z</time><cmt>3.2 kmh</cmt></trkpt>
<trkpt lat="58.876624" lon="05.859784"><ele>24</ele><time>2012-03-31T13:28:44Z</time><cmt>3.4 kmh</cmt></trkpt>
<trkpt lat="58.876617" lon="05.859791"><ele>24</ele><time>2012-03-31T13:28:45Z</time><cmt>3.3 kmh</cmt></trkpt>
<trkpt lat="58.876611" lon="05.859798"><ele>24</ele><time>2012-03-31T13:28:46Z</time><cmt>3.1 kmh</cmt></trkpt>
<trkpt lat="58.876605" lon="05.859805"><ele>24</ele><time>2012-03-31T13:28:47Z</time><cmt>2.5 kmh</cmt></trkpt>
<trkpt lat="58.876599" lon="05.859812"><ele>24</ele><time>2012-03-31T13:28:48Z</time><cmt>2.5 kmh</cmt></trkpt>
<trkpt lat="58.876592" lon="05.859818"><ele>24</ele><time>2012-03-31T13:28:49Z</time><cmt>3.1 kmh</cmt></trkpt>
<trkpt lat="58.876586" lon="05.859824"><ele>24</ele><time>2012-03-31T13:28:50Z</time><cmt>3.2 kmh</cmt></trkpt>
<trkpt lat="58.876579" lon="05.859829"><ele>24</ele><time>2012-03-31T13:28:51Z</time><cmt>3.1 kmh</cmt></trkpt>
<trkpt lat="58.876573" lon="05.859833"><ele>24</ele><time>2012-03-31T13:28:52Z</time><cmt>2.8 kmh</cmt></trkpt>
<trkpt lat="58.876568" lon="05.859837"><ele>24</ele><time>2012-03-31T13:28:53Z</time><cmt>2.1 kmh</cmt></trkpt>
<trkpt lat="58.876563" lon="05.859842"><ele>24</ele><time>2012-03-31T13:28:54Z</time><cmt>2.0 kmh</cmt></trkpt>
<trkpt lat="58.876559" lon="05.859847"><ele>24</ele><time>2012-03-31T13:28:55Z</time><cmt>2.3 kmh</cmt></trkpt>
<trkpt lat="58.876555" lon="05.859852"><ele>24</ele><time>2012-03-31T13:28:56Z</time><cmt>2.1 kmh</cmt></trkpt>
<trkpt lat="58.876551" lon="05.859857"><ele>24</ele><time>2012-03-31T13:28:57Z</time><cmt>2.0 kmh</cmt></trkpt>
<trkpt lat="58.876547" lon="05.859863"><ele>24</ele><time>2012-03-31T13:28:58Z</time><cmt>2.1 kmh</cmt></trkpt>
<trkpt lat="58.876543" lon="05.859867"><ele>24</ele><time>2012-03-31T13:28:59Z</time><cmt>1.6 kmh</cmt></trkpt>
<trkpt lat="58.876539" lon="05.859871"><ele>24</ele><time>2012-03-31T13:29:00Z</time><cmt>1.6 kmh</cmt></trkpt>
<trkpt lat="58.876534" lon="05.859875"><ele>24</ele><time>2012-03-31T13:29:01Z</time><cmt>2.1 kmh</cmt></trkpt>
<trkpt lat="58.876529" lon="05.859879"><ele>24</ele><time>2012-03-31T13:29:02Z</time><cmt>2.2 kmh</cmt></trkpt>
<trkpt lat="58.876523" lon="05.859887"><ele>24</ele><time>2012-03-31T13:29:03Z</time><cmt>2.8 kmh</cmt></trkpt>
<trkpt lat="58.876516" lon="05.859895"><ele>24</ele><time>2012-03-31T13:29:04Z</time><cmt>3.3 kmh</cmt></trkpt>
<trkpt lat="58.876508" lon="05.859903"><ele>24</ele><time>2012-03-31T13:29:05Z</time><cmt>3.6 kmh</cmt></trkpt>
<trkpt lat="58.876500" lon="05.859911"><ele>24</ele><time>2012-03-31T13:29:06Z</time><cmt>3.2 kmh</cmt></trkpt>
<trkpt lat="58.876490" lon="05.859922"><ele>24</ele><time>2012-03-31T13:29:07Z</time><cmt>3.6 kmh</cmt></trkpt>
<trkpt lat="58.876480" lon="05.859932"><ele>24</ele><time>2012-03-31T13:29:08Z</time><cmt>4.8 kmh</cmt></trkpt>
<trkpt lat="58.876470" lon="05.859941"><ele>24</ele><time>2012-03-31T13:29:09Z</time><cmt>4.7 kmh</cmt></trkpt>
<trkpt lat="58.876461" lon="05.859948"><ele>24</ele><time>2012-03-31T13:29:10Z</time><cmt>4.5 kmh</cmt></trkpt>
<trkpt lat="58.876452" lon="05.859953"><ele>24</ele><time>2012-03-31T13:29:11Z</time><cmt>4.1 kmh</cmt></trkpt>
<trkpt lat="58.876444" lon="05.859958"><ele>24</ele><time>2012-03-31T13:29:12Z</time><cmt>3.0 kmh</cmt></trkpt>
<trkpt lat="58.876437" lon="05.859962"><ele>24</ele><time>2012-03-31T13:29:13Z</time><cmt>2.8 kmh</cmt></trkpt>
<trkpt lat="58.876431" lon="05.859964"><ele>24</ele><time>2012-03-31T13:29:14Z</time><cmt>3.0 kmh</cmt></trkpt>
<trkpt lat="58.876426" lon="05.859967"><ele>24</ele><time>2012-03-31T13:29:15Z</time><cmt>2.5 kmh</cmt></trkpt>
<trkpt lat="58.876422" lon="05.859970"><ele>24</ele><time>2012-03-31T13:29:16Z</time><cmt>2.0 kmh</cmt></trkpt>
<trkpt lat="58.876419" lon="05.859974"><ele>24</ele><time>2012-03-31T13:29:17Z</time><cmt>1.7 kmh</cmt></trkpt>
<trkpt lat="58.876415" lon="05.859978"><ele>24</ele><time>2012-03-31T13:29:18Z</time><cmt>1.4 kmh</cmt></trkpt>
<trkpt lat="58.876413" lon="05.859982"><ele>24</ele><time>2012-03-31T13:29:19Z</time><cmt>1.3 kmh</cmt></trkpt>
<trkpt lat="58.876410" lon="05.859986"><ele>24</ele><time>2012-03-31T13:29:20Z</time><cmt>1.4 kmh</cmt></trkpt>
<trkpt lat="58.876407" lon="05.859989"><ele>24</ele><time>2012-03-31T13:29:21Z</time><cmt>1.4 kmh</cmt></trkpt>
<trkpt lat="58.876405" lon="05.859993"><ele>24</ele><time>2012-03-31T13:29:22Z</time><cmt>1.4 kmh</cmt></trkpt>
<trkpt lat="58.876402" lon="05.859996"><ele>24</ele><time>2012-03-31T13:29:23Z</time><cmt>1.3 kmh</cmt></trkpt>
<trkpt lat="58.876400" lon="05.859999"><ele>24</ele><time>2012-03-31T13:29:24Z</time><cmt>1.0 kmh</cmt></trkpt>
<trkpt lat="58.876398" lon="05.860002"><ele>24</ele><time>2012-03-31T13:29:25Z</time><cmt>0.9 kmh</cmt></trkpt>
<trkpt lat="58.876397" lon="05.860005"><ele>24</ele><time>2012-03-31T13:29:26Z</time><cmt>0.9 kmh</cmt></trkpt>
<trkpt lat="58.876396" lon="05.860008"><ele>24</ele><time>2012-03-31T13:29:27Z</time><cmt>0.8 kmh</cmt></trkpt>
<trkpt lat="58.876395" lon="05.860011"><ele>24</ele><time>2012-03-31T13:29:28Z</time><cmt>0.7 kmh</cmt></trkpt>
<trkpt lat="58.876394" lon="05.860014"><ele>24</ele><time>2012-03-31T13:29:29Z</time><cmt>0.7 kmh</cmt></trkpt>
<trkpt lat="58.876393" lon="05.860018"><ele>24</ele><time>2012-03-31T13:29:30Z</time><cmt>0.7 kmh</cmt></trkpt>
<trkpt lat="58.876393" lon="05.860022"><ele>24</ele><time>2012-03-31T13:29:31Z</time><cmt>0.7 kmh</cmt></trkpt>
<trkpt lat="58.876392" lon="05.860025"><ele>24</ele><time>2012-03-31T13:29:32Z</time><cmt>0.8 kmh</cmt></trkpt>
<trkpt lat="58.876391" lon="05.860028"><ele>24</ele><time>2012-03-31T13:29:33Z</time><cmt>0.7 kmh</cmt></trkpt>
<trkpt lat="58.876390" lon="05.860030"><ele>24</ele><time>2012-03-31T13:29:34Z</time><cmt>0.7 kmh</cmt></trkpt>
<trkpt lat="58.876389" lon="05.860032"><ele>24</ele><time>2012-03-31T13:29:35Z</time><cmt>0.8 kmh</cmt></trkpt>
<trkpt lat="58.876387" lon="05.860034"><ele>24</ele><time>2012-03-31T13:29:36Z</time><cmt>0.8 kmh</cmt></trkpt>
<trkpt lat="58.876385" lon="05.860036"><ele>24</ele><time>2012-03-31T13:29:37Z</time><cmt>0.7 kmh</cmt></trkpt>
<trkpt lat="58.876382" lon="05.860040"><ele>24</ele><time>2012-03-31T13:29:38Z</time><cmt>1.0 kmh</cmt></trkpt>
<trkpt lat="58.876378" lon="05.860045"><ele>24</ele><time>2012-03-31T13:29:39Z</time><cmt>1.8 kmh</cmt></trkpt>
<trkpt lat="58.876374" lon="05.860049"><ele>24</ele><time>2012-03-31T13:29:40Z</time><cmt>2.0 kmh</cmt></trkpt>
<trkpt lat="58.876369" lon="05.860053"><ele>24</ele><time>2012-03-31T13:29:41Z</time><cmt>2.1 kmh</cmt></trkpt>
<trkpt lat="58.876365" lon="05.860056"><ele>24</ele><time>2012-03-31T13:29:42Z</time><cmt>2.1 kmh</cmt></trkpt>
<trkpt lat="58.876360" lon="05.860060"><ele>24</ele><time>2012-03-31T13:29:43Z</time><cmt>1.8 kmh</cmt></trkpt>
<trkpt lat="58.876355" lon="05.860065"><ele>24</ele><time>2012-03-31T13:29:44Z</time><cmt>1.8 kmh</cmt></trkpt>
<trkpt lat="58.876351" lon="05.860069"><ele>24</ele><time>2012-03-31T13:29:45Z</time><cmt>2.2 kmh</cmt></trkpt>
<trkpt lat="58.876346" lon="05.860074"><ele>24</ele><time>2012-03-31T13:29:46Z</time><cmt>2.1 kmh</cmt></trkpt>
<trkpt lat="58.876342" lon="05.860078"><ele>24</ele><time>2012-03-31T13:29:47Z</time><cmt>2.0 kmh</cmt></trkpt>
<trkpt lat="58.876338" lon="05.860084"><ele>24</ele><time>2012-03-31T13:29:48Z</time><cmt>2.2 kmh</cmt></trkpt>
<trkpt lat="58.876331" lon="05.860090"><ele>24</ele><time>2012-03-31T13:29:49Z</time><cmt>2.2 kmh</cmt></trkpt>
<trkpt lat="58.876324" lon="05.860097"><ele>24</ele><time>2012-03-31T13:29:50Z</time><cmt>2.5 kmh</cmt></trkpt>
<trkpt lat="58.876317" lon="05.860105"><ele>24</ele><time>2012-03-31T13:29:51Z</time><cmt>3.5 kmh</cmt></trkpt>
<trkpt lat="58.876311" lon="05.860113"><ele>24</ele><time>2012-03-31T13:29:52Z</time><cmt>3.5 kmh</cmt></trkpt>
<trkpt lat="58.876304" lon="05.860121"><ele>24</ele><time>2012-03-31T13:29:53Z</time><cmt>3.3 kmh</cmt></trkpt>
<trkpt lat="58.876298" lon="05.860131"><ele>24</ele><time>2012-03-31T13:29:54Z</time><cmt>3.4 kmh</cmt></trkpt>
<trkpt lat="58.876290" lon="05.860141"><ele>24</ele><time>2012-03-31T13:29:55Z</time><cmt>2.9 kmh</cmt></trkpt>
<trkpt lat="58.876283" lon="05.860151"><ele>24</ele><time>2012-03-31T13:29:56Z</time><cmt>3.1 kmh</cmt></trkpt>
<trkpt lat="58.876275" lon="05.860161"><ele>24</ele><time>2012-03-31T13:29:57Z</time><cmt>4.1 kmh</cmt></trkpt>
<trkpt lat="58.876267" lon="05.860168"><ele>24</ele><time>2012-03-31T13:29:58Z</time><cmt>3.9 kmh</cmt></trkpt>
<trkpt lat="58.876259" lon="05.860177"><ele>24</ele><time>2012-03-31T13:29:59Z</time><cmt>3.8 kmh</cmt></trkpt>
<trkpt lat="58.876252" lon="05.860185"><ele>24</ele><time>2012-03-31T13:30:00Z</time><cmt>3.8 kmh</cmt></trkpt>
<trkpt lat="58.876245" lon="05.860195"><ele>24</ele><time>2012-03-31T13:30:01Z</time><cmt>2.9 kmh</cmt></trkpt>
<trkpt lat="58.876238" lon="05.860206"><ele>24</ele><time>2012-03-31T13:30:02Z</time><cmt>3.0 kmh</cmt></trkpt>
<trkpt lat="58.876232" lon="05.860217"><ele>24</ele><time>2012-03-31T13:30:03Z</time><cmt>3.8 kmh</cmt></trkpt>
<trkpt lat="58.876227" lon="05.860229"><ele>24</ele><time>2012-03-31T13:30:04Z</time><cmt>3.6 kmh</cmt></trkpt>
<trkpt lat="58.876221" lon="05.860240"><ele>24</ele><time>2012-03-31T13:30:05Z</time><cmt>3.4 kmh</cmt></trkpt>
<trkpt lat="58.876216" lon="05.860252"><ele>24</ele><time>2012-03-31T13:30:06Z</time><cmt>3.5 kmh</cmt></trkpt>
<trkpt lat="58.876210" lon="05.860266"><ele>24</ele><time>2012-03-31T13:30:07Z</time><cmt>3.8 kmh</cmt></trkpt>
<trkpt lat="58.876203" lon="05.860281"><ele>24</ele><time>2012-03-31T13:30:08Z</time><cmt>3.4 kmh</cmt></trkpt>
<trkpt lat="58.876195" lon="05.860297"><ele>24</ele><time>2012-03-31T13:30:09Z</time><cmt>3.8 kmh</cmt></trkpt>
<trkpt lat="58.876186" lon="05.860315"><ele>24</ele><time>2012-03-31T13:30:10Z</time><cmt>5.2 kmh</cmt></trkpt>
<trkpt lat="58.876177" lon="05.860332"><ele>24</ele><time>2012-03-31T13:30:11Z</time><cmt>5.2 kmh</cmt></trkpt>
<trkpt lat="58.876170" lon="05.860346"><ele>24</ele><time>2012-03-31T13:30:12Z</time><cmt>5.0 kmh</cmt></trkpt>
<trkpt lat="58.876161" lon="05.860360"><ele>24</ele><time>2012-03-31T13:30:13Z</time><cmt>4.7 kmh</cmt></trkpt>
<trkpt lat="58.876153" lon="05.860373"><ele>24</ele><time>2012-03-31T13:30:14Z</time><cmt>3.8 kmh</cmt></trkpt>
<trkpt lat="58.876145" lon="05.860384"><ele>24</ele><time>2012-03-31T13:30:15Z</time><cmt>3.5 kmh</cmt></trkpt>
<trkpt lat="58.876137" lon="05.860395"><ele>24</ele><time>2012-03-31T13:30:16Z</time><cmt>4.3 kmh</cmt></trkpt>
<trkpt lat="58.876128" lon="05.860405"><ele>24</ele><time>2012-03-31T13:30:17Z</time><cmt>4.4 kmh</cmt></trkpt>
<trkpt lat="58.876119" lon="05.860414"><ele>24</ele><time>2012-03-31T13:30:18Z</time><cmt>4.3 kmh</cmt></trkpt>
<trkpt lat="58.876110" lon="05.860424"><ele>24</ele><time>2012-03-31T13:30:19Z</time><cmt>4.4 kmh</cmt></trkpt>
<trkpt lat="58.876100" lon="05.860432"><ele>24</ele><time>2012-03-31T13:30:20Z</time><cmt>3.7 kmh</cmt></trkpt>
<trkpt lat="58.876089" lon="05.860441"><ele>24</ele><time>2012-03-31T13:30:21Z</time><cmt>5.1 kmh</cmt></trkpt>
<trkpt lat="58.876078" lon="05.860449"><ele>24</ele><time>2012-03-31T13:30:22Z</time><cmt>5.0 kmh</cmt></trkpt>
<trkpt lat="58.876065" lon="05.860458"><ele>24</ele><time>2012-03-31T13:30:23Z</time><cmt>5.7 kmh</cmt></trkpt>
<trkpt lat="58.876053" lon="05.860468"><ele>24</ele><time>2012-03-31T13:30:24Z</time><cmt>5.7 kmh</cmt></trkpt>
<trkpt lat="58.876039" lon="05.860479"><ele>24</ele><time>2012-03-31T13:30:25Z</time><cmt>6.1 kmh</cmt></trkpt>
<trkpt lat="58.876025" lon="05.860492"><ele>24</ele><time>2012-03-31T13:30:26Z</time><cmt>6.2 kmh</cmt></trkpt>
<trkpt lat="58.876012" lon="05.860506"><ele>24</ele><time>2012-03-31T13:30:27Z</time><cmt>6.3 kmh</cmt></trkpt>
<trkpt lat="58.875998" lon="05.860521"><ele>24</ele><time>2012-03-31T13:30:28Z</time><cmt>6.6 kmh</cmt></trkpt>
<trkpt lat="58.875984" lon="05.860539"><ele>24</ele><time>2012-03-31T13:30:29Z</time><cmt>6.5 kmh</cmt></trkpt>
<trkpt lat="58.875971" lon="05.860559"><ele>24</ele><time>2012-03-31T13:30:30Z</time><cmt>6.4 kmh</cmt></trkpt>
<trkpt lat="58.875960" lon="05.860580"><ele>24</ele><time>2012-03-31T13:30:31Z</time><cmt>6.1 kmh</cmt></trkpt>
<trkpt lat="58.875949" lon="05.860603"><ele>24</ele><time>2012-03-31T13:30:32Z</time><cmt>6.3 kmh</cmt></trkpt>
<trkpt lat="58.875940" lon="05.860627"><ele>24</ele><time>2012-03-31T13:30:33Z</time><cmt>6.3 kmh</cmt></trkpt>
<trkpt lat="58.875931" lon="05.860652"><ele>24</ele><time>2012-03-31T13:30:34Z</time><cmt>6.4 kmh</cmt></trkpt>
<trkpt lat="58.875922" lon="05.860679"><ele>24</ele><time>2012-03-31T13:30:35Z</time><cmt>6.5 kmh</cmt></trkpt>
<trkpt lat="58.875915" lon="05.860707"><ele>24</ele><time>2012-03-31T13:30:36Z</time><cmt>6.5 kmh</cmt></trkpt>
<trkpt lat="58.875907" lon="05.860735"><ele>24</ele><time>2012-03-31T13:30:37Z</time><cmt>7.1 kmh</cmt></trkpt>
<trkpt lat="58.875900" lon="05.860765"><ele>24</ele><time>2012-03-31T13:30:38Z</time><cmt>6.7 kmh</cmt></trkpt>
<trkpt lat="58.875892" lon="05.860796"><ele>24</ele><time>2012-03-31T13:30:39Z</time><cmt>7.1 kmh</cmt></trkpt>
<trkpt lat="58.875885" lon="05.860827"><ele>24</ele><time>2012-03-31T13:30:40Z</time><cmt>6.8 kmh</cmt></trkpt>
<trkpt lat="58.875879" lon="05.860857"><ele>24</ele><time>2012-03-31T13:30:41Z</time><cmt>6.3 kmh</cmt></trkpt>
<trkpt lat="58.875873" lon="05.860886"><ele>24</ele><time>2012-03-31T13:30:42Z</time><cmt>6.1 kmh</cmt></trkpt>
<trkpt lat="58.875867" lon="05.860914"><ele>24</ele><time>2012-03-31T13:30:43Z</time><cmt>5.8 kmh</cmt></trkpt>
<trkpt lat="58.875862" lon="05.860940"><ele>24</ele><time>2012-03-31T13:30:44Z</time><cmt>5.3 kmh</cmt></trkpt>
<trkpt lat="58.875857" lon="05.860964"><ele>24</ele><time>2012-03-31T13:30:45Z</time><cmt>5.3 kmh</cmt></trkpt>
<trkpt lat="58.875851" lon="05.860987"><ele>24</ele><time>2012-03-31T13:30:46Z</time><cmt>4.6 kmh</cmt></trkpt>
<trkpt lat="58.875847" lon="05.861009"><ele>24</ele><time>2012-03-31T13:30:47Z</time><cmt>5.1 kmh</cmt></trkpt>
<trkpt lat="58.875842" lon="05.861031"><ele>24</ele><time>2012-03-31T13:30:48Z</time><cmt>5.1 kmh</cmt></trkpt>
<trkpt lat="58.875837" lon="05.861054"><ele>24</ele><time>2012-03-31T13:30:49Z</time><cmt>5.3 kmh</cmt></trkpt>
<trkpt lat="58.875832" lon="05.861078"><ele>24</ele><time>2012-03-31T13:30:50Z</time><cmt>5.7 kmh</cmt></trkpt>
<trkpt lat="58.875826" lon="05.861103"><ele>24</ele><time>2012-03-31T13:30:51Z</time><cmt>6.0 kmh</cmt></trkpt>
<trkpt lat="58.875819" lon="05.861129"><ele>24</ele><time>2012-03-31T13:30:52Z</time><cmt>6.2 kmh</cmt></trkpt>
<trkpt lat="58.875811" lon="05.861155"><ele>24</ele><time>2012-03-31T13:30:53Z</time><cmt>6.3 kmh</cmt></trkpt>
<trkpt lat="58.875803" lon="05.861182"><ele>24</ele><time>2012-03-31T13:30:54Z</time><cmt>6.3 kmh</cmt></trkpt>
<trkpt lat="58.875795" lon="05.861209"><ele>24</ele><time>2012-03-31T13:30:55Z</time><cmt>6.5 kmh</cmt></trkpt>
<trkpt lat="58.875788" lon="05.861236"><ele>24</ele><time>2012-03-31T13:30:56Z</time><cmt>6.6 kmh</cmt></trkpt>
<trkpt lat="58.875779" lon="05.861265"><ele>24</ele><time>2012-03-31T13:30:57Z</time><cmt>7.2 kmh</cmt></trkpt>
<trkpt lat="58.875771" lon="05.861291"><ele>24</ele><time>2012-03-31T13:30:58Z</time><cmt>7.1 kmh</cmt></trkpt>
<trkpt lat="58.875762" lon="05.861324"><ele>24</ele><time>2012-03-31T13:30:59Z</time><cmt>6.8 kmh</cmt></trkpt>
<trkpt lat="58.875754" lon="05.861354"><ele>24</ele><time>2012-03-31T13:31:00Z</time><cmt>7.0 kmh</cmt></trkpt>
<trkpt lat="58.875746" lon="05.861384"><ele>23</ele><time>2012-03-31T13:31:01Z</time><cmt>7.3 kmh</cmt></trkpt>
<trkpt lat="58.875738" lon="05.861415"><ele>23</ele><time>2012-03-31T13:31:02Z</time><cmt>7.3 kmh</cmt></trkpt>
<trkpt lat="58.875730" lon="05.861445"><ele>23</ele><time>2012-03-31T13:31:03Z</time><cmt>7.4 kmh</cmt></trkpt>
<trkpt lat="58.875721" lon="05.861476"><ele>23</ele><time>2012-03-31T13:31:04Z</time><cmt>7.6 kmh</cmt></trkpt>
<trkpt lat="58.875711" lon="05.861507"><ele>23</ele><time>2012-03-31T13:31:05Z</time><cmt>7.2 kmh</cmt></trkpt>
<trkpt lat="58.875694" lon="05.861554"><ele>23</ele><time>2012-03-31T13:31:07Z</time><cmt>6.3 kmh</cmt></trkpt>
<trkpt lat="58.875676" lon="05.861603"><ele>22</ele><time>2012-03-31T13:31:09Z</time><cmt>5.9 kmh</cmt></trkpt>
<trkpt lat="58.875658" lon="05.861644"><ele>22</ele><time>2012-03-31T13:31:11Z</time><cmt>5.1 kmh</cmt></trkpt>
<trkpt lat="58.875639" lon="05.861681"><ele>22</ele><time>2012-03-31T13:31:13Z</time><cmt>5.2 kmh</cmt></trkpt>
<trkpt lat="58.875619" lon="05.861713"><ele>22</ele><time>2012-03-31T13:31:15Z</time><cmt>5.0 kmh</cmt></trkpt>
<trkpt lat="58.875600" lon="05.861742"><ele>22</ele><time>2012-03-31T13:31:17Z</time><cmt>4.2 kmh</cmt></trkpt>
<trkpt lat="58.875584" lon="05.861767"><ele>22</ele><time>2012-03-31T13:31:19Z</time><cmt>5.0 kmh</cmt></trkpt>
<trkpt lat="58.875569" lon="05.861788"><ele>22</ele><time>2012-03-31T13:31:21Z</time><cmt>4.2 kmh</cmt></trkpt>
<trkpt lat="58.875546" lon="05.861820"><ele>22</ele><time>2012-03-31T13:31:24Z</time><cmt>3.5 kmh</cmt></trkpt>
<trkpt lat="58.875530" lon="05.861842"><ele>22</ele><time>2012-03-31T13:31:26Z</time><cmt>5.0 kmh</cmt></trkpt>
<trkpt lat="58.875512" lon="05.861868"><ele>22</ele><time>2012-03-31T13:31:28Z</time><cmt>4.0 kmh</cmt></trkpt>
<trkpt lat="58.875494" lon="05.861894"><ele>22</ele><time>2012-03-31T13:31:30Z</time><cmt>4.4 kmh</cmt></trkpt>
<trkpt lat="58.875470" lon="05.861932"><ele>22</ele><time>2012-03-31T13:31:33Z</time><cmt>4.5 kmh</cmt></trkpt>
<trkpt lat="58.875454" lon="05.861967"><ele>22</ele><time>2012-03-31T13:31:35Z</time><cmt>4.2 kmh</cmt></trkpt>
<trkpt lat="58.875437" lon="05.862005"><ele>22</ele><time>2012-03-31T13:31:37Z</time><cmt>5.5 kmh</cmt></trkpt>
<trkpt lat="58.875420" lon="05.862050"><ele>22</ele><time>2012-03-31T13:31:39Z</time><cmt>6.0 kmh</cmt></trkpt>
<trkpt lat="58.875403" lon="05.862100"><ele>22</ele><time>2012-03-31T13:31:41Z</time><cmt>6.6 kmh</cmt></trkpt>
<trkpt lat="58.875385" lon="05.862156"><ele>22</ele><time>2012-03-31T13:31:43Z</time><cmt>6.9 kmh</cmt></trkpt>
<trkpt lat="58.875367" lon="05.862214"><ele>22</ele><time>2012-03-31T13:31:45Z</time><cmt>7.1 kmh</cmt></trkpt>
<trkpt lat="58.875348" lon="05.862273"><ele>22</ele><time>2012-03-31T13:31:47Z</time><cmt>7.3 kmh</cmt></trkpt>
<trkpt lat="58.875338" lon="05.862303"><ele>22</ele><time>2012-03-31T13:31:48Z</time><cmt>7.2 kmh</cmt></trkpt>
<trkpt lat="58.875328" lon="05.862332"><ele>22</ele><time>2012-03-31T13:31:49Z</time><cmt>7.1 kmh</cmt></trkpt>
<trkpt lat="58.875318" lon="05.862360"><ele>22</ele><time>2012-03-31T13:31:50Z</time><cmt>7.1 kmh</cmt></trkpt>
<trkpt lat="58.875296" lon="05.862413"><ele>22</ele><time>2012-03-31T13:31:52Z</time><cmt>7.1 kmh</cmt></trkpt>
<trkpt lat="58.875274" lon="05.862467"><ele>22</ele><time>2012-03-31T13:31:54Z</time><cmt>7.1 kmh</cmt></trkpt>
<trkpt lat="58.875262" lon="05.862494"><ele>22</ele><time>2012-03-31T13:31:55Z</time><cmt>7.0 kmh</cmt></trkpt>
<trkpt lat="58.875240" lon="05.862544"><ele>22</ele><time>2012-03-31T13:31:57Z</time><cmt>6.7 kmh</cmt></trkpt>
<trkpt lat="58.875214" lon="05.862593"><ele>22</ele><time>2012-03-31T13:31:59Z</time><cmt>7.2 kmh</cmt></trkpt>
<trkpt lat="58.875190" lon="05.862644"><ele>22</ele><time>2012-03-31T13:32:01Z</time><cmt>7.0 kmh</cmt></trkpt>
<trkpt lat="58.875178" lon="05.862671"><ele>22</ele><time>2012-03-31T13:32:02Z</time><cmt>7.1 kmh</cmt></trkpt>
<trkpt lat="58.875156" lon="05.862727"><ele>22</ele><time>2012-03-31T13:32:04Z</time><cmt>7.1 kmh</cmt></trkpt>
<trkpt lat="58.875146" lon="05.862755"><ele>22</ele><time>2012-03-31T13:32:05Z</time><cmt>6.9 kmh</cmt></trkpt>
<trkpt lat="58.875137" lon="05.862784"><ele>22</ele><time>2012-03-31T13:32:06Z</time><cmt>6.9 kmh</cmt></trkpt>
<trkpt lat="58.875128" lon="05.862813"><ele>22</ele><time>2012-03-31T13:32:07Z</time><cmt>6.9 kmh</cmt></trkpt>
<trkpt lat="58.875116" lon="05.862852"><ele>22</ele><time>2012-03-31T13:32:08Z</time><cmt>6.6 kmh</cmt></trkpt>
<trkpt lat="58.875110" lon="05.862878"><ele>22</ele><time>2012-03-31T13:32:09Z</time><cmt>6.3 kmh</cmt></trkpt>
<trkpt lat="58.875103" lon="05.862904"><ele>22</ele><time>2012-03-31T13:32:10Z</time><cmt>6.0 kmh</cmt></trkpt>
<trkpt lat="58.875095" lon="05.862928"><ele>22</ele><time>2012-03-31T13:32:11Z</time><cmt>5.5 kmh</cmt></trkpt>
<trkpt lat="58.875088" lon="05.862951"><ele>22</ele><time>2012-03-31T13:32:12Z</time><cmt>5.3 kmh</cmt></trkpt>
<trkpt lat="58.875081" lon="05.862972"><ele>22</ele><time>2012-03-31T13:32:13Z</time><cmt>5.1 kmh</cmt></trkpt>
<trkpt lat="58.875073" lon="05.862994"><ele>22</ele><time>2012-03-31T13:32:14Z</time><cmt>5.6 kmh</cmt></trkpt>
<trkpt lat="58.875066" lon="05.863017"><ele>22</ele><time>2012-03-31T13:32:15Z</time><cmt>5.7 kmh</cmt></trkpt>
<trkpt lat="58.875058" lon="05.863041"><ele>22</ele><time>2012-03-31T13:32:16Z</time><cmt>6.0 kmh</cmt></trkpt>
<trkpt lat="58.875050" lon="05.863066"><ele>22</ele><time>2012-03-31T13:32:17Z</time><cmt>6.1 kmh</cmt></trkpt>
<trkpt lat="58.875042" lon="05.863091"><ele>22</ele><time>2012-03-31T13:32:18Z</time><cmt>6.4 kmh</cmt></trkpt>
<trkpt lat="58.875033" lon="05.863117"><ele>22</ele><time>2012-03-31T13:32:19Z</time><cmt>6.2 kmh</cmt></trkpt>
<trkpt lat="58.875024" lon="05.863142"><ele>22</ele><time>2012-03-31T13:32:20Z</time><cmt>6.4 kmh</cmt></trkpt>
<trkpt lat="58.875015" lon="05.863168"><ele>22</ele><time>2012-03-31T13:32:21Z</time><cmt>6.6 kmh</cmt></trkpt>
<trkpt lat="58.875006" lon="05.863195"><ele>22</ele><time>2012-03-31T13:32:22Z</time><cmt>6.6 kmh</cmt></trkpt>
<trkpt lat="58.874996" lon="05.863220"><ele>22</ele><time>2012-03-31T13:32:23Z</time><cmt>6.4 kmh</cmt></trkpt>
<trkpt lat="58.874987" lon="05.863245"><ele>22</ele><time>2012-03-31T13:32:24Z</time><cmt>6.4 kmh</cmt></trkpt>
<trkpt lat="58.874977" lon="05.863270"><ele>22</ele><time>2012-03-31T13:32:25Z</time><cmt>6.4 kmh</cmt></trkpt>
<trkpt lat="58.874968" lon="05.863295"><ele>22</ele><time>2012-03-31T13:32:26Z</time><cmt>6.3 kmh</cmt></trkpt>
<trkpt lat="58.874959" lon="05.863320"><ele>22</ele><time>2012-03-31T13:32:27Z</time><cmt>6.0 kmh</cmt></trkpt>
<trkpt lat="58.874951" lon="05.863344"><ele>22</ele><time>2012-03-31T13:32:28Z</time><cmt>5.8 kmh</cmt></trkpt>
<trkpt lat="58.874943" lon="05.863369"><ele>22</ele><time>2012-03-31T13:32:29Z</time><cmt>6.0 kmh</cmt></trkpt>
<trkpt lat="58.874935" lon="05.863393"><ele>22</ele><time>2012-03-31T13:32:30Z</time><cmt>5.6 kmh</cmt></trkpt>
<trkpt lat="58.874928" lon="05.863416"><ele>22</ele><time>2012-03-31T13:32:31Z</time><cmt>5.1 kmh</cmt></trkpt>
<trkpt lat="58.874922" lon="05.863436"><ele>22</ele><time>2012-03-31T13:32:32Z</time><cmt>5.1 kmh</cmt></trkpt>
<trkpt lat="58.874916" lon="05.863456"><ele>22</ele><time>2012-03-31T13:32:33Z</time><cmt>5.0 kmh</cmt></trkpt>
<trkpt lat="58.874910" lon="05.863474"><ele>22</ele><time>2012-03-31T13:32:34Z</time><cmt>4.9 kmh</cmt></trkpt>
<trkpt lat="58.874904" lon="05.863492"><ele>22</ele><time>2012-03-31T13:32:35Z</time><cmt>4.8 kmh</cmt></trkpt>
<trkpt lat="58.874897" lon="05.863510"><ele>22</ele><time>2012-03-31T13:32:36Z</time><cmt>4.0 kmh</cmt></trkpt>
<trkpt lat="58.874890" lon="05.863528"><ele>22</ele><time>2012-03-31T13:32:37Z</time><cmt>4.1 kmh</cmt></trkpt>
<trkpt lat="58.874882" lon="05.863547"><ele>22</ele><time>2012-03-31T13:32:38Z</time><cmt>5.1 kmh</cmt></trkpt>
<trkpt lat="58.874874" lon="05.863565"><ele>22</ele><time>2012-03-31T13:32:39Z</time><cmt>5.1 kmh</cmt></trkpt>
<trkpt lat="58.874866" lon="05.863584"><ele>22</ele><time>2012-03-31T13:32:40Z</time><cmt>5.0 kmh</cmt></trkpt>
<trkpt lat="58.874857" lon="05.863603"><ele>22</ele><time>2012-03-31T13:32:41Z</time><cmt>5.5 kmh</cmt></trkpt>
<trkpt lat="58.874848" lon="05.863624"><ele>22</ele><time>2012-03-31T13:32:42Z</time><cmt>5.7 kmh</cmt></trkpt>
<trkpt lat="58.874839" lon="05.863645"><ele>22</ele><time>2012-03-31T13:32:43Z</time><cmt>5.7 kmh</cmt></trkpt>
<trkpt lat="58.874829" lon="05.863666"><ele>22</ele><time>2012-03-31T13:32:44Z</time><cmt>5.8 kmh</cmt></trkpt>
<trkpt lat="58.874819" lon="05.863687"><ele>21</ele><time>2012-03-31T13:32:45Z</time><cmt>5.9 kmh</cmt></trkpt>
<trkpt lat="58.874807" lon="05.863706"><ele>21</ele><time>2012-03-31T13:32:46Z</time><cmt>6.5 kmh</cmt></trkpt>
<trkpt lat="58.874794" lon="05.863727"><ele>21</ele><time>2012-03-31T13:32:47Z</time><cmt>6.6 kmh</cmt></trkpt>
<trkpt lat="58.874781" lon="05.863748"><ele>21</ele><time>2012-03-31T13:32:48Z</time><cmt>6.7 kmh</cmt></trkpt>
<trkpt lat="58.874769" lon="05.863768"><ele>21</ele><time>2012-03-31T13:32:49Z</time><cmt>6.2 kmh</cmt></trkpt>
<trkpt lat="58.874746" lon="05.863805"><ele>21</ele><time>2012-03-31T13:32:51Z</time><cmt>7.0 kmh</cmt></trkpt>
<trkpt lat="58.874733" lon="05.863827"><ele>21</ele><time>2012-03-31T13:32:52Z</time><cmt>6.7 kmh</cmt></trkpt>
<trkpt lat="58.874720" lon="05.863850"><ele>21</ele><time>2012-03-31T13:32:53Z</time><cmt>6.7 kmh</cmt></trkpt>
<trkpt lat="58.874704" lon="05.863882"><ele>21</ele><time>2012-03-31T13:32:54Z</time><cmt>6.6 kmh</cmt></trkpt>
<trkpt lat="58.874694" lon="05.863904"><ele>21</ele><time>2012-03-31T13:32:55Z</time><cmt>6.8 kmh</cmt></trkpt>
<trkpt lat="58.874683" lon="05.863927"><ele>21</ele><time>2012-03-31T13:32:56Z</time><cmt>6.5 kmh</cmt></trkpt>
<trkpt lat="58.874672" lon="05.863951"><ele>21</ele><time>2012-03-31T13:32:57Z</time><cmt>6.7 kmh</cmt></trkpt>
<trkpt lat="58.874661" lon="05.863975"><ele>21</ele><time>2012-03-31T13:32:58Z</time><cmt>6.6 kmh</cmt></trkpt>
<trkpt lat="58.874650" lon="05.864000"><ele>21</ele><time>2012-03-31T13:32:59Z</time><cmt>6.6 kmh</cmt></trkpt>
<trkpt lat="58.874640" lon="05.864025"><ele>21</ele><time>2012-03-31T13:33:00Z</time><cmt>6.7 kmh</cmt></trkpt>
<trkpt lat="58.874629" lon="05.864051"><ele>22</ele><time>2012-03-31T13:33:01Z</time><cmt>6.5 kmh</cmt></trkpt>
<trkpt lat="58.874619" lon="05.864074"><ele>22</ele><time>2012-03-31T13:33:02Z</time><cmt>6.1 kmh</cmt></trkpt>
<trkpt lat="58.874609" lon="05.864098"><ele>22</ele><time>2012-03-31T13:33:03Z</time><cmt>6.2 kmh</cmt></trkpt>
<trkpt lat="58.874600" lon="05.864121"><ele>22</ele><time>2012-03-31T13:33:04Z</time><cmt>5.8 kmh</cmt></trkpt>
<trkpt lat="58.874591" lon="05.864142"><ele>22</ele><time>2012-03-31T13:33:05Z</time><cmt>5.3 kmh</cmt></trkpt>
<trkpt lat="58.874583" lon="05.864162"><ele>22</ele><time>2012-03-31T13:33:06Z</time><cmt>5.3 kmh</cmt></trkpt>
<trkpt lat="58.874575" lon="05.864179"><ele>22</ele><time>2012-03-31T13:33:07Z</time><cmt>4.4 kmh</cmt></trkpt>
<trkpt lat="58.874567" lon="05.864194"><ele>22</ele><time>2012-03-31T13:33:08Z</time><cmt>4.0 kmh</cmt></trkpt>
<trkpt lat="58.874558" lon="05.864208"><ele>22</ele><time>2012-03-31T13:33:09Z</time><cmt>4.8 kmh</cmt></trkpt>
<trkpt lat="58.874551" lon="05.864221"><ele>22</ele><time>2012-03-31T13:33:10Z</time><cmt>4.6 kmh</cmt></trkpt>
<trkpt lat="58.874543" lon="05.864233"><ele>22</ele><time>2012-03-31T13:33:11Z</time><cmt>4.3 kmh</cmt></trkpt>
<trkpt lat="58.874535" lon="05.864244"><ele>22</ele><time>2012-03-31T13:33:12Z</time><cmt>4.2 kmh</cmt></trkpt>
<trkpt lat="58.874527" lon="05.864254"><ele>22</ele><time>2012-03-31T13:33:13Z</time><cmt>4.2 kmh</cmt></trkpt>
<trkpt lat="58.874520" lon="05.864264"><ele>22</ele><time>2012-03-31T13:33:14Z</time><cmt>3.2 kmh</cmt></trkpt>
<trkpt lat="58.874512" lon="05.864272"><ele>22</ele><time>2012-03-31T13:33:15Z</time><cmt>3.1 kmh</cmt></trkpt>
<trkpt lat="58.874505" lon="05.864281"><ele>22</ele><time>2012-03-31T13:33:16Z</time><cmt>3.7 kmh</cmt></trkpt>
<trkpt lat="58.874498" lon="05.864289"><ele>22</ele><time>2012-03-31T13:33:17Z</time><cmt>3.5 kmh</cmt></trkpt>
<trkpt lat="58.874492" lon="05.864297"><ele>22</ele><time>2012-03-31T13:33:18Z</time><cmt>3.3 kmh</cmt></trkpt>
<trkpt lat="58.874486" lon="05.864305"><ele>22</ele><time>2012-03-31T13:33:19Z</time><cmt>3.3 kmh</cmt></trkpt>
<trkpt lat="58.874479" lon="05.864315"><ele>22</ele><time>2012-03-31T13:33:20Z</time><cmt>2.8 kmh</cmt></trkpt>
<trkpt lat="58.874472" lon="05.864325"><ele>22</ele><time>2012-03-31T13:33:21Z</time><cmt>2.9 kmh</cmt></trkpt>
<trkpt lat="58.874464" lon="05.864336"><ele>22</ele><time>2012-03-31T13:33:22Z</time><cmt>3.9 kmh</cmt></trkpt>
<trkpt lat="58.874457" lon="05.864346"><ele>22</ele><time>2012-03-31T13:33:23Z</time><cmt>4.0 kmh</cmt></trkpt>
<trkpt lat="58.874450" lon="05.864357"><ele>22</ele><time>2012-03-31T13:33:24Z</time><cmt>4.0 kmh</cmt></trkpt>
<trkpt lat="58.874442" lon="05.864371"><ele>22</ele><time>2012-03-31T13:33:25Z</time><cmt>4.3 kmh</cmt></trkpt>
<trkpt lat="58.874433" lon="05.864385"><ele>22</ele><time>2012-03-31T13:33:26Z</time><cmt>3.7 kmh</cmt></trkpt>
<trkpt lat="58.874426" lon="05.864399"><ele>21</ele><time>2012-03-31T13:33:27Z</time><cmt>3.7 kmh</cmt></trkpt>
<trkpt lat="58.874418" lon="05.864414"><ele>21</ele><time>2012-03-31T13:33:28Z</time><cmt>4.6 kmh</cmt></trkpt>
<trkpt lat="58.874411" lon="05.864428"><ele>21</ele><time>2012-03-31T13:33:29Z</time><cmt>4.6 kmh</cmt></trkpt>
<trkpt lat="58.874404" lon="05.864443"><ele>21</ele><time>2012-03-31T13:33:30Z</time><cmt>4.5 kmh</cmt></trkpt>
<trkpt lat="58.874398" lon="05.864457"><ele>21</ele><time>2012-03-31T13:33:31Z</time><cmt>4.3 kmh</cmt></trkpt>
<trkpt lat="58.874392" lon="05.864471"><ele>21</ele><time>2012-03-31T13:33:32Z</time><cmt>3.3 kmh</cmt></trkpt>
<trkpt lat="58.874387" lon="05.864485"><ele>21</ele><time>2012-03-31T13:33:33Z</time><cmt>3.1 kmh</cmt></trkpt>
<trkpt lat="58.874382" lon="05.864497"><ele>21</ele><time>2012-03-31T13:33:34Z</time><cmt>3.7 kmh</cmt></trkpt>
<trkpt lat="58.874378" lon="05.864510"><ele>21</ele><time>2012-03-31T13:33:35Z</time><cmt>3.5 kmh</cmt></trkpt>
<trkpt lat="58.874373" lon="05.864522"><ele>21</ele><time>2012-03-31T13:33:36Z</time><cmt>3.3 kmh</cmt></trkpt>
<trkpt lat="58.874369" lon="05.864533"><ele>21</ele><time>2012-03-31T13:33:37Z</time><cmt>3.2 kmh</cmt></trkpt>
<trkpt lat="58.874365" lon="05.864544"><ele>21</ele><time>2012-03-31T13:33:38Z</time><cmt>2.4 kmh</cmt></trkpt>
<trkpt lat="58.874362" lon="05.864555"><ele>21</ele><time>2012-03-31T13:33:39Z</time><cmt>2.4 kmh</cmt></trkpt>
<trkpt lat="58.874358" lon="05.864565"><ele>21</ele><time>2012-03-31T13:33:40Z</time><cmt>2.8 kmh</cmt></trkpt>
<trkpt lat="58.874354" lon="05.864575"><ele>21</ele><time>2012-03-31T13:33:41Z</time><cmt>2.7 kmh</cmt></trkpt>
<trkpt lat="58.874351" lon="05.864584"><ele>21</ele><time>2012-03-31T13:33:42Z</time><cmt>2.6 kmh</cmt></trkpt>
<trkpt lat="58.874348" lon="05.864593"><ele>21</ele><time>2012-03-31T13:33:43Z</time><cmt>2.5 kmh</cmt></trkpt>
<trkpt lat="58.874344" lon="05.864602"><ele>21</ele><time>2012-03-31T13:33:44Z</time><cmt>2.0 kmh</cmt></trkpt>
<trkpt lat="58.874341" lon="05.864613"><ele>21</ele><time>2012-03-31T13:33:45Z</time><cmt>2.1 kmh</cmt></trkpt>
<trkpt lat="58.874338" lon="05.864624"><ele>21</ele><time>2012-03-31T13:33:46Z</time><cmt>2.8 kmh</cmt></trkpt>
<trkpt lat="58.874335" lon="05.864636"><ele>21</ele><time>2012-03-31T13:33:47Z</time><cmt>2.8 kmh</cmt></trkpt>
<trkpt lat="58.874332" lon="05.864647"><ele>21</ele><time>2012-03-31T13:33:48Z</time><cmt>2.8 kmh</cmt></trkpt>
<trkpt lat="58.874330" lon="05.864659"><ele>21</ele><time>2012-03-31T13:33:49Z</time><cmt>2.9 kmh</cmt></trkpt>
<trkpt lat="58.874327" lon="05.864671"><ele>21</ele><time>2012-03-31T13:33:50Z</time><cmt>2.9 kmh</cmt></trkpt>
<trkpt lat="58.874324" lon="05.864684"><ele>21</ele><time>2012-03-31T13:33:51Z</time><cmt>2.4 kmh</cmt></trkpt>
<trkpt lat="58.874320" lon="05.864698"><ele>21</ele><time>2012-03-31T13:33:52Z</time><cmt>2.7 kmh</cmt></trkpt>
<trkpt lat="58.874317" lon="05.864714"><ele>21</ele><time>2012-03-31T13:33:53Z</time><cmt>3.7 kmh</cmt></trkpt>
<trkpt lat="58.874313" lon="05.864730"><ele>21</ele><time>2012-03-31T13:33:54Z</time><cmt>3.8 kmh</cmt></trkpt>
<trkpt lat="58.874310" lon="05.864746"><ele>21</ele><time>2012-03-31T13:33:55Z</time><cmt>3.9 kmh</cmt></trkpt>
<trkpt lat="58.874307" lon="05.864763"><ele>21</ele><time>2012-03-31T13:33:56Z</time><cmt>4.0 kmh</cmt></trkpt>
<trkpt lat="58.874303" lon="05.864780"><ele>21</ele><time>2012-03-31T13:33:57Z</time><cmt>3.3 kmh</cmt></trkpt>
<trkpt lat="58.874300" lon="05.864798"><ele>21</ele><time>2012-03-31T13:33:58Z</time><cmt>3.3 kmh</cmt></trkpt>
<trkpt lat="58.874297" lon="05.864817"><ele>21</ele><time>2012-03-31T13:33:59Z</time><cmt>4.3 kmh</cmt></trkpt>
<trkpt lat="58.874294" lon="05.864836"><ele>21</ele><time>2012-03-31T13:34:00Z</time><cmt>4.5 kmh</cmt></trkpt>
<trkpt lat="58.874290" lon="05.864856"><ele>21</ele><time>2012-03-31T13:34:01Z</time><cmt>4.7 kmh</cmt></trkpt>
<trkpt lat="58.874286" lon="05.864877"><ele>21</ele><time>2012-03-31T13:34:02Z</time><cmt>4.9 kmh</cmt></trkpt>
<trkpt lat="58.874281" lon="05.864899"><ele>21</ele><time>2012-03-31T13:34:03Z</time><cmt>4.1 kmh</cmt></trkpt>
<trkpt lat="58.874277" lon="05.864921"><ele>21</ele><time>2012-03-31T13:34:04Z</time><cmt>5.3 kmh</cmt></trkpt>
<trkpt lat="58.874271" lon="05.864944"><ele>21</ele><time>2012-03-31T13:34:05Z</time><cmt>5.3 kmh</cmt></trkpt>
<trkpt lat="58.874266" lon="05.864968"><ele>21</ele><time>2012-03-31T13:34:06Z</time><cmt>5.7 kmh</cmt></trkpt>
<trkpt lat="58.874260" lon="05.864992"><ele>21</ele><time>2012-03-31T13:34:07Z</time><cmt>5.7 kmh</cmt></trkpt>
<trkpt lat="58.874254" lon="05.865017"><ele>21</ele><time>2012-03-31T13:34:08Z</time><cmt>5.7 kmh</cmt></trkpt>
<trkpt lat="58.874247" lon="05.865042"><ele>21</ele><time>2012-03-31T13:34:09Z</time><cmt>5.7 kmh</cmt></trkpt>
<trkpt lat="58.874240" lon="05.865065"><ele>21</ele><time>2012-03-31T13:34:10Z</time><cmt>5.2 kmh</cmt></trkpt>
<trkpt lat="58.874233" lon="05.865087"><ele>21</ele><time>2012-03-31T13:34:11Z</time><cmt>5.0 kmh</cmt></trkpt>
<trkpt lat="58.874227" lon="05.865107"><ele>21</ele><time>2012-03-31T13:34:12Z</time><cmt>5.0 kmh</cmt></trkpt>
<trkpt lat="58.874221" lon="05.865128"><ele>21</ele><time>2012-03-31T13:34:13Z</time><cmt>5.0 kmh</cmt></trkpt>
<trkpt lat="58.874214" lon="05.865148"><ele>21</ele><time>2012-03-31T13:34:14Z</time><cmt>5.0 kmh</cmt></trkpt>
<trkpt lat="58.874208" lon="05.865167"><ele>21</ele><time>2012-03-31T13:34:15Z</time><cmt>4.1 kmh</cmt></trkpt>
<trkpt lat="58.874201" lon="05.865184"><ele>21</ele><time>2012-03-31T13:34:16Z</time><cmt>3.9 kmh</cmt></trkpt>
<trkpt lat="58.874194" lon="05.865202"><ele>21</ele><time>2012-03-31T13:34:17Z</time><cmt>4.9 kmh</cmt></trkpt>
<trkpt lat="58.874187" lon="05.865220"><ele>21</ele><time>2012-03-31T13:34:18Z</time><cmt>5.0 kmh</cmt></trkpt>
<trkpt lat="58.874180" lon="05.865239"><ele>21</ele><time>2012-03-31T13:34:19Z</time><cmt>5.0 kmh</cmt></trkpt>
<trkpt lat="58.874172" lon="05.865257"><ele>21</ele><time>2012-03-31T13:34:20Z</time><cmt>5.0 kmh</cmt></trkpt>
<trkpt lat="58.874163" lon="05.865275"><ele>21</ele><time>2012-03-31T13:34:21Z</time><cmt>5.0 kmh</cmt></trkpt>
<trkpt lat="58.874153" lon="05.865291"><ele>21</ele><time>2012-03-31T13:34:22Z</time><cmt>5.4 kmh</cmt></trkpt>
<trkpt lat="58.874142" lon="05.865308"><ele>21</ele><time>2012-03-31T13:34:23Z</time><cmt>5.5 kmh</cmt></trkpt>
<trkpt lat="58.874131" lon="05.865325"><ele>21</ele><time>2012-03-31T13:34:24Z</time><cmt>6.0 kmh</cmt></trkpt>
<trkpt lat="58.874120" lon="05.865343"><ele>21</ele><time>2012-03-31T13:34:25Z</time><cmt>5.8 kmh</cmt></trkpt>
<trkpt lat="58.874109" lon="05.865362"><ele>21</ele><time>2012-03-31T13:34:26Z</time><cmt>5.9 kmh</cmt></trkpt>
<trkpt lat="58.874098" lon="05.865380"><ele>20</ele><time>2012-03-31T13:34:27Z</time><cmt>5.8 kmh</cmt></trkpt>
<trkpt lat="58.874088" lon="05.865399"><ele>20</ele><time>2012-03-31T13:34:28Z</time><cmt>6.1 kmh</cmt></trkpt>
<trkpt lat="58.874076" lon="05.865420"><ele>20</ele><time>2012-03-31T13:34:29Z</time><cmt>6.0 kmh</cmt></trkpt>
<trkpt lat="58.874065" lon="05.865441"><ele>20</ele><time>2012-03-31T13:34:30Z</time><cmt>6.2 kmh</cmt></trkpt>
<trkpt lat="58.874054" lon="05.865464"><ele>20</ele><time>2012-03-31T13:34:31Z</time><cmt>6.3 kmh</cmt></trkpt>
<trkpt lat="58.874044" lon="05.865487"><ele>20</ele><time>2012-03-31T13:34:32Z</time><cmt>6.3 kmh</cmt></trkpt>
<trkpt lat="58.874035" lon="05.865512"><ele>20</ele><time>2012-03-31T13:34:33Z</time><cmt>6.2 kmh</cmt></trkpt>
<trkpt lat="58.874026" lon="05.865537"><ele>20</ele><time>2012-03-31T13:34:34Z</time><cmt>6.4 kmh</cmt></trkpt>
<trkpt lat="58.874018" lon="05.865563"><ele>20</ele><time>2012-03-31T13:34:35Z</time><cmt>6.1 kmh</cmt></trkpt>
<trkpt lat="58.874010" lon="05.865590"><ele>20</ele><time>2012-03-31T13:34:36Z</time><cmt>6.6 kmh</cmt></trkpt>
<trkpt lat="58.874002" lon="05.865618"><ele>20</ele><time>2012-03-31T13:34:37Z</time><cmt>6.4 kmh</cmt></trkpt>
<trkpt lat="58.873994" lon="05.865646"><ele>20</ele><time>2012-03-31T13:34:38Z</time><cmt>6.7 kmh</cmt></trkpt>
<trkpt lat="58.873987" lon="05.865674"><ele>20</ele><time>2012-03-31T13:34:39Z</time><cmt>6.3 kmh</cmt></trkpt>
<trkpt lat="58.873980" lon="05.865702"><ele>20</ele><time>2012-03-31T13:34:40Z</time><cmt>6.0 kmh</cmt></trkpt>
<trkpt lat="58.873974" lon="05.865728"><ele>20</ele><time>2012-03-31T13:34:41Z</time><cmt>5.6 kmh</cmt></trkpt>
<trkpt lat="58.873968" lon="05.865752"><ele>20</ele><time>2012-03-31T13:34:42Z</time><cmt>5.3 kmh</cmt></trkpt>
<trkpt lat="58.873962" lon="05.865776"><ele>20</ele><time>2012-03-31T13:34:43Z</time><cmt>5.1 kmh</cmt></trkpt>
<trkpt lat="58.873956" lon="05.865798"><ele>20</ele><time>2012-03-31T13:34:44Z</time><cmt>5.1 kmh</cmt></trkpt>
<trkpt lat="58.873950" lon="05.865820"><ele>20</ele><time>2012-03-31T13:34:45Z</time><cmt>5.1 kmh</cmt></trkpt>
<trkpt lat="58.873944" lon="05.865841"><ele>20</ele><time>2012-03-31T13:34:46Z</time><cmt>5.2 kmh</cmt></trkpt>
<trkpt lat="58.873937" lon="05.865863"><ele>20</ele><time>2012-03-31T13:34:47Z</time><cmt>5.5 kmh</cmt></trkpt>
<trkpt lat="58.873930" lon="05.865886"><ele>20</ele><time>2012-03-31T13:34:48Z</time><cmt>5.7 kmh</cmt></trkpt>
<trkpt lat="58.873922" lon="05.865910"><ele>20</ele><time>2012-03-31T13:34:49Z</time><cmt>6.0 kmh</cmt></trkpt>
<trkpt lat="58.873914" lon="05.865935"><ele>20</ele><time>2012-03-31T13:34:50Z</time><cmt>6.4 kmh</cmt></trkpt>
<trkpt lat="58.873905" lon="05.865962"><ele>20</ele><time>2012-03-31T13:34:51Z</time><cmt>6.5 kmh</cmt></trkpt>
<trkpt lat="58.873896" lon="05.865988"><ele>20</ele><time>2012-03-31T13:34:52Z</time><cmt>6.6 kmh</cmt></trkpt>
<trkpt lat="58.873887" lon="05.866015"><ele>20</ele><time>2012-03-31T13:34:53Z</time><cmt>6.6 kmh</cmt></trkpt>
<trkpt lat="58.873878" lon="05.866043"><ele>20</ele><time>2012-03-31T13:34:54Z</time><cmt>7.1 kmh</cmt></trkpt>
<trkpt lat="58.873868" lon="05.866071"><ele>20</ele><time>2012-03-31T13:34:55Z</time><cmt>6.9 kmh</cmt></trkpt>
<trkpt lat="58.873859" lon="05.866101"><ele>20</ele><time>2012-03-31T13:34:56Z</time><cmt>7.2 kmh</cmt></trkpt>
<trkpt lat="58.873850" lon="05.866131"><ele>20</ele><time>2012-03-31T13:34:57Z</time><cmt>7.0 kmh</cmt></trkpt>
<trkpt lat="58.873842" lon="05.866161"><ele>20</ele><time>2012-03-31T13:34:58Z</time><cmt>7.1 kmh</cmt></trkpt>
<trkpt lat="58.873834" lon="05.866193"><ele>20</ele><time>2012-03-31T13:34:59Z</time><cmt>7.2 kmh</cmt></trkpt>
<trkpt lat="58.873827" lon="05.866224"><ele>20</ele><time>2012-03-31T13:35:00Z</time><cmt>7.0 kmh</cmt></trkpt>
<trkpt lat="58.873821" lon="05.866256"><ele>20</ele><time>2012-03-31T13:35:01Z</time><cmt>7.0 kmh</cmt></trkpt>
<trkpt lat="58.873815" lon="05.866288"><ele>20</ele><time>2012-03-31T13:35:02Z</time><cmt>6.7 kmh</cmt></trkpt>
<trkpt lat="58.873810" lon="05.866320"><ele>20</ele><time>2012-03-31T13:35:03Z</time><cmt>7.0 kmh</cmt></trkpt>
<trkpt lat="58.873805" lon="05.866352"><ele>20</ele><time>2012-03-31T13:35:04Z</time><cmt>6.6 kmh</cmt></trkpt>
<trkpt lat="58.873802" lon="05.866382"><ele>20</ele><time>2012-03-31T13:35:05Z</time><cmt>6.3 kmh</cmt></trkpt>
<trkpt lat="58.873798" lon="05.866411"><ele>20</ele><time>2012-03-31T13:35:06Z</time><cmt>5.5 kmh</cmt></trkpt>
<trkpt lat="58.873795" lon="05.866436"><ele>20</ele><time>2012-03-31T13:35:07Z</time><cmt>5.5 kmh</cmt></trkpt>
<trkpt lat="58.873793" lon="05.866459"><ele>20</ele><time>2012-03-31T13:35:08Z</time><cmt>5.0 kmh</cmt></trkpt>
<trkpt lat="58.873790" lon="05.866481"><ele>20</ele><time>2012-03-31T13:35:09Z</time><cmt>5.0 kmh</cmt></trkpt>
<trkpt lat="58.873786" lon="05.866504"><ele>20</ele><time>2012-03-31T13:35:10Z</time><cmt>5.1 kmh</cmt></trkpt>
<trkpt lat="58.873783" lon="05.866527"><ele>20</ele><time>2012-03-31T13:35:11Z</time><cmt>5.1 kmh</cmt></trkpt>
<trkpt lat="58.873779" lon="05.866549"><ele>20</ele><time>2012-03-31T13:35:12Z</time><cmt>4.2 kmh</cmt></trkpt>
<trkpt lat="58.873775" lon="05.866572"><ele>20</ele><time>2012-03-31T13:35:13Z</time><cmt>5.2 kmh</cmt></trkpt>
<trkpt lat="58.873771" lon="05.866596"><ele>20</ele><time>2012-03-31T13:35:14Z</time><cmt>5.2 kmh</cmt></trkpt>
<trkpt lat="58.873767" lon="05.866618"><ele>20</ele><time>2012-03-31T13:35:15Z</time><cmt>5.0 kmh</cmt></trkpt>
<trkpt lat="58.873763" lon="05.866639"><ele>20</ele><time>2012-03-31T13:35:16Z</time><cmt>5.0 kmh</cmt></trkpt>
<trkpt lat="58.873760" lon="05.866660"><ele>20</ele><time>2012-03-31T13:35:17Z</time><cmt>4.0 kmh</cmt></trkpt>
<trkpt lat="58.873756" lon="05.866680"><ele>20</ele><time>2012-03-31T13:35:18Z</time><cmt>3.8 kmh</cmt></trkpt>
<trkpt lat="58.873753" lon="05.866699"><ele>20</ele><time>2012-03-31T13:35:19Z</time><cmt>4.6 kmh</cmt></trkpt>
<trkpt lat="58.873750" lon="05.866717"><ele>20</ele><time>2012-03-31T13:35:20Z</time><cmt>4.3 kmh</cmt></trkpt>
<trkpt lat="58.873747" lon="05.866734"><ele>20</ele><time>2012-03-31T13:35:21Z</time><cmt>4.1 kmh</cmt></trkpt>
<trkpt lat="58.873745" lon="05.866751"><ele>20</ele><time>2012-03-31T13:35:22Z</time><cmt>3.9 kmh</cmt></trkpt>
<trkpt lat="58.873743" lon="05.866766"><ele>20</ele><time>2012-03-31T13:35:23Z</time><cmt>3.7 kmh</cmt></trkpt>
<trkpt lat="58.873740" lon="05.866781"><ele>20</ele><time>2012-03-31T13:35:24Z</time><cmt>2.8 kmh</cmt></trkpt>
<trkpt lat="58.873738" lon="05.866795"><ele>20</ele><time>2012-03-31T13:35:25Z</time><cmt>2.7 kmh</cmt></trkpt>
<trkpt lat="58.873735" lon="05.866808"><ele>20</ele><time>2012-03-31T13:35:26Z</time><cmt>3.2 kmh</cmt></trkpt>
<trkpt lat="58.873733" lon="05.866820"><ele>20</ele><time>2012-03-31T13:35:27Z</time><cmt>3.0 kmh</cmt></trkpt>
<trkpt lat="58.873730" lon="05.866832"><ele>20</ele><time>2012-03-31T13:35:28Z</time><cmt>2.9 kmh</cmt></trkpt>
<trkpt lat="58.873728" lon="05.866843"><ele>20</ele><time>2012-03-31T13:35:29Z</time><cmt>2.7 kmh</cmt></trkpt>
<trkpt lat="58.873725" lon="05.866852"><ele>20</ele><time>2012-03-31T13:35:30Z</time><cmt>2.0 kmh</cmt></trkpt>
<trkpt lat="58.873723" lon="05.866863"><ele>20</ele><time>2012-03-31T13:35:31Z</time><cmt>2.0 kmh</cmt></trkpt>
<trkpt lat="58.873721" lon="05.866874"><ele>20</ele><time>2012-03-31T13:35:32Z</time><cmt>2.6 kmh</cmt></trkpt>
<trkpt lat="58.873718" lon="05.866887"><ele>20</ele><time>2012-03-31T13:35:33Z</time><cmt>2.9 kmh</cmt></trkpt>
<trkpt lat="58.873715" lon="05.866900"><ele>20</ele><time>2012-03-31T13:35:34Z</time><cmt>3.2 kmh</cmt></trkpt>
<trkpt lat="58.873711" lon="05.866914"><ele>20</ele><time>2012-03-31T13:35:35Z</time><cmt>3.3 kmh</cmt></trkpt>
<trkpt lat="58.873707" lon="05.866927"><ele>20</ele><time>2012-03-31T13:35:36Z</time><cmt>2.7 kmh</cmt></trkpt>
<trkpt lat="58.873704" lon="05.866941"><ele>20</ele><time>2012-03-31T13:35:37Z</time><cmt>2.8 kmh</cmt></trkpt>
<trkpt lat="58.873701" lon="05.866954"><ele>20</ele><time>2012-03-31T13:35:38Z</time><cmt>3.3 kmh</cmt></trkpt>
<trkpt lat="58.873698" lon="05.866966"><ele>20</ele><time>2012-03-31T13:35:39Z</time><cmt>3.0 kmh</cmt></trkpt>
<trkpt lat="58.873695" lon="05.866977"><ele>20</ele><time>2012-03-31T13:35:40Z</time><cmt>2.9 kmh</cmt></trkpt>
<trkpt lat="58.873693" lon="05.866988"><ele>20</ele><time>2012-03-31T13:35:41Z</time><cmt>2.7 kmh</cmt></trkpt>
<trkpt lat="58.873690" lon="05.866999"><ele>20</ele><time>2012-03-31T13:35:42Z</time><cmt>2.2 kmh</cmt></trkpt>
<trkpt lat="58.873688" lon="05.867010"><ele>20</ele><time>2012-03-31T13:35:43Z</time><cmt>2.1 kmh</cmt></trkpt>
<trkpt lat="58.873685" lon="05.867021"><ele>20</ele><time>2012-03-31T13:35:44Z</time><cmt>2.7 kmh</cmt></trkpt>
<trkpt lat="58.873682" lon="05.867031"><ele>20</ele><time>2012-03-31T13:35:45Z</time><cmt>2.6 kmh</cmt></trkpt>
<trkpt lat="58.873680" lon="05.867041"><ele>20</ele><time>2012-03-31T13:35:46Z</time><cmt>2.6 kmh</cmt></trkpt>
<trkpt lat="58.873677" lon="05.867051"><ele>20</ele><time>2012-03-31T13:35:47Z</time><cmt>2.5 kmh</cmt></trkpt>
<trkpt lat="58.873674" lon="05.867061"><ele>20</ele><time>2012-03-31T13:35:48Z</time><cmt>2.0 kmh</cmt></trkpt>
<trkpt lat="58.873671" lon="05.867071"><ele>20</ele><time>2012-03-31T13:35:49Z</time><cmt>2.1 kmh</cmt></trkpt>
<trkpt lat="58.873668" lon="05.867081"><ele>20</ele><time>2012-03-31T13:35:50Z</time><cmt>2.6 kmh</cmt></trkpt>
<trkpt lat="58.873666" lon="05.867091"><ele>20</ele><time>2012-03-31T13:35:51Z</time><cmt>2.4 kmh</cmt></trkpt>
<trkpt lat="58.873664" lon="05.867099"><ele>20</ele><time>2012-03-31T13:35:52Z</time><cmt>2.2 kmh</cmt></trkpt>
<trkpt lat="58.873662" lon="05.867108"><ele>20</ele><time>2012-03-31T13:35:53Z</time><cmt>2.1 kmh</cmt></trkpt>
<trkpt lat="58.873660" lon="05.867116"><ele>20</ele><time>2012-03-31T13:35:54Z</time><cmt>2.1 kmh</cmt></trkpt>
<trkpt lat="58.873658" lon="05.867125"><ele>20</ele><time>2012-03-31T13:35:55Z</time><cmt>1.7 kmh</cmt></trkpt>
<trkpt lat="58.873655" lon="05.867133"><ele>20</ele><time>2012-03-31T13:35:56Z</time><cmt>1.7 kmh</cmt></trkpt>
<trkpt lat="58.873652" lon="05.867143"><ele>20</ele><time>2012-03-31T13:35:57Z</time><cmt>2.4 kmh</cmt></trkpt>
<trkpt lat="58.873651" lon="05.867153"><ele>20</ele><time>2012-03-31T13:35:58Z</time><cmt>2.4 kmh</cmt></trkpt>
<trkpt lat="58.873649" lon="05.867163"><ele>20</ele><time>2012-03-31T13:35:59Z</time><cmt>2.3 kmh</cmt></trkpt>
<trkpt lat="58.873648" lon="05.867173"><ele>20</ele><time>2012-03-31T13:36:00Z</time><cmt>2.3 kmh</cmt></trkpt>
<trkpt lat="58.873646" lon="05.867183"><ele>20</ele><time>2012-03-31T13:36:01Z</time><cmt>1.9 kmh</cmt></trkpt>
<trkpt lat="58.873644" lon="05.867192"><ele>20</ele><time>2012-03-31T13:36:02Z</time><cmt>1.8 kmh</cmt></trkpt>
<trkpt lat="58.873642" lon="05.867202"><ele>20</ele><time>2012-03-31T13:36:03Z</time><cmt>2.2 kmh</cmt></trkpt>
<trkpt lat="58.873641" lon="05.867211"><ele>20</ele><time>2012-03-31T13:36:04Z</time><cmt>2.2 kmh</cmt></trkpt>
<trkpt lat="58.873639" lon="05.867221"><ele>20</ele><time>2012-03-31T13:36:05Z</time><cmt>2.2 kmh</cmt></trkpt>
<trkpt lat="58.873638" lon="05.867230"><ele>20</ele><time>2012-03-31T13:36:06Z</time><cmt>2.2 kmh</cmt></trkpt>
<trkpt lat="58.873636" lon="05.867240"><ele>20</ele><time>2012-03-31T13:36:07Z</time><cmt>1.8 kmh</cmt></trkpt>
<trkpt lat="58.873635" lon="05.867249"><ele>20</ele><time>2012-03-31T13:36:08Z</time><cmt>1.8 kmh</cmt></trkpt>
<trkpt lat="58.873633" lon="05.867258"><ele>20</ele><time>2012-03-31T13:36:09Z</time><cmt>2.2 kmh</cmt></trkpt>
<trkpt lat="58.873632" lon="05.867268"><ele>20</ele><time>2012-03-31T13:36:10Z</time><cmt>2.2 kmh</cmt></trkpt>
<trkpt lat="58.873630" lon="05.867277"><ele>20</ele><time>2012-03-31T13:36:11Z</time><cmt>2.2 kmh</cmt></trkpt>
<trkpt lat="58.873629" lon="05.867287"><ele>20</ele><time>2012-03-31T13:36:12Z</time><cmt>2.2 kmh</cmt></trkpt>
<trkpt lat="58.873627" lon="05.867296"><ele>20</ele><time>2012-03-31T13:36:13Z</time><cmt>1.7 kmh</cmt></trkpt>
<trkpt lat="58.873626" lon="05.867305"><ele>20</ele><time>2012-03-31T13:36:14Z</time><cmt>1.7 kmh</cmt></trkpt>
<trkpt lat="58.873625" lon="05.867314"><ele>20</ele><time>2012-03-31T13:36:15Z</time><cmt>2.1 kmh</cmt></trkpt>
<trkpt lat="58.873623" lon="05.867324"><ele>20</ele><time>2012-03-31T13:36:16Z</time><cmt>2.1 kmh</cmt></trkpt>
<trkpt lat="58.873622" lon="05.867333"><ele>20</ele><time>2012-03-31T13:36:17Z</time><cmt>2.2 kmh</cmt></trkpt>
<trkpt lat="58.873621" lon="05.867342"><ele>20</ele><time>2012-03-31T13:36:18Z</time><cmt>2.2 kmh</cmt></trkpt>
<trkpt lat="58.873619" lon="05.867351"><ele>20</ele><time>2012-03-31T13:36:19Z</time><cmt>1.7 kmh</cmt></trkpt>
<trkpt lat="58.873618" lon="05.867361"><ele>20</ele><time>2012-03-31T13:36:20Z</time><cmt>1.7 kmh</cmt></trkpt>
<trkpt lat="58.873617" lon="05.867370"><ele>20</ele><time>2012-03-31T13:36:21Z</time><cmt>2.2 kmh</cmt></trkpt>
<trkpt lat="58.873616" lon="05.867380"><ele>20</ele><time>2012-03-31T13:36:22Z</time><cmt>2.2 kmh</cmt></trkpt>
<trkpt lat="58.873615" lon="05.867389"><ele>20</ele><time>2012-03-31T13:36:23Z</time><cmt>2.2 kmh</cmt></trkpt>
<trkpt lat="58.873613" lon="05.867398"><ele>20</ele><time>2012-03-31T13:36:24Z</time><cmt>2.2 kmh</cmt></trkpt>
<trkpt lat="58.873612" lon="05.867408"><ele>20</ele><time>2012-03-31T13:36:25Z</time><cmt>2.2 kmh</cmt></trkpt>
<trkpt lat="58.873611" lon="05.867417"><ele>20</ele><time>2012-03-31T13:36:26Z</time><cmt>1.8 kmh</cmt></trkpt>
<trkpt lat="58.873610" lon="05.867427"><ele>20</ele><time>2012-03-31T13:36:27Z</time><cmt>1.8 kmh</cmt></trkpt>
<trkpt lat="58.873609" lon="05.867437"><ele>20</ele><time>2012-03-31T13:36:28Z</time><cmt>2.2 kmh</cmt></trkpt>
<trkpt lat="58.873607" lon="05.867446"><ele>20</ele><time>2012-03-31T13:36:29Z</time><cmt>2.2 kmh</cmt></trkpt>
<trkpt lat="58.873606" lon="05.867455"><ele>20</ele><time>2012-03-31T13:36:30Z</time><cmt>2.2 kmh</cmt></trkpt>
<trkpt lat="58.873605" lon="05.867465"><ele>20</ele><time>2012-03-31T13:36:31Z</time><cmt>2.1 kmh</cmt></trkpt>
<trkpt lat="58.873604" lon="05.867474"><ele>20</ele><time>2012-03-31T13:36:32Z</time><cmt>1.7 kmh</cmt></trkpt>
<trkpt lat="58.873603" lon="05.867483"><ele>20</ele><time>2012-03-31T13:36:33Z</time><cmt>1.6 kmh</cmt></trkpt>
<trkpt lat="58.873602" lon="05.867492"><ele>20</ele><time>2012-03-31T13:36:34Z</time><cmt>2.1 kmh</cmt></trkpt>
<trkpt lat="58.873601" lon="05.867500"><ele>20</ele><time>2012-03-31T13:36:35Z</time><cmt>2.1 kmh</cmt></trkpt>
<trkpt lat="58.873599" lon="05.867509"><ele>20</ele><time>2012-03-31T13:36:36Z</time><cmt>2.0 kmh</cmt></trkpt>
<trkpt lat="58.873598" lon="05.867518"><ele>20</ele><time>2012-03-31T13:36:37Z</time><cmt>2.0 kmh</cmt></trkpt>
<trkpt lat="58.873597" lon="05.867526"><ele>20</ele><time>2012-03-31T13:36:38Z</time><cmt>1.6 kmh</cmt></trkpt>
<trkpt lat="58.873596" lon="05.867535"><ele>20</ele><time>2012-03-31T13:36:39Z</time><cmt>1.6 kmh</cmt></trkpt>
<trkpt lat="58.873595" lon="05.867543"><ele>20</ele><time>2012-03-31T13:36:40Z</time><cmt>1.9 kmh</cmt></trkpt>
<trkpt lat="58.873594" lon="05.867551"><ele>20</ele><time>2012-03-31T13:36:41Z</time><cmt>1.9 kmh</cmt></trkpt>
<trkpt lat="58.873593" lon="05.867560"><ele>20</ele><time>2012-03-31T13:36:42Z</time><cmt>1.9 kmh</cmt></trkpt>
<trkpt lat="58.873592" lon="05.867568"><ele>20</ele><time>2012-03-31T13:36:43Z</time><cmt>1.8 kmh</cmt></trkpt>
<trkpt lat="58.873591" lon="05.867576"><ele>20</ele><time>2012-03-31T13:36:44Z</time><cmt>1.4 kmh</cmt></trkpt>
<trkpt lat="58.873590" lon="05.867583"><ele>20</ele><time>2012-03-31T13:36:45Z</time><cmt>1.4 kmh</cmt></trkpt>
<trkpt lat="58.873588" lon="05.867591"><ele>20</ele><time>2012-03-31T13:36:46Z</time><cmt>1.8 kmh</cmt></trkpt>
<trkpt lat="58.873587" lon="05.867599"><ele>20</ele><time>2012-03-31T13:36:47Z</time><cmt>1.8 kmh</cmt></trkpt>
<trkpt lat="58.873586" lon="05.867606"><ele>20</ele><time>2012-03-31T13:36:48Z</time><cmt>1.8 kmh</cmt></trkpt>
<trkpt lat="58.873585" lon="05.867614"><ele>20</ele><time>2012-03-31T13:36:49Z</time><cmt>1.7 kmh</cmt></trkpt>
<trkpt lat="58.873584" lon="05.867621"><ele>20</ele><time>2012-03-31T13:36:50Z</time><cmt>1.3 kmh</cmt></trkpt>
<trkpt lat="58.873583" lon="05.867629"><ele>20</ele><time>2012-03-31T13:36:51Z</time><cmt>1.3 kmh</cmt></trkpt>
<trkpt lat="58.873582" lon="05.867636"><ele>20</ele><time>2012-03-31T13:36:52Z</time><cmt>1.6 kmh</cmt></trkpt>
<trkpt lat="58.873580" lon="05.867643"><ele>20</ele><time>2012-03-31T13:36:53Z</time><cmt>1.7 kmh</cmt></trkpt>
<trkpt lat="58.873580" lon="05.867651"><ele>20</ele><time>2012-03-31T13:36:54Z</time><cmt>1.7 kmh</cmt></trkpt>
<trkpt lat="58.873579" lon="05.867658"><ele>20</ele><time>2012-03-31T13:36:55Z</time><cmt>1.7 kmh</cmt></trkpt>
<trkpt lat="58.873578" lon="05.867665"><ele>20</ele><time>2012-03-31T13:36:56Z</time><cmt>1.3 kmh</cmt></trkpt>
<trkpt lat="58.873577" lon="05.867673"><ele>20</ele><time>2012-03-31T13:36:57Z</time><cmt>1.3 kmh</cmt></trkpt>
<trkpt lat="58.873576" lon="05.867681"><ele>20</ele><time>2012-03-31T13:36:58Z</time><cmt>1.7 kmh</cmt></trkpt>
<trkpt lat="58.873575" lon="05.867689"><ele>20</ele><time>2012-03-31T13:36:59Z</time><cmt>1.8 kmh</cmt></trkpt>
<trkpt lat="58.873574" lon="05.867697"><ele>20</ele><time>2012-03-31T13:37:00Z</time><cmt>1.9 kmh</cmt></trkpt>
<trkpt lat="58.873573" lon="05.867705"><ele>20</ele><time>2012-03-31T13:37:01Z</time><cmt>2.0 kmh</cmt></trkpt>
<trkpt lat="58.873572" lon="05.867714"><ele>20</ele><time>2012-03-31T13:37:02Z</time><cmt>2.0 kmh</cmt></trkpt>
<trkpt lat="58.873570" lon="05.867722"><ele>20</ele><time>2012-03-31T13:37:03Z</time><cmt>1.6 kmh</cmt></trkpt>
<trkpt lat="58.873569" lon="05.867731"><ele>20</ele><time>2012-03-31T13:37:04Z</time><cmt>1.6 kmh</cmt></trkpt>
<trkpt lat="58.873568" lon="05.867740"><ele>20</ele><time>2012-03-31T13:37:05Z</time><cmt>2.0 kmh</cmt></trkpt>
<trkpt lat="58.873567" lon="05.867749"><ele>20</ele><time>2012-03-31T13:37:06Z</time><cmt>2.0 kmh</cmt></trkpt>
<trkpt lat="58.873566" lon="05.867758"><ele>20</ele><time>2012-03-31T13:37:07Z</time><cmt>2.0 kmh</cmt></trkpt>
<trkpt lat="58.873564" lon="05.867767"><ele>20</ele><time>2012-03-31T13:37:08Z</time><cmt>2.0 kmh</cmt></trkpt>
<trkpt lat="58.873563" lon="05.867775"><ele>20</ele><time>2012-03-31T13:37:09Z</time><cmt>1.6 kmh</cmt></trkpt>
<trkpt lat="58.873562" lon="05.867784"><ele>20</ele><time>2012-03-31T13:37:10Z</time><cmt>1.6 kmh</cmt></trkpt>
<trkpt lat="58.873561" lon="05.867793"><ele>20</ele><time>2012-03-31T13:37:11Z</time><cmt>2.0 kmh</cmt></trkpt>
<trkpt lat="58.873560" lon="05.867801"><ele>20</ele><time>2012-03-31T13:37:12Z</time><cmt>1.9 kmh</cmt></trkpt>
<trkpt lat="58.873559" lon="05.867809"><ele>20</ele><time>2012-03-31T13:37:13Z</time><cmt>1.9 kmh</cmt></trkpt>
<trkpt lat="58.873558" lon="05.867818"><ele>20</ele><time>2012-03-31T13:37:14Z</time><cmt>2.0 kmh</cmt></trkpt>
<trkpt lat="58.873557" lon="05.867827"><ele>20</ele><time>2012-03-31T13:37:15Z</time><cmt>1.6 kmh</cmt></trkpt>
<trkpt lat="58.873556" lon="05.867836"><ele>20</ele><time>2012-03-31T13:37:16Z</time><cmt>1.6 kmh</cmt></trkpt>
<trkpt lat="58.873555" lon="05.867845"><ele>20</ele><time>2012-03-31T13:37:17Z</time><cmt>2.1 kmh</cmt></trkpt>
<trkpt lat="58.873554" lon="05.867855"><ele>20</ele><time>2012-03-31T13:37:18Z</time><cmt>2.1 kmh</cmt></trkpt>
<trkpt lat="58.873553" lon="05.867864"><ele>20</ele><time>2012-03-31T13:37:19Z</time><cmt>2.2 kmh</cmt></trkpt>
<trkpt lat="58.873552" lon="05.867873"><ele>20</ele><time>2012-03-31T13:37:20Z</time><cmt>2.1 kmh</cmt></trkpt>
<trkpt lat="58.873551" lon="05.867883"><ele>20</ele><time>2012-03-31T13:37:21Z</time><cmt>1.7 kmh</cmt></trkpt>
<trkpt lat="58.873550" lon="05.867892"><ele>20</ele><time>2012-03-31T13:37:22Z</time><cmt>1.7 kmh</cmt></trkpt>
<trkpt lat="58.873549" lon="05.867902"><ele>20</ele><time>2012-03-31T13:37:23Z</time><cmt>2.2 kmh</cmt></trkpt>
<trkpt lat="58.873548" lon="05.867911"><ele>20</ele><time>2012-03-31T13:37:24Z</time><cmt>2.2 kmh</cmt></trkpt>
<trkpt lat="58.873547" lon="05.867921"><ele>20</ele><time>2012-03-31T13:37:25Z</time><cmt>2.2 kmh</cmt></trkpt>
<trkpt lat="58.873546" lon="05.867930"><ele>20</ele><time>2012-03-31T13:37:26Z</time><cmt>2.2 kmh</cmt></trkpt>
<trkpt lat="58.873545" lon="05.867940"><ele>20</ele><time>2012-03-31T13:37:27Z</time><cmt>2.2 kmh</cmt></trkpt>
<trkpt lat="58.873544" lon="05.867949"><ele>20</ele><time>2012-03-31T13:37:28Z</time><cmt>1.8 kmh</cmt></trkpt>
<trkpt lat="58.873542" lon="05.867958"><ele>20</ele><time>2012-03-31T13:37:29Z</time><cmt>1.8 kmh</cmt></trkpt>
<trkpt lat="58.873541" lon="05.867968"><ele>20</ele><time>2012-03-31T13:37:30Z</time><cmt>2.1 kmh</cmt></trkpt>
<trkpt lat="58.873540" lon="05.867977"><ele>20</ele><time>2012-03-31T13:37:31Z</time><cmt>2.1 kmh</cmt></trkpt>
<trkpt lat="58.873538" lon="05.867986"><ele>20</ele><time>2012-03-31T13:37:32Z</time><cmt>2.2 kmh</cmt></trkpt>
<trkpt lat="58.873537" lon="05.867996"><ele>20</ele><time>2012-03-31T13:37:33Z</time><cmt>2.2 kmh</cmt></trkpt>
<trkpt lat="58.873536" lon="05.868005"><ele>20</ele><time>2012-03-31T13:37:34Z</time><cmt>1.7 kmh</cmt></trkpt>
<trkpt lat="58.873534" lon="05.868014"><ele>20</ele><time>2012-03-31T13:37:35Z</time><cmt>1.8 kmh</cmt></trkpt>
<trkpt lat="58.873533" lon="05.868024"><ele>20</ele><time>2012-03-31T13:37:36Z</time><cmt>2.2 kmh</cmt></trkpt>
<trkpt lat="58.873532" lon="05.868033"><ele>20</ele><time>2012-03-31T13:37:37Z</time><cmt>2.2 kmh</cmt></trkpt>
<trkpt lat="58.873530" lon="05.868042"><ele>20</ele><time>2012-03-31T13:37:38Z</time><cmt>2.2 kmh</cmt></trkpt>
<trkpt lat="58.873529" lon="05.868051"><ele>20</ele><time>2012-03-31T13:37:39Z</time><cmt>2.1 kmh</cmt></trkpt>
<trkpt lat="58.873528" lon="05.868060"><ele>20</ele><time>2012-03-31T13:37:40Z</time><cmt>1.7 kmh</cmt></trkpt>
<trkpt lat="58.873526" lon="05.868070"><ele>20</ele><time>2012-03-31T13:37:41Z</time><cmt>1.7 kmh</cmt></trkpt>
<trkpt lat="58.873525" lon="05.868078"><ele>20</ele><time>2012-03-31T13:37:42Z</time><cmt>2.1 kmh</cmt></trkpt>
<trkpt lat="58.873524" lon="05.868087"><ele>20</ele><time>2012-03-31T13:37:43Z</time><cmt>2.1 kmh</cmt></trkpt>
<trkpt lat="58.873522" lon="05.868096"><ele>20</ele><time>2012-03-31T13:37:44Z</time><cmt>2.1 kmh</cmt></trkpt>
<trkpt lat="58.873521" lon="05.868105"><ele>20</ele><time>2012-03-31T13:37:45Z</time><cmt>2.0 kmh</cmt></trkpt>
<trkpt lat="58.873520" lon="05.868113"><ele>20</ele><time>2012-03-31T13:37:46Z</time><cmt>1.5 kmh</cmt></trkpt>
<trkpt lat="58.873518" lon="05.868121"><ele>20</ele><time>2012-03-31T13:37:47Z</time><cmt>1.5 kmh</cmt></trkpt>
<trkpt lat="58.873517" lon="05.868130"><ele>20</ele><time>2012-03-31T13:37:48Z</time><cmt>1.9 kmh</cmt></trkpt>
<trkpt lat="58.873516" lon="05.868138"><ele>20</ele><time>2012-03-31T13:37:49Z</time><cmt>1.9 kmh</cmt></trkpt>
<trkpt lat="58.873514" lon="05.868146"><ele>20</ele><time>2012-03-31T13:37:50Z</time><cmt>1.9 kmh</cmt></trkpt>
<trkpt lat="58.873513" lon="05.868153"><ele>20</ele><time>2012-03-31T13:37:51Z</time><cmt>1.8 kmh</cmt></trkpt>
<trkpt lat="58.873512" lon="05.868161"><ele>20</ele><time>2012-03-31T13:37:52Z</time><cmt>1.5 kmh</cmt></trkpt>
<trkpt lat="58.873511" lon="05.868170"><ele>20</ele><time>2012-03-31T13:37:53Z</time><cmt>1.5 kmh</cmt></trkpt>
<trkpt lat="58.873510" lon="05.868178"><ele>20</ele><time>2012-03-31T13:37:54Z</time><cmt>1.9 kmh</cmt></trkpt>
<trkpt lat="58.873508" lon="05.868186"><ele>20</ele><time>2012-03-31T13:37:55Z</time><cmt>1.9 kmh</cmt></trkpt>
<trkpt lat="58.873507" lon="05.868195"><ele>20</ele><time>2012-03-31T13:37:56Z</time><cmt>2.0 kmh</cmt></trkpt>
<trkpt lat="58.873506" lon="05.868204"><ele>20</ele><time>2012-03-31T13:37:57Z</time><cmt>2.0 kmh</cmt></trkpt>
<trkpt lat="58.873505" lon="05.868213"><ele>20</ele><time>2012-03-31T13:37:58Z</time><cmt>2.0 kmh</cmt></trkpt>
<trkpt lat="58.873503" lon="05.868222"><ele>20</ele><time>2012-03-31T13:37:59Z</time><cmt>1.6 kmh</cmt></trkpt>
<trkpt lat="58.873502" lon="05.868231"><ele>20</ele><time>2012-03-31T13:38:00Z</time><cmt>1.7 kmh</cmt></trkpt>
<trkpt lat="58.873501" lon="05.868241"><ele>20</ele><time>2012-03-31T13:38:01Z</time><cmt>2.2 kmh</cmt></trkpt>
<trkpt lat="58.873499" lon="05.868251"><ele>20</ele><time>2012-03-31T13:38:02Z</time><cmt>2.3 kmh</cmt></trkpt>
<trkpt lat="58.873498" lon="05.868261"><ele>20</ele><time>2012-03-31T13:38:03Z</time><cmt>2.4 kmh</cmt></trkpt>
<trkpt lat="58.873497" lon="05.868272"><ele>20</ele><time>2012-03-31T13:38:04Z</time><cmt>2.5 kmh</cmt></trkpt>
<trkpt lat="58.873495" lon="05.868283"><ele>20</ele><time>2012-03-31T13:38:05Z</time><cmt>2.0 kmh</cmt></trkpt>
<trkpt lat="58.873494" lon="05.868294"><ele>20</ele><time>2012-03-31T13:38:06Z</time><cmt>2.0 kmh</cmt></trkpt>
<trkpt lat="58.873492" lon="05.868305"><ele>20</ele><time>2012-03-31T13:38:07Z</time><cmt>2.6 kmh</cmt></trkpt>
<trkpt lat="58.873490" lon="05.868317"><ele>20</ele><time>2012-03-31T13:38:08Z</time><cmt>2.6 kmh</cmt></trkpt>
<trkpt lat="58.873489" lon="05.868328"><ele>20</ele><time>2012-03-31T13:38:09Z</time><cmt>2.6 kmh</cmt></trkpt>
<trkpt lat="58.873487" lon="05.868339"><ele>20</ele><time>2012-03-31T13:38:10Z</time><cmt>2.6 kmh</cmt></trkpt>
<trkpt lat="58.873485" lon="05.868350"><ele>20</ele><time>2012-03-31T13:38:11Z</time><cmt>2.1 kmh</cmt></trkpt>
<trkpt lat="58.873484" lon="05.868361"><ele>20</ele><time>2012-03-31T13:38:12Z</time><cmt>2.1 kmh</cmt></trkpt>
<trkpt lat="58.873482" lon="05.868372"><ele>20</ele><time>2012-03-31T13:38:13Z</time><cmt>2.6 kmh</cmt></trkpt>
<trkpt lat="58.873480" lon="05.868383"><ele>20</ele><time>2012-03-31T13:38:14Z</time><cmt>2.6 kmh</cmt></trkpt>
<trkpt lat="58.873478" lon="05.868394"><ele>20</ele><time>2012-03-31T13:38:15Z</time><cmt>2.6 kmh</cmt></trkpt>
<trkpt lat="58.873475" lon="05.868405"><ele>20</ele><time>2012-03-31T13:38:16Z</time><cmt>2.6 kmh</cmt></trkpt>
<trkpt lat="58.873473" lon="05.868415"><ele>20</ele><time>2012-03-31T13:38:17Z</time><cmt>2.0 kmh</cmt></trkpt>
<trkpt lat="58.873471" lon="05.868425"><ele>20</ele><time>2012-03-31T13:38:18Z</time><cmt>2.0 kmh</cmt></trkpt>
<trkpt lat="58.873469" lon="05.868436"><ele>20</ele><time>2012-03-31T13:38:19Z</time><cmt>2.4 kmh</cmt></trkpt>
<trkpt lat="58.873467" lon="05.868446"><ele>20</ele><time>2012-03-31T13:38:20Z</time><cmt>2.4 kmh</cmt></trkpt>
<trkpt lat="58.873465" lon="05.868456"><ele>20</ele><time>2012-03-31T13:38:21Z</time><cmt>2.4 kmh</cmt></trkpt>
<trkpt lat="58.873463" lon="05.868467"><ele>20</ele><time>2012-03-31T13:38:22Z</time><cmt>2.5 kmh</cmt></trkpt>
<trkpt lat="58.873462" lon="05.868478"><ele>20</ele><time>2012-03-31T13:38:23Z</time><cmt>2.0 kmh</cmt></trkpt>
<trkpt lat="58.873460" lon="05.868489"><ele>20</ele><time>2012-03-31T13:38:24Z</time><cmt>2.0 kmh</cmt></trkpt>
<trkpt lat="58.873458" lon="05.868500"><ele>20</ele><time>2012-03-31T13:38:25Z</time><cmt>2.6 kmh</cmt></trkpt>
<trkpt lat="58.873456" lon="05.868511"><ele>20</ele><time>2012-03-31T13:38:26Z</time><cmt>2.6 kmh</cmt></trkpt>
<trkpt lat="58.873454" lon="05.868522"><ele>20</ele><time>2012-03-31T13:38:27Z</time><cmt>2.7 kmh</cmt></trkpt>
<trkpt lat="58.873451" lon="05.868533"><ele>20</ele><time>2012-03-31T13:38:28Z</time><cmt>2.7 kmh</cmt></trkpt>
<trkpt lat="58.873449" lon="05.868544"><ele>20</ele><time>2012-03-31T13:38:29Z</time><cmt>2.2 kmh</cmt></trkpt>
<trkpt lat="58.873447" lon="05.868555"><ele>20</ele><time>2012-03-31T13:38:30Z</time><cmt>2.1 kmh</cmt></trkpt>
<trkpt lat="58.873445" lon="05.868566"><ele>20</ele><time>2012-03-31T13:38:31Z</time><cmt>2.6 kmh</cmt></trkpt>
<trkpt lat="58.873443" lon="05.868577"><ele>20</ele><time>2012-03-31T13:38:32Z</time><cmt>2.6 kmh</cmt></trkpt>
<trkpt lat="58.873441" lon="05.868588"><ele>20</ele><time>2012-03-31T13:38:33Z</time><cmt>2.6 kmh</cmt></trkpt>
<trkpt lat="58.873439" lon="05.868599"><ele>20</ele><time>2012-03-31T13:38:34Z</time><cmt>2.5 kmh</cmt></trkpt>
<trkpt lat="58.873436" lon="05.868609"><ele>20</ele><time>2012-03-31T13:38:35Z</time><cmt>2.5 kmh</cmt></trkpt>
<trkpt lat="58.873434" lon="05.868620"><ele>20</ele><time>2012-03-31T13:38:36Z</time><cmt>2.1 kmh</cmt></trkpt>
<trkpt lat="58.873432" lon="05.868631"><ele>21</ele><time>2012-03-31T13:38:37Z</time><cmt>2.1 kmh</cmt></trkpt>
<trkpt lat="58.873430" lon="05.868642"><ele>21</ele><time>2012-03-31T13:38:38Z</time><cmt>2.6 kmh</cmt></trkpt>
<trkpt lat="58.873428" lon="05.868653"><ele>21</ele><time>2012-03-31T13:38:39Z</time><cmt>2.6 kmh</cmt></trkpt>
<trkpt lat="58.873426" lon="05.868664"><ele>21</ele><time>2012-03-31T13:38:40Z</time><cmt>2.7 kmh</cmt></trkpt>
<trkpt lat="58.873424" lon="05.868675"><ele>21</ele><time>2012-03-31T13:38:41Z</time><cmt>2.6 kmh</cmt></trkpt>
<trkpt lat="58.873422" lon="05.868686"><ele>21</ele><time>2012-03-31T13:38:42Z</time><cmt>2.1 kmh</cmt></trkpt>
<trkpt lat="58.873420" lon="05.868697"><ele>21</ele><time>2012-03-31T13:38:43Z</time><cmt>2.1 kmh</cmt></trkpt>
<trkpt lat="58.873418" lon="05.868708"><ele>21</ele><time>2012-03-31T13:38:44Z</time><cmt>2.5 kmh</cmt></trkpt>
<trkpt lat="58.873416" lon="05.868718"><ele>21</ele><time>2012-03-31T13:38:45Z</time><cmt>2.5 kmh</cmt></trkpt>
<trkpt lat="58.873414" lon="05.868729"><ele>21</ele><time>2012-03-31T13:38:46Z</time><cmt>2.4 kmh</cmt></trkpt>
<trkpt lat="58.873412" lon="05.868739"><ele>21</ele><time>2012-03-31T13:38:47Z</time><cmt>2.4 kmh</cmt></trkpt>
<trkpt lat="58.873410" lon="05.868749"><ele>21</ele><time>2012-03-31T13:38:48Z</time><cmt>1.9 kmh</cmt></trkpt>
<trkpt lat="58.873408" lon="05.868759"><ele>21</ele><time>2012-03-31T13:38:49Z</time><cmt>1.9 kmh</cmt></trkpt>
<trkpt lat="58.873405" lon="05.868768"><ele>21</ele><time>2012-03-31T13:38:50Z</time><cmt>2.4 kmh</cmt></trkpt>
<trkpt lat="58.873403" lon="05.868778"><ele>21</ele><time>2012-03-31T13:38:51Z</time><cmt>2.4 kmh</cmt></trkpt>
<trkpt lat="58.873400" lon="05.868787"><ele>21</ele><time>2012-03-31T13:38:52Z</time><cmt>2.4 kmh</cmt></trkpt>
<trkpt lat="58.873397" lon="05.868797"><ele>21</ele><time>2012-03-31T13:38:53Z</time><cmt>2.4 kmh</cmt></trkpt>
<trkpt lat="58.873394" lon="05.868806"><ele>21</ele><time>2012-03-31T13:38:54Z</time><cmt>2.0 kmh</cmt></trkpt>
<trkpt lat="58.873392" lon="05.868816"><ele>21</ele><time>2012-03-31T13:38:55Z</time><cmt>2.0 kmh</cmt></trkpt>
<trkpt lat="58.873389" lon="05.868826"><ele>21</ele><time>2012-03-31T13:38:56Z</time><cmt>2.5 kmh</cmt></trkpt>
<trkpt lat="58.873386" lon="05.868836"><ele>21</ele><time>2012-03-31T13:38:57Z</time><cmt>2.5 kmh</cmt></trkpt>
<trkpt lat="58.873383" lon="05.868846"><ele>21</ele><time>2012-03-31T13:38:58Z</time><cmt>2.6 kmh</cmt></trkpt>
<trkpt lat="58.873379" lon="05.868856"><ele>21</ele><time>2012-03-31T13:38:59Z</time><cmt>2.6 kmh</cmt></trkpt>
<trkpt lat="58.873376" lon="05.868866"><ele>21</ele><time>2012-03-31T13:39:00Z</time><cmt>2.1 kmh</cmt></trkpt>
<trkpt lat="58.873373" lon="05.868876"><ele>21</ele><time>2012-03-31T13:39:01Z</time><cmt>2.1 kmh</cmt></trkpt>
<trkpt lat="58.873370" lon="05.868886"><ele>21</ele><time>2012-03-31T13:39:02Z</time><cmt>2.6 kmh</cmt></trkpt>
<trkpt lat="58.873367" lon="05.868896"><ele>21</ele><time>2012-03-31T13:39:03Z</time><cmt>2.6 kmh</cmt></trkpt>
<trkpt lat="58.873364" lon="05.868906"><ele>21</ele><time>2012-03-31T13:39:04Z</time><cmt>2.6 kmh</cmt></trkpt>
<trkpt lat="58.873361" lon="05.868916"><ele>21</ele><time>2012-03-31T13:39:05Z</time><cmt>2.6 kmh</cmt></trkpt>
<trkpt lat="58.873358" lon="05.868926"><ele>21</ele><time>2012-03-31T13:39:06Z</time><cmt>2.5 kmh</cmt></trkpt>
<trkpt lat="58.873356" lon="05.868936"><ele>21</ele><time>2012-03-31T13:39:07Z</time><cmt>2.0 kmh</cmt></trkpt>
<trkpt lat="58.873353" lon="05.868946"><ele>21</ele><time>2012-03-31T13:39:08Z</time><cmt>2.0 kmh</cmt></trkpt>
<trkpt lat="58.873350" lon="05.868955"><ele>21</ele><time>2012-03-31T13:39:09Z</time><cmt>2.5 kmh</cmt></trkpt>
<trkpt lat="58.873347" lon="05.868966"><ele>21</ele><time>2012-03-31T13:39:10Z</time><cmt>2.5 kmh</cmt></trkpt>
<trkpt lat="58.873344" lon="05.868977"><ele>21</ele><time>2012-03-31T13:39:11Z</time><cmt>2.7 kmh</cmt></trkpt>
<trkpt lat="58.873341" lon="05.868988"><ele>21</ele><time>2012-03-31T13:39:12Z</time><cmt>2.8 kmh</cmt></trkpt>
<trkpt lat="58.873338" lon="05.868998"><ele>22</ele><time>2012-03-31T13:39:13Z</time><cmt>2.2 kmh</cmt></trkpt>
<trkpt lat="58.873335" lon="05.869009"><ele>22</ele><time>2012-03-31T13:39:14Z</time><cmt>2.2 kmh</cmt></trkpt>
<trkpt lat="58.873332" lon="05.869019"><ele>22</ele><time>2012-03-31T13:39:15Z</time><cmt>2.7 kmh</cmt></trkpt>
<trkpt lat="58.873329" lon="05.869030"><ele>22</ele><time>2012-03-31T13:39:16Z</time><cmt>2.7 kmh</cmt></trkpt>
<trkpt lat="58.873326" lon="05.869041"><ele>22</ele><time>2012-03-31T13:39:17Z</time><cmt>2.7 kmh</cmt></trkpt>
<trkpt lat="58.873323" lon="05.869053"><ele>22</ele><time>2012-03-31T13:39:18Z</time><cmt>2.8 kmh</cmt></trkpt>
<trkpt lat="58.873321" lon="05.869064"><ele>22</ele><time>2012-03-31T13:39:19Z</time><cmt>2.2 kmh</cmt></trkpt>
<trkpt lat="58.873318" lon="05.869074"><ele>22</ele><time>2012-03-31T13:39:20Z</time><cmt>2.2 kmh</cmt></trkpt>
<trkpt lat="58.873315" lon="05.869086"><ele>22</ele><time>2012-03-31T13:39:21Z</time><cmt>2.8 kmh</cmt></trkpt>
<trkpt lat="58.873311" lon="05.869097"><ele>22</ele><time>2012-03-31T13:39:22Z</time><cmt>2.9 kmh</cmt></trkpt>
<trkpt lat="58.873308" lon="05.869108"><ele>22</ele><time>2012-03-31T13:39:23Z</time><cmt>3.0 kmh</cmt></trkpt>
<trkpt lat="58.873304" lon="05.869119"><ele>22</ele><time>2012-03-31T13:39:24Z</time><cmt>3.0 kmh</cmt></trkpt>
<trkpt lat="58.873300" lon="05.869131"><ele>22</ele><time>2012-03-31T13:39:25Z</time><cmt>2.4 kmh</cmt></trkpt>
<trkpt lat="58.873283" lon="05.869164"><ele>22</ele><time>2012-03-31T13:39:29Z</time><cmt>2.6 kmh</cmt></trkpt>
<trkpt lat="58.873255" lon="05.869210"><ele>22</ele><time>2012-03-31T13:39:34Z</time><cmt>5.0 kmh</cmt></trkpt>
<trkpt lat="58.873250" lon="05.869217"><ele>23</ele><time>2012-03-31T13:39:35Z</time><cmt>5.0 kmh</cmt></trkpt>
<trkpt lat="58.873245" lon="05.869225"><ele>23</ele><time>2012-03-31T13:39:36Z</time><cmt>2.7 kmh</cmt></trkpt>
<trkpt lat="58.873239" lon="05.869234"><ele>23</ele><time>2012-03-31T13:39:37Z</time><cmt>3.0 kmh</cmt></trkpt>
<trkpt lat="58.873235" lon="05.869242"><ele>23</ele><time>2012-03-31T13:39:38Z</time><cmt>2.3 kmh</cmt></trkpt>
<trkpt lat="58.873230" lon="05.869250"><ele>23</ele><time>2012-03-31T13:39:39Z</time><cmt>2.2 kmh</cmt></trkpt>
<trkpt lat="58.873225" lon="05.869257"><ele>23</ele><time>2012-03-31T13:39:40Z</time><cmt>2.8 kmh</cmt></trkpt>
<trkpt lat="58.873221" lon="05.869266"><ele>23</ele><time>2012-03-31T13:39:41Z</time><cmt>2.7 kmh</cmt></trkpt>
<trkpt lat="58.873218" lon="05.869274"><ele>23</ele><time>2012-03-31T13:39:42Z</time><cmt>2.3 kmh</cmt></trkpt>
<trkpt lat="58.873214" lon="05.869283"><ele>23</ele><time>2012-03-31T13:39:43Z</time><cmt>2.5 kmh</cmt></trkpt>
<trkpt lat="58.873208" lon="05.869292"><ele>23</ele><time>2012-03-31T13:39:44Z</time><cmt>2.4 kmh</cmt></trkpt>
<trkpt lat="58.873193" lon="05.869323"><ele>23</ele><time>2012-03-31T13:39:47Z</time><cmt>3.1 kmh</cmt></trkpt>
<trkpt lat="58.873190" lon="05.869331"><ele>24</ele><time>2012-03-31T13:39:48Z</time><cmt>5.0 kmh</cmt></trkpt>
<trkpt lat="58.873185" lon="05.869340"><ele>24</ele><time>2012-03-31T13:39:49Z</time><cmt>2.5 kmh</cmt></trkpt>
<trkpt lat="58.873181" lon="05.869348"><ele>24</ele><time>2012-03-31T13:39:50Z</time><cmt>2.2 kmh</cmt></trkpt>
<trkpt lat="58.873177" lon="05.869357"><ele>24</ele><time>2012-03-31T13:39:51Z</time><cmt>2.2 kmh</cmt></trkpt>
<trkpt lat="58.873172" lon="05.869366"><ele>24</ele><time>2012-03-31T13:39:52Z</time><cmt>2.7 kmh</cmt></trkpt>
<trkpt lat="58.873168" lon="05.869375"><ele>24</ele><time>2012-03-31T13:39:53Z</time><cmt>2.7 kmh</cmt></trkpt>
<trkpt lat="58.873162" lon="05.869383"><ele>24</ele><time>2012-03-31T13:39:54Z</time><cmt>2.9 kmh</cmt></trkpt>
<trkpt lat="58.873157" lon="05.869392"><ele>24</ele><time>2012-03-31T13:39:55Z</time><cmt>3.0 kmh</cmt></trkpt>
<trkpt lat="58.873151" lon="05.869400"><ele>24</ele><time>2012-03-31T13:39:56Z</time><cmt>2.4 kmh</cmt></trkpt>
<trkpt lat="58.873144" lon="05.869408"><ele>24</ele><time>2012-03-31T13:39:57Z</time><cmt>2.6 kmh</cmt></trkpt>
<trkpt lat="58.873137" lon="05.869417"><ele>24</ele><time>2012-03-31T13:39:58Z</time><cmt>3.6 kmh</cmt></trkpt>
<trkpt lat="58.873128" lon="05.869427"><ele>24</ele><time>2012-03-31T13:39:59Z</time><cmt>4.2 kmh</cmt></trkpt>
<trkpt lat="58.873118" lon="05.869438"><ele>24</ele><time>2012-03-31T13:40:00Z</time><cmt>4.7 kmh</cmt></trkpt>
<trkpt lat="58.873107" lon="05.869450"><ele>24</ele><time>2012-03-31T13:40:01Z</time><cmt>5.3 kmh</cmt></trkpt>
<trkpt lat="58.873096" lon="05.869463"><ele>24</ele><time>2012-03-31T13:40:02Z</time><cmt>5.5 kmh</cmt></trkpt>
<trkpt lat="58.873084" lon="05.869477"><ele>24</ele><time>2012-03-31T13:40:03Z</time><cmt>5.4 kmh</cmt></trkpt>
<trkpt lat="58.873072" lon="05.869491"><ele>24</ele><time>2012-03-31T13:40:04Z</time><cmt>5.5 kmh</cmt></trkpt>
<trkpt lat="58.873061" lon="05.869505"><ele>24</ele><time>2012-03-31T13:40:05Z</time><cmt>5.3 kmh</cmt></trkpt>
<trkpt lat="58.873050" lon="05.869520"><ele>24</ele><time>2012-03-31T13:40:06Z</time><cmt>5.4 kmh</cmt></trkpt>
<trkpt lat="58.873038" lon="05.869534"><ele>24</ele><time>2012-03-31T13:40:07Z</time><cmt>5.4 kmh</cmt></trkpt>
<trkpt lat="58.873026" lon="05.869549"><ele>24</ele><time>2012-03-31T13:40:08Z</time><cmt>5.7 kmh</cmt></trkpt>
<trkpt lat="58.873013" lon="05.869564"><ele>24</ele><time>2012-03-31T13:40:09Z</time><cmt>6.2 kmh</cmt></trkpt>
<trkpt lat="58.873000" lon="05.869579"><ele>24</ele><time>2012-03-31T13:40:10Z</time><cmt>6.5 kmh</cmt></trkpt>
<trkpt lat="58.872985" lon="05.869595"><ele>24</ele><time>2012-03-31T13:40:11Z</time><cmt>7.0 kmh</cmt></trkpt>
<trkpt lat="58.872970" lon="05.869612"><ele>24</ele><time>2012-03-31T13:40:12Z</time><cmt>7.1 kmh</cmt></trkpt>
<trkpt lat="58.872954" lon="05.869628"><ele>24</ele><time>2012-03-31T13:40:13Z</time><cmt>7.3 kmh</cmt></trkpt>
<trkpt lat="58.872938" lon="05.869643"><ele>24</ele><time>2012-03-31T13:40:14Z</time><cmt>7.5 kmh</cmt></trkpt>
<trkpt lat="58.872921" lon="05.869658"><ele>24</ele><time>2012-03-31T13:40:15Z</time><cmt>7.4 kmh</cmt></trkpt>
<trkpt lat="58.872903" lon="05.869672"><ele>24</ele><time>2012-03-31T13:40:16Z</time><cmt>8.1 kmh</cmt></trkpt>
<trkpt lat="58.872885" lon="05.869688"><ele>24</ele><time>2012-03-31T13:40:17Z</time><cmt>7.8 kmh</cmt></trkpt>
<trkpt lat="58.872867" lon="05.869703"><ele>24</ele><time>2012-03-31T13:40:18Z</time><cmt>8.2 kmh</cmt></trkpt>
<trkpt lat="58.872849" lon="05.869719"><ele>24</ele><time>2012-03-31T13:40:19Z</time><cmt>8.1 kmh</cmt></trkpt>
<trkpt lat="58.872830" lon="05.869735"><ele>24</ele><time>2012-03-31T13:40:20Z</time><cmt>8.0 kmh</cmt></trkpt>
<trkpt lat="58.872812" lon="05.869753"><ele>24</ele><time>2012-03-31T13:40:21Z</time><cmt>8.4 kmh</cmt></trkpt>
<trkpt lat="58.872794" lon="05.869773"><ele>24</ele><time>2012-03-31T13:40:22Z</time><cmt>8.0 kmh</cmt></trkpt>
<trkpt lat="58.872777" lon="05.869791"><ele>24</ele><time>2012-03-31T13:40:23Z</time><cmt>8.0 kmh</cmt></trkpt>
<trkpt lat="58.872761" lon="05.869814"><ele>24</ele><time>2012-03-31T13:40:24Z</time><cmt>7.7 kmh</cmt></trkpt>
<trkpt lat="58.872747" lon="05.869840"><ele>24</ele><time>2012-03-31T13:40:25Z</time><cmt>7.7 kmh</cmt></trkpt>
<trkpt lat="58.872735" lon="05.869868"><ele>24</ele><time>2012-03-31T13:40:26Z</time><cmt>7.3 kmh</cmt></trkpt>
<trkpt lat="58.872724" lon="05.869896"><ele>24</ele><time>2012-03-31T13:40:27Z</time><cmt>6.9 kmh</cmt></trkpt>
<trkpt lat="58.872715" lon="05.869924"><ele>24</ele><time>2012-03-31T13:40:28Z</time><cmt>6.9 kmh</cmt></trkpt>
<trkpt lat="58.872706" lon="05.869953"><ele>24</ele><time>2012-03-31T13:40:29Z</time><cmt>7.0 kmh</cmt></trkpt>
<trkpt lat="58.872697" lon="05.869983"><ele>24</ele><time>2012-03-31T13:40:30Z</time><cmt>7.1 kmh</cmt></trkpt>
<trkpt lat="58.872690" lon="05.870014"><ele>24</ele><time>2012-03-31T13:40:31Z</time><cmt>7.3 kmh</cmt></trkpt>
<trkpt lat="58.872682" lon="05.870047"><ele>24</ele><time>2012-03-31T13:40:32Z</time><cmt>7.3 kmh</cmt></trkpt>
<trkpt lat="58.872676" lon="05.870080"><ele>24</ele><time>2012-03-31T13:40:33Z</time><cmt>7.2 kmh</cmt></trkpt>
<trkpt lat="58.872670" lon="05.870112"><ele>24</ele><time>2012-03-31T13:40:34Z</time><cmt>6.9 kmh</cmt></trkpt>
<trkpt lat="58.872665" lon="05.870146"><ele>24</ele><time>2012-03-31T13:40:35Z</time><cmt>7.8 kmh</cmt></trkpt>
<trkpt lat="58.872660" lon="05.870181"><ele>24</ele><time>2012-03-31T13:40:36Z</time><cmt>7.3 kmh</cmt></trkpt>
<trkpt lat="58.872655" lon="05.870217"><ele>24</ele><time>2012-03-31T13:40:37Z</time><cmt>7.9 kmh</cmt></trkpt>
<trkpt lat="58.872651" lon="05.870253"><ele>24</ele><time>2012-03-31T13:40:38Z</time><cmt>7.4 kmh</cmt></trkpt>
<trkpt lat="58.872647" lon="05.870286"><ele>24</ele><time>2012-03-31T13:40:39Z</time><cmt>6.4 kmh</cmt></trkpt>
<trkpt lat="58.872642" lon="05.870316"><ele>24</ele><time>2012-03-31T13:40:40Z</time><cmt>6.0 kmh</cmt></trkpt>
<trkpt lat="58.872636" lon="05.870345"><ele>24</ele><time>2012-03-31T13:40:41Z</time><cmt>6.6 kmh</cmt></trkpt>
<trkpt lat="58.872629" lon="05.870373"><ele>24</ele><time>2012-03-31T13:40:42Z</time><cmt>6.7 kmh</cmt></trkpt>
<trkpt lat="58.872621" lon="05.870401"><ele>24</ele><time>2012-03-31T13:40:43Z</time><cmt>6.7 kmh</cmt></trkpt>
<trkpt lat="58.872612" lon="05.870428"><ele>24</ele><time>2012-03-31T13:40:44Z</time><cmt>7.1 kmh</cmt></trkpt>
<trkpt lat="58.872601" lon="05.870454"><ele>24</ele><time>2012-03-31T13:40:45Z</time><cmt>7.4 kmh</cmt></trkpt>
<trkpt lat="58.872588" lon="05.870479"><ele>24</ele><time>2012-03-31T13:40:46Z</time><cmt>7.6 kmh</cmt></trkpt>
<trkpt lat="58.872574" lon="05.870503"><ele>24</ele><time>2012-03-31T13:40:47Z</time><cmt>7.7 kmh</cmt></trkpt>
<trkpt lat="58.872559" lon="05.870524"><ele>24</ele><time>2012-03-31T13:40:48Z</time><cmt>7.5 kmh</cmt></trkpt>
<trkpt lat="58.872545" lon="05.870546"><ele>24</ele><time>2012-03-31T13:40:49Z</time><cmt>7.7 kmh</cmt></trkpt>
<trkpt lat="58.872530" lon="05.870568"><ele>24</ele><time>2012-03-31T13:40:50Z</time><cmt>7.5 kmh</cmt></trkpt>
<trkpt lat="58.872514" lon="05.870590"><ele>24</ele><time>2012-03-31T13:40:51Z</time><cmt>8.0 kmh</cmt></trkpt>
<trkpt lat="58.872498" lon="05.870612"><ele>24</ele><time>2012-03-31T13:40:52Z</time><cmt>8.1 kmh</cmt></trkpt>
<trkpt lat="58.872483" lon="05.870634"><ele>24</ele><time>2012-03-31T13:40:53Z</time><cmt>7.7 kmh</cmt></trkpt>
<trkpt lat="58.872466" lon="05.870655"><ele>24</ele><time>2012-03-31T13:40:54Z</time><cmt>8.2 kmh</cmt></trkpt>
<trkpt lat="58.872449" lon="05.870675"><ele>24</ele><time>2012-03-31T13:40:55Z</time><cmt>7.8 kmh</cmt></trkpt>
<trkpt lat="58.872432" lon="05.870694"><ele>24</ele><time>2012-03-31T13:40:56Z</time><cmt>7.8 kmh</cmt></trkpt>
<trkpt lat="58.872415" lon="05.870711"><ele>24</ele><time>2012-03-31T13:40:57Z</time><cmt>7.5 kmh</cmt></trkpt>
<trkpt lat="58.872399" lon="05.870726"><ele>24</ele><time>2012-03-31T13:40:58Z</time><cmt>6.9 kmh</cmt></trkpt>
<trkpt lat="58.872383" lon="05.870739"><ele>24</ele><time>2012-03-31T13:40:59Z</time><cmt>6.2 kmh</cmt></trkpt>
<trkpt lat="58.872369" lon="05.870749"><ele>24</ele><time>2012-03-31T13:41:00Z</time><cmt>5.6 kmh</cmt></trkpt>
<trkpt lat="58.872355" lon="05.870757"><ele>24</ele><time>2012-03-31T13:41:01Z</time><cmt>5.8 kmh</cmt></trkpt>
<trkpt lat="58.872341" lon="05.870764"><ele>24</ele><time>2012-03-31T13:41:02Z</time><cmt>6.4 kmh</cmt></trkpt>
<trkpt lat="58.872325" lon="05.870771"><ele>24</ele><time>2012-03-31T13:41:03Z</time><cmt>7.0 kmh</cmt></trkpt>
<trkpt lat="58.872308" lon="05.870779"><ele>24</ele><time>2012-03-31T13:41:04Z</time><cmt>7.5 kmh</cmt></trkpt>
<trkpt lat="58.872289" lon="05.870788"><ele>24</ele><time>2012-03-31T13:41:05Z</time><cmt>8.3 kmh</cmt></trkpt>
<trkpt lat="58.872270" lon="05.870800"><ele>24</ele><time>2012-03-31T13:41:06Z</time><cmt>8.4 kmh</cmt></trkpt>
<trkpt lat="58.872250" lon="05.870814"><ele>24</ele><time>2012-03-31T13:41:07Z</time><cmt>8.2 kmh</cmt></trkpt>
<trkpt lat="58.872232" lon="05.870830"><ele>24</ele><time>2012-03-31T13:41:08Z</time><cmt>8.4 kmh</cmt></trkpt>
<trkpt lat="58.872213" lon="05.870849"><ele>24</ele><time>2012-03-31T13:41:09Z</time><cmt>8.1 kmh</cmt></trkpt>
<trkpt lat="58.872196" lon="05.870869"><ele>24</ele><time>2012-03-31T13:41:10Z</time><cmt>8.1 kmh</cmt></trkpt>
<trkpt lat="58.872179" lon="05.870890"><ele>24</ele><time>2012-03-31T13:41:11Z</time><cmt>8.0 kmh</cmt></trkpt>
<trkpt lat="58.872163" lon="05.870914"><ele>24</ele><time>2012-03-31T13:41:12Z</time><cmt>8.2 kmh</cmt></trkpt>
<trkpt lat="58.872147" lon="05.870939"><ele>24</ele><time>2012-03-31T13:41:13Z</time><cmt>8.4 kmh</cmt></trkpt>
<trkpt lat="58.872132" lon="05.870966"><ele>24</ele><time>2012-03-31T13:41:14Z</time><cmt>8.5 kmh</cmt></trkpt>
<trkpt lat="58.872117" lon="05.870994"><ele>24</ele><time>2012-03-31T13:41:15Z</time><cmt>8.7 kmh</cmt></trkpt>
<trkpt lat="58.872102" lon="05.871024"><ele>23</ele><time>2012-03-31T13:41:16Z</time><cmt>8.4 kmh</cmt></trkpt>
<trkpt lat="58.872088" lon="05.871054"><ele>23</ele><time>2012-03-31T13:41:17Z</time><cmt>8.5 kmh</cmt></trkpt>
<trkpt lat="58.872073" lon="05.871084"><ele>23</ele><time>2012-03-31T13:41:18Z</time><cmt>8.8 kmh</cmt></trkpt>
<trkpt lat="58.872058" lon="05.871115"><ele>23</ele><time>2012-03-31T13:41:19Z</time><cmt>8.5 kmh</cmt></trkpt>
<trkpt lat="58.872042" lon="05.871144"><ele>23</ele><time>2012-03-31T13:41:20Z</time><cmt>8.6 kmh</cmt></trkpt>
<trkpt lat="58.872027" lon="05.871173"><ele>23</ele><time>2012-03-31T13:41:21Z</time><cmt>8.5 kmh</cmt></trkpt>
<trkpt lat="58.872011" lon="05.871203"><ele>23</ele><time>2012-03-31T13:41:22Z</time><cmt>8.5 kmh</cmt></trkpt>
<trkpt lat="58.871996" lon="05.871231"><ele>23</ele><time>2012-03-31T13:41:23Z</time><cmt>8.5 kmh</cmt></trkpt>
<trkpt lat="58.871981" lon="05.871260"><ele>23</ele><time>2012-03-31T13:41:24Z</time><cmt>8.4 kmh</cmt></trkpt>
<trkpt lat="58.871965" lon="05.871288"><ele>23</ele><time>2012-03-31T13:41:25Z</time><cmt>8.3 kmh</cmt></trkpt>
<trkpt lat="58.871950" lon="05.871316"><ele>23</ele><time>2012-03-31T13:41:26Z</time><cmt>8.0 kmh</cmt></trkpt>
<trkpt lat="58.871934" lon="05.871342"><ele>23</ele><time>2012-03-31T13:41:27Z</time><cmt>8.3 kmh</cmt></trkpt>
<trkpt lat="58.871918" lon="05.871367"><ele>23</ele><time>2012-03-31T13:41:28Z</time><cmt>8.2 kmh</cmt></trkpt>
<trkpt lat="58.871902" lon="05.871393"><ele>23</ele><time>2012-03-31T13:41:29Z</time><cmt>8.7 kmh</cmt></trkpt>
<trkpt lat="58.871886" lon="05.871419"><ele>23</ele><time>2012-03-31T13:41:30Z</time><cmt>8.4 kmh</cmt></trkpt>
<trkpt lat="58.871871" lon="05.871446"><ele>23</ele><time>2012-03-31T13:41:31Z</time><cmt>8.2 kmh</cmt></trkpt>
<trkpt lat="58.871856" lon="05.871475"><ele>23</ele><time>2012-03-31T13:41:32Z</time><cmt>8.9 kmh</cmt></trkpt>
<trkpt lat="58.871840" lon="05.871505"><ele>23</ele><time>2012-03-31T13:41:33Z</time><cmt>8.8 kmh</cmt></trkpt>
<trkpt lat="58.871826" lon="05.871536"><ele>23</ele><time>2012-03-31T13:41:34Z</time><cmt>9.3 kmh</cmt></trkpt>
<trkpt lat="58.871811" lon="05.871569"><ele>23</ele><time>2012-03-31T13:41:35Z</time><cmt>8.9 kmh</cmt></trkpt>
<trkpt lat="58.871797" lon="05.871602"><ele>23</ele><time>2012-03-31T13:41:36Z</time><cmt>8.9 kmh</cmt></trkpt>
<trkpt lat="58.871783" lon="05.871635"><ele>23</ele><time>2012-03-31T13:41:37Z</time><cmt>8.9 kmh</cmt></trkpt>
<trkpt lat="58.871769" lon="05.871667"><ele>23</ele><time>2012-03-31T13:41:38Z</time><cmt>8.7 kmh</cmt></trkpt>
<trkpt lat="58.871756" lon="05.871699"><ele>23</ele><time>2012-03-31T13:41:39Z</time><cmt>8.3 kmh</cmt></trkpt>
<trkpt lat="58.871742" lon="05.871731"><ele>23</ele><time>2012-03-31T13:41:40Z</time><cmt>8.4 kmh</cmt></trkpt>
<trkpt lat="58.871730" lon="05.871764"><ele>23</ele><time>2012-03-31T13:41:41Z</time><cmt>8.0 kmh</cmt></trkpt>
<trkpt lat="58.871717" lon="05.871794"><ele>23</ele><time>2012-03-31T13:41:42Z</time><cmt>8.1 kmh</cmt></trkpt>
<trkpt lat="58.871702" lon="05.871822"><ele>23</ele><time>2012-03-31T13:41:43Z</time><cmt>8.2 kmh</cmt></trkpt>
<trkpt lat="58.871686" lon="05.871850"><ele>23</ele><time>2012-03-31T13:41:44Z</time><cmt>8.4 kmh</cmt></trkpt>
<trkpt lat="58.871671" lon="05.871880"><ele>23</ele><time>2012-03-31T13:41:45Z</time><cmt>8.4 kmh</cmt></trkpt>
<trkpt lat="58.871656" lon="05.871910"><ele>23</ele><time>2012-03-31T13:41:46Z</time><cmt>8.5 kmh</cmt></trkpt>
<trkpt lat="58.871642" lon="05.871940"><ele>23</ele><time>2012-03-31T13:41:47Z</time><cmt>8.6 kmh</cmt></trkpt>
<trkpt lat="58.871627" lon="05.871968"><ele>23</ele><time>2012-03-31T13:41:48Z</time><cmt>8.1 kmh</cmt></trkpt>
<trkpt lat="58.871612" lon="05.871995"><ele>23</ele><time>2012-03-31T13:41:49Z</time><cmt>8.1 kmh</cmt></trkpt>
<trkpt lat="58.871598" lon="05.872022"><ele>23</ele><time>2012-03-31T13:41:50Z</time><cmt>7.8 kmh</cmt></trkpt>
<trkpt lat="58.871583" lon="05.872049"><ele>23</ele><time>2012-03-31T13:41:51Z</time><cmt>8.0 kmh</cmt></trkpt>
<trkpt lat="58.871570" lon="05.872076"><ele>23</ele><time>2012-03-31T13:41:52Z</time><cmt>7.8 kmh</cmt></trkpt>
<trkpt lat="58.871556" lon="05.872103"><ele>23</ele><time>2012-03-31T13:41:53Z</time><cmt>7.7 kmh</cmt></trkpt>
<trkpt lat="58.871542" lon="05.872129"><ele>23</ele><time>2012-03-31T13:41:54Z</time><cmt>7.5 kmh</cmt></trkpt>
<trkpt lat="58.871529" lon="05.872154"><ele>23</ele><time>2012-03-31T13:41:55Z</time><cmt>7.2 kmh</cmt></trkpt>
<trkpt lat="58.871516" lon="05.872180"><ele>23</ele><time>2012-03-31T13:41:56Z</time><cmt>7.7 kmh</cmt></trkpt>
<trkpt lat="58.871502" lon="05.872206"><ele>23</ele><time>2012-03-31T13:41:57Z</time><cmt>7.8 kmh</cmt></trkpt>
<trkpt lat="58.871488" lon="05.872233"><ele>23</ele><time>2012-03-31T13:41:58Z</time><cmt>7.6 kmh</cmt></trkpt>
<trkpt lat="58.871474" lon="05.872257"><ele>23</ele><time>2012-03-31T13:41:59Z</time><cmt>7.6 kmh</cmt></trkpt>
<trkpt lat="58.871459" lon="05.872282"><ele>23</ele><time>2012-03-31T13:42:00Z</time><cmt>8.0 kmh</cmt></trkpt>
<trkpt lat="58.871444" lon="05.872308"><ele>23</ele><time>2012-03-31T13:42:01Z</time><cmt>7.7 kmh</cmt></trkpt>
<trkpt lat="58.871430" lon="05.872334"><ele>23</ele><time>2012-03-31T13:42:02Z</time><cmt>7.4 kmh</cmt></trkpt>
<trkpt lat="58.871416" lon="05.872358"><ele>23</ele><time>2012-03-31T13:42:03Z</time><cmt>7.7 kmh</cmt></trkpt>
<trkpt lat="58.871401" lon="05.872382"><ele>23</ele><time>2012-03-31T13:42:04Z</time><cmt>8.0 kmh</cmt></trkpt>
<trkpt lat="58.871385" lon="05.872406"><ele>23</ele><time>2012-03-31T13:42:05Z</time><cmt>7.9 kmh</cmt></trkpt>
<trkpt lat="58.871369" lon="05.872431"><ele>23</ele><time>2012-03-31T13:42:06Z</time><cmt>7.6 kmh</cmt></trkpt>
<trkpt lat="58.871353" lon="05.872453"><ele>23</ele><time>2012-03-31T13:42:07Z</time><cmt>8.1 kmh</cmt></trkpt>
<trkpt lat="58.871337" lon="05.872479"><ele>23</ele><time>2012-03-31T13:42:08Z</time><cmt>8.3 kmh</cmt></trkpt>
<trkpt lat="58.871322" lon="05.872505"><ele>23</ele><time>2012-03-31T13:42:09Z</time><cmt>8.1 kmh</cmt></trkpt>
<trkpt lat="58.871306" lon="05.872529"><ele>23</ele><time>2012-03-31T13:42:10Z</time><cmt>8.0 kmh</cmt></trkpt>
<trkpt lat="58.871291" lon="05.872556"><ele>23</ele><time>2012-03-31T13:42:11Z</time><cmt>8.2 kmh</cmt></trkpt>
<trkpt lat="58.871277" lon="05.872584"><ele>23</ele><time>2012-03-31T13:42:12Z</time><cmt>8.1 kmh</cmt></trkpt>
<trkpt lat="58.871262" lon="05.872610"><ele>23</ele><time>2012-03-31T13:42:13Z</time><cmt>8.0 kmh</cmt></trkpt>
<trkpt lat="58.871247" lon="05.872635"><ele>23</ele><time>2012-03-31T13:42:14Z</time><cmt>7.8 kmh</cmt></trkpt>
<trkpt lat="58.871231" lon="05.872661"><ele>23</ele><time>2012-03-31T13:42:15Z</time><cmt>8.0 kmh</cmt></trkpt>
<trkpt lat="58.871216" lon="05.872686"><ele>23</ele><time>2012-03-31T13:42:16Z</time><cmt>8.0 kmh</cmt></trkpt>
<trkpt lat="58.871201" lon="05.872713"><ele>23</ele><time>2012-03-31T13:42:17Z</time><cmt>8.0 kmh</cmt></trkpt>
<trkpt lat="58.871186" lon="05.872742"><ele>23</ele><time>2012-03-31T13:42:18Z</time><cmt>8.2 kmh</cmt></trkpt>
<trkpt lat="58.871173" lon="05.872773"><ele>23</ele><time>2012-03-31T13:42:19Z</time><cmt>8.2 kmh</cmt></trkpt>
<trkpt lat="58.871159" lon="05.872804"><ele>23</ele><time>2012-03-31T13:42:20Z</time><cmt>8.5 kmh</cmt></trkpt>
<trkpt lat="58.871144" lon="05.872832"><ele>24</ele><time>2012-03-31T13:42:21Z</time><cmt>8.2 kmh</cmt></trkpt>
<trkpt lat="58.871131" lon="05.872861"><ele>24</ele><time>2012-03-31T13:42:22Z</time><cmt>8.1 kmh</cmt></trkpt>
<trkpt lat="58.871118" lon="05.872890"><ele>24</ele><time>2012-03-31T13:42:23Z</time><cmt>7.6 kmh</cmt></trkpt>
<trkpt lat="58.871105" lon="05.872918"><ele>24</ele><time>2012-03-31T13:42:24Z</time><cmt>8.0 kmh</cmt></trkpt>
<trkpt lat="58.871093" lon="05.872946"><ele>24</ele><time>2012-03-31T13:42:25Z</time><cmt>7.7 kmh</cmt></trkpt>
<trkpt lat="58.871081" lon="05.872974"><ele>24</ele><time>2012-03-31T13:42:26Z</time><cmt>7.8 kmh</cmt></trkpt>
<trkpt lat="58.871068" lon="05.873004"><ele>24</ele><time>2012-03-31T13:42:27Z</time><cmt>8.0 kmh</cmt></trkpt>
<trkpt lat="58.871056" lon="05.873034"><ele>24</ele><time>2012-03-31T13:42:28Z</time><cmt>7.7 kmh</cmt></trkpt>
<trkpt lat="58.871043" lon="05.873063"><ele>24</ele><time>2012-03-31T13:42:29Z</time><cmt>7.9 kmh</cmt></trkpt>
<trkpt lat="58.871032" lon="05.873092"><ele>24</ele><time>2012-03-31T13:42:30Z</time><cmt>7.6 kmh</cmt></trkpt>
<trkpt lat="58.871019" lon="05.873120"><ele>24</ele><time>2012-03-31T13:42:31Z</time><cmt>7.8 kmh</cmt></trkpt>
<trkpt lat="58.871006" lon="05.873148"><ele>24</ele><time>2012-03-31T13:42:32Z</time><cmt>7.9 kmh</cmt></trkpt>
<trkpt lat="58.870993" lon="05.873177"><ele>24</ele><time>2012-03-31T13:42:33Z</time><cmt>8.1 kmh</cmt></trkpt>
<trkpt lat="58.870980" lon="05.873207"><ele>24</ele><time>2012-03-31T13:42:34Z</time><cmt>7.8 kmh</cmt></trkpt>
<trkpt lat="58.870968" lon="05.873238"><ele>24</ele><time>2012-03-31T13:42:35Z</time><cmt>8.2 kmh</cmt></trkpt>
<trkpt lat="58.870957" lon="05.873270"><ele>24</ele><time>2012-03-31T13:42:36Z</time><cmt>7.9 kmh</cmt></trkpt>
<trkpt lat="58.870945" lon="05.873301"><ele>24</ele><time>2012-03-31T13:42:37Z</time><cmt>8.0 kmh</cmt></trkpt>
<trkpt lat="58.870932" lon="05.873331"><ele>24</ele><time>2012-03-31T13:42:38Z</time><cmt>7.9 kmh</cmt></trkpt>
<trkpt lat="58.870920" lon="05.873362"><ele>24</ele><time>2012-03-31T13:42:39Z</time><cmt>7.8 kmh</cmt></trkpt>
<trkpt lat="58.870909" lon="05.873392"><ele>24</ele><time>2012-03-31T13:42:40Z</time><cmt>7.5 kmh</cmt></trkpt>
<trkpt lat="58.870897" lon="05.873422"><ele>24</ele><time>2012-03-31T13:42:41Z</time><cmt>7.5 kmh</cmt></trkpt>
<trkpt lat="58.870886" lon="05.873452"><ele>24</ele><time>2012-03-31T13:42:42Z</time><cmt>7.6 kmh</cmt></trkpt>
<trkpt lat="58.870874" lon="05.873481"><ele>24</ele><time>2012-03-31T13:42:43Z</time><cmt>7.8 kmh</cmt></trkpt>
<trkpt lat="58.870862" lon="05.873511"><ele>24</ele><time>2012-03-31T13:42:44Z</time><cmt>7.8 kmh</cmt></trkpt>
<trkpt lat="58.870850" lon="05.873541"><ele>24</ele><time>2012-03-31T13:42:45Z</time><cmt>7.7 kmh</cmt></trkpt>
<trkpt lat="58.870839" lon="05.873572"><ele>24</ele><time>2012-03-31T13:42:46Z</time><cmt>8.0 kmh</cmt></trkpt>
<trkpt lat="58.870826" lon="05.873602"><ele>24</ele><time>2012-03-31T13:42:47Z</time><cmt>7.7 kmh</cmt></trkpt>
<trkpt lat="58.870814" lon="05.873632"><ele>24</ele><time>2012-03-31T13:42:48Z</time><cmt>7.8 kmh</cmt></trkpt>
<trkpt lat="58.870802" lon="05.873660"><ele>24</ele><time>2012-03-31T13:42:49Z</time><cmt>7.4 kmh</cmt></trkpt>
<trkpt lat="58.870790" lon="05.873688"><ele>24</ele><time>2012-03-31T13:42:50Z</time><cmt>7.8 kmh</cmt></trkpt>
<trkpt lat="58.870777" lon="05.873714"><ele>24</ele><time>2012-03-31T13:42:51Z</time><cmt>7.4 kmh</cmt></trkpt>
<trkpt lat="58.870764" lon="05.873738"><ele>24</ele><time>2012-03-31T13:42:52Z</time><cmt>7.7 kmh</cmt></trkpt>
<trkpt lat="58.870750" lon="05.873762"><ele>24</ele><time>2012-03-31T13:42:53Z</time><cmt>7.5 kmh</cmt></trkpt>
<trkpt lat="58.870735" lon="05.873785"><ele>24</ele><time>2012-03-31T13:42:54Z</time><cmt>7.6 kmh</cmt></trkpt>
<trkpt lat="58.870720" lon="05.873808"><ele>24</ele><time>2012-03-31T13:42:55Z</time><cmt>7.7 kmh</cmt></trkpt>
<trkpt lat="58.870704" lon="05.873832"><ele>24</ele><time>2012-03-31T13:42:56Z</time><cmt>8.2 kmh</cmt></trkpt>
<trkpt lat="58.870688" lon="05.873856"><ele>23</ele><time>2012-03-31T13:42:57Z</time><cmt>8.0 kmh</cmt></trkpt>
<trkpt lat="58.870672" lon="05.873881"><ele>23</ele><time>2012-03-31T13:42:58Z</time><cmt>8.6 kmh</cmt></trkpt>
<trkpt lat="58.870656" lon="05.873907"><ele>23</ele><time>2012-03-31T13:42:59Z</time><cmt>8.6 kmh</cmt></trkpt>
<trkpt lat="58.870639" lon="05.873934"><ele>23</ele><time>2012-03-31T13:43:00Z</time><cmt>8.5 kmh</cmt></trkpt>
<trkpt lat="58.870623" lon="05.873962"><ele>23</ele><time>2012-03-31T13:43:01Z</time><cmt>8.5 kmh</cmt></trkpt>
<trkpt lat="58.870607" lon="05.873990"><ele>23</ele><time>2012-03-31T13:43:02Z</time><cmt>8.6 kmh</cmt></trkpt>
<trkpt lat="58.870592" lon="05.874019"><ele>23</ele><time>2012-03-31T13:43:03Z</time><cmt>8.5 kmh</cmt></trkpt>
<trkpt lat="58.870576" lon="05.874047"><ele>23</ele><time>2012-03-31T13:43:04Z</time><cmt>8.9 kmh</cmt></trkpt>
<trkpt lat="58.870560" lon="05.874075"><ele>23</ele><time>2012-03-31T13:43:05Z</time><cmt>8.4 kmh</cmt></trkpt>
<trkpt lat="58.870545" lon="05.874103"><ele>23</ele><time>2012-03-31T13:43:06Z</time><cmt>8.5 kmh</cmt></trkpt>
<trkpt lat="58.870532" lon="05.874134"><ele>23</ele><time>2012-03-31T13:43:07Z</time><cmt>8.1 kmh</cmt></trkpt>
<trkpt lat="58.870519" lon="05.874163"><ele>23</ele><time>2012-03-31T13:43:08Z</time><cmt>8.2 kmh</cmt></trkpt>
<trkpt lat="58.870504" lon="05.874190"><ele>23</ele><time>2012-03-31T13:43:09Z</time><cmt>8.0 kmh</cmt></trkpt>
<trkpt lat="58.870489" lon="05.874216"><ele>23</ele><time>2012-03-31T13:43:10Z</time><cmt>8.1 kmh</cmt></trkpt>
<trkpt lat="58.870473" lon="05.874241"><ele>23</ele><time>2012-03-31T13:43:11Z</time><cmt>7.8 kmh</cmt></trkpt>
<trkpt lat="58.870459" lon="05.874268"><ele>23</ele><time>2012-03-31T13:43:12Z</time><cmt>8.0 kmh</cmt></trkpt>
<trkpt lat="58.870445" lon="05.874294"><ele>23</ele><time>2012-03-31T13:43:13Z</time><cmt>7.8 kmh</cmt></trkpt>
<trkpt lat="58.870431" lon="05.874320"><ele>23</ele><time>2012-03-31T13:43:14Z</time><cmt>7.7 kmh</cmt></trkpt>
<trkpt lat="58.870415" lon="05.874346"><ele>23</ele><time>2012-03-31T13:43:15Z</time><cmt>8.0 kmh</cmt></trkpt>
<trkpt lat="58.870399" lon="05.874370"><ele>23</ele><time>2012-03-31T13:43:16Z</time><cmt>7.8 kmh</cmt></trkpt>
<trkpt lat="58.870383" lon="05.874394"><ele>23</ele><time>2012-03-31T13:43:17Z</time><cmt>7.8 kmh</cmt></trkpt>
<trkpt lat="58.870368" lon="05.874417"><ele>23</ele><time>2012-03-31T13:43:18Z</time><cmt>7.4 kmh</cmt></trkpt>
<trkpt lat="58.870355" lon="05.874440"><ele>23</ele><time>2012-03-31T13:43:19Z</time><cmt>7.2 kmh</cmt></trkpt>
<trkpt lat="58.870341" lon="05.874462"><ele>23</ele><time>2012-03-31T13:43:20Z</time><cmt>7.5 kmh</cmt></trkpt>
<trkpt lat="58.870325" lon="05.874485"><ele>23</ele><time>2012-03-31T13:43:21Z</time><cmt>7.7 kmh</cmt></trkpt>
<trkpt lat="58.870310" lon="05.874508"><ele>23</ele><time>2012-03-31T13:43:22Z</time><cmt>7.6 kmh</cmt></trkpt>
<trkpt lat="58.870295" lon="05.874531"><ele>23</ele><time>2012-03-31T13:43:23Z</time><cmt>7.6 kmh</cmt></trkpt>
<trkpt lat="58.870281" lon="05.874555"><ele>23</ele><time>2012-03-31T13:43:24Z</time><cmt>7.4 kmh</cmt></trkpt>
<trkpt lat="58.870266" lon="05.874580"><ele>23</ele><time>2012-03-31T13:43:25Z</time><cmt>7.7 kmh</cmt></trkpt>
<trkpt lat="58.870252" lon="05.874605"><ele>23</ele><time>2012-03-31T13:43:26Z</time><cmt>7.6 kmh</cmt></trkpt>
<trkpt lat="58.870237" lon="05.874629"><ele>23</ele><time>2012-03-31T13:43:27Z</time><cmt>7.8 kmh</cmt></trkpt>
<trkpt lat="58.870223" lon="05.874653"><ele>23</ele><time>2012-03-31T13:43:28Z</time><cmt>7.6 kmh</cmt></trkpt>
<trkpt lat="58.870208" lon="05.874678"><ele>23</ele><time>2012-03-31T13:43:29Z</time><cmt>7.9 kmh</cmt></trkpt>
<trkpt lat="58.870193" lon="05.874704"><ele>23</ele><time>2012-03-31T13:43:30Z</time><cmt>7.9 kmh</cmt></trkpt>
<trkpt lat="58.870177" lon="05.874728"><ele>23</ele><time>2012-03-31T13:43:31Z</time><cmt>8.0 kmh</cmt></trkpt>
<trkpt lat="58.870162" lon="05.874752"><ele>23</ele><time>2012-03-31T13:43:32Z</time><cmt>7.9 kmh</cmt></trkpt>
<trkpt lat="58.870144" lon="05.874774"><ele>23</ele><time>2012-03-31T13:43:33Z</time><cmt>8.3 kmh</cmt></trkpt>
<trkpt lat="58.870127" lon="05.874798"><ele>23</ele><time>2012-03-31T13:43:34Z</time><cmt>8.4 kmh</cmt></trkpt>
<trkpt lat="58.870111" lon="05.874822"><ele>24</ele><time>2012-03-31T13:43:35Z</time><cmt>8.1 kmh</cmt></trkpt>
<trkpt lat="58.870095" lon="05.874848"><ele>24</ele><time>2012-03-31T13:43:36Z</time><cmt>8.0 kmh</cmt></trkpt>
<trkpt lat="58.870081" lon="05.874875"><ele>24</ele><time>2012-03-31T13:43:37Z</time><cmt>8.0 kmh</cmt></trkpt>
<trkpt lat="58.870067" lon="05.874903"><ele>24</ele><time>2012-03-31T13:43:38Z</time><cmt>7.9 kmh</cmt></trkpt>
<trkpt lat="58.870052" lon="05.874930"><ele>24</ele><time>2012-03-31T13:43:39Z</time><cmt>7.9 kmh</cmt></trkpt>
<trkpt lat="58.870039" lon="05.874957"><ele>24</ele><time>2012-03-31T13:43:40Z</time><cmt>7.5 kmh</cmt></trkpt>
<trkpt lat="58.870026" lon="05.874984"><ele>24</ele><time>2012-03-31T13:43:41Z</time><cmt>7.6 kmh</cmt></trkpt>
<trkpt lat="58.870012" lon="05.875011"><ele>24</ele><time>2012-03-31T13:43:42Z</time><cmt>7.8 kmh</cmt></trkpt>
<trkpt lat="58.869998" lon="05.875039"><ele>24</ele><time>2012-03-31T13:43:43Z</time><cmt>7.7 kmh</cmt></trkpt>
<trkpt lat="58.869986" lon="05.875066"><ele>24</ele><time>2012-03-31T13:43:44Z</time><cmt>7.4 kmh</cmt></trkpt>
<trkpt lat="58.869975" lon="05.875094"><ele>24</ele><time>2012-03-31T13:43:45Z</time><cmt>7.3 kmh</cmt></trkpt>
<trkpt lat="58.869962" lon="05.875122"><ele>24</ele><time>2012-03-31T13:43:46Z</time><cmt>7.5 kmh</cmt></trkpt>
<trkpt lat="58.869951" lon="05.875150"><ele>24</ele><time>2012-03-31T13:43:47Z</time><cmt>7.2 kmh</cmt></trkpt>
<trkpt lat="58.869940" lon="05.875179"><ele>25</ele><time>2012-03-31T13:43:48Z</time><cmt>7.0 kmh</cmt></trkpt>
<trkpt lat="58.869930" lon="05.875207"><ele>25</ele><time>2012-03-31T13:43:49Z</time><cmt>6.9 kmh</cmt></trkpt>
<trkpt lat="58.869920" lon="05.875233"><ele>25</ele><time>2012-03-31T13:43:50Z</time><cmt>6.5 kmh</cmt></trkpt>
<trkpt lat="58.869909" lon="05.875258"><ele>25</ele><time>2012-03-31T13:43:51Z</time><cmt>6.8 kmh</cmt></trkpt>
<trkpt lat="58.869897" lon="05.875284"><ele>25</ele><time>2012-03-31T13:43:52Z</time><cmt>7.1 kmh</cmt></trkpt>
<trkpt lat="58.869886" lon="05.875309"><ele>25</ele><time>2012-03-31T13:43:53Z</time><cmt>7.0 kmh</cmt></trkpt>
<trkpt lat="58.869874" lon="05.875335"><ele>25</ele><time>2012-03-31T13:43:54Z</time><cmt>7.1 kmh</cmt></trkpt>
<trkpt lat="58.869864" lon="05.875360"><ele>25</ele><time>2012-03-31T13:43:55Z</time><cmt>7.0 kmh</cmt></trkpt>
<trkpt lat="58.869852" lon="05.875385"><ele>25</ele><time>2012-03-31T13:43:56Z</time><cmt>7.0 kmh</cmt></trkpt>
<trkpt lat="58.869840" lon="05.875411"><ele>25</ele><time>2012-03-31T13:43:57Z</time><cmt>7.2 kmh</cmt></trkpt>
<trkpt lat="58.869829" lon="05.875439"><ele>25</ele><time>2012-03-31T13:43:58Z</time><cmt>7.3 kmh</cmt></trkpt>
<trkpt lat="58.869819" lon="05.875469"><ele>25</ele><time>2012-03-31T13:43:59Z</time><cmt>7.2 kmh</cmt></trkpt>
<trkpt lat="58.869809" lon="05.875499"><ele>25</ele><time>2012-03-31T13:44:00Z</time><cmt>7.6 kmh</cmt></trkpt>
<trkpt lat="58.869798" lon="05.875529"><ele>25</ele><time>2012-03-31T13:44:01Z</time><cmt>7.3 kmh</cmt></trkpt>
<trkpt lat="58.869788" lon="05.875557"><ele>25</ele><time>2012-03-31T13:44:02Z</time><cmt>6.8 kmh</cmt></trkpt>
<trkpt lat="58.869778" lon="05.875582"><ele>24</ele><time>2012-03-31T13:44:03Z</time><cmt>5.8 kmh</cmt></trkpt>
<trkpt lat="58.869770" lon="05.875604"><ele>24</ele><time>2012-03-31T13:44:04Z</time><cmt>5.8 kmh</cmt></trkpt>
<trkpt lat="58.869762" lon="05.875622"><ele>24</ele><time>2012-03-31T13:44:05Z</time><cmt>4.6 kmh</cmt></trkpt>
<trkpt lat="58.869752" lon="05.875638"><ele>24</ele><time>2012-03-31T13:44:06Z</time><cmt>5.0 kmh</cmt></trkpt>
<trkpt lat="58.869742" lon="05.875653"><ele>24</ele><time>2012-03-31T13:44:07Z</time><cmt>5.1 kmh</cmt></trkpt>
<trkpt lat="58.869731" lon="05.875666"><ele>24</ele><time>2012-03-31T13:44:08Z</time><cmt>5.3 kmh</cmt></trkpt>
<trkpt lat="58.869719" lon="05.875679"><ele>24</ele><time>2012-03-31T13:44:09Z</time><cmt>5.7 kmh</cmt></trkpt>
<trkpt lat="58.869706" lon="05.875689"><ele>24</ele><time>2012-03-31T13:44:10Z</time><cmt>5.5 kmh</cmt></trkpt>
<trkpt lat="58.869693" lon="05.875699"><ele>24</ele><time>2012-03-31T13:44:11Z</time><cmt>6.3 kmh</cmt></trkpt>
<trkpt lat="58.869678" lon="05.875709"><ele>24</ele><time>2012-03-31T13:44:12Z</time><cmt>6.2 kmh</cmt></trkpt>
<trkpt lat="58.869662" lon="05.875717"><ele>24</ele><time>2012-03-31T13:44:13Z</time><cmt>6.6 kmh</cmt></trkpt>
<trkpt lat="58.869646" lon="05.875726"><ele>24</ele><time>2012-03-31T13:44:14Z</time><cmt>6.8 kmh</cmt></trkpt>
<trkpt lat="58.869630" lon="05.875734"><ele>24</ele><time>2012-03-31T13:44:15Z</time><cmt>7.2 kmh</cmt></trkpt>
<trkpt lat="58.869612" lon="05.875742"><ele>24</ele><time>2012-03-31T13:44:16Z</time><cmt>7.0 kmh</cmt></trkpt>
<trkpt lat="58.869595" lon="05.875751"><ele>24</ele><time>2012-03-31T13:44:17Z</time><cmt>7.4 kmh</cmt></trkpt>
<trkpt lat="58.869577" lon="05.875759"><ele>24</ele><time>2012-03-31T13:44:18Z</time><cmt>7.3 kmh</cmt></trkpt>
<trkpt lat="58.869559" lon="05.875767"><ele>24</ele><time>2012-03-31T13:44:19Z</time><cmt>7.6 kmh</cmt></trkpt>
<trkpt lat="58.869540" lon="05.875776"><ele>24</ele><time>2012-03-31T13:44:20Z</time><cmt>7.3 kmh</cmt></trkpt>
<trkpt lat="58.869522" lon="05.875783"><ele>24</ele><time>2012-03-31T13:44:21Z</time><cmt>7.6 kmh</cmt></trkpt>
<trkpt lat="58.869504" lon="05.875791"><ele>24</ele><time>2012-03-31T13:44:22Z</time><cmt>7.3 kmh</cmt></trkpt>
<trkpt lat="58.869485" lon="05.875799"><ele>24</ele><time>2012-03-31T13:44:23Z</time><cmt>7.6 kmh</cmt></trkpt>
<trkpt lat="58.869467" lon="05.875807"><ele>24</ele><time>2012-03-31T13:44:24Z</time><cmt>7.3 kmh</cmt></trkpt>
<trkpt lat="58.869450" lon="05.875817"><ele>24</ele><time>2012-03-31T13:44:25Z</time><cmt>7.1 kmh</cmt></trkpt>
<trkpt lat="58.869432" lon="05.875827"><ele>24</ele><time>2012-03-31T13:44:26Z</time><cmt>7.5 kmh</cmt></trkpt>
<trkpt lat="58.869415" lon="05.875838"><ele>24</ele><time>2012-03-31T13:44:27Z</time><cmt>7.1 kmh</cmt></trkpt>
<trkpt lat="58.869397" lon="05.875850"><ele>24</ele><time>2012-03-31T13:44:28Z</time><cmt>7.4 kmh</cmt></trkpt>
<trkpt lat="58.869380" lon="05.875862"><ele>24</ele><time>2012-03-31T13:44:29Z</time><cmt>7.0 kmh</cmt></trkpt>
<trkpt lat="58.869363" lon="05.875873"><ele>24</ele><time>2012-03-31T13:44:30Z</time><cmt>7.2 kmh</cmt></trkpt>
<trkpt lat="58.869346" lon="05.875884"><ele>24</ele><time>2012-03-31T13:44:31Z</time><cmt>7.0 kmh</cmt></trkpt>
<trkpt lat="58.869329" lon="05.875895"><ele>24</ele><time>2012-03-31T13:44:32Z</time><cmt>7.0 kmh</cmt></trkpt>
<trkpt lat="58.869313" lon="05.875906"><ele>24</ele><time>2012-03-31T13:44:33Z</time><cmt>6.9 kmh</cmt></trkpt>
<trkpt lat="58.869296" lon="05.875915"><ele>24</ele><time>2012-03-31T13:44:34Z</time><cmt>6.7 kmh</cmt></trkpt>
<trkpt lat="58.869280" lon="05.875925"><ele>24</ele><time>2012-03-31T13:44:35Z</time><cmt>6.9 kmh</cmt></trkpt>
<trkpt lat="58.869263" lon="05.875933"><ele>24</ele><time>2012-03-31T13:44:36Z</time><cmt>7.1 kmh</cmt></trkpt>
<trkpt lat="58.869245" lon="05.875942"><ele>24</ele><time>2012-03-31T13:44:37Z</time><cmt>7.1 kmh</cmt></trkpt>
<trkpt lat="58.869228" lon="05.875950"><ele>24</ele><time>2012-03-31T13:44:38Z</time><cmt>6.9 kmh</cmt></trkpt>
<trkpt lat="58.869211" lon="05.875958"><ele>24</ele><time>2012-03-31T13:44:39Z</time><cmt>7.1 kmh</cmt></trkpt>
<trkpt lat="58.869194" lon="05.875966"><ele>24</ele><time>2012-03-31T13:44:40Z</time><cmt>7.2 kmh</cmt></trkpt>
<trkpt lat="58.869176" lon="05.875975"><ele>24</ele><time>2012-03-31T13:44:41Z</time><cmt>7.2 kmh</cmt></trkpt>
<trkpt lat="58.869158" lon="05.875983"><ele>24</ele><time>2012-03-31T13:44:42Z</time><cmt>6.9 kmh</cmt></trkpt>
<trkpt lat="58.869141" lon="05.875992"><ele>24</ele><time>2012-03-31T13:44:43Z</time><cmt>6.9 kmh</cmt></trkpt>
<trkpt lat="58.869125" lon="05.876001"><ele>24</ele><time>2012-03-31T13:44:44Z</time><cmt>6.8 kmh</cmt></trkpt>
<trkpt lat="58.869108" lon="05.876009"><ele>24</ele><time>2012-03-31T13:44:45Z</time><cmt>6.8 kmh</cmt></trkpt>
<trkpt lat="58.869092" lon="05.876018"><ele>24</ele><time>2012-03-31T13:44:46Z</time><cmt>6.7 kmh</cmt></trkpt>
<trkpt lat="58.869075" lon="05.876026"><ele>24</ele><time>2012-03-31T13:44:47Z</time><cmt>6.7 kmh</cmt></trkpt>
<trkpt lat="58.869058" lon="05.876036"><ele>24</ele><time>2012-03-31T13:44:48Z</time><cmt>7.1 kmh</cmt></trkpt>
<trkpt lat="58.869041" lon="05.876045"><ele>24</ele><time>2012-03-31T13:44:49Z</time><cmt>7.1 kmh</cmt></trkpt>
<trkpt lat="58.869024" lon="05.876055"><ele>24</ele><time>2012-03-31T13:44:50Z</time><cmt>7.1 kmh</cmt></trkpt>
<trkpt lat="58.869007" lon="05.876065"><ele>24</ele><time>2012-03-31T13:44:51Z</time><cmt>7.1 kmh</cmt></trkpt>
<trkpt lat="58.868990" lon="05.876076"><ele>24</ele><time>2012-03-31T13:44:52Z</time><cmt>6.9 kmh</cmt></trkpt>
<trkpt lat="58.868974" lon="05.876086"><ele>24</ele><time>2012-03-31T13:44:53Z</time><cmt>7.1 kmh</cmt></trkpt>
<trkpt lat="58.868957" lon="05.876097"><ele>24</ele><time>2012-03-31T13:44:54Z</time><cmt>6.9 kmh</cmt></trkpt>
<trkpt lat="58.868941" lon="05.876108"><ele>24</ele><time>2012-03-31T13:44:55Z</time><cmt>7.1 kmh</cmt></trkpt>
<trkpt lat="58.868924" lon="05.876119"><ele>24</ele><time>2012-03-31T13:44:56Z</time><cmt>6.9 kmh</cmt></trkpt>
<trkpt lat="58.868907" lon="05.876129"><ele>24</ele><time>2012-03-31T13:44:57Z</time><cmt>7.1 kmh</cmt></trkpt>
<trkpt lat="58.868890" lon="05.876138"><ele>24</ele><time>2012-03-31T13:44:58Z</time><cmt>7.0 kmh</cmt></trkpt>
<trkpt lat="58.868873" lon="05.876147"><ele>24</ele><time>2012-03-31T13:44:59Z</time><cmt>7.1 kmh</cmt></trkpt>
<trkpt lat="58.868856" lon="05.876156"><ele>24</ele><time>2012-03-31T13:45:00Z</time><cmt>7.1 kmh</cmt></trkpt>
<trkpt lat="58.868839" lon="05.876164"><ele>24</ele><time>2012-03-31T13:45:01Z</time><cmt>7.2 kmh</cmt></trkpt>
<trkpt lat="58.868822" lon="05.876173"><ele>24</ele><time>2012-03-31T13:45:02Z</time><cmt>7.2 kmh</cmt></trkpt>
<trkpt lat="58.868804" lon="05.876181"><ele>24</ele><time>2012-03-31T13:45:03Z</time><cmt>7.2 kmh</cmt></trkpt>
<trkpt lat="58.868787" lon="05.876189"><ele>24</ele><time>2012-03-31T13:45:04Z</time><cmt>6.9 kmh</cmt></trkpt>
<trkpt lat="58.868770" lon="05.876197"><ele>24</ele><time>2012-03-31T13:45:05Z</time><cmt>6.9 kmh</cmt></trkpt>
<trkpt lat="58.868753" lon="05.876204"><ele>24</ele><time>2012-03-31T13:45:06Z</time><cmt>6.7 kmh</cmt></trkpt>
<trkpt lat="58.868737" lon="05.876212"><ele>24</ele><time>2012-03-31T13:45:07Z</time><cmt>6.8 kmh</cmt></trkpt>
<trkpt lat="58.868720" lon="05.876219"><ele>24</ele><time>2012-03-31T13:45:08Z</time><cmt>6.8 kmh</cmt></trkpt>
<trkpt lat="58.868703" lon="05.876226"><ele>24</ele><time>2012-03-31T13:45:09Z</time><cmt>6.8 kmh</cmt></trkpt>
<trkpt lat="58.868687" lon="05.876233"><ele>24</ele><time>2012-03-31T13:45:10Z</time><cmt>6.7 kmh</cmt></trkpt>
<trkpt lat="58.868670" lon="05.876241"><ele>24</ele><time>2012-03-31T13:45:11Z</time><cmt>6.8 kmh</cmt></trkpt>
<trkpt lat="58.868654" lon="05.876249"><ele>24</ele><time>2012-03-31T13:45:12Z</time><cmt>6.8 kmh</cmt></trkpt>
<trkpt lat="58.868637" lon="05.876258"><ele>24</ele><time>2012-03-31T13:45:13Z</time><cmt>6.9 kmh</cmt></trkpt>
<trkpt lat="58.868621" lon="05.876267"><ele>24</ele><time>2012-03-31T13:45:14Z</time><cmt>6.9 kmh</cmt></trkpt>
<trkpt lat="58.868605" lon="05.876278"><ele>24</ele><time>2012-03-31T13:45:15Z</time><cmt>6.6 kmh</cmt></trkpt>
<trkpt lat="58.868589" lon="05.876288"><ele>24</ele><time>2012-03-31T13:45:16Z</time><cmt>6.8 kmh</cmt></trkpt>
<trkpt lat="58.868573" lon="05.876300"><ele>24</ele><time>2012-03-31T13:45:17Z</time><cmt>6.7 kmh</cmt></trkpt>
<trkpt lat="58.868557" lon="05.876311"><ele>24</ele><time>2012-03-31T13:45:18Z</time><cmt>6.7 kmh</cmt></trkpt>
<trkpt lat="58.868541" lon="05.876321"><ele>24</ele><time>2012-03-31T13:45:19Z</time><cmt>6.7 kmh</cmt></trkpt>
<trkpt lat="58.868525" lon="05.876331"><ele>24</ele><time>2012-03-31T13:45:20Z</time><cmt>6.7 kmh</cmt></trkpt>
<trkpt lat="58.868509" lon="05.876340"><ele>24</ele><time>2012-03-31T13:45:21Z</time><cmt>6.8 kmh</cmt></trkpt>
<trkpt lat="58.868493" lon="05.876347"><ele>24</ele><time>2012-03-31T13:45:22Z</time><cmt>6.6 kmh</cmt></trkpt>
<trkpt lat="58.868476" lon="05.876353"><ele>24</ele><time>2012-03-31T13:45:23Z</time><cmt>6.9 kmh</cmt></trkpt>
<trkpt lat="58.868460" lon="05.876358"><ele>24</ele><time>2012-03-31T13:45:24Z</time><cmt>6.7 kmh</cmt></trkpt>
<trkpt lat="58.868444" lon="05.876361"><ele>24</ele><time>2012-03-31T13:45:25Z</time><cmt>6.4 kmh</cmt></trkpt>
<trkpt lat="58.868428" lon="05.876364"><ele>24</ele><time>2012-03-31T13:45:26Z</time><cmt>5.8 kmh</cmt></trkpt>
<trkpt lat="58.868414" lon="05.876367"><ele>24</ele><time>2012-03-31T13:45:27Z</time><cmt>5.0 kmh</cmt></trkpt>
<trkpt lat="58.868402" lon="05.876370"><ele>24</ele><time>2012-03-31T13:45:28Z</time><cmt>5.0 kmh</cmt></trkpt>
<trkpt lat="58.868390" lon="05.876374"><ele>24</ele><time>2012-03-31T13:45:29Z</time><cmt>5.0 kmh</cmt></trkpt>
<trkpt lat="58.868379" lon="05.876377"><ele>24</ele><time>2012-03-31T13:45:30Z</time><cmt>5.0 kmh</cmt></trkpt>
<trkpt lat="58.868367" lon="05.876378"><ele>24</ele><time>2012-03-31T13:45:31Z</time><cmt>4.1 kmh</cmt></trkpt>
<trkpt lat="58.868354" lon="05.876379"><ele>24</ele><time>2012-03-31T13:45:32Z</time><cmt>5.4 kmh</cmt></trkpt>
<trkpt lat="58.868342" lon="05.876379"><ele>24</ele><time>2012-03-31T13:45:33Z</time><cmt>5.4 kmh</cmt></trkpt>
<trkpt lat="58.868330" lon="05.876377"><ele>24</ele><time>2012-03-31T13:45:34Z</time><cmt>5.0 kmh</cmt></trkpt>
<trkpt lat="58.868318" lon="05.876375"><ele>24</ele><time>2012-03-31T13:45:35Z</time><cmt>5.0 kmh</cmt></trkpt>
<trkpt lat="58.868306" lon="05.876373"><ele>24</ele><time>2012-03-31T13:45:36Z</time><cmt>5.0 kmh</cmt></trkpt>
<trkpt lat="58.868294" lon="05.876371"><ele>24</ele><time>2012-03-31T13:45:37Z</time><cmt>4.1 kmh</cmt></trkpt>
<trkpt lat="58.868282" lon="05.876366"><ele>24</ele><time>2012-03-31T13:45:38Z</time><cmt>4.2 kmh</cmt></trkpt>
<trkpt lat="58.868271" lon="05.876359"><ele>24</ele><time>2012-03-31T13:45:39Z</time><cmt>5.0 kmh</cmt></trkpt>
<trkpt lat="58.868260" lon="05.876352"><ele>24</ele><time>2012-03-31T13:45:40Z</time><cmt>5.0 kmh</cmt></trkpt>
<trkpt lat="58.868249" lon="05.876344"><ele>24</ele><time>2012-03-31T13:45:41Z</time><cmt>5.0 kmh</cmt></trkpt>
<trkpt lat="58.868239" lon="05.876335"><ele>24</ele><time>2012-03-31T13:45:42Z</time><cmt>4.8 kmh</cmt></trkpt>
<trkpt lat="58.868231" lon="05.876326"><ele>24</ele><time>2012-03-31T13:45:43Z</time><cmt>3.5 kmh</cmt></trkpt>
<trkpt lat="58.868223" lon="05.876318"><ele>24</ele><time>2012-03-31T13:45:44Z</time><cmt>3.2 kmh</cmt></trkpt>
<trkpt lat="58.868217" lon="05.876310"><ele>24</ele><time>2012-03-31T13:45:45Z</time><cmt>3.6 kmh</cmt></trkpt>
<trkpt lat="58.868212" lon="05.876302"><ele>24</ele><time>2012-03-31T13:45:46Z</time><cmt>3.1 kmh</cmt></trkpt>
<trkpt lat="58.868208" lon="05.876296"><ele>24</ele><time>2012-03-31T13:45:47Z</time><cmt>2.5 kmh</cmt></trkpt>
<trkpt lat="58.868205" lon="05.876292"><ele>24</ele><time>2012-03-31T13:45:48Z</time><cmt>1.9 kmh</cmt></trkpt>
<trkpt lat="58.868202" lon="05.876289"><ele>24</ele><time>2012-03-31T13:45:49Z</time><cmt>1.2 kmh</cmt></trkpt>
<trkpt lat="58.868200" lon="05.876286"><ele>24</ele><time>2012-03-31T13:45:50Z</time><cmt>1.0 kmh</cmt></trkpt>
<trkpt lat="58.868199" lon="05.876281"><ele>24</ele><time>2012-03-31T13:45:51Z</time><cmt>1.2 kmh</cmt></trkpt>
<trkpt lat="58.868198" lon="05.876273"><ele>24</ele><time>2012-03-31T13:45:52Z</time><cmt>1.5 kmh</cmt></trkpt>
<trkpt lat="58.868199" lon="05.876264"><ele>24</ele><time>2012-03-31T13:45:53Z</time><cmt>1.9 kmh</cmt></trkpt>
<trkpt lat="58.868201" lon="05.876255"><ele>25</ele><time>2012-03-31T13:45:54Z</time><cmt>2.1 kmh</cmt></trkpt>
<trkpt lat="58.868204" lon="05.876245"><ele>25</ele><time>2012-03-31T13:45:55Z</time><cmt>1.9 kmh</cmt></trkpt>
<trkpt lat="58.868207" lon="05.876235"><ele>25</ele><time>2012-03-31T13:45:56Z</time><cmt>2.2 kmh</cmt></trkpt>
<trkpt lat="58.868211" lon="05.876225"><ele>25</ele><time>2012-03-31T13:45:57Z</time><cmt>2.8 kmh</cmt></trkpt>
<trkpt lat="58.868215" lon="05.876214"><ele>25</ele><time>2012-03-31T13:45:58Z</time><cmt>2.9 kmh</cmt></trkpt>
<trkpt lat="58.868220" lon="05.876203"><ele>25</ele><time>2012-03-31T13:45:59Z</time><cmt>3.1 kmh</cmt></trkpt>
<trkpt lat="58.868226" lon="05.876191"><ele>25</ele><time>2012-03-31T13:46:00Z</time><cmt>3.4 kmh</cmt></trkpt>
<trkpt lat="58.868231" lon="05.876178"><ele>25</ele><time>2012-03-31T13:46:01Z</time><cmt>3.7 kmh</cmt></trkpt>
<trkpt lat="58.868237" lon="05.876164"><ele>25</ele><time>2012-03-31T13:46:02Z</time><cmt>3.1 kmh</cmt></trkpt>
<trkpt lat="58.868243" lon="05.876150"><ele>25</ele><time>2012-03-31T13:46:03Z</time><cmt>3.2 kmh</cmt></trkpt>
<trkpt lat="58.868248" lon="05.876134"><ele>25</ele><time>2012-03-31T13:46:04Z</time><cmt>4.2 kmh</cmt></trkpt>
<trkpt lat="58.868255" lon="05.876119"><ele>25</ele><time>2012-03-31T13:46:05Z</time><cmt>4.4 kmh</cmt></trkpt>
<trkpt lat="58.868262" lon="05.876102"><ele>25</ele><time>2012-03-31T13:46:06Z</time><cmt>4.6 kmh</cmt></trkpt>
<trkpt lat="58.868269" lon="05.876085"><ele>25</ele><time>2012-03-31T13:46:07Z</time><cmt>4.9 kmh</cmt></trkpt>
<trkpt lat="58.868277" lon="05.876067"><ele>25</ele><time>2012-03-31T13:46:08Z</time><cmt>4.1 kmh</cmt></trkpt>
<trkpt lat="58.868284" lon="05.876048"><ele>25</ele><time>2012-03-31T13:46:09Z</time><cmt>4.2 kmh</cmt></trkpt>
<trkpt lat="58.868292" lon="05.876030"><ele>25</ele><time>2012-03-31T13:46:10Z</time><cmt>5.0 kmh</cmt></trkpt>
<trkpt lat="58.868299" lon="05.876011"><ele>25</ele><time>2012-03-31T13:46:11Z</time><cmt>5.0 kmh</cmt></trkpt>
<trkpt lat="58.868306" lon="05.875994"><ele>25</ele><time>2012-03-31T13:46:12Z</time><cmt>5.0 kmh</cmt></trkpt>
<trkpt lat="58.868313" lon="05.875976"><ele>25</ele><time>2012-03-31T13:46:13Z</time><cmt>5.0 kmh</cmt></trkpt>
<trkpt lat="58.868320" lon="05.875958"><ele>25</ele><time>2012-03-31T13:46:14Z</time><cmt>4.0 kmh</cmt></trkpt>
<trkpt lat="58.868327" lon="05.875939"><ele>25</ele><time>2012-03-31T13:46:15Z</time><cmt>4.0 kmh</cmt></trkpt>
<trkpt lat="58.868333" lon="05.875920"><ele>25</ele><time>2012-03-31T13:46:16Z</time><cmt>5.0 kmh</cmt></trkpt>
<trkpt lat="58.868338" lon="05.875900"><ele>25</ele><time>2012-03-31T13:46:17Z</time><cmt>5.0 kmh</cmt></trkpt>
<trkpt lat="58.868344" lon="05.875880"><ele>25</ele><time>2012-03-31T13:46:18Z</time><cmt>5.0 kmh</cmt></trkpt>
<trkpt lat="58.868349" lon="05.875863"><ele>25</ele><time>2012-03-31T13:46:19Z</time><cmt>4.7 kmh</cmt></trkpt>
<trkpt lat="58.868355" lon="05.875848"><ele>25</ele><time>2012-03-31T13:46:20Z</time><cmt>3.4 kmh</cmt></trkpt>
<trkpt lat="58.868360" lon="05.875836"><ele>25</ele><time>2012-03-31T13:46:21Z</time><cmt>3.1 kmh</cmt></trkpt>
<trkpt lat="58.868365" lon="05.875826"><ele>25</ele><time>2012-03-31T13:46:22Z</time><cmt>3.4 kmh</cmt></trkpt>
<trkpt lat="58.868371" lon="05.875816"><ele>24</ele><time>2012-03-31T13:46:23Z</time><cmt>3.2 kmh</cmt></trkpt>
<trkpt lat="58.868377" lon="05.875806"><ele>24</ele><time>2012-03-31T13:46:24Z</time><cmt>3.5 kmh</cmt></trkpt>
<trkpt lat="58.868384" lon="05.875796"><ele>24</ele><time>2012-03-31T13:46:25Z</time><cmt>3.7 kmh</cmt></trkpt>
<trkpt lat="58.868392" lon="05.875785"><ele>24</ele><time>2012-03-31T13:46:26Z</time><cmt>3.1 kmh</cmt></trkpt>
<trkpt lat="58.868399" lon="05.875773"><ele>24</ele><time>2012-03-31T13:46:27Z</time><cmt>3.3 kmh</cmt></trkpt>
<trkpt lat="58.868406" lon="05.875761"><ele>24</ele><time>2012-03-31T13:46:28Z</time><cmt>4.2 kmh</cmt></trkpt>
<trkpt lat="58.868427" lon="05.875729"><ele>24</ele><time>2012-03-31T13:46:31Z</time><cmt>3.8 kmh</cmt></trkpt>
<trkpt lat="58.868443" lon="05.875708"><ele>24</ele><time>2012-03-31T13:46:33Z</time><cmt>5.0 kmh</cmt></trkpt>
<trkpt lat="58.868476" lon="05.875653"><ele>24</ele><time>2012-03-31T13:46:40Z</time><cmt>5.0 kmh</cmt></trkpt>
<trkpt lat="58.868486" lon="05.875612"><ele>23</ele><time>2012-03-31T13:46:43Z</time><cmt>3.4 kmh</cmt></trkpt>
<trkpt lat="58.868491" lon="05.875572"><ele>23</ele><time>2012-03-31T13:46:45Z</time><cmt>5.0 kmh</cmt></trkpt>
<trkpt lat="58.868493" lon="05.875527"><ele>23</ele><time>2012-03-31T13:46:47Z</time><cmt>4.3 kmh</cmt></trkpt>
<trkpt lat="58.868495" lon="05.875480"><ele>23</ele><time>2012-03-31T13:46:49Z</time><cmt>5.0 kmh</cmt></trkpt>
<trkpt lat="58.868496" lon="05.875442"><ele>23</ele><time>2012-03-31T13:46:50Z</time><cmt>5.0 kmh</cmt></trkpt>
<trkpt lat="58.868496" lon="05.875421"><ele>23</ele><time>2012-03-31T13:46:51Z</time><cmt>5.0 kmh</cmt></trkpt>
<trkpt lat="58.868495" lon="05.875399"><ele>23</ele><time>2012-03-31T13:46:52Z</time><cmt>5.1 kmh</cmt></trkpt>
<trkpt lat="58.868494" lon="05.875375"><ele>23</ele><time>2012-03-31T13:46:53Z</time><cmt>5.1 kmh</cmt></trkpt>
<trkpt lat="58.868493" lon="05.875351"><ele>23</ele><time>2012-03-31T13:46:54Z</time><cmt>5.1 kmh</cmt></trkpt>
<trkpt lat="58.868492" lon="05.875326"><ele>23</ele><time>2012-03-31T13:46:55Z</time><cmt>5.1 kmh</cmt></trkpt>
<trkpt lat="58.868491" lon="05.875303"><ele>23</ele><time>2012-03-31T13:46:56Z</time><cmt>5.0 kmh</cmt></trkpt>
<trkpt lat="58.868490" lon="05.875282"><ele>23</ele><time>2012-03-31T13:46:57Z</time><cmt>3.9 kmh</cmt></trkpt>
<trkpt lat="58.868491" lon="05.875266"><ele>23</ele><time>2012-03-31T13:46:58Z</time><cmt>3.3 kmh</cmt></trkpt>
<trkpt lat="58.868492" lon="05.875254"><ele>23</ele><time>2012-03-31T13:46:59Z</time><cmt>3.2 kmh</cmt></trkpt>
<trkpt lat="58.868493" lon="05.875243"><ele>23</ele><time>2012-03-31T13:47:00Z</time><cmt>2.7 kmh</cmt></trkpt>
<trkpt lat="58.868495" lon="05.875234"><ele>23</ele><time>2012-03-31T13:47:01Z</time><cmt>2.3 kmh</cmt></trkpt>
<trkpt lat="58.868498" lon="05.875222"><ele>23</ele><time>2012-03-31T13:47:02Z</time><cmt>2.6 kmh</cmt></trkpt>
<trkpt lat="58.868502" lon="05.875210"><ele>23</ele><time>2012-03-31T13:47:03Z</time><cmt>3.1 kmh</cmt></trkpt>
<trkpt lat="58.868507" lon="05.875198"><ele>23</ele><time>2012-03-31T13:47:04Z</time><cmt>2.6 kmh</cmt></trkpt>
<trkpt lat="58.868511" lon="05.875188"><ele>23</ele><time>2012-03-31T13:47:05Z</time><cmt>2.5 kmh</cmt></trkpt>
<trkpt lat="58.868558" lon="05.875150"><ele>19</ele><time>2012-03-31T13:47:49Z</time><cmt>5.0 kmh</cmt></trkpt>
<trkpt lat="58.868542" lon="05.875185"><ele>24</ele><time>2012-03-31T13:51:13Z</time><cmt>4.3 kmh</cmt></trkpt>
<trkpt lat="58.868537" lon="05.875190"><ele>24</ele><time>2012-03-31T13:51:14Z</time><cmt>5.0 kmh</cmt></trkpt>
<trkpt lat="58.868533" lon="05.875193"><ele>25</ele><time>2012-03-31T13:51:15Z</time><cmt>2.0 kmh</cmt></trkpt>
<trkpt lat="58.868532" lon="05.875194"><ele>25</ele><time>2012-03-31T13:51:16Z</time><cmt>1.3 kmh</cmt></trkpt>
<trkpt lat="58.868530" lon="05.875195"><ele>25</ele><time>2012-03-31T13:51:17Z</time><cmt>0.6 kmh</cmt></trkpt>
<trkpt lat="58.868529" lon="05.875196"><ele>26</ele><time>2012-03-31T13:51:18Z</time><cmt>0.5 kmh</cmt></trkpt>
<trkpt lat="58.868527" lon="05.875197"><ele>26</ele><time>2012-03-31T13:51:19Z</time><cmt>0.6 kmh</cmt></trkpt>
<trkpt lat="58.868526" lon="05.875197"><ele>26</ele><time>2012-03-31T13:51:20Z</time><cmt>0.3 kmh</cmt></trkpt>
<trkpt lat="58.868526" lon="05.875198"><ele>27</ele><time>2012-03-31T13:51:21Z</time><cmt>0.2 kmh</cmt></trkpt>
<trkpt lat="58.868525" lon="05.875198"><ele>27</ele><time>2012-03-31T13:51:22Z</time><cmt>0.4 kmh</cmt></trkpt>
<trkpt lat="58.868524" lon="05.875198"><ele>27</ele><time>2012-03-31T13:51:23Z</time><cmt>0.4 kmh</cmt></trkpt>
<trkpt lat="58.868523" lon="05.875198"><ele>27</ele><time>2012-03-31T13:51:24Z</time><cmt>0.3 kmh</cmt></trkpt>
<trkpt lat="58.868523" lon="05.875199"><ele>27</ele><time>2012-03-31T13:51:25Z</time><cmt>0.0 kmh</cmt></trkpt>
<trkpt lat="58.868523" lon="05.875198"><ele>28</ele><time>2012-03-31T13:51:26Z</time><cmt>0.0 kmh</cmt></trkpt>
<trkpt lat="58.868522" lon="05.875198"><ele>28</ele><time>2012-03-31T13:51:27Z</time><cmt>0.0 kmh</cmt></trkpt>
<trkpt lat="58.868522" lon="05.875198"><ele>28</ele><time>2012-03-31T13:51:28Z</time><cmt>0.0 kmh</cmt></trkpt>
<trkpt lat="58.868522" lon="05.875197"><ele>28</ele><time>2012-03-31T13:51:29Z</time><cmt>0.0 kmh</cmt></trkpt>
<trkpt lat="58.868522" lon="05.875197"><ele>28</ele><time>2012-03-31T13:51:30Z</time><cmt>0.0 kmh</cmt></trkpt>
<trkpt lat="58.868522" lon="05.875197"><ele>28</ele><time>2012-03-31T13:51:31Z</time><cmt>0.0 kmh</cmt></trkpt>
<trkpt lat="58.868522" lon="05.875196"><ele>28</ele><time>2012-03-31T13:51:32Z</time><cmt>0.0 kmh</cmt></trkpt>
<trkpt lat="58.868522" lon="05.875195"><ele>28</ele><time>2012-03-31T13:51:33Z</time><cmt>0.0 kmh</cmt></trkpt>
<trkpt lat="58.868523" lon="05.875195"><ele>28</ele><time>2012-03-31T13:51:34Z</time><cmt>0.0 kmh</cmt></trkpt>
<trkpt lat="58.868523" lon="05.875194"><ele>28</ele><time>2012-03-31T13:51:35Z</time><cmt>0.0 kmh</cmt></trkpt>
<trkpt lat="58.868523" lon="05.875194"><ele>28</ele><time>2012-03-31T13:51:36Z</time><cmt>0.0 kmh</cmt></trkpt>
<trkpt lat="58.868524" lon="05.875193"><ele>28</ele><time>2012-03-31T13:51:37Z</time><cmt>0.0 kmh</cmt></trkpt>
<trkpt lat="58.868524" lon="05.875192"><ele>28</ele><time>2012-03-31T13:51:38Z</time><cmt>0.0 kmh</cmt></trkpt>
<trkpt lat="58.868524" lon="05.875192"><ele>28</ele><time>2012-03-31T13:51:39Z</time><cmt>0.2 kmh</cmt></trkpt>
<trkpt lat="58.868525" lon="05.875191"><ele>28</ele><time>2012-03-31T13:51:40Z</time><cmt>0.4 kmh</cmt></trkpt>
<trkpt lat="58.868524" lon="05.875191"><ele>28</ele><time>2012-03-31T13:51:41Z</time><cmt>0.2 kmh</cmt></trkpt>
<trkpt lat="58.868523" lon="05.875192"><ele>28</ele><time>2012-03-31T13:51:42Z</time><cmt>0.3 kmh</cmt></trkpt>
<trkpt lat="58.868521" lon="05.875193"><ele>28</ele><time>2012-03-31T13:51:43Z</time><cmt>0.6 kmh</cmt></trkpt>
<trkpt lat="58.868519" lon="05.875195"><ele>28</ele><time>2012-03-31T13:51:44Z</time><cmt>0.7 kmh</cmt></trkpt>
<trkpt lat="58.868517" lon="05.875196"><ele>28</ele><time>2012-03-31T13:51:45Z</time><cmt>0.8 kmh</cmt></trkpt>
<trkpt lat="58.868516" lon="05.875198"><ele>28</ele><time>2012-03-31T13:51:46Z</time><cmt>0.7 kmh</cmt></trkpt>
<trkpt lat="58.868514" lon="05.875200"><ele>28</ele><time>2012-03-31T13:51:47Z</time><cmt>0.7 kmh</cmt></trkpt>
<trkpt lat="58.868513" lon="05.875201"><ele>28</ele><time>2012-03-31T13:51:48Z</time><cmt>0.7 kmh</cmt></trkpt>
<trkpt lat="58.868511" lon="05.875203"><ele>28</ele><time>2012-03-31T13:51:49Z</time><cmt>0.7 kmh</cmt></trkpt>
<trkpt lat="58.868510" lon="05.875203"><ele>28</ele><time>2012-03-31T13:51:50Z</time><cmt>0.6 kmh</cmt></trkpt>
<trkpt lat="58.868508" lon="05.875204"><ele>28</ele><time>2012-03-31T13:51:51Z</time><cmt>0.6 kmh</cmt></trkpt>
<trkpt lat="58.868507" lon="05.875205"><ele>28</ele><time>2012-03-31T13:51:52Z</time><cmt>0.6 kmh</cmt></trkpt>
<trkpt lat="58.868506" lon="05.875206"><ele>28</ele><time>2012-03-31T13:51:53Z</time><cmt>0.3 kmh</cmt></trkpt>
<trkpt lat="58.868506" lon="05.875206"><ele>28</ele><time>2012-03-31T13:51:54Z</time><cmt>0.0 kmh</cmt></trkpt>
<trkpt lat="58.868505" lon="05.875207"><ele>29</ele><time>2012-03-31T13:51:55Z</time><cmt>0.0 kmh</cmt></trkpt>
<trkpt lat="58.868504" lon="05.875208"><ele>29</ele><time>2012-03-31T13:51:56Z</time><cmt>0.1 kmh</cmt></trkpt>
<trkpt lat="58.868502" lon="05.875209"><ele>29</ele><time>2012-03-31T13:51:57Z</time><cmt>0.4 kmh</cmt></trkpt>
<trkpt lat="58.868501" lon="05.875209"><ele>29</ele><time>2012-03-31T13:51:58Z</time><cmt>0.5 kmh</cmt></trkpt>
<trkpt lat="58.868501" lon="05.875210"><ele>29</ele><time>2012-03-31T13:51:59Z</time><cmt>0.3 kmh</cmt></trkpt>
<trkpt lat="58.868502" lon="05.875210"><ele>29</ele><time>2012-03-31T13:52:00Z</time><cmt>0.0 kmh</cmt></trkpt>
<trkpt lat="58.868502" lon="05.875209"><ele>29</ele><time>2012-03-31T13:52:01Z</time><cmt>0.0 kmh</cmt></trkpt>
<trkpt lat="58.868503" lon="05.875209"><ele>29</ele><time>2012-03-31T13:52:02Z</time><cmt>0.0 kmh</cmt></trkpt>
<trkpt lat="58.868503" lon="05.875208"><ele>29</ele><time>2012-03-31T13:52:03Z</time><cmt>0.0 kmh</cmt></trkpt>
<trkpt lat="58.868504" lon="05.875208"><ele>29</ele><time>2012-03-31T13:52:04Z</time><cmt>0.0 kmh</cmt></trkpt>
<trkpt lat="58.868505" lon="05.875207"><ele>28</ele><time>2012-03-31T13:52:05Z</time><cmt>0.0 kmh</cmt></trkpt>
<trkpt lat="58.868506" lon="05.875206"><ele>28</ele><time>2012-03-31T13:52:06Z</time><cmt>0.2 kmh</cmt></trkpt>
<trkpt lat="58.868506" lon="05.875206"><ele>28</ele><time>2012-03-31T13:52:07Z</time><cmt>0.4 kmh</cmt></trkpt>
<trkpt lat="58.868507" lon="05.875205"><ele>28</ele><time>2012-03-31T13:52:08Z</time><cmt>0.4 kmh</cmt></trkpt>
<trkpt lat="58.868508" lon="05.875204"><ele>28</ele><time>2012-03-31T13:52:09Z</time><cmt>0.2 kmh</cmt></trkpt>
<trkpt lat="58.868509" lon="05.875203"><ele>28</ele><time>2012-03-31T13:52:10Z</time><cmt>0.0 kmh</cmt></trkpt>
<trkpt lat="58.868510" lon="05.875202"><ele>28</ele><time>2012-03-31T13:52:11Z</time><cmt>0.3 kmh</cmt></trkpt>
<trkpt lat="58.868510" lon="05.875201"><ele>27</ele><time>2012-03-31T13:52:12Z</time><cmt>0.5 kmh</cmt></trkpt>
<trkpt lat="58.868511" lon="05.875201"><ele>27</ele><time>2012-03-31T13:52:13Z</time><cmt>0.4 kmh</cmt></trkpt>
<trkpt lat="58.868512" lon="05.875201"><ele>27</ele><time>2012-03-31T13:52:14Z</time><cmt>0.1 kmh</cmt></trkpt>
<trkpt lat="58.868512" lon="05.875201"><ele>27</ele><time>2012-03-31T13:52:15Z</time><cmt>0.0 kmh</cmt></trkpt>
<trkpt lat="58.868512" lon="05.875201"><ele>27</ele><time>2012-03-31T13:52:16Z</time><cmt>0.0 kmh</cmt></trkpt>
<trkpt lat="58.868513" lon="05.875201"><ele>26</ele><time>2012-03-31T13:52:17Z</time><cmt>0.0 kmh</cmt></trkpt>
<trkpt lat="58.868513" lon="05.875201"><ele>26</ele><time>2012-03-31T13:52:18Z</time><cmt>0.0 kmh</cmt></trkpt>
<trkpt lat="58.868514" lon="05.875201"><ele>26</ele><time>2012-03-31T13:52:19Z</time><cmt>0.0 kmh</cmt></trkpt>
<trkpt lat="58.868514" lon="05.875201"><ele>26</ele><time>2012-03-31T13:52:20Z</time><cmt>0.0 kmh</cmt></trkpt>
<trkpt lat="58.868513" lon="05.875202"><ele>26</ele><time>2012-03-31T13:52:21Z</time><cmt>0.1 kmh</cmt></trkpt>
<trkpt lat="58.868512" lon="05.875203"><ele>25</ele><time>2012-03-31T13:52:22Z</time><cmt>0.1 kmh</cmt></trkpt>
<trkpt lat="58.868512" lon="05.875203"><ele>25</ele><time>2012-03-31T13:52:23Z</time><cmt>0.0 kmh</cmt></trkpt>
<trkpt lat="58.868512" lon="05.875203"><ele>25</ele><time>2012-03-31T13:52:24Z</time><cmt>0.0 kmh</cmt></trkpt>
<trkpt lat="58.868512" lon="05.875203"><ele>25</ele><time>2012-03-31T13:52:25Z</time><cmt>0.2 kmh</cmt></trkpt>
<trkpt lat="58.868512" lon="05.875203"><ele>25</ele><time>2012-03-31T13:52:26Z</time><cmt>0.2 kmh</cmt></trkpt>
<trkpt lat="58.868511" lon="05.875204"><ele>25</ele><time>2012-03-31T13:52:27Z</time><cmt>0.2 kmh</cmt></trkpt>
<trkpt lat="58.868510" lon="05.875205"><ele>25</ele><time>2012-03-31T13:52:28Z</time><cmt>0.4 kmh</cmt></trkpt>
<trkpt lat="58.868509" lon="05.875206"><ele>25</ele><time>2012-03-31T13:52:29Z</time><cmt>0.5 kmh</cmt></trkpt>
<trkpt lat="58.868509" lon="05.875207"><ele>25</ele><time>2012-03-31T13:52:30Z</time><cmt>0.5 kmh</cmt></trkpt>
<trkpt lat="58.868508" lon="05.875208"><ele>25</ele><time>2012-03-31T13:52:31Z</time><cmt>0.5 kmh</cmt></trkpt>
<trkpt lat="58.868507" lon="05.875209"><ele>25</ele><time>2012-03-31T13:52:32Z</time><cmt>0.5 kmh</cmt></trkpt>
<trkpt lat="58.868507" lon="05.875210"><ele>25</ele><time>2012-03-31T13:52:33Z</time><cmt>0.2 kmh</cmt></trkpt>
<trkpt lat="58.868506" lon="05.875210"><ele>25</ele><time>2012-03-31T13:52:34Z</time><cmt>0.2 kmh</cmt></trkpt>
<trkpt lat="58.868505" lon="05.875211"><ele>25</ele><time>2012-03-31T13:52:35Z</time><cmt>0.5 kmh</cmt></trkpt>
<trkpt lat="58.868504" lon="05.875211"><ele>25</ele><time>2012-03-31T13:52:36Z</time><cmt>0.5 kmh</cmt></trkpt>
<trkpt lat="58.868503" lon="05.875212"><ele>25</ele><time>2012-03-31T13:52:37Z</time><cmt>0.5 kmh</cmt></trkpt>
<trkpt lat="58.868502" lon="05.875213"><ele>25</ele><time>2012-03-31T13:52:38Z</time><cmt>0.4 kmh</cmt></trkpt>
<trkpt lat="58.868501" lon="05.875214"><ele>25</ele><time>2012-03-31T13:52:39Z</time><cmt>0.4 kmh</cmt></trkpt>
<trkpt lat="58.868500" lon="05.875214"><ele>25</ele><time>2012-03-31T13:52:40Z</time><cmt>0.2 kmh</cmt></trkpt>
<trkpt lat="58.868499" lon="05.875215"><ele>25</ele><time>2012-03-31T13:52:41Z</time><cmt>0.0 kmh</cmt></trkpt>
<trkpt lat="58.868498" lon="05.875216"><ele>26</ele><time>2012-03-31T13:52:42Z</time><cmt>0.3 kmh</cmt></trkpt>
<trkpt lat="58.868497" lon="05.875217"><ele>26</ele><time>2012-03-31T13:52:43Z</time><cmt>0.5 kmh</cmt></trkpt>
<trkpt lat="58.868495" lon="05.875219"><ele>26</ele><time>2012-03-31T13:52:44Z</time><cmt>0.5 kmh</cmt></trkpt>
<trkpt lat="58.868494" lon="05.875220"><ele>26</ele><time>2012-03-31T13:52:45Z</time><cmt>0.4 kmh</cmt></trkpt>
<trkpt lat="58.868493" lon="05.875221"><ele>26</ele><time>2012-03-31T13:52:46Z</time><cmt>0.5 kmh</cmt></trkpt>
<trkpt lat="58.868489" lon="05.875225"><ele>27</ele><time>2012-03-31T13:52:47Z</time><cmt>1.2 kmh</cmt></trkpt>
<trkpt lat="58.868485" lon="05.875229"><ele>27</ele><time>2012-03-31T13:52:48Z</time><cmt>1.8 kmh</cmt></trkpt>
<trkpt lat="58.868482" lon="05.875232"><ele>27</ele><time>2012-03-31T13:52:49Z</time><cmt>1.8 kmh</cmt></trkpt>
<trkpt lat="58.868478" lon="05.875236"><ele>28</ele><time>2012-03-31T13:52:50Z</time><cmt>1.8 kmh</cmt></trkpt>
<trkpt lat="58.868474" lon="05.875240"><ele>28</ele><time>2012-03-31T13:52:51Z</time><cmt>1.8 kmh</cmt></trkpt>
<trkpt lat="58.868470" lon="05.875244"><ele>29</ele><time>2012-03-31T13:52:52Z</time><cmt>1.5 kmh</cmt></trkpt>
<trkpt lat="58.868466" lon="05.875248"><ele>29</ele><time>2012-03-31T13:52:53Z</time><cmt>1.5 kmh</cmt></trkpt>
<trkpt lat="58.868463" lon="05.875252"><ele>30</ele><time>2012-03-31T13:52:54Z</time><cmt>1.8 kmh</cmt></trkpt>
<trkpt lat="58.868459" lon="05.875256"><ele>31</ele><time>2012-03-31T13:52:55Z</time><cmt>1.7 kmh</cmt></trkpt>
<trkpt lat="58.868456" lon="05.875259"><ele>31</ele><time>2012-03-31T13:52:56Z</time><cmt>1.6 kmh</cmt></trkpt>
<trkpt lat="58.868456" lon="05.875260"><ele>32</ele><time>2012-03-31T13:52:57Z</time><cmt>0.8 kmh</cmt></trkpt>
<trkpt lat="58.868454" lon="05.875261"><ele>32</ele><time>2012-03-31T13:52:58Z</time><cmt>0.3 kmh</cmt></trkpt>
<trkpt lat="58.868453" lon="05.875263"><ele>33</ele><time>2012-03-31T13:52:59Z</time><cmt>0.6 kmh</cmt></trkpt>
<trkpt lat="58.868451" lon="05.875264"><ele>34</ele><time>2012-03-31T13:53:00Z</time><cmt>0.8 kmh</cmt></trkpt>
<trkpt lat="58.868450" lon="05.875266"><ele>34</ele><time>2012-03-31T13:53:01Z</time><cmt>0.6 kmh</cmt></trkpt>
<trkpt lat="58.868449" lon="05.875267"><ele>35</ele><time>2012-03-31T13:53:02Z</time><cmt>0.5 kmh</cmt></trkpt>
<trkpt lat="58.868448" lon="05.875268"><ele>35</ele><time>2012-03-31T13:53:03Z</time><cmt>0.4 kmh</cmt></trkpt>
<trkpt lat="58.868447" lon="05.875269"><ele>36</ele><time>2012-03-31T13:53:04Z</time><cmt>0.4 kmh</cmt></trkpt>
<trkpt lat="58.868446" lon="05.875271"><ele>36</ele><time>2012-03-31T13:53:05Z</time><cmt>0.4 kmh</cmt></trkpt>
<trkpt lat="58.868446" lon="05.875271"><ele>37</ele><time>2012-03-31T13:53:06Z</time><cmt>0.4 kmh</cmt></trkpt>
<trkpt lat="58.868446" lon="05.875272"><ele>37</ele><time>2012-03-31T13:53:07Z</time><cmt>0.2 kmh</cmt></trkpt>
<trkpt lat="58.868445" lon="05.875272"><ele>38</ele><time>2012-03-31T13:53:08Z</time><cmt>0.0 kmh</cmt></trkpt>
<trkpt lat="58.868445" lon="05.875272"><ele>38</ele><time>2012-03-31T13:53:09Z</time><cmt>0.2 kmh</cmt></trkpt>
<trkpt lat="58.868446" lon="05.875272"><ele>39</ele><time>2012-03-31T13:53:11Z</time><cmt>0.0 kmh</cmt></trkpt>
<trkpt lat="58.868447" lon="05.875270"><ele>39</ele><time>2012-03-31T13:53:12Z</time><cmt>0.4 kmh</cmt></trkpt>
<trkpt lat="58.868449" lon="05.875268"><ele>39</ele><time>2012-03-31T13:53:13Z</time><cmt>0.8 kmh</cmt></trkpt>
<trkpt lat="58.868450" lon="05.875267"><ele>40</ele><time>2012-03-31T13:53:14Z</time><cmt>0.7 kmh</cmt></trkpt>
<trkpt lat="58.868451" lon="05.875267"><ele>40</ele><time>2012-03-31T13:53:15Z</time><cmt>0.4 kmh</cmt></trkpt>
<trkpt lat="58.868451" lon="05.875267"><ele>40</ele><time>2012-03-31T13:53:16Z</time><cmt>0.1 kmh</cmt></trkpt>
<trkpt lat="58.868452" lon="05.875267"><ele>40</ele><time>2012-03-31T13:53:17Z</time><cmt>0.0 kmh</cmt></trkpt>
<trkpt lat="58.868452" lon="05.875267"><ele>40</ele><time>2012-03-31T13:53:18Z</time><cmt>0.0 kmh</cmt></trkpt>
<trkpt lat="58.868453" lon="05.875267"><ele>41</ele><time>2012-03-31T13:53:19Z</time><cmt>0.0 kmh</cmt></trkpt>
<trkpt lat="58.868453" lon="05.875268"><ele>41</ele><time>2012-03-31T13:53:20Z</time><cmt>0.0 kmh</cmt></trkpt>
<trkpt lat="58.868453" lon="05.875268"><ele>41</ele><time>2012-03-31T13:53:21Z</time><cmt>0.0 kmh</cmt></trkpt>
<trkpt lat="58.868453" lon="05.875269"><ele>41</ele><time>2012-03-31T13:53:22Z</time><cmt>0.0 kmh</cmt></trkpt>
<trkpt lat="58.868452" lon="05.875271"><ele>41</ele><time>2012-03-31T13:53:23Z</time><cmt>0.1 kmh</cmt></trkpt>
<trkpt lat="58.868451" lon="05.875272"><ele>41</ele><time>2012-03-31T13:53:24Z</time><cmt>0.4 kmh</cmt></trkpt>
<trkpt lat="58.868451" lon="05.875274"><ele>41</ele><time>2012-03-31T13:53:25Z</time><cmt>0.5 kmh</cmt></trkpt>
<trkpt lat="58.868450" lon="05.875276"><ele>42</ele><time>2012-03-31T13:53:26Z</time><cmt>0.5 kmh</cmt></trkpt>
<trkpt lat="58.868449" lon="05.875278"><ele>42</ele><time>2012-03-31T13:53:27Z</time><cmt>0.6 kmh</cmt></trkpt>
<trkpt lat="58.868447" lon="05.875280"><ele>42</ele><time>2012-03-31T13:53:28Z</time><cmt>0.7 kmh</cmt></trkpt>
<trkpt lat="58.868447" lon="05.875282"><ele>42</ele><time>2012-03-31T13:53:29Z</time><cmt>0.5 kmh</cmt></trkpt>
<trkpt lat="58.868445" lon="05.875284"><ele>42</ele><time>2012-03-31T13:53:30Z</time><cmt>0.5 kmh</cmt></trkpt>
<trkpt lat="58.868444" lon="05.875286"><ele>43</ele><time>2012-03-31T13:53:31Z</time><cmt>0.7 kmh</cmt></trkpt>
<trkpt lat="58.868443" lon="05.875288"><ele>43</ele><time>2012-03-31T13:53:32Z</time><cmt>0.7 kmh</cmt></trkpt>
<trkpt lat="58.868441" lon="05.875291"><ele>43</ele><time>2012-03-31T13:53:33Z</time><cmt>0.8 kmh</cmt></trkpt>
<trkpt lat="58.868440" lon="05.875293"><ele>43</ele><time>2012-03-31T13:53:34Z</time><cmt>0.9 kmh</cmt></trkpt>
<trkpt lat="58.868438" lon="05.875295"><ele>44</ele><time>2012-03-31T13:53:35Z</time><cmt>0.8 kmh</cmt></trkpt>
<trkpt lat="58.868437" lon="05.875296"><ele>44</ele><time>2012-03-31T13:53:36Z</time><cmt>0.4 kmh</cmt></trkpt>
<trkpt lat="58.868437" lon="05.875297"><ele>44</ele><time>2012-03-31T13:53:37Z</time><cmt>0.0 kmh</cmt></trkpt>
<trkpt lat="58.868437" lon="05.875297"><ele>45</ele><time>2012-03-31T13:53:38Z</time><cmt>0.0 kmh</cmt></trkpt>
<trkpt lat="58.868438" lon="05.875298"><ele>45</ele><time>2012-03-31T13:53:39Z</time><cmt>0.0 kmh</cmt></trkpt>
<trkpt lat="58.868438" lon="05.875298"><ele>45</ele><time>2012-03-31T13:53:40Z</time><cmt>0.0 kmh</cmt></trkpt>
<trkpt lat="58.868438" lon="05.875298"><ele>45</ele><time>2012-03-31T13:53:41Z</time><cmt>0.0 kmh</cmt></trkpt>
<trkpt lat="58.868438" lon="05.875299"><ele>45</ele><time>2012-03-31T13:53:42Z</time><cmt>0.0 kmh</cmt></trkpt>
<trkpt lat="58.868438" lon="05.875299"><ele>45</ele><time>2012-03-31T13:53:43Z</time><cmt>0.0 kmh</cmt></trkpt>
<trkpt lat="58.868439" lon="05.875298"><ele>46</ele><time>2012-03-31T13:53:44Z</time><cmt>0.0 kmh</cmt></trkpt>
<trkpt lat="58.868439" lon="05.875298"><ele>46</ele><time>2012-03-31T13:53:45Z</time><cmt>0.0 kmh</cmt></trkpt>
<trkpt lat="58.868439" lon="05.875297"><ele>46</ele><time>2012-03-31T13:53:46Z</time><cmt>0.0 kmh</cmt></trkpt>
<trkpt lat="58.868440" lon="05.875297"><ele>46</ele><time>2012-03-31T13:53:47Z</time><cmt>0.0 kmh</cmt></trkpt>
<trkpt lat="58.868441" lon="05.875296"><ele>46</ele><time>2012-03-31T13:53:48Z</time><cmt>0.0 kmh</cmt></trkpt>
<trkpt lat="58.868442" lon="05.875296"><ele>46</ele><time>2012-03-31T13:53:49Z</time><cmt>0.0 kmh</cmt></trkpt>
<trkpt lat="58.868443" lon="05.875295"><ele>46</ele><time>2012-03-31T13:53:50Z</time><cmt>0.3 kmh</cmt></trkpt>
<trkpt lat="58.868444" lon="05.875294"><ele>46</ele><time>2012-03-31T13:53:51Z</time><cmt>0.3 kmh</cmt></trkpt>
<trkpt lat="58.868444" lon="05.875293"><ele>46</ele><time>2012-03-31T13:53:52Z</time><cmt>0.0 kmh</cmt></trkpt>
<trkpt lat="58.868445" lon="05.875293"><ele>46</ele><time>2012-03-31T13:53:53Z</time><cmt>0.0 kmh</cmt></trkpt>
<trkpt lat="58.868445" lon="05.875293"><ele>46</ele><time>2012-03-31T13:53:54Z</time><cmt>0.0 kmh</cmt></trkpt>
<trkpt lat="58.868446" lon="05.875292"><ele>46</ele><time>2012-03-31T13:53:55Z</time><cmt>0.2 kmh</cmt></trkpt>
<trkpt lat="58.868448" lon="05.875292"><ele>46</ele><time>2012-03-31T13:53:56Z</time><cmt>0.7 kmh</cmt></trkpt>
<trkpt lat="58.868449" lon="05.875292"><ele>46</ele><time>2012-03-31T13:53:57Z</time><cmt>0.8 kmh</cmt></trkpt>
<trkpt lat="58.868450" lon="05.875292"><ele>46</ele><time>2012-03-31T13:53:58Z</time><cmt>0.7 kmh</cmt></trkpt>
<trkpt lat="58.868451" lon="05.875293"><ele>46</ele><time>2012-03-31T13:53:59Z</time><cmt>0.3 kmh</cmt></trkpt>
<trkpt lat="58.868451" lon="05.875293"><ele>46</ele><time>2012-03-31T13:54:00Z</time><cmt>0.0 kmh</cmt></trkpt>
<trkpt lat="58.868452" lon="05.875294"><ele>46</ele><time>2012-03-31T13:54:01Z</time><cmt>0.0 kmh</cmt></trkpt>
<trkpt lat="58.868452" lon="05.875294"><ele>46</ele><time>2012-03-31T13:54:02Z</time><cmt>0.0 kmh</cmt></trkpt>
<trkpt lat="58.868451" lon="05.875296"><ele>46</ele><time>2012-03-31T13:54:03Z</time><cmt>0.3 kmh</cmt></trkpt>
<trkpt lat="58.868450" lon="05.875298"><ele>46</ele><time>2012-03-31T13:54:04Z</time><cmt>0.5 kmh</cmt></trkpt>
<trkpt lat="58.868449" lon="05.875301"><ele>46</ele><time>2012-03-31T13:54:05Z</time><cmt>0.6 kmh</cmt></trkpt>
<trkpt lat="58.868448" lon="05.875303"><ele>46</ele><time>2012-03-31T13:54:06Z</time><cmt>0.6 kmh</cmt></trkpt>
<trkpt lat="58.868447" lon="05.875305"><ele>46</ele><time>2012-03-31T13:54:07Z</time><cmt>0.6 kmh</cmt></trkpt>
<trkpt lat="58.868446" lon="05.875308"><ele>46</ele><time>2012-03-31T13:54:08Z</time><cmt>0.7 kmh</cmt></trkpt>
<trkpt lat="58.868445" lon="05.875310"><ele>46</ele><time>2012-03-31T13:54:09Z</time><cmt>0.7 kmh</cmt></trkpt>
<trkpt lat="58.868443" lon="05.875313"><ele>46</ele><time>2012-03-31T13:54:10Z</time><cmt>0.7 kmh</cmt></trkpt>
<trkpt lat="58.868442" lon="05.875315"><ele>47</ele><time>2012-03-31T13:54:11Z</time><cmt>0.8 kmh</cmt></trkpt>
<trkpt lat="58.868440" lon="05.875318"><ele>47</ele><time>2012-03-31T13:54:12Z</time><cmt>0.7 kmh</cmt></trkpt>
<trkpt lat="58.868439" lon="05.875320"><ele>47</ele><time>2012-03-31T13:54:13Z</time><cmt>0.7 kmh</cmt></trkpt>
<trkpt lat="58.868438" lon="05.875322"><ele>47</ele><time>2012-03-31T13:54:14Z</time><cmt>0.7 kmh</cmt></trkpt>
<trkpt lat="58.868437" lon="05.875323"><ele>48</ele><time>2012-03-31T13:54:15Z</time><cmt>0.6 kmh</cmt></trkpt>
<trkpt lat="58.868435" lon="05.875326"><ele>48</ele><time>2012-03-31T13:54:16Z</time><cmt>0.7 kmh</cmt></trkpt>
<trkpt lat="58.868433" lon="05.875328"><ele>48</ele><time>2012-03-31T13:54:17Z</time><cmt>0.9 kmh</cmt></trkpt>
<trkpt lat="58.868432" lon="05.875330"><ele>48</ele><time>2012-03-31T13:54:18Z</time><cmt>0.7 kmh</cmt></trkpt>
<trkpt lat="58.868430" lon="05.875332"><ele>49</ele><time>2012-03-31T13:54:19Z</time><cmt>0.6 kmh</cmt></trkpt>
<trkpt lat="58.868429" lon="05.875334"><ele>49</ele><time>2012-03-31T13:54:20Z</time><cmt>0.7 kmh</cmt></trkpt>
<trkpt lat="58.868428" lon="05.875335"><ele>49</ele><time>2012-03-31T13:54:21Z</time><cmt>0.6 kmh</cmt></trkpt>
<trkpt lat="58.868427" lon="05.875335"><ele>50</ele><time>2012-03-31T13:54:22Z</time><cmt>0.2 kmh</cmt></trkpt>
<trkpt lat="58.868427" lon="05.875336"><ele>50</ele><time>2012-03-31T13:54:23Z</time><cmt>0.2 kmh</cmt></trkpt>
<trkpt lat="58.868426" lon="05.875336"><ele>50</ele><time>2012-03-31T13:54:24Z</time><cmt>0.1 kmh</cmt></trkpt>
<trkpt lat="58.868426" lon="05.875337"><ele>51</ele><time>2012-03-31T13:54:25Z</time><cmt>0.0 kmh</cmt></trkpt>
<trkpt lat="58.868425" lon="05.875337"><ele>51</ele><time>2012-03-31T13:54:26Z</time><cmt>0.0 kmh</cmt></trkpt>
<trkpt lat="58.868425" lon="05.875338"><ele>51</ele><time>2012-03-31T13:54:27Z</time><cmt>0.0 kmh</cmt></trkpt>
<trkpt lat="58.868425" lon="05.875338"><ele>51</ele><time>2012-03-31T13:54:28Z</time><cmt>0.2 kmh</cmt></trkpt>
<trkpt lat="58.868424" lon="05.875339"><ele>52</ele><time>2012-03-31T13:54:29Z</time><cmt>0.4 kmh</cmt></trkpt>
<trkpt lat="58.868423" lon="05.875340"><ele>52</ele><time>2012-03-31T13:54:30Z</time><cmt>0.2 kmh</cmt></trkpt>
<trkpt lat="58.868423" lon="05.875340"><ele>52</ele><time>2012-03-31T13:54:31Z</time><cmt>0.0 kmh</cmt></trkpt>
<trkpt lat="58.868424" lon="05.875340"><ele>52</ele><time>2012-03-31T13:54:32Z</time><cmt>0.1 kmh</cmt></trkpt>
<trkpt lat="58.868425" lon="05.875340"><ele>53</ele><time>2012-03-31T13:54:33Z</time><cmt>0.2 kmh</cmt></trkpt>
<trkpt lat="58.868427" lon="05.875339"><ele>53</ele><time>2012-03-31T13:54:34Z</time><cmt>0.3 kmh</cmt></trkpt>
<trkpt lat="58.868427" lon="05.875339"><ele>53</ele><time>2012-03-31T13:54:35Z</time><cmt>0.3 kmh</cmt></trkpt>
<trkpt lat="58.868428" lon="05.875339"><ele>53</ele><time>2012-03-31T13:54:36Z</time><cmt>0.0 kmh</cmt></trkpt>
<trkpt lat="58.868428" lon="05.875338"><ele>53</ele><time>2012-03-31T13:54:37Z</time><cmt>0.0 kmh</cmt></trkpt>
<trkpt lat="58.868429" lon="05.875338"><ele>53</ele><time>2012-03-31T13:54:38Z</time><cmt>0.0 kmh</cmt></trkpt>
<trkpt lat="58.868429" lon="05.875338"><ele>53</ele><time>2012-03-31T13:54:39Z</time><cmt>0.0 kmh</cmt></trkpt>
<trkpt lat="58.868430" lon="05.875338"><ele>53</ele><time>2012-03-31T13:54:40Z</time><cmt>0.0 kmh</cmt></trkpt>
<trkpt lat="58.868430" lon="05.875337"><ele>53</ele><time>2012-03-31T13:54:41Z</time><cmt>0.0 kmh</cmt></trkpt>
<trkpt lat="58.868429" lon="05.875338"><ele>53</ele><time>2012-03-31T13:54:42Z</time><cmt>0.0 kmh</cmt></trkpt>
<trkpt lat="58.868429" lon="05.875338"><ele>54</ele><time>2012-03-31T13:54:43Z</time><cmt>0.0 kmh</cmt></trkpt>
<trkpt lat="58.868429" lon="05.875337"><ele>54</ele><time>2012-03-31T13:54:44Z</time><cmt>0.0 kmh</cmt></trkpt>
<trkpt lat="58.868429" lon="05.875338"><ele>54</ele><time>2012-03-31T13:54:45Z</time><cmt>0.0 kmh</cmt></trkpt>
<trkpt lat="58.868429" lon="05.875339"><ele>54</ele><time>2012-03-31T13:54:46Z</time><cmt>0.0 kmh</cmt></trkpt>
<trkpt lat="58.868428" lon="05.875340"><ele>54</ele><time>2012-03-31T13:54:47Z</time><cmt>0.0 kmh</cmt></trkpt>
<trkpt lat="58.868428" lon="05.875341"><ele>54</ele><time>2012-03-31T13:54:48Z</time><cmt>0.0 kmh</cmt></trkpt>
<trkpt lat="58.868428" lon="05.875342"><ele>54</ele><time>2012-03-31T13:54:49Z</time><cmt>0.0 kmh</cmt></trkpt>
<trkpt lat="58.868428" lon="05.875344"><ele>54</ele><time>2012-03-31T13:54:50Z</time><cmt>0.1 kmh</cmt></trkpt>
<trkpt lat="58.868428" lon="05.875344"><ele>54</ele><time>2012-03-31T13:54:51Z</time><cmt>0.4 kmh</cmt></trkpt>
<trkpt lat="58.868428" lon="05.875344"><ele>54</ele><time>2012-03-31T13:54:52Z</time><cmt>0.2 kmh</cmt></trkpt>
<trkpt lat="58.868429" lon="05.875344"><ele>54</ele><time>2012-03-31T13:54:53Z</time><cmt>0.2 kmh</cmt></trkpt>
<trkpt lat="58.868430" lon="05.875343"><ele>54</ele><time>2012-03-31T13:54:54Z</time><cmt>0.4 kmh</cmt></trkpt>
<trkpt lat="58.868431" lon="05.875342"><ele>54</ele><time>2012-03-31T13:54:55Z</time><cmt>0.4 kmh</cmt></trkpt>
<trkpt lat="58.868433" lon="05.875341"><ele>54</ele><time>2012-03-31T13:54:56Z</time><cmt>0.6 kmh</cmt></trkpt>
<trkpt lat="58.868434" lon="05.875340"><ele>54</ele><time>2012-03-31T13:54:57Z</time><cmt>0.6 kmh</cmt></trkpt>
<trkpt lat="58.868435" lon="05.875339"><ele>54</ele><time>2012-03-31T13:54:58Z</time><cmt>0.3 kmh</cmt></trkpt>
<trkpt lat="58.868436" lon="05.875339"><ele>54</ele><time>2012-03-31T13:54:59Z</time><cmt>0.2 kmh</cmt></trkpt>
<trkpt lat="58.868437" lon="05.875339"><ele>54</ele><time>2012-03-31T13:55:00Z</time><cmt>0.2 kmh</cmt></trkpt>
<trkpt lat="58.868437" lon="05.875338"><ele>54</ele><time>2012-03-31T13:55:01Z</time><cmt>0.0 kmh</cmt></trkpt>
<trkpt lat="58.868438" lon="05.875338"><ele>54</ele><time>2012-03-31T13:55:02Z</time><cmt>0.0 kmh</cmt></trkpt>
<trkpt lat="58.868438" lon="05.875338"><ele>54</ele><time>2012-03-31T13:55:03Z</time><cmt>0.0 kmh</cmt></trkpt>
<trkpt lat="58.868437" lon="05.875339"><ele>54</ele><time>2012-03-31T13:55:04Z</time><cmt>0.0 kmh</cmt></trkpt>
<trkpt lat="58.868437" lon="05.875339"><ele>54</ele><time>2012-03-31T13:55:05Z</time><cmt>0.0 kmh</cmt></trkpt>
<trkpt lat="58.868437" lon="05.875339"><ele>54</ele><time>2012-03-31T13:55:06Z</time><cmt>0.0 kmh</cmt></trkpt>
<trkpt lat="58.868437" lon="05.875338"><ele>54</ele><time>2012-03-31T13:55:07Z</time><cmt>0.0 kmh</cmt></trkpt>
<trkpt lat="58.868437" lon="05.875338"><ele>54</ele><time>2012-03-31T13:55:08Z</time><cmt>0.0 kmh</cmt></trkpt>
<trkpt lat="58.868438" lon="05.875337"><ele>53</ele><time>2012-03-31T13:55:09Z</time><cmt>0.1 kmh</cmt></trkpt>
<trkpt lat="58.868439" lon="05.875336"><ele>53</ele><time>2012-03-31T13:55:10Z</time><cmt>0.4 kmh</cmt></trkpt>
<trkpt lat="58.868439" lon="05.875335"><ele>53</ele><time>2012-03-31T13:55:11Z</time><cmt>0.3 kmh</cmt></trkpt>
<trkpt lat="58.868439" lon="05.875335"><ele>53</ele><time>2012-03-31T13:55:12Z</time><cmt>0.0 kmh</cmt></trkpt>
<trkpt lat="58.868438" lon="05.875336"><ele>53</ele><time>2012-03-31T13:55:13Z</time><cmt>0.3 kmh</cmt></trkpt>
<trkpt lat="58.868438" lon="05.875336"><ele>53</ele><time>2012-03-31T13:55:14Z</time><cmt>0.4 kmh</cmt></trkpt>
<trkpt lat="58.868438" lon="05.875335"><ele>53</ele><time>2012-03-31T13:55:15Z</time><cmt>0.2 kmh</cmt></trkpt>
<trkpt lat="58.868438" lon="05.875335"><ele>53</ele><time>2012-03-31T13:55:16Z</time><cmt>0.2 kmh</cmt></trkpt>
<trkpt lat="58.868439" lon="05.875334"><ele>53</ele><time>2012-03-31T13:55:17Z</time><cmt>0.2 kmh</cmt></trkpt>
<trkpt lat="58.868439" lon="05.875334"><ele>53</ele><time>2012-03-31T13:55:18Z</time><cmt>0.0 kmh</cmt></trkpt>
<trkpt lat="58.868439" lon="05.875333"><ele>53</ele><time>2012-03-31T13:55:19Z</time><cmt>0.0 kmh</cmt></trkpt>
<trkpt lat="58.868440" lon="05.875332"><ele>53</ele><time>2012-03-31T13:55:20Z</time><cmt>0.3 kmh</cmt></trkpt>
<trkpt lat="58.868441" lon="05.875330"><ele>53</ele><time>2012-03-31T13:55:21Z</time><cmt>0.6 kmh</cmt></trkpt>
<trkpt lat="58.868443" lon="05.875328"><ele>53</ele><time>2012-03-31T13:55:22Z</time><cmt>0.7 kmh</cmt></trkpt>
<trkpt lat="58.868444" lon="05.875326"><ele>53</ele><time>2012-03-31T13:55:23Z</time><cmt>0.7 kmh</cmt></trkpt>
<trkpt lat="58.868446" lon="05.875325"><ele>53</ele><time>2012-03-31T13:55:24Z</time><cmt>0.7 kmh</cmt></trkpt>
<trkpt lat="58.868447" lon="05.875323"><ele>52</ele><time>2012-03-31T13:55:25Z</time><cmt>0.7 kmh</cmt></trkpt>
<trkpt lat="58.868448" lon="05.875321"><ele>52</ele><time>2012-03-31T13:55:26Z</time><cmt>0.6 kmh</cmt></trkpt>
<trkpt lat="58.868450" lon="05.875319"><ele>52</ele><time>2012-03-31T13:55:27Z</time><cmt>0.6 kmh</cmt></trkpt>
<trkpt lat="58.868451" lon="05.875317"><ele>52</ele><time>2012-03-31T13:55:28Z</time><cmt>0.8 kmh</cmt></trkpt>
<trkpt lat="58.868453" lon="05.875316"><ele>52</ele><time>2012-03-31T13:55:29Z</time><cmt>0.9 kmh</cmt></trkpt>
<trkpt lat="58.868454" lon="05.875314"><ele>51</ele><time>2012-03-31T13:55:30Z</time><cmt>0.8 kmh</cmt></trkpt>
<trkpt lat="58.868456" lon="05.875312"><ele>51</ele><time>2012-03-31T13:55:31Z</time><cmt>0.7 kmh</cmt></trkpt>
<trkpt lat="58.868457" lon="05.875310"><ele>51</ele><time>2012-03-31T13:55:32Z</time><cmt>0.7 kmh</cmt></trkpt>
<trkpt lat="58.868459" lon="05.875308"><ele>51</ele><time>2012-03-31T13:55:33Z</time><cmt>0.6 kmh</cmt></trkpt>
<trkpt lat="58.868460" lon="05.875306"><ele>51</ele><time>2012-03-31T13:55:34Z</time><cmt>0.6 kmh</cmt></trkpt>
<trkpt lat="58.868461" lon="05.875304"><ele>50</ele><time>2012-03-31T13:55:35Z</time><cmt>0.7 kmh</cmt></trkpt>
<trkpt lat="58.868463" lon="05.875302"><ele>50</ele><time>2012-03-31T13:55:36Z</time><cmt>0.7 kmh</cmt></trkpt>
<trkpt lat="58.868464" lon="05.875300"><ele>50</ele><time>2012-03-31T13:55:37Z</time><cmt>0.7 kmh</cmt></trkpt>
<trkpt lat="58.868465" lon="05.875298"><ele>50</ele><time>2012-03-31T13:55:38Z</time><cmt>0.7 kmh</cmt></trkpt>
<trkpt lat="58.868467" lon="05.875296"><ele>49</ele><time>2012-03-31T13:55:39Z</time><cmt>0.7 kmh</cmt></trkpt>
<trkpt lat="58.868469" lon="05.875293"><ele>49</ele><time>2012-03-31T13:55:40Z</time><cmt>0.8 kmh</cmt></trkpt>
<trkpt lat="58.868471" lon="05.875290"><ele>49</ele><time>2012-03-31T13:55:41Z</time><cmt>1.1 kmh</cmt></trkpt>
<trkpt lat="58.868474" lon="05.875287"><ele>48</ele><time>2012-03-31T13:55:42Z</time><cmt>1.2 kmh</cmt></trkpt>
<trkpt lat="58.868475" lon="05.875285"><ele>48</ele><time>2012-03-31T13:55:43Z</time><cmt>1.1 kmh</cmt></trkpt>
<trkpt lat="58.868476" lon="05.875284"><ele>48</ele><time>2012-03-31T13:55:44Z</time><cmt>0.5 kmh</cmt></trkpt>
<trkpt lat="58.868477" lon="05.875282"><ele>48</ele><time>2012-03-31T13:55:45Z</time><cmt>0.0 kmh</cmt></trkpt>
<trkpt lat="58.868478" lon="05.875282"><ele>47</ele><time>2012-03-31T13:55:46Z</time><cmt>0.2 kmh</cmt></trkpt>
<trkpt lat="58.868479" lon="05.875281"><ele>47</ele><time>2012-03-31T13:55:47Z</time><cmt>0.3 kmh</cmt></trkpt>
<trkpt lat="58.868479" lon="05.875280"><ele>47</ele><time>2012-03-31T13:55:48Z</time><cmt>0.0 kmh</cmt></trkpt>
<trkpt lat="58.868480" lon="05.875280"><ele>46</ele><time>2012-03-31T13:55:49Z</time><cmt>0.0 kmh</cmt></trkpt>
<trkpt lat="58.868480" lon="05.875279"><ele>46</ele><time>2012-03-31T13:55:50Z</time><cmt>0.0 kmh</cmt></trkpt>
<trkpt lat="58.868481" lon="05.875278"><ele>46</ele><time>2012-03-31T13:55:51Z</time><cmt>0.1 kmh</cmt></trkpt>
<trkpt lat="58.868482" lon="05.875277"><ele>46</ele><time>2012-03-31T13:55:52Z</time><cmt>0.3 kmh</cmt></trkpt>
<trkpt lat="58.868483" lon="05.875275"><ele>45</ele><time>2012-03-31T13:55:53Z</time><cmt>0.4 kmh</cmt></trkpt>
<trkpt lat="58.868483" lon="05.875274"><ele>45</ele><time>2012-03-31T13:55:54Z</time><cmt>0.4 kmh</cmt></trkpt>
<trkpt lat="58.868484" lon="05.875272"><ele>45</ele><time>2012-03-31T13:55:55Z</time><cmt>0.2 kmh</cmt></trkpt>
<trkpt lat="58.868485" lon="05.875271"><ele>45</ele><time>2012-03-31T13:55:56Z</time><cmt>0.2 kmh</cmt></trkpt>
<trkpt lat="58.868486" lon="05.875270"><ele>45</ele><time>2012-03-31T13:55:57Z</time><cmt>0.4 kmh</cmt></trkpt>
<trkpt lat="58.868487" lon="05.875268"><ele>44</ele><time>2012-03-31T13:55:58Z</time><cmt>0.4 kmh</cmt></trkpt>
<trkpt lat="58.868488" lon="05.875267"><ele>44</ele><time>2012-03-31T13:55:59Z</time><cmt>0.4 kmh</cmt></trkpt>
<trkpt lat="58.868489" lon="05.875265"><ele>44</ele><time>2012-03-31T13:56:00Z</time><cmt>0.5 kmh</cmt></trkpt>
<trkpt lat="58.868490" lon="05.875264"><ele>44</ele><time>2012-03-31T13:56:01Z</time><cmt>0.5 kmh</cmt></trkpt>
<trkpt lat="58.868491" lon="05.875262"><ele>44</ele><time>2012-03-31T13:56:02Z</time><cmt>0.4 kmh</cmt></trkpt>
<trkpt lat="58.868492" lon="05.875261"><ele>43</ele><time>2012-03-31T13:56:03Z</time><cmt>0.6 kmh</cmt></trkpt>
<trkpt lat="58.868494" lon="05.875258"><ele>43</ele><time>2012-03-31T13:56:04Z</time><cmt>0.6 kmh</cmt></trkpt>
<trkpt lat="58.868496" lon="05.875256"><ele>43</ele><time>2012-03-31T13:56:05Z</time><cmt>0.7 kmh</cmt></trkpt>
<trkpt lat="58.868498" lon="05.875253"><ele>43</ele><time>2012-03-31T13:56:06Z</time><cmt>1.0 kmh</cmt></trkpt>
<trkpt lat="58.868500" lon="05.875251"><ele>42</ele><time>2012-03-31T13:56:07Z</time><cmt>1.0 kmh</cmt></trkpt>
<trkpt lat="58.868502" lon="05.875249"><ele>42</ele><time>2012-03-31T13:56:08Z</time><cmt>1.0 kmh</cmt></trkpt>
<trkpt lat="58.868503" lon="05.875246"><ele>42</ele><time>2012-03-31T13:56:09Z</time><cmt>1.0 kmh</cmt></trkpt>
<trkpt lat="58.868505" lon="05.875244"><ele>42</ele><time>2012-03-31T13:56:10Z</time><cmt>0.7 kmh</cmt></trkpt>
<trkpt lat="58.868507" lon="05.875242"><ele>41</ele><time>2012-03-31T13:56:11Z</time><cmt>0.7 kmh</cmt></trkpt>
<trkpt lat="58.868508" lon="05.875241"><ele>41</ele><time>2012-03-31T13:56:12Z</time><cmt>0.7 kmh</cmt></trkpt>
<trkpt lat="58.868508" lon="05.875239"><ele>41</ele><time>2012-03-31T13:56:13Z</time><cmt>0.3 kmh</cmt></trkpt>
<trkpt lat="58.868509" lon="05.875238"><ele>40</ele><time>2012-03-31T13:56:14Z</time><cmt>0.2 kmh</cmt></trkpt>
<trkpt lat="58.868509" lon="05.875237"><ele>40</ele><time>2012-03-31T13:56:15Z</time><cmt>0.2 kmh</cmt></trkpt>
<trkpt lat="58.868509" lon="05.875237"><ele>40</ele><time>2012-03-31T13:56:16Z</time><cmt>0.0 kmh</cmt></trkpt>
<trkpt lat="58.868509" lon="05.875237"><ele>40</ele><time>2012-03-31T13:56:17Z</time><cmt>0.0 kmh</cmt></trkpt>
<trkpt lat="58.868508" lon="05.875237"><ele>39</ele><time>2012-03-31T13:56:18Z</time><cmt>0.0 kmh</cmt></trkpt>
<trkpt lat="58.868508" lon="05.875237"><ele>39</ele><time>2012-03-31T13:56:19Z</time><cmt>0.3 kmh</cmt></trkpt>
<trkpt lat="58.868508" lon="05.875236"><ele>39</ele><time>2012-03-31T13:56:20Z</time><cmt>0.5 kmh</cmt></trkpt>
<trkpt lat="58.868508" lon="05.875235"><ele>39</ele><time>2012-03-31T13:56:21Z</time><cmt>0.5 kmh</cmt></trkpt>
<trkpt lat="58.868509" lon="05.875235"><ele>39</ele><time>2012-03-31T13:56:22Z</time><cmt>0.4 kmh</cmt></trkpt>
<trkpt lat="58.868509" lon="05.875234"><ele>39</ele><time>2012-03-31T13:56:23Z</time><cmt>0.4 kmh</cmt></trkpt>
<trkpt lat="58.868509" lon="05.875234"><ele>38</ele><time>2012-03-31T13:56:24Z</time><cmt>0.3 kmh</cmt></trkpt>
<trkpt lat="58.868508" lon="05.875234"><ele>38</ele><time>2012-03-31T13:56:25Z</time><cmt>0.2 kmh</cmt></trkpt>
<trkpt lat="58.868508" lon="05.875234"><ele>38</ele><time>2012-03-31T13:56:26Z</time><cmt>0.2 kmh</cmt></trkpt>
<trkpt lat="58.868508" lon="05.875234"><ele>38</ele><time>2012-03-31T13:56:27Z</time><cmt>0.0 kmh</cmt></trkpt>
<trkpt lat="58.868508" lon="05.875234"><ele>38</ele><time>2012-03-31T13:56:28Z</time><cmt>0.0 kmh</cmt></trkpt>
<trkpt lat="58.868508" lon="05.875234"><ele>38</ele><time>2012-03-31T13:56:29Z</time><cmt>0.0 kmh</cmt></trkpt>
<trkpt lat="58.868508" lon="05.875233"><ele>38</ele><time>2012-03-31T13:56:30Z</time><cmt>0.0 kmh</cmt></trkpt>
<trkpt lat="58.868509" lon="05.875232"><ele>38</ele><time>2012-03-31T13:56:31Z</time><cmt>0.0 kmh</cmt></trkpt>
<trkpt lat="58.868509" lon="05.875231"><ele>37</ele><time>2012-03-31T13:56:32Z</time><cmt>0.0 kmh</cmt></trkpt>
<trkpt lat="58.868510" lon="05.875231"><ele>37</ele><time>2012-03-31T13:56:33Z</time><cmt>0.0 kmh</cmt></trkpt>
<trkpt lat="58.868510" lon="05.875230"><ele>37</ele><time>2012-03-31T13:56:34Z</time><cmt>0.0 kmh</cmt></trkpt>
<trkpt lat="58.868511" lon="05.875229"><ele>37</ele><time>2012-03-31T13:56:35Z</time><cmt>0.0 kmh</cmt></trkpt>
<trkpt lat="58.868511" lon="05.875228"><ele>37</ele><time>2012-03-31T13:56:36Z</time><cmt>0.0 kmh</cmt></trkpt>
<trkpt lat="58.868512" lon="05.875227"><ele>37</ele><time>2012-03-31T13:56:37Z</time><cmt>0.3 kmh</cmt></trkpt>
<trkpt lat="58.868513" lon="05.875226"><ele>37</ele><time>2012-03-31T13:56:38Z</time><cmt>0.5 kmh</cmt></trkpt>
<trkpt lat="58.868513" lon="05.875225"><ele>37</ele><time>2012-03-31T13:56:39Z</time><cmt>0.5 kmh</cmt></trkpt>
<trkpt lat="58.868513" lon="05.875224"><ele>36</ele><time>2012-03-31T13:56:40Z</time><cmt>0.3 kmh</cmt></trkpt>
<trkpt lat="58.868513" lon="05.875224"><ele>36</ele><time>2012-03-31T13:56:41Z</time><cmt>0.0 kmh</cmt></trkpt>
<trkpt lat="58.868512" lon="05.875225"><ele>36</ele><time>2012-03-31T13:56:42Z</time><cmt>0.1 kmh</cmt></trkpt>
<trkpt lat="58.868512" lon="05.875225"><ele>36</ele><time>2012-03-31T13:56:43Z</time><cmt>0.2 kmh</cmt></trkpt>
<trkpt lat="58.868511" lon="05.875225"><ele>36</ele><time>2012-03-31T13:56:44Z</time><cmt>0.0 kmh</cmt></trkpt>
<trkpt lat="58.868511" lon="05.875225"><ele>36</ele><time>2012-03-31T13:56:45Z</time><cmt>0.0 kmh</cmt></trkpt>
<trkpt lat="58.868510" lon="05.875225"><ele>36</ele><time>2012-03-31T13:56:46Z</time><cmt>0.0 kmh</cmt></trkpt>
<trkpt lat="58.868509" lon="05.875226"><ele>36</ele><time>2012-03-31T13:56:47Z</time><cmt>0.0 kmh</cmt></trkpt>
<trkpt lat="58.868509" lon="05.875227"><ele>36</ele><time>2012-03-31T13:56:48Z</time><cmt>0.2 kmh</cmt></trkpt>
<trkpt lat="58.868508" lon="05.875227"><ele>36</ele><time>2012-03-31T13:56:49Z</time><cmt>0.5 kmh</cmt></trkpt>
<trkpt lat="58.868507" lon="05.875228"><ele>36</ele><time>2012-03-31T13:56:50Z</time><cmt>0.4 kmh</cmt></trkpt>
<trkpt lat="58.868506" lon="05.875228"><ele>36</ele><time>2012-03-31T13:56:51Z</time><cmt>0.2 kmh</cmt></trkpt>
<trkpt lat="58.868507" lon="05.875228"><ele>36</ele><time>2012-03-31T13:56:52Z</time><cmt>0.0 kmh</cmt></trkpt>
<trkpt lat="58.868507" lon="05.875227"><ele>36</ele><time>2012-03-31T13:56:53Z</time><cmt>0.1 kmh</cmt></trkpt>
<trkpt lat="58.868507" lon="05.875227"><ele>36</ele><time>2012-03-31T13:56:54Z</time><cmt>0.1 kmh</cmt></trkpt>
<trkpt lat="58.868506" lon="05.875227"><ele>36</ele><time>2012-03-31T13:56:55Z</time><cmt>0.0 kmh</cmt></trkpt>
<trkpt lat="58.868506" lon="05.875227"><ele>36</ele><time>2012-03-31T13:56:56Z</time><cmt>0.0 kmh</cmt></trkpt>
<trkpt lat="58.868505" lon="05.875228"><ele>36</ele><time>2012-03-31T13:56:57Z</time><cmt>0.0 kmh</cmt></trkpt>
<trkpt lat="58.868504" lon="05.875229"><ele>36</ele><time>2012-03-31T13:56:58Z</time><cmt>0.2 kmh</cmt></trkpt>
<trkpt lat="58.868503" lon="05.875230"><ele>36</ele><time>2012-03-31T13:56:59Z</time><cmt>0.1 kmh</cmt></trkpt>
<trkpt lat="58.868502" lon="05.875230"><ele>36</ele><time>2012-03-31T13:57:00Z</time><cmt>0.2 kmh</cmt></trkpt>
<trkpt lat="58.868500" lon="05.875233"><ele>37</ele><time>2012-03-31T13:57:01Z</time><cmt>0.8 kmh</cmt></trkpt>
<trkpt lat="58.868498" lon="05.875234"><ele>37</ele><time>2012-03-31T13:57:02Z</time><cmt>0.7 kmh</cmt></trkpt>
<trkpt lat="58.868498" lon="05.875234"><ele>37</ele><time>2012-03-31T13:57:03Z</time><cmt>0.2 kmh</cmt></trkpt>
<trkpt lat="58.868499" lon="05.875233"><ele>37</ele><time>2012-03-31T13:57:04Z</time><cmt>0.0 kmh</cmt></trkpt>
<trkpt lat="58.868499" lon="05.875232"><ele>37</ele><time>2012-03-31T13:57:05Z</time><cmt>0.0 kmh</cmt></trkpt>
<trkpt lat="58.868500" lon="05.875231"><ele>37</ele><time>2012-03-31T13:57:06Z</time><cmt>0.0 kmh</cmt></trkpt>
<trkpt lat="58.868500" lon="05.875230"><ele>37</ele><time>2012-03-31T13:57:07Z</time><cmt>0.0 kmh</cmt></trkpt>
<trkpt lat="58.868500" lon="05.875229"><ele>37</ele><time>2012-03-31T13:57:08Z</time><cmt>0.0 kmh</cmt></trkpt>
<trkpt lat="58.868501" lon="05.875228"><ele>37</ele><time>2012-03-31T13:57:09Z</time><cmt>0.0 kmh</cmt></trkpt>
<trkpt lat="58.868501" lon="05.875227"><ele>37</ele><time>2012-03-31T13:57:10Z</time><cmt>0.2 kmh</cmt></trkpt>
<trkpt lat="58.868502" lon="05.875226"><ele>37</ele><time>2012-03-31T13:57:11Z</time><cmt>0.4 kmh</cmt></trkpt>
<trkpt lat="58.868502" lon="05.875224"><ele>37</ele><time>2012-03-31T13:57:12Z</time><cmt>0.2 kmh</cmt></trkpt>
<trkpt lat="58.868502" lon="05.875223"><ele>37</ele><time>2012-03-31T13:57:13Z</time><cmt>0.2 kmh</cmt></trkpt>
<trkpt lat="58.868503" lon="05.875222"><ele>36</ele><time>2012-03-31T13:57:14Z</time><cmt>0.4 kmh</cmt></trkpt>
<trkpt lat="58.868503" lon="05.875221"><ele>36</ele><time>2012-03-31T13:57:15Z</time><cmt>0.2 kmh</cmt></trkpt>
<trkpt lat="58.868504" lon="05.875220"><ele>36</ele><time>2012-03-31T13:57:16Z</time><cmt>0.2 kmh</cmt></trkpt>
<trkpt lat="58.868504" lon="05.875219"><ele>36</ele><time>2012-03-31T13:57:17Z</time><cmt>0.2 kmh</cmt></trkpt>
<trkpt lat="58.868504" lon="05.875218"><ele>36</ele><time>2012-03-31T13:57:18Z</time><cmt>0.0 kmh</cmt></trkpt>
<trkpt lat="58.868505" lon="05.875217"><ele>36</ele><time>2012-03-31T13:57:19Z</time><cmt>0.1 kmh</cmt></trkpt>
<trkpt lat="58.868504" lon="05.875217"><ele>36</ele><time>2012-03-31T13:57:20Z</time><cmt>0.2 kmh</cmt></trkpt>
<trkpt lat="58.868504" lon="05.875217"><ele>36</ele><time>2012-03-31T13:57:21Z</time><cmt>0.2 kmh</cmt></trkpt>
<trkpt lat="58.868503" lon="05.875218"><ele>35</ele><time>2012-03-31T13:57:22Z</time><cmt>0.4 kmh</cmt></trkpt>
<trkpt lat="58.868502" lon="05.875219"><ele>35</ele><time>2012-03-31T13:57:23Z</time><cmt>0.4 kmh</cmt></trkpt>
<trkpt lat="58.868501" lon="05.875219"><ele>35</ele><time>2012-03-31T13:57:24Z</time><cmt>0.2 kmh</cmt></trkpt>
<trkpt lat="58.868500" lon="05.875220"><ele>35</ele><time>2012-03-31T13:57:25Z</time><cmt>0.0 kmh</cmt></trkpt>
<trkpt lat="58.868499" lon="05.875221"><ele>35</ele><time>2012-03-31T13:57:26Z</time><cmt>0.3 kmh</cmt></trkpt>
<trkpt lat="58.868497" lon="05.875222"><ele>35</ele><time>2012-03-31T13:57:27Z</time><cmt>0.5 kmh</cmt></trkpt>
<trkpt lat="58.868496" lon="05.875224"><ele>35</ele><time>2012-03-31T13:57:28Z</time><cmt>0.6 kmh</cmt></trkpt>
<trkpt lat="58.868494" lon="05.875226"><ele>35</ele><time>2012-03-31T13:57:29Z</time><cmt>0.7 kmh</cmt></trkpt>
<trkpt lat="58.868492" lon="05.875228"><ele>35</ele><time>2012-03-31T13:57:30Z</time><cmt>0.7 kmh</cmt></trkpt>
<trkpt lat="58.868490" lon="05.875231"><ele>36</ele><time>2012-03-31T13:57:31Z</time><cmt>0.9 kmh</cmt></trkpt>
<trkpt lat="58.868488" lon="05.875232"><ele>36</ele><time>2012-03-31T13:57:32Z</time><cmt>1.0 kmh</cmt></trkpt>
<trkpt lat="58.868486" lon="05.875234"><ele>36</ele><time>2012-03-31T13:57:33Z</time><cmt>0.8 kmh</cmt></trkpt>
<trkpt lat="58.868484" lon="05.875237"><ele>36</ele><time>2012-03-31T13:57:34Z</time><cmt>0.9 kmh</cmt></trkpt>
<trkpt lat="58.868483" lon="05.875238"><ele>36</ele><time>2012-03-31T13:57:35Z</time><cmt>0.8 kmh</cmt></trkpt>
<trkpt lat="58.868481" lon="05.875240"><ele>36</ele><time>2012-03-31T13:57:36Z</time><cmt>0.8 kmh</cmt></trkpt>
<trkpt lat="58.868479" lon="05.875242"><ele>37</ele><time>2012-03-31T13:57:37Z</time><cmt>0.8 kmh</cmt></trkpt>
<trkpt lat="58.868477" lon="05.875245"><ele>37</ele><time>2012-03-31T13:57:38Z</time><cmt>0.9 kmh</cmt></trkpt>
<trkpt lat="58.868475" lon="05.875246"><ele>37</ele><time>2012-03-31T13:57:39Z</time><cmt>1.0 kmh</cmt></trkpt>
<trkpt lat="58.868475" lon="05.875247"><ele>38</ele><time>2012-03-31T13:57:40Z</time><cmt>0.4 kmh</cmt></trkpt>
<trkpt lat="58.868475" lon="05.875247"><ele>38</ele><time>2012-03-31T13:57:41Z</time><cmt>0.0 kmh</cmt></trkpt>
<trkpt lat="58.868475" lon="05.875247"><ele>38</ele><time>2012-03-31T13:57:42Z</time><cmt>0.0 kmh</cmt></trkpt>
<trkpt lat="58.868475" lon="05.875246"><ele>38</ele><time>2012-03-31T13:57:43Z</time><cmt>0.0 kmh</cmt></trkpt>
<trkpt lat="58.868475" lon="05.875245"><ele>38</ele><time>2012-03-31T13:57:44Z</time><cmt>0.0 kmh</cmt></trkpt>
<trkpt lat="58.868475" lon="05.875246"><ele>39</ele><time>2012-03-31T13:57:45Z</time><cmt>0.0 kmh</cmt></trkpt>
<trkpt lat="58.868475" lon="05.875246"><ele>39</ele><time>2012-03-31T13:57:46Z</time><cmt>0.0 kmh</cmt></trkpt>
<trkpt lat="58.868476" lon="05.875245"><ele>39</ele><time>2012-03-31T13:57:47Z</time><cmt>0.0 kmh</cmt></trkpt>
<trkpt lat="58.868477" lon="05.875244"><ele>39</ele><time>2012-03-31T13:57:48Z</time><cmt>0.0 kmh</cmt></trkpt>
<trkpt lat="58.868478" lon="05.875242"><ele>39</ele><time>2012-03-31T13:57:49Z</time><cmt>0.3 kmh</cmt></trkpt>
<trkpt lat="58.868479" lon="05.875240"><ele>39</ele><time>2012-03-31T13:57:50Z</time><cmt>0.5 kmh</cmt></trkpt>
<trkpt lat="58.868480" lon="05.875239"><ele>39</ele><time>2012-03-31T13:57:51Z</time><cmt>0.5 kmh</cmt></trkpt>
<trkpt lat="58.868481" lon="05.875237"><ele>39</ele><time>2012-03-31T13:57:52Z</time><cmt>0.4 kmh</cmt></trkpt>
<trkpt lat="58.868483" lon="05.875235"><ele>39</ele><time>2012-03-31T13:57:53Z</time><cmt>0.6 kmh</cmt></trkpt>
<trkpt lat="58.868484" lon="05.875233"><ele>39</ele><time>2012-03-31T13:57:54Z</time><cmt>0.7 kmh</cmt></trkpt>
<trkpt lat="58.868485" lon="05.875231"><ele>39</ele><time>2012-03-31T13:57:55Z</time><cmt>0.4 kmh</cmt></trkpt>
<trkpt lat="58.868486" lon="05.875229"><ele>39</ele><time>2012-03-31T13:57:56Z</time><cmt>0.4 kmh</cmt></trkpt>
<trkpt lat="58.868488" lon="05.875227"><ele>39</ele><time>2012-03-31T13:57:57Z</time><cmt>0.9 kmh</cmt></trkpt>
<trkpt lat="58.868490" lon="05.875224"><ele>39</ele><time>2012-03-31T13:57:58Z</time><cmt>1.0 kmh</cmt></trkpt>
<trkpt lat="58.868490" lon="05.875223"><ele>39</ele><time>2012-03-31T13:57:59Z</time><cmt>0.4 kmh</cmt></trkpt>
<trkpt lat="58.868491" lon="05.875223"><ele>38</ele><time>2012-03-31T13:58:00Z</time><cmt>0.0 kmh</cmt></trkpt>
<trkpt lat="58.868491" lon="05.875223"><ele>38</ele><time>2012-03-31T13:58:01Z</time><cmt>0.0 kmh</cmt></trkpt>
<trkpt lat="58.868491" lon="05.875223"><ele>38</ele><time>2012-03-31T13:58:02Z</time><cmt>0.0 kmh</cmt></trkpt>
<trkpt lat="58.868491" lon="05.875223"><ele>38</ele><time>2012-03-31T13:58:04Z</time><cmt>0.2 kmh</cmt></trkpt>
<trkpt lat="58.868491" lon="05.875224"><ele>38</ele><time>2012-03-31T13:58:05Z</time><cmt>0.2 kmh</cmt></trkpt>
<trkpt lat="58.868492" lon="05.875223"><ele>38</ele><time>2012-03-31T13:58:06Z</time><cmt>0.3 kmh</cmt></trkpt>
<trkpt lat="58.868493" lon="05.875223"><ele>38</ele><time>2012-03-31T13:58:07Z</time><cmt>0.4 kmh</cmt></trkpt>
<trkpt lat="58.868493" lon="05.875222"><ele>38</ele><time>2012-03-31T13:58:08Z</time><cmt>0.1 kmh</cmt></trkpt>
<trkpt lat="58.868494" lon="05.875222"><ele>37</ele><time>2012-03-31T13:58:09Z</time><cmt>0.0 kmh</cmt></trkpt>
<trkpt lat="58.868494" lon="05.875222"><ele>37</ele><time>2012-03-31T13:58:10Z</time><cmt>0.0 kmh</cmt></trkpt>
<trkpt lat="58.868495" lon="05.875222"><ele>37</ele><time>2012-03-31T13:58:11Z</time><cmt>0.0 kmh</cmt></trkpt>
<trkpt lat="58.868495" lon="05.875222"><ele>37</ele><time>2012-03-31T13:58:12Z</time><cmt>0.0 kmh</cmt></trkpt>
<trkpt lat="58.868495" lon="05.875222"><ele>37</ele><time>2012-03-31T13:58:13Z</time><cmt>0.0 kmh</cmt></trkpt>
<trkpt lat="58.868495" lon="05.875223"><ele>37</ele><time>2012-03-31T13:58:14Z</time><cmt>0.0 kmh</cmt></trkpt>
<trkpt lat="58.868494" lon="05.875224"><ele>37</ele><time>2012-03-31T13:58:15Z</time><cmt>0.0 kmh</cmt></trkpt>
<trkpt lat="58.868494" lon="05.875225"><ele>37</ele><time>2012-03-31T13:58:16Z</time><cmt>0.0 kmh</cmt></trkpt>
<trkpt lat="58.868494" lon="05.875225"><ele>37</ele><time>2012-03-31T13:58:17Z</time><cmt>0.0 kmh</cmt></trkpt>
<trkpt lat="58.868493" lon="05.875226"><ele>37</ele><time>2012-03-31T13:58:18Z</time><cmt>0.0 kmh</cmt></trkpt>
<trkpt lat="58.868493" lon="05.875227"><ele>37</ele><time>2012-03-31T13:58:19Z</time><cmt>0.0 kmh</cmt></trkpt>
<trkpt lat="58.868492" lon="05.875228"><ele>37</ele><time>2012-03-31T13:58:20Z</time><cmt>0.2 kmh</cmt></trkpt>
<trkpt lat="58.868490" lon="05.875230"><ele>37</ele><time>2012-03-31T13:58:21Z</time><cmt>0.5 kmh</cmt></trkpt>
<trkpt lat="58.868490" lon="05.875230"><ele>37</ele><time>2012-03-31T13:58:22Z</time><cmt>0.3 kmh</cmt></trkpt>
<trkpt lat="58.868489" lon="05.875231"><ele>37</ele><time>2012-03-31T13:58:23Z</time><cmt>0.0 kmh</cmt></trkpt>
<trkpt lat="58.868489" lon="05.875232"><ele>37</ele><time>2012-03-31T13:58:24Z</time><cmt>0.0 kmh</cmt></trkpt>
<trkpt lat="58.868489" lon="05.875233"><ele>37</ele><time>2012-03-31T13:58:25Z</time><cmt>0.0 kmh</cmt></trkpt>
<trkpt lat="58.868488" lon="05.875233"><ele>37</ele><time>2012-03-31T13:58:26Z</time><cmt>0.0 kmh</cmt></trkpt>
<trkpt lat="58.868488" lon="05.875234"><ele>37</ele><time>2012-03-31T13:58:27Z</time><cmt>0.0 kmh</cmt></trkpt>
<trkpt lat="58.868487" lon="05.875235"><ele>37</ele><time>2012-03-31T13:58:28Z</time><cmt>0.0 kmh</cmt></trkpt>
<trkpt lat="58.868487" lon="05.875236"><ele>37</ele><time>2012-03-31T13:58:29Z</time><cmt>0.3 kmh</cmt></trkpt>
<trkpt lat="58.868486" lon="05.875237"><ele>37</ele><time>2012-03-31T13:58:30Z</time><cmt>0.4 kmh</cmt></trkpt>
<trkpt lat="58.868485" lon="05.875238"><ele>37</ele><time>2012-03-31T13:58:31Z</time><cmt>0.4 kmh</cmt></trkpt>
<trkpt lat="58.868484" lon="05.875239"><ele>37</ele><time>2012-03-31T13:58:32Z</time><cmt>0.1 kmh</cmt></trkpt>
<trkpt lat="58.868484" lon="05.875240"><ele>37</ele><time>2012-03-31T13:58:33Z</time><cmt>0.0 kmh</cmt></trkpt>
<trkpt lat="58.868484" lon="05.875239"><ele>37</ele><time>2012-03-31T13:58:34Z</time><cmt>0.0 kmh</cmt></trkpt>
<trkpt lat="58.868484" lon="05.875239"><ele>38</ele><time>2012-03-31T13:58:35Z</time><cmt>0.0 kmh</cmt></trkpt>
<trkpt lat="58.868483" lon="05.875239"><ele>38</ele><time>2012-03-31T13:58:36Z</time><cmt>0.0 kmh</cmt></trkpt>
<trkpt lat="58.868483" lon="05.875239"><ele>38</ele><time>2012-03-31T13:58:37Z</time><cmt>0.0 kmh</cmt></trkpt>
<trkpt lat="58.868482" lon="05.875239"><ele>38</ele><time>2012-03-31T13:58:38Z</time><cmt>0.0 kmh</cmt></trkpt>
<trkpt lat="58.868481" lon="05.875240"><ele>38</ele><time>2012-03-31T13:58:39Z</time><cmt>0.0 kmh</cmt></trkpt>
<trkpt lat="58.868480" lon="05.875242"><ele>38</ele><time>2012-03-31T13:58:40Z</time><cmt>0.4 kmh</cmt></trkpt>
<trkpt lat="58.868478" lon="05.875243"><ele>38</ele><time>2012-03-31T13:58:41Z</time><cmt>0.7 kmh</cmt></trkpt>
<trkpt lat="58.868477" lon="05.875246"><ele>38</ele><time>2012-03-31T13:58:42Z</time><cmt>0.7 kmh</cmt></trkpt>
<trkpt lat="58.868475" lon="05.875248"><ele>38</ele><time>2012-03-31T13:58:43Z</time><cmt>0.8 kmh</cmt></trkpt>
<trkpt lat="58.868474" lon="05.875250"><ele>38</ele><time>2012-03-31T13:58:44Z</time><cmt>0.9 kmh</cmt></trkpt>
<trkpt lat="58.868472" lon="05.875252"><ele>38</ele><time>2012-03-31T13:58:45Z</time><cmt>0.8 kmh</cmt></trkpt>
<trkpt lat="58.868470" lon="05.875255"><ele>39</ele><time>2012-03-31T13:58:46Z</time><cmt>0.8 kmh</cmt></trkpt>
<trkpt lat="58.868468" lon="05.875257"><ele>39</ele><time>2012-03-31T13:58:47Z</time><cmt>1.0 kmh</cmt></trkpt>
<trkpt lat="58.868466" lon="05.875260"><ele>39</ele><time>2012-03-31T13:58:48Z</time><cmt>1.0 kmh</cmt></trkpt>
<trkpt lat="58.868464" lon="05.875263"><ele>39</ele><time>2012-03-31T13:58:49Z</time><cmt>1.0 kmh</cmt></trkpt>
<trkpt lat="58.868463" lon="05.875264"><ele>39</ele><time>2012-03-31T13:58:50Z</time><cmt>0.8 kmh</cmt></trkpt>
<trkpt lat="58.868461" lon="05.875267"><ele>40</ele><time>2012-03-31T13:58:51Z</time><cmt>0.6 kmh</cmt></trkpt>
<trkpt lat="58.868460" lon="05.875270"><ele>40</ele><time>2012-03-31T13:58:52Z</time><cmt>0.7 kmh</cmt></trkpt>
<trkpt lat="58.868458" lon="05.875273"><ele>40</ele><time>2012-03-31T13:58:53Z</time><cmt>1.0 kmh</cmt></trkpt>
<trkpt lat="58.868457" lon="05.875275"><ele>41</ele><time>2012-03-31T13:58:54Z</time><cmt>1.0 kmh</cmt></trkpt>
<trkpt lat="58.868456" lon="05.875277"><ele>41</ele><time>2012-03-31T13:58:55Z</time><cmt>0.6 kmh</cmt></trkpt>
<trkpt lat="58.868455" lon="05.875279"><ele>41</ele><time>2012-03-31T13:58:56Z</time><cmt>0.5 kmh</cmt></trkpt>
<trkpt lat="58.868454" lon="05.875280"><ele>41</ele><time>2012-03-31T13:58:57Z</time><cmt>0.4 kmh</cmt></trkpt>
<trkpt lat="58.868454" lon="05.875281"><ele>42</ele><time>2012-03-31T13:58:58Z</time><cmt>0.4 kmh</cmt></trkpt>
<trkpt lat="58.868453" lon="05.875282"><ele>42</ele><time>2012-03-31T13:58:59Z</time><cmt>0.2 kmh</cmt></trkpt>
<trkpt lat="58.868452" lon="05.875284"><ele>42</ele><time>2012-03-31T13:59:00Z</time><cmt>0.4 kmh</cmt></trkpt>
<trkpt lat="58.868450" lon="05.875286"><ele>43</ele><time>2012-03-31T13:59:01Z</time><cmt>0.6 kmh</cmt></trkpt>
<trkpt lat="58.868449" lon="05.875288"><ele>43</ele><time>2012-03-31T13:59:02Z</time><cmt>0.7 kmh</cmt></trkpt>
<trkpt lat="58.868448" lon="05.875289"><ele>43</ele><time>2012-03-31T13:59:03Z</time><cmt>0.4 kmh</cmt></trkpt>
<trkpt lat="58.868448" lon="05.875289"><ele>43</ele><time>2012-03-31T13:59:04Z</time><cmt>0.0 kmh</cmt></trkpt>
<trkpt lat="58.868449" lon="05.875288"><ele>44</ele><time>2012-03-31T13:59:05Z</time><cmt>0.3 kmh</cmt></trkpt>
<trkpt lat="58.868450" lon="05.875286"><ele>44</ele><time>2012-03-31T13:59:06Z</time><cmt>0.5 kmh</cmt></trkpt>
<trkpt lat="58.868452" lon="05.875285"><ele>44</ele><time>2012-03-31T13:59:07Z</time><cmt>0.5 kmh</cmt></trkpt>
<trkpt lat="58.868452" lon="05.875284"><ele>44</ele><time>2012-03-31T13:59:08Z</time><cmt>0.3 kmh</cmt></trkpt>
<trkpt lat="58.868454" lon="05.875283"><ele>44</ele><time>2012-03-31T13:59:09Z</time><cmt>0.3 kmh</cmt></trkpt>
<trkpt lat="58.868456" lon="05.875280"><ele>44</ele><time>2012-03-31T13:59:10Z</time><cmt>0.8 kmh</cmt></trkpt>
<trkpt lat="58.868458" lon="05.875277"><ele>44</ele><time>2012-03-31T13:59:11Z</time><cmt>1.3 kmh</cmt></trkpt>
<trkpt lat="58.868461" lon="05.875275"><ele>44</ele><time>2012-03-31T13:59:12Z</time><cmt>1.3 kmh</cmt></trkpt>
<trkpt lat="58.868463" lon="05.875271"><ele>44</ele><time>2012-03-31T13:59:13Z</time><cmt>1.2 kmh</cmt></trkpt>
<trkpt lat="58.868466" lon="05.875268"><ele>44</ele><time>2012-03-31T13:59:14Z</time><cmt>1.2 kmh</cmt></trkpt>
<trkpt lat="58.868468" lon="05.875265"><ele>44</ele><time>2012-03-31T13:59:15Z</time><cmt>1.3 kmh</cmt></trkpt>
<trkpt lat="58.868470" lon="05.875262"><ele>44</ele><time>2012-03-31T13:59:16Z</time><cmt>0.9 kmh</cmt></trkpt>
<trkpt lat="58.868472" lon="05.875260"><ele>44</ele><time>2012-03-31T13:59:17Z</time><cmt>0.8 kmh</cmt></trkpt>
<trkpt lat="58.868474" lon="05.875257"><ele>43</ele><time>2012-03-31T13:59:18Z</time><cmt>1.0 kmh</cmt></trkpt>
<trkpt lat="58.868476" lon="05.875254"><ele>43</ele><time>2012-03-31T13:59:19Z</time><cmt>0.9 kmh</cmt></trkpt>
<trkpt lat="58.868477" lon="05.875252"><ele>43</ele><time>2012-03-31T13:59:20Z</time><cmt>0.9 kmh</cmt></trkpt>
<trkpt lat="58.868479" lon="05.875250"><ele>43</ele><time>2012-03-31T13:59:21Z</time><cmt>0.9 kmh</cmt></trkpt>
<trkpt lat="58.868481" lon="05.875247"><ele>42</ele><time>2012-03-31T13:59:22Z</time><cmt>0.8 kmh</cmt></trkpt>
<trkpt lat="58.868482" lon="05.875245"><ele>42</ele><time>2012-03-31T13:59:23Z</time><cmt>0.8 kmh</cmt></trkpt>
<trkpt lat="58.868484" lon="05.875242"><ele>42</ele><time>2012-03-31T13:59:24Z</time><cmt>0.9 kmh</cmt></trkpt>
<trkpt lat="58.868485" lon="05.875240"><ele>41</ele><time>2012-03-31T13:59:25Z</time><cmt>0.7 kmh</cmt></trkpt>
<trkpt lat="58.868486" lon="05.875238"><ele>41</ele><time>2012-03-31T13:59:26Z</time><cmt>0.7 kmh</cmt></trkpt>
<trkpt lat="58.868487" lon="05.875236"><ele>41</ele><time>2012-03-31T13:59:27Z</time><cmt>0.7 kmh</cmt></trkpt>
<trkpt lat="58.868489" lon="05.875234"><ele>40</ele><time>2012-03-31T13:59:28Z</time><cmt>0.6 kmh</cmt></trkpt>
<trkpt lat="58.868490" lon="05.875232"><ele>40</ele><time>2012-03-31T13:59:29Z</time><cmt>0.6 kmh</cmt></trkpt>
<trkpt lat="58.868491" lon="05.875230"><ele>39</ele><time>2012-03-31T13:59:30Z</time><cmt>0.7 kmh</cmt></trkpt>
<trkpt lat="58.868492" lon="05.875228"><ele>39</ele><time>2012-03-31T13:59:31Z</time><cmt>0.6 kmh</cmt></trkpt>
<trkpt lat="58.868493" lon="05.875226"><ele>39</ele><time>2012-03-31T13:59:32Z</time><cmt>0.6 kmh</cmt></trkpt>
<trkpt lat="58.868495" lon="05.875224"><ele>38</ele><time>2012-03-31T13:59:33Z</time><cmt>0.7 kmh</cmt></trkpt>
<trkpt lat="58.868496" lon="05.875221"><ele>38</ele><time>2012-03-31T13:59:34Z</time><cmt>0.7 kmh</cmt></trkpt>
<trkpt lat="58.868498" lon="05.875219"><ele>38</ele><time>2012-03-31T13:59:35Z</time><cmt>0.7 kmh</cmt></trkpt>
<trkpt lat="58.868498" lon="05.875218"><ele>37</ele><time>2012-03-31T13:59:36Z</time><cmt>0.4 kmh</cmt></trkpt>
<trkpt lat="58.868499" lon="05.875217"><ele>37</ele><time>2012-03-31T13:59:37Z</time><cmt>0.0 kmh</cmt></trkpt>
<trkpt lat="58.868500" lon="05.875216"><ele>37</ele><time>2012-03-31T13:59:38Z</time><cmt>0.3 kmh</cmt></trkpt>
<trkpt lat="58.868501" lon="05.875214"><ele>36</ele><time>2012-03-31T13:59:39Z</time><cmt>0.5 kmh</cmt></trkpt>
<trkpt lat="58.868501" lon="05.875214"><ele>36</ele><time>2012-03-31T13:59:40Z</time><cmt>0.4 kmh</cmt></trkpt>
<trkpt lat="58.868500" lon="05.875216"><ele>36</ele><time>2012-03-31T13:59:41Z</time><cmt>0.4 kmh</cmt></trkpt>
<trkpt lat="58.868500" lon="05.875215"><ele>35</ele><time>2012-03-31T13:59:42Z</time><cmt>0.3 kmh</cmt></trkpt>
<trkpt lat="58.868501" lon="05.875214"><ele>35</ele><time>2012-03-31T13:59:43Z</time><cmt>0.0 kmh</cmt></trkpt>
<trkpt lat="58.868501" lon="05.875213"><ele>35</ele><time>2012-03-31T13:59:44Z</time><cmt>0.3 kmh</cmt></trkpt>
<trkpt lat="58.868502" lon="05.875212"><ele>35</ele><time>2012-03-31T13:59:45Z</time><cmt>0.4 kmh</cmt></trkpt>
<trkpt lat="58.868502" lon="05.875211"><ele>34</ele><time>2012-03-31T13:59:46Z</time><cmt>0.2 kmh</cmt></trkpt>
<trkpt lat="58.868502" lon="05.875210"><ele>34</ele><time>2012-03-31T13:59:47Z</time><cmt>0.1 kmh</cmt></trkpt>
<trkpt lat="58.868503" lon="05.875209"><ele>34</ele><time>2012-03-31T13:59:48Z</time><cmt>0.1 kmh</cmt></trkpt>
<trkpt lat="58.868503" lon="05.875208"><ele>34</ele><time>2012-03-31T13:59:49Z</time><cmt>0.0 kmh</cmt></trkpt>
<trkpt lat="58.868504" lon="05.875207"><ele>34</ele><time>2012-03-31T13:59:50Z</time><cmt>0.0 kmh</cmt></trkpt>
<trkpt lat="58.868504" lon="05.875205"><ele>33</ele><time>2012-03-31T13:59:51Z</time><cmt>0.0 kmh</cmt></trkpt>
<trkpt lat="58.868504" lon="05.875204"><ele>33</ele><time>2012-03-31T13:59:52Z</time><cmt>0.0 kmh</cmt></trkpt>
<trkpt lat="58.868505" lon="05.875203"><ele>33</ele><time>2012-03-31T13:59:53Z</time><cmt>0.0 kmh</cmt></trkpt>
<trkpt lat="58.868505" lon="05.875202"><ele>33</ele><time>2012-03-31T13:59:54Z</time><cmt>0.0 kmh</cmt></trkpt>
<trkpt lat="58.868505" lon="05.875201"><ele>33</ele><time>2012-03-31T13:59:55Z</time><cmt>0.0 kmh</cmt></trkpt>
<trkpt lat="58.868506" lon="05.875200"><ele>33</ele><time>2012-03-31T13:59:56Z</time><cmt>0.3 kmh</cmt></trkpt>
<trkpt lat="58.868506" lon="05.875198"><ele>32</ele><time>2012-03-31T13:59:57Z</time><cmt>0.5 kmh</cmt></trkpt>
<trkpt lat="58.868506" lon="05.875197"><ele>32</ele><time>2012-03-31T13:59:58Z</time><cmt>0.3 kmh</cmt></trkpt>
<trkpt lat="58.868507" lon="05.875196"><ele>32</ele><time>2012-03-31T13:59:59Z</time><cmt>0.0 kmh</cmt></trkpt>
<trkpt lat="58.868507" lon="05.875195"><ele>32</ele><time>2012-03-31T14:00:00Z</time><cmt>0.2 kmh</cmt></trkpt>
<trkpt lat="58.868507" lon="05.875194"><ele>32</ele><time>2012-03-31T14:00:01Z</time><cmt>0.3 kmh</cmt></trkpt>
<trkpt lat="58.868508" lon="05.875193"><ele>32</ele><time>2012-03-31T14:00:02Z</time><cmt>0.0 kmh</cmt></trkpt>
<trkpt lat="58.868508" lon="05.875192"><ele>32</ele><time>2012-03-31T14:00:03Z</time><cmt>0.2 kmh</cmt></trkpt>
<trkpt lat="58.868508" lon="05.875192"><ele>32</ele><time>2012-03-31T14:00:04Z</time><cmt>0.4 kmh</cmt></trkpt>
<trkpt lat="58.868508" lon="05.875192"><ele>31</ele><time>2012-03-31T14:00:05Z</time><cmt>0.1 kmh</cmt></trkpt>
<trkpt lat="58.868508" lon="05.875191"><ele>31</ele><time>2012-03-31T14:00:06Z</time><cmt>0.0 kmh</cmt></trkpt>
<trkpt lat="58.868508" lon="05.875190"><ele>31</ele><time>2012-03-31T14:00:07Z</time><cmt>0.2 kmh</cmt></trkpt>
<trkpt lat="58.868508" lon="05.875189"><ele>31</ele><time>2012-03-31T14:00:08Z</time><cmt>0.4 kmh</cmt></trkpt>
<trkpt lat="58.868508" lon="05.875188"><ele>31</ele><time>2012-03-31T14:00:09Z</time><cmt>0.5 kmh</cmt></trkpt>
<trkpt lat="58.868509" lon="05.875188"><ele>31</ele><time>2012-03-31T14:00:10Z</time><cmt>0.3 kmh</cmt></trkpt>
<trkpt lat="58.868509" lon="05.875187"><ele>31</ele><time>2012-03-31T14:00:11Z</time><cmt>0.0 kmh</cmt></trkpt>
<trkpt lat="58.868509" lon="05.875186"><ele>31</ele><time>2012-03-31T14:00:12Z</time><cmt>0.0 kmh</cmt></trkpt>
<trkpt lat="58.868510" lon="05.875185"><ele>31</ele><time>2012-03-31T14:00:13Z</time><cmt>0.0 kmh</cmt></trkpt>
<trkpt lat="58.868510" lon="05.875184"><ele>30</ele><time>2012-03-31T14:00:14Z</time><cmt>0.0 kmh</cmt></trkpt>
<trkpt lat="58.868510" lon="05.875183"><ele>30</ele><time>2012-03-31T14:00:15Z</time><cmt>0.0 kmh</cmt></trkpt>
<trkpt lat="58.868511" lon="05.875182"><ele>30</ele><time>2012-03-31T14:00:16Z</time><cmt>0.0 kmh</cmt></trkpt>
<trkpt lat="58.868511" lon="05.875181"><ele>30</ele><time>2012-03-31T14:00:17Z</time><cmt>0.0 kmh</cmt></trkpt>
<trkpt lat="58.868510" lon="05.875182"><ele>30</ele><time>2012-03-31T14:00:18Z</time><cmt>0.2 kmh</cmt></trkpt>
<trkpt lat="58.868509" lon="05.875183"><ele>30</ele><time>2012-03-31T14:00:19Z</time><cmt>0.4 kmh</cmt></trkpt>
<trkpt lat="58.868508" lon="05.875185"><ele>30</ele><time>2012-03-31T14:00:20Z</time><cmt>0.6 kmh</cmt></trkpt>
<trkpt lat="58.868506" lon="05.875187"><ele>30</ele><time>2012-03-31T14:00:21Z</time><cmt>0.7 kmh</cmt></trkpt>
<trkpt lat="58.868505" lon="05.875189"><ele>30</ele><time>2012-03-31T14:00:22Z</time><cmt>0.7 kmh</cmt></trkpt>
<trkpt lat="58.868503" lon="05.875190"><ele>30</ele><time>2012-03-31T14:00:23Z</time><cmt>0.7 kmh</cmt></trkpt>
<trkpt lat="58.868502" lon="05.875192"><ele>30</ele><time>2012-03-31T14:00:24Z</time><cmt>0.6 kmh</cmt></trkpt>
<trkpt lat="58.868501" lon="05.875194"><ele>30</ele><time>2012-03-31T14:00:25Z</time><cmt>0.5 kmh</cmt></trkpt>
<trkpt lat="58.868499" lon="05.875196"><ele>30</ele><time>2012-03-31T14:00:26Z</time><cmt>0.7 kmh</cmt></trkpt>
<trkpt lat="58.868498" lon="05.875198"><ele>30</ele><time>2012-03-31T14:00:27Z</time><cmt>0.7 kmh</cmt></trkpt>
<trkpt lat="58.868498" lon="05.875200"><ele>31</ele><time>2012-03-31T14:00:28Z</time><cmt>0.5 kmh</cmt></trkpt>
<trkpt lat="58.868498" lon="05.875200"><ele>31</ele><time>2012-03-31T14:00:29Z</time><cmt>0.3 kmh</cmt></trkpt>
<trkpt lat="58.868498" lon="05.875200"><ele>31</ele><time>2012-03-31T14:00:30Z</time><cmt>0.0 kmh</cmt></trkpt>
<trkpt lat="58.868499" lon="05.875199"><ele>31</ele><time>2012-03-31T14:00:31Z</time><cmt>0.1 kmh</cmt></trkpt>
<trkpt lat="58.868499" lon="05.875198"><ele>31</ele><time>2012-03-31T14:00:32Z</time><cmt>0.2 kmh</cmt></trkpt>
<trkpt lat="58.868500" lon="05.875197"><ele>31</ele><time>2012-03-31T14:00:33Z</time><cmt>0.0 kmh</cmt></trkpt>
<trkpt lat="58.868500" lon="05.875196"><ele>31</ele><time>2012-03-31T14:00:34Z</time><cmt>0.0 kmh</cmt></trkpt>
<trkpt lat="58.868501" lon="05.875195"><ele>31</ele><time>2012-03-31T14:00:35Z</time><cmt>0.0 kmh</cmt></trkpt>
<trkpt lat="58.868501" lon="05.875194"><ele>31</ele><time>2012-03-31T14:00:36Z</time><cmt>0.1 kmh</cmt></trkpt>
<trkpt lat="58.868502" lon="05.875193"><ele>31</ele><time>2012-03-31T14:00:37Z</time><cmt>0.3 kmh</cmt></trkpt>
<trkpt lat="58.868502" lon="05.875192"><ele>31</ele><time>2012-03-31T14:00:38Z</time><cmt>0.2 kmh</cmt></trkpt>
<trkpt lat="58.868503" lon="05.875191"><ele>31</ele><time>2012-03-31T14:00:39Z</time><cmt>0.0 kmh</cmt></trkpt>
<trkpt lat="58.868503" lon="05.875190"><ele>31</ele><time>2012-03-31T14:00:40Z</time><cmt>0.0 kmh</cmt></trkpt>
<trkpt lat="58.868504" lon="05.875189"><ele>31</ele><time>2012-03-31T14:00:41Z</time><cmt>0.0 kmh</cmt></trkpt>
<trkpt lat="58.868503" lon="05.875191"><ele>31</ele><time>2012-03-31T14:00:42Z</time><cmt>0.3 kmh</cmt></trkpt>
<trkpt lat="58.868501" lon="05.875193"><ele>32</ele><time>2012-03-31T14:00:43Z</time><cmt>0.7 kmh</cmt></trkpt>
<trkpt lat="58.868499" lon="05.875196"><ele>32</ele><time>2012-03-31T14:00:44Z</time><cmt>1.0 kmh</cmt></trkpt>
<trkpt lat="58.868497" lon="05.875199"><ele>32</ele><time>2012-03-31T14:00:45Z</time><cmt>1.2 kmh</cmt></trkpt>
<trkpt lat="58.868494" lon="05.875203"><ele>32</ele><time>2012-03-31T14:00:46Z</time><cmt>1.4 kmh</cmt></trkpt>
<trkpt lat="58.868491" lon="05.875208"><ele>32</ele><time>2012-03-31T14:00:47Z</time><cmt>1.6 kmh</cmt></trkpt>
<trkpt lat="58.868486" lon="05.875214"><ele>33</ele><time>2012-03-31T14:00:48Z</time><cmt>1.5 kmh</cmt></trkpt>
<trkpt lat="58.868484" lon="05.875219"><ele>33</ele><time>2012-03-31T14:00:49Z</time><cmt>1.6 kmh</cmt></trkpt>
<trkpt lat="58.868481" lon="05.875223"><ele>33</ele><time>2012-03-31T14:00:50Z</time><cmt>1.5 kmh</cmt></trkpt>
<trkpt lat="58.868479" lon="05.875227"><ele>34</ele><time>2012-03-31T14:00:51Z</time><cmt>1.3 kmh</cmt></trkpt>
<trkpt lat="58.868477" lon="05.875230"><ele>34</ele><time>2012-03-31T14:00:52Z</time><cmt>1.1 kmh</cmt></trkpt>
<trkpt lat="58.868475" lon="05.875233"><ele>35</ele><time>2012-03-31T14:00:53Z</time><cmt>1.0 kmh</cmt></trkpt>
<trkpt lat="58.868476" lon="05.875233"><ele>35</ele><time>2012-03-31T14:00:54Z</time><cmt>0.5 kmh</cmt></trkpt>
<trkpt lat="58.868476" lon="05.875234"><ele>36</ele><time>2012-03-31T14:00:55Z</time><cmt>0.0 kmh</cmt></trkpt>
<trkpt lat="58.868475" lon="05.875234"><ele>36</ele><time>2012-03-31T14:00:56Z</time><cmt>0.0 kmh</cmt></trkpt>
<trkpt lat="58.868475" lon="05.875236"><ele>36</ele><time>2012-03-31T14:00:57Z</time><cmt>0.2 kmh</cmt></trkpt>
<trkpt lat="58.868474" lon="05.875237"><ele>37</ele><time>2012-03-31T14:00:58Z</time><cmt>0.2 kmh</cmt></trkpt>
<trkpt lat="58.868474" lon="05.875238"><ele>37</ele><time>2012-03-31T14:00:59Z</time><cmt>0.0 kmh</cmt></trkpt>
<trkpt lat="58.868474" lon="05.875239"><ele>37</ele><time>2012-03-31T14:01:00Z</time><cmt>0.0 kmh</cmt></trkpt>
<trkpt lat="58.868473" lon="05.875240"><ele>38</ele><time>2012-03-31T14:01:01Z</time><cmt>0.0 kmh</cmt></trkpt>
<trkpt lat="58.868473" lon="05.875241"><ele>38</ele><time>2012-03-31T14:01:02Z</time><cmt>0.1 kmh</cmt></trkpt>
<trkpt lat="58.868473" lon="05.875243"><ele>38</ele><time>2012-03-31T14:01:03Z</time><cmt>0.2 kmh</cmt></trkpt>
<trkpt lat="58.868472" lon="05.875244"><ele>38</ele><time>2012-03-31T14:01:04Z</time><cmt>0.0 kmh</cmt></trkpt>
<trkpt lat="58.868472" lon="05.875245"><ele>39</ele><time>2012-03-31T14:01:05Z</time><cmt>0.0 kmh</cmt></trkpt>
<trkpt lat="58.868471" lon="05.875247"><ele>39</ele><time>2012-03-31T14:01:06Z</time><cmt>0.3 kmh</cmt></trkpt>
<trkpt lat="58.868471" lon="05.875249"><ele>39</ele><time>2012-03-31T14:01:07Z</time><cmt>0.4 kmh</cmt></trkpt>
<trkpt lat="58.868470" lon="05.875251"><ele>39</ele><time>2012-03-31T14:01:08Z</time><cmt>0.5 kmh</cmt></trkpt>
<trkpt lat="58.868468" lon="05.875254"><ele>40</ele><time>2012-03-31T14:01:09Z</time><cmt>0.7 kmh</cmt></trkpt>
<trkpt lat="58.868467" lon="05.875256"><ele>40</ele><time>2012-03-31T14:01:10Z</time><cmt>0.7 kmh</cmt></trkpt>
<trkpt lat="58.868467" lon="05.875259"><ele>40</ele><time>2012-03-31T14:01:11Z</time><cmt>0.6 kmh</cmt></trkpt>
<trkpt lat="58.868466" lon="05.875261"><ele>41</ele><time>2012-03-31T14:01:12Z</time><cmt>0.5 kmh</cmt></trkpt>
<trkpt lat="58.868465" lon="05.875263"><ele>41</ele><time>2012-03-31T14:01:13Z</time><cmt>0.4 kmh</cmt></trkpt>
<trkpt lat="58.868464" lon="05.875265"><ele>41</ele><time>2012-03-31T14:01:14Z</time><cmt>0.2 kmh</cmt></trkpt>
<trkpt lat="58.868463" lon="05.875267"><ele>42</ele><time>2012-03-31T14:01:15Z</time><cmt>0.2 kmh</cmt></trkpt>
<trkpt lat="58.868463" lon="05.875268"><ele>42</ele><time>2012-03-31T14:01:16Z</time><cmt>0.2 kmh</cmt></trkpt>
<trkpt lat="58.868463" lon="05.875269"><ele>42</ele><time>2012-03-31T14:01:17Z</time><cmt>0.0 kmh</cmt></trkpt>
<trkpt lat="58.868463" lon="05.875268"><ele>42</ele><time>2012-03-31T14:01:18Z</time><cmt>0.0 kmh</cmt></trkpt>
<trkpt lat="58.868464" lon="05.875268"><ele>43</ele><time>2012-03-31T14:01:19Z</time><cmt>0.0 kmh</cmt></trkpt>
<trkpt lat="58.868464" lon="05.875268"><ele>43</ele><time>2012-03-31T14:01:20Z</time><cmt>0.0 kmh</cmt></trkpt>
<trkpt lat="58.868464" lon="05.875268"><ele>43</ele><time>2012-03-31T14:01:21Z</time><cmt>0.0 kmh</cmt></trkpt>
<trkpt lat="58.868464" lon="05.875268"><ele>43</ele><time>2012-03-31T14:01:22Z</time><cmt>0.0 kmh</cmt></trkpt>
<trkpt lat="58.868464" lon="05.875268"><ele>44</ele><time>2012-03-31T14:01:23Z</time><cmt>0.0 kmh</cmt></trkpt>
<trkpt lat="58.868464" lon="05.875267"><ele>44</ele><time>2012-03-31T14:01:24Z</time><cmt>0.0 kmh</cmt></trkpt>
<trkpt lat="58.868464" lon="05.875267"><ele>44</ele><time>2012-03-31T14:01:25Z</time><cmt>0.0 kmh</cmt></trkpt>
<trkpt lat="58.868464" lon="05.875267"><ele>44</ele><time>2012-03-31T14:01:26Z</time><cmt>0.1 kmh</cmt></trkpt>
<trkpt lat="58.868465" lon="05.875267"><ele>44</ele><time>2012-03-31T14:01:27Z</time><cmt>0.1 kmh</cmt></trkpt>
<trkpt lat="58.868465" lon="05.875267"><ele>44</ele><time>2012-03-31T14:01:28Z</time><cmt>0.2 kmh</cmt></trkpt>
<trkpt lat="58.868464" lon="05.875267"><ele>44</ele><time>2012-03-31T14:01:29Z</time><cmt>0.2 kmh</cmt></trkpt>
<trkpt lat="58.868464" lon="05.875267"><ele>45</ele><time>2012-03-31T14:01:30Z</time><cmt>0.2 kmh</cmt></trkpt>
<trkpt lat="58.868465" lon="05.875266"><ele>45</ele><time>2012-03-31T14:01:31Z</time><cmt>0.4 kmh</cmt></trkpt>
<trkpt lat="58.868466" lon="05.875264"><ele>45</ele><time>2012-03-31T14:01:32Z</time><cmt>0.3 kmh</cmt></trkpt>
<trkpt lat="58.868466" lon="05.875263"><ele>45</ele><time>2012-03-31T14:01:33Z</time><cmt>0.4 kmh</cmt></trkpt>
<trkpt lat="58.868467" lon="05.875261"><ele>45</ele><time>2012-03-31T14:01:34Z</time><cmt>0.5 kmh</cmt></trkpt>
<trkpt lat="58.868468" lon="05.875260"><ele>45</ele><time>2012-03-31T14:01:35Z</time><cmt>0.5 kmh</cmt></trkpt>
<trkpt lat="58.868469" lon="05.875258"><ele>45</ele><time>2012-03-31T14:01:36Z</time><cmt>0.4 kmh</cmt></trkpt>
<trkpt lat="58.868470" lon="05.875257"><ele>45</ele><time>2012-03-31T14:01:37Z</time><cmt>0.4 kmh</cmt></trkpt>
<trkpt lat="58.868470" lon="05.875258"><ele>45</ele><time>2012-03-31T14:01:38Z</time><cmt>0.2 kmh</cmt></trkpt>
<trkpt lat="58.868469" lon="05.875261"><ele>45</ele><time>2012-03-31T14:01:39Z</time><cmt>0.3 kmh</cmt></trkpt>
<trkpt lat="58.868467" lon="05.875264"><ele>45</ele><time>2012-03-31T14:01:40Z</time><cmt>0.8 kmh</cmt></trkpt>
<trkpt lat="58.868466" lon="05.875267"><ele>45</ele><time>2012-03-31T14:01:41Z</time><cmt>0.9 kmh</cmt></trkpt>
<trkpt lat="58.868465" lon="05.875269"><ele>45</ele><time>2012-03-31T14:01:42Z</time><cmt>0.8 kmh</cmt></trkpt>
<trkpt lat="58.868464" lon="05.875272"><ele>45</ele><time>2012-03-31T14:01:43Z</time><cmt>0.7 kmh</cmt></trkpt>
<trkpt lat="58.868463" lon="05.875274"><ele>45</ele><time>2012-03-31T14:01:44Z</time><cmt>0.7 kmh</cmt></trkpt>
<trkpt lat="58.868462" lon="05.875277"><ele>45</ele><time>2012-03-31T14:01:45Z</time><cmt>0.7 kmh</cmt></trkpt>
<trkpt lat="58.868461" lon="05.875280"><ele>45</ele><time>2012-03-31T14:01:46Z</time><cmt>0.8 kmh</cmt></trkpt>
<trkpt lat="58.868460" lon="05.875282"><ele>46</ele><time>2012-03-31T14:01:47Z</time><cmt>0.8 kmh</cmt></trkpt>
<trkpt lat="58.868459" lon="05.875284"><ele>46</ele><time>2012-03-31T14:01:48Z</time><cmt>0.7 kmh</cmt></trkpt>
<trkpt lat="58.868459" lon="05.875286"><ele>46</ele><time>2012-03-31T14:01:49Z</time><cmt>0.6 kmh</cmt></trkpt>
<trkpt lat="58.868458" lon="05.875287"><ele>46</ele><time>2012-03-31T14:01:50Z</time><cmt>0.4 kmh</cmt></trkpt>
<trkpt lat="58.868458" lon="05.875289"><ele>46</ele><time>2012-03-31T14:01:51Z</time><cmt>0.4 kmh</cmt></trkpt>
<trkpt lat="58.868457" lon="05.875290"><ele>46</ele><time>2012-03-31T14:01:52Z</time><cmt>0.2 kmh</cmt></trkpt>
<trkpt lat="58.868457" lon="05.875291"><ele>47</ele><time>2012-03-31T14:01:53Z</time><cmt>0.0 kmh</cmt></trkpt>
<trkpt lat="58.868456" lon="05.875293"><ele>47</ele><time>2012-03-31T14:01:54Z</time><cmt>0.0 kmh</cmt></trkpt>
<trkpt lat="58.868455" lon="05.875295"><ele>47</ele><time>2012-03-31T14:01:55Z</time><cmt>0.4 kmh</cmt></trkpt>
<trkpt lat="58.868453" lon="05.875298"><ele>47</ele><time>2012-03-31T14:01:56Z</time><cmt>0.9 kmh</cmt></trkpt>
<trkpt lat="58.868453" lon="05.875299"><ele>48</ele><time>2012-03-31T14:01:57Z</time><cmt>0.4 kmh</cmt></trkpt>
<trkpt lat="58.868453" lon="05.875299"><ele>48</ele><time>2012-03-31T14:01:58Z</time><cmt>0.0 kmh</cmt></trkpt>
<trkpt lat="58.868453" lon="05.875299"><ele>48</ele><time>2012-03-31T14:01:59Z</time><cmt>0.0 kmh</cmt></trkpt>
<trkpt lat="58.868453" lon="05.875299"><ele>48</ele><time>2012-03-31T14:02:00Z</time><cmt>0.0 kmh</cmt></trkpt>
<trkpt lat="58.868453" lon="05.875299"><ele>48</ele><time>2012-03-31T14:02:01Z</time><cmt>0.0 kmh</cmt></trkpt>
<trkpt lat="58.868453" lon="05.875300"><ele>48</ele><time>2012-03-31T14:02:02Z</time><cmt>0.0 kmh</cmt></trkpt>
<trkpt lat="58.868453" lon="05.875300"><ele>48</ele><time>2012-03-31T14:02:03Z</time><cmt>0.1 kmh</cmt></trkpt>
<trkpt lat="58.868453" lon="05.875300"><ele>49</ele><time>2012-03-31T14:02:04Z</time><cmt>0.3 kmh</cmt></trkpt>
<trkpt lat="58.868453" lon="05.875301"><ele>49</ele><time>2012-03-31T14:02:05Z</time><cmt>0.2 kmh</cmt></trkpt>
<trkpt lat="58.868453" lon="05.875302"><ele>49</ele><time>2012-03-31T14:02:06Z</time><cmt>0.3 kmh</cmt></trkpt>
<trkpt lat="58.868452" lon="05.875303"><ele>49</ele><time>2012-03-31T14:02:07Z</time><cmt>0.4 kmh</cmt></trkpt>
<trkpt lat="58.868452" lon="05.875304"><ele>49</ele><time>2012-03-31T14:02:08Z</time><cmt>0.4 kmh</cmt></trkpt>
<trkpt lat="58.868451" lon="05.875305"><ele>49</ele><time>2012-03-31T14:02:09Z</time><cmt>0.3 kmh</cmt></trkpt>
<trkpt lat="58.868451" lon="05.875306"><ele>49</ele><time>2012-03-31T14:02:10Z</time><cmt>0.1 kmh</cmt></trkpt>
<trkpt lat="58.868448" lon="05.875310"><ele>49</ele><time>2012-03-31T14:02:11Z</time><cmt>0.7 kmh</cmt></trkpt>
<trkpt lat="58.868445" lon="05.875315"><ele>50</ele><time>2012-03-31T14:02:12Z</time><cmt>1.6 kmh</cmt></trkpt>
<trkpt lat="58.868443" lon="05.875320"><ele>50</ele><time>2012-03-31T14:02:13Z</time><cmt>1.6 kmh</cmt></trkpt>
<trkpt lat="58.868441" lon="05.875323"><ele>50</ele><time>2012-03-31T14:02:14Z</time><cmt>1.3 kmh</cmt></trkpt>
<trkpt lat="58.868439" lon="05.875326"><ele>50</ele><time>2012-03-31T14:02:15Z</time><cmt>0.8 kmh</cmt></trkpt>
<trkpt lat="58.868438" lon="05.875329"><ele>51</ele><time>2012-03-31T14:02:16Z</time><cmt>0.8 kmh</cmt></trkpt>
<trkpt lat="58.868437" lon="05.875331"><ele>51</ele><time>2012-03-31T14:02:17Z</time><cmt>0.8 kmh</cmt></trkpt>
<trkpt lat="58.868437" lon="05.875332"><ele>51</ele><time>2012-03-31T14:02:18Z</time><cmt>0.3 kmh</cmt></trkpt>
<trkpt lat="58.868437" lon="05.875332"><ele>52</ele><time>2012-03-31T14:02:19Z</time><cmt>0.0 kmh</cmt></trkpt>
<trkpt lat="58.868438" lon="05.875332"><ele>52</ele><time>2012-03-31T14:02:20Z</time><cmt>0.0 kmh</cmt></trkpt>
<trkpt lat="58.868438" lon="05.875332"><ele>52</ele><time>2012-03-31T14:02:21Z</time><cmt>0.0 kmh</cmt></trkpt>
<trkpt lat="58.868438" lon="05.875333"><ele>52</ele><time>2012-03-31T14:02:22Z</time><cmt>0.0 kmh</cmt></trkpt>
<trkpt lat="58.868438" lon="05.875334"><ele>53</ele><time>2012-03-31T14:02:23Z</time><cmt>0.0 kmh</cmt></trkpt>
<trkpt lat="58.868437" lon="05.875335"><ele>53</ele><time>2012-03-31T14:02:24Z</time><cmt>0.0 kmh</cmt></trkpt>
<trkpt lat="58.868437" lon="05.875335"><ele>53</ele><time>2012-03-31T14:02:25Z</time><cmt>0.0 kmh</cmt></trkpt>
<trkpt lat="58.868437" lon="05.875337"><ele>53</ele><time>2012-03-31T14:02:26Z</time><cmt>0.3 kmh</cmt></trkpt>
<trkpt lat="58.868437" lon="05.875337"><ele>53</ele><time>2012-03-31T14:02:27Z</time><cmt>0.4 kmh</cmt></trkpt>
<trkpt lat="58.868437" lon="05.875337"><ele>54</ele><time>2012-03-31T14:02:28Z</time><cmt>0.3 kmh</cmt></trkpt>
<trkpt lat="58.868438" lon="05.875337"><ele>54</ele><time>2012-03-31T14:02:29Z</time><cmt>0.2 kmh</cmt></trkpt>
<trkpt lat="58.868438" lon="05.875338"><ele>54</ele><time>2012-03-31T14:02:30Z</time><cmt>0.2 kmh</cmt></trkpt>
<trkpt lat="58.868437" lon="05.875339"><ele>54</ele><time>2012-03-31T14:02:31Z</time><cmt>0.4 kmh</cmt></trkpt>
<trkpt lat="58.868437" lon="05.875340"><ele>54</ele><time>2012-03-31T14:02:32Z</time><cmt>0.4 kmh</cmt></trkpt>
<trkpt lat="58.868437" lon="05.875341"><ele>55</ele><time>2012-03-31T14:02:33Z</time><cmt>0.4 kmh</cmt></trkpt>
<trkpt lat="58.868436" lon="05.875343"><ele>55</ele><time>2012-03-31T14:02:34Z</time><cmt>0.4 kmh</cmt></trkpt>
<trkpt lat="58.868435" lon="05.875345"><ele>55</ele><time>2012-03-31T14:02:35Z</time><cmt>0.5 kmh</cmt></trkpt>
<trkpt lat="58.868433" lon="05.875348"><ele>55</ele><time>2012-03-31T14:02:36Z</time><cmt>0.8 kmh</cmt></trkpt>
<trkpt lat="58.868431" lon="05.875352"><ele>56</ele><time>2012-03-31T14:02:37Z</time><cmt>1.1 kmh</cmt></trkpt>
<trkpt lat="58.868429" lon="05.875355"><ele>56</ele><time>2012-03-31T14:02:38Z</time><cmt>1.2 kmh</cmt></trkpt>
<trkpt lat="58.868427" lon="05.875358"><ele>56</ele><time>2012-03-31T14:02:39Z</time><cmt>1.1 kmh</cmt></trkpt>
<trkpt lat="58.868426" lon="05.875361"><ele>57</ele><time>2012-03-31T14:02:40Z</time><cmt>0.7 kmh</cmt></trkpt>
<trkpt lat="58.868425" lon="05.875363"><ele>57</ele><time>2012-03-31T14:02:41Z</time><cmt>0.5 kmh</cmt></trkpt>
<trkpt lat="58.868423" lon="05.875364"><ele>57</ele><time>2012-03-31T14:02:42Z</time><cmt>0.5 kmh</cmt></trkpt>
<trkpt lat="58.868422" lon="05.875367"><ele>58</ele><time>2012-03-31T14:02:43Z</time><cmt>0.7 kmh</cmt></trkpt>
<trkpt lat="58.868421" lon="05.875369"><ele>58</ele><time>2012-03-31T14:02:44Z</time><cmt>0.8 kmh</cmt></trkpt>
<trkpt lat="58.868421" lon="05.875370"><ele>58</ele><time>2012-03-31T14:02:45Z</time><cmt>0.4 kmh</cmt></trkpt>
<trkpt lat="58.868420" lon="05.875370"><ele>59</ele><time>2012-03-31T14:02:46Z</time><cmt>0.0 kmh</cmt></trkpt>
<trkpt lat="58.868420" lon="05.875371"><ele>59</ele><time>2012-03-31T14:02:47Z</time><cmt>0.0 kmh</cmt></trkpt>
<trkpt lat="58.868420" lon="05.875371"><ele>59</ele><time>2012-03-31T14:02:48Z</time><cmt>0.0 kmh</cmt></trkpt>
<trkpt lat="58.868419" lon="05.875373"><ele>59</ele><time>2012-03-31T14:02:49Z</time><cmt>0.2 kmh</cmt></trkpt>
<trkpt lat="58.868418" lon="05.875375"><ele>60</ele><time>2012-03-31T14:02:50Z</time><cmt>0.6 kmh</cmt></trkpt>
<trkpt lat="58.868418" lon="05.875375"><ele>60</ele><time>2012-03-31T14:02:51Z</time><cmt>0.4 kmh</cmt></trkpt>
<trkpt lat="58.868418" lon="05.875375"><ele>60</ele><time>2012-03-31T14:02:52Z</time><cmt>0.0 kmh</cmt></trkpt>
<trkpt lat="58.868418" lon="05.875374"><ele>60</ele><time>2012-03-31T14:02:53Z</time><cmt>0.0 kmh</cmt></trkpt>
<trkpt lat="58.868419" lon="05.875373"><ele>61</ele><time>2012-03-31T14:02:54Z</time><cmt>0.2 kmh</cmt></trkpt>
<trkpt lat="58.868419" lon="05.875371"><ele>61</ele><time>2012-03-31T14:02:55Z</time><cmt>0.4 kmh</cmt></trkpt>
<trkpt lat="58.868420" lon="05.875370"><ele>61</ele><time>2012-03-31T14:02:56Z</time><cmt>0.4 kmh</cmt></trkpt>
<trkpt lat="58.868421" lon="05.875367"><ele>61</ele><time>2012-03-31T14:02:57Z</time><cmt>0.6 kmh</cmt></trkpt>
<trkpt lat="58.868422" lon="05.875365"><ele>61</ele><time>2012-03-31T14:02:58Z</time><cmt>0.7 kmh</cmt></trkpt>
<trkpt lat="58.868424" lon="05.875362"><ele>61</ele><time>2012-03-31T14:02:59Z</time><cmt>0.6 kmh</cmt></trkpt>
<trkpt lat="58.868425" lon="05.875360"><ele>61</ele><time>2012-03-31T14:03:00Z</time><cmt>0.6 kmh</cmt></trkpt>
<trkpt lat="58.868426" lon="05.875357"><ele>61</ele><time>2012-03-31T14:03:01Z</time><cmt>0.8 kmh</cmt></trkpt>
<trkpt lat="58.868427" lon="05.875355"><ele>61</ele><time>2012-03-31T14:03:02Z</time><cmt>0.8 kmh</cmt></trkpt>
<trkpt lat="58.868429" lon="05.875352"><ele>61</ele><time>2012-03-31T14:03:03Z</time><cmt>0.8 kmh</cmt></trkpt>
<trkpt lat="58.868430" lon="05.875349"><ele>61</ele><time>2012-03-31T14:03:04Z</time><cmt>0.8 kmh</cmt></trkpt>
<trkpt lat="58.868431" lon="05.875347"><ele>61</ele><time>2012-03-31T14:03:05Z</time><cmt>0.7 kmh</cmt></trkpt>
<trkpt lat="58.868433" lon="05.875344"><ele>61</ele><time>2012-03-31T14:03:06Z</time><cmt>0.8 kmh</cmt></trkpt>
<trkpt lat="58.868434" lon="05.875342"><ele>61</ele><time>2012-03-31T14:03:07Z</time><cmt>0.9 kmh</cmt></trkpt>
<trkpt lat="58.868435" lon="05.875339"><ele>61</ele><time>2012-03-31T14:03:08Z</time><cmt>0.9 kmh</cmt></trkpt>
<trkpt lat="58.868437" lon="05.875336"><ele>60</ele><time>2012-03-31T14:03:09Z</time><cmt>0.9 kmh</cmt></trkpt>
<trkpt lat="58.868438" lon="05.875334"><ele>60</ele><time>2012-03-31T14:03:10Z</time><cmt>0.9 kmh</cmt></trkpt>
<trkpt lat="58.868438" lon="05.875334"><ele>60</ele><time>2012-03-31T14:03:11Z</time><cmt>0.4 kmh</cmt></trkpt>
<trkpt lat="58.868437" lon="05.875335"><ele>60</ele><time>2012-03-31T14:03:12Z</time><cmt>0.2 kmh</cmt></trkpt>
<trkpt lat="58.868436" lon="05.875338"><ele>60</ele><time>2012-03-31T14:03:13Z</time><cmt>0.6 kmh</cmt></trkpt>
<trkpt lat="58.868436" lon="05.875340"><ele>60</ele><time>2012-03-31T14:03:14Z</time><cmt>0.7 kmh</cmt></trkpt>
<trkpt lat="58.868434" lon="05.875343"><ele>60</ele><time>2012-03-31T14:03:15Z</time><cmt>0.7 kmh</cmt></trkpt>
<trkpt lat="58.868433" lon="05.875345"><ele>60</ele><time>2012-03-31T14:03:16Z</time><cmt>0.7 kmh</cmt></trkpt>
<trkpt lat="58.868433" lon="05.875347"><ele>60</ele><time>2012-03-31T14:03:17Z</time><cmt>0.5 kmh</cmt></trkpt>
<trkpt lat="58.868433" lon="05.875347"><ele>60</ele><time>2012-03-31T14:03:18Z</time><cmt>0.2 kmh</cmt></trkpt>
<trkpt lat="58.868433" lon="05.875348"><ele>60</ele><time>2012-03-31T14:03:19Z</time><cmt>0.0 kmh</cmt></trkpt>
<trkpt lat="58.868433" lon="05.875349"><ele>60</ele><time>2012-03-31T14:03:20Z</time><cmt>0.3 kmh</cmt></trkpt>
<trkpt lat="58.868433" lon="05.875347"><ele>60</ele><time>2012-03-31T14:03:21Z</time><cmt>0.3 kmh</cmt></trkpt>
<trkpt lat="58.868434" lon="05.875345"><ele>60</ele><time>2012-03-31T14:03:22Z</time><cmt>0.3 kmh</cmt></trkpt>
<trkpt lat="58.868436" lon="05.875343"><ele>59</ele><time>2012-03-31T14:03:23Z</time><cmt>0.6 kmh</cmt></trkpt>
<trkpt lat="58.868437" lon="05.875340"><ele>59</ele><time>2012-03-31T14:03:24Z</time><cmt>0.6 kmh</cmt></trkpt>
<trkpt lat="58.868438" lon="05.875338"><ele>59</ele><time>2012-03-31T14:03:25Z</time><cmt>0.8 kmh</cmt></trkpt>
<trkpt lat="58.868439" lon="05.875335"><ele>59</ele><time>2012-03-31T14:03:26Z</time><cmt>0.9 kmh</cmt></trkpt>
<trkpt lat="58.868441" lon="05.875332"><ele>59</ele><time>2012-03-31T14:03:27Z</time><cmt>0.9 kmh</cmt></trkpt>
<trkpt lat="58.868442" lon="05.875330"><ele>59</ele><time>2012-03-31T14:03:28Z</time><cmt>0.9 kmh</cmt></trkpt>
<trkpt lat="58.868443" lon="05.875327"><ele>59</ele><time>2012-03-31T14:03:29Z</time><cmt>0.9 kmh</cmt></trkpt>
<trkpt lat="58.868445" lon="05.875324"><ele>58</ele><time>2012-03-31T14:03:30Z</time><cmt>0.7 kmh</cmt></trkpt>
<trkpt lat="58.868446" lon="05.875322"><ele>58</ele><time>2012-03-31T14:03:31Z</time><cmt>0.7 kmh</cmt></trkpt>
<trkpt lat="58.868448" lon="05.875319"><ele>58</ele><time>2012-03-31T14:03:32Z</time><cmt>0.9 kmh</cmt></trkpt>
<trkpt lat="58.868450" lon="05.875316"><ele>58</ele><time>2012-03-31T14:03:33Z</time><cmt>0.9 kmh</cmt></trkpt>
<trkpt lat="58.868451" lon="05.875313"><ele>57</ele><time>2012-03-31T14:03:34Z</time><cmt>0.9 kmh</cmt></trkpt>
<trkpt lat="58.868453" lon="05.875310"><ele>57</ele><time>2012-03-31T14:03:35Z</time><cmt>1.0 kmh</cmt></trkpt>
<trkpt lat="58.868455" lon="05.875308"><ele>57</ele><time>2012-03-31T14:03:36Z</time><cmt>0.8 kmh</cmt></trkpt>
<trkpt lat="58.868456" lon="05.875306"><ele>57</ele><time>2012-03-31T14:03:37Z</time><cmt>0.7 kmh</cmt></trkpt>
<trkpt lat="58.868457" lon="05.875304"><ele>56</ele><time>2012-03-31T14:03:38Z</time><cmt>0.7 kmh</cmt></trkpt>
<trkpt lat="58.868459" lon="05.875302"><ele>56</ele><time>2012-03-31T14:03:39Z</time><cmt>0.7 kmh</cmt></trkpt>
<trkpt lat="58.868460" lon="05.875299"><ele>56</ele><time>2012-03-31T14:03:40Z</time><cmt>0.8 kmh</cmt></trkpt>
<trkpt lat="58.868462" lon="05.875296"><ele>56</ele><time>2012-03-31T14:03:41Z</time><cmt>0.9 kmh</cmt></trkpt>
<trkpt lat="58.868464" lon="05.875294"><ele>55</ele><time>2012-03-31T14:03:42Z</time><cmt>0.7 kmh</cmt></trkpt>
<trkpt lat="58.868465" lon="05.875292"><ele>55</ele><time>2012-03-31T14:03:43Z</time><cmt>0.7 kmh</cmt></trkpt>
<trkpt lat="58.868466" lon="05.875290"><ele>55</ele><time>2012-03-31T14:03:44Z</time><cmt>0.6 kmh</cmt></trkpt>
<trkpt lat="58.868467" lon="05.875288"><ele>55</ele><time>2012-03-31T14:03:45Z</time><cmt>0.6 kmh</cmt></trkpt>
<trkpt lat="58.868469" lon="05.875285"><ele>54</ele><time>2012-03-31T14:03:46Z</time><cmt>0.7 kmh</cmt></trkpt>
<trkpt lat="58.868470" lon="05.875282"><ele>54</ele><time>2012-03-31T14:03:47Z</time><cmt>0.8 kmh</cmt></trkpt>
<trkpt lat="58.868472" lon="05.875280"><ele>54</ele><time>2012-03-31T14:03:48Z</time><cmt>0.7 kmh</cmt></trkpt>
<trkpt lat="58.868473" lon="05.875278"><ele>54</ele><time>2012-03-31T14:03:49Z</time><cmt>0.5 kmh</cmt></trkpt>
<trkpt lat="58.868474" lon="05.875276"><ele>53</ele><time>2012-03-31T14:03:50Z</time><cmt>0.5 kmh</cmt></trkpt>
<trkpt lat="58.868475" lon="05.875275"><ele>53</ele><time>2012-03-31T14:03:51Z</time><cmt>0.5 kmh</cmt></trkpt>
<trkpt lat="58.868476" lon="05.875273"><ele>53</ele><time>2012-03-31T14:03:52Z</time><cmt>0.5 kmh</cmt></trkpt>
<trkpt lat="58.868477" lon="05.875272"><ele>52</ele><time>2012-03-31T14:03:53Z</time><cmt>0.3 kmh</cmt></trkpt>
<trkpt lat="58.868477" lon="05.875271"><ele>52</ele><time>2012-03-31T14:03:54Z</time><cmt>0.0 kmh</cmt></trkpt>
<trkpt lat="58.868476" lon="05.875273"><ele>52</ele><time>2012-03-31T14:03:55Z</time><cmt>0.2 kmh</cmt></trkpt>
<trkpt lat="58.868475" lon="05.875276"><ele>52</ele><time>2012-03-31T14:03:56Z</time><cmt>0.6 kmh</cmt></trkpt>
<trkpt lat="58.868474" lon="05.875279"><ele>52</ele><time>2012-03-31T14:03:57Z</time><cmt>0.8 kmh</cmt></trkpt>
<trkpt lat="58.868473" lon="05.875281"><ele>52</ele><time>2012-03-31T14:03:58Z</time><cmt>0.7 kmh</cmt></trkpt>
<trkpt lat="58.868473" lon="05.875282"><ele>52</ele><time>2012-03-31T14:03:59Z</time><cmt>0.3 kmh</cmt></trkpt>
<trkpt lat="58.868473" lon="05.875283"><ele>52</ele><time>2012-03-31T14:04:00Z</time><cmt>0.0 kmh</cmt></trkpt>
<trkpt lat="58.868473" lon="05.875283"><ele>52</ele><time>2012-03-31T14:04:01Z</time><cmt>0.0 kmh</cmt></trkpt>
<trkpt lat="58.868474" lon="05.875282"><ele>51</ele><time>2012-03-31T14:04:02Z</time><cmt>0.0 kmh</cmt></trkpt>
<trkpt lat="58.868474" lon="05.875283"><ele>51</ele><time>2012-03-31T14:04:03Z</time><cmt>0.0 kmh</cmt></trkpt>
<trkpt lat="58.868473" lon="05.875284"><ele>51</ele><time>2012-03-31T14:04:04Z</time><cmt>0.3 kmh</cmt></trkpt>
<trkpt lat="58.868473" lon="05.875286"><ele>51</ele><time>2012-03-31T14:04:05Z</time><cmt>0.7 kmh</cmt></trkpt>
<trkpt lat="58.868473" lon="05.875286"><ele>51</ele><time>2012-03-31T14:04:06Z</time><cmt>0.4 kmh</cmt></trkpt>
<trkpt lat="58.868473" lon="05.875285"><ele>51</ele><time>2012-03-31T14:04:07Z</time><cmt>0.0 kmh</cmt></trkpt>
<trkpt lat="58.868474" lon="05.875284"><ele>51</ele><time>2012-03-31T14:04:08Z</time><cmt>0.1 kmh</cmt></trkpt>
<trkpt lat="58.868474" lon="05.875284"><ele>51</ele><time>2012-03-31T14:04:09Z</time><cmt>0.2 kmh</cmt></trkpt>
<trkpt lat="58.868473" lon="05.875285"><ele>51</ele><time>2012-03-31T14:04:10Z</time><cmt>0.2 kmh</cmt></trkpt>
<trkpt lat="58.868472" lon="05.875286"><ele>51</ele><time>2012-03-31T14:04:11Z</time><cmt>0.2 kmh</cmt></trkpt>
<trkpt lat="58.868472" lon="05.875286"><ele>51</ele><time>2012-03-31T14:04:12Z</time><cmt>0.0 kmh</cmt></trkpt>
<trkpt lat="58.868472" lon="05.875286"><ele>51</ele><time>2012-03-31T14:04:13Z</time><cmt>0.0 kmh</cmt></trkpt>
<trkpt lat="58.868472" lon="05.875286"><ele>51</ele><time>2012-03-31T14:04:14Z</time><cmt>0.0 kmh</cmt></trkpt>
<trkpt lat="58.868473" lon="05.875284"><ele>51</ele><time>2012-03-31T14:04:15Z</time><cmt>0.2 kmh</cmt></trkpt>
<trkpt lat="58.868473" lon="05.875283"><ele>51</ele><time>2012-03-31T14:04:16Z</time><cmt>0.2 kmh</cmt></trkpt>
<trkpt lat="58.868474" lon="05.875282"><ele>51</ele><time>2012-03-31T14:04:17Z</time><cmt>0.3 kmh</cmt></trkpt>
<trkpt lat="58.868474" lon="05.875282"><ele>51</ele><time>2012-03-31T14:04:18Z</time><cmt>0.3 kmh</cmt></trkpt>
<trkpt lat="58.868474" lon="05.875281"><ele>51</ele><time>2012-03-31T14:04:19Z</time><cmt>0.0 kmh</cmt></trkpt>
<trkpt lat="58.868474" lon="05.875281"><ele>51</ele><time>2012-03-31T14:04:20Z</time><cmt>0.0 kmh</cmt></trkpt>
<trkpt lat="58.868474" lon="05.875281"><ele>51</ele><time>2012-03-31T14:04:21Z</time><cmt>0.0 kmh</cmt></trkpt>
<trkpt lat="58.868475" lon="05.875281"><ele>51</ele><time>2012-03-31T14:04:22Z</time><cmt>0.0 kmh</cmt></trkpt>
<trkpt lat="58.868475" lon="05.875282"><ele>51</ele><time>2012-03-31T14:04:23Z</time><cmt>0.0 kmh</cmt></trkpt>
<trkpt lat="58.868474" lon="05.875283"><ele>51</ele><time>2012-03-31T14:04:24Z</time><cmt>0.0 kmh</cmt></trkpt>
<trkpt lat="58.868473" lon="05.875285"><ele>51</ele><time>2012-03-31T14:04:25Z</time><cmt>0.2 kmh</cmt></trkpt>
<trkpt lat="58.868473" lon="05.875286"><ele>51</ele><time>2012-03-31T14:04:26Z</time><cmt>0.4 kmh</cmt></trkpt>
<trkpt lat="58.868472" lon="05.875287"><ele>51</ele><time>2012-03-31T14:04:27Z</time><cmt>0.4 kmh</cmt></trkpt>
<trkpt lat="58.868472" lon="05.875288"><ele>51</ele><time>2012-03-31T14:04:28Z</time><cmt>0.2 kmh</cmt></trkpt>
<trkpt lat="58.868473" lon="05.875288"><ele>51</ele><time>2012-03-31T14:04:29Z</time><cmt>0.2 kmh</cmt></trkpt>
<trkpt lat="58.868474" lon="05.875287"><ele>51</ele><time>2012-03-31T14:04:30Z</time><cmt>0.2 kmh</cmt></trkpt>
<trkpt lat="58.868474" lon="05.875288"><ele>51</ele><time>2012-03-31T14:04:31Z</time><cmt>0.0 kmh</cmt></trkpt>
<trkpt lat="58.868474" lon="05.875288"><ele>51</ele><time>2012-03-31T14:04:32Z</time><cmt>0.1 kmh</cmt></trkpt>
<trkpt lat="58.868475" lon="05.875288"><ele>51</ele><time>2012-03-31T14:04:33Z</time><cmt>0.2 kmh</cmt></trkpt>
<trkpt lat="58.868475" lon="05.875288"><ele>51</ele><time>2012-03-31T14:04:34Z</time><cmt>0.2 kmh</cmt></trkpt>
<trkpt lat="58.868475" lon="05.875288"><ele>51</ele><time>2012-03-31T14:04:35Z</time><cmt>0.2 kmh</cmt></trkpt>
<trkpt lat="58.868475" lon="05.875290"><ele>51</ele><time>2012-03-31T14:04:36Z</time><cmt>0.3 kmh</cmt></trkpt>
<trkpt lat="58.868474" lon="05.875291"><ele>51</ele><time>2012-03-31T14:04:37Z</time><cmt>0.3 kmh</cmt></trkpt>
<trkpt lat="58.868475" lon="05.875290"><ele>51</ele><time>2012-03-31T14:04:38Z</time><cmt>0.0 kmh</cmt></trkpt>
<trkpt lat="58.868475" lon="05.875289"><ele>51</ele><time>2012-03-31T14:04:39Z</time><cmt>0.2 kmh</cmt></trkpt>
<trkpt lat="58.868476" lon="05.875287"><ele>51</ele><time>2012-03-31T14:04:40Z</time><cmt>0.4 kmh</cmt></trkpt>
<trkpt lat="58.868476" lon="05.875287"><ele>51</ele><time>2012-03-31T14:04:41Z</time><cmt>0.2 kmh</cmt></trkpt>
<trkpt lat="58.868477" lon="05.875285"><ele>51</ele><time>2012-03-31T14:04:42Z</time><cmt>0.3 kmh</cmt></trkpt>
<trkpt lat="58.868478" lon="05.875284"><ele>51</ele><time>2012-03-31T14:04:43Z</time><cmt>0.4 kmh</cmt></trkpt>
<trkpt lat="58.868478" lon="05.875283"><ele>51</ele><time>2012-03-31T14:04:44Z</time><cmt>0.1 kmh</cmt></trkpt>
<trkpt lat="58.868479" lon="05.875282"><ele>51</ele><time>2012-03-31T14:04:45Z</time><cmt>0.0 kmh</cmt></trkpt>
<trkpt lat="58.868480" lon="05.875281"><ele>51</ele><time>2012-03-31T14:04:46Z</time><cmt>0.0 kmh</cmt></trkpt>
<trkpt lat="58.868480" lon="05.875279"><ele>51</ele><time>2012-03-31T14:04:47Z</time><cmt>0.3 kmh</cmt></trkpt>
<trkpt lat="58.868481" lon="05.875278"><ele>51</ele><time>2012-03-31T14:04:48Z</time><cmt>0.5 kmh</cmt></trkpt>
<trkpt lat="58.868482" lon="05.875276"><ele>51</ele><time>2012-03-31T14:04:49Z</time><cmt>0.5 kmh</cmt></trkpt>
<trkpt lat="58.868483" lon="05.875274"><ele>51</ele><time>2012-03-31T14:04:50Z</time><cmt>0.4 kmh</cmt></trkpt>
<trkpt lat="58.868484" lon="05.875272"><ele>50</ele><time>2012-03-31T14:04:51Z</time><cmt>0.4 kmh</cmt></trkpt>
<trkpt lat="58.868485" lon="05.875270"><ele>50</ele><time>2012-03-31T14:04:52Z</time><cmt>0.5 kmh</cmt></trkpt>
<trkpt lat="58.868486" lon="05.875269"><ele>50</ele><time>2012-03-31T14:04:53Z</time><cmt>0.5 kmh</cmt></trkpt>
<trkpt lat="58.868486" lon="05.875267"><ele>50</ele><time>2012-03-31T14:04:54Z</time><cmt>0.5 kmh</cmt></trkpt>
<trkpt lat="58.868487" lon="05.875266"><ele>50</ele><time>2012-03-31T14:04:55Z</time><cmt>0.6 kmh</cmt></trkpt>
<trkpt lat="58.868488" lon="05.875264"><ele>50</ele><time>2012-03-31T14:04:56Z</time><cmt>0.5 kmh</cmt></trkpt>
<trkpt lat="58.868488" lon="05.875263"><ele>49</ele><time>2012-03-31T14:04:57Z</time><cmt>0.2 kmh</cmt></trkpt>
<trkpt lat="58.868489" lon="05.875262"><ele>49</ele><time>2012-03-31T14:04:58Z</time><cmt>0.0 kmh</cmt></trkpt>
<trkpt lat="58.868490" lon="05.875260"><ele>49</ele><time>2012-03-31T14:04:59Z</time><cmt>0.3 kmh</cmt></trkpt>
<trkpt lat="58.868490" lon="05.875258"><ele>49</ele><time>2012-03-31T14:05:00Z</time><cmt>0.5 kmh</cmt></trkpt>
<trkpt lat="58.868491" lon="05.875257"><ele>49</ele><time>2012-03-31T14:05:01Z</time><cmt>0.3 kmh</cmt></trkpt>
<trkpt lat="58.868491" lon="05.875257"><ele>49</ele><time>2012-03-31T14:05:02Z</time><cmt>0.0 kmh</cmt></trkpt>
<trkpt lat="58.868491" lon="05.875257"><ele>48</ele><time>2012-03-31T14:05:03Z</time><cmt>0.0 kmh</cmt></trkpt>
<trkpt lat="58.868489" lon="05.875259"><ele>48</ele><time>2012-03-31T14:05:04Z</time><cmt>0.4 kmh</cmt></trkpt>
<trkpt lat="58.868488" lon="05.875263"><ele>48</ele><time>2012-03-31T14:05:05Z</time><cmt>0.9 kmh</cmt></trkpt>
<trkpt lat="58.868486" lon="05.875267"><ele>48</ele><time>2012-03-31T14:05:06Z</time><cmt>1.0 kmh</cmt></trkpt>
<trkpt lat="58.868484" lon="05.875271"><ele>48</ele><time>2012-03-31T14:05:07Z</time><cmt>1.1 kmh</cmt></trkpt>
<trkpt lat="58.868483" lon="05.875275"><ele>48</ele><time>2012-03-31T14:05:08Z</time><cmt>1.1 kmh</cmt></trkpt>
<trkpt lat="58.868481" lon="05.875278"><ele>48</ele><time>2012-03-31T14:05:09Z</time><cmt>0.8 kmh</cmt></trkpt>
<trkpt lat="58.868479" lon="05.875282"><ele>49</ele><time>2012-03-31T14:05:10Z</time><cmt>0.9 kmh</cmt></trkpt>
<trkpt lat="58.868478" lon="05.875286"><ele>49</ele><time>2012-03-31T14:05:11Z</time><cmt>1.3 kmh</cmt></trkpt>
<trkpt lat="58.868476" lon="05.875291"><ele>49</ele><time>2012-03-31T14:05:12Z</time><cmt>1.3 kmh</cmt></trkpt>
<trkpt lat="58.868474" lon="05.875294"><ele>49</ele><time>2012-03-31T14:05:13Z</time><cmt>1.1 kmh</cmt></trkpt>
<trkpt lat="58.868474" lon="05.875294"><ele>49</ele><time>2012-03-31T14:05:14Z</time><cmt>0.5 kmh</cmt></trkpt>
<trkpt lat="58.868474" lon="05.875294"><ele>50</ele><time>2012-03-31T14:05:16Z</time><cmt>0.0 kmh</cmt></trkpt>
<trkpt lat="58.868474" lon="05.875293"><ele>50</ele><time>2012-03-31T14:05:17Z</time><cmt>0.0 kmh</cmt></trkpt>
<trkpt lat="58.868475" lon="05.875293"><ele>50</ele><time>2012-03-31T14:05:18Z</time><cmt>0.0 kmh</cmt></trkpt>
<trkpt lat="58.868475" lon="05.875292"><ele>50</ele><time>2012-03-31T14:05:19Z</time><cmt>0.3 kmh</cmt></trkpt>
<trkpt lat="58.868476" lon="05.875291"><ele>50</ele><time>2012-03-31T14:05:20Z</time><cmt>0.3 kmh</cmt></trkpt>
<trkpt lat="58.868477" lon="05.875289"><ele>50</ele><time>2012-03-31T14:05:21Z</time><cmt>0.1 kmh</cmt></trkpt>
<trkpt lat="58.868477" lon="05.875290"><ele>50</ele><time>2012-03-31T14:05:22Z</time><cmt>0.4 kmh</cmt></trkpt>
<trkpt lat="58.868476" lon="05.875291"><ele>51</ele><time>2012-03-31T14:05:23Z</time><cmt>0.5 kmh</cmt></trkpt>
<trkpt lat="58.868475" lon="05.875293"><ele>51</ele><time>2012-03-31T14:05:24Z</time><cmt>0.5 kmh</cmt></trkpt>
<trkpt lat="58.868474" lon="05.875297"><ele>51</ele><time>2012-03-31T14:05:25Z</time><cmt>0.8 kmh</cmt></trkpt>
<trkpt lat="58.868472" lon="05.875301"><ele>51</ele><time>2012-03-31T14:05:26Z</time><cmt>1.1 kmh</cmt></trkpt>
<trkpt lat="58.868471" lon="05.875305"><ele>51</ele><time>2012-03-31T14:05:27Z</time><cmt>0.8 kmh</cmt></trkpt>
<trkpt lat="58.868470" lon="05.875308"><ele>51</ele><time>2012-03-31T14:05:28Z</time><cmt>0.7 kmh</cmt></trkpt>
<trkpt lat="58.868469" lon="05.875312"><ele>51</ele><time>2012-03-31T14:05:29Z</time><cmt>0.9 kmh</cmt></trkpt>
<trkpt lat="58.868469" lon="05.875315"><ele>52</ele><time>2012-03-31T14:05:30Z</time><cmt>0.9 kmh</cmt></trkpt>
<trkpt lat="58.868468" lon="05.875318"><ele>52</ele><time>2012-03-31T14:05:31Z</time><cmt>0.8 kmh</cmt></trkpt>
<trkpt lat="58.868468" lon="05.875319"><ele>52</ele><time>2012-03-31T14:05:32Z</time><cmt>0.4 kmh</cmt></trkpt>
<trkpt lat="58.868468" lon="05.875320"><ele>52</ele><time>2012-03-31T14:05:33Z</time><cmt>0.0 kmh</cmt></trkpt>
<trkpt lat="58.868468" lon="05.875321"><ele>52</ele><time>2012-03-31T14:05:34Z</time><cmt>0.1 kmh</cmt></trkpt>
<trkpt lat="58.868468" lon="05.875322"><ele>52</ele><time>2012-03-31T14:05:35Z</time><cmt>0.2 kmh</cmt></trkpt>
<trkpt lat="58.868468" lon="05.875321"><ele>52</ele><time>2012-03-31T14:05:36Z</time><cmt>0.0 kmh</cmt></trkpt>
<trkpt lat="58.868468" lon="05.875321"><ele>52</ele><time>2012-03-31T14:05:37Z</time><cmt>0.0 kmh</cmt></trkpt>
<trkpt lat="58.868469" lon="05.875320"><ele>52</ele><time>2012-03-31T14:05:38Z</time><cmt>0.2 kmh</cmt></trkpt>
<trkpt lat="58.868469" lon="05.875319"><ele>52</ele><time>2012-03-31T14:05:39Z</time><cmt>0.1 kmh</cmt></trkpt>
<trkpt lat="58.868469" lon="05.875319"><ele>52</ele><time>2012-03-31T14:05:40Z</time><cmt>0.0 kmh</cmt></trkpt>
<trkpt lat="58.868470" lon="05.875318"><ele>52</ele><time>2012-03-31T14:05:41Z</time><cmt>0.0 kmh</cmt></trkpt>
<trkpt lat="58.868470" lon="05.875317"><ele>52</ele><time>2012-03-31T14:05:42Z</time><cmt>0.0 kmh</cmt></trkpt>
<trkpt lat="58.868470" lon="05.875317"><ele>52</ele><time>2012-03-31T14:05:43Z</time><cmt>0.0 kmh</cmt></trkpt>
<trkpt lat="58.868471" lon="05.875316"><ele>52</ele><time>2012-03-31T14:05:44Z</time><cmt>0.0 kmh</cmt></trkpt>
<trkpt lat="58.868471" lon="05.875315"><ele>52</ele><time>2012-03-31T14:05:45Z</time><cmt>0.0 kmh</cmt></trkpt>
<trkpt lat="58.868471" lon="05.875315"><ele>52</ele><time>2012-03-31T14:05:46Z</time><cmt>0.0 kmh</cmt></trkpt>
<trkpt lat="58.868472" lon="05.875314"><ele>52</ele><time>2012-03-31T14:05:47Z</time><cmt>0.0 kmh</cmt></trkpt>
<trkpt lat="58.868472" lon="05.875314"><ele>52</ele><time>2012-03-31T14:05:48Z</time><cmt>0.0 kmh</cmt></trkpt>
<trkpt lat="58.868472" lon="05.875313"><ele>52</ele><time>2012-03-31T14:05:49Z</time><cmt>0.0 kmh</cmt></trkpt>
<trkpt lat="58.868472" lon="05.875314"><ele>52</ele><time>2012-03-31T14:05:51Z</time><cmt>0.0 kmh</cmt></trkpt>
<trkpt lat="58.868471" lon="05.875315"><ele>52</ele><time>2012-03-31T14:05:52Z</time><cmt>0.0 kmh</cmt></trkpt>
<trkpt lat="58.868470" lon="05.875316"><ele>52</ele><time>2012-03-31T14:05:53Z</time><cmt>0.2 kmh</cmt></trkpt>
<trkpt lat="58.868469" lon="05.875317"><ele>52</ele><time>2012-03-31T14:05:54Z</time><cmt>0.4 kmh</cmt></trkpt>
<trkpt lat="58.868468" lon="05.875319"><ele>52</ele><time>2012-03-31T14:05:55Z</time><cmt>0.4 kmh</cmt></trkpt>
<trkpt lat="58.868467" lon="05.875321"><ele>52</ele><time>2012-03-31T14:05:56Z</time><cmt>0.6 kmh</cmt></trkpt>
<trkpt lat="58.868466" lon="05.875323"><ele>53</ele><time>2012-03-31T14:05:57Z</time><cmt>0.7 kmh</cmt></trkpt>
<trkpt lat="58.868464" lon="05.875325"><ele>53</ele><time>2012-03-31T14:05:58Z</time><cmt>0.6 kmh</cmt></trkpt>
<trkpt lat="58.868463" lon="05.875327"><ele>53</ele><time>2012-03-31T14:05:59Z</time><cmt>0.6 kmh</cmt></trkpt>
<trkpt lat="58.868462" lon="05.875329"><ele>53</ele><time>2012-03-31T14:06:00Z</time><cmt>0.4 kmh</cmt></trkpt>
<trkpt lat="58.868462" lon="05.875328"><ele>53</ele><time>2012-03-31T14:06:01Z</time><cmt>0.0 kmh</cmt></trkpt>
<trkpt lat="58.868462" lon="05.875326"><ele>53</ele><time>2012-03-31T14:06:02Z</time><cmt>0.3 kmh</cmt></trkpt>
<trkpt lat="58.868463" lon="05.875325"><ele>53</ele><time>2012-03-31T14:06:03Z</time><cmt>0.5 kmh</cmt></trkpt>
<trkpt lat="58.868463" lon="05.875325"><ele>53</ele><time>2012-03-31T14:06:04Z</time><cmt>0.2 kmh</cmt></trkpt>
<trkpt lat="58.868463" lon="05.875325"><ele>53</ele><time>2012-03-31T14:06:05Z</time><cmt>0.0 kmh</cmt></trkpt>
<trkpt lat="58.868463" lon="05.875326"><ele>53</ele><time>2012-03-31T14:06:06Z</time><cmt>0.0 kmh</cmt></trkpt>
<trkpt lat="58.868462" lon="05.875327"><ele>53</ele><time>2012-03-31T14:06:07Z</time><cmt>0.0 kmh</cmt></trkpt>
<trkpt lat="58.868462" lon="05.875326"><ele>53</ele><time>2012-03-31T14:06:08Z</time><cmt>0.0 kmh</cmt></trkpt>
<trkpt lat="58.868463" lon="05.875326"><ele>53</ele><time>2012-03-31T14:06:09Z</time><cmt>0.0 kmh</cmt></trkpt>
<trkpt lat="58.868462" lon="05.875327"><ele>53</ele><time>2012-03-31T14:06:10Z</time><cmt>0.0 kmh</cmt></trkpt>
<trkpt lat="58.868463" lon="05.875327"><ele>53</ele><time>2012-03-31T14:06:11Z</time><cmt>0.0 kmh</cmt></trkpt>
<trkpt lat="58.868462" lon="05.875327"><ele>53</ele><time>2012-03-31T14:06:12Z</time><cmt>0.0 kmh</cmt></trkpt>
<trkpt lat="58.868462" lon="05.875329"><ele>53</ele><time>2012-03-31T14:06:13Z</time><cmt>0.2 kmh</cmt></trkpt>
<trkpt lat="58.868461" lon="05.875330"><ele>53</ele><time>2012-03-31T14:06:14Z</time><cmt>0.4 kmh</cmt></trkpt>
<trkpt lat="58.868460" lon="05.875332"><ele>53</ele><time>2012-03-31T14:06:15Z</time><cmt>0.5 kmh</cmt></trkpt>
<trkpt lat="58.868459" lon="05.875333"><ele>54</ele><time>2012-03-31T14:06:16Z</time><cmt>0.5 kmh</cmt></trkpt>
<trkpt lat="58.868459" lon="05.875335"><ele>54</ele><time>2012-03-31T14:06:17Z</time><cmt>0.4 kmh</cmt></trkpt>
<trkpt lat="58.868457" lon="05.875337"><ele>54</ele><time>2012-03-31T14:06:18Z</time><cmt>0.4 kmh</cmt></trkpt>
<trkpt lat="58.868457" lon="05.875338"><ele>54</ele><time>2012-03-31T14:06:19Z</time><cmt>0.3 kmh</cmt></trkpt>
<trkpt lat="58.868457" lon="05.875338"><ele>54</ele><time>2012-03-31T14:06:20Z</time><cmt>0.0 kmh</cmt></trkpt>
<trkpt lat="58.868457" lon="05.875338"><ele>54</ele><time>2012-03-31T14:06:21Z</time><cmt>0.0 kmh</cmt></trkpt>
<trkpt lat="58.868456" lon="05.875337"><ele>54</ele><time>2012-03-31T14:06:22Z</time><cmt>0.0 kmh</cmt></trkpt>
<trkpt lat="58.868456" lon="05.875336"><ele>54</ele><time>2012-03-31T14:06:23Z</time><cmt>0.0 kmh</cmt></trkpt>
<trkpt lat="58.868457" lon="05.875334"><ele>54</ele><time>2012-03-31T14:06:24Z</time><cmt>0.2 kmh</cmt></trkpt>
<trkpt lat="58.868457" lon="05.875332"><ele>54</ele><time>2012-03-31T14:06:25Z</time><cmt>0.5 kmh</cmt></trkpt>
<trkpt lat="58.868458" lon="05.875329"><ele>54</ele><time>2012-03-31T14:06:26Z</time><cmt>0.6 kmh</cmt></trkpt>
<trkpt lat="58.868459" lon="05.875326"><ele>54</ele><time>2012-03-31T14:06:27Z</time><cmt>0.7 kmh</cmt></trkpt>
<trkpt lat="58.868460" lon="05.875323"><ele>54</ele><time>2012-03-31T14:06:28Z</time><cmt>0.7 kmh</cmt></trkpt>
<trkpt lat="58.868458" lon="05.875323"><ele>53</ele><time>2012-03-31T14:06:29Z</time><cmt>0.6 kmh</cmt></trkpt>
<trkpt lat="58.868456" lon="05.875324"><ele>53</ele><time>2012-03-31T14:06:30Z</time><cmt>0.8 kmh</cmt></trkpt>
<trkpt lat="58.868452" lon="05.875327"><ele>53</ele><time>2012-03-31T14:06:31Z</time><cmt>1.5 kmh</cmt></trkpt>
<trkpt lat="58.868448" lon="05.875330"><ele>53</ele><time>2012-03-31T14:06:32Z</time><cmt>1.8 kmh</cmt></trkpt>
<trkpt lat="58.868444" lon="05.875334"><ele>53</ele><time>2012-03-31T14:06:33Z</time><cmt>1.8 kmh</cmt></trkpt>
<trkpt lat="58.868441" lon="05.875337"><ele>53</ele><time>2012-03-31T14:06:34Z</time><cmt>1.6 kmh</cmt></trkpt>
<trkpt lat="58.868439" lon="05.875338"><ele>53</ele><time>2012-03-31T14:06:35Z</time><cmt>1.1 kmh</cmt></trkpt>
<trkpt lat="58.868436" lon="05.875340"><ele>53</ele><time>2012-03-31T14:06:36Z</time><cmt>1.0 kmh</cmt></trkpt>
<trkpt lat="58.868434" lon="05.875342"><ele>53</ele><time>2012-03-31T14:06:37Z</time><cmt>1.1 kmh</cmt></trkpt>
<trkpt lat="58.868432" lon="05.875343"><ele>52</ele><time>2012-03-31T14:06:38Z</time><cmt>1.0 kmh</cmt></trkpt>
<trkpt lat="58.868430" lon="05.875344"><ele>52</ele><time>2012-03-31T14:06:39Z</time><cmt>0.8 kmh</cmt></trkpt>
<trkpt lat="58.868428" lon="05.875345"><ele>52</ele><time>2012-03-31T14:06:40Z</time><cmt>0.9 kmh</cmt></trkpt>
<trkpt lat="58.868426" lon="05.875346"><ele>52</ele><time>2012-03-31T14:06:41Z</time><cmt>0.8 kmh</cmt></trkpt>
<trkpt lat="58.868424" lon="05.875348"><ele>52</ele><time>2012-03-31T14:06:42Z</time><cmt>0.8 kmh</cmt></trkpt>
<trkpt lat="58.868423" lon="05.875347"><ele>52</ele><time>2012-03-31T14:06:43Z</time><cmt>0.6 kmh</cmt></trkpt>
<trkpt lat="58.868423" lon="05.875346"><ele>52</ele><time>2012-03-31T14:06:44Z</time><cmt>0.4 kmh</cmt></trkpt>
<trkpt lat="58.868422" lon="05.875344"><ele>52</ele><time>2012-03-31T14:06:45Z</time><cmt>0.4 kmh</cmt></trkpt>
<trkpt lat="58.868422" lon="05.875342"><ele>52</ele><time>2012-03-31T14:06:46Z</time><cmt>0.5 kmh</cmt></trkpt>
<trkpt lat="58.868422" lon="05.875340"><ele>51</ele><time>2012-03-31T14:06:47Z</time><cmt>0.5 kmh</cmt></trkpt>
<trkpt lat="58.868421" lon="05.875339"><ele>51</ele><time>2012-03-31T14:06:48Z</time><cmt>0.4 kmh</cmt></trkpt>
<trkpt lat="58.868421" lon="05.875338"><ele>51</ele><time>2012-03-31T14:06:49Z</time><cmt>0.1 kmh</cmt></trkpt>
<trkpt lat="58.868421" lon="05.875336"><ele>51</ele><time>2012-03-31T14:06:50Z</time><cmt>0.3 kmh</cmt></trkpt>
<trkpt lat="58.868420" lon="05.875334"><ele>50</ele><time>2012-03-31T14:06:51Z</time><cmt>0.5 kmh</cmt></trkpt>
<trkpt lat="58.868420" lon="05.875333"><ele>50</ele><time>2012-03-31T14:06:52Z</time><cmt>0.5 kmh</cmt></trkpt>
<trkpt lat="58.868420" lon="05.875332"><ele>50</ele><time>2012-03-31T14:06:53Z</time><cmt>0.3 kmh</cmt></trkpt>
<trkpt lat="58.868419" lon="05.875331"><ele>50</ele><time>2012-03-31T14:06:54Z</time><cmt>0.0 kmh</cmt></trkpt>
<trkpt lat="58.868419" lon="05.875330"><ele>50</ele><time>2012-03-31T14:06:55Z</time><cmt>0.0 kmh</cmt></trkpt>
<trkpt lat="58.868419" lon="05.875329"><ele>49</ele><time>2012-03-31T14:06:56Z</time><cmt>0.0 kmh</cmt></trkpt>
<trkpt lat="58.868419" lon="05.875328"><ele>49</ele><time>2012-03-31T14:06:57Z</time><cmt>0.2 kmh</cmt></trkpt>
<trkpt lat="58.868419" lon="05.875327"><ele>49</ele><time>2012-03-31T14:06:58Z</time><cmt>0.2 kmh</cmt></trkpt>
<trkpt lat="58.868419" lon="05.875325"><ele>49</ele><time>2012-03-31T14:06:59Z</time><cmt>0.0 kmh</cmt></trkpt>
<trkpt lat="58.868418" lon="05.875326"><ele>48</ele><time>2012-03-31T14:07:00Z</time><cmt>0.2 kmh</cmt></trkpt>
<trkpt lat="58.868417" lon="05.875327"><ele>48</ele><time>2012-03-31T14:07:01Z</time><cmt>0.4 kmh</cmt></trkpt>
<trkpt lat="58.868416" lon="05.875328"><ele>48</ele><time>2012-03-31T14:07:02Z</time><cmt>0.2 kmh</cmt></trkpt>
<trkpt lat="58.868416" lon="05.875328"><ele>48</ele><time>2012-03-31T14:07:03Z</time><cmt>0.0 kmh</cmt></trkpt>
<trkpt lat="58.868416" lon="05.875328"><ele>48</ele><time>2012-03-31T14:07:04Z</time><cmt>0.0 kmh</cmt></trkpt>
<trkpt lat="58.868416" lon="05.875329"><ele>48</ele><time>2012-03-31T14:07:05Z</time><cmt>0.0 kmh</cmt></trkpt>
<trkpt lat="58.868415" lon="05.875330"><ele>47</ele><time>2012-03-31T14:07:06Z</time><cmt>0.0 kmh</cmt></trkpt>
<trkpt lat="58.868414" lon="05.875331"><ele>47</ele><time>2012-03-31T14:07:07Z</time><cmt>0.2 kmh</cmt></trkpt>
<trkpt lat="58.868414" lon="05.875330"><ele>47</ele><time>2012-03-31T14:07:08Z</time><cmt>0.3 kmh</cmt></trkpt>
<trkpt lat="58.868415" lon="05.875328"><ele>47</ele><time>2012-03-31T14:07:09Z</time><cmt>0.3 kmh</cmt></trkpt>
<trkpt lat="58.868416" lon="05.875325"><ele>47</ele><time>2012-03-31T14:07:10Z</time><cmt>0.5 kmh</cmt></trkpt>
<trkpt lat="58.868416" lon="05.875323"><ele>47</ele><time>2012-03-31T14:07:11Z</time><cmt>0.5 kmh</cmt></trkpt>
<trkpt lat="58.868417" lon="05.875321"><ele>47</ele><time>2012-03-31T14:07:12Z</time><cmt>0.6 kmh</cmt></trkpt>
<trkpt lat="58.868418" lon="05.875319"><ele>47</ele><time>2012-03-31T14:07:13Z</time><cmt>0.5 kmh</cmt></trkpt>
<trkpt lat="58.868419" lon="05.875316"><ele>46</ele><time>2012-03-31T14:07:14Z</time><cmt>0.4 kmh</cmt></trkpt>
<trkpt lat="58.868419" lon="05.875314"><ele>46</ele><time>2012-03-31T14:07:15Z</time><cmt>0.6 kmh</cmt></trkpt>
<trkpt lat="58.868420" lon="05.875311"><ele>46</ele><time>2012-03-31T14:07:16Z</time><cmt>0.6 kmh</cmt></trkpt>
<trkpt lat="58.868421" lon="05.875309"><ele>46</ele><time>2012-03-31T14:07:17Z</time><cmt>0.6 kmh</cmt></trkpt>
<trkpt lat="58.868421" lon="05.875308"><ele>46</ele><time>2012-03-31T14:07:18Z</time><cmt>0.4 kmh</cmt></trkpt>
<trkpt lat="58.868422" lon="05.875308"><ele>46</ele><time>2012-03-31T14:07:19Z</time><cmt>0.0 kmh</cmt></trkpt>
<trkpt lat="58.868422" lon="05.875307"><ele>45</ele><time>2012-03-31T14:07:20Z</time><cmt>0.0 kmh</cmt></trkpt>
<trkpt lat="58.868422" lon="05.875307"><ele>45</ele><time>2012-03-31T14:07:21Z</time><cmt>0.0 kmh</cmt></trkpt>
<trkpt lat="58.868422" lon="05.875308"><ele>45</ele><time>2012-03-31T14:07:22Z</time><cmt>0.0 kmh</cmt></trkpt>
<trkpt lat="58.868421" lon="05.875309"><ele>45</ele><time>2012-03-31T14:07:23Z</time><cmt>0.0 kmh</cmt></trkpt>
<trkpt lat="58.868420" lon="05.875310"><ele>45</ele><time>2012-03-31T14:07:24Z</time><cmt>0.2 kmh</cmt></trkpt>
<trkpt lat="58.868419" lon="05.875312"><ele>45</ele><time>2012-03-31T14:07:25Z</time><cmt>0.4 kmh</cmt></trkpt>
<trkpt lat="58.868418" lon="05.875315"><ele>45</ele><time>2012-03-31T14:07:26Z</time><cmt>0.6 kmh</cmt></trkpt>
<trkpt lat="58.868417" lon="05.875317"><ele>45</ele><time>2012-03-31T14:07:27Z</time><cmt>0.7 kmh</cmt></trkpt>
<trkpt lat="58.868416" lon="05.875320"><ele>45</ele><time>2012-03-31T14:07:28Z</time><cmt>0.8 kmh</cmt></trkpt>
<trkpt lat="58.868415" lon="05.875322"><ele>45</ele><time>2012-03-31T14:07:29Z</time><cmt>0.7 kmh</cmt></trkpt>
<trkpt lat="58.868415" lon="05.875323"><ele>45</ele><time>2012-03-31T14:07:30Z</time><cmt>0.5 kmh</cmt></trkpt>
<trkpt lat="58.868415" lon="05.875324"><ele>45</ele><time>2012-03-31T14:07:31Z</time><cmt>0.2 kmh</cmt></trkpt>
<trkpt lat="58.868414" lon="05.875325"><ele>45</ele><time>2012-03-31T14:07:32Z</time><cmt>0.0 kmh</cmt></trkpt>
<trkpt lat="58.868414" lon="05.875326"><ele>45</ele><time>2012-03-31T14:07:33Z</time><cmt>0.0 kmh</cmt></trkpt>
<trkpt lat="58.868414" lon="05.875326"><ele>45</ele><time>2012-03-31T14:07:34Z</time><cmt>0.0 kmh</cmt></trkpt>
<trkpt lat="58.868414" lon="05.875327"><ele>45</ele><time>2012-03-31T14:07:35Z</time><cmt>0.0 kmh</cmt></trkpt>
<trkpt lat="58.868413" lon="05.875327"><ele>46</ele><time>2012-03-31T14:07:36Z</time><cmt>0.0 kmh</cmt></trkpt>
<trkpt lat="58.868413" lon="05.875329"><ele>46</ele><time>2012-03-31T14:07:37Z</time><cmt>0.0 kmh</cmt></trkpt>
<trkpt lat="58.868412" lon="05.875330"><ele>46</ele><time>2012-03-31T14:07:38Z</time><cmt>0.0 kmh</cmt></trkpt>
<trkpt lat="58.868411" lon="05.875332"><ele>46</ele><time>2012-03-31T14:07:39Z</time><cmt>0.0 kmh</cmt></trkpt>
<trkpt lat="58.868410" lon="05.875333"><ele>46</ele><time>2012-03-31T14:07:40Z</time><cmt>0.3 kmh</cmt></trkpt>
<trkpt lat="58.868409" lon="05.875335"><ele>46</ele><time>2012-03-31T14:07:41Z</time><cmt>0.6 kmh</cmt></trkpt>
<trkpt lat="58.868408" lon="05.875337"><ele>46</ele><time>2012-03-31T14:07:42Z</time><cmt>0.7 kmh</cmt></trkpt>
<trkpt lat="58.868406" lon="05.875340"><ele>47</ele><time>2012-03-31T14:07:43Z</time><cmt>0.7 kmh</cmt></trkpt>
<trkpt lat="58.868404" lon="05.875345"><ele>47</ele><time>2012-03-31T14:07:44Z</time><cmt>0.9 kmh</cmt></trkpt>
<trkpt lat="58.868401" lon="05.875351"><ele>47</ele><time>2012-03-31T14:07:45Z</time><cmt>1.7 kmh</cmt></trkpt>
<trkpt lat="58.868398" lon="05.875357"><ele>48</ele><time>2012-03-31T14:07:46Z</time><cmt>2.0 kmh</cmt></trkpt>
<trkpt lat="58.868395" lon="05.875363"><ele>48</ele><time>2012-03-31T14:07:47Z</time><cmt>1.9 kmh</cmt></trkpt>
<trkpt lat="58.868392" lon="05.875368"><ele>48</ele><time>2012-03-31T14:07:48Z</time><cmt>1.7 kmh</cmt></trkpt>
<trkpt lat="58.868390" lon="05.875371"><ele>49</ele><time>2012-03-31T14:07:49Z</time><cmt>1.3 kmh</cmt></trkpt>
<trkpt lat="58.868389" lon="05.875373"><ele>49</ele><time>2012-03-31T14:07:50Z</time><cmt>0.6 kmh</cmt></trkpt>
<trkpt lat="58.868389" lon="05.875373"><ele>50</ele><time>2012-03-31T14:07:51Z</time><cmt>0.4 kmh</cmt></trkpt>
<trkpt lat="58.868389" lon="05.875373"><ele>50</ele><time>2012-03-31T14:07:52Z</time><cmt>0.3 kmh</cmt></trkpt>
<trkpt lat="58.868388" lon="05.875373"><ele>50</ele><time>2012-03-31T14:07:53Z</time><cmt>0.0 kmh</cmt></trkpt>
<trkpt lat="58.868388" lon="05.875374"><ele>51</ele><time>2012-03-31T14:07:54Z</time><cmt>0.0 kmh</cmt></trkpt>
<trkpt lat="58.868387" lon="05.875375"><ele>51</ele><time>2012-03-31T14:07:55Z</time><cmt>0.0 kmh</cmt></trkpt>
<trkpt lat="58.868388" lon="05.875374"><ele>51</ele><time>2012-03-31T14:07:56Z</time><cmt>0.0 kmh</cmt></trkpt>
<trkpt lat="58.868388" lon="05.875373"><ele>52</ele><time>2012-03-31T14:07:57Z</time><cmt>0.0 kmh</cmt></trkpt>
<trkpt lat="58.868388" lon="05.875371"><ele>52</ele><time>2012-03-31T14:07:58Z</time><cmt>0.2 kmh</cmt></trkpt>
<trkpt lat="58.868389" lon="05.875370"><ele>52</ele><time>2012-03-31T14:07:59Z</time><cmt>0.2 kmh</cmt></trkpt>
<trkpt lat="58.868389" lon="05.875369"><ele>52</ele><time>2012-03-31T14:08:00Z</time><cmt>0.0 kmh</cmt></trkpt>
<trkpt lat="58.868390" lon="05.875367"><ele>53</ele><time>2012-03-31T14:08:01Z</time><cmt>0.0 kmh</cmt></trkpt>
<trkpt lat="58.868390" lon="05.875366"><ele>53</ele><time>2012-03-31T14:08:02Z</time><cmt>0.0 kmh</cmt></trkpt>
<trkpt lat="58.868391" lon="05.875365"><ele>53</ele><time>2012-03-31T14:08:03Z</time><cmt>0.0 kmh</cmt></trkpt>
<trkpt lat="58.868391" lon="05.875364"><ele>53</ele><time>2012-03-31T14:08:04Z</time><cmt>0.0 kmh</cmt></trkpt>
<trkpt lat="58.868391" lon="05.875363"><ele>53</ele><time>2012-03-31T14:08:05Z</time><cmt>0.0 kmh</cmt></trkpt>
<trkpt lat="58.868391" lon="05.875363"><ele>53</ele><time>2012-03-31T14:08:06Z</time><cmt>0.0 kmh</cmt></trkpt>
<trkpt lat="58.868390" lon="05.875363"><ele>54</ele><time>2012-03-31T14:08:07Z</time><cmt>0.0 kmh</cmt></trkpt>
<trkpt lat="58.868390" lon="05.875365"><ele>54</ele><time>2012-03-31T14:08:08Z</time><cmt>0.2 kmh</cmt></trkpt>
<trkpt lat="58.868389" lon="05.875368"><ele>54</ele><time>2012-03-31T14:08:09Z</time><cmt>0.5 kmh</cmt></trkpt>
<trkpt lat="58.868385" lon="05.875372"><ele>54</ele><time>2012-03-31T14:08:10Z</time><cmt>1.2 kmh</cmt></trkpt>
<trkpt lat="58.868381" lon="05.875377"><ele>54</ele><time>2012-03-31T14:08:11Z</time><cmt>2.0 kmh</cmt></trkpt>
<trkpt lat="58.868376" lon="05.875383"><ele>54</ele><time>2012-03-31T14:08:12Z</time><cmt>2.4 kmh</cmt></trkpt>
<trkpt lat="58.868372" lon="05.875389"><ele>55</ele><time>2012-03-31T14:08:13Z</time><cmt>2.4 kmh</cmt></trkpt>
<trkpt lat="58.868367" lon="05.875394"><ele>55</ele><time>2012-03-31T14:08:14Z</time><cmt>1.8 kmh</cmt></trkpt>
<trkpt lat="58.868363" lon="05.875399"><ele>55</ele><time>2012-03-31T14:08:15Z</time><cmt>1.7 kmh</cmt></trkpt>
<trkpt lat="58.868360" lon="05.875404"><ele>55</ele><time>2012-03-31T14:08:16Z</time><cmt>2.0 kmh</cmt></trkpt>
<trkpt lat="58.868357" lon="05.875408"><ele>56</ele><time>2012-03-31T14:08:17Z</time><cmt>1.7 kmh</cmt></trkpt>
<trkpt lat="58.868354" lon="05.875413"><ele>56</ele><time>2012-03-31T14:08:18Z</time><cmt>1.5 kmh</cmt></trkpt>
<trkpt lat="58.868352" lon="05.875417"><ele>56</ele><time>2012-03-31T14:08:19Z</time><cmt>1.5 kmh</cmt></trkpt>
<trkpt lat="58.868349" lon="05.875422"><ele>57</ele><time>2012-03-31T14:08:20Z</time><cmt>1.5 kmh</cmt></trkpt>
<trkpt lat="58.868347" lon="05.875427"><ele>57</ele><time>2012-03-31T14:08:21Z</time><cmt>1.2 kmh</cmt></trkpt>
<trkpt lat="58.868345" lon="05.875432"><ele>57</ele><time>2012-03-31T14:08:22Z</time><cmt>1.1 kmh</cmt></trkpt>
<trkpt lat="58.868343" lon="05.875438"><ele>58</ele><time>2012-03-31T14:08:23Z</time><cmt>1.5 kmh</cmt></trkpt>
<trkpt lat="58.868340" lon="05.875442"><ele>58</ele><time>2012-03-31T14:08:24Z</time><cmt>1.5 kmh</cmt></trkpt>
<trkpt lat="58.868339" lon="05.875446"><ele>58</ele><time>2012-03-31T14:08:25Z</time><cmt>1.2 kmh</cmt></trkpt>
<trkpt lat="58.868338" lon="05.875449"><ele>59</ele><time>2012-03-31T14:08:26Z</time><cmt>0.8 kmh</cmt></trkpt>
<trkpt lat="58.868338" lon="05.875452"><ele>59</ele><time>2012-03-31T14:08:27Z</time><cmt>0.6 kmh</cmt></trkpt>
<trkpt lat="58.868338" lon="05.875452"><ele>59</ele><time>2012-03-31T14:08:28Z</time><cmt>0.4 kmh</cmt></trkpt>
<trkpt lat="58.868339" lon="05.875451"><ele>60</ele><time>2012-03-31T14:08:29Z</time><cmt>0.2 kmh</cmt></trkpt>
<trkpt lat="58.868339" lon="05.875451"><ele>60</ele><time>2012-03-31T14:08:30Z</time><cmt>0.0 kmh</cmt></trkpt>
<trkpt lat="58.868339" lon="05.875451"><ele>60</ele><time>2012-03-31T14:08:31Z</time><cmt>0.0 kmh</cmt></trkpt>
<trkpt lat="58.868338" lon="05.875452"><ele>60</ele><time>2012-03-31T14:08:32Z</time><cmt>0.0 kmh</cmt></trkpt>
<trkpt lat="58.868337" lon="05.875453"><ele>61</ele><time>2012-03-31T14:08:33Z</time><cmt>0.0 kmh</cmt></trkpt>
<trkpt lat="58.868336" lon="05.875454"><ele>61</ele><time>2012-03-31T14:08:34Z</time><cmt>0.0 kmh</cmt></trkpt>
<trkpt lat="58.868335" lon="05.875455"><ele>61</ele><time>2012-03-31T14:08:35Z</time><cmt>0.3 kmh</cmt></trkpt>
<trkpt lat="58.868333" lon="05.875457"><ele>62</ele><time>2012-03-31T14:08:36Z</time><cmt>0.8 kmh</cmt></trkpt>
<trkpt lat="58.868330" lon="05.875461"><ele>62</ele><time>2012-03-31T14:08:37Z</time><cmt>1.2 kmh</cmt></trkpt>
<trkpt lat="58.868327" lon="05.875465"><ele>62</ele><time>2012-03-31T14:08:38Z</time><cmt>1.5 kmh</cmt></trkpt>
<trkpt lat="58.868325" lon="05.875468"><ele>63</ele><time>2012-03-31T14:08:39Z</time><cmt>1.1 kmh</cmt></trkpt>
<trkpt lat="58.868321" lon="05.875477"><ele>63</ele><time>2012-03-31T14:08:40Z</time><cmt>1.4 kmh</cmt></trkpt>
<trkpt lat="58.868317" lon="05.875487"><ele>64</ele><time>2012-03-31T14:08:41Z</time><cmt>2.7 kmh</cmt></trkpt>
<trkpt lat="58.868315" lon="05.875492"><ele>65</ele><time>2012-03-31T14:08:42Z</time><cmt>2.2 kmh</cmt></trkpt>
<trkpt lat="58.868314" lon="05.875495"><ele>65</ele><time>2012-03-31T14:08:43Z</time><cmt>1.3 kmh</cmt></trkpt>
<trkpt lat="58.868314" lon="05.875496"><ele>66</ele><time>2012-03-31T14:08:44Z</time><cmt>0.5 kmh</cmt></trkpt>
<trkpt lat="58.868314" lon="05.875494"><ele>66</ele><time>2012-03-31T14:08:45Z</time><cmt>0.2 kmh</cmt></trkpt>
<trkpt lat="58.868316" lon="05.875491"><ele>67</ele><time>2012-03-31T14:08:46Z</time><cmt>0.5 kmh</cmt></trkpt>
<trkpt lat="58.868316" lon="05.875489"><ele>67</ele><time>2012-03-31T14:08:47Z</time><cmt>0.6 kmh</cmt></trkpt>
<trkpt lat="58.868317" lon="05.875487"><ele>67</ele><time>2012-03-31T14:08:48Z</time><cmt>0.5 kmh</cmt></trkpt>
<trkpt lat="58.868317" lon="05.875486"><ele>68</ele><time>2012-03-31T14:08:49Z</time><cmt>0.3 kmh</cmt></trkpt>
<trkpt lat="58.868318" lon="05.875484"><ele>68</ele><time>2012-03-31T14:08:50Z</time><cmt>0.0 kmh</cmt></trkpt>
<trkpt lat="58.868318" lon="05.875483"><ele>68</ele><time>2012-03-31T14:08:51Z</time><cmt>0.0 kmh</cmt></trkpt>
<trkpt lat="58.868318" lon="05.875483"><ele>69</ele><time>2012-03-31T14:08:52Z</time><cmt>0.0 kmh</cmt></trkpt>
<trkpt lat="58.868317" lon="05.875484"><ele>69</ele><time>2012-03-31T14:08:53Z</time><cmt>0.2 kmh</cmt></trkpt>
<trkpt lat="58.868316" lon="05.875485"><ele>70</ele><time>2012-03-31T14:08:54Z</time><cmt>0.5 kmh</cmt></trkpt>
<trkpt lat="58.868314" lon="05.875488"><ele>70</ele><time>2012-03-31T14:08:55Z</time><cmt>0.8 kmh</cmt></trkpt>
<trkpt lat="58.868312" lon="05.875492"><ele>70</ele><time>2012-03-31T14:08:56Z</time><cmt>1.1 kmh</cmt></trkpt>
<trkpt lat="58.868310" lon="05.875495"><ele>71</ele><time>2012-03-31T14:08:57Z</time><cmt>1.2 kmh</cmt></trkpt>
<trkpt lat="58.868307" lon="05.875500"><ele>72</ele><time>2012-03-31T14:08:58Z</time><cmt>1.2 kmh</cmt></trkpt>
<trkpt lat="58.868303" lon="05.875509"><ele>72</ele><time>2012-03-31T14:08:59Z</time><cmt>1.7 kmh</cmt></trkpt>
<trkpt lat="58.868299" lon="05.875516"><ele>73</ele><time>2012-03-31T14:09:00Z</time><cmt>2.3 kmh</cmt></trkpt>
<trkpt lat="58.868297" lon="05.875520"><ele>74</ele><time>2012-03-31T14:09:01Z</time><cmt>1.7 kmh</cmt></trkpt>
<trkpt lat="58.868297" lon="05.875522"><ele>74</ele><time>2012-03-31T14:09:02Z</time><cmt>0.8 kmh</cmt></trkpt>
<trkpt lat="58.868297" lon="05.875524"><ele>75</ele><time>2012-03-31T14:09:03Z</time><cmt>0.4 kmh</cmt></trkpt>
<trkpt lat="58.868297" lon="05.875524"><ele>75</ele><time>2012-03-31T14:09:04Z</time><cmt>0.2 kmh</cmt></trkpt>
<trkpt lat="58.868297" lon="05.875525"><ele>76</ele><time>2012-03-31T14:09:05Z</time><cmt>0.0 kmh</cmt></trkpt>
<trkpt lat="58.868299" lon="05.875525"><ele>76</ele><time>2012-03-31T14:09:06Z</time><cmt>0.3 kmh</cmt></trkpt>
<trkpt lat="58.868300" lon="05.875524"><ele>77</ele><time>2012-03-31T14:09:07Z</time><cmt>0.4 kmh</cmt></trkpt>
<trkpt lat="58.868300" lon="05.875524"><ele>77</ele><time>2012-03-31T14:09:08Z</time><cmt>0.4 kmh</cmt></trkpt>
<trkpt lat="58.868302" lon="05.875523"><ele>78</ele><time>2012-03-31T14:09:09Z</time><cmt>0.6 kmh</cmt></trkpt>
<trkpt lat="58.868304" lon="05.875522"><ele>78</ele><time>2012-03-31T14:09:10Z</time><cmt>0.6 kmh</cmt></trkpt>
<trkpt lat="58.868305" lon="05.875520"><ele>78</ele><time>2012-03-31T14:09:11Z</time><cmt>0.7 kmh</cmt></trkpt>
<trkpt lat="58.868307" lon="05.875519"><ele>78</ele><time>2012-03-31T14:09:12Z</time><cmt>0.8 kmh</cmt></trkpt>
<trkpt lat="58.868309" lon="05.875518"><ele>78</ele><time>2012-03-31T14:09:13Z</time><cmt>0.6 kmh</cmt></trkpt>
<trkpt lat="58.868310" lon="05.875518"><ele>79</ele><time>2012-03-31T14:09:14Z</time><cmt>0.5 kmh</cmt></trkpt>
<trkpt lat="58.868310" lon="05.875517"><ele>79</ele><time>2012-03-31T14:09:15Z</time><cmt>0.3 kmh</cmt></trkpt>
<trkpt lat="58.868311" lon="05.875517"><ele>79</ele><time>2012-03-31T14:09:16Z</time><cmt>0.0 kmh</cmt></trkpt>
<trkpt lat="58.868311" lon="05.875517"><ele>79</ele><time>2012-03-31T14:09:17Z</time><cmt>0.0 kmh</cmt></trkpt>
<trkpt lat="58.868312" lon="05.875518"><ele>79</ele><time>2012-03-31T14:09:18Z</time><cmt>0.0 kmh</cmt></trkpt>
<trkpt lat="58.868313" lon="05.875518"><ele>79</ele><time>2012-03-31T14:09:19Z</time><cmt>0.0 kmh</cmt></trkpt>
<trkpt lat="58.868313" lon="05.875519"><ele>79</ele><time>2012-03-31T14:09:20Z</time><cmt>0.0 kmh</cmt></trkpt>
<trkpt lat="58.868313" lon="05.875521"><ele>79</ele><time>2012-03-31T14:09:21Z</time><cmt>0.0 kmh</cmt></trkpt>
<trkpt lat="58.868313" lon="05.875523"><ele>79</ele><time>2012-03-31T14:09:22Z</time><cmt>0.2 kmh</cmt></trkpt>
<trkpt lat="58.868313" lon="05.875524"><ele>79</ele><time>2012-03-31T14:09:23Z</time><cmt>0.1 kmh</cmt></trkpt>
<trkpt lat="58.868314" lon="05.875525"><ele>80</ele><time>2012-03-31T14:09:24Z</time><cmt>0.2 kmh</cmt></trkpt>
<trkpt lat="58.868316" lon="05.875525"><ele>80</ele><time>2012-03-31T14:09:25Z</time><cmt>0.5 kmh</cmt></trkpt>
<trkpt lat="58.868318" lon="05.875524"><ele>80</ele><time>2012-03-31T14:09:26Z</time><cmt>0.7 kmh</cmt></trkpt>
<trkpt lat="58.868319" lon="05.875522"><ele>80</ele><time>2012-03-31T14:09:27Z</time><cmt>0.8 kmh</cmt></trkpt>
<trkpt lat="58.868321" lon="05.875522"><ele>80</ele><time>2012-03-31T14:09:28Z</time><cmt>0.6 kmh</cmt></trkpt>
<trkpt lat="58.868323" lon="05.875521"><ele>80</ele><time>2012-03-31T14:09:29Z</time><cmt>0.5 kmh</cmt></trkpt>
<trkpt lat="58.868324" lon="05.875520"><ele>80</ele><time>2012-03-31T14:09:30Z</time><cmt>0.6 kmh</cmt></trkpt>
<trkpt lat="58.868325" lon="05.875520"><ele>80</ele><time>2012-03-31T14:09:31Z</time><cmt>0.4 kmh</cmt></trkpt>
<trkpt lat="58.868326" lon="05.875520"><ele>79</ele><time>2012-03-31T14:09:32Z</time><cmt>0.0 kmh</cmt></trkpt>
<trkpt lat="58.868328" lon="05.875519"><ele>79</ele><time>2012-03-31T14:09:33Z</time><cmt>0.3 kmh</cmt></trkpt>
<trkpt lat="58.868329" lon="05.875518"><ele>79</ele><time>2012-03-31T14:09:34Z</time><cmt>0.5 kmh</cmt></trkpt>
<trkpt lat="58.868330" lon="05.875517"><ele>79</ele><time>2012-03-31T14:09:35Z</time><cmt>0.5 kmh</cmt></trkpt>
<trkpt lat="58.868331" lon="05.875516"><ele>79</ele><time>2012-03-31T14:09:36Z</time><cmt>0.6 kmh</cmt></trkpt>
<trkpt lat="58.868333" lon="05.875515"><ele>79</ele><time>2012-03-31T14:09:37Z</time><cmt>0.9 kmh</cmt></trkpt>
<trkpt lat="58.868336" lon="05.875512"><ele>79</ele><time>2012-03-31T14:09:38Z</time><cmt>0.9 kmh</cmt></trkpt>
<trkpt lat="58.868338" lon="05.875510"><ele>79</ele><time>2012-03-31T14:09:39Z</time><cmt>0.9 kmh</cmt></trkpt>
<trkpt lat="58.868339" lon="05.875510"><ele>79</ele><time>2012-03-31T14:09:40Z</time><cmt>0.7 kmh</cmt></trkpt>
<trkpt lat="58.868340" lon="05.875509"><ele>78</ele><time>2012-03-31T14:09:41Z</time><cmt>0.4 kmh</cmt></trkpt>
<trkpt lat="58.868341" lon="05.875509"><ele>78</ele><time>2012-03-31T14:09:42Z</time><cmt>0.4 kmh</cmt></trkpt>
<trkpt lat="58.868342" lon="05.875508"><ele>78</ele><time>2012-03-31T14:09:43Z</time><cmt>0.4 kmh</cmt></trkpt>
<trkpt lat="58.868342" lon="05.875507"><ele>78</ele><time>2012-03-31T14:09:44Z</time><cmt>0.2 kmh</cmt></trkpt>
<trkpt lat="58.868343" lon="05.875508"><ele>78</ele><time>2012-03-31T14:09:45Z</time><cmt>0.0 kmh</cmt></trkpt>
<trkpt lat="58.868343" lon="05.875508"><ele>78</ele><time>2012-03-31T14:09:46Z</time><cmt>0.0 kmh</cmt></trkpt>
<trkpt lat="58.868344" lon="05.875507"><ele>77</ele><time>2012-03-31T14:09:47Z</time><cmt>0.3 kmh</cmt></trkpt>
<trkpt lat="58.868346" lon="05.875506"><ele>77</ele><time>2012-03-31T14:09:48Z</time><cmt>0.6 kmh</cmt></trkpt>
<trkpt lat="58.868348" lon="05.875504"><ele>77</ele><time>2012-03-31T14:09:49Z</time><cmt>0.8 kmh</cmt></trkpt>
<trkpt lat="58.868349" lon="05.875502"><ele>77</ele><time>2012-03-31T14:09:50Z</time><cmt>0.8 kmh</cmt></trkpt>
<trkpt lat="58.868351" lon="05.875500"><ele>77</ele><time>2012-03-31T14:09:51Z</time><cmt>0.9 kmh</cmt></trkpt>
<trkpt lat="58.868352" lon="05.875499"><ele>77</ele><time>2012-03-31T14:09:52Z</time><cmt>0.8 kmh</cmt></trkpt>
<trkpt lat="58.868353" lon="05.875498"><ele>76</ele><time>2012-03-31T14:09:53Z</time><cmt>0.6 kmh</cmt></trkpt>
<trkpt lat="58.868354" lon="05.875498"><ele>76</ele><time>2012-03-31T14:09:54Z</time><cmt>0.4 kmh</cmt></trkpt>
<trkpt lat="58.868353" lon="05.875499"><ele>76</ele><time>2012-03-31T14:09:55Z</time><cmt>0.2 kmh</cmt></trkpt>
<trkpt lat="58.868353" lon="05.875499"><ele>76</ele><time>2012-03-31T14:09:56Z</time><cmt>0.0 kmh</cmt></trkpt>
<trkpt lat="58.868353" lon="05.875500"><ele>76</ele><time>2012-03-31T14:09:57Z</time><cmt>0.0 kmh</cmt></trkpt>
<trkpt lat="58.868353" lon="05.875500"><ele>76</ele><time>2012-03-31T14:09:58Z</time><cmt>0.0 kmh</cmt></trkpt>
<trkpt lat="58.868354" lon="05.875499"><ele>75</ele><time>2012-03-31T14:09:59Z</time><cmt>0.0 kmh</cmt></trkpt>
<trkpt lat="58.868354" lon="05.875498"><ele>75</ele><time>2012-03-31T14:10:00Z</time><cmt>0.1 kmh</cmt></trkpt>
<trkpt lat="58.868354" lon="05.875498"><ele>75</ele><time>2012-03-31T14:10:01Z</time><cmt>0.1 kmh</cmt></trkpt>
<trkpt lat="58.868354" lon="05.875498"><ele>75</ele><time>2012-03-31T14:10:02Z</time><cmt>0.0 kmh</cmt></trkpt>
<trkpt lat="58.868353" lon="05.875498"><ele>75</ele><time>2012-03-31T14:10:03Z</time><cmt>0.3 kmh</cmt></trkpt>
<trkpt lat="58.868351" lon="05.875500"><ele>75</ele><time>2012-03-31T14:10:04Z</time><cmt>0.6 kmh</cmt></trkpt>
<trkpt lat="58.868349" lon="05.875502"><ele>75</ele><time>2012-03-31T14:10:05Z</time><cmt>0.8 kmh</cmt></trkpt>
<trkpt lat="58.868347" lon="05.875504"><ele>75</ele><time>2012-03-31T14:10:06Z</time><cmt>0.7 kmh</cmt></trkpt>
<trkpt lat="58.868346" lon="05.875507"><ele>75</ele><time>2012-03-31T14:10:07Z</time><cmt>0.7 kmh</cmt></trkpt>
<trkpt lat="58.868344" lon="05.875508"><ele>76</ele><time>2012-03-31T14:10:08Z</time><cmt>0.8 kmh</cmt></trkpt>
<trkpt lat="58.868343" lon="05.875510"><ele>76</ele><time>2012-03-31T14:10:09Z</time><cmt>0.7 kmh</cmt></trkpt>
<trkpt lat="58.868341" lon="05.875513"><ele>76</ele><time>2012-03-31T14:10:10Z</time><cmt>0.7 kmh</cmt></trkpt>
<trkpt lat="58.868341" lon="05.875514"><ele>76</ele><time>2012-03-31T14:10:11Z</time><cmt>0.4 kmh</cmt></trkpt>
<trkpt lat="58.868340" lon="05.875515"><ele>77</ele><time>2012-03-31T14:10:12Z</time><cmt>0.0 kmh</cmt></trkpt>
<trkpt lat="58.868340" lon="05.875517"><ele>77</ele><time>2012-03-31T14:10:13Z</time><cmt>0.2 kmh</cmt></trkpt>
<trkpt lat="58.868338" lon="05.875522"><ele>77</ele><time>2012-03-31T14:10:14Z</time><cmt>0.8 kmh</cmt></trkpt>
<trkpt lat="58.868337" lon="05.875526"><ele>77</ele><time>2012-03-31T14:10:15Z</time><cmt>1.1 kmh</cmt></trkpt>
<trkpt lat="58.868335" lon="05.875530"><ele>78</ele><time>2012-03-31T14:10:16Z</time><cmt>1.1 kmh</cmt></trkpt>
<trkpt lat="58.868334" lon="05.875535"><ele>78</ele><time>2012-03-31T14:10:17Z</time><cmt>1.2 kmh</cmt></trkpt>
<trkpt lat="58.868332" lon="05.875540"><ele>78</ele><time>2012-03-31T14:10:18Z</time><cmt>1.1 kmh</cmt></trkpt>
<trkpt lat="58.868329" lon="05.875547"><ele>79</ele><time>2012-03-31T14:10:19Z</time><cmt>1.3 kmh</cmt></trkpt>
<trkpt lat="58.868327" lon="05.875553"><ele>79</ele><time>2012-03-31T14:10:20Z</time><cmt>1.7 kmh</cmt></trkpt>
<trkpt lat="58.868325" lon="05.875559"><ele>80</ele><time>2012-03-31T14:10:21Z</time><cmt>1.6 kmh</cmt></trkpt>
<trkpt lat="58.868324" lon="05.875564"><ele>80</ele><time>2012-03-31T14:10:22Z</time><cmt>1.3 kmh</cmt></trkpt>
<trkpt lat="58.868322" lon="05.875569"><ele>80</ele><time>2012-03-31T14:10:23Z</time><cmt>1.4 kmh</cmt></trkpt>
<trkpt lat="58.868320" lon="05.875574"><ele>81</ele><time>2012-03-31T14:10:24Z</time><cmt>1.4 kmh</cmt></trkpt>
<trkpt lat="58.868318" lon="05.875579"><ele>81</ele><time>2012-03-31T14:10:25Z</time><cmt>1.1 kmh</cmt></trkpt>
<trkpt lat="58.868319" lon="05.875579"><ele>82</ele><time>2012-03-31T14:10:26Z</time><cmt>0.5 kmh</cmt></trkpt>
<trkpt lat="58.868319" lon="05.875578"><ele>82</ele><time>2012-03-31T14:10:27Z</time><cmt>0.3 kmh</cmt></trkpt>
<trkpt lat="58.868319" lon="05.875578"><ele>83</ele><time>2012-03-31T14:10:28Z</time><cmt>0.3 kmh</cmt></trkpt>
<trkpt lat="58.868319" lon="05.875579"><ele>83</ele><time>2012-03-31T14:10:29Z</time><cmt>0.0 kmh</cmt></trkpt>
<trkpt lat="58.868320" lon="05.875579"><ele>83</ele><time>2012-03-31T14:10:30Z</time><cmt>0.0 kmh</cmt></trkpt>
<trkpt lat="58.868321" lon="05.875578"><ele>83</ele><time>2012-03-31T14:10:31Z</time><cmt>0.0 kmh</cmt></trkpt>
<trkpt lat="58.868322" lon="05.875578"><ele>84</ele><time>2012-03-31T14:10:32Z</time><cmt>0.0 kmh</cmt></trkpt>
<trkpt lat="58.868323" lon="05.875577"><ele>84</ele><time>2012-03-31T14:10:33Z</time><cmt>0.3 kmh</cmt></trkpt>
<trkpt lat="58.868324" lon="05.875576"><ele>84</ele><time>2012-03-31T14:10:34Z</time><cmt>0.7 kmh</cmt></trkpt>
<trkpt lat="58.868325" lon="05.875575"><ele>84</ele><time>2012-03-31T14:10:35Z</time><cmt>0.6 kmh</cmt></trkpt>
<trkpt lat="58.868327" lon="05.875573"><ele>84</ele><time>2012-03-31T14:10:36Z</time><cmt>0.6 kmh</cmt></trkpt>
<trkpt lat="58.868328" lon="05.875572"><ele>84</ele><time>2012-03-31T14:10:37Z</time><cmt>0.5 kmh</cmt></trkpt>
<trkpt lat="58.868330" lon="05.875571"><ele>84</ele><time>2012-03-31T14:10:38Z</time><cmt>0.5 kmh</cmt></trkpt>
<trkpt lat="58.868331" lon="05.875569"><ele>84</ele><time>2012-03-31T14:10:39Z</time><cmt>0.7 kmh</cmt></trkpt>
<trkpt lat="58.868332" lon="05.875567"><ele>84</ele><time>2012-03-31T14:10:40Z</time><cmt>0.6 kmh</cmt></trkpt>
<trkpt lat="58.868333" lon="05.875566"><ele>84</ele><time>2012-03-31T14:10:41Z</time><cmt>0.5 kmh</cmt></trkpt>
<trkpt lat="58.868335" lon="05.875563"><ele>84</ele><time>2012-03-31T14:10:42Z</time><cmt>0.7 kmh</cmt></trkpt>
<trkpt lat="58.868337" lon="05.875560"><ele>84</ele><time>2012-03-31T14:10:43Z</time><cmt>0.7 kmh</cmt></trkpt>
<trkpt lat="58.868339" lon="05.875557"><ele>84</ele><time>2012-03-31T14:10:44Z</time><cmt>0.8 kmh</cmt></trkpt>
<trkpt lat="58.868340" lon="05.875555"><ele>84</ele><time>2012-03-31T14:10:45Z</time><cmt>0.9 kmh</cmt></trkpt>
<trkpt lat="58.868341" lon="05.875554"><ele>84</ele><time>2012-03-31T14:10:46Z</time><cmt>0.6 kmh</cmt></trkpt>
<trkpt lat="58.868342" lon="05.875553"><ele>84</ele><time>2012-03-31T14:10:47Z</time><cmt>0.4 kmh</cmt></trkpt>
<trkpt lat="58.868342" lon="05.875553"><ele>83</ele><time>2012-03-31T14:10:48Z</time><cmt>0.2 kmh</cmt></trkpt>
<trkpt lat="58.868341" lon="05.875554"><ele>83</ele><time>2012-03-31T14:10:49Z</time><cmt>0.1 kmh</cmt></trkpt>
<trkpt lat="58.868341" lon="05.875556"><ele>83</ele><time>2012-03-31T14:10:50Z</time><cmt>0.1 kmh</cmt></trkpt>
<trkpt lat="58.868340" lon="05.875557"><ele>83</ele><time>2012-03-31T14:10:51Z</time><cmt>0.0 kmh</cmt></trkpt>
<trkpt lat="58.868340" lon="05.875557"><ele>83</ele><time>2012-03-31T14:10:52Z</time><cmt>0.0 kmh</cmt></trkpt>
<trkpt lat="58.868340" lon="05.875558"><ele>83</ele><time>2012-03-31T14:10:53Z</time><cmt>0.0 kmh</cmt></trkpt>
<trkpt lat="58.868340" lon="05.875556"><ele>83</ele><time>2012-03-31T14:10:54Z</time><cmt>0.0 kmh</cmt></trkpt>
<trkpt lat="58.868342" lon="05.875554"><ele>83</ele><time>2012-03-31T14:10:55Z</time><cmt>0.4 kmh</cmt></trkpt>
<trkpt lat="58.868343" lon="05.875551"><ele>83</ele><time>2012-03-31T14:10:56Z</time><cmt>0.6 kmh</cmt></trkpt>
<trkpt lat="58.868344" lon="05.875549"><ele>83</ele><time>2012-03-31T14:10:57Z</time><cmt>0.7 kmh</cmt></trkpt>
<trkpt lat="58.868346" lon="05.875545"><ele>83</ele><time>2012-03-31T14:10:58Z</time><cmt>0.9 kmh</cmt></trkpt>
<trkpt lat="58.868347" lon="05.875542"><ele>83</ele><time>2012-03-31T14:10:59Z</time><cmt>0.9 kmh</cmt></trkpt>
<trkpt lat="58.868349" lon="05.875540"><ele>83</ele><time>2012-03-31T14:11:00Z</time><cmt>0.9 kmh</cmt></trkpt>
<trkpt lat="58.868350" lon="05.875537"><ele>82</ele><time>2012-03-31T14:11:01Z</time><cmt>0.8 kmh</cmt></trkpt>
<trkpt lat="58.868351" lon="05.875535"><ele>82</ele><time>2012-03-31T14:11:02Z</time><cmt>0.6 kmh</cmt></trkpt>
<trkpt lat="58.868353" lon="05.875532"><ele>82</ele><time>2012-03-31T14:11:03Z</time><cmt>0.7 kmh</cmt></trkpt>
<trkpt lat="58.868355" lon="05.875528"><ele>82</ele><time>2012-03-31T14:11:04Z</time><cmt>1.0 kmh</cmt></trkpt>
<trkpt lat="58.868357" lon="05.875525"><ele>82</ele><time>2012-03-31T14:11:05Z</time><cmt>1.1 kmh</cmt></trkpt>
<trkpt lat="58.868359" lon="05.875521"><ele>81</ele><time>2012-03-31T14:11:06Z</time><cmt>1.1 kmh</cmt></trkpt>
<trkpt lat="58.868361" lon="05.875518"><ele>81</ele><time>2012-03-31T14:11:07Z</time><cmt>1.1 kmh</cmt></trkpt>
<trkpt lat="58.868363" lon="05.875514"><ele>81</ele><time>2012-03-31T14:11:08Z</time><cmt>1.0 kmh</cmt></trkpt>
<trkpt lat="58.868365" lon="05.875510"><ele>81</ele><time>2012-03-31T14:11:09Z</time><cmt>1.0 kmh</cmt></trkpt>
<trkpt lat="58.868367" lon="05.875507"><ele>80</ele><time>2012-03-31T14:11:10Z</time><cmt>1.3 kmh</cmt></trkpt>
<trkpt lat="58.868369" lon="05.875503"><ele>80</ele><time>2012-03-31T14:11:11Z</time><cmt>1.3 kmh</cmt></trkpt>
<trkpt lat="58.868371" lon="05.875498"><ele>80</ele><time>2012-03-31T14:11:12Z</time><cmt>1.4 kmh</cmt></trkpt>
<trkpt lat="58.868374" lon="05.875494"><ele>80</ele><time>2012-03-31T14:11:13Z</time><cmt>1.4 kmh</cmt></trkpt>
<trkpt lat="58.868375" lon="05.875491"><ele>79</ele><time>2012-03-31T14:11:14Z</time><cmt>1.0 kmh</cmt></trkpt>
<trkpt lat="58.868377" lon="05.875488"><ele>79</ele><time>2012-03-31T14:11:15Z</time><cmt>0.8 kmh</cmt></trkpt>
<trkpt lat="58.868379" lon="05.875485"><ele>79</ele><time>2012-03-31T14:11:16Z</time><cmt>1.0 kmh</cmt></trkpt>
<trkpt lat="58.868381" lon="05.875482"><ele>78</ele><time>2012-03-31T14:11:17Z</time><cmt>1.1 kmh</cmt></trkpt>
<trkpt lat="58.868382" lon="05.875479"><ele>78</ele><time>2012-03-31T14:11:18Z</time><cmt>1.0 kmh</cmt></trkpt>
<trkpt lat="58.868384" lon="05.875477"><ele>78</ele><time>2012-03-31T14:11:19Z</time><cmt>0.9 kmh</cmt></trkpt>
<trkpt lat="58.868385" lon="05.875474"><ele>77</ele><time>2012-03-31T14:11:20Z</time><cmt>0.7 kmh</cmt></trkpt>
<trkpt lat="58.868387" lon="05.875471"><ele>77</ele><time>2012-03-31T14:11:21Z</time><cmt>0.7 kmh</cmt></trkpt>
<trkpt lat="58.868388" lon="05.875469"><ele>77</ele><time>2012-03-31T14:11:22Z</time><cmt>0.7 kmh</cmt></trkpt>
<trkpt lat="58.868389" lon="05.875467"><ele>76</ele><time>2012-03-31T14:11:23Z</time><cmt>0.7 kmh</cmt></trkpt>
<trkpt lat="58.868390" lon="05.875464"><ele>76</ele><time>2012-03-31T14:11:24Z</time><cmt>0.8 kmh</cmt></trkpt>
<trkpt lat="58.868392" lon="05.875461"><ele>76</ele><time>2012-03-31T14:11:25Z</time><cmt>0.9 kmh</cmt></trkpt>
<trkpt lat="58.868393" lon="05.875459"><ele>75</ele><time>2012-03-31T14:11:26Z</time><cmt>0.8 kmh</cmt></trkpt>
<trkpt lat="58.868394" lon="05.875457"><ele>75</ele><time>2012-03-31T14:11:27Z</time><cmt>0.5 kmh</cmt></trkpt>
<trkpt lat="58.868395" lon="05.875454"><ele>75</ele><time>2012-03-31T14:11:28Z</time><cmt>0.5 kmh</cmt></trkpt>
<trkpt lat="58.868397" lon="05.875452"><ele>75</ele><time>2012-03-31T14:11:29Z</time><cmt>0.8 kmh</cmt></trkpt>
<trkpt lat="58.868398" lon="05.875449"><ele>74</ele><time>2012-03-31T14:11:30Z</time><cmt>0.9 kmh</cmt></trkpt>
<trkpt lat="58.868401" lon="05.875444"><ele>74</ele><time>2012-03-31T14:11:31Z</time><cmt>1.2 kmh</cmt></trkpt>
<trkpt lat="58.868403" lon="05.875440"><ele>73</ele><time>2012-03-31T14:11:32Z</time><cmt>1.3 kmh</cmt></trkpt>
<trkpt lat="58.868404" lon="05.875437"><ele>73</ele><time>2012-03-31T14:11:33Z</time><cmt>0.9 kmh</cmt></trkpt>
<trkpt lat="58.868406" lon="05.875434"><ele>73</ele><time>2012-03-31T14:11:34Z</time><cmt>0.7 kmh</cmt></trkpt>
<trkpt lat="58.868408" lon="05.875431"><ele>72</ele><time>2012-03-31T14:11:35Z</time><cmt>1.0 kmh</cmt></trkpt>
<trkpt lat="58.868410" lon="05.875427"><ele>72</ele><time>2012-03-31T14:11:36Z</time><cmt>1.2 kmh</cmt></trkpt>
<trkpt lat="58.868412" lon="05.875424"><ele>72</ele><time>2012-03-31T14:11:37Z</time><cmt>1.1 kmh</cmt></trkpt>
<trkpt lat="58.868414" lon="05.875420"><ele>71</ele><time>2012-03-31T14:11:38Z</time><cmt>1.1 kmh</cmt></trkpt>
<trkpt lat="58.868416" lon="05.875417"><ele>71</ele><time>2012-03-31T14:11:39Z</time><cmt>0.9 kmh</cmt></trkpt>
<trkpt lat="58.868418" lon="05.875414"><ele>70</ele><time>2012-03-31T14:11:40Z</time><cmt>0.9 kmh</cmt></trkpt>
<trkpt lat="58.868419" lon="05.875410"><ele>70</ele><time>2012-03-31T14:11:41Z</time><cmt>1.1 kmh</cmt></trkpt>
<trkpt lat="58.868421" lon="05.875407"><ele>70</ele><time>2012-03-31T14:11:42Z</time><cmt>1.0 kmh</cmt></trkpt>
<trkpt lat="58.868423" lon="05.875404"><ele>69</ele><time>2012-03-31T14:11:43Z</time><cmt>1.0 kmh</cmt></trkpt>
<trkpt lat="58.868425" lon="05.875401"><ele>69</ele><time>2012-03-31T14:11:44Z</time><cmt>1.0 kmh</cmt></trkpt>
<trkpt lat="58.868427" lon="05.875398"><ele>68</ele><time>2012-03-31T14:11:45Z</time><cmt>0.8 kmh</cmt></trkpt>
<trkpt lat="58.868427" lon="05.875398"><ele>68</ele><time>2012-03-31T14:11:46Z</time><cmt>0.4 kmh</cmt></trkpt>
<trkpt lat="58.868427" lon="05.875399"><ele>68</ele><time>2012-03-31T14:11:47Z</time><cmt>0.0 kmh</cmt></trkpt>
<trkpt lat="58.868427" lon="05.875400"><ele>67</ele><time>2012-03-31T14:11:48Z</time><cmt>0.0 kmh</cmt></trkpt>
<trkpt lat="58.868427" lon="05.875401"><ele>67</ele><time>2012-03-31T14:11:49Z</time><cmt>0.0 kmh</cmt></trkpt>
<trkpt lat="58.868427" lon="05.875403"><ele>67</ele><time>2012-03-31T14:11:50Z</time><cmt>0.3 kmh</cmt></trkpt>
<trkpt lat="58.868426" lon="05.875404"><ele>66</ele><time>2012-03-31T14:11:51Z</time><cmt>0.4 kmh</cmt></trkpt>
<trkpt lat="58.868426" lon="05.875406"><ele>66</ele><time>2012-03-31T14:11:52Z</time><cmt>0.1 kmh</cmt></trkpt>
<trkpt lat="58.868426" lon="05.875407"><ele>66</ele><time>2012-03-31T14:11:53Z</time><cmt>0.0 kmh</cmt></trkpt>
<trkpt lat="58.868425" lon="05.875408"><ele>66</ele><time>2012-03-31T14:11:54Z</time><cmt>0.3 kmh</cmt></trkpt>
<trkpt lat="58.868425" lon="05.875409"><ele>66</ele><time>2012-03-31T14:11:55Z</time><cmt>0.3 kmh</cmt></trkpt>
<trkpt lat="58.868425" lon="05.875410"><ele>66</ele><time>2012-03-31T14:11:56Z</time><cmt>0.0 kmh</cmt></trkpt>
<trkpt lat="58.868426" lon="05.875410"><ele>65</ele><time>2012-03-31T14:11:57Z</time><cmt>0.0 kmh</cmt></trkpt>
<trkpt lat="58.868426" lon="05.875410"><ele>65</ele><time>2012-03-31T14:11:58Z</time><cmt>0.0 kmh</cmt></trkpt>
<trkpt lat="58.868426" lon="05.875410"><ele>65</ele><time>2012-03-31T14:11:59Z</time><cmt>0.0 kmh</cmt></trkpt>
<trkpt lat="58.868427" lon="05.875410"><ele>65</ele><time>2012-03-31T14:12:00Z</time><cmt>0.0 kmh</cmt></trkpt>
<trkpt lat="58.868428" lon="05.875407"><ele>65</ele><time>2012-03-31T14:12:01Z</time><cmt>0.4 kmh</cmt></trkpt>
<trkpt lat="58.868430" lon="05.875404"><ele>65</ele><time>2012-03-31T14:12:02Z</time><cmt>1.0 kmh</cmt></trkpt>
<trkpt lat="58.868432" lon="05.875400"><ele>65</ele><time>2012-03-31T14:12:03Z</time><cmt>1.1 kmh</cmt></trkpt>
<trkpt lat="58.868433" lon="05.875397"><ele>64</ele><time>2012-03-31T14:12:04Z</time><cmt>0.8 kmh</cmt></trkpt>
<trkpt lat="58.868435" lon="05.875394"><ele>64</ele><time>2012-03-31T14:12:05Z</time><cmt>0.8 kmh</cmt></trkpt>
<trkpt lat="58.868437" lon="05.875390"><ele>64</ele><time>2012-03-31T14:12:06Z</time><cmt>1.0 kmh</cmt></trkpt>
<trkpt lat="58.868438" lon="05.875387"><ele>64</ele><time>2012-03-31T14:12:07Z</time><cmt>1.0 kmh</cmt></trkpt>
<trkpt lat="58.868440" lon="05.875383"><ele>63</ele><time>2012-03-31T14:12:08Z</time><cmt>1.1 kmh</cmt></trkpt>
<trkpt lat="58.868441" lon="05.875380"><ele>63</ele><time>2012-03-31T14:12:09Z</time><cmt>1.0 kmh</cmt></trkpt>
<trkpt lat="58.868443" lon="05.875377"><ele>63</ele><time>2012-03-31T14:12:10Z</time><cmt>0.6 kmh</cmt></trkpt>
<trkpt lat="58.868444" lon="05.875375"><ele>63</ele><time>2012-03-31T14:12:11Z</time><cmt>0.6 kmh</cmt></trkpt>
<trkpt lat="58.868445" lon="05.875372"><ele>62</ele><time>2012-03-31T14:12:12Z</time><cmt>0.8 kmh</cmt></trkpt>
<trkpt lat="58.868447" lon="05.875369"><ele>62</ele><time>2012-03-31T14:12:13Z</time><cmt>0.9 kmh</cmt></trkpt>
<trkpt lat="58.868448" lon="05.875367"><ele>62</ele><time>2012-03-31T14:12:14Z</time><cmt>0.7 kmh</cmt></trkpt>
<trkpt lat="58.868449" lon="05.875364"><ele>61</ele><time>2012-03-31T14:12:15Z</time><cmt>0.6 kmh</cmt></trkpt>
<trkpt lat="58.868450" lon="05.875362"><ele>61</ele><time>2012-03-31T14:12:16Z</time><cmt>0.6 kmh</cmt></trkpt>
<trkpt lat="58.868451" lon="05.875360"><ele>61</ele><time>2012-03-31T14:12:17Z</time><cmt>0.5 kmh</cmt></trkpt>
<trkpt lat="58.868452" lon="05.875357"><ele>61</ele><time>2012-03-31T14:12:18Z</time><cmt>0.6 kmh</cmt></trkpt>
<trkpt lat="58.868452" lon="05.875357"><ele>60</ele><time>2012-03-31T14:12:19Z</time><cmt>0.6 kmh</cmt></trkpt>
<trkpt lat="58.868452" lon="05.875358"><ele>60</ele><time>2012-03-31T14:12:20Z</time><cmt>0.4 kmh</cmt></trkpt>
<trkpt lat="58.868451" lon="05.875359"><ele>60</ele><time>2012-03-31T14:12:21Z</time><cmt>0.4 kmh</cmt></trkpt>
<trkpt lat="58.868450" lon="05.875361"><ele>60</ele><time>2012-03-31T14:12:22Z</time><cmt>0.1 kmh</cmt></trkpt>
<trkpt lat="58.868450" lon="05.875362"><ele>60</ele><time>2012-03-31T14:12:23Z</time><cmt>0.0 kmh</cmt></trkpt>
<trkpt lat="58.868449" lon="05.875363"><ele>59</ele><time>2012-03-31T14:12:24Z</time><cmt>0.0 kmh</cmt></trkpt>
<trkpt lat="58.868449" lon="05.875364"><ele>59</ele><time>2012-03-31T14:12:25Z</time><cmt>0.0 kmh</cmt></trkpt>
<trkpt lat="58.868448" lon="05.875364"><ele>59</ele><time>2012-03-31T14:12:26Z</time><cmt>0.0 kmh</cmt></trkpt>
<trkpt lat="58.868448" lon="05.875365"><ele>59</ele><time>2012-03-31T14:12:27Z</time><cmt>0.2 kmh</cmt></trkpt>
<trkpt lat="58.868448" lon="05.875365"><ele>59</ele><time>2012-03-31T14:12:28Z</time><cmt>0.2 kmh</cmt></trkpt>
<trkpt lat="58.868447" lon="05.875366"><ele>59</ele><time>2012-03-31T14:12:29Z</time><cmt>0.1 kmh</cmt></trkpt>
<trkpt lat="58.868446" lon="05.875369"><ele>59</ele><time>2012-03-31T14:12:30Z</time><cmt>0.4 kmh</cmt></trkpt>
<trkpt lat="58.868444" lon="05.875372"><ele>59</ele><time>2012-03-31T14:12:31Z</time><cmt>0.8 kmh</cmt></trkpt>
<trkpt lat="58.868444" lon="05.875372"><ele>59</ele><time>2012-03-31T14:12:32Z</time><cmt>0.5 kmh</cmt></trkpt>
<trkpt lat="58.868445" lon="05.875371"><ele>59</ele><time>2012-03-31T14:12:33Z</time><cmt>0.0 kmh</cmt></trkpt>
<trkpt lat="58.868445" lon="05.875369"><ele>59</ele><time>2012-03-31T14:12:34Z</time><cmt>0.3 kmh</cmt></trkpt>
<trkpt lat="58.868446" lon="05.875367"><ele>59</ele><time>2012-03-31T14:12:35Z</time><cmt>0.5 kmh</cmt></trkpt>
<trkpt lat="58.868447" lon="05.875365"><ele>59</ele><time>2012-03-31T14:12:36Z</time><cmt>0.5 kmh</cmt></trkpt>
<trkpt lat="58.868448" lon="05.875363"><ele>59</ele><time>2012-03-31T14:12:37Z</time><cmt>0.5 kmh</cmt></trkpt>
<trkpt lat="58.868449" lon="05.875361"><ele>59</ele><time>2012-03-31T14:12:38Z</time><cmt>0.6 kmh</cmt></trkpt>
<trkpt lat="58.868450" lon="05.875359"><ele>59</ele><time>2012-03-31T14:12:39Z</time><cmt>0.6 kmh</cmt></trkpt>
<trkpt lat="58.868450" lon="05.875357"><ele>59</ele><time>2012-03-31T14:12:40Z</time><cmt>0.5 kmh</cmt></trkpt>
<trkpt lat="58.868451" lon="05.875356"><ele>59</ele><time>2012-03-31T14:12:41Z</time><cmt>0.4 kmh</cmt></trkpt>
<trkpt lat="58.868451" lon="05.875354"><ele>59</ele><time>2012-03-31T14:12:42Z</time><cmt>0.4 kmh</cmt></trkpt>
<trkpt lat="58.868452" lon="05.875352"><ele>58</ele><time>2012-03-31T14:12:43Z</time><cmt>0.6 kmh</cmt></trkpt>
<trkpt lat="58.868453" lon="05.875349"><ele>58</ele><time>2012-03-31T14:12:44Z</time><cmt>0.7 kmh</cmt></trkpt>
<trkpt lat="58.868454" lon="05.875347"><ele>58</ele><time>2012-03-31T14:12:45Z</time><cmt>0.8 kmh</cmt></trkpt>
<trkpt lat="58.868456" lon="05.875344"><ele>58</ele><time>2012-03-31T14:12:46Z</time><cmt>0.8 kmh</cmt></trkpt>
<trkpt lat="58.868457" lon="05.875341"><ele>58</ele><time>2012-03-31T14:12:47Z</time><cmt>0.6 kmh</cmt></trkpt>
<trkpt lat="58.868458" lon="05.875338"><ele>58</ele><time>2012-03-31T14:12:48Z</time><cmt>0.7 kmh</cmt></trkpt>
<trkpt lat="58.868459" lon="05.875336"><ele>57</ele><time>2012-03-31T14:12:49Z</time><cmt>0.9 kmh</cmt></trkpt>
<trkpt lat="58.868459" lon="05.875335"><ele>57</ele><time>2012-03-31T14:12:50Z</time><cmt>0.5 kmh</cmt></trkpt>
<trkpt lat="58.868459" lon="05.875335"><ele>57</ele><time>2012-03-31T14:12:51Z</time><cmt>0.0 kmh</cmt></trkpt>
<trkpt lat="58.868460" lon="05.875334"><ele>57</ele><time>2012-03-31T14:12:52Z</time><cmt>0.0 kmh</cmt></trkpt>
<trkpt lat="58.868460" lon="05.875332"><ele>57</ele><time>2012-03-31T14:12:53Z</time><cmt>0.3 kmh</cmt></trkpt>
<trkpt lat="58.868461" lon="05.875331"><ele>57</ele><time>2012-03-31T14:12:54Z</time><cmt>0.5 kmh</cmt></trkpt>
<trkpt lat="58.868461" lon="05.875329"><ele>56</ele><time>2012-03-31T14:12:55Z</time><cmt>0.6 kmh</cmt></trkpt>
<trkpt lat="58.868462" lon="05.875327"><ele>56</ele><time>2012-03-31T14:12:56Z</time><cmt>0.6 kmh</cmt></trkpt>
<trkpt lat="58.868463" lon="05.875325"><ele>56</ele><time>2012-03-31T14:12:57Z</time><cmt>0.7 kmh</cmt></trkpt>
<trkpt lat="58.868464" lon="05.875323"><ele>56</ele><time>2012-03-31T14:12:58Z</time><cmt>0.7 kmh</cmt></trkpt>
<trkpt lat="58.868465" lon="05.875321"><ele>56</ele><time>2012-03-31T14:12:59Z</time><cmt>0.6 kmh</cmt></trkpt>
<trkpt lat="58.868466" lon="05.875318"><ele>56</ele><time>2012-03-31T14:13:00Z</time><cmt>0.7 kmh</cmt></trkpt>
<trkpt lat="58.868468" lon="05.875315"><ele>55</ele><time>2012-03-31T14:13:01Z</time><cmt>0.9 kmh</cmt></trkpt>
<trkpt lat="58.868469" lon="05.875312"><ele>55</ele><time>2012-03-31T14:13:02Z</time><cmt>0.9 kmh</cmt></trkpt>
<trkpt lat="58.868470" lon="05.875309"><ele>55</ele><time>2012-03-31T14:13:03Z</time><cmt>0.9 kmh</cmt></trkpt>
<trkpt lat="58.868471" lon="05.875307"><ele>55</ele><time>2012-03-31T14:13:04Z</time><cmt>0.7 kmh</cmt></trkpt>
<trkpt lat="58.868472" lon="05.875306"><ele>54</ele><time>2012-03-31T14:13:05Z</time><cmt>0.2 kmh</cmt></trkpt>
<trkpt lat="58.868473" lon="05.875304"><ele>54</ele><time>2012-03-31T14:13:06Z</time><cmt>0.1 kmh</cmt></trkpt>
<trkpt lat="58.868473" lon="05.875303"><ele>54</ele><time>2012-03-31T14:13:07Z</time><cmt>0.1 kmh</cmt></trkpt>
<trkpt lat="58.868474" lon="05.875301"><ele>54</ele><time>2012-03-31T14:13:08Z</time><cmt>0.2 kmh</cmt></trkpt>
<trkpt lat="58.868474" lon="05.875299"><ele>53</ele><time>2012-03-31T14:13:09Z</time><cmt>0.4 kmh</cmt></trkpt>
<trkpt lat="58.868474" lon="05.875299"><ele>53</ele><time>2012-03-31T14:13:10Z</time><cmt>0.3 kmh</cmt></trkpt>
<trkpt lat="58.868474" lon="05.875300"><ele>53</ele><time>2012-03-31T14:13:11Z</time><cmt>0.0 kmh</cmt></trkpt>
<trkpt lat="58.868475" lon="05.875298"><ele>53</ele><time>2012-03-31T14:13:12Z</time><cmt>0.0 kmh</cmt></trkpt>
<trkpt lat="58.868475" lon="05.875297"><ele>53</ele><time>2012-03-31T14:13:13Z</time><cmt>0.2 kmh</cmt></trkpt>
<trkpt lat="58.868476" lon="05.875295"><ele>52</ele><time>2012-03-31T14:13:14Z</time><cmt>0.5 kmh</cmt></trkpt>
<trkpt lat="58.868476" lon="05.875294"><ele>52</ele><time>2012-03-31T14:13:15Z</time><cmt>0.3 kmh</cmt></trkpt>
<trkpt lat="58.868475" lon="05.875292"><ele>52</ele><time>2012-03-31T14:13:16Z</time><cmt>0.0 kmh</cmt></trkpt>
<trkpt lat="58.868475" lon="05.875291"><ele>52</ele><time>2012-03-31T14:13:17Z</time><cmt>0.0 kmh</cmt></trkpt>
<trkpt lat="58.868475" lon="05.875291"><ele>52</ele><time>2012-03-31T14:13:18Z</time><cmt>0.1 kmh</cmt></trkpt>
<trkpt lat="58.868474" lon="05.875290"><ele>52</ele><time>2012-03-31T14:13:19Z</time><cmt>0.1 kmh</cmt></trkpt>
<trkpt lat="58.868474" lon="05.875289"><ele>52</ele><time>2012-03-31T14:13:20Z</time><cmt>0.2 kmh</cmt></trkpt>
<trkpt lat="58.868473" lon="05.875288"><ele>52</ele><time>2012-03-31T14:13:21Z</time><cmt>0.2 kmh</cmt></trkpt>
<trkpt lat="58.868473" lon="05.875287"><ele>51</ele><time>2012-03-31T14:13:22Z</time><cmt>0.0 kmh</cmt></trkpt>
<trkpt lat="58.868472" lon="05.875287"><ele>51</ele><time>2012-03-31T14:13:23Z</time><cmt>0.0 kmh</cmt></trkpt>
<trkpt lat="58.868472" lon="05.875287"><ele>51</ele><time>2012-03-31T14:13:24Z</time><cmt>0.0 kmh</cmt></trkpt>
<trkpt lat="58.868471" lon="05.875288"><ele>51</ele><time>2012-03-31T14:13:25Z</time><cmt>0.2 kmh</cmt></trkpt>
<trkpt lat="58.868469" lon="05.875290"><ele>51</ele><time>2012-03-31T14:13:26Z</time><cmt>0.7 kmh</cmt></trkpt>
<trkpt lat="58.868468" lon="05.875290"><ele>52</ele><time>2012-03-31T14:13:27Z</time><cmt>0.7 kmh</cmt></trkpt>
<trkpt lat="58.868468" lon="05.875290"><ele>52</ele><time>2012-03-31T14:13:28Z</time><cmt>0.5 kmh</cmt></trkpt>
<trkpt lat="58.868468" lon="05.875288"><ele>52</ele><time>2012-03-31T14:13:29Z</time><cmt>0.4 kmh</cmt></trkpt>
<trkpt lat="58.868469" lon="05.875287"><ele>52</ele><time>2012-03-31T14:13:30Z</time><cmt>0.1 kmh</cmt></trkpt>
<trkpt lat="58.868467" lon="05.875289"><ele>52</ele><time>2012-03-31T14:13:31Z</time><cmt>0.2 kmh</cmt></trkpt>
<trkpt lat="58.868464" lon="05.875294"><ele>52</ele><time>2012-03-31T14:13:32Z</time><cmt>1.2 kmh</cmt></trkpt>
<trkpt lat="58.868461" lon="05.875299"><ele>52</ele><time>2012-03-31T14:13:33Z</time><cmt>1.7 kmh</cmt></trkpt>
<trkpt lat="58.868459" lon="05.875302"><ele>52</ele><time>2012-03-31T14:13:34Z</time><cmt>1.4 kmh</cmt></trkpt>
<trkpt lat="58.868456" lon="05.875307"><ele>52</ele><time>2012-03-31T14:13:35Z</time><cmt>1.4 kmh</cmt></trkpt>
<trkpt lat="58.868453" lon="05.875312"><ele>53</ele><time>2012-03-31T14:13:36Z</time><cmt>1.3 kmh</cmt></trkpt>
<trkpt lat="58.868451" lon="05.875314"><ele>53</ele><time>2012-03-31T14:13:37Z</time><cmt>1.1 kmh</cmt></trkpt>
<trkpt lat="58.868449" lon="05.875315"><ele>53</ele><time>2012-03-31T14:13:38Z</time><cmt>0.9 kmh</cmt></trkpt>
<trkpt lat="58.868448" lon="05.875317"><ele>54</ele><time>2012-03-31T14:13:39Z</time><cmt>0.8 kmh</cmt></trkpt>
<trkpt lat="58.868447" lon="05.875317"><ele>54</ele><time>2012-03-31T14:13:40Z</time><cmt>0.4 kmh</cmt></trkpt>
<trkpt lat="58.868447" lon="05.875317"><ele>54</ele><time>2012-03-31T14:13:41Z</time><cmt>0.0 kmh</cmt></trkpt>
<trkpt lat="58.868446" lon="05.875317"><ele>55</ele><time>2012-03-31T14:13:42Z</time><cmt>0.0 kmh</cmt></trkpt>
<trkpt lat="58.868445" lon="05.875319"><ele>55</ele><time>2012-03-31T14:13:43Z</time><cmt>0.2 kmh</cmt></trkpt>
<trkpt lat="58.868445" lon="05.875320"><ele>56</ele><time>2012-03-31T14:13:44Z</time><cmt>0.4 kmh</cmt></trkpt>
<trkpt lat="58.868445" lon="05.875321"><ele>56</ele><time>2012-03-31T14:13:45Z</time><cmt>0.3 kmh</cmt></trkpt>
<trkpt lat="58.868445" lon="05.875322"><ele>56</ele><time>2012-03-31T14:13:46Z</time><cmt>0.0 kmh</cmt></trkpt>
<trkpt lat="58.868445" lon="05.875322"><ele>56</ele><time>2012-03-31T14:13:47Z</time><cmt>0.0 kmh</cmt></trkpt>
<trkpt lat="58.868445" lon="05.875323"><ele>57</ele><time>2012-03-31T14:13:48Z</time><cmt>0.0 kmh</cmt></trkpt>
<trkpt lat="58.868445" lon="05.875324"><ele>57</ele><time>2012-03-31T14:13:49Z</time><cmt>0.0 kmh</cmt></trkpt>
<trkpt lat="58.868443" lon="05.875326"><ele>57</ele><time>2012-03-31T14:13:50Z</time><cmt>0.3 kmh</cmt></trkpt>
<trkpt lat="58.868442" lon="05.875328"><ele>57</ele><time>2012-03-31T14:13:51Z</time><cmt>0.7 kmh</cmt></trkpt>
<trkpt lat="58.868441" lon="05.875331"><ele>58</ele><time>2012-03-31T14:13:52Z</time><cmt>0.9 kmh</cmt></trkpt>
<trkpt lat="58.868439" lon="05.875334"><ele>58</ele><time>2012-03-31T14:13:53Z</time><cmt>0.9 kmh</cmt></trkpt>
<trkpt lat="58.868438" lon="05.875337"><ele>58</ele><time>2012-03-31T14:13:54Z</time><cmt>0.9 kmh</cmt></trkpt>
<trkpt lat="58.868436" lon="05.875340"><ele>59</ele><time>2012-03-31T14:13:55Z</time><cmt>0.7 kmh</cmt></trkpt>
<trkpt lat="58.868435" lon="05.875343"><ele>59</ele><time>2012-03-31T14:13:56Z</time><cmt>0.7 kmh</cmt></trkpt>
<trkpt lat="58.868433" lon="05.875347"><ele>60</ele><time>2012-03-31T14:13:57Z</time><cmt>1.1 kmh</cmt></trkpt>
<trkpt lat="58.868431" lon="05.875348"><ele>60</ele><time>2012-03-31T14:13:58Z</time><cmt>1.0 kmh</cmt></trkpt>
<trkpt lat="58.868432" lon="05.875347"><ele>60</ele><time>2012-03-31T14:13:59Z</time><cmt>0.6 kmh</cmt></trkpt>
<trkpt lat="58.868433" lon="05.875346"><ele>61</ele><time>2012-03-31T14:14:00Z</time><cmt>0.5 kmh</cmt></trkpt>
<trkpt lat="58.868435" lon="05.875343"><ele>61</ele><time>2012-03-31T14:14:01Z</time><cmt>0.6 kmh</cmt></trkpt>
<trkpt lat="58.868438" lon="05.875341"><ele>61</ele><time>2012-03-31T14:14:02Z</time><cmt>0.8 kmh</cmt></trkpt>
<trkpt lat="58.868440" lon="05.875338"><ele>61</ele><time>2012-03-31T14:14:03Z</time><cmt>1.1 kmh</cmt></trkpt>
<trkpt lat="58.868441" lon="05.875336"><ele>61</ele><time>2012-03-31T14:14:04Z</time><cmt>1.0 kmh</cmt></trkpt>
<trkpt lat="58.868442" lon="05.875334"><ele>61</ele><time>2012-03-31T14:14:05Z</time><cmt>0.7 kmh</cmt></trkpt>
<trkpt lat="58.868443" lon="05.875333"><ele>62</ele><time>2012-03-31T14:14:06Z</time><cmt>0.6 kmh</cmt></trkpt>
<trkpt lat="58.868444" lon="05.875332"><ele>62</ele><time>2012-03-31T14:14:07Z</time><cmt>0.3 kmh</cmt></trkpt>
<trkpt lat="58.868445" lon="05.875330"><ele>62</ele><time>2012-03-31T14:14:08Z</time><cmt>0.3 kmh</cmt></trkpt>
<trkpt lat="58.868446" lon="05.875327"><ele>61</ele><time>2012-03-31T14:14:09Z</time><cmt>0.6 kmh</cmt></trkpt>
<trkpt lat="58.868448" lon="05.875326"><ele>61</ele><time>2012-03-31T14:14:10Z</time><cmt>0.7 kmh</cmt></trkpt>
<trkpt lat="58.868449" lon="05.875324"><ele>61</ele><time>2012-03-31T14:14:11Z</time><cmt>0.6 kmh</cmt></trkpt>
<trkpt lat="58.868450" lon="05.875322"><ele>61</ele><time>2012-03-31T14:14:12Z</time><cmt>0.5 kmh</cmt></trkpt>
<trkpt lat="58.868451" lon="05.875321"><ele>61</ele><time>2012-03-31T14:14:13Z</time><cmt>0.4 kmh</cmt></trkpt>
<trkpt lat="58.868452" lon="05.875319"><ele>61</ele><time>2012-03-31T14:14:14Z</time><cmt>0.4 kmh</cmt></trkpt>
<trkpt lat="58.868453" lon="05.875318"><ele>61</ele><time>2012-03-31T14:14:15Z</time><cmt>0.5 kmh</cmt></trkpt>
<trkpt lat="58.868454" lon="05.875317"><ele>61</ele><time>2012-03-31T14:14:16Z</time><cmt>0.6 kmh</cmt></trkpt>
<trkpt lat="58.868455" lon="05.875316"><ele>61</ele><time>2012-03-31T14:14:17Z</time><cmt>0.3 kmh</cmt></trkpt>
<trkpt lat="58.868455" lon="05.875315"><ele>60</ele><time>2012-03-31T14:14:18Z</time><cmt>0.0 kmh</cmt></trkpt>
<trkpt lat="58.868456" lon="05.875314"><ele>60</ele><time>2012-03-31T14:14:19Z</time><cmt>0.3 kmh</cmt></trkpt>
<trkpt lat="58.868457" lon="05.875314"><ele>60</ele><time>2012-03-31T14:14:20Z</time><cmt>0.4 kmh</cmt></trkpt>
<trkpt lat="58.868458" lon="05.875313"><ele>60</ele><time>2012-03-31T14:14:21Z</time><cmt>0.2 kmh</cmt></trkpt>
<trkpt lat="58.868459" lon="05.875313"><ele>60</ele><time>2012-03-31T14:14:22Z</time><cmt>0.0 kmh</cmt></trkpt>
<trkpt lat="58.868460" lon="05.875312"><ele>60</ele><time>2012-03-31T14:14:23Z</time><cmt>0.3 kmh</cmt></trkpt>
<trkpt lat="58.868461" lon="05.875309"><ele>59</ele><time>2012-03-31T14:14:24Z</time><cmt>0.7 kmh</cmt></trkpt>
<trkpt lat="58.868462" lon="05.875308"><ele>59</ele><time>2012-03-31T14:14:25Z</time><cmt>0.7 kmh</cmt></trkpt>
<trkpt lat="58.868463" lon="05.875306"><ele>59</ele><time>2012-03-31T14:14:26Z</time><cmt>0.4 kmh</cmt></trkpt>
<trkpt lat="58.868464" lon="05.875305"><ele>59</ele><time>2012-03-31T14:14:27Z</time><cmt>0.4 kmh</cmt></trkpt>
<trkpt lat="58.868465" lon="05.875303"><ele>59</ele><time>2012-03-31T14:14:28Z</time><cmt>0.5 kmh</cmt></trkpt>
<trkpt lat="58.868466" lon="05.875301"><ele>58</ele><time>2012-03-31T14:14:29Z</time><cmt>0.5 kmh</cmt></trkpt>
<trkpt lat="58.868467" lon="05.875299"><ele>58</ele><time>2012-03-31T14:14:30Z</time><cmt>0.5 kmh</cmt></trkpt>
<trkpt lat="58.868468" lon="05.875297"><ele>58</ele><time>2012-03-31T14:14:31Z</time><cmt>0.5 kmh</cmt></trkpt>
<trkpt lat="58.868469" lon="05.875296"><ele>58</ele><time>2012-03-31T14:14:32Z</time><cmt>0.4 kmh</cmt></trkpt>
<trkpt lat="58.868469" lon="05.875296"><ele>57</ele><time>2012-03-31T14:14:33Z</time><cmt>0.1 kmh</cmt></trkpt>
<trkpt lat="58.868468" lon="05.875296"><ele>57</ele><time>2012-03-31T14:14:34Z</time><cmt>0.2 kmh</cmt></trkpt>
<trkpt lat="58.868466" lon="05.875296"><ele>57</ele><time>2012-03-31T14:14:35Z</time><cmt>0.6 kmh</cmt></trkpt>
<trkpt lat="58.868465" lon="05.875298"><ele>57</ele><time>2012-03-31T14:14:36Z</time><cmt>0.7 kmh</cmt></trkpt>
<trkpt lat="58.868462" lon="05.875301"><ele>57</ele><time>2012-03-31T14:14:37Z</time><cmt>1.1 kmh</cmt></trkpt>
<trkpt lat="58.868459" lon="05.875305"><ele>57</ele><time>2012-03-31T14:14:38Z</time><cmt>1.4 kmh</cmt></trkpt>
<trkpt lat="58.868457" lon="05.875308"><ele>57</ele><time>2012-03-31T14:14:39Z</time><cmt>1.1 kmh</cmt></trkpt>
<trkpt lat="58.868454" lon="05.875311"><ele>57</ele><time>2012-03-31T14:14:40Z</time><cmt>1.0 kmh</cmt></trkpt>
<trkpt lat="58.868452" lon="05.875314"><ele>57</ele><time>2012-03-31T14:14:41Z</time><cmt>1.3 kmh</cmt></trkpt>
<trkpt lat="58.868449" lon="05.875318"><ele>57</ele><time>2012-03-31T14:14:42Z</time><cmt>1.4 kmh</cmt></trkpt>
<trkpt lat="58.868447" lon="05.875321"><ele>58</ele><time>2012-03-31T14:14:43Z</time><cmt>1.3 kmh</cmt></trkpt>
<trkpt lat="58.868445" lon="05.875324"><ele>58</ele><time>2012-03-31T14:14:44Z</time><cmt>1.2 kmh</cmt></trkpt>
<trkpt lat="58.868443" lon="05.875328"><ele>58</ele><time>2012-03-31T14:14:45Z</time><cmt>1.0 kmh</cmt></trkpt>
<trkpt lat="58.868441" lon="05.875331"><ele>59</ele><time>2012-03-31T14:14:46Z</time><cmt>1.0 kmh</cmt></trkpt>
<trkpt lat="58.868438" lon="05.875335"><ele>59</ele><time>2012-03-31T14:14:47Z</time><cmt>1.2 kmh</cmt></trkpt>
<trkpt lat="58.868436" lon="05.875339"><ele>59</ele><time>2012-03-31T14:14:48Z</time><cmt>1.2 kmh</cmt></trkpt>
<trkpt lat="58.868431" lon="05.875351"><ele>60</ele><time>2012-03-31T14:14:49Z</time><cmt>2.3 kmh</cmt></trkpt>
<trkpt lat="58.868428" lon="05.875357"><ele>61</ele><time>2012-03-31T14:14:50Z</time><cmt>2.7 kmh</cmt></trkpt>
<trkpt lat="58.868426" lon="05.875362"><ele>61</ele><time>2012-03-31T14:14:51Z</time><cmt>1.4 kmh</cmt></trkpt>
<trkpt lat="58.868424" lon="05.875366"><ele>62</ele><time>2012-03-31T14:14:52Z</time><cmt>1.1 kmh</cmt></trkpt>
<trkpt lat="58.868424" lon="05.875367"><ele>62</ele><time>2012-03-31T14:14:53Z</time><cmt>1.0 kmh</cmt></trkpt>
<trkpt lat="58.868423" lon="05.875369"><ele>63</ele><time>2012-03-31T14:14:54Z</time><cmt>0.6 kmh</cmt></trkpt>
<trkpt lat="58.868422" lon="05.875371"><ele>63</ele><time>2012-03-31T14:14:55Z</time><cmt>0.7 kmh</cmt></trkpt>
<trkpt lat="58.868421" lon="05.875374"><ele>64</ele><time>2012-03-31T14:14:56Z</time><cmt>0.8 kmh</cmt></trkpt>
<trkpt lat="58.868420" lon="05.875378"><ele>64</ele><time>2012-03-31T14:14:57Z</time><cmt>0.7 kmh</cmt></trkpt>
<trkpt lat="58.868418" lon="05.875381"><ele>65</ele><time>2012-03-31T14:14:58Z</time><cmt>0.8 kmh</cmt></trkpt>
<trkpt lat="58.868417" lon="05.875384"><ele>65</ele><time>2012-03-31T14:14:59Z</time><cmt>1.0 kmh</cmt></trkpt>
<trkpt lat="58.868416" lon="05.875386"><ele>66</ele><time>2012-03-31T14:15:00Z</time><cmt>0.8 kmh</cmt></trkpt>
<trkpt lat="58.868417" lon="05.875386"><ele>66</ele><time>2012-03-31T14:15:01Z</time><cmt>0.3 kmh</cmt></trkpt>
<trkpt lat="58.868417" lon="05.875385"><ele>67</ele><time>2012-03-31T14:15:02Z</time><cmt>0.3 kmh</cmt></trkpt>
<trkpt lat="58.868418" lon="05.875383"><ele>67</ele><time>2012-03-31T14:15:03Z</time><cmt>0.5 kmh</cmt></trkpt>
<trkpt lat="58.868419" lon="05.875381"><ele>67</ele><time>2012-03-31T14:15:04Z</time><cmt>0.5 kmh</cmt></trkpt>
<trkpt lat="58.868421" lon="05.875379"><ele>67</ele><time>2012-03-31T14:15:05Z</time><cmt>0.6 kmh</cmt></trkpt>
<trkpt lat="58.868422" lon="05.875377"><ele>68</ele><time>2012-03-31T14:15:06Z</time><cmt>0.7 kmh</cmt></trkpt>
<trkpt lat="58.868423" lon="05.875375"><ele>68</ele><time>2012-03-31T14:15:07Z</time><cmt>0.7 kmh</cmt></trkpt>
<trkpt lat="58.868423" lon="05.875373"><ele>68</ele><time>2012-03-31T14:15:08Z</time><cmt>0.6 kmh</cmt></trkpt>
<trkpt lat="58.868424" lon="05.875371"><ele>68</ele><time>2012-03-31T14:15:09Z</time><cmt>0.4 kmh</cmt></trkpt>
<trkpt lat="58.868425" lon="05.875369"><ele>68</ele><time>2012-03-31T14:15:10Z</time><cmt>0.5 kmh</cmt></trkpt>
<trkpt lat="58.868426" lon="05.875366"><ele>68</ele><time>2012-03-31T14:15:11Z</time><cmt>0.7 kmh</cmt></trkpt>
<trkpt lat="58.868428" lon="05.875363"><ele>68</ele><time>2012-03-31T14:15:12Z</time><cmt>1.0 kmh</cmt></trkpt>
<trkpt lat="58.868430" lon="05.875358"><ele>68</ele><time>2012-03-31T14:15:13Z</time><cmt>1.2 kmh</cmt></trkpt>
<trkpt lat="58.868431" lon="05.875355"><ele>68</ele><time>2012-03-31T14:15:14Z</time><cmt>1.1 kmh</cmt></trkpt>
<trkpt lat="58.868433" lon="05.875352"><ele>68</ele><time>2012-03-31T14:15:15Z</time><cmt>0.9 kmh</cmt></trkpt>
<trkpt lat="58.868435" lon="05.875349"><ele>68</ele><time>2012-03-31T14:15:16Z</time><cmt>0.8 kmh</cmt></trkpt>
<trkpt lat="58.868436" lon="05.875347"><ele>67</ele><time>2012-03-31T14:15:17Z</time><cmt>0.8 kmh</cmt></trkpt>
<trkpt lat="58.868437" lon="05.875346"><ele>67</ele><time>2012-03-31T14:15:18Z</time><cmt>0.6 kmh</cmt></trkpt>
<trkpt lat="58.868437" lon="05.875346"><ele>67</ele><time>2012-03-31T14:15:19Z</time><cmt>0.2 kmh</cmt></trkpt>
<trkpt lat="58.868437" lon="05.875348"><ele>67</ele><time>2012-03-31T14:15:20Z</time><cmt>0.2 kmh</cmt></trkpt>
<trkpt lat="58.868436" lon="05.875350"><ele>67</ele><time>2012-03-31T14:15:21Z</time><cmt>0.4 kmh</cmt></trkpt>
<trkpt lat="58.868436" lon="05.875351"><ele>66</ele><time>2012-03-31T14:15:22Z</time><cmt>0.4 kmh</cmt></trkpt>
<trkpt lat="58.868435" lon="05.875353"><ele>66</ele><time>2012-03-31T14:15:23Z</time><cmt>0.4 kmh</cmt></trkpt>
<trkpt lat="58.868433" lon="05.875356"><ele>66</ele><time>2012-03-31T14:15:24Z</time><cmt>0.8 kmh</cmt></trkpt>
<trkpt lat="58.868430" lon="05.875360"><ele>66</ele><time>2012-03-31T14:15:25Z</time><cmt>1.2 kmh</cmt></trkpt>
<trkpt lat="58.868428" lon="05.875363"><ele>66</ele><time>2012-03-31T14:15:26Z</time><cmt>1.2 kmh</cmt></trkpt>
<trkpt lat="58.868427" lon="05.875364"><ele>67</ele><time>2012-03-31T14:15:27Z</time><cmt>0.8 kmh</cmt></trkpt>
<trkpt lat="58.868426" lon="05.875365"><ele>67</ele><time>2012-03-31T14:15:28Z</time><cmt>0.4 kmh</cmt></trkpt>
<trkpt lat="58.868425" lon="05.875366"><ele>67</ele><time>2012-03-31T14:15:29Z</time><cmt>0.5 kmh</cmt></trkpt>
<trkpt lat="58.868423" lon="05.875368"><ele>67</ele><time>2012-03-31T14:15:30Z</time><cmt>0.6 kmh</cmt></trkpt>
<trkpt lat="58.868422" lon="05.875369"><ele>67</ele><time>2012-03-31T14:15:31Z</time><cmt>0.6 kmh</cmt></trkpt>
<trkpt lat="58.868421" lon="05.875370"><ele>67</ele><time>2012-03-31T14:15:32Z</time><cmt>0.4 kmh</cmt></trkpt>
<trkpt lat="58.868420" lon="05.875371"><ele>68</ele><time>2012-03-31T14:15:33Z</time><cmt>0.4 kmh</cmt></trkpt>
<trkpt lat="58.868419" lon="05.875372"><ele>68</ele><time>2012-03-31T14:15:34Z</time><cmt>0.1 kmh</cmt></trkpt>
<trkpt lat="58.868419" lon="05.875372"><ele>68</ele><time>2012-03-31T14:15:35Z</time><cmt>0.0 kmh</cmt></trkpt>
<trkpt lat="58.868419" lon="05.875372"><ele>68</ele><time>2012-03-31T14:15:36Z</time><cmt>0.0 kmh</cmt></trkpt>
<trkpt lat="58.868420" lon="05.875372"><ele>68</ele><time>2012-03-31T14:15:37Z</time><cmt>0.0 kmh</cmt></trkpt>
<trkpt lat="58.868421" lon="05.875371"><ele>68</ele><time>2012-03-31T14:15:38Z</time><cmt>0.3 kmh</cmt></trkpt>
<trkpt lat="58.868422" lon="05.875371"><ele>69</ele><time>2012-03-31T14:15:39Z</time><cmt>0.3 kmh</cmt></trkpt>
<trkpt lat="58.868423" lon="05.875370"><ele>69</ele><time>2012-03-31T14:15:40Z</time><cmt>0.1 kmh</cmt></trkpt>
<trkpt lat="58.868423" lon="05.875371"><ele>69</ele><time>2012-03-31T14:15:41Z</time><cmt>0.1 kmh</cmt></trkpt>
<trkpt lat="58.868422" lon="05.875372"><ele>69</ele><time>2012-03-31T14:15:42Z</time><cmt>0.2 kmh</cmt></trkpt>
<trkpt lat="58.868422" lon="05.875374"><ele>69</ele><time>2012-03-31T14:15:43Z</time><cmt>0.2 kmh</cmt></trkpt>
<trkpt lat="58.868422" lon="05.875374"><ele>69</ele><time>2012-03-31T14:15:44Z</time><cmt>0.0 kmh</cmt></trkpt>
<trkpt lat="58.868422" lon="05.875374"><ele>69</ele><time>2012-03-31T14:15:45Z</time><cmt>0.0 kmh</cmt></trkpt>
<trkpt lat="58.868422" lon="05.875373"><ele>69</ele><time>2012-03-31T14:15:46Z</time><cmt>0.0 kmh</cmt></trkpt>
<trkpt lat="58.868423" lon="05.875373"><ele>69</ele><time>2012-03-31T14:15:47Z</time><cmt>0.0 kmh</cmt></trkpt>
<trkpt lat="58.868423" lon="05.875373"><ele>69</ele><time>2012-03-31T14:15:48Z</time><cmt>0.1 kmh</cmt></trkpt>
<trkpt lat="58.868422" lon="05.875375"><ele>69</ele><time>2012-03-31T14:15:49Z</time><cmt>0.4 kmh</cmt></trkpt>
<trkpt lat="58.868422" lon="05.875377"><ele>69</ele><time>2012-03-31T14:15:50Z</time><cmt>0.3 kmh</cmt></trkpt>
<trkpt lat="58.868422" lon="05.875378"><ele>69</ele><time>2012-03-31T14:15:51Z</time><cmt>0.0 kmh</cmt></trkpt>
<trkpt lat="58.868422" lon="05.875379"><ele>69</ele><time>2012-03-31T14:15:52Z</time><cmt>0.0 kmh</cmt></trkpt>
<trkpt lat="58.868422" lon="05.875381"><ele>69</ele><time>2012-03-31T14:15:53Z</time><cmt>0.1 kmh</cmt></trkpt>
<trkpt lat="58.868422" lon="05.875382"><ele>69</ele><time>2012-03-31T14:15:54Z</time><cmt>0.1 kmh</cmt></trkpt>
<trkpt lat="58.868422" lon="05.875383"><ele>69</ele><time>2012-03-31T14:15:55Z</time><cmt>0.0 kmh</cmt></trkpt>
<trkpt lat="58.868421" lon="05.875384"><ele>69</ele><time>2012-03-31T14:15:56Z</time><cmt>0.0 kmh</cmt></trkpt>
<trkpt lat="58.868421" lon="05.875384"><ele>69</ele><time>2012-03-31T14:15:57Z</time><cmt>0.0 kmh</cmt></trkpt>
<trkpt lat="58.868419" lon="05.875387"><ele>69</ele><time>2012-03-31T14:15:58Z</time><cmt>0.5 kmh</cmt></trkpt>
<trkpt lat="58.868418" lon="05.875390"><ele>69</ele><time>2012-03-31T14:15:59Z</time><cmt>0.7 kmh</cmt></trkpt>
<trkpt lat="58.868418" lon="05.875391"><ele>70</ele><time>2012-03-31T14:16:00Z</time><cmt>0.5 kmh</cmt></trkpt>
<trkpt lat="58.868417" lon="05.875392"><ele>70</ele><time>2012-03-31T14:16:01Z</time><cmt>0.5 kmh</cmt></trkpt>
<trkpt lat="58.868416" lon="05.875394"><ele>70</ele><time>2012-03-31T14:16:02Z</time><cmt>0.6 kmh</cmt></trkpt>
<trkpt lat="58.868415" lon="05.875395"><ele>70</ele><time>2012-03-31T14:16:03Z</time><cmt>0.6 kmh</cmt></trkpt>
<trkpt lat="58.868414" lon="05.875396"><ele>70</ele><time>2012-03-31T14:16:04Z</time><cmt>0.5 kmh</cmt></trkpt>
<trkpt lat="58.868412" lon="05.875398"><ele>70</ele><time>2012-03-31T14:16:05Z</time><cmt>0.4 kmh</cmt></trkpt>
<trkpt lat="58.868411" lon="05.875400"><ele>70</ele><time>2012-03-31T14:16:06Z</time><cmt>0.4 kmh</cmt></trkpt>
<trkpt lat="58.868411" lon="05.875401"><ele>71</ele><time>2012-03-31T14:16:07Z</time><cmt>0.5 kmh</cmt></trkpt>
<trkpt lat="58.868410" lon="05.875402"><ele>71</ele><time>2012-03-31T14:16:08Z</time><cmt>0.4 kmh</cmt></trkpt>
<trkpt lat="58.868410" lon="05.875403"><ele>71</ele><time>2012-03-31T14:16:09Z</time><cmt>0.2 kmh</cmt></trkpt>
<trkpt lat="58.868410" lon="05.875403"><ele>71</ele><time>2012-03-31T14:16:10Z</time><cmt>0.0 kmh</cmt></trkpt>
<trkpt lat="58.868410" lon="05.875404"><ele>71</ele><time>2012-03-31T14:16:11Z</time><cmt>0.0 kmh</cmt></trkpt>
<trkpt lat="58.868410" lon="05.875404"><ele>71</ele><time>2012-03-31T14:16:12Z</time><cmt>0.0 kmh</cmt></trkpt>
<trkpt lat="58.868411" lon="05.875403"><ele>71</ele><time>2012-03-31T14:16:13Z</time><cmt>0.2 kmh</cmt></trkpt>
<trkpt lat="58.868412" lon="05.875401"><ele>71</ele><time>2012-03-31T14:16:14Z</time><cmt>0.6 kmh</cmt></trkpt>
<trkpt lat="58.868413" lon="05.875400"><ele>71</ele><time>2012-03-31T14:16:15Z</time><cmt>0.7 kmh</cmt></trkpt>
<trkpt lat="58.868415" lon="05.875398"><ele>71</ele><time>2012-03-31T14:16:16Z</time><cmt>0.8 kmh</cmt></trkpt>
<trkpt lat="58.868416" lon="05.875398"><ele>71</ele><time>2012-03-31T14:16:17Z</time><cmt>0.5 kmh</cmt></trkpt>
<trkpt lat="58.868416" lon="05.875399"><ele>71</ele><time>2012-03-31T14:16:18Z</time><cmt>0.0 kmh</cmt></trkpt>
<trkpt lat="58.868416" lon="05.875399"><ele>71</ele><time>2012-03-31T14:16:19Z</time><cmt>0.0 kmh</cmt></trkpt>
<trkpt lat="58.868416" lon="05.875400"><ele>71</ele><time>2012-03-31T14:16:20Z</time><cmt>0.0 kmh</cmt></trkpt>
<trkpt lat="58.868417" lon="05.875400"><ele>71</ele><time>2012-03-31T14:16:21Z</time><cmt>0.0 kmh</cmt></trkpt>
<trkpt lat="58.868417" lon="05.875400"><ele>71</ele><time>2012-03-31T14:16:22Z</time><cmt>0.0 kmh</cmt></trkpt>
<trkpt lat="58.868418" lon="05.875401"><ele>71</ele><time>2012-03-31T14:16:23Z</time><cmt>0.2 kmh</cmt></trkpt>
<trkpt lat="58.868418" lon="05.875402"><ele>71</ele><time>2012-03-31T14:16:24Z</time><cmt>0.3 kmh</cmt></trkpt>
<trkpt lat="58.868418" lon="05.875404"><ele>71</ele><time>2012-03-31T14:16:25Z</time><cmt>0.3 kmh</cmt></trkpt>
<trkpt lat="58.868418" lon="05.875404"><ele>71</ele><time>2012-03-31T14:16:26Z</time><cmt>0.4 kmh</cmt></trkpt>
<trkpt lat="58.868418" lon="05.875405"><ele>70</ele><time>2012-03-31T14:16:27Z</time><cmt>0.2 kmh</cmt></trkpt>
<trkpt lat="58.868419" lon="05.875405"><ele>70</ele><time>2012-03-31T14:16:28Z</time><cmt>0.0 kmh</cmt></trkpt>
<trkpt lat="58.868419" lon="05.875406"><ele>70</ele><time>2012-03-31T14:16:29Z</time><cmt>0.3 kmh</cmt></trkpt>
<trkpt lat="58.868419" lon="05.875406"><ele>70</ele><time>2012-03-31T14:16:30Z</time><cmt>0.4 kmh</cmt></trkpt>
<trkpt lat="58.868419" lon="05.875406"><ele>70</ele><time>2012-03-31T14:16:31Z</time><cmt>0.1 kmh</cmt></trkpt>
<trkpt lat="58.868419" lon="05.875407"><ele>70</ele><time>2012-03-31T14:16:32Z</time><cmt>0.0 kmh</cmt></trkpt>
<trkpt lat="58.868419" lon="05.875407"><ele>70</ele><time>2012-03-31T14:16:33Z</time><cmt>0.0 kmh</cmt></trkpt>
<trkpt lat="58.868420" lon="05.875407"><ele>70</ele><time>2012-03-31T14:16:34Z</time><cmt>0.0 kmh</cmt></trkpt>
<trkpt lat="58.868420" lon="05.875406"><ele>70</ele><time>2012-03-31T14:16:35Z</time><cmt>0.0 kmh</cmt></trkpt>
<trkpt lat="58.868422" lon="05.875403"><ele>70</ele><time>2012-03-31T14:16:36Z</time><cmt>0.3 kmh</cmt></trkpt>
<trkpt lat="58.868424" lon="05.875400"><ele>70</ele><time>2012-03-31T14:16:37Z</time><cmt>0.7 kmh</cmt></trkpt>
<trkpt lat="58.868425" lon="05.875397"><ele>69</ele><time>2012-03-31T14:16:38Z</time><cmt>1.1 kmh</cmt></trkpt>
<trkpt lat="58.868427" lon="05.875395"><ele>69</ele><time>2012-03-31T14:16:39Z</time><cmt>1.0 kmh</cmt></trkpt>
<trkpt lat="58.868428" lon="05.875392"><ele>69</ele><time>2012-03-31T14:16:40Z</time><cmt>0.9 kmh</cmt></trkpt>
<trkpt lat="58.868430" lon="05.875389"><ele>69</ele><time>2012-03-31T14:16:41Z</time><cmt>0.8 kmh</cmt></trkpt>
<trkpt lat="58.868432" lon="05.875386"><ele>68</ele><time>2012-03-31T14:16:42Z</time><cmt>0.9 kmh</cmt></trkpt>
<trkpt lat="58.868433" lon="05.875383"><ele>68</ele><time>2012-03-31T14:16:43Z</time><cmt>0.8 kmh</cmt></trkpt>
<trkpt lat="58.868435" lon="05.875380"><ele>68</ele><time>2012-03-31T14:16:44Z</time><cmt>0.8 kmh</cmt></trkpt>
<trkpt lat="58.868437" lon="05.875377"><ele>67</ele><time>2012-03-31T14:16:45Z</time><cmt>1.0 kmh</cmt></trkpt>
<trkpt lat="58.868439" lon="05.875374"><ele>67</ele><time>2012-03-31T14:16:46Z</time><cmt>1.0 kmh</cmt></trkpt>
<trkpt lat="58.868440" lon="05.875371"><ele>67</ele><time>2012-03-31T14:16:47Z</time><cmt>1.0 kmh</cmt></trkpt>
<trkpt lat="58.868442" lon="05.875367"><ele>66</ele><time>2012-03-31T14:16:48Z</time><cmt>1.0 kmh</cmt></trkpt>
<trkpt lat="58.868444" lon="05.875364"><ele>66</ele><time>2012-03-31T14:16:49Z</time><cmt>0.9 kmh</cmt></trkpt>
<trkpt lat="58.868446" lon="05.875360"><ele>66</ele><time>2012-03-31T14:16:50Z</time><cmt>0.9 kmh</cmt></trkpt>
<trkpt lat="58.868448" lon="05.875357"><ele>65</ele><time>2012-03-31T14:16:51Z</time><cmt>1.1 kmh</cmt></trkpt>
<trkpt lat="58.868450" lon="05.875353"><ele>65</ele><time>2012-03-31T14:16:52Z</time><cmt>1.2 kmh</cmt></trkpt>
<trkpt lat="58.868452" lon="05.875350"><ele>64</ele><time>2012-03-31T14:16:53Z</time><cmt>1.2 kmh</cmt></trkpt>
<trkpt lat="58.868454" lon="05.875346"><ele>64</ele><time>2012-03-31T14:16:54Z</time><cmt>1.2 kmh</cmt></trkpt>
<trkpt lat="58.868456" lon="05.875342"><ele>64</ele><time>2012-03-31T14:16:55Z</time><cmt>0.9 kmh</cmt></trkpt>
<trkpt lat="58.868457" lon="05.875339"><ele>63</ele><time>2012-03-31T14:16:56Z</time><cmt>0.9 kmh</cmt></trkpt>
<trkpt lat="58.868459" lon="05.875335"><ele>63</ele><time>2012-03-31T14:16:57Z</time><cmt>1.2 kmh</cmt></trkpt>
<trkpt lat="58.868458" lon="05.875335"><ele>62</ele><time>2012-03-31T14:16:58Z</time><cmt>0.8 kmh</cmt></trkpt>
<trkpt lat="58.868455" lon="05.875338"><ele>62</ele><time>2012-03-31T14:16:59Z</time><cmt>1.1 kmh</cmt></trkpt>
<trkpt lat="58.868450" lon="05.875342"><ele>62</ele><time>2012-03-31T14:17:00Z</time><cmt>1.9 kmh</cmt></trkpt>
<trkpt lat="58.868449" lon="05.875344"><ele>62</ele><time>2012-03-31T14:17:01Z</time><cmt>1.2 kmh</cmt></trkpt>
<trkpt lat="58.868449" lon="05.875345"><ele>61</ele><time>2012-03-31T14:17:02Z</time><cmt>0.3 kmh</cmt></trkpt>
<trkpt lat="58.868449" lon="05.875346"><ele>61</ele><time>2012-03-31T14:17:03Z</time><cmt>0.0 kmh</cmt></trkpt>
<trkpt lat="58.868449" lon="05.875346"><ele>61</ele><time>2012-03-31T14:17:04Z</time><cmt>0.0 kmh</cmt></trkpt>
<trkpt lat="58.868449" lon="05.875347"><ele>61</ele><time>2012-03-31T14:17:05Z</time><cmt>0.0 kmh</cmt></trkpt>
<trkpt lat="58.868450" lon="05.875346"><ele>60</ele><time>2012-03-31T14:17:06Z</time><cmt>0.3 kmh</cmt></trkpt>
<trkpt lat="58.868451" lon="05.875347"><ele>60</ele><time>2012-03-31T14:17:07Z</time><cmt>0.4 kmh</cmt></trkpt>
<trkpt lat="58.868450" lon="05.875348"><ele>60</ele><time>2012-03-31T14:17:08Z</time><cmt>0.1 kmh</cmt></trkpt>
<trkpt lat="58.868450" lon="05.875350"><ele>60</ele><time>2012-03-31T14:17:09Z</time><cmt>0.3 kmh</cmt></trkpt>
<trkpt lat="58.868450" lon="05.875351"><ele>60</ele><time>2012-03-31T14:17:10Z</time><cmt>0.3 kmh</cmt></trkpt>
<trkpt lat="58.868450" lon="05.875352"><ele>60</ele><time>2012-03-31T14:17:11Z</time><cmt>0.0 kmh</cmt></trkpt>
<trkpt lat="58.868449" lon="05.875353"><ele>59</ele><time>2012-03-31T14:17:12Z</time><cmt>0.2 kmh</cmt></trkpt>
<trkpt lat="58.868449" lon="05.875355"><ele>59</ele><time>2012-03-31T14:17:13Z</time><cmt>0.1 kmh</cmt></trkpt>
<trkpt lat="58.868449" lon="05.875356"><ele>59</ele><time>2012-03-31T14:17:14Z</time><cmt>0.0 kmh</cmt></trkpt>
<trkpt lat="58.868448" lon="05.875357"><ele>59</ele><time>2012-03-31T14:17:15Z</time><cmt>0.2 kmh</cmt></trkpt>
<trkpt lat="58.868448" lon="05.875358"><ele>59</ele><time>2012-03-31T14:17:16Z</time><cmt>0.4 kmh</cmt></trkpt>
<trkpt lat="58.868448" lon="05.875359"><ele>59</ele><time>2012-03-31T14:17:17Z</time><cmt>0.3 kmh</cmt></trkpt>
<trkpt lat="58.868447" lon="05.875359"><ele>59</ele><time>2012-03-31T14:17:18Z</time><cmt>0.2 kmh</cmt></trkpt>
<trkpt lat="58.868447" lon="05.875359"><ele>59</ele><time>2012-03-31T14:17:19Z</time><cmt>0.2 kmh</cmt></trkpt>
<trkpt lat="58.868447" lon="05.875360"><ele>59</ele><time>2012-03-31T14:17:20Z</time><cmt>0.0 kmh</cmt></trkpt>
<trkpt lat="58.868448" lon="05.875358"><ele>59</ele><time>2012-03-31T14:17:21Z</time><cmt>0.2 kmh</cmt></trkpt>
<trkpt lat="58.868448" lon="05.875358"><ele>58</ele><time>2012-03-31T14:17:22Z</time><cmt>0.3 kmh</cmt></trkpt>
<trkpt lat="58.868447" lon="05.875358"><ele>58</ele><time>2012-03-31T14:17:23Z</time><cmt>0.0 kmh</cmt></trkpt>
<trkpt lat="58.868447" lon="05.875358"><ele>58</ele><time>2012-03-31T14:17:24Z</time><cmt>0.0 kmh</cmt></trkpt>
<trkpt lat="58.868447" lon="05.875358"><ele>58</ele><time>2012-03-31T14:17:25Z</time><cmt>0.0 kmh</cmt></trkpt>
<trkpt lat="58.868446" lon="05.875358"><ele>58</ele><time>2012-03-31T14:17:26Z</time><cmt>0.0 kmh</cmt></trkpt>
<trkpt lat="58.868445" lon="05.875359"><ele>58</ele><time>2012-03-31T14:17:27Z</time><cmt>0.2 kmh</cmt></trkpt>
<trkpt lat="58.868444" lon="05.875361"><ele>58</ele><time>2012-03-31T14:17:28Z</time><cmt>0.5 kmh</cmt></trkpt>
<trkpt lat="58.868443" lon="05.875361"><ele>58</ele><time>2012-03-31T14:17:29Z</time><cmt>0.3 kmh</cmt></trkpt>
<trkpt lat="58.868443" lon="05.875360"><ele>58</ele><time>2012-03-31T14:17:30Z</time><cmt>0.2 kmh</cmt></trkpt>
<trkpt lat="58.868443" lon="05.875358"><ele>58</ele><time>2012-03-31T14:17:31Z</time><cmt>0.4 kmh</cmt></trkpt>
<trkpt lat="58.868447" lon="05.875343"><ele>58</ele><time>2012-03-31T14:17:32Z</time><cmt>1.7 kmh</cmt></trkpt>
<trkpt lat="58.868451" lon="05.875329"><ele>58</ele><time>2012-03-31T14:17:33Z</time><cmt>3.0 kmh</cmt></trkpt>
<trkpt lat="58.868455" lon="05.875316"><ele>57</ele><time>2012-03-31T14:17:34Z</time><cmt>3.5 kmh</cmt></trkpt>
<trkpt lat="58.868458" lon="05.875304"><ele>57</ele><time>2012-03-31T14:17:35Z</time><cmt>3.1 kmh</cmt></trkpt>
<trkpt lat="58.868461" lon="05.875294"><ele>56</ele><time>2012-03-31T14:17:36Z</time><cmt>2.8 kmh</cmt></trkpt>
<trkpt lat="58.868463" lon="05.875288"><ele>56</ele><time>2012-03-31T14:17:37Z</time><cmt>2.1 kmh</cmt></trkpt>
<trkpt lat="58.868464" lon="05.875282"><ele>55</ele><time>2012-03-31T14:17:38Z</time><cmt>1.2 kmh</cmt></trkpt>
<trkpt lat="58.868466" lon="05.875277"><ele>55</ele><time>2012-03-31T14:17:39Z</time><cmt>1.1 kmh</cmt></trkpt>
<trkpt lat="58.868467" lon="05.875272"><ele>54</ele><time>2012-03-31T14:17:40Z</time><cmt>1.2 kmh</cmt></trkpt>
<trkpt lat="58.868468" lon="05.875267"><ele>53</ele><time>2012-03-31T14:17:41Z</time><cmt>1.1 kmh</cmt></trkpt>
<trkpt lat="58.868468" lon="05.875263"><ele>53</ele><time>2012-03-31T14:17:42Z</time><cmt>1.0 kmh</cmt></trkpt>
<trkpt lat="58.868468" lon="05.875259"><ele>52</ele><time>2012-03-31T14:17:43Z</time><cmt>0.9 kmh</cmt></trkpt>
<trkpt lat="58.868468" lon="05.875254"><ele>52</ele><time>2012-03-31T14:17:44Z</time><cmt>0.8 kmh</cmt></trkpt>
<trkpt lat="58.868468" lon="05.875249"><ele>51</ele><time>2012-03-31T14:17:45Z</time><cmt>0.9 kmh</cmt></trkpt>
<trkpt lat="58.868468" lon="05.875244"><ele>51</ele><time>2012-03-31T14:17:46Z</time><cmt>1.2 kmh</cmt></trkpt>
<trkpt lat="58.868470" lon="05.875240"><ele>50</ele><time>2012-03-31T14:17:47Z</time><cmt>1.2 kmh</cmt></trkpt>
<trkpt lat="58.868472" lon="05.875235"><ele>50</ele><time>2012-03-31T14:17:48Z</time><cmt>1.2 kmh</cmt></trkpt>
<trkpt lat="58.868473" lon="05.875232"><ele>49</ele><time>2012-03-31T14:17:49Z</time><cmt>1.2 kmh</cmt></trkpt>
<trkpt lat="58.868475" lon="05.875227"><ele>49</ele><time>2012-03-31T14:17:50Z</time><cmt>1.2 kmh</cmt></trkpt>
<trkpt lat="58.868475" lon="05.875224"><ele>48</ele><time>2012-03-31T14:17:51Z</time><cmt>0.8 kmh</cmt></trkpt>
<trkpt lat="58.868475" lon="05.875220"><ele>48</ele><time>2012-03-31T14:17:52Z</time><cmt>0.7 kmh</cmt></trkpt>
<trkpt lat="58.868475" lon="05.875217"><ele>47</ele><time>2012-03-31T14:17:53Z</time><cmt>0.7 kmh</cmt></trkpt>
<trkpt lat="58.868475" lon="05.875214"><ele>47</ele><time>2012-03-31T14:17:54Z</time><cmt>0.7 kmh</cmt></trkpt>
<trkpt lat="58.868474" lon="05.875210"><ele>47</ele><time>2012-03-31T14:17:55Z</time><cmt>0.7 kmh</cmt></trkpt>
<trkpt lat="58.868472" lon="05.875207"><ele>46</ele><time>2012-03-31T14:17:56Z</time><cmt>0.7 kmh</cmt></trkpt>
<trkpt lat="58.868471" lon="05.875204"><ele>46</ele><time>2012-03-31T14:17:57Z</time><cmt>0.6 kmh</cmt></trkpt>
<trkpt lat="58.868470" lon="05.875201"><ele>46</ele><time>2012-03-31T14:17:58Z</time><cmt>0.7 kmh</cmt></trkpt>
<trkpt lat="58.868470" lon="05.875198"><ele>46</ele><time>2012-03-31T14:17:59Z</time><cmt>0.7 kmh</cmt></trkpt>
<trkpt lat="58.868470" lon="05.875195"><ele>45</ele><time>2012-03-31T14:18:00Z</time><cmt>0.7 kmh</cmt></trkpt>
<trkpt lat="58.868470" lon="05.875192"><ele>45</ele><time>2012-03-31T14:18:01Z</time><cmt>0.6 kmh</cmt></trkpt>
<trkpt lat="58.868471" lon="05.875190"><ele>45</ele><time>2012-03-31T14:18:02Z</time><cmt>0.5 kmh</cmt></trkpt>
<trkpt lat="58.868472" lon="05.875187"><ele>45</ele><time>2012-03-31T14:18:03Z</time><cmt>0.5 kmh</cmt></trkpt>
<trkpt lat="58.868472" lon="05.875185"><ele>45</ele><time>2012-03-31T14:18:04Z</time><cmt>0.5 kmh</cmt></trkpt>
<trkpt lat="58.868473" lon="05.875183"><ele>45</ele><time>2012-03-31T14:18:05Z</time><cmt>0.6 kmh</cmt></trkpt>
<trkpt lat="58.868473" lon="05.875181"><ele>44</ele><time>2012-03-31T14:18:06Z</time><cmt>0.6 kmh</cmt></trkpt>
<trkpt lat="58.868474" lon="05.875179"><ele>44</ele><time>2012-03-31T14:18:07Z</time><cmt>0.6 kmh</cmt></trkpt>
<trkpt lat="58.868474" lon="05.875176"><ele>44</ele><time>2012-03-31T14:18:08Z</time><cmt>0.6 kmh</cmt></trkpt>
<trkpt lat="58.868475" lon="05.875175"><ele>44</ele><time>2012-03-31T14:18:09Z</time><cmt>0.4 kmh</cmt></trkpt>
<trkpt lat="58.868475" lon="05.875173"><ele>44</ele><time>2012-03-31T14:18:10Z</time><cmt>0.4 kmh</cmt></trkpt>
<trkpt lat="58.868475" lon="05.875171"><ele>43</ele><time>2012-03-31T14:18:11Z</time><cmt>0.2 kmh</cmt></trkpt>
<trkpt lat="58.868475" lon="05.875170"><ele>43</ele><time>2012-03-31T14:18:12Z</time><cmt>0.0 kmh</cmt></trkpt>
<trkpt lat="58.868474" lon="05.875168"><ele>43</ele><time>2012-03-31T14:18:13Z</time><cmt>0.0 kmh</cmt></trkpt>
<trkpt lat="58.868474" lon="05.875167"><ele>43</ele><time>2012-03-31T14:18:14Z</time><cmt>0.2 kmh</cmt></trkpt>
<trkpt lat="58.868475" lon="05.875166"><ele>43</ele><time>2012-03-31T14:18:15Z</time><cmt>0.1 kmh</cmt></trkpt>
<trkpt lat="58.868475" lon="05.875165"><ele>43</ele><time>2012-03-31T14:18:16Z</time><cmt>0.0 kmh</cmt></trkpt>
<trkpt lat="58.868476" lon="05.875164"><ele>43</ele><time>2012-03-31T14:18:17Z</time><cmt>0.0 kmh</cmt></trkpt>
<trkpt lat="58.868476" lon="05.875163"><ele>42</ele><time>2012-03-31T14:18:18Z</time><cmt>0.0 kmh</cmt></trkpt>
<trkpt lat="58.868476" lon="05.875163"><ele>42</ele><time>2012-03-31T14:18:19Z</time><cmt>0.0 kmh</cmt></trkpt>
<trkpt lat="58.868476" lon="05.875162"><ele>42</ele><time>2012-03-31T14:18:20Z</time><cmt>0.0 kmh</cmt></trkpt>
<trkpt lat="58.868476" lon="05.875162"><ele>42</ele><time>2012-03-31T14:18:21Z</time><cmt>0.2 kmh</cmt></trkpt>
<trkpt lat="58.868476" lon="05.875161"><ele>42</ele><time>2012-03-31T14:18:22Z</time><cmt>0.1 kmh</cmt></trkpt>
<trkpt lat="58.868477" lon="05.875161"><ele>42</ele><time>2012-03-31T14:18:23Z</time><cmt>0.0 kmh</cmt></trkpt>
<trkpt lat="58.868477" lon="05.875161"><ele>42</ele><time>2012-03-31T14:18:24Z</time><cmt>0.0 kmh</cmt></trkpt>
<trkpt lat="58.868477" lon="05.875160"><ele>42</ele><time>2012-03-31T14:18:25Z</time><cmt>0.0 kmh</cmt></trkpt>
<trkpt lat="58.868478" lon="05.875160"><ele>41</ele><time>2012-03-31T14:18:26Z</time><cmt>0.0 kmh</cmt></trkpt>
<trkpt lat="58.868478" lon="05.875160"><ele>41</ele><time>2012-03-31T14:18:27Z</time><cmt>0.0 kmh</cmt></trkpt>
<trkpt lat="58.868478" lon="05.875160"><ele>41</ele><time>2012-03-31T14:18:28Z</time><cmt>0.0 kmh</cmt></trkpt>
<trkpt lat="58.868478" lon="05.875159"><ele>41</ele><time>2012-03-31T14:18:29Z</time><cmt>0.0 kmh</cmt></trkpt>
<trkpt lat="58.868478" lon="05.875159"><ele>41</ele><time>2012-03-31T14:18:30Z</time><cmt>0.0 kmh</cmt></trkpt>
<trkpt lat="58.868479" lon="05.875158"><ele>41</ele><time>2012-03-31T14:18:31Z</time><cmt>0.0 kmh</cmt></trkpt>
<trkpt lat="58.868479" lon="05.875158"><ele>41</ele><time>2012-03-31T14:18:32Z</time><cmt>0.3 kmh</cmt></trkpt>
<trkpt lat="58.868480" lon="05.875157"><ele>40</ele><time>2012-03-31T14:18:33Z</time><cmt>0.4 kmh</cmt></trkpt>
<trkpt lat="58.868481" lon="05.875156"><ele>40</ele><time>2012-03-31T14:18:34Z</time><cmt>0.3 kmh</cmt></trkpt>
<trkpt lat="58.868481" lon="05.875155"><ele>40</ele><time>2012-03-31T14:18:35Z</time><cmt>0.3 kmh</cmt></trkpt>
<trkpt lat="58.868482" lon="05.875155"><ele>40</ele><time>2012-03-31T14:18:36Z</time><cmt>0.2 kmh</cmt></trkpt>
<trkpt lat="58.868482" lon="05.875154"><ele>40</ele><time>2012-03-31T14:18:37Z</time><cmt>0.0 kmh</cmt></trkpt>
<trkpt lat="58.868483" lon="05.875153"><ele>40</ele><time>2012-03-31T14:18:38Z</time><cmt>0.0 kmh</cmt></trkpt>
<trkpt lat="58.868484" lon="05.875153"><ele>40</ele><time>2012-03-31T14:18:39Z</time><cmt>0.2 kmh</cmt></trkpt>
<trkpt lat="58.868484" lon="05.875152"><ele>39</ele><time>2012-03-31T14:18:40Z</time><cmt>0.4 kmh</cmt></trkpt>
<trkpt lat="58.868485" lon="05.875151"><ele>39</ele><time>2012-03-31T14:18:41Z</time><cmt>0.2 kmh</cmt></trkpt>
<trkpt lat="58.868485" lon="05.875151"><ele>39</ele><time>2012-03-31T14:18:42Z</time><cmt>0.3 kmh</cmt></trkpt>
<trkpt lat="58.868486" lon="05.875150"><ele>39</ele><time>2012-03-31T14:18:43Z</time><cmt>0.5 kmh</cmt></trkpt>
<trkpt lat="58.868487" lon="05.875149"><ele>39</ele><time>2012-03-31T14:18:44Z</time><cmt>0.5 kmh</cmt></trkpt>
<trkpt lat="58.868488" lon="05.875148"><ele>39</ele><time>2012-03-31T14:18:45Z</time><cmt>0.5 kmh</cmt></trkpt>
<trkpt lat="58.868488" lon="05.875148"><ele>38</ele><time>2012-03-31T14:18:46Z</time><cmt>0.4 kmh</cmt></trkpt>
<trkpt lat="58.868488" lon="05.875148"><ele>38</ele><time>2012-03-31T14:18:47Z</time><cmt>0.1 kmh</cmt></trkpt>
<trkpt lat="58.868488" lon="05.875148"><ele>38</ele><time>2012-03-31T14:18:48Z</time><cmt>0.0 kmh</cmt></trkpt>
<trkpt lat="58.868489" lon="05.875147"><ele>38</ele><time>2012-03-31T14:18:49Z</time><cmt>0.0 kmh</cmt></trkpt>
<trkpt lat="58.868489" lon="05.875147"><ele>38</ele><time>2012-03-31T14:18:50Z</time><cmt>0.0 kmh</cmt></trkpt>
<trkpt lat="58.868489" lon="05.875147"><ele>38</ele><time>2012-03-31T14:18:51Z</time><cmt>0.0 kmh</cmt></trkpt>
<trkpt lat="58.868489" lon="05.875146"><ele>38</ele><time>2012-03-31T14:18:52Z</time><cmt>0.0 kmh</cmt></trkpt>
<trkpt lat="58.868490" lon="05.875145"><ele>37</ele><time>2012-03-31T14:18:53Z</time><cmt>0.0 kmh</cmt></trkpt>
<trkpt lat="58.868491" lon="05.875144"><ele>37</ele><time>2012-03-31T14:18:54Z</time><cmt>0.1 kmh</cmt></trkpt>
<trkpt lat="58.868491" lon="05.875143"><ele>37</ele><time>2012-03-31T14:18:55Z</time><cmt>0.4 kmh</cmt></trkpt>
<trkpt lat="58.868492" lon="05.875143"><ele>37</ele><time>2012-03-31T14:18:56Z</time><cmt>0.4 kmh</cmt></trkpt>
<trkpt lat="58.868493" lon="05.875142"><ele>37</ele><time>2012-03-31T14:18:57Z</time><cmt>0.5 kmh</cmt></trkpt>
<trkpt lat="58.868493" lon="05.875140"><ele>37</ele><time>2012-03-31T14:18:58Z</time><cmt>0.4 kmh</cmt></trkpt>
<trkpt lat="58.868493" lon="05.875139"><ele>37</ele><time>2012-03-31T14:18:59Z</time><cmt>0.1 kmh</cmt></trkpt>
<trkpt lat="58.868492" lon="05.875138"><ele>37</ele><time>2012-03-31T14:19:00Z</time><cmt>0.0 kmh</cmt></trkpt>
<trkpt lat="58.868492" lon="05.875137"><ele>36</ele><time>2012-03-31T14:19:01Z</time><cmt>0.0 kmh</cmt></trkpt>
<trkpt lat="58.868491" lon="05.875136"><ele>36</ele><time>2012-03-31T14:19:02Z</time><cmt>0.0 kmh</cmt></trkpt>
<trkpt lat="58.868491" lon="05.875135"><ele>36</ele><time>2012-03-31T14:19:03Z</time><cmt>0.3 kmh</cmt></trkpt>
<trkpt lat="58.868490" lon="05.875134"><ele>36</ele><time>2012-03-31T14:19:04Z</time><cmt>0.3 kmh</cmt></trkpt>
<trkpt lat="58.868490" lon="05.875133"><ele>36</ele><time>2012-03-31T14:19:05Z</time><cmt>0.0 kmh</cmt></trkpt>
<trkpt lat="58.868489" lon="05.875132"><ele>36</ele><time>2012-03-31T14:19:06Z</time><cmt>0.0 kmh</cmt></trkpt>
<trkpt lat="58.868489" lon="05.875131"><ele>36</ele><time>2012-03-31T14:19:07Z</time><cmt>0.0 kmh</cmt></trkpt>
<trkpt lat="58.868489" lon="05.875130"><ele>36</ele><time>2012-03-31T14:19:08Z</time><cmt>0.0 kmh</cmt></trkpt>
<trkpt lat="58.868489" lon="05.875128"><ele>36</ele><time>2012-03-31T14:19:09Z</time><cmt>0.0 kmh</cmt></trkpt>
<trkpt lat="58.868489" lon="05.875127"><ele>36</ele><time>2012-03-31T14:19:10Z</time><cmt>0.0 kmh</cmt></trkpt>
<trkpt lat="58.868489" lon="05.875126"><ele>36</ele><time>2012-03-31T14:19:11Z</time><cmt>0.0 kmh</cmt></trkpt>
<trkpt lat="58.868488" lon="05.875126"><ele>36</ele><time>2012-03-31T14:19:12Z</time><cmt>0.0 kmh</cmt></trkpt>
<trkpt lat="58.868488" lon="05.875125"><ele>36</ele><time>2012-03-31T14:19:13Z</time><cmt>0.0 kmh</cmt></trkpt>
<trkpt lat="58.868488" lon="05.875125"><ele>36</ele><time>2012-03-31T14:19:14Z</time><cmt>0.0 kmh</cmt></trkpt>
<trkpt lat="58.868489" lon="05.875125"><ele>36</ele><time>2012-03-31T14:19:15Z</time><cmt>0.2 kmh</cmt></trkpt>
<trkpt lat="58.868489" lon="05.875125"><ele>36</ele><time>2012-03-31T14:19:18Z</time><cmt>0.0 kmh</cmt></trkpt>
<trkpt lat="58.868489" lon="05.875125"><ele>36</ele><time>2012-03-31T14:19:19Z</time><cmt>0.0 kmh</cmt></trkpt>
<trkpt lat="58.868489" lon="05.875125"><ele>36</ele><time>2012-03-31T14:19:20Z</time><cmt>0.2 kmh</cmt></trkpt>
<trkpt lat="58.868489" lon="05.875126"><ele>36</ele><time>2012-03-31T14:19:21Z</time><cmt>0.2 kmh</cmt></trkpt>
<trkpt lat="58.868489" lon="05.875126"><ele>36</ele><time>2012-03-31T14:19:22Z</time><cmt>0.0 kmh</cmt></trkpt>
<trkpt lat="58.868489" lon="05.875127"><ele>36</ele><time>2012-03-31T14:19:23Z</time><cmt>0.0 kmh</cmt></trkpt>
<trkpt lat="58.868489" lon="05.875127"><ele>36</ele><time>2012-03-31T14:19:24Z</time><cmt>0.0 kmh</cmt></trkpt>
<trkpt lat="58.868489" lon="05.875127"><ele>36</ele><time>2012-03-31T14:19:25Z</time><cmt>0.0 kmh</cmt></trkpt>
<trkpt lat="58.868490" lon="05.875127"><ele>36</ele><time>2012-03-31T14:19:26Z</time><cmt>0.0 kmh</cmt></trkpt>
<trkpt lat="58.868491" lon="05.875127"><ele>36</ele><time>2012-03-31T14:19:27Z</time><cmt>0.0 kmh</cmt></trkpt>
<trkpt lat="58.868491" lon="05.875127"><ele>36</ele><time>2012-03-31T14:19:28Z</time><cmt>0.0 kmh</cmt></trkpt>
<trkpt lat="58.868492" lon="05.875127"><ele>36</ele><time>2012-03-31T14:19:29Z</time><cmt>0.0 kmh</cmt></trkpt>
<trkpt lat="58.868492" lon="05.875127"><ele>36</ele><time>2012-03-31T14:19:30Z</time><cmt>0.1 kmh</cmt></trkpt>
<trkpt lat="58.868493" lon="05.875127"><ele>36</ele><time>2012-03-31T14:19:31Z</time><cmt>0.4 kmh</cmt></trkpt>
<trkpt lat="58.868495" lon="05.875127"><ele>36</ele><time>2012-03-31T14:19:32Z</time><cmt>0.5 kmh</cmt></trkpt>
<trkpt lat="58.868495" lon="05.875126"><ele>36</ele><time>2012-03-31T14:19:33Z</time><cmt>0.5 kmh</cmt></trkpt>
<trkpt lat="58.868497" lon="05.875126"><ele>36</ele><time>2012-03-31T14:19:34Z</time><cmt>0.5 kmh</cmt></trkpt>
<trkpt lat="58.868498" lon="05.875125"><ele>35</ele><time>2012-03-31T14:19:35Z</time><cmt>0.5 kmh</cmt></trkpt>
<trkpt lat="58.868498" lon="05.875125"><ele>35</ele><time>2012-03-31T14:19:36Z</time><cmt>0.2 kmh</cmt></trkpt>
<trkpt lat="58.868499" lon="05.875125"><ele>35</ele><time>2012-03-31T14:19:37Z</time><cmt>0.0 kmh</cmt></trkpt>
<trkpt lat="58.868500" lon="05.875125"><ele>35</ele><time>2012-03-31T14:19:38Z</time><cmt>0.0 kmh</cmt></trkpt>
<trkpt lat="58.868500" lon="05.875125"><ele>35</ele><time>2012-03-31T14:19:39Z</time><cmt>0.0 kmh</cmt></trkpt>
<trkpt lat="58.868500" lon="05.875125"><ele>35</ele><time>2012-03-31T14:19:40Z</time><cmt>0.0 kmh</cmt></trkpt>
<trkpt lat="58.868501" lon="05.875125"><ele>35</ele><time>2012-03-31T14:19:41Z</time><cmt>0.0 kmh</cmt></trkpt>
<trkpt lat="58.868502" lon="05.875124"><ele>34</ele><time>2012-03-31T14:19:42Z</time><cmt>0.0 kmh</cmt></trkpt>
<trkpt lat="58.868502" lon="05.875124"><ele>34</ele><time>2012-03-31T14:19:43Z</time><cmt>0.0 kmh</cmt></trkpt>
<trkpt lat="58.868503" lon="05.875124"><ele>34</ele><time>2012-03-31T14:19:44Z</time><cmt>0.0 kmh</cmt></trkpt>
<trkpt lat="58.868503" lon="05.875124"><ele>34</ele><time>2012-03-31T14:19:45Z</time><cmt>0.0 kmh</cmt></trkpt>
<trkpt lat="58.868503" lon="05.875125"><ele>34</ele><time>2012-03-31T14:19:46Z</time><cmt>0.0 kmh</cmt></trkpt>
<trkpt lat="58.868503" lon="05.875125"><ele>34</ele><time>2012-03-31T14:19:47Z</time><cmt>0.0 kmh</cmt></trkpt>
<trkpt lat="58.868503" lon="05.875125"><ele>34</ele><time>2012-03-31T14:19:48Z</time><cmt>0.0 kmh</cmt></trkpt>
<trkpt lat="58.868503" lon="05.875125"><ele>33</ele><time>2012-03-31T14:19:49Z</time><cmt>0.0 kmh</cmt></trkpt>
<trkpt lat="58.868503" lon="05.875126"><ele>33</ele><time>2012-03-31T14:19:50Z</time><cmt>0.0 kmh</cmt></trkpt>
<trkpt lat="58.868503" lon="05.875126"><ele>33</ele><time>2012-03-31T14:19:51Z</time><cmt>0.0 kmh</cmt></trkpt>
<trkpt lat="58.868504" lon="05.875126"><ele>33</ele><time>2012-03-31T14:19:52Z</time><cmt>0.0 kmh</cmt></trkpt>
<trkpt lat="58.868504" lon="05.875126"><ele>33</ele><time>2012-03-31T14:19:53Z</time><cmt>0.0 kmh</cmt></trkpt>
<trkpt lat="58.868505" lon="05.875125"><ele>33</ele><time>2012-03-31T14:19:54Z</time><cmt>0.0 kmh</cmt></trkpt>
<trkpt lat="58.868505" lon="05.875125"><ele>33</ele><time>2012-03-31T14:19:55Z</time><cmt>0.0 kmh</cmt></trkpt>
<trkpt lat="58.868506" lon="05.875125"><ele>33</ele><time>2012-03-31T14:19:56Z</time><cmt>0.0 kmh</cmt></trkpt>
<trkpt lat="58.868506" lon="05.875125"><ele>32</ele><time>2012-03-31T14:19:57Z</time><cmt>0.2 kmh</cmt></trkpt>
<trkpt lat="58.868506" lon="05.875125"><ele>32</ele><time>2012-03-31T14:19:58Z</time><cmt>0.2 kmh</cmt></trkpt>
<trkpt lat="58.868506" lon="05.875125"><ele>32</ele><time>2012-03-31T14:19:59Z</time><cmt>0.0 kmh</cmt></trkpt>
<trkpt lat="58.868506" lon="05.875125"><ele>32</ele><time>2012-03-31T14:20:01Z</time><cmt>0.1 kmh</cmt></trkpt>
<trkpt lat="58.868506" lon="05.875125"><ele>32</ele><time>2012-03-31T14:20:02Z</time><cmt>0.3 kmh</cmt></trkpt>
<trkpt lat="58.868506" lon="05.875125"><ele>32</ele><time>2012-03-31T14:20:03Z</time><cmt>0.4 kmh</cmt></trkpt>
<trkpt lat="58.868506" lon="05.875125"><ele>32</ele><time>2012-03-31T14:20:04Z</time><cmt>0.2 kmh</cmt></trkpt>
<trkpt lat="58.868506" lon="05.875124"><ele>31</ele><time>2012-03-31T14:20:05Z</time><cmt>0.0 kmh</cmt></trkpt>
<trkpt lat="58.868506" lon="05.875124"><ele>31</ele><time>2012-03-31T14:20:06Z</time><cmt>0.0 kmh</cmt></trkpt>
<trkpt lat="58.868506" lon="05.875124"><ele>31</ele><time>2012-03-31T14:20:07Z</time><cmt>0.0 kmh</cmt></trkpt>
<trkpt lat="58.868507" lon="05.875124"><ele>31</ele><time>2012-03-31T14:20:08Z</time><cmt>0.0 kmh</cmt></trkpt>
<trkpt lat="58.868507" lon="05.875124"><ele>31</ele><time>2012-03-31T14:20:09Z</time><cmt>0.0 kmh</cmt></trkpt>
<trkpt lat="58.868507" lon="05.875124"><ele>31</ele><time>2012-03-31T14:20:10Z</time><cmt>0.0 kmh</cmt></trkpt>
<trkpt lat="58.868508" lon="05.875124"><ele>31</ele><time>2012-03-31T14:20:11Z</time><cmt>0.0 kmh</cmt></trkpt>
<trkpt lat="58.868508" lon="05.875124"><ele>31</ele><time>2012-03-31T14:20:12Z</time><cmt>0.0 kmh</cmt></trkpt>
<trkpt lat="58.868508" lon="05.875124"><ele>31</ele><time>2012-03-31T14:20:13Z</time><cmt>0.0 kmh</cmt></trkpt>
<trkpt lat="58.868509" lon="05.875124"><ele>31</ele><time>2012-03-31T14:20:14Z</time><cmt>0.0 kmh</cmt></trkpt>
<trkpt lat="58.868509" lon="05.875124"><ele>31</ele><time>2012-03-31T14:20:15Z</time><cmt>0.0 kmh</cmt></trkpt>
<trkpt lat="58.868510" lon="05.875124"><ele>31</ele><time>2012-03-31T14:20:16Z</time><cmt>0.0 kmh</cmt></trkpt>
<trkpt lat="58.868510" lon="05.875124"><ele>31</ele><time>2012-03-31T14:20:17Z</time><cmt>0.0 kmh</cmt></trkpt>
<trkpt lat="58.868510" lon="05.875124"><ele>30</ele><time>2012-03-31T14:20:18Z</time><cmt>0.0 kmh</cmt></trkpt>
<trkpt lat="58.868510" lon="05.875124"><ele>30</ele><time>2012-03-31T14:20:19Z</time><cmt>0.0 kmh</cmt></trkpt>
<trkpt lat="58.868510" lon="05.875124"><ele>30</ele><time>2012-03-31T14:20:20Z</time><cmt>0.0 kmh</cmt></trkpt>
<trkpt lat="58.868511" lon="05.875124"><ele>30</ele><time>2012-03-31T14:20:21Z</time><cmt>0.2 kmh</cmt></trkpt>
<trkpt lat="58.868511" lon="05.875123"><ele>30</ele><time>2012-03-31T14:20:22Z</time><cmt>0.2 kmh</cmt></trkpt>
<trkpt lat="58.868511" lon="05.875123"><ele>30</ele><time>2012-03-31T14:20:23Z</time><cmt>0.0 kmh</cmt></trkpt>
<trkpt lat="58.868511" lon="05.875122"><ele>30</ele><time>2012-03-31T14:20:24Z</time><cmt>0.0 kmh</cmt></trkpt>
<trkpt lat="58.868511" lon="05.875122"><ele>30</ele><time>2012-03-31T14:20:25Z</time><cmt>0.0 kmh</cmt></trkpt>
<trkpt lat="58.868510" lon="05.875121"><ele>30</ele><time>2012-03-31T14:20:26Z</time><cmt>0.0 kmh</cmt></trkpt>
<trkpt lat="58.868510" lon="05.875121"><ele>30</ele><time>2012-03-31T14:20:27Z</time><cmt>0.0 kmh</cmt></trkpt>
<trkpt lat="58.868510" lon="05.875121"><ele>30</ele><time>2012-03-31T14:20:28Z</time><cmt>0.0 kmh</cmt></trkpt>
<trkpt lat="58.868510" lon="05.875120"><ele>30</ele><time>2012-03-31T14:20:29Z</time><cmt>0.0 kmh</cmt></trkpt>
<trkpt lat="58.868509" lon="05.875119"><ele>30</ele><time>2012-03-31T14:20:30Z</time><cmt>0.0 kmh</cmt></trkpt>
<trkpt lat="58.868509" lon="05.875119"><ele>30</ele><time>2012-03-31T14:20:31Z</time><cmt>0.3 kmh</cmt></trkpt>
<trkpt lat="58.868507" lon="05.875119"><ele>30</ele><time>2012-03-31T14:20:32Z</time><cmt>0.4 kmh</cmt></trkpt>
<trkpt lat="58.868506" lon="05.875119"><ele>30</ele><time>2012-03-31T14:20:33Z</time><cmt>0.5 kmh</cmt></trkpt>
<trkpt lat="58.868504" lon="05.875119"><ele>30</ele><time>2012-03-31T14:20:34Z</time><cmt>0.7 kmh</cmt></trkpt>
<trkpt lat="58.868502" lon="05.875120"><ele>30</ele><time>2012-03-31T14:20:35Z</time><cmt>0.7 kmh</cmt></trkpt>
<trkpt lat="58.868501" lon="05.875120"><ele>30</ele><time>2012-03-31T14:20:36Z</time><cmt>0.6 kmh</cmt></trkpt>
<trkpt lat="58.868500" lon="05.875120"><ele>31</ele><time>2012-03-31T14:20:37Z</time><cmt>0.5 kmh</cmt></trkpt>
<trkpt lat="58.868499" lon="05.875120"><ele>31</ele><time>2012-03-31T14:20:38Z</time><cmt>0.4 kmh</cmt></trkpt>
<trkpt lat="58.868499" lon="05.875120"><ele>31</ele><time>2012-03-31T14:20:39Z</time><cmt>0.1 kmh</cmt></trkpt>
<trkpt lat="58.868498" lon="05.875120"><ele>31</ele><time>2012-03-31T14:20:40Z</time><cmt>0.0 kmh</cmt></trkpt>
<trkpt lat="58.868498" lon="05.875120"><ele>31</ele><time>2012-03-31T14:20:41Z</time><cmt>0.0 kmh</cmt></trkpt>
<trkpt lat="58.868497" lon="05.875120"><ele>31</ele><time>2012-03-31T14:20:42Z</time><cmt>0.0 kmh</cmt></trkpt>
<trkpt lat="58.868497" lon="05.875119"><ele>32</ele><time>2012-03-31T14:20:43Z</time><cmt>0.0 kmh</cmt></trkpt>
<trkpt lat="58.868496" lon="05.875119"><ele>32</ele><time>2012-03-31T14:20:44Z</time><cmt>0.0 kmh</cmt></trkpt>
<trkpt lat="58.868496" lon="05.875119"><ele>32</ele><time>2012-03-31T14:20:45Z</time><cmt>0.0 kmh</cmt></trkpt>
<trkpt lat="58.868495" lon="05.875118"><ele>32</ele><time>2012-03-31T14:20:46Z</time><cmt>0.0 kmh</cmt></trkpt>
<trkpt lat="58.868495" lon="05.875118"><ele>32</ele><time>2012-03-31T14:20:47Z</time><cmt>0.0 kmh</cmt></trkpt>
<trkpt lat="58.868494" lon="05.875117"><ele>32</ele><time>2012-03-31T14:20:48Z</time><cmt>0.0 kmh</cmt></trkpt>
<trkpt lat="58.868494" lon="05.875117"><ele>32</ele><time>2012-03-31T14:20:49Z</time><cmt>0.0 kmh</cmt></trkpt>
<trkpt lat="58.868494" lon="05.875116"><ele>32</ele><time>2012-03-31T14:20:50Z</time><cmt>0.0 kmh</cmt></trkpt>
<trkpt lat="58.868493" lon="05.875116"><ele>33</ele><time>2012-03-31T14:20:51Z</time><cmt>0.0 kmh</cmt></trkpt>
<trkpt lat="58.868493" lon="05.875115"><ele>33</ele><time>2012-03-31T14:20:52Z</time><cmt>0.0 kmh</cmt></trkpt>
<trkpt lat="58.868493" lon="05.875115"><ele>33</ele><time>2012-03-31T14:20:53Z</time><cmt>0.0 kmh</cmt></trkpt>
<trkpt lat="58.868493" lon="05.875114"><ele>33</ele><time>2012-03-31T14:20:54Z</time><cmt>0.0 kmh</cmt></trkpt>
<trkpt lat="58.868493" lon="05.875114"><ele>33</ele><time>2012-03-31T14:20:55Z</time><cmt>0.0 kmh</cmt></trkpt>
<trkpt lat="58.868492" lon="05.875114"><ele>33</ele><time>2012-03-31T14:20:56Z</time><cmt>0.1 kmh</cmt></trkpt>
<trkpt lat="58.868492" lon="05.875114"><ele>33</ele><time>2012-03-31T14:20:57Z</time><cmt>0.1 kmh</cmt></trkpt>
<trkpt lat="58.868492" lon="05.875114"><ele>33</ele><time>2012-03-31T14:20:58Z</time><cmt>0.0 kmh</cmt></trkpt>
<trkpt lat="58.868491" lon="05.875114"><ele>33</ele><time>2012-03-31T14:20:59Z</time><cmt>0.3 kmh</cmt></trkpt>
<trkpt lat="58.868491" lon="05.875114"><ele>33</ele><time>2012-03-31T14:21:00Z</time><cmt>0.3 kmh</cmt></trkpt>
<trkpt lat="58.868491" lon="05.875114"><ele>33</ele><time>2012-03-31T14:21:01Z</time><cmt>0.0 kmh</cmt></trkpt>
<trkpt lat="58.868491" lon="05.875114"><ele>34</ele><time>2012-03-31T14:21:02Z</time><cmt>0.0 kmh</cmt></trkpt>
<trkpt lat="58.868490" lon="05.875113"><ele>34</ele><time>2012-03-31T14:21:03Z</time><cmt>0.0 kmh</cmt></trkpt>
<trkpt lat="58.868490" lon="05.875113"><ele>34</ele><time>2012-03-31T14:21:04Z</time><cmt>0.0 kmh</cmt></trkpt>
<trkpt lat="58.868490" lon="05.875113"><ele>34</ele><time>2012-03-31T14:21:05Z</time><cmt>0.0 kmh</cmt></trkpt>
<trkpt lat="58.868490" lon="05.875113"><ele>34</ele><time>2012-03-31T14:21:06Z</time><cmt>0.0 kmh</cmt></trkpt>
<trkpt lat="58.868490" lon="05.875112"><ele>34</ele><time>2012-03-31T14:21:07Z</time><cmt>0.2 kmh</cmt></trkpt>
<trkpt lat="58.868491" lon="05.875112"><ele>34</ele><time>2012-03-31T14:21:08Z</time><cmt>0.4 kmh</cmt></trkpt>
<trkpt lat="58.868491" lon="05.875111"><ele>34</ele><time>2012-03-31T14:21:09Z</time><cmt>0.1 kmh</cmt></trkpt>
<trkpt lat="58.868491" lon="05.875111"><ele>34</ele><time>2012-03-31T14:21:10Z</time><cmt>0.0 kmh</cmt></trkpt>
<trkpt lat="58.868491" lon="05.875111"><ele>34</ele><time>2012-03-31T14:21:11Z</time><cmt>0.0 kmh</cmt></trkpt>
<trkpt lat="58.868491" lon="05.875111"><ele>34</ele><time>2012-03-31T14:21:12Z</time><cmt>0.0 kmh</cmt></trkpt>
<trkpt lat="58.868491" lon="05.875110"><ele>34</ele><time>2012-03-31T14:21:13Z</time><cmt>0.0 kmh</cmt></trkpt>
<trkpt lat="58.868492" lon="05.875110"><ele>34</ele><time>2012-03-31T14:21:14Z</time><cmt>0.0 kmh</cmt></trkpt>
<trkpt lat="58.868492" lon="05.875110"><ele>34</ele><time>2012-03-31T14:21:15Z</time><cmt>0.0 kmh</cmt></trkpt>
<trkpt lat="58.868492" lon="05.875110"><ele>34</ele><time>2012-03-31T14:21:16Z</time><cmt>0.0 kmh</cmt></trkpt>
<trkpt lat="58.868493" lon="05.875110"><ele>34</ele><time>2012-03-31T14:21:17Z</time><cmt>0.0 kmh</cmt></trkpt>
<trkpt lat="58.868494" lon="05.875110"><ele>34</ele><time>2012-03-31T14:21:18Z</time><cmt>0.0 kmh</cmt></trkpt>
<trkpt lat="58.868494" lon="05.875110"><ele>34</ele><time>2012-03-31T14:21:19Z</time><cmt>0.0 kmh</cmt></trkpt>
<trkpt lat="58.868494" lon="05.875110"><ele>34</ele><time>2012-03-31T14:21:20Z</time><cmt>0.0 kmh</cmt></trkpt>
<trkpt lat="58.868495" lon="05.875110"><ele>34</ele><time>2012-03-31T14:21:21Z</time><cmt>0.0 kmh</cmt></trkpt>
<trkpt lat="58.868495" lon="05.875110"><ele>34</ele><time>2012-03-31T14:21:22Z</time><cmt>0.0 kmh</cmt></trkpt>
<trkpt lat="58.868496" lon="05.875110"><ele>34</ele><time>2012-03-31T14:21:23Z</time><cmt>0.0 kmh</cmt></trkpt>
<trkpt lat="58.868497" lon="05.875110"><ele>34</ele><time>2012-03-31T14:21:24Z</time><cmt>0.3 kmh</cmt></trkpt>
<trkpt lat="58.868497" lon="05.875109"><ele>34</ele><time>2012-03-31T14:21:25Z</time><cmt>0.3 kmh</cmt></trkpt>
<trkpt lat="58.868498" lon="05.875109"><ele>34</ele><time>2012-03-31T14:21:26Z</time><cmt>0.0 kmh</cmt></trkpt>
<trkpt lat="58.868499" lon="05.875109"><ele>33</ele><time>2012-03-31T14:21:27Z</time><cmt>0.2 kmh</cmt></trkpt>
<trkpt lat="58.868500" lon="05.875108"><ele>33</ele><time>2012-03-31T14:21:28Z</time><cmt>0.2 kmh</cmt></trkpt>
<trkpt lat="58.868500" lon="05.875108"><ele>33</ele><time>2012-03-31T14:21:29Z</time><cmt>0.0 kmh</cmt></trkpt>
<trkpt lat="58.868501" lon="05.875108"><ele>33</ele><time>2012-03-31T14:21:30Z</time><cmt>0.3 kmh</cmt></trkpt>
<trkpt lat="58.868502" lon="05.875107"><ele>33</ele><time>2012-03-31T14:21:31Z</time><cmt>0.5 kmh</cmt></trkpt>
<trkpt lat="58.868503" lon="05.875107"><ele>33</ele><time>2012-03-31T14:21:32Z</time><cmt>0.4 kmh</cmt></trkpt>
<trkpt lat="58.868503" lon="05.875107"><ele>33</ele><time>2012-03-31T14:21:33Z</time><cmt>0.2 kmh</cmt></trkpt>
<trkpt lat="58.868504" lon="05.875107"><ele>33</ele><time>2012-03-31T14:21:34Z</time><cmt>0.0 kmh</cmt></trkpt>
<trkpt lat="58.868505" lon="05.875106"><ele>32</ele><time>2012-03-31T14:21:35Z</time><cmt>0.0 kmh</cmt></trkpt>
<trkpt lat="58.868505" lon="05.875106"><ele>32</ele><time>2012-03-31T14:21:36Z</time><cmt>0.0 kmh</cmt></trkpt>
<trkpt lat="58.868505" lon="05.875106"><ele>32</ele><time>2012-03-31T14:21:37Z</time><cmt>0.0 kmh</cmt></trkpt>
<trkpt lat="58.868506" lon="05.875106"><ele>32</ele><time>2012-03-31T14:21:38Z</time><cmt>0.2 kmh</cmt></trkpt>
<trkpt lat="58.868506" lon="05.875106"><ele>32</ele><time>2012-03-31T14:21:39Z</time><cmt>0.2 kmh</cmt></trkpt>
<trkpt lat="58.868507" lon="05.875106"><ele>32</ele><time>2012-03-31T14:21:40Z</time><cmt>0.0 kmh</cmt></trkpt>
<trkpt lat="58.868507" lon="05.875105"><ele>32</ele><time>2012-03-31T14:21:41Z</time><cmt>0.1 kmh</cmt></trkpt>
<trkpt lat="58.868508" lon="05.875105"><ele>32</ele><time>2012-03-31T14:21:42Z</time><cmt>0.2 kmh</cmt></trkpt>
<trkpt lat="58.868508" lon="05.875104"><ele>32</ele><time>2012-03-31T14:21:43Z</time><cmt>0.0 kmh</cmt></trkpt>
<trkpt lat="58.868509" lon="05.875104"><ele>31</ele><time>2012-03-31T14:21:44Z</time><cmt>0.2 kmh</cmt></trkpt>
<trkpt lat="58.868509" lon="05.875103"><ele>31</ele><time>2012-03-31T14:21:45Z</time><cmt>0.4 kmh</cmt></trkpt>
<trkpt lat="58.868509" lon="05.875103"><ele>31</ele><time>2012-03-31T14:21:46Z</time><cmt>0.4 kmh</cmt></trkpt>
<trkpt lat="58.868507" lon="05.875102"><ele>31</ele><time>2012-03-31T14:21:47Z</time><cmt>0.5 kmh</cmt></trkpt>
<trkpt lat="58.868506" lon="05.875100"><ele>31</ele><time>2012-03-31T14:21:48Z</time><cmt>0.6 kmh</cmt></trkpt>
<trkpt lat="58.868506" lon="05.875100"><ele>31</ele><time>2012-03-31T14:21:49Z</time><cmt>0.4 kmh</cmt></trkpt>
<trkpt lat="58.868506" lon="05.875099"><ele>31</ele><time>2012-03-31T14:21:50Z</time><cmt>0.2 kmh</cmt></trkpt>
<trkpt lat="58.868506" lon="05.875099"><ele>31</ele><time>2012-03-31T14:21:51Z</time><cmt>0.0 kmh</cmt></trkpt>
<trkpt lat="58.868506" lon="05.875098"><ele>31</ele><time>2012-03-31T14:21:52Z</time><cmt>0.0 kmh</cmt></trkpt>
<trkpt lat="58.868507" lon="05.875098"><ele>31</ele><time>2012-03-31T14:21:53Z</time><cmt>0.0 kmh</cmt></trkpt>
<trkpt lat="58.868506" lon="05.875098"><ele>31</ele><time>2012-03-31T14:21:54Z</time><cmt>0.0 kmh</cmt></trkpt>
<trkpt lat="58.868506" lon="05.875098"><ele>31</ele><time>2012-03-31T14:21:55Z</time><cmt>0.0 kmh</cmt></trkpt>
<trkpt lat="58.868506" lon="05.875097"><ele>31</ele><time>2012-03-31T14:21:56Z</time><cmt>0.0 kmh</cmt></trkpt>
<trkpt lat="58.868507" lon="05.875097"><ele>31</ele><time>2012-03-31T14:21:57Z</time><cmt>0.0 kmh</cmt></trkpt>
<trkpt lat="58.868507" lon="05.875098"><ele>31</ele><time>2012-03-31T14:21:58Z</time><cmt>0.0 kmh</cmt></trkpt>
<trkpt lat="58.868508" lon="05.875099"><ele>31</ele><time>2012-03-31T14:21:59Z</time><cmt>0.3 kmh</cmt></trkpt>
<trkpt lat="58.868510" lon="05.875101"><ele>31</ele><time>2012-03-31T14:22:00Z</time><cmt>0.7 kmh</cmt></trkpt>
<trkpt lat="58.868510" lon="05.875102"><ele>31</ele><time>2012-03-31T14:22:01Z</time><cmt>0.4 kmh</cmt></trkpt>
<trkpt lat="58.868511" lon="05.875102"><ele>31</ele><time>2012-03-31T14:22:02Z</time><cmt>0.0 kmh</cmt></trkpt>
<trkpt lat="58.868511" lon="05.875103"><ele>31</ele><time>2012-03-31T14:22:03Z</time><cmt>0.0 kmh</cmt></trkpt>
<trkpt lat="58.868512" lon="05.875104"><ele>31</ele><time>2012-03-31T14:22:04Z</time><cmt>0.0 kmh</cmt></trkpt>
<trkpt lat="58.868512" lon="05.875105"><ele>31</ele><time>2012-03-31T14:22:05Z</time><cmt>0.0 kmh</cmt></trkpt>
<trkpt lat="58.868513" lon="05.875105"><ele>31</ele><time>2012-03-31T14:22:06Z</time><cmt>0.0 kmh</cmt></trkpt>
<trkpt lat="58.868513" lon="05.875104"><ele>31</ele><time>2012-03-31T14:22:07Z</time><cmt>0.0 kmh</cmt></trkpt>
<trkpt lat="58.868513" lon="05.875104"><ele>30</ele><time>2012-03-31T14:22:08Z</time><cmt>0.3 kmh</cmt></trkpt>
<trkpt lat="58.868514" lon="05.875104"><ele>30</ele><time>2012-03-31T14:22:09Z</time><cmt>0.4 kmh</cmt></trkpt>
<trkpt lat="58.868514" lon="05.875103"><ele>30</ele><time>2012-03-31T14:22:10Z</time><cmt>0.2 kmh</cmt></trkpt>
<trkpt lat="58.868514" lon="05.875103"><ele>30</ele><time>2012-03-31T14:22:11Z</time><cmt>0.0 kmh</cmt></trkpt>
<trkpt lat="58.868513" lon="05.875102"><ele>30</ele><time>2012-03-31T14:22:12Z</time><cmt>0.0 kmh</cmt></trkpt>
<trkpt lat="58.868512" lon="05.875102"><ele>30</ele><time>2012-03-31T14:22:13Z</time><cmt>0.0 kmh</cmt></trkpt>
<trkpt lat="58.868512" lon="05.875102"><ele>30</ele><time>2012-03-31T14:22:14Z</time><cmt>0.0 kmh</cmt></trkpt>
<trkpt lat="58.868511" lon="05.875101"><ele>30</ele><time>2012-03-31T14:22:15Z</time><cmt>0.2 kmh</cmt></trkpt>
<trkpt lat="58.868511" lon="05.875101"><ele>30</ele><time>2012-03-31T14:22:16Z</time><cmt>0.2 kmh</cmt></trkpt>
<trkpt lat="58.868510" lon="05.875101"><ele>30</ele><time>2012-03-31T14:22:17Z</time><cmt>0.1 kmh</cmt></trkpt>
<trkpt lat="58.868509" lon="05.875100"><ele>30</ele><time>2012-03-31T14:22:18Z</time><cmt>0.1 kmh</cmt></trkpt>
<trkpt lat="58.868508" lon="05.875100"><ele>30</ele><time>2012-03-31T14:22:19Z</time><cmt>0.0 kmh</cmt></trkpt>
<trkpt lat="58.868508" lon="05.875099"><ele>30</ele><time>2012-03-31T14:22:20Z</time><cmt>0.0 kmh</cmt></trkpt>
<trkpt lat="58.868507" lon="05.875098"><ele>30</ele><time>2012-03-31T14:22:21Z</time><cmt>0.2 kmh</cmt></trkpt>
<trkpt lat="58.868507" lon="05.875097"><ele>30</ele><time>2012-03-31T14:22:22Z</time><cmt>0.2 kmh</cmt></trkpt>
<trkpt lat="58.868507" lon="05.875097"><ele>31</ele><time>2012-03-31T14:22:23Z</time><cmt>0.0 kmh</cmt></trkpt>
<trkpt lat="58.868507" lon="05.875096"><ele>31</ele><time>2012-03-31T14:22:24Z</time><cmt>0.0 kmh</cmt></trkpt>
<trkpt lat="58.868507" lon="05.875096"><ele>31</ele><time>2012-03-31T14:22:25Z</time><cmt>0.2 kmh</cmt></trkpt>
<trkpt lat="58.868508" lon="05.875095"><ele>31</ele><time>2012-03-31T14:22:26Z</time><cmt>0.2 kmh</cmt></trkpt>
<trkpt lat="58.868508" lon="05.875095"><ele>31</ele><time>2012-03-31T14:22:27Z</time><cmt>0.0 kmh</cmt></trkpt>
<trkpt lat="58.868507" lon="05.875094"><ele>31</ele><time>2012-03-31T14:22:28Z</time><cmt>0.2 kmh</cmt></trkpt>
<trkpt lat="58.868506" lon="05.875093"><ele>31</ele><time>2012-03-31T14:22:29Z</time><cmt>0.3 kmh</cmt></trkpt>
<trkpt lat="58.868506" lon="05.875092"><ele>31</ele><time>2012-03-31T14:22:30Z</time><cmt>0.4 kmh</cmt></trkpt>
<trkpt lat="58.868505" lon="05.875091"><ele>31</ele><time>2012-03-31T14:22:31Z</time><cmt>0.4 kmh</cmt></trkpt>
<trkpt lat="58.868504" lon="05.875090"><ele>31</ele><time>2012-03-31T14:22:32Z</time><cmt>0.2 kmh</cmt></trkpt>
<trkpt lat="58.868503" lon="05.875089"><ele>31</ele><time>2012-03-31T14:22:33Z</time><cmt>0.3 kmh</cmt></trkpt>
<trkpt lat="58.868503" lon="05.875088"><ele>31</ele><time>2012-03-31T14:22:34Z</time><cmt>0.3 kmh</cmt></trkpt>
<trkpt lat="58.868502" lon="05.875087"><ele>31</ele><time>2012-03-31T14:22:35Z</time><cmt>0.2 kmh</cmt></trkpt>
<trkpt lat="58.868502" lon="05.875086"><ele>31</ele><time>2012-03-31T14:22:36Z</time><cmt>0.1 kmh</cmt></trkpt>
<trkpt lat="58.868501" lon="05.875085"><ele>32</ele><time>2012-03-31T14:22:37Z</time><cmt>0.1 kmh</cmt></trkpt>
<trkpt lat="58.868500" lon="05.875084"><ele>32</ele><time>2012-03-31T14:22:38Z</time><cmt>0.4 kmh</cmt></trkpt>
<trkpt lat="58.868500" lon="05.875083"><ele>32</ele><time>2012-03-31T14:22:39Z</time><cmt>0.3 kmh</cmt></trkpt>
<trkpt lat="58.868499" lon="05.875081"><ele>32</ele><time>2012-03-31T14:22:40Z</time><cmt>0.2 kmh</cmt></trkpt>
<trkpt lat="58.868499" lon="05.875080"><ele>32</ele><time>2012-03-31T14:22:41Z</time><cmt>0.2 kmh</cmt></trkpt>
<trkpt lat="58.868498" lon="05.875079"><ele>32</ele><time>2012-03-31T14:22:42Z</time><cmt>0.1 kmh</cmt></trkpt>
<trkpt lat="58.868497" lon="05.875078"><ele>32</ele><time>2012-03-31T14:22:43Z</time><cmt>0.1 kmh</cmt></trkpt>
<trkpt lat="58.868497" lon="05.875077"><ele>33</ele><time>2012-03-31T14:22:44Z</time><cmt>0.2 kmh</cmt></trkpt>
<trkpt lat="58.868496" lon="05.875076"><ele>33</ele><time>2012-03-31T14:22:45Z</time><cmt>0.4 kmh</cmt></trkpt>
<trkpt lat="58.868495" lon="05.875074"><ele>33</ele><time>2012-03-31T14:22:46Z</time><cmt>0.6 kmh</cmt></trkpt>
<trkpt lat="58.868493" lon="05.875071"><ele>33</ele><time>2012-03-31T14:22:47Z</time><cmt>0.9 kmh</cmt></trkpt>
<trkpt lat="58.868490" lon="05.875069"><ele>33</ele><time>2012-03-31T14:22:48Z</time><cmt>0.9 kmh</cmt></trkpt>
<trkpt lat="58.868487" lon="05.875066"><ele>34</ele><time>2012-03-31T14:22:49Z</time><cmt>1.1 kmh</cmt></trkpt>
<trkpt lat="58.868485" lon="05.875063"><ele>34</ele><time>2012-03-31T14:22:50Z</time><cmt>1.3 kmh</cmt></trkpt>
<trkpt lat="58.868482" lon="05.875060"><ele>34</ele><time>2012-03-31T14:22:51Z</time><cmt>1.3 kmh</cmt></trkpt>
<trkpt lat="58.868480" lon="05.875057"><ele>34</ele><time>2012-03-31T14:22:52Z</time><cmt>1.3 kmh</cmt></trkpt>
<trkpt lat="58.868477" lon="05.875054"><ele>35</ele><time>2012-03-31T14:22:53Z</time><cmt>1.3 kmh</cmt></trkpt>
<trkpt lat="58.868475" lon="05.875051"><ele>35</ele><time>2012-03-31T14:22:54Z</time><cmt>1.0 kmh</cmt></trkpt>
<trkpt lat="58.868472" lon="05.875048"><ele>36</ele><time>2012-03-31T14:22:55Z</time><cmt>1.1 kmh</cmt></trkpt>
<trkpt lat="58.868469" lon="05.875045"><ele>36</ele><time>2012-03-31T14:22:56Z</time><cmt>1.3 kmh</cmt></trkpt>
<trkpt lat="58.868467" lon="05.875041"><ele>37</ele><time>2012-03-31T14:22:57Z</time><cmt>1.3 kmh</cmt></trkpt>
<trkpt lat="58.868466" lon="05.875040"><ele>37</ele><time>2012-03-31T14:22:58Z</time><cmt>1.0 kmh</cmt></trkpt>
<trkpt lat="58.868466" lon="05.875038"><ele>37</ele><time>2012-03-31T14:22:59Z</time><cmt>0.5 kmh</cmt></trkpt>
<trkpt lat="58.868466" lon="05.875037"><ele>38</ele><time>2012-03-31T14:23:00Z</time><cmt>0.1 kmh</cmt></trkpt>
<trkpt lat="58.868466" lon="05.875036"><ele>38</ele><time>2012-03-31T14:23:01Z</time><cmt>0.0 kmh</cmt></trkpt>
<trkpt lat="58.868465" lon="05.875035"><ele>39</ele><time>2012-03-31T14:23:02Z</time><cmt>0.0 kmh</cmt></trkpt>
<trkpt lat="58.868465" lon="05.875034"><ele>39</ele><time>2012-03-31T14:23:03Z</time><cmt>0.0 kmh</cmt></trkpt>
<trkpt lat="58.868465" lon="05.875034"><ele>39</ele><time>2012-03-31T14:23:04Z</time><cmt>0.3 kmh</cmt></trkpt>
<trkpt lat="58.868463" lon="05.875030"><ele>39</ele><time>2012-03-31T14:23:05Z</time><cmt>0.9 kmh</cmt></trkpt>
<trkpt lat="58.868460" lon="05.875024"><ele>40</ele><time>2012-03-31T14:23:06Z</time><cmt>1.6 kmh</cmt></trkpt>
<trkpt lat="58.868457" lon="05.875019"><ele>40</ele><time>2012-03-31T14:23:07Z</time><cmt>1.4 kmh</cmt></trkpt>
<trkpt lat="58.868454" lon="05.875014"><ele>41</ele><time>2012-03-31T14:23:08Z</time><cmt>1.3 kmh</cmt></trkpt>
<trkpt lat="58.868452" lon="05.875009"><ele>41</ele><time>2012-03-31T14:23:09Z</time><cmt>1.5 kmh</cmt></trkpt>
<trkpt lat="58.868450" lon="05.875004"><ele>41</ele><time>2012-03-31T14:23:10Z</time><cmt>1.4 kmh</cmt></trkpt>
<trkpt lat="58.868448" lon="05.874999"><ele>42</ele><time>2012-03-31T14:23:11Z</time><cmt>1.4 kmh</cmt></trkpt>
<trkpt lat="58.868446" lon="05.874995"><ele>42</ele><time>2012-03-31T14:23:12Z</time><cmt>1.3 kmh</cmt></trkpt>
<trkpt lat="58.868443" lon="05.874990"><ele>43</ele><time>2012-03-31T14:23:13Z</time><cmt>1.1 kmh</cmt></trkpt>
<trkpt lat="58.868440" lon="05.874984"><ele>43</ele><time>2012-03-31T14:23:14Z</time><cmt>1.4 kmh</cmt></trkpt>
<trkpt lat="58.868435" lon="05.874978"><ele>44</ele><time>2012-03-31T14:23:15Z</time><cmt>2.1 kmh</cmt></trkpt>
<trkpt lat="58.868431" lon="05.874971"><ele>45</ele><time>2012-03-31T14:23:16Z</time><cmt>2.4 kmh</cmt></trkpt>
<trkpt lat="58.868426" lon="05.874964"><ele>45</ele><time>2012-03-31T14:23:17Z</time><cmt>2.5 kmh</cmt></trkpt>
<trkpt lat="58.868421" lon="05.874958"><ele>46</ele><time>2012-03-31T14:23:18Z</time><cmt>2.5 kmh</cmt></trkpt>
<trkpt lat="58.868416" lon="05.874951"><ele>47</ele><time>2012-03-31T14:23:19Z</time><cmt>2.0 kmh</cmt></trkpt>
<trkpt lat="58.868412" lon="05.874945"><ele>48</ele><time>2012-03-31T14:23:20Z</time><cmt>2.0 kmh</cmt></trkpt>
<trkpt lat="58.868408" lon="05.874939"><ele>48</ele><time>2012-03-31T14:23:21Z</time><cmt>2.3 kmh</cmt></trkpt>
<trkpt lat="58.868403" lon="05.874934"><ele>49</ele><time>2012-03-31T14:23:22Z</time><cmt>2.3 kmh</cmt></trkpt>
<trkpt lat="58.868399" lon="05.874928"><ele>50</ele><time>2012-03-31T14:23:23Z</time><cmt>2.2 kmh</cmt></trkpt>
<trkpt lat="58.868396" lon="05.874923"><ele>51</ele><time>2012-03-31T14:23:24Z</time><cmt>2.1 kmh</cmt></trkpt>
<trkpt lat="58.868392" lon="05.874918"><ele>52</ele><time>2012-03-31T14:23:25Z</time><cmt>1.5 kmh</cmt></trkpt>
<trkpt lat="58.868389" lon="05.874913"><ele>53</ele><time>2012-03-31T14:23:26Z</time><cmt>1.4 kmh</cmt></trkpt>
<trkpt lat="58.868387" lon="05.874909"><ele>53</ele><time>2012-03-31T14:23:27Z</time><cmt>1.5 kmh</cmt></trkpt>
<trkpt lat="58.868384" lon="05.874905"><ele>54</ele><time>2012-03-31T14:23:28Z</time><cmt>1.4 kmh</cmt></trkpt>
<trkpt lat="58.868382" lon="05.874902"><ele>55</ele><time>2012-03-31T14:23:29Z</time><cmt>1.2 kmh</cmt></trkpt>
<trkpt lat="58.868381" lon="05.874899"><ele>56</ele><time>2012-03-31T14:23:30Z</time><cmt>1.0 kmh</cmt></trkpt>
<trkpt lat="58.868381" lon="05.874898"><ele>57</ele><time>2012-03-31T14:23:31Z</time><cmt>0.5 kmh</cmt></trkpt>
<trkpt lat="58.868382" lon="05.874896"><ele>57</ele><time>2012-03-31T14:23:32Z</time><cmt>0.4 kmh</cmt></trkpt>
<trkpt lat="58.868383" lon="05.874895"><ele>58</ele><time>2012-03-31T14:23:33Z</time><cmt>0.4 kmh</cmt></trkpt>
<trkpt lat="58.868383" lon="05.874893"><ele>58</ele><time>2012-03-31T14:23:34Z</time><cmt>0.5 kmh</cmt></trkpt>
<trkpt lat="58.868383" lon="05.874892"><ele>59</ele><time>2012-03-31T14:23:35Z</time><cmt>0.4 kmh</cmt></trkpt>
<trkpt lat="58.868383" lon="05.874890"><ele>59</ele><time>2012-03-31T14:23:36Z</time><cmt>0.4 kmh</cmt></trkpt>
<trkpt lat="58.868383" lon="05.874889"><ele>60</ele><time>2012-03-31T14:23:37Z</time><cmt>0.5 kmh</cmt></trkpt>
<trkpt lat="58.868382" lon="05.874888"><ele>60</ele><time>2012-03-31T14:23:38Z</time><cmt>0.2 kmh</cmt></trkpt>
<trkpt lat="58.868382" lon="05.874886"><ele>60</ele><time>2012-03-31T14:23:39Z</time><cmt>0.0 kmh</cmt></trkpt>
<trkpt lat="58.868382" lon="05.874885"><ele>61</ele><time>2012-03-31T14:23:40Z</time><cmt>0.0 kmh</cmt></trkpt>
<trkpt lat="58.868381" lon="05.874883"><ele>61</ele><time>2012-03-31T14:23:41Z</time><cmt>0.0 kmh</cmt></trkpt>
<trkpt lat="58.868381" lon="05.874882"><ele>61</ele><time>2012-03-31T14:23:42Z</time><cmt>0.2 kmh</cmt></trkpt>
<trkpt lat="58.868380" lon="05.874881"><ele>62</ele><time>2012-03-31T14:23:43Z</time><cmt>0.2 kmh</cmt></trkpt>
<trkpt lat="58.868380" lon="05.874880"><ele>62</ele><time>2012-03-31T14:23:44Z</time><cmt>0.0 kmh</cmt></trkpt>
<trkpt lat="58.868380" lon="05.874879"><ele>62</ele><time>2012-03-31T14:23:45Z</time><cmt>0.1 kmh</cmt></trkpt>
<trkpt lat="58.868380" lon="05.874878"><ele>62</ele><time>2012-03-31T14:23:46Z</time><cmt>0.4 kmh</cmt></trkpt>
<trkpt lat="58.868380" lon="05.874877"><ele>62</ele><time>2012-03-31T14:23:47Z</time><cmt>0.2 kmh</cmt></trkpt>
<trkpt lat="58.868380" lon="05.874877"><ele>63</ele><time>2012-03-31T14:23:48Z</time><cmt>0.0 kmh</cmt></trkpt>
<trkpt lat="58.868381" lon="05.874877"><ele>63</ele><time>2012-03-31T14:23:49Z</time><cmt>0.2 kmh</cmt></trkpt>
<trkpt lat="58.868382" lon="05.874877"><ele>63</ele><time>2012-03-31T14:23:50Z</time><cmt>0.1 kmh</cmt></trkpt>
<trkpt lat="58.868383" lon="05.874879"><ele>63</ele><time>2012-03-31T14:23:51Z</time><cmt>0.4 kmh</cmt></trkpt>
<trkpt lat="58.868386" lon="05.874883"><ele>63</ele><time>2012-03-31T14:23:52Z</time><cmt>1.2 kmh</cmt></trkpt>
<trkpt lat="58.868388" lon="05.874886"><ele>63</ele><time>2012-03-31T14:23:53Z</time><cmt>1.2 kmh</cmt></trkpt>
<trkpt lat="58.868390" lon="05.874890"><ele>63</ele><time>2012-03-31T14:23:54Z</time><cmt>1.2 kmh</cmt></trkpt>
<trkpt lat="58.868393" lon="05.874894"><ele>63</ele><time>2012-03-31T14:23:55Z</time><cmt>1.2 kmh</cmt></trkpt>
<trkpt lat="58.868395" lon="05.874897"><ele>62</ele><time>2012-03-31T14:23:56Z</time><cmt>1.0 kmh</cmt></trkpt>
<trkpt lat="58.868397" lon="05.874901"><ele>62</ele><time>2012-03-31T14:23:57Z</time><cmt>1.0 kmh</cmt></trkpt>
<trkpt lat="58.868400" lon="05.874905"><ele>62</ele><time>2012-03-31T14:23:58Z</time><cmt>1.3 kmh</cmt></trkpt>
<trkpt lat="58.868402" lon="05.874908"><ele>62</ele><time>2012-03-31T14:23:59Z</time><cmt>1.3 kmh</cmt></trkpt>
<trkpt lat="58.868404" lon="05.874912"><ele>62</ele><time>2012-03-31T14:24:00Z</time><cmt>1.2 kmh</cmt></trkpt>
<trkpt lat="58.868406" lon="05.874915"><ele>61</ele><time>2012-03-31T14:24:01Z</time><cmt>1.1 kmh</cmt></trkpt>
<trkpt lat="58.868408" lon="05.874919"><ele>61</ele><time>2012-03-31T14:24:02Z</time><cmt>0.9 kmh</cmt></trkpt>
<trkpt lat="58.868410" lon="05.874922"><ele>61</ele><time>2012-03-31T14:24:03Z</time><cmt>0.9 kmh</cmt></trkpt>
<trkpt lat="58.868412" lon="05.874925"><ele>60</ele><time>2012-03-31T14:24:04Z</time><cmt>1.0 kmh</cmt></trkpt>
<trkpt lat="58.868414" lon="05.874929"><ele>60</ele><time>2012-03-31T14:24:05Z</time><cmt>1.0 kmh</cmt></trkpt>
<trkpt lat="58.868416" lon="05.874932"><ele>59</ele><time>2012-03-31T14:24:06Z</time><cmt>1.1 kmh</cmt></trkpt>
<trkpt lat="58.868417" lon="05.874935"><ele>59</ele><time>2012-03-31T14:24:07Z</time><cmt>1.1 kmh</cmt></trkpt>
<trkpt lat="58.868419" lon="05.874938"><ele>59</ele><time>2012-03-31T14:24:08Z</time><cmt>0.9 kmh</cmt></trkpt>
<trkpt lat="58.868420" lon="05.874941"><ele>58</ele><time>2012-03-31T14:24:09Z</time><cmt>0.7 kmh</cmt></trkpt>
<trkpt lat="58.868421" lon="05.874943"><ele>58</ele><time>2012-03-31T14:24:10Z</time><cmt>0.6 kmh</cmt></trkpt>
<trkpt lat="58.868422" lon="05.874946"><ele>58</ele><time>2012-03-31T14:24:11Z</time><cmt>0.9 kmh</cmt></trkpt>
<trkpt lat="58.868424" lon="05.874950"><ele>57</ele><time>2012-03-31T14:24:12Z</time><cmt>1.1 kmh</cmt></trkpt>
<trkpt lat="58.868427" lon="05.874953"><ele>57</ele><time>2012-03-31T14:24:13Z</time><cmt>1.2 kmh</cmt></trkpt>
<trkpt lat="58.868429" lon="05.874956"><ele>57</ele><time>2012-03-31T14:24:14Z</time><cmt>1.2 kmh</cmt></trkpt>
<trkpt lat="58.868430" lon="05.874959"><ele>56</ele><time>2012-03-31T14:24:15Z</time><cmt>0.8 kmh</cmt></trkpt>
<trkpt lat="58.868432" lon="05.874961"><ele>56</ele><time>2012-03-31T14:24:16Z</time><cmt>0.7 kmh</cmt></trkpt>
<trkpt lat="58.868433" lon="05.874964"><ele>55</ele><time>2012-03-31T14:24:17Z</time><cmt>0.8 kmh</cmt></trkpt>
<trkpt lat="58.868434" lon="05.874966"><ele>55</ele><time>2012-03-31T14:24:18Z</time><cmt>0.7 kmh</cmt></trkpt>
<trkpt lat="58.868436" lon="05.874969"><ele>55</ele><time>2012-03-31T14:24:19Z</time><cmt>0.7 kmh</cmt></trkpt>
<trkpt lat="58.868438" lon="05.874971"><ele>54</ele><time>2012-03-31T14:24:20Z</time><cmt>0.9 kmh</cmt></trkpt>
<trkpt lat="58.868439" lon="05.874974"><ele>54</ele><time>2012-03-31T14:24:21Z</time><cmt>0.8 kmh</cmt></trkpt>
<trkpt lat="58.868441" lon="05.874976"><ele>53</ele><time>2012-03-31T14:24:22Z</time><cmt>0.8 kmh</cmt></trkpt>
<trkpt lat="58.868444" lon="05.874979"><ele>53</ele><time>2012-03-31T14:24:23Z</time><cmt>1.1 kmh</cmt></trkpt>
<trkpt lat="58.868445" lon="05.874982"><ele>53</ele><time>2012-03-31T14:24:24Z</time><cmt>0.9 kmh</cmt></trkpt>
<trkpt lat="58.868447" lon="05.874985"><ele>52</ele><time>2012-03-31T14:24:25Z</time><cmt>0.9 kmh</cmt></trkpt>
<trkpt lat="58.868448" lon="05.874988"><ele>52</ele><time>2012-03-31T14:24:26Z</time><cmt>0.9 kmh</cmt></trkpt>
<trkpt lat="58.868450" lon="05.874990"><ele>51</ele><time>2012-03-31T14:24:27Z</time><cmt>0.8 kmh</cmt></trkpt>
<trkpt lat="58.868451" lon="05.874993"><ele>51</ele><time>2012-03-31T14:24:28Z</time><cmt>0.8 kmh</cmt></trkpt>
<trkpt lat="58.868453" lon="05.874995"><ele>51</ele><time>2012-03-31T14:24:29Z</time><cmt>0.9 kmh</cmt></trkpt>
<trkpt lat="58.868454" lon="05.874997"><ele>50</ele><time>2012-03-31T14:24:30Z</time><cmt>0.8 kmh</cmt></trkpt>
<trkpt lat="58.868456" lon="05.875000"><ele>50</ele><time>2012-03-31T14:24:31Z</time><cmt>0.8 kmh</cmt></trkpt>
<trkpt lat="58.868457" lon="05.875002"><ele>49</ele><time>2012-03-31T14:24:32Z</time><cmt>0.8 kmh</cmt></trkpt>
<trkpt lat="58.868458" lon="05.875004"><ele>49</ele><time>2012-03-31T14:24:33Z</time><cmt>0.6 kmh</cmt></trkpt>
<trkpt lat="58.868460" lon="05.875007"><ele>49</ele><time>2012-03-31T14:24:34Z</time><cmt>0.6 kmh</cmt></trkpt>
<trkpt lat="58.868461" lon="05.875009"><ele>48</ele><time>2012-03-31T14:24:35Z</time><cmt>0.7 kmh</cmt></trkpt>
<trkpt lat="58.868463" lon="05.875011"><ele>48</ele><time>2012-03-31T14:24:36Z</time><cmt>0.7 kmh</cmt></trkpt>
<trkpt lat="58.868464" lon="05.875013"><ele>48</ele><time>2012-03-31T14:24:37Z</time><cmt>0.8 kmh</cmt></trkpt>
<trkpt lat="58.868465" lon="05.875015"><ele>47</ele><time>2012-03-31T14:24:38Z</time><cmt>0.8 kmh</cmt></trkpt>
<trkpt lat="58.868466" lon="05.875018"><ele>47</ele><time>2012-03-31T14:24:39Z</time><cmt>0.7 kmh</cmt></trkpt>
<trkpt lat="58.868468" lon="05.875020"><ele>47</ele><time>2012-03-31T14:24:40Z</time><cmt>0.6 kmh</cmt></trkpt>
<trkpt lat="58.868469" lon="05.875022"><ele>46</ele><time>2012-03-31T14:24:41Z</time><cmt>0.5 kmh</cmt></trkpt>
<trkpt lat="58.868470" lon="05.875024"><ele>46</ele><time>2012-03-31T14:24:42Z</time><cmt>0.7 kmh</cmt></trkpt>
<trkpt lat="58.868471" lon="05.875026"><ele>46</ele><time>2012-03-31T14:24:43Z</time><cmt>0.7 kmh</cmt></trkpt>
<trkpt lat="58.868472" lon="05.875027"><ele>45</ele><time>2012-03-31T14:24:44Z</time><cmt>0.7 kmh</cmt></trkpt>
<trkpt lat="58.868474" lon="05.875029"><ele>45</ele><time>2012-03-31T14:24:45Z</time><cmt>0.7 kmh</cmt></trkpt>
<trkpt lat="58.868475" lon="05.875031"><ele>45</ele><time>2012-03-31T14:24:46Z</time><cmt>0.6 kmh</cmt></trkpt>
<trkpt lat="58.868476" lon="05.875033"><ele>44</ele><time>2012-03-31T14:24:47Z</time><cmt>0.5 kmh</cmt></trkpt>
<trkpt lat="58.868477" lon="05.875035"><ele>44</ele><time>2012-03-31T14:24:48Z</time><cmt>0.6 kmh</cmt></trkpt>
<trkpt lat="58.868478" lon="05.875036"><ele>44</ele><time>2012-03-31T14:24:49Z</time><cmt>0.7 kmh</cmt></trkpt>
<trkpt lat="58.868479" lon="05.875038"><ele>43</ele><time>2012-03-31T14:24:50Z</time><cmt>0.7 kmh</cmt></trkpt>
<trkpt lat="58.868480" lon="05.875040"><ele>43</ele><time>2012-03-31T14:24:51Z</time><cmt>0.6 kmh</cmt></trkpt>
<trkpt lat="58.868481" lon="05.875041"><ele>43</ele><time>2012-03-31T14:24:52Z</time><cmt>0.5 kmh</cmt></trkpt>
<trkpt lat="58.868481" lon="05.875043"><ele>42</ele><time>2012-03-31T14:24:53Z</time><cmt>0.4 kmh</cmt></trkpt>
<trkpt lat="58.868482" lon="05.875045"><ele>42</ele><time>2012-03-31T14:24:54Z</time><cmt>0.4 kmh</cmt></trkpt>
<trkpt lat="58.868483" lon="05.875046"><ele>42</ele><time>2012-03-31T14:24:55Z</time><cmt>0.4 kmh</cmt></trkpt>
<trkpt lat="58.868484" lon="05.875047"><ele>42</ele><time>2012-03-31T14:24:56Z</time><cmt>0.4 kmh</cmt></trkpt>
<trkpt lat="58.868485" lon="05.875049"><ele>41</ele><time>2012-03-31T14:24:57Z</time><cmt>0.5 kmh</cmt></trkpt>
<trkpt lat="58.868486" lon="05.875050"><ele>41</ele><time>2012-03-31T14:24:58Z</time><cmt>0.2 kmh</cmt></trkpt>
<trkpt lat="58.868486" lon="05.875052"><ele>41</ele><time>2012-03-31T14:24:59Z</time><cmt>0.1 kmh</cmt></trkpt>
<trkpt lat="58.868487" lon="05.875053"><ele>40</ele><time>2012-03-31T14:25:00Z</time><cmt>0.4 kmh</cmt></trkpt>
<trkpt lat="58.868488" lon="05.875055"><ele>40</ele><time>2012-03-31T14:25:01Z</time><cmt>0.3 kmh</cmt></trkpt>
<trkpt lat="58.868488" lon="05.875056"><ele>40</ele><time>2012-03-31T14:25:02Z</time><cmt>0.0 kmh</cmt></trkpt>
<trkpt lat="58.868489" lon="05.875057"><ele>40</ele><time>2012-03-31T14:25:03Z</time><cmt>0.2 kmh</cmt></trkpt>
<trkpt lat="58.868489" lon="05.875059"><ele>39</ele><time>2012-03-31T14:25:04Z</time><cmt>0.4 kmh</cmt></trkpt>
<trkpt lat="58.868490" lon="05.875060"><ele>39</ele><time>2012-03-31T14:25:05Z</time><cmt>0.4 kmh</cmt></trkpt>
<trkpt lat="58.868491" lon="05.875061"><ele>39</ele><time>2012-03-31T14:25:06Z</time><cmt>0.4 kmh</cmt></trkpt>
<trkpt lat="58.868491" lon="05.875063"><ele>39</ele><time>2012-03-31T14:25:07Z</time><cmt>0.5 kmh</cmt></trkpt>
<trkpt lat="58.868492" lon="05.875064"><ele>39</ele><time>2012-03-31T14:25:08Z</time><cmt>0.5 kmh</cmt></trkpt>
<trkpt lat="58.868492" lon="05.875065"><ele>38</ele><time>2012-03-31T14:25:09Z</time><cmt>0.4 kmh</cmt></trkpt>
<trkpt lat="58.868493" lon="05.875067"><ele>38</ele><time>2012-03-31T14:25:10Z</time><cmt>0.2 kmh</cmt></trkpt>
<trkpt lat="58.868493" lon="05.875068"><ele>38</ele><time>2012-03-31T14:25:11Z</time><cmt>0.1 kmh</cmt></trkpt>
<trkpt lat="58.868494" lon="05.875070"><ele>38</ele><time>2012-03-31T14:25:12Z</time><cmt>0.3 kmh</cmt></trkpt>
<trkpt lat="58.868494" lon="05.875071"><ele>38</ele><time>2012-03-31T14:25:13Z</time><cmt>0.2 kmh</cmt></trkpt>
<trkpt lat="58.868494" lon="05.875073"><ele>37</ele><time>2012-03-31T14:25:14Z</time><cmt>0.2 kmh</cmt></trkpt>
<trkpt lat="58.868495" lon="05.875074"><ele>37</ele><time>2012-03-31T14:25:15Z</time><cmt>0.2 kmh</cmt></trkpt>
<trkpt lat="58.868495" lon="05.875075"><ele>37</ele><time>2012-03-31T14:25:16Z</time><cmt>0.0 kmh</cmt></trkpt>
<trkpt lat="58.868496" lon="05.875075"><ele>37</ele><time>2012-03-31T14:25:17Z</time><cmt>0.0 kmh</cmt></trkpt>
<trkpt lat="58.868496" lon="05.875076"><ele>37</ele><time>2012-03-31T14:25:18Z</time><cmt>0.1 kmh</cmt></trkpt>
<trkpt lat="58.868497" lon="05.875077"><ele>37</ele><time>2012-03-31T14:25:19Z</time><cmt>0.2 kmh</cmt></trkpt>
<trkpt lat="58.868497" lon="05.875077"><ele>36</ele><time>2012-03-31T14:25:20Z</time><cmt>0.0 kmh</cmt></trkpt>
<trkpt lat="58.868498" lon="05.875078"><ele>36</ele><time>2012-03-31T14:25:21Z</time><cmt>0.0 kmh</cmt></trkpt>
<trkpt lat="58.868498" lon="05.875079"><ele>36</ele><time>2012-03-31T14:25:22Z</time><cmt>0.0 kmh</cmt></trkpt>
<trkpt lat="58.868499" lon="05.875079"><ele>36</ele><time>2012-03-31T14:25:23Z</time><cmt>0.0 kmh</cmt></trkpt>
<trkpt lat="58.868499" lon="05.875080"><ele>36</ele><time>2012-03-31T14:25:24Z</time><cmt>0.0 kmh</cmt></trkpt>
<trkpt lat="58.868500" lon="05.875080"><ele>35</ele><time>2012-03-31T14:25:25Z</time><cmt>0.0 kmh</cmt></trkpt>
<trkpt lat="58.868500" lon="05.875081"><ele>35</ele><time>2012-03-31T14:25:26Z</time><cmt>0.0 kmh</cmt></trkpt>
<trkpt lat="58.868501" lon="05.875082"><ele>35</ele><time>2012-03-31T14:25:27Z</time><cmt>0.0 kmh</cmt></trkpt>
<trkpt lat="58.868501" lon="05.875082"><ele>35</ele><time>2012-03-31T14:25:28Z</time><cmt>0.0 kmh</cmt></trkpt>
<trkpt lat="58.868502" lon="05.875083"><ele>35</ele><time>2012-03-31T14:25:29Z</time><cmt>0.0 kmh</cmt></trkpt>
<trkpt lat="58.868502" lon="05.875083"><ele>35</ele><time>2012-03-31T14:25:30Z</time><cmt>0.0 kmh</cmt></trkpt>
<trkpt lat="58.868502" lon="05.875084"><ele>35</ele><time>2012-03-31T14:25:31Z</time><cmt>0.2 kmh</cmt></trkpt>
<trkpt lat="58.868503" lon="05.875085"><ele>34</ele><time>2012-03-31T14:25:32Z</time><cmt>0.2 kmh</cmt></trkpt>
<trkpt lat="58.868503" lon="05.875085"><ele>34</ele><time>2012-03-31T14:25:33Z</time><cmt>0.0 kmh</cmt></trkpt>
<trkpt lat="58.868503" lon="05.875086"><ele>34</ele><time>2012-03-31T14:25:34Z</time><cmt>0.2 kmh</cmt></trkpt>
<trkpt lat="58.868503" lon="05.875087"><ele>34</ele><time>2012-03-31T14:25:35Z</time><cmt>0.1 kmh</cmt></trkpt>
<trkpt lat="58.868503" lon="05.875088"><ele>34</ele><time>2012-03-31T14:25:36Z</time><cmt>0.0 kmh</cmt></trkpt>
<trkpt lat="58.868503" lon="05.875090"><ele>34</ele><time>2012-03-31T14:25:37Z</time><cmt>0.0 kmh</cmt></trkpt>
<trkpt lat="58.868503" lon="05.875091"><ele>34</ele><time>2012-03-31T14:25:38Z</time><cmt>0.0 kmh</cmt></trkpt>
<trkpt lat="58.868503" lon="05.875092"><ele>34</ele><time>2012-03-31T14:25:39Z</time><cmt>0.3 kmh</cmt></trkpt>
<trkpt lat="58.868503" lon="05.875093"><ele>34</ele><time>2012-03-31T14:25:40Z</time><cmt>0.3 kmh</cmt></trkpt>
<trkpt lat="58.868503" lon="05.875093"><ele>33</ele><time>2012-03-31T14:25:41Z</time><cmt>0.0 kmh</cmt></trkpt>
<trkpt lat="58.868503" lon="05.875094"><ele>33</ele><time>2012-03-31T14:25:42Z</time><cmt>0.0 kmh</cmt></trkpt>
<trkpt lat="58.868503" lon="05.875094"><ele>33</ele><time>2012-03-31T14:25:43Z</time><cmt>0.0 kmh</cmt></trkpt>
<trkpt lat="58.868504" lon="05.875094"><ele>33</ele><time>2012-03-31T14:25:44Z</time><cmt>0.0 kmh</cmt></trkpt>
<trkpt lat="58.868504" lon="05.875094"><ele>33</ele><time>2012-03-31T14:25:45Z</time><cmt>0.0 kmh</cmt></trkpt>
<trkpt lat="58.868504" lon="05.875095"><ele>33</ele><time>2012-03-31T14:25:46Z</time><cmt>0.0 kmh</cmt></trkpt>
<trkpt lat="58.868504" lon="05.875095"><ele>33</ele><time>2012-03-31T14:25:47Z</time><cmt>0.0 kmh</cmt></trkpt>
<trkpt lat="58.868505" lon="05.875095"><ele>33</ele><time>2012-03-31T14:25:48Z</time><cmt>0.0 kmh</cmt></trkpt>
<trkpt lat="58.868505" lon="05.875095"><ele>33</ele><time>2012-03-31T14:25:49Z</time><cmt>0.0 kmh</cmt></trkpt>
<trkpt lat="58.868505" lon="05.875095"><ele>32</ele><time>2012-03-31T14:25:50Z</time><cmt>0.0 kmh</cmt></trkpt>
<trkpt lat="58.868505" lon="05.875095"><ele>32</ele><time>2012-03-31T14:25:51Z</time><cmt>0.0 kmh</cmt></trkpt>
<trkpt lat="58.868506" lon="05.875095"><ele>32</ele><time>2012-03-31T14:25:52Z</time><cmt>0.0 kmh</cmt></trkpt>
<trkpt lat="58.868506" lon="05.875095"><ele>32</ele><time>2012-03-31T14:25:53Z</time><cmt>0.0 kmh</cmt></trkpt>
<trkpt lat="58.868506" lon="05.875096"><ele>32</ele><time>2012-03-31T14:25:54Z</time><cmt>0.1 kmh</cmt></trkpt>
<trkpt lat="58.868507" lon="05.875096"><ele>32</ele><time>2012-03-31T14:25:55Z</time><cmt>0.1 kmh</cmt></trkpt>
<trkpt lat="58.868507" lon="05.875096"><ele>32</ele><time>2012-03-31T14:25:56Z</time><cmt>0.0 kmh</cmt></trkpt>
<trkpt lat="58.868507" lon="05.875096"><ele>32</ele><time>2012-03-31T14:25:57Z</time><cmt>0.0 kmh</cmt></trkpt>
<trkpt lat="58.868508" lon="05.875096"><ele>32</ele><time>2012-03-31T14:25:58Z</time><cmt>0.0 kmh</cmt></trkpt>
<trkpt lat="58.868508" lon="05.875096"><ele>32</ele><time>2012-03-31T14:25:59Z</time><cmt>0.0 kmh</cmt></trkpt>
<trkpt lat="58.868508" lon="05.875096"><ele>32</ele><time>2012-03-31T14:26:00Z</time><cmt>0.0 kmh</cmt></trkpt>
<trkpt lat="58.868509" lon="05.875097"><ele>32</ele><time>2012-03-31T14:26:01Z</time><cmt>0.0 kmh</cmt></trkpt>
<trkpt lat="58.868509" lon="05.875097"><ele>32</ele><time>2012-03-31T14:26:02Z</time><cmt>0.0 kmh</cmt></trkpt>
<trkpt lat="58.868509" lon="05.875097"><ele>32</ele><time>2012-03-31T14:26:03Z</time><cmt>0.0 kmh</cmt></trkpt>
<trkpt lat="58.868510" lon="05.875097"><ele>32</ele><time>2012-03-31T14:26:04Z</time><cmt>0.0 kmh</cmt></trkpt>
<trkpt lat="58.868510" lon="05.875097"><ele>32</ele><time>2012-03-31T14:26:05Z</time><cmt>0.0 kmh</cmt></trkpt>
<trkpt lat="58.868510" lon="05.875097"><ele>31</ele><time>2012-03-31T14:26:06Z</time><cmt>0.0 kmh</cmt></trkpt>
<trkpt lat="58.868511" lon="05.875097"><ele>31</ele><time>2012-03-31T14:26:07Z</time><cmt>0.0 kmh</cmt></trkpt>
<trkpt lat="58.868511" lon="05.875097"><ele>31</ele><time>2012-03-31T14:26:08Z</time><cmt>0.2 kmh</cmt></trkpt>
<trkpt lat="58.868511" lon="05.875097"><ele>31</ele><time>2012-03-31T14:26:09Z</time><cmt>0.2 kmh</cmt></trkpt>
<trkpt lat="58.868512" lon="05.875097"><ele>31</ele><time>2012-03-31T14:26:10Z</time><cmt>0.2 kmh</cmt></trkpt>
<trkpt lat="58.868512" lon="05.875097"><ele>31</ele><time>2012-03-31T14:26:11Z</time><cmt>0.2 kmh</cmt></trkpt>
<trkpt lat="58.868513" lon="05.875097"><ele>31</ele><time>2012-03-31T14:26:12Z</time><cmt>0.3 kmh</cmt></trkpt>
<trkpt lat="58.868513" lon="05.875097"><ele>31</ele><time>2012-03-31T14:26:13Z</time><cmt>0.4 kmh</cmt></trkpt>
<trkpt lat="58.868514" lon="05.875097"><ele>31</ele><time>2012-03-31T14:26:14Z</time><cmt>0.1 kmh</cmt></trkpt>
<trkpt lat="58.868514" lon="05.875097"><ele>31</ele><time>2012-03-31T14:26:15Z</time><cmt>0.0 kmh</cmt></trkpt>
<trkpt lat="58.868515" lon="05.875097"><ele>31</ele><time>2012-03-31T14:26:16Z</time><cmt>0.0 kmh</cmt></trkpt>
<trkpt lat="58.868515" lon="05.875097"><ele>31</ele><time>2012-03-31T14:26:17Z</time><cmt>0.0 kmh</cmt></trkpt>
<trkpt lat="58.868516" lon="05.875097"><ele>31</ele><time>2012-03-31T14:26:18Z</time><cmt>0.0 kmh</cmt></trkpt>
<trkpt lat="58.868516" lon="05.875097"><ele>31</ele><time>2012-03-31T14:26:19Z</time><cmt>0.0 kmh</cmt></trkpt>
<trkpt lat="58.868516" lon="05.875097"><ele>30</ele><time>2012-03-31T14:26:20Z</time><cmt>0.0 kmh</cmt></trkpt>
<trkpt lat="58.868517" lon="05.875097"><ele>30</ele><time>2012-03-31T14:26:21Z</time><cmt>0.0 kmh</cmt></trkpt>
<trkpt lat="58.868517" lon="05.875097"><ele>30</ele><time>2012-03-31T14:26:22Z</time><cmt>0.0 kmh</cmt></trkpt>
<trkpt lat="58.868518" lon="05.875097"><ele>30</ele><time>2012-03-31T14:26:23Z</time><cmt>0.0 kmh</cmt></trkpt>
<trkpt lat="58.868518" lon="05.875097"><ele>30</ele><time>2012-03-31T14:26:24Z</time><cmt>0.0 kmh</cmt></trkpt>
<trkpt lat="58.868518" lon="05.875097"><ele>30</ele><time>2012-03-31T14:26:25Z</time><cmt>0.0 kmh</cmt></trkpt>
<trkpt lat="58.868518" lon="05.875097"><ele>30</ele><time>2012-03-31T14:26:26Z</time><cmt>0.0 kmh</cmt></trkpt>
<trkpt lat="58.868518" lon="05.875097"><ele>30</ele><time>2012-03-31T14:26:27Z</time><cmt>0.0 kmh</cmt></trkpt>
<trkpt lat="58.868519" lon="05.875097"><ele>30</ele><time>2012-03-31T14:26:28Z</time><cmt>0.0 kmh</cmt></trkpt>
<trkpt lat="58.868519" lon="05.875098"><ele>30</ele><time>2012-03-31T14:26:29Z</time><cmt>0.0 kmh</cmt></trkpt>
<trkpt lat="58.868519" lon="05.875098"><ele>30</ele><time>2012-03-31T14:26:30Z</time><cmt>0.0 kmh</cmt></trkpt>
<trkpt lat="58.868519" lon="05.875098"><ele>30</ele><time>2012-03-31T14:26:31Z</time><cmt>0.0 kmh</cmt></trkpt>
<trkpt lat="58.868519" lon="05.875099"><ele>30</ele><time>2012-03-31T14:26:32Z</time><cmt>0.0 kmh</cmt></trkpt>
<trkpt lat="58.868519" lon="05.875099"><ele>30</ele><time>2012-03-31T14:26:33Z</time><cmt>0.0 kmh</cmt></trkpt>
<trkpt lat="58.868519" lon="05.875099"><ele>30</ele><time>2012-03-31T14:26:34Z</time><cmt>0.0 kmh</cmt></trkpt>
<trkpt lat="58.868519" lon="05.875100"><ele>30</ele><time>2012-03-31T14:26:35Z</time><cmt>0.0 kmh</cmt></trkpt>
<trkpt lat="58.868520" lon="05.875100"><ele>30</ele><time>2012-03-31T14:26:36Z</time><cmt>0.0 kmh</cmt></trkpt>
<trkpt lat="58.868520" lon="05.875100"><ele>30</ele><time>2012-03-31T14:26:37Z</time><cmt>0.2 kmh</cmt></trkpt>
<trkpt lat="58.868520" lon="05.875101"><ele>30</ele><time>2012-03-31T14:26:38Z</time><cmt>0.4 kmh</cmt></trkpt>
<trkpt lat="58.868520" lon="05.875102"><ele>30</ele><time>2012-03-31T14:26:39Z</time><cmt>0.5 kmh</cmt></trkpt>
<trkpt lat="58.868520" lon="05.875102"><ele>30</ele><time>2012-03-31T14:26:40Z</time><cmt>0.5 kmh</cmt></trkpt>
<trkpt lat="58.868520" lon="05.875103"><ele>30</ele><time>2012-03-31T14:26:41Z</time><cmt>0.5 kmh</cmt></trkpt>
<trkpt lat="58.868520" lon="05.875103"><ele>30</ele><time>2012-03-31T14:26:42Z</time><cmt>0.5 kmh</cmt></trkpt>
<trkpt lat="58.868520" lon="05.875104"><ele>30</ele><time>2012-03-31T14:26:43Z</time><cmt>0.4 kmh</cmt></trkpt>
<trkpt lat="58.868520" lon="05.875105"><ele>30</ele><time>2012-03-31T14:26:44Z</time><cmt>0.1 kmh</cmt></trkpt>
<trkpt lat="58.868521" lon="05.875106"><ele>30</ele><time>2012-03-31T14:26:45Z</time><cmt>0.2 kmh</cmt></trkpt>
<trkpt lat="58.868521" lon="05.875107"><ele>30</ele><time>2012-03-31T14:26:46Z</time><cmt>0.2 kmh</cmt></trkpt>
<trkpt lat="58.868521" lon="05.875108"><ele>30</ele><time>2012-03-31T14:26:47Z</time><cmt>0.0 kmh</cmt></trkpt>
<trkpt lat="58.868522" lon="05.875109"><ele>30</ele><time>2012-03-31T14:26:48Z</time><cmt>0.0 kmh</cmt></trkpt>
<trkpt lat="58.868522" lon="05.875110"><ele>30</ele><time>2012-03-31T14:26:49Z</time><cmt>0.2 kmh</cmt></trkpt>
<trkpt lat="58.868522" lon="05.875110"><ele>30</ele><time>2012-03-31T14:26:50Z</time><cmt>0.1 kmh</cmt></trkpt>
<trkpt lat="58.868523" lon="05.875111"><ele>30</ele><time>2012-03-31T14:26:51Z</time><cmt>0.0 kmh</cmt></trkpt>
<trkpt lat="58.868523" lon="05.875112"><ele>30</ele><time>2012-03-31T14:26:52Z</time><cmt>0.0 kmh</cmt></trkpt>
<trkpt lat="58.868523" lon="05.875112"><ele>30</ele><time>2012-03-31T14:26:53Z</time><cmt>0.0 kmh</cmt></trkpt>
<trkpt lat="58.868523" lon="05.875113"><ele>30</ele><time>2012-03-31T14:26:54Z</time><cmt>0.0 kmh</cmt></trkpt>
<trkpt lat="58.868523" lon="05.875113"><ele>30</ele><time>2012-03-31T14:26:55Z</time><cmt>0.2 kmh</cmt></trkpt>
<trkpt lat="58.868522" lon="05.875113"><ele>30</ele><time>2012-03-31T14:26:56Z</time><cmt>0.1 kmh</cmt></trkpt>
<trkpt lat="58.868522" lon="05.875114"><ele>30</ele><time>2012-03-31T14:26:57Z</time><cmt>0.0 kmh</cmt></trkpt>
<trkpt lat="58.868522" lon="05.875114"><ele>30</ele><time>2012-03-31T14:26:58Z</time><cmt>0.0 kmh</cmt></trkpt>
<trkpt lat="58.868522" lon="05.875114"><ele>30</ele><time>2012-03-31T14:26:59Z</time><cmt>0.0 kmh</cmt></trkpt>
<trkpt lat="58.868522" lon="05.875115"><ele>30</ele><time>2012-03-31T14:27:00Z</time><cmt>0.0 kmh</cmt></trkpt>
<trkpt lat="58.868522" lon="05.875115"><ele>30</ele><time>2012-03-31T14:27:01Z</time><cmt>0.0 kmh</cmt></trkpt>
<trkpt lat="58.868522" lon="05.875115"><ele>30</ele><time>2012-03-31T14:27:02Z</time><cmt>0.1 kmh</cmt></trkpt>
<trkpt lat="58.868522" lon="05.875115"><ele>30</ele><time>2012-03-31T14:27:03Z</time><cmt>0.3 kmh</cmt></trkpt>
<trkpt lat="58.868522" lon="05.875115"><ele>30</ele><time>2012-03-31T14:27:04Z</time><cmt>0.2 kmh</cmt></trkpt>
<trkpt lat="58.868522" lon="05.875115"><ele>30</ele><time>2012-03-31T14:27:05Z</time><cmt>0.0 kmh</cmt></trkpt>
<trkpt lat="58.868522" lon="05.875116"><ele>30</ele><time>2012-03-31T14:27:06Z</time><cmt>0.0 kmh</cmt></trkpt>
<trkpt lat="58.868522" lon="05.875116"><ele>30</ele><time>2012-03-31T14:27:07Z</time><cmt>0.0 kmh</cmt></trkpt>
<trkpt lat="58.868522" lon="05.875116"><ele>30</ele><time>2012-03-31T14:27:08Z</time><cmt>0.0 kmh</cmt></trkpt>
<trkpt lat="58.868521" lon="05.875116"><ele>29</ele><time>2012-03-31T14:27:09Z</time><cmt>0.0 kmh</cmt></trkpt>
<trkpt lat="58.868521" lon="05.875116"><ele>29</ele><time>2012-03-31T14:27:10Z</time><cmt>0.0 kmh</cmt></trkpt>
<trkpt lat="58.868521" lon="05.875116"><ele>29</ele><time>2012-03-31T14:27:11Z</time><cmt>0.0 kmh</cmt></trkpt>
<trkpt lat="58.868521" lon="05.875116"><ele>29</ele><time>2012-03-31T14:27:12Z</time><cmt>0.0 kmh</cmt></trkpt>
<trkpt lat="58.868521" lon="05.875116"><ele>29</ele><time>2012-03-31T14:27:13Z</time><cmt>0.0 kmh</cmt></trkpt>
<trkpt lat="58.868521" lon="05.875116"><ele>29</ele><time>2012-03-31T14:27:14Z</time><cmt>0.0 kmh</cmt></trkpt>
<trkpt lat="58.868521" lon="05.875116"><ele>29</ele><time>2012-03-31T14:27:15Z</time><cmt>0.0 kmh</cmt></trkpt>
<trkpt lat="58.868521" lon="05.875116"><ele>29</ele><time>2012-03-31T14:27:16Z</time><cmt>0.0 kmh</cmt></trkpt>
<trkpt lat="58.868521" lon="05.875117"><ele>29</ele><time>2012-03-31T14:27:17Z</time><cmt>0.0 kmh</cmt></trkpt>
<trkpt lat="58.868521" lon="05.875117"><ele>29</ele><time>2012-03-31T14:27:18Z</time><cmt>0.2 kmh</cmt></trkpt>
<trkpt lat="58.868521" lon="05.875117"><ele>29</ele><time>2012-03-31T14:27:19Z</time><cmt>0.2 kmh</cmt></trkpt>
<trkpt lat="58.868521" lon="05.875117"><ele>29</ele><time>2012-03-31T14:27:20Z</time><cmt>0.0 kmh</cmt></trkpt>
<trkpt lat="58.868521" lon="05.875118"><ele>29</ele><time>2012-03-31T14:27:21Z</time><cmt>0.0 kmh</cmt></trkpt>
<trkpt lat="58.868521" lon="05.875118"><ele>29</ele><time>2012-03-31T14:27:22Z</time><cmt>0.0 kmh</cmt></trkpt>
<trkpt lat="58.868521" lon="05.875118"><ele>29</ele><time>2012-03-31T14:27:23Z</time><cmt>0.0 kmh</cmt></trkpt>
<trkpt lat="58.868521" lon="05.875118"><ele>29</ele><time>2012-03-31T14:27:24Z</time><cmt>0.0 kmh</cmt></trkpt>
<trkpt lat="58.868521" lon="05.875119"><ele>29</ele><time>2012-03-31T14:27:25Z</time><cmt>0.0 kmh</cmt></trkpt>
<trkpt lat="58.868521" lon="05.875119"><ele>29</ele><time>2012-03-31T14:27:26Z</time><cmt>0.2 kmh</cmt></trkpt>
<trkpt lat="58.868521" lon="05.875119"><ele>29</ele><time>2012-03-31T14:27:27Z</time><cmt>0.1 kmh</cmt></trkpt>
<trkpt lat="58.868521" lon="05.875120"><ele>29</ele><time>2012-03-31T14:27:28Z</time><cmt>0.0 kmh</cmt></trkpt>
<trkpt lat="58.868521" lon="05.875120"><ele>29</ele><time>2012-03-31T14:27:29Z</time><cmt>0.0 kmh</cmt></trkpt>
<trkpt lat="58.868521" lon="05.875120"><ele>29</ele><time>2012-03-31T14:27:30Z</time><cmt>0.0 kmh</cmt></trkpt>
<trkpt lat="58.868521" lon="05.875121"><ele>29</ele><time>2012-03-31T14:27:31Z</time><cmt>0.2 kmh</cmt></trkpt>
<trkpt lat="58.868521" lon="05.875121"><ele>29</ele><time>2012-03-31T14:27:32Z</time><cmt>0.4 kmh</cmt></trkpt>
<trkpt lat="58.868521" lon="05.875122"><ele>29</ele><time>2012-03-31T14:27:33Z</time><cmt>0.3 kmh</cmt></trkpt>
<trkpt lat="58.868521" lon="05.875122"><ele>29</ele><time>2012-03-31T14:27:34Z</time><cmt>0.1 kmh</cmt></trkpt>
<trkpt lat="58.868521" lon="05.875123"><ele>29</ele><time>2012-03-31T14:27:35Z</time><cmt>0.0 kmh</cmt></trkpt>
<trkpt lat="58.868520" lon="05.875123"><ele>29</ele><time>2012-03-31T14:27:36Z</time><cmt>0.0 kmh</cmt></trkpt>
<trkpt lat="58.868520" lon="05.875124"><ele>29</ele><time>2012-03-31T14:27:37Z</time><cmt>0.0 kmh</cmt></trkpt>
<trkpt lat="58.868520" lon="05.875125"><ele>29</ele><time>2012-03-31T14:27:38Z</time><cmt>0.0 kmh</cmt></trkpt>
<trkpt lat="58.868520" lon="05.875125"><ele>29</ele><time>2012-03-31T14:27:39Z</time><cmt>0.0 kmh</cmt></trkpt>
<trkpt lat="58.868520" lon="05.875126"><ele>28</ele><time>2012-03-31T14:27:40Z</time><cmt>0.0 kmh</cmt></trkpt>
<trkpt lat="58.868520" lon="05.875126"><ele>28</ele><time>2012-03-31T14:27:41Z</time><cmt>0.0 kmh</cmt></trkpt>
<trkpt lat="58.868520" lon="05.875127"><ele>28</ele><time>2012-03-31T14:27:42Z</time><cmt>0.0 kmh</cmt></trkpt>
<trkpt lat="58.868520" lon="05.875127"><ele>28</ele><time>2012-03-31T14:27:43Z</time><cmt>0.0 kmh</cmt></trkpt>
<trkpt lat="58.868520" lon="05.875127"><ele>28</ele><time>2012-03-31T14:27:44Z</time><cmt>0.0 kmh</cmt></trkpt>
<trkpt lat="58.868520" lon="05.875127"><ele>28</ele><time>2012-03-31T14:27:45Z</time><cmt>0.0 kmh</cmt></trkpt>
<trkpt lat="58.868520" lon="05.875128"><ele>28</ele><time>2012-03-31T14:27:46Z</time><cmt>0.0 kmh</cmt></trkpt>
<trkpt lat="58.868520" lon="05.875128"><ele>28</ele><time>2012-03-31T14:27:47Z</time><cmt>0.0 kmh</cmt></trkpt>
<trkpt lat="58.868520" lon="05.875128"><ele>28</ele><time>2012-03-31T14:27:48Z</time><cmt>0.0 kmh</cmt></trkpt>
<trkpt lat="58.868520" lon="05.875129"><ele>28</ele><time>2012-03-31T14:27:49Z</time><cmt>0.0 kmh</cmt></trkpt>
<trkpt lat="58.868520" lon="05.875129"><ele>28</ele><time>2012-03-31T14:27:50Z</time><cmt>0.0 kmh</cmt></trkpt>
<trkpt lat="58.868520" lon="05.875129"><ele>28</ele><time>2012-03-31T14:27:51Z</time><cmt>0.0 kmh</cmt></trkpt>
<trkpt lat="58.868520" lon="05.875130"><ele>28</ele><time>2012-03-31T14:27:52Z</time><cmt>0.0 kmh</cmt></trkpt>
<trkpt lat="58.868520" lon="05.875130"><ele>28</ele><time>2012-03-31T14:27:53Z</time><cmt>0.0 kmh</cmt></trkpt>
<trkpt lat="58.868519" lon="05.875130"><ele>28</ele><time>2012-03-31T14:27:54Z</time><cmt>0.0 kmh</cmt></trkpt>
<trkpt lat="58.868519" lon="05.875131"><ele>28</ele><time>2012-03-31T14:27:55Z</time><cmt>0.0 kmh</cmt></trkpt>
<trkpt lat="58.868519" lon="05.875131"><ele>28</ele><time>2012-03-31T14:27:56Z</time><cmt>0.0 kmh</cmt></trkpt>
<trkpt lat="58.868519" lon="05.875131"><ele>28</ele><time>2012-03-31T14:27:58Z</time><cmt>0.0 kmh</cmt></trkpt>
<trkpt lat="58.868520" lon="05.875130"><ele>28</ele><time>2012-03-31T14:27:59Z</time><cmt>0.0 kmh</cmt></trkpt>
<trkpt lat="58.868520" lon="05.875130"><ele>28</ele><time>2012-03-31T14:28:00Z</time><cmt>0.0 kmh</cmt></trkpt>
<trkpt lat="58.868520" lon="05.875130"><ele>28</ele><time>2012-03-31T14:28:01Z</time><cmt>0.0 kmh</cmt></trkpt>
<trkpt lat="58.868520" lon="05.875129"><ele>28</ele><time>2012-03-31T14:28:02Z</time><cmt>0.0 kmh</cmt></trkpt>
<trkpt lat="58.868520" lon="05.875129"><ele>27</ele><time>2012-03-31T14:28:03Z</time><cmt>0.2 kmh</cmt></trkpt>
<trkpt lat="58.868520" lon="05.875129"><ele>27</ele><time>2012-03-31T14:28:04Z</time><cmt>0.1 kmh</cmt></trkpt>
<trkpt lat="58.868520" lon="05.875128"><ele>27</ele><time>2012-03-31T14:28:05Z</time><cmt>0.0 kmh</cmt></trkpt>
<trkpt lat="58.868521" lon="05.875128"><ele>27</ele><time>2012-03-31T14:28:06Z</time><cmt>0.0 kmh</cmt></trkpt>
<trkpt lat="58.868521" lon="05.875128"><ele>27</ele><time>2012-03-31T14:28:07Z</time><cmt>0.0 kmh</cmt></trkpt>
<trkpt lat="58.868521" lon="05.875127"><ele>27</ele><time>2012-03-31T14:28:08Z</time><cmt>0.0 kmh</cmt></trkpt>
<trkpt lat="58.868521" lon="05.875127"><ele>27</ele><time>2012-03-31T14:28:09Z</time><cmt>0.0 kmh</cmt></trkpt>
<trkpt lat="58.868521" lon="05.875127"><ele>27</ele><time>2012-03-31T14:28:10Z</time><cmt>0.0 kmh</cmt></trkpt>
<trkpt lat="58.868521" lon="05.875126"><ele>27</ele><time>2012-03-31T14:28:11Z</time><cmt>0.0 kmh</cmt></trkpt>
<trkpt lat="58.868521" lon="05.875126"><ele>27</ele><time>2012-03-31T14:28:12Z</time><cmt>0.0 kmh</cmt></trkpt>
<trkpt lat="58.868521" lon="05.875126"><ele>27</ele><time>2012-03-31T14:28:13Z</time><cmt>0.0 kmh</cmt></trkpt>
<trkpt lat="58.868522" lon="05.875125"><ele>27</ele><time>2012-03-31T14:28:14Z</time><cmt>0.0 kmh</cmt></trkpt>
<trkpt lat="58.868522" lon="05.875125"><ele>27</ele><time>2012-03-31T14:28:15Z</time><cmt>0.0 kmh</cmt></trkpt>
<trkpt lat="58.868522" lon="05.875125"><ele>27</ele><time>2012-03-31T14:28:16Z</time><cmt>0.0 kmh</cmt></trkpt>
<trkpt lat="58.868522" lon="05.875125"><ele>27</ele><time>2012-03-31T14:28:18Z</time><cmt>0.0 kmh</cmt></trkpt>
<trkpt lat="58.868521" lon="05.875125"><ele>27</ele><time>2012-03-31T14:28:19Z</time><cmt>0.0 kmh</cmt></trkpt>
<trkpt lat="58.868521" lon="05.875126"><ele>27</ele><time>2012-03-31T14:28:20Z</time><cmt>0.0 kmh</cmt></trkpt>
<trkpt lat="58.868521" lon="05.875126"><ele>27</ele><time>2012-03-31T14:28:21Z</time><cmt>0.0 kmh</cmt></trkpt>
<trkpt lat="58.868521" lon="05.875126"><ele>27</ele><time>2012-03-31T14:28:22Z</time><cmt>0.0 kmh</cmt></trkpt>
<trkpt lat="58.868522" lon="05.875126"><ele>27</ele><time>2012-03-31T14:28:23Z</time><cmt>0.0 kmh</cmt></trkpt>
<trkpt lat="58.868522" lon="05.875126"><ele>27</ele><time>2012-03-31T14:28:24Z</time><cmt>0.0 kmh</cmt></trkpt>
<trkpt lat="58.868522" lon="05.875126"><ele>27</ele><time>2012-03-31T14:28:25Z</time><cmt>0.0 kmh</cmt></trkpt>
<trkpt lat="58.868522" lon="05.875126"><ele>27</ele><time>2012-03-31T14:28:26Z</time><cmt>0.0 kmh</cmt></trkpt>
<trkpt lat="58.868522" lon="05.875126"><ele>27</ele><time>2012-03-31T14:28:27Z</time><cmt>0.0 kmh</cmt></trkpt>
<trkpt lat="58.868522" lon="05.875125"><ele>27</ele><time>2012-03-31T14:28:28Z</time><cmt>0.0 kmh</cmt></trkpt>
<trkpt lat="58.868521" lon="05.875125"><ele>27</ele><time>2012-03-31T14:28:29Z</time><cmt>0.0 kmh</cmt></trkpt>
<trkpt lat="58.868521" lon="05.875125"><ele>27</ele><time>2012-03-31T14:28:30Z</time><cmt>0.0 kmh</cmt></trkpt>
<trkpt lat="58.868521" lon="05.875124"><ele>27</ele><time>2012-03-31T14:28:31Z</time><cmt>0.0 kmh</cmt></trkpt>
<trkpt lat="58.868521" lon="05.875124"><ele>27</ele><time>2012-03-31T14:28:32Z</time><cmt>0.0 kmh</cmt></trkpt>
<trkpt lat="58.868520" lon="05.875124"><ele>27</ele><time>2012-03-31T14:28:33Z</time><cmt>0.0 kmh</cmt></trkpt>
<trkpt lat="58.868520" lon="05.875123"><ele>27</ele><time>2012-03-31T14:28:34Z</time><cmt>0.0 kmh</cmt></trkpt>
<trkpt lat="58.868520" lon="05.875123"><ele>27</ele><time>2012-03-31T14:28:35Z</time><cmt>0.0 kmh</cmt></trkpt>
<trkpt lat="58.868520" lon="05.875122"><ele>27</ele><time>2012-03-31T14:28:36Z</time><cmt>0.0 kmh</cmt></trkpt>
<trkpt lat="58.868519" lon="05.875122"><ele>27</ele><time>2012-03-31T14:28:37Z</time><cmt>0.0 kmh</cmt></trkpt>
<trkpt lat="58.868519" lon="05.875122"><ele>27</ele><time>2012-03-31T14:28:38Z</time><cmt>0.0 kmh</cmt></trkpt>
<trkpt lat="58.868519" lon="05.875121"><ele>27</ele><time>2012-03-31T14:28:39Z</time><cmt>0.0 kmh</cmt></trkpt>
<trkpt lat="58.868518" lon="05.875121"><ele>27</ele><time>2012-03-31T14:28:40Z</time><cmt>0.0 kmh</cmt></trkpt>
<trkpt lat="58.868518" lon="05.875121"><ele>27</ele><time>2012-03-31T14:28:41Z</time><cmt>0.0 kmh</cmt></trkpt>
<trkpt lat="58.868518" lon="05.875120"><ele>27</ele><time>2012-03-31T14:28:42Z</time><cmt>0.0 kmh</cmt></trkpt>
<trkpt lat="58.868518" lon="05.875120"><ele>27</ele><time>2012-03-31T14:28:43Z</time><cmt>0.0 kmh</cmt></trkpt>
<trkpt lat="58.868517" lon="05.875119"><ele>27</ele><time>2012-03-31T14:28:44Z</time><cmt>0.0 kmh</cmt></trkpt>
<trkpt lat="58.868517" lon="05.875119"><ele>27</ele><time>2012-03-31T14:28:45Z</time><cmt>0.0 kmh</cmt></trkpt>
<trkpt lat="58.868517" lon="05.875118"><ele>27</ele><time>2012-03-31T14:28:46Z</time><cmt>0.0 kmh</cmt></trkpt>
<trkpt lat="58.868516" lon="05.875118"><ele>27</ele><time>2012-03-31T14:28:47Z</time><cmt>0.0 kmh</cmt></trkpt>
<trkpt lat="58.868516" lon="05.875117"><ele>27</ele><time>2012-03-31T14:28:48Z</time><cmt>0.0 kmh</cmt></trkpt>
<trkpt lat="58.868516" lon="05.875117"><ele>27</ele><time>2012-03-31T14:28:49Z</time><cmt>0.0 kmh</cmt></trkpt>
<trkpt lat="58.868516" lon="05.875116"><ele>28</ele><time>2012-03-31T14:28:50Z</time><cmt>0.0 kmh</cmt></trkpt>
<trkpt lat="58.868516" lon="05.875116"><ele>28</ele><time>2012-03-31T14:28:51Z</time><cmt>0.0 kmh</cmt></trkpt>
<trkpt lat="58.868515" lon="05.875115"><ele>28</ele><time>2012-03-31T14:28:52Z</time><cmt>0.0 kmh</cmt></trkpt>
<trkpt lat="58.868515" lon="05.875115"><ele>28</ele><time>2012-03-31T14:28:53Z</time><cmt>0.0 kmh</cmt></trkpt>
<trkpt lat="58.868515" lon="05.875114"><ele>28</ele><time>2012-03-31T14:28:54Z</time><cmt>0.0 kmh</cmt></trkpt>
<trkpt lat="58.868515" lon="05.875114"><ele>28</ele><time>2012-03-31T14:28:55Z</time><cmt>0.0 kmh</cmt></trkpt>
<trkpt lat="58.868515" lon="05.875114"><ele>28</ele><time>2012-03-31T14:28:56Z</time><cmt>0.0 kmh</cmt></trkpt>
<trkpt lat="58.868514" lon="05.875113"><ele>28</ele><time>2012-03-31T14:28:57Z</time><cmt>0.0 kmh</cmt></trkpt>
<trkpt lat="58.868514" lon="05.875113"><ele>28</ele><time>2012-03-31T14:28:58Z</time><cmt>0.0 kmh</cmt></trkpt>
<trkpt lat="58.868514" lon="05.875112"><ele>28</ele><time>2012-03-31T14:28:59Z</time><cmt>0.0 kmh</cmt></trkpt>
<trkpt lat="58.868514" lon="05.875112"><ele>28</ele><time>2012-03-31T14:29:00Z</time><cmt>0.0 kmh</cmt></trkpt>
<trkpt lat="58.868513" lon="05.875112"><ele>28</ele><time>2012-03-31T14:29:01Z</time><cmt>0.0 kmh</cmt></trkpt>
<trkpt lat="58.868513" lon="05.875112"><ele>28</ele><time>2012-03-31T14:29:02Z</time><cmt>0.0 kmh</cmt></trkpt>
<trkpt lat="58.868513" lon="05.875111"><ele>28</ele><time>2012-03-31T14:29:03Z</time><cmt>0.0 kmh</cmt></trkpt>
<trkpt lat="58.868513" lon="05.875111"><ele>28</ele><time>2012-03-31T14:29:04Z</time><cmt>0.0 kmh</cmt></trkpt>
<trkpt lat="58.868512" lon="05.875111"><ele>29</ele><time>2012-03-31T14:29:05Z</time><cmt>0.0 kmh</cmt></trkpt>
<trkpt lat="58.868512" lon="05.875111"><ele>29</ele><time>2012-03-31T14:29:06Z</time><cmt>0.0 kmh</cmt></trkpt>
<trkpt lat="58.868512" lon="05.875110"><ele>29</ele><time>2012-03-31T14:29:07Z</time><cmt>0.0 kmh</cmt></trkpt>
<trkpt lat="58.868512" lon="05.875110"><ele>29</ele><time>2012-03-31T14:29:08Z</time><cmt>0.0 kmh</cmt></trkpt>
<trkpt lat="58.868512" lon="05.875110"><ele>29</ele><time>2012-03-31T14:29:09Z</time><cmt>0.0 kmh</cmt></trkpt>
<trkpt lat="58.868511" lon="05.875110"><ele>29</ele><time>2012-03-31T14:29:10Z</time><cmt>0.2 kmh</cmt></trkpt>
<trkpt lat="58.868511" lon="05.875110"><ele>29</ele><time>2012-03-31T14:29:11Z</time><cmt>0.2 kmh</cmt></trkpt>
<trkpt lat="58.868511" lon="05.875110"><ele>29</ele><time>2012-03-31T14:29:12Z</time><cmt>0.0 kmh</cmt></trkpt>
<trkpt lat="58.868511" lon="05.875109"><ele>29</ele><time>2012-03-31T14:29:13Z</time><cmt>0.0 kmh</cmt></trkpt>
<trkpt lat="58.868510" lon="05.875109"><ele>29</ele><time>2012-03-31T14:29:14Z</time><cmt>0.0 kmh</cmt></trkpt>
<trkpt lat="58.868510" lon="05.875109"><ele>29</ele><time>2012-03-31T14:29:15Z</time><cmt>0.0 kmh</cmt></trkpt>
<trkpt lat="58.868510" lon="05.875109"><ele>29</ele><time>2012-03-31T14:29:16Z</time><cmt>0.0 kmh</cmt></trkpt>
<trkpt lat="58.868510" lon="05.875109"><ele>29</ele><time>2012-03-31T14:29:17Z</time><cmt>0.0 kmh</cmt></trkpt>
<trkpt lat="58.868510" lon="05.875109"><ele>29</ele><time>2012-03-31T14:29:18Z</time><cmt>0.0 kmh</cmt></trkpt>
<trkpt lat="58.868510" lon="05.875108"><ele>30</ele><time>2012-03-31T14:29:19Z</time><cmt>0.0 kmh</cmt></trkpt>
<trkpt lat="58.868510" lon="05.875108"><ele>30</ele><time>2012-03-31T14:29:20Z</time><cmt>0.0 kmh</cmt></trkpt>
<trkpt lat="58.868510" lon="05.875108"><ele>30</ele><time>2012-03-31T14:29:21Z</time><cmt>0.0 kmh</cmt></trkpt>
<trkpt lat="58.868510" lon="05.875108"><ele>30</ele><time>2012-03-31T14:29:22Z</time><cmt>0.0 kmh</cmt></trkpt>
<trkpt lat="58.868510" lon="05.875108"><ele>30</ele><time>2012-03-31T14:29:23Z</time><cmt>0.3 kmh</cmt></trkpt>
<trkpt lat="58.868510" lon="05.875107"><ele>30</ele><time>2012-03-31T14:29:24Z</time><cmt>0.5 kmh</cmt></trkpt>
<trkpt lat="58.868510" lon="05.875107"><ele>30</ele><time>2012-03-31T14:29:25Z</time><cmt>0.2 kmh</cmt></trkpt>
<trkpt lat="58.868510" lon="05.875107"><ele>30</ele><time>2012-03-31T14:29:26Z</time><cmt>0.0 kmh</cmt></trkpt>
<trkpt lat="58.868510" lon="05.875106"><ele>30</ele><time>2012-03-31T14:29:27Z</time><cmt>0.0 kmh</cmt></trkpt>
<trkpt lat="58.868510" lon="05.875106"><ele>30</ele><time>2012-03-31T14:29:28Z</time><cmt>0.0 kmh</cmt></trkpt>
<trkpt lat="58.868510" lon="05.875105"><ele>30</ele><time>2012-03-31T14:29:29Z</time><cmt>0.0 kmh</cmt></trkpt>
<trkpt lat="58.868510" lon="05.875105"><ele>30</ele><time>2012-03-31T14:29:30Z</time><cmt>0.0 kmh</cmt></trkpt>
<trkpt lat="58.868510" lon="05.875105"><ele>30</ele><time>2012-03-31T14:29:31Z</time><cmt>0.0 kmh</cmt></trkpt>
<trkpt lat="58.868510" lon="05.875104"><ele>30</ele><time>2012-03-31T14:29:32Z</time><cmt>0.0 kmh</cmt></trkpt>
<trkpt lat="58.868510" lon="05.875104"><ele>30</ele><time>2012-03-31T14:29:33Z</time><cmt>0.0 kmh</cmt></trkpt>
<trkpt lat="58.868510" lon="05.875103"><ele>30</ele><time>2012-03-31T14:29:34Z</time><cmt>0.0 kmh</cmt></trkpt>
<trkpt lat="58.868510" lon="05.875103"><ele>30</ele><time>2012-03-31T14:29:35Z</time><cmt>0.0 kmh</cmt></trkpt>
<trkpt lat="58.868510" lon="05.875103"><ele>30</ele><time>2012-03-31T14:29:36Z</time><cmt>0.0 kmh</cmt></trkpt>
<trkpt lat="58.868510" lon="05.875102"><ele>30</ele><time>2012-03-31T14:29:37Z</time><cmt>0.0 kmh</cmt></trkpt>
<trkpt lat="58.868510" lon="05.875102"><ele>30</ele><time>2012-03-31T14:29:38Z</time><cmt>0.0 kmh</cmt></trkpt>
<trkpt lat="58.868509" lon="05.875102"><ele>30</ele><time>2012-03-31T14:29:39Z</time><cmt>0.0 kmh</cmt></trkpt>
<trkpt lat="58.868509" lon="05.875101"><ele>30</ele><time>2012-03-31T14:29:40Z</time><cmt>0.0 kmh</cmt></trkpt>
<trkpt lat="58.868509" lon="05.875101"><ele>30</ele><time>2012-03-31T14:29:41Z</time><cmt>0.0 kmh</cmt></trkpt>
<trkpt lat="58.868509" lon="05.875100"><ele>30</ele><time>2012-03-31T14:29:42Z</time><cmt>0.0 kmh</cmt></trkpt>
<trkpt lat="58.868509" lon="05.875100"><ele>30</ele><time>2012-03-31T14:29:43Z</time><cmt>0.1 kmh</cmt></trkpt>
<trkpt lat="58.868509" lon="05.875100"><ele>30</ele><time>2012-03-31T14:29:44Z</time><cmt>0.1 kmh</cmt></trkpt>
<trkpt lat="58.868509" lon="05.875099"><ele>30</ele><time>2012-03-31T14:29:45Z</time><cmt>0.0 kmh</cmt></trkpt>
<trkpt lat="58.868509" lon="05.875099"><ele>30</ele><time>2012-03-31T14:29:46Z</time><cmt>0.0 kmh</cmt></trkpt>
<trkpt lat="58.868509" lon="05.875099"><ele>31</ele><time>2012-03-31T14:29:47Z</time><cmt>0.0 kmh</cmt></trkpt>
<trkpt lat="58.868509" lon="05.875099"><ele>31</ele><time>2012-03-31T14:29:48Z</time><cmt>0.0 kmh</cmt></trkpt>
<trkpt lat="58.868509" lon="05.875098"><ele>31</ele><time>2012-03-31T14:29:49Z</time><cmt>0.0 kmh</cmt></trkpt>
<trkpt lat="58.868509" lon="05.875098"><ele>31</ele><time>2012-03-31T14:29:50Z</time><cmt>0.0 kmh</cmt></trkpt>
<trkpt lat="58.868509" lon="05.875098"><ele>31</ele><time>2012-03-31T14:29:51Z</time><cmt>0.0 kmh</cmt></trkpt>
<trkpt lat="58.868509" lon="05.875097"><ele>31</ele><time>2012-03-31T14:29:52Z</time><cmt>0.0 kmh</cmt></trkpt>
<trkpt lat="58.868510" lon="05.875097"><ele>31</ele><time>2012-03-31T14:29:53Z</time><cmt>0.0 kmh</cmt></trkpt>
<trkpt lat="58.868510" lon="05.875097"><ele>31</ele><time>2012-03-31T14:29:54Z</time><cmt>0.0 kmh</cmt></trkpt>
<trkpt lat="58.868510" lon="05.875097"><ele>31</ele><time>2012-03-31T14:29:55Z</time><cmt>0.0 kmh</cmt></trkpt>
<trkpt lat="58.868510" lon="05.875096"><ele>31</ele><time>2012-03-31T14:29:56Z</time><cmt>0.0 kmh</cmt></trkpt>
<trkpt lat="58.868510" lon="05.875096"><ele>31</ele><time>2012-03-31T14:29:57Z</time><cmt>0.0 kmh</cmt></trkpt>
<trkpt lat="58.868511" lon="05.875096"><ele>31</ele><time>2012-03-31T14:29:58Z</time><cmt>0.0 kmh</cmt></trkpt>
<trkpt lat="58.868511" lon="05.875096"><ele>31</ele><time>2012-03-31T14:29:59Z</time><cmt>0.2 kmh</cmt></trkpt>
<trkpt lat="58.868511" lon="05.875095"><ele>31</ele><time>2012-03-31T14:30:00Z</time><cmt>0.2 kmh</cmt></trkpt>
<trkpt lat="58.868511" lon="05.875095"><ele>31</ele><time>2012-03-31T14:30:01Z</time><cmt>0.0 kmh</cmt></trkpt>
<trkpt lat="58.868511" lon="05.875095"><ele>31</ele><time>2012-03-31T14:30:02Z</time><cmt>0.0 kmh</cmt></trkpt>
<trkpt lat="58.868512" lon="05.875095"><ele>31</ele><time>2012-03-31T14:30:03Z</time><cmt>0.1 kmh</cmt></trkpt>
<trkpt lat="58.868512" lon="05.875094"><ele>31</ele><time>2012-03-31T14:30:04Z</time><cmt>0.2 kmh</cmt></trkpt>
<trkpt lat="58.868512" lon="05.875094"><ele>31</ele><time>2012-03-31T14:30:05Z</time><cmt>0.0 kmh</cmt></trkpt>
<trkpt lat="58.868510" lon="05.875091"><ele>31</ele><time>2012-03-31T14:30:06Z</time><cmt>0.6 kmh</cmt></trkpt>
<trkpt lat="58.868505" lon="05.875086"><ele>31</ele><time>2012-03-31T14:30:07Z</time><cmt>1.8 kmh</cmt></trkpt>
<trkpt lat="58.868504" lon="05.875084"><ele>31</ele><time>2012-03-31T14:30:08Z</time><cmt>1.2 kmh</cmt></trkpt>
<trkpt lat="58.868503" lon="05.875083"><ele>31</ele><time>2012-03-31T14:30:09Z</time><cmt>0.2 kmh</cmt></trkpt>
<trkpt lat="58.868505" lon="05.875083"><ele>31</ele><time>2012-03-31T14:30:10Z</time><cmt>0.3 kmh</cmt></trkpt>
<trkpt lat="58.868508" lon="05.875085"><ele>32</ele><time>2012-03-31T14:30:11Z</time><cmt>0.8 kmh</cmt></trkpt>
<trkpt lat="58.868511" lon="05.875087"><ele>32</ele><time>2012-03-31T14:30:12Z</time><cmt>1.2 kmh</cmt></trkpt>
<trkpt lat="58.868514" lon="05.875089"><ele>31</ele><time>2012-03-31T14:30:13Z</time><cmt>1.6 kmh</cmt></trkpt>
<trkpt lat="58.868516" lon="05.875091"><ele>31</ele><time>2012-03-31T14:30:14Z</time><cmt>1.0 kmh</cmt></trkpt>
<trkpt lat="58.868517" lon="05.875092"><ele>31</ele><time>2012-03-31T14:30:15Z</time><cmt>0.5 kmh</cmt></trkpt>
<trkpt lat="58.868518" lon="05.875093"><ele>31</ele><time>2012-03-31T14:30:16Z</time><cmt>0.5 kmh</cmt></trkpt>
<trkpt lat="58.868519" lon="05.875094"><ele>31</ele><time>2012-03-31T14:30:17Z</time><cmt>0.5 kmh</cmt></trkpt>
<trkpt lat="58.868520" lon="05.875095"><ele>31</ele><time>2012-03-31T14:30:18Z</time><cmt>0.3 kmh</cmt></trkpt>
<trkpt lat="58.868521" lon="05.875096"><ele>31</ele><time>2012-03-31T14:30:19Z</time><cmt>0.0 kmh</cmt></trkpt>
<trkpt lat="58.868522" lon="05.875097"><ele>31</ele><time>2012-03-31T14:30:20Z</time><cmt>0.2 kmh</cmt></trkpt>
<trkpt lat="58.868522" lon="05.875098"><ele>30</ele><time>2012-03-31T14:30:21Z</time><cmt>0.2 kmh</cmt></trkpt>
<trkpt lat="58.868524" lon="05.875100"><ele>30</ele><time>2012-03-31T14:30:22Z</time><cmt>0.4 kmh</cmt></trkpt>
<trkpt lat="58.868527" lon="05.875103"><ele>30</ele><time>2012-03-31T14:30:23Z</time><cmt>1.1 kmh</cmt></trkpt>
<trkpt lat="58.868529" lon="05.875106"><ele>30</ele><time>2012-03-31T14:30:24Z</time><cmt>1.4 kmh</cmt></trkpt>
<trkpt lat="58.868531" lon="05.875108"><ele>29</ele><time>2012-03-31T14:30:25Z</time><cmt>1.2 kmh</cmt></trkpt>
<trkpt lat="58.868532" lon="05.875109"><ele>29</ele><time>2012-03-31T14:30:26Z</time><cmt>0.6 kmh</cmt></trkpt>
<trkpt lat="58.868533" lon="05.875111"><ele>29</ele><time>2012-03-31T14:30:27Z</time><cmt>0.5 kmh</cmt></trkpt>
<trkpt lat="58.868534" lon="05.875112"><ele>28</ele><time>2012-03-31T14:30:28Z</time><cmt>0.3 kmh</cmt></trkpt>
<trkpt lat="58.868534" lon="05.875112"><ele>28</ele><time>2012-03-31T14:30:29Z</time><cmt>0.2 kmh</cmt></trkpt>
<trkpt lat="58.868533" lon="05.875113"><ele>28</ele><time>2012-03-31T14:30:30Z</time><cmt>0.2 kmh</cmt></trkpt>
<trkpt lat="58.868533" lon="05.875113"><ele>27</ele><time>2012-03-31T14:30:31Z</time><cmt>0.0 kmh</cmt></trkpt>
<trkpt lat="58.868532" lon="05.875114"><ele>27</ele><time>2012-03-31T14:30:32Z</time><cmt>0.0 kmh</cmt></trkpt>
<trkpt lat="58.868532" lon="05.875114"><ele>27</ele><time>2012-03-31T14:30:33Z</time><cmt>0.0 kmh</cmt></trkpt>
<trkpt lat="58.868532" lon="05.875114"><ele>27</ele><time>2012-03-31T14:30:34Z</time><cmt>0.0 kmh</cmt></trkpt>
<trkpt lat="58.868531" lon="05.875114"><ele>27</ele><time>2012-03-31T14:30:35Z</time><cmt>0.0 kmh</cmt></trkpt>
<trkpt lat="58.868531" lon="05.875114"><ele>27</ele><time>2012-03-31T14:30:36Z</time><cmt>0.0 kmh</cmt></trkpt>
<trkpt lat="58.868531" lon="05.875114"><ele>27</ele><time>2012-03-31T14:30:37Z</time><cmt>0.0 kmh</cmt></trkpt>
<trkpt lat="58.868530" lon="05.875114"><ele>26</ele><time>2012-03-31T14:30:38Z</time><cmt>0.0 kmh</cmt></trkpt>
<trkpt lat="58.868530" lon="05.875114"><ele>26</ele><time>2012-03-31T14:30:39Z</time><cmt>0.0 kmh</cmt></trkpt>
<trkpt lat="58.868531" lon="05.875114"><ele>26</ele><time>2012-03-31T14:30:40Z</time><cmt>0.0 kmh</cmt></trkpt>
<trkpt lat="58.868532" lon="05.875116"><ele>26</ele><time>2012-03-31T14:30:41Z</time><cmt>0.3 kmh</cmt></trkpt>
<trkpt lat="58.868534" lon="05.875117"><ele>26</ele><time>2012-03-31T14:30:42Z</time><cmt>0.6 kmh</cmt></trkpt>
<trkpt lat="58.868535" lon="05.875119"><ele>26</ele><time>2012-03-31T14:30:43Z</time><cmt>0.6 kmh</cmt></trkpt>
<trkpt lat="58.868536" lon="05.875120"><ele>26</ele><time>2012-03-31T14:30:44Z</time><cmt>0.6 kmh</cmt></trkpt>
<trkpt lat="58.868538" lon="05.875121"><ele>26</ele><time>2012-03-31T14:30:45Z</time><cmt>0.5 kmh</cmt></trkpt>
<trkpt lat="58.868539" lon="05.875122"><ele>26</ele><time>2012-03-31T14:30:46Z</time><cmt>0.4 kmh</cmt></trkpt>
<trkpt lat="58.868539" lon="05.875123"><ele>26</ele><time>2012-03-31T14:30:47Z</time><cmt>0.5 kmh</cmt></trkpt>
<trkpt lat="58.868540" lon="05.875124"><ele>25</ele><time>2012-03-31T14:30:48Z</time><cmt>0.3 kmh</cmt></trkpt>
<trkpt lat="58.868541" lon="05.875125"><ele>25</ele><time>2012-03-31T14:30:49Z</time><cmt>0.2 kmh</cmt></trkpt>
<trkpt lat="58.868541" lon="05.875127"><ele>25</ele><time>2012-03-31T14:30:50Z</time><cmt>0.4 kmh</cmt></trkpt>
<trkpt lat="58.868541" lon="05.875128"><ele>25</ele><time>2012-03-31T14:30:51Z</time><cmt>0.2 kmh</cmt></trkpt>
<trkpt lat="58.868541" lon="05.875129"><ele>25</ele><time>2012-03-31T14:30:52Z</time><cmt>0.0 kmh</cmt></trkpt>
<trkpt lat="58.868542" lon="05.875130"><ele>25</ele><time>2012-03-31T14:30:53Z</time><cmt>0.0 kmh</cmt></trkpt>
<trkpt lat="58.868542" lon="05.875131"><ele>25</ele><time>2012-03-31T14:30:54Z</time><cmt>0.0 kmh</cmt></trkpt>
<trkpt lat="58.868542" lon="05.875131"><ele>25</ele><time>2012-03-31T14:30:55Z</time><cmt>0.0 kmh</cmt></trkpt>
<trkpt lat="58.868542" lon="05.875132"><ele>25</ele><time>2012-03-31T14:30:56Z</time><cmt>0.0 kmh</cmt></trkpt>
<trkpt lat="58.868542" lon="05.875133"><ele>24</ele><time>2012-03-31T14:30:57Z</time><cmt>0.0 kmh</cmt></trkpt>
<trkpt lat="58.868542" lon="05.875134"><ele>24</ele><time>2012-03-31T14:30:58Z</time><cmt>0.0 kmh</cmt></trkpt>
<trkpt lat="58.868541" lon="05.875134"><ele>24</ele><time>2012-03-31T14:30:59Z</time><cmt>0.0 kmh</cmt></trkpt>
<trkpt lat="58.868541" lon="05.875135"><ele>24</ele><time>2012-03-31T14:31:00Z</time><cmt>0.0 kmh</cmt></trkpt>
<trkpt lat="58.868541" lon="05.875136"><ele>24</ele><time>2012-03-31T14:31:01Z</time><cmt>0.0 kmh</cmt></trkpt>
<trkpt lat="58.868541" lon="05.875137"><ele>24</ele><time>2012-03-31T14:31:02Z</time><cmt>0.0 kmh</cmt></trkpt>
<trkpt lat="58.868541" lon="05.875137"><ele>24</ele><time>2012-03-31T14:31:03Z</time><cmt>0.0 kmh</cmt></trkpt>
<trkpt lat="58.868540" lon="05.875137"><ele>24</ele><time>2012-03-31T14:31:04Z</time><cmt>0.0 kmh</cmt></trkpt>
<trkpt lat="58.868540" lon="05.875138"><ele>24</ele><time>2012-03-31T14:31:05Z</time><cmt>0.0 kmh</cmt></trkpt>
<trkpt lat="58.868539" lon="05.875138"><ele>24</ele><time>2012-03-31T14:31:06Z</time><cmt>0.0 kmh</cmt></trkpt>
<trkpt lat="58.868539" lon="05.875138"><ele>24</ele><time>2012-03-31T14:31:07Z</time><cmt>0.2 kmh</cmt></trkpt>
<trkpt lat="58.868538" lon="05.875139"><ele>25</ele><time>2012-03-31T14:31:08Z</time><cmt>0.2 kmh</cmt></trkpt>
<trkpt lat="58.868537" lon="05.875139"><ele>25</ele><time>2012-03-31T14:31:09Z</time><cmt>0.2 kmh</cmt></trkpt>
<trkpt lat="58.868537" lon="05.875139"><ele>25</ele><time>2012-03-31T14:31:10Z</time><cmt>0.3 kmh</cmt></trkpt>
<trkpt lat="58.868536" lon="05.875139"><ele>25</ele><time>2012-03-31T14:31:11Z</time><cmt>0.1 kmh</cmt></trkpt>
<trkpt lat="58.868536" lon="05.875140"><ele>25</ele><time>2012-03-31T14:31:12Z</time><cmt>0.0 kmh</cmt></trkpt>
<trkpt lat="58.868536" lon="05.875140"><ele>25</ele><time>2012-03-31T14:31:13Z</time><cmt>0.0 kmh</cmt></trkpt>
<trkpt lat="58.868535" lon="05.875140"><ele>25</ele><time>2012-03-31T14:31:14Z</time><cmt>0.0 kmh</cmt></trkpt>
<trkpt lat="58.868535" lon="05.875140"><ele>25</ele><time>2012-03-31T14:31:15Z</time><cmt>0.0 kmh</cmt></trkpt>
<trkpt lat="58.868534" lon="05.875140"><ele>25</ele><time>2012-03-31T14:31:16Z</time><cmt>0.0 kmh</cmt></trkpt>
<trkpt lat="58.868534" lon="05.875140"><ele>25</ele><time>2012-03-31T14:31:17Z</time><cmt>0.0 kmh</cmt></trkpt>
<trkpt lat="58.868534" lon="05.875140"><ele>26</ele><time>2012-03-31T14:31:18Z</time><cmt>0.2 kmh</cmt></trkpt>
<trkpt lat="58.868533" lon="05.875140"><ele>26</ele><time>2012-03-31T14:31:19Z</time><cmt>0.2 kmh</cmt></trkpt>
<trkpt lat="58.868533" lon="05.875140"><ele>26</ele><time>2012-03-31T14:31:20Z</time><cmt>0.0 kmh</cmt></trkpt>
<trkpt lat="58.868533" lon="05.875140"><ele>26</ele><time>2012-03-31T14:31:21Z</time><cmt>0.0 kmh</cmt></trkpt>
<trkpt lat="58.868534" lon="05.875141"><ele>26</ele><time>2012-03-31T14:31:22Z</time><cmt>0.0 kmh</cmt></trkpt>
<trkpt lat="58.868535" lon="05.875141"><ele>26</ele><time>2012-03-31T14:31:23Z</time><cmt>0.2 kmh</cmt></trkpt>
<trkpt lat="58.868536" lon="05.875142"><ele>26</ele><time>2012-03-31T14:31:24Z</time><cmt>0.5 kmh</cmt></trkpt>
<trkpt lat="58.868538" lon="05.875143"><ele>26</ele><time>2012-03-31T14:31:25Z</time><cmt>0.6 kmh</cmt></trkpt>
<trkpt lat="58.868539" lon="05.875144"><ele>26</ele><time>2012-03-31T14:31:26Z</time><cmt>0.6 kmh</cmt></trkpt>
<trkpt lat="58.868540" lon="05.875144"><ele>26</ele><time>2012-03-31T14:31:27Z</time><cmt>0.5 kmh</cmt></trkpt>
<trkpt lat="58.868541" lon="05.875145"><ele>26</ele><time>2012-03-31T14:31:28Z</time><cmt>0.4 kmh</cmt></trkpt>
<trkpt lat="58.868542" lon="05.875145"><ele>26</ele><time>2012-03-31T14:31:29Z</time><cmt>0.1 kmh</cmt></trkpt>
<trkpt lat="58.868543" lon="05.875145"><ele>26</ele><time>2012-03-31T14:31:30Z</time><cmt>0.2 kmh</cmt></trkpt>
<trkpt lat="58.868544" lon="05.875145"><ele>26</ele><time>2012-03-31T14:31:31Z</time><cmt>0.4 kmh</cmt></trkpt>
<trkpt lat="58.868544" lon="05.875145"><ele>26</ele><time>2012-03-31T14:31:32Z</time><cmt>0.3 kmh</cmt></trkpt>
<trkpt lat="58.868545" lon="05.875145"><ele>26</ele><time>2012-03-31T14:31:33Z</time><cmt>0.0 kmh</cmt></trkpt>
<trkpt lat="58.868545" lon="05.875144"><ele>26</ele><time>2012-03-31T14:31:34Z</time><cmt>0.0 kmh</cmt></trkpt>
<trkpt lat="58.868546" lon="05.875144"><ele>26</ele><time>2012-03-31T14:31:35Z</time><cmt>0.0 kmh</cmt></trkpt>
<trkpt lat="58.868546" lon="05.875144"><ele>26</ele><time>2012-03-31T14:31:36Z</time><cmt>0.0 kmh</cmt></trkpt>
<trkpt lat="58.868547" lon="05.875144"><ele>26</ele><time>2012-03-31T14:31:37Z</time><cmt>0.0 kmh</cmt></trkpt>
<trkpt lat="58.868548" lon="05.875144"><ele>26</ele><time>2012-03-31T14:31:38Z</time><cmt>0.0 kmh</cmt></trkpt>
<trkpt lat="58.868548" lon="05.875144"><ele>26</ele><time>2012-03-31T14:31:39Z</time><cmt>0.0 kmh</cmt></trkpt>
<trkpt lat="58.868548" lon="05.875144"><ele>26</ele><time>2012-03-31T14:31:40Z</time><cmt>0.0 kmh</cmt></trkpt>
<trkpt lat="58.868549" lon="05.875143"><ele>26</ele><time>2012-03-31T14:31:41Z</time><cmt>0.0 kmh</cmt></trkpt>
<trkpt lat="58.868549" lon="05.875143"><ele>26</ele><time>2012-03-31T14:31:42Z</time><cmt>0.0 kmh</cmt></trkpt>
<trkpt lat="58.868550" lon="05.875143"><ele>26</ele><time>2012-03-31T14:31:43Z</time><cmt>0.0 kmh</cmt></trkpt>
<trkpt lat="58.868550" lon="05.875143"><ele>26</ele><time>2012-03-31T14:31:44Z</time><cmt>0.0 kmh</cmt></trkpt>
<trkpt lat="58.868550" lon="05.875143"><ele>26</ele><time>2012-03-31T14:31:45Z</time><cmt>0.0 kmh</cmt></trkpt>
<trkpt lat="58.868550" lon="05.875143"><ele>26</ele><time>2012-03-31T14:31:46Z</time><cmt>0.0 kmh</cmt></trkpt>
<trkpt lat="58.868550" lon="05.875143"><ele>26</ele><time>2012-03-31T14:31:47Z</time><cmt>0.0 kmh</cmt></trkpt>
<trkpt lat="58.868550" lon="05.875143"><ele>26</ele><time>2012-03-31T14:31:48Z</time><cmt>0.0 kmh</cmt></trkpt>
<trkpt lat="58.868550" lon="05.875143"><ele>26</ele><time>2012-03-31T14:31:49Z</time><cmt>0.0 kmh</cmt></trkpt>
<trkpt lat="58.868550" lon="05.875143"><ele>26</ele><time>2012-03-31T14:31:50Z</time><cmt>0.0 kmh</cmt></trkpt>
<trkpt lat="58.868550" lon="05.875143"><ele>26</ele><time>2012-03-31T14:31:51Z</time><cmt>0.0 kmh</cmt></trkpt>
<trkpt lat="58.868550" lon="05.875143"><ele>26</ele><time>2012-03-31T14:31:52Z</time><cmt>0.0 kmh</cmt></trkpt>
<trkpt lat="58.868549" lon="05.875143"><ele>26</ele><time>2012-03-31T14:31:53Z</time><cmt>0.0 kmh</cmt></trkpt>
<trkpt lat="58.868549" lon="05.875142"><ele>26</ele><time>2012-03-31T14:31:54Z</time><cmt>0.0 kmh</cmt></trkpt>
<trkpt lat="58.868549" lon="05.875142"><ele>26</ele><time>2012-03-31T14:31:55Z</time><cmt>0.0 kmh</cmt></trkpt>
<trkpt lat="58.868548" lon="05.875141"><ele>26</ele><time>2012-03-31T14:31:56Z</time><cmt>0.0 kmh</cmt></trkpt>
<trkpt lat="58.868548" lon="05.875140"><ele>26</ele><time>2012-03-31T14:31:57Z</time><cmt>0.3 kmh</cmt></trkpt>
<trkpt lat="58.868547" lon="05.875139"><ele>26</ele><time>2012-03-31T14:31:58Z</time><cmt>0.3 kmh</cmt></trkpt>
<trkpt lat="58.868547" lon="05.875137"><ele>26</ele><time>2012-03-31T14:31:59Z</time><cmt>0.1 kmh</cmt></trkpt>
<trkpt lat="58.868546" lon="05.875136"><ele>26</ele><time>2012-03-31T14:32:00Z</time><cmt>0.3 kmh</cmt></trkpt>
<trkpt lat="58.868544" lon="05.875134"><ele>26</ele><time>2012-03-31T14:32:01Z</time><cmt>0.5 kmh</cmt></trkpt>
<trkpt lat="58.868543" lon="05.875132"><ele>26</ele><time>2012-03-31T14:32:02Z</time><cmt>0.7 kmh</cmt></trkpt>
<trkpt lat="58.868541" lon="05.875131"><ele>26</ele><time>2012-03-31T14:32:03Z</time><cmt>0.7 kmh</cmt></trkpt>
<trkpt lat="58.868540" lon="05.875129"><ele>27</ele><time>2012-03-31T14:32:04Z</time><cmt>0.7 kmh</cmt></trkpt>
<trkpt lat="58.868538" lon="05.875127"><ele>27</ele><time>2012-03-31T14:32:05Z</time><cmt>0.6 kmh</cmt></trkpt>
<trkpt lat="58.868536" lon="05.875125"><ele>27</ele><time>2012-03-31T14:32:06Z</time><cmt>0.7 kmh</cmt></trkpt>
<trkpt lat="58.868535" lon="05.875124"><ele>27</ele><time>2012-03-31T14:32:07Z</time><cmt>0.8 kmh</cmt></trkpt>
<trkpt lat="58.868533" lon="05.875122"><ele>28</ele><time>2012-03-31T14:32:08Z</time><cmt>0.7 kmh</cmt></trkpt>
<trkpt lat="58.868532" lon="05.875120"><ele>28</ele><time>2012-03-31T14:32:09Z</time><cmt>0.8 kmh</cmt></trkpt>
<trkpt lat="58.868530" lon="05.875119"><ele>28</ele><time>2012-03-31T14:32:10Z</time><cmt>0.8 kmh</cmt></trkpt>
<trkpt lat="58.868529" lon="05.875117"><ele>29</ele><time>2012-03-31T14:32:11Z</time><cmt>0.6 kmh</cmt></trkpt>
<trkpt lat="58.868527" lon="05.875116"><ele>29</ele><time>2012-03-31T14:32:12Z</time><cmt>0.5 kmh</cmt></trkpt>
<trkpt lat="58.868526" lon="05.875114"><ele>29</ele><time>2012-03-31T14:32:13Z</time><cmt>0.6 kmh</cmt></trkpt>
<trkpt lat="58.868525" lon="05.875113"><ele>30</ele><time>2012-03-31T14:32:14Z</time><cmt>0.6 kmh</cmt></trkpt>
<trkpt lat="58.868523" lon="05.875111"><ele>30</ele><time>2012-03-31T14:32:15Z</time><cmt>0.6 kmh</cmt></trkpt>
<trkpt lat="58.868522" lon="05.875110"><ele>30</ele><time>2012-03-31T14:32:16Z</time><cmt>0.6 kmh</cmt></trkpt>
<trkpt lat="58.868521" lon="05.875109"><ele>31</ele><time>2012-03-31T14:32:17Z</time><cmt>0.6 kmh</cmt></trkpt>
<trkpt lat="58.868520" lon="05.875108"><ele>31</ele><time>2012-03-31T14:32:18Z</time><cmt>0.4 kmh</cmt></trkpt>
<trkpt lat="58.868519" lon="05.875107"><ele>31</ele><time>2012-03-31T14:32:19Z</time><cmt>0.4 kmh</cmt></trkpt>
<trkpt lat="58.868518" lon="05.875106"><ele>32</ele><time>2012-03-31T14:32:20Z</time><cmt>0.4 kmh</cmt></trkpt>
<trkpt lat="58.868517" lon="05.875105"><ele>32</ele><time>2012-03-31T14:32:21Z</time><cmt>0.5 kmh</cmt></trkpt>
<trkpt lat="58.868516" lon="05.875104"><ele>32</ele><time>2012-03-31T14:32:22Z</time><cmt>0.5 kmh</cmt></trkpt>
<trkpt lat="58.868515" lon="05.875104"><ele>32</ele><time>2012-03-31T14:32:23Z</time><cmt>0.5 kmh</cmt></trkpt>
<trkpt lat="58.868514" lon="05.875103"><ele>33</ele><time>2012-03-31T14:32:24Z</time><cmt>0.4 kmh</cmt></trkpt>
<trkpt lat="58.868514" lon="05.875102"><ele>33</ele><time>2012-03-31T14:32:25Z</time><cmt>0.2 kmh</cmt></trkpt>
<trkpt lat="58.868513" lon="05.875102"><ele>33</ele><time>2012-03-31T14:32:26Z</time><cmt>0.0 kmh</cmt></trkpt>
<trkpt lat="58.868512" lon="05.875101"><ele>34</ele><time>2012-03-31T14:32:27Z</time><cmt>0.0 kmh</cmt></trkpt>
<trkpt lat="58.868512" lon="05.875101"><ele>34</ele><time>2012-03-31T14:32:28Z</time><cmt>0.0 kmh</cmt></trkpt>
<trkpt lat="58.868511" lon="05.875100"><ele>34</ele><time>2012-03-31T14:32:29Z</time><cmt>0.0 kmh</cmt></trkpt>
<trkpt lat="58.868511" lon="05.875100"><ele>34</ele><time>2012-03-31T14:32:30Z</time><cmt>0.0 kmh</cmt></trkpt>
<trkpt lat="58.868510" lon="05.875100"><ele>35</ele><time>2012-03-31T14:32:31Z</time><cmt>0.0 kmh</cmt></trkpt>
<trkpt lat="58.868510" lon="05.875099"><ele>35</ele><time>2012-03-31T14:32:32Z</time><cmt>0.0 kmh</cmt></trkpt>
<trkpt lat="58.868510" lon="05.875099"><ele>35</ele><time>2012-03-31T14:32:33Z</time><cmt>0.2 kmh</cmt></trkpt>
<trkpt lat="58.868509" lon="05.875099"><ele>35</ele><time>2012-03-31T14:32:34Z</time><cmt>0.2 kmh</cmt></trkpt>
<trkpt lat="58.868509" lon="05.875099"><ele>35</ele><time>2012-03-31T14:32:35Z</time><cmt>0.0 kmh</cmt></trkpt>
<trkpt lat="58.868509" lon="05.875098"><ele>35</ele><time>2012-03-31T14:32:36Z</time><cmt>0.0 kmh</cmt></trkpt>
<trkpt lat="58.868508" lon="05.875098"><ele>35</ele><time>2012-03-31T14:32:37Z</time><cmt>0.0 kmh</cmt></trkpt>
<trkpt lat="58.868508" lon="05.875098"><ele>36</ele><time>2012-03-31T14:32:38Z</time><cmt>0.0 kmh</cmt></trkpt>
<trkpt lat="58.868508" lon="05.875098"><ele>36</ele><time>2012-03-31T14:32:39Z</time><cmt>0.2 kmh</cmt></trkpt>
<trkpt lat="58.868508" lon="05.875098"><ele>36</ele><time>2012-03-31T14:32:40Z</time><cmt>0.2 kmh</cmt></trkpt>
<trkpt lat="58.868508" lon="05.875098"><ele>36</ele><time>2012-03-31T14:32:41Z</time><cmt>0.0 kmh</cmt></trkpt>
<trkpt lat="58.868508" lon="05.875098"><ele>36</ele><time>2012-03-31T14:32:42Z</time><cmt>0.0 kmh</cmt></trkpt>
<trkpt lat="58.868507" lon="05.875098"><ele>36</ele><time>2012-03-31T14:32:43Z</time><cmt>0.0 kmh</cmt></trkpt>
<trkpt lat="58.868507" lon="05.875098"><ele>36</ele><time>2012-03-31T14:32:44Z</time><cmt>0.0 kmh</cmt></trkpt>
<trkpt lat="58.868507" lon="05.875098"><ele>36</ele><time>2012-03-31T14:32:45Z</time><cmt>0.0 kmh</cmt></trkpt>
<trkpt lat="58.868507" lon="05.875098"><ele>36</ele><time>2012-03-31T14:32:46Z</time><cmt>0.0 kmh</cmt></trkpt>
<trkpt lat="58.868507" lon="05.875098"><ele>36</ele><time>2012-03-31T14:32:47Z</time><cmt>0.0 kmh</cmt></trkpt>
<trkpt lat="58.868507" lon="05.875099"><ele>36</ele><time>2012-03-31T14:32:48Z</time><cmt>0.0 kmh</cmt></trkpt>
<trkpt lat="58.868507" lon="05.875099"><ele>37</ele><time>2012-03-31T14:32:49Z</time><cmt>0.0 kmh</cmt></trkpt>
<trkpt lat="58.868507" lon="05.875099"><ele>37</ele><time>2012-03-31T14:32:50Z</time><cmt>0.0 kmh</cmt></trkpt>
<trkpt lat="58.868507" lon="05.875099"><ele>37</ele><time>2012-03-31T14:32:51Z</time><cmt>0.3 kmh</cmt></trkpt>
<trkpt lat="58.868507" lon="05.875099"><ele>37</ele><time>2012-03-31T14:32:52Z</time><cmt>0.3 kmh</cmt></trkpt>
<trkpt lat="58.868507" lon="05.875099"><ele>37</ele><time>2012-03-31T14:32:53Z</time><cmt>0.0 kmh</cmt></trkpt>
<trkpt lat="58.868507" lon="05.875099"><ele>37</ele><time>2012-03-31T14:32:54Z</time><cmt>0.0 kmh</cmt></trkpt>
<trkpt lat="58.868507" lon="05.875100"><ele>37</ele><time>2012-03-31T14:32:55Z</time><cmt>0.0 kmh</cmt></trkpt>
<trkpt lat="58.868507" lon="05.875100"><ele>37</ele><time>2012-03-31T14:32:56Z</time><cmt>0.0 kmh</cmt></trkpt>
<trkpt lat="58.868507" lon="05.875100"><ele>37</ele><time>2012-03-31T14:32:57Z</time><cmt>0.0 kmh</cmt></trkpt>
<trkpt lat="58.868507" lon="05.875100"><ele>37</ele><time>2012-03-31T14:32:58Z</time><cmt>0.0 kmh</cmt></trkpt>
<trkpt lat="58.868507" lon="05.875100"><ele>37</ele><time>2012-03-31T14:32:59Z</time><cmt>0.0 kmh</cmt></trkpt>
<trkpt lat="58.868507" lon="05.875100"><ele>37</ele><time>2012-03-31T14:33:00Z</time><cmt>0.0 kmh</cmt></trkpt>
<trkpt lat="58.868507" lon="05.875100"><ele>37</ele><time>2012-03-31T14:33:01Z</time><cmt>0.0 kmh</cmt></trkpt>
<trkpt lat="58.868507" lon="05.875101"><ele>37</ele><time>2012-03-31T14:33:02Z</time><cmt>0.0 kmh</cmt></trkpt>
<trkpt lat="58.868507" lon="05.875101"><ele>37</ele><time>2012-03-31T14:33:03Z</time><cmt>0.0 kmh</cmt></trkpt>
<trkpt lat="58.868507" lon="05.875101"><ele>37</ele><time>2012-03-31T14:33:04Z</time><cmt>0.0 kmh</cmt></trkpt>
<trkpt lat="58.868507" lon="05.875101"><ele>37</ele><time>2012-03-31T14:33:05Z</time><cmt>0.0 kmh</cmt></trkpt>
<trkpt lat="58.868507" lon="05.875101"><ele>37</ele><time>2012-03-31T14:33:06Z</time><cmt>0.0 kmh</cmt></trkpt>
<trkpt lat="58.868507" lon="05.875101"><ele>37</ele><time>2012-03-31T14:33:07Z</time><cmt>0.0 kmh</cmt></trkpt>
<trkpt lat="58.868507" lon="05.875102"><ele>37</ele><time>2012-03-31T14:33:08Z</time><cmt>0.0 kmh</cmt></trkpt>
<trkpt lat="58.868507" lon="05.875102"><ele>37</ele><time>2012-03-31T14:33:09Z</time><cmt>0.0 kmh</cmt></trkpt>
<trkpt lat="58.868507" lon="05.875102"><ele>37</ele><time>2012-03-31T14:33:10Z</time><cmt>0.0 kmh</cmt></trkpt>
<trkpt lat="58.868507" lon="05.875102"><ele>37</ele><time>2012-03-31T14:33:11Z</time><cmt>0.0 kmh</cmt></trkpt>
<trkpt lat="58.868507" lon="05.875103"><ele>37</ele><time>2012-03-31T14:33:12Z</time><cmt>0.0 kmh</cmt></trkpt>
<trkpt lat="58.868507" lon="05.875103"><ele>37</ele><time>2012-03-31T14:33:13Z</time><cmt>0.0 kmh</cmt></trkpt>
<trkpt lat="58.868507" lon="05.875103"><ele>37</ele><time>2012-03-31T14:33:14Z</time><cmt>0.0 kmh</cmt></trkpt>
<trkpt lat="58.868507" lon="05.875103"><ele>37</ele><time>2012-03-31T14:33:15Z</time><cmt>0.0 kmh</cmt></trkpt>
<trkpt lat="58.868507" lon="05.875103"><ele>37</ele><time>2012-03-31T14:33:16Z</time><cmt>0.0 kmh</cmt></trkpt>
<trkpt lat="58.868507" lon="05.875104"><ele>37</ele><time>2012-03-31T14:33:17Z</time><cmt>0.0 kmh</cmt></trkpt>
<trkpt lat="58.868508" lon="05.875104"><ele>37</ele><time>2012-03-31T14:33:18Z</time><cmt>0.0 kmh</cmt></trkpt>
<trkpt lat="58.868508" lon="05.875104"><ele>37</ele><time>2012-03-31T14:33:19Z</time><cmt>0.0 kmh</cmt></trkpt>
<trkpt lat="58.868508" lon="05.875105"><ele>37</ele><time>2012-03-31T14:33:20Z</time><cmt>0.0 kmh</cmt></trkpt>
<trkpt lat="58.868508" lon="05.875105"><ele>37</ele><time>2012-03-31T14:33:21Z</time><cmt>0.0 kmh</cmt></trkpt>
<trkpt lat="58.868508" lon="05.875105"><ele>37</ele><time>2012-03-31T14:33:22Z</time><cmt>0.0 kmh</cmt></trkpt>
<trkpt lat="58.868508" lon="05.875105"><ele>37</ele><time>2012-03-31T14:33:23Z</time><cmt>0.0 kmh</cmt></trkpt>
<trkpt lat="58.868508" lon="05.875105"><ele>37</ele><time>2012-03-31T14:33:24Z</time><cmt>0.0 kmh</cmt></trkpt>
<trkpt lat="58.868508" lon="05.875105"><ele>37</ele><time>2012-03-31T14:33:25Z</time><cmt>0.0 kmh</cmt></trkpt>
<trkpt lat="58.868508" lon="05.875105"><ele>37</ele><time>2012-03-31T14:33:26Z</time><cmt>0.2 kmh</cmt></trkpt>
<trkpt lat="58.868508" lon="05.875105"><ele>37</ele><time>2012-03-31T14:33:27Z</time><cmt>0.4 kmh</cmt></trkpt>
<trkpt lat="58.868508" lon="05.875105"><ele>37</ele><time>2012-03-31T14:33:28Z</time><cmt>0.2 kmh</cmt></trkpt>
<trkpt lat="58.868508" lon="05.875105"><ele>37</ele><time>2012-03-31T14:33:29Z</time><cmt>0.0 kmh</cmt></trkpt>
<trkpt lat="58.868508" lon="05.875105"><ele>37</ele><time>2012-03-31T14:33:30Z</time><cmt>0.0 kmh</cmt></trkpt>
<trkpt lat="58.868508" lon="05.875105"><ele>37</ele><time>2012-03-31T14:33:31Z</time><cmt>0.0 kmh</cmt></trkpt>
<trkpt lat="58.868508" lon="05.875105"><ele>37</ele><time>2012-03-31T14:33:32Z</time><cmt>0.0 kmh</cmt></trkpt>
<trkpt lat="58.868508" lon="05.875104"><ele>37</ele><time>2012-03-31T14:33:33Z</time><cmt>0.0 kmh</cmt></trkpt>
<trkpt lat="58.868509" lon="05.875104"><ele>37</ele><time>2012-03-31T14:33:34Z</time><cmt>0.2 kmh</cmt></trkpt>
<trkpt lat="58.868509" lon="05.875104"><ele>37</ele><time>2012-03-31T14:33:35Z</time><cmt>0.4 kmh</cmt></trkpt>
<trkpt lat="58.868509" lon="05.875103"><ele>37</ele><time>2012-03-31T14:33:36Z</time><cmt>0.2 kmh</cmt></trkpt>
<trkpt lat="58.868509" lon="05.875103"><ele>37</ele><time>2012-03-31T14:33:37Z</time><cmt>0.0 kmh</cmt></trkpt>
<trkpt lat="58.868509" lon="05.875103"><ele>37</ele><time>2012-03-31T14:33:38Z</time><cmt>0.0 kmh</cmt></trkpt>
<trkpt lat="58.868509" lon="05.875103"><ele>37</ele><time>2012-03-31T14:33:39Z</time><cmt>0.0 kmh</cmt></trkpt>
<trkpt lat="58.868509" lon="05.875103"><ele>37</ele><time>2012-03-31T14:33:40Z</time><cmt>0.0 kmh</cmt></trkpt>
<trkpt lat="58.868509" lon="05.875103"><ele>37</ele><time>2012-03-31T14:33:41Z</time><cmt>0.0 kmh</cmt></trkpt>
<trkpt lat="58.868509" lon="05.875103"><ele>37</ele><time>2012-03-31T14:33:42Z</time><cmt>0.0 kmh</cmt></trkpt>
<trkpt lat="58.868509" lon="05.875103"><ele>37</ele><time>2012-03-31T14:33:43Z</time><cmt>0.0 kmh</cmt></trkpt>
<trkpt lat="58.868510" lon="05.875103"><ele>37</ele><time>2012-03-31T14:33:44Z</time><cmt>0.0 kmh</cmt></trkpt>
<trkpt lat="58.868510" lon="05.875103"><ele>37</ele><time>2012-03-31T14:33:45Z</time><cmt>0.1 kmh</cmt></trkpt>
<trkpt lat="58.868510" lon="05.875103"><ele>37</ele><time>2012-03-31T14:33:46Z</time><cmt>0.1 kmh</cmt></trkpt>
<trkpt lat="58.868510" lon="05.875103"><ele>37</ele><time>2012-03-31T14:33:47Z</time><cmt>0.2 kmh</cmt></trkpt>
<trkpt lat="58.868510" lon="05.875103"><ele>37</ele><time>2012-03-31T14:33:48Z</time><cmt>0.4 kmh</cmt></trkpt>
<trkpt lat="58.868510" lon="05.875103"><ele>37</ele><time>2012-03-31T14:33:49Z</time><cmt>0.2 kmh</cmt></trkpt>
<trkpt lat="58.868510" lon="05.875103"><ele>37</ele><time>2012-03-31T14:33:50Z</time><cmt>0.0 kmh</cmt></trkpt>
<trkpt lat="58.868510" lon="05.875104"><ele>37</ele><time>2012-03-31T14:33:51Z</time><cmt>0.0 kmh</cmt></trkpt>
<trkpt lat="58.868511" lon="05.875104"><ele>37</ele><time>2012-03-31T14:33:52Z</time><cmt>0.0 kmh</cmt></trkpt>
<trkpt lat="58.868511" lon="05.875104"><ele>37</ele><time>2012-03-31T14:33:53Z</time><cmt>0.0 kmh</cmt></trkpt>
<trkpt lat="58.868511" lon="05.875104"><ele>37</ele><time>2012-03-31T14:33:54Z</time><cmt>0.2 kmh</cmt></trkpt>
<trkpt lat="58.868511" lon="05.875105"><ele>36</ele><time>2012-03-31T14:33:55Z</time><cmt>0.2 kmh</cmt></trkpt>
<trkpt lat="58.868511" lon="05.875105"><ele>36</ele><time>2012-03-31T14:33:56Z</time><cmt>0.0 kmh</cmt></trkpt>
<trkpt lat="58.868511" lon="05.875105"><ele>36</ele><time>2012-03-31T14:33:57Z</time><cmt>0.0 kmh</cmt></trkpt>
<trkpt lat="58.868511" lon="05.875106"><ele>36</ele><time>2012-03-31T14:33:58Z</time><cmt>0.0 kmh</cmt></trkpt>
<trkpt lat="58.868511" lon="05.875106"><ele>36</ele><time>2012-03-31T14:33:59Z</time><cmt>0.0 kmh</cmt></trkpt>
<trkpt lat="58.868511" lon="05.875107"><ele>36</ele><time>2012-03-31T14:34:00Z</time><cmt>0.0 kmh</cmt></trkpt>
<trkpt lat="58.868512" lon="05.875108"><ele>36</ele><time>2012-03-31T14:34:01Z</time><cmt>0.3 kmh</cmt></trkpt>
<trkpt lat="58.868514" lon="05.875109"><ele>36</ele><time>2012-03-31T14:34:02Z</time><cmt>0.6 kmh</cmt></trkpt>
<trkpt lat="58.868515" lon="05.875111"><ele>36</ele><time>2012-03-31T14:34:03Z</time><cmt>0.5 kmh</cmt></trkpt>
<trkpt lat="58.868517" lon="05.875112"><ele>35</ele><time>2012-03-31T14:34:04Z</time><cmt>0.5 kmh</cmt></trkpt>
<trkpt lat="58.868518" lon="05.875114"><ele>35</ele><time>2012-03-31T14:34:05Z</time><cmt>0.7 kmh</cmt></trkpt>
<trkpt lat="58.868520" lon="05.875115"><ele>35</ele><time>2012-03-31T14:34:06Z</time><cmt>0.6 kmh</cmt></trkpt>
<trkpt lat="58.868521" lon="05.875116"><ele>35</ele><time>2012-03-31T14:34:07Z</time><cmt>0.6 kmh</cmt></trkpt>
<trkpt lat="58.868522" lon="05.875118"><ele>35</ele><time>2012-03-31T14:34:08Z</time><cmt>0.5 kmh</cmt></trkpt>
<trkpt lat="58.868524" lon="05.875119"><ele>34</ele><time>2012-03-31T14:34:09Z</time><cmt>0.4 kmh</cmt></trkpt>
<trkpt lat="58.868525" lon="05.875120"><ele>34</ele><time>2012-03-31T14:34:10Z</time><cmt>0.4 kmh</cmt></trkpt>
<trkpt lat="58.868526" lon="05.875121"><ele>34</ele><time>2012-03-31T14:34:11Z</time><cmt>0.5 kmh</cmt></trkpt>
<trkpt lat="58.868526" lon="05.875121"><ele>33</ele><time>2012-03-31T14:34:12Z</time><cmt>0.4 kmh</cmt></trkpt>
<trkpt lat="58.868527" lon="05.875122"><ele>33</ele><time>2012-03-31T14:34:13Z</time><cmt>0.2 kmh</cmt></trkpt>
<trkpt lat="58.868527" lon="05.875123"><ele>33</ele><time>2012-03-31T14:34:14Z</time><cmt>0.0 kmh</cmt></trkpt>
<trkpt lat="58.868528" lon="05.875123"><ele>33</ele><time>2012-03-31T14:34:15Z</time><cmt>0.0 kmh</cmt></trkpt>
<trkpt lat="58.868528" lon="05.875123"><ele>32</ele><time>2012-03-31T14:34:16Z</time><cmt>0.0 kmh</cmt></trkpt>
<trkpt lat="58.868528" lon="05.875123"><ele>32</ele><time>2012-03-31T14:34:17Z</time><cmt>0.0 kmh</cmt></trkpt>
<trkpt lat="58.868528" lon="05.875123"><ele>32</ele><time>2012-03-31T14:34:19Z</time><cmt>0.0 kmh</cmt></trkpt>
<trkpt lat="58.868528" lon="05.875123"><ele>32</ele><time>2012-03-31T14:34:21Z</time><cmt>0.0 kmh</cmt></trkpt>
<trkpt lat="58.868528" lon="05.875123"><ele>32</ele><time>2012-03-31T14:34:22Z</time><cmt>0.0 kmh</cmt></trkpt>
<trkpt lat="58.868528" lon="05.875123"><ele>31</ele><time>2012-03-31T14:34:23Z</time><cmt>0.0 kmh</cmt></trkpt>
<trkpt lat="58.868528" lon="05.875123"><ele>31</ele><time>2012-03-31T14:34:25Z</time><cmt>0.0 kmh</cmt></trkpt>
<trkpt lat="58.868528" lon="05.875122"><ele>31</ele><time>2012-03-31T14:34:26Z</time><cmt>0.0 kmh</cmt></trkpt>
<trkpt lat="58.868528" lon="05.875122"><ele>31</ele><time>2012-03-31T14:34:27Z</time><cmt>0.0 kmh</cmt></trkpt>
<trkpt lat="58.868527" lon="05.875122"><ele>31</ele><time>2012-03-31T14:34:28Z</time><cmt>0.0 kmh</cmt></trkpt>
<trkpt lat="58.868527" lon="05.875121"><ele>31</ele><time>2012-03-31T14:34:29Z</time><cmt>0.0 kmh</cmt></trkpt>
<trkpt lat="58.868527" lon="05.875121"><ele>31</ele><time>2012-03-31T14:34:30Z</time><cmt>0.0 kmh</cmt></trkpt>
<trkpt lat="58.868526" lon="05.875120"><ele>31</ele><time>2012-03-31T14:34:31Z</time><cmt>0.0 kmh</cmt></trkpt>
<trkpt lat="58.868526" lon="05.875120"><ele>31</ele><time>2012-03-31T14:34:32Z</time><cmt>0.0 kmh</cmt></trkpt>
<trkpt lat="58.868525" lon="05.875119"><ele>31</ele><time>2012-03-31T14:34:33Z</time><cmt>0.0 kmh</cmt></trkpt>
<trkpt lat="58.868524" lon="05.875119"><ele>31</ele><time>2012-03-31T14:34:34Z</time><cmt>0.2 kmh</cmt></trkpt>
<trkpt lat="58.868524" lon="05.875118"><ele>31</ele><time>2012-03-31T14:34:35Z</time><cmt>0.4 kmh</cmt></trkpt>
<trkpt lat="58.868523" lon="05.875117"><ele>31</ele><time>2012-03-31T14:34:36Z</time><cmt>0.3 kmh</cmt></trkpt>
<trkpt lat="58.868522" lon="05.875116"><ele>31</ele><time>2012-03-31T14:34:37Z</time><cmt>0.2 kmh</cmt></trkpt>
<trkpt lat="58.868522" lon="05.875116"><ele>31</ele><time>2012-03-31T14:34:38Z</time><cmt>0.2 kmh</cmt></trkpt>
<trkpt lat="58.868521" lon="05.875115"><ele>31</ele><time>2012-03-31T14:34:39Z</time><cmt>0.0 kmh</cmt></trkpt>
<trkpt lat="58.868522" lon="05.875115"><ele>31</ele><time>2012-03-31T14:34:40Z</time><cmt>0.0 kmh</cmt></trkpt>
<trkpt lat="58.868522" lon="05.875116"><ele>31</ele><time>2012-03-31T14:34:41Z</time><cmt>0.1 kmh</cmt></trkpt>
<trkpt lat="58.868523" lon="05.875116"><ele>31</ele><time>2012-03-31T14:34:42Z</time><cmt>0.2 kmh</cmt></trkpt>
<trkpt lat="58.868524" lon="05.875116"><ele>31</ele><time>2012-03-31T14:34:43Z</time><cmt>0.2 kmh</cmt></trkpt>
<trkpt lat="58.868525" lon="05.875117"><ele>31</ele><time>2012-03-31T14:34:44Z</time><cmt>0.4 kmh</cmt></trkpt>
<trkpt lat="58.868526" lon="05.875118"><ele>30</ele><time>2012-03-31T14:34:45Z</time><cmt>0.5 kmh</cmt></trkpt>
<trkpt lat="58.868527" lon="05.875119"><ele>30</ele><time>2012-03-31T14:34:46Z</time><cmt>0.5 kmh</cmt></trkpt>
<trkpt lat="58.868529" lon="05.875120"><ele>30</ele><time>2012-03-31T14:34:47Z</time><cmt>0.5 kmh</cmt></trkpt>
<trkpt lat="58.868530" lon="05.875121"><ele>30</ele><time>2012-03-31T14:34:48Z</time><cmt>0.5 kmh</cmt></trkpt>
<trkpt lat="58.868532" lon="05.875122"><ele>30</ele><time>2012-03-31T14:34:49Z</time><cmt>0.5 kmh</cmt></trkpt>
<trkpt lat="58.868533" lon="05.875123"><ele>30</ele><time>2012-03-31T14:34:50Z</time><cmt>0.5 kmh</cmt></trkpt>
<trkpt lat="58.868534" lon="05.875125"><ele>29</ele><time>2012-03-31T14:34:51Z</time><cmt>0.5 kmh</cmt></trkpt>
<trkpt lat="58.868535" lon="05.875125"><ele>29</ele><time>2012-03-31T14:34:52Z</time><cmt>0.6 kmh</cmt></trkpt>
<trkpt lat="58.868537" lon="05.875126"><ele>29</ele><time>2012-03-31T14:34:53Z</time><cmt>0.6 kmh</cmt></trkpt>
<trkpt lat="58.868538" lon="05.875127"><ele>29</ele><time>2012-03-31T14:34:54Z</time><cmt>0.4 kmh</cmt></trkpt>
<trkpt lat="58.868538" lon="05.875127"><ele>28</ele><time>2012-03-31T14:34:55Z</time><cmt>0.2 kmh</cmt></trkpt>
<trkpt lat="58.868538" lon="05.875127"><ele>28</ele><time>2012-03-31T14:34:56Z</time><cmt>0.0 kmh</cmt></trkpt>
<trkpt lat="58.868538" lon="05.875127"><ele>28</ele><time>2012-03-31T14:34:57Z</time><cmt>0.0 kmh</cmt></trkpt>
<trkpt lat="58.868537" lon="05.875127"><ele>28</ele><time>2012-03-31T14:34:58Z</time><cmt>0.0 kmh</cmt></trkpt>
<trkpt lat="58.868537" lon="05.875127"><ele>28</ele><time>2012-03-31T14:34:59Z</time><cmt>0.2 kmh</cmt></trkpt>
<trkpt lat="58.868536" lon="05.875126"><ele>28</ele><time>2012-03-31T14:35:00Z</time><cmt>0.4 kmh</cmt></trkpt>
<trkpt lat="58.868535" lon="05.875125"><ele>28</ele><time>2012-03-31T14:35:01Z</time><cmt>0.6 kmh</cmt></trkpt>
<trkpt lat="58.868533" lon="05.875124"><ele>28</ele><time>2012-03-31T14:35:02Z</time><cmt>0.7 kmh</cmt></trkpt>
<trkpt lat="58.868532" lon="05.875123"><ele>28</ele><time>2012-03-31T14:35:03Z</time><cmt>0.7 kmh</cmt></trkpt>
<trkpt lat="58.868530" lon="05.875122"><ele>28</ele><time>2012-03-31T14:35:04Z</time><cmt>0.7 kmh</cmt></trkpt>
<trkpt lat="58.868528" lon="05.875120"><ele>28</ele><time>2012-03-31T14:35:05Z</time><cmt>0.6 kmh</cmt></trkpt>
<trkpt lat="58.868526" lon="05.875119"><ele>28</ele><time>2012-03-31T14:35:06Z</time><cmt>0.6 kmh</cmt></trkpt>
<trkpt lat="58.868525" lon="05.875118"><ele>28</ele><time>2012-03-31T14:35:07Z</time><cmt>0.8 kmh</cmt></trkpt>
<trkpt lat="58.868523" lon="05.875117"><ele>28</ele><time>2012-03-31T14:35:08Z</time><cmt>0.9 kmh</cmt></trkpt>
<trkpt lat="58.868521" lon="05.875115"><ele>29</ele><time>2012-03-31T14:35:09Z</time><cmt>0.8 kmh</cmt></trkpt>
<trkpt lat="58.868519" lon="05.875114"><ele>29</ele><time>2012-03-31T14:35:10Z</time><cmt>0.8 kmh</cmt></trkpt>
<trkpt lat="58.868518" lon="05.875113"><ele>29</ele><time>2012-03-31T14:35:11Z</time><cmt>0.6 kmh</cmt></trkpt>
<trkpt lat="58.868516" lon="05.875112"><ele>29</ele><time>2012-03-31T14:35:12Z</time><cmt>0.6 kmh</cmt></trkpt>
<trkpt lat="58.868515" lon="05.875111"><ele>29</ele><time>2012-03-31T14:35:13Z</time><cmt>0.6 kmh</cmt></trkpt>
<trkpt lat="58.868515" lon="05.875111"><ele>30</ele><time>2012-03-31T14:35:14Z</time><cmt>0.2 kmh</cmt></trkpt>
<trkpt lat="58.868514" lon="05.875111"><ele>30</ele><time>2012-03-31T14:35:15Z</time><cmt>0.0 kmh</cmt></trkpt>
<trkpt lat="58.868514" lon="05.875111"><ele>30</ele><time>2012-03-31T14:35:16Z</time><cmt>0.0 kmh</cmt></trkpt>
<trkpt lat="58.868514" lon="05.875111"><ele>30</ele><time>2012-03-31T14:35:17Z</time><cmt>0.0 kmh</cmt></trkpt>
<trkpt lat="58.868515" lon="05.875112"><ele>30</ele><time>2012-03-31T14:35:18Z</time><cmt>0.0 kmh</cmt></trkpt>
<trkpt lat="58.868516" lon="05.875113"><ele>30</ele><time>2012-03-31T14:35:19Z</time><cmt>0.2 kmh</cmt></trkpt>
<trkpt lat="58.868517" lon="05.875115"><ele>30</ele><time>2012-03-31T14:35:20Z</time><cmt>0.5 kmh</cmt></trkpt>
<trkpt lat="58.868518" lon="05.875116"><ele>30</ele><time>2012-03-31T14:35:21Z</time><cmt>0.5 kmh</cmt></trkpt>
<trkpt lat="58.868518" lon="05.875116"><ele>30</ele><time>2012-03-31T14:35:22Z</time><cmt>0.4 kmh</cmt></trkpt>
<trkpt lat="58.868519" lon="05.875117"><ele>30</ele><time>2012-03-31T14:35:23Z</time><cmt>0.4 kmh</cmt></trkpt>
<trkpt lat="58.868520" lon="05.875119"><ele>30</ele><time>2012-03-31T14:35:24Z</time><cmt>0.5 kmh</cmt></trkpt>
<trkpt lat="58.868521" lon="05.875120"><ele>30</ele><time>2012-03-31T14:35:25Z</time><cmt>0.6 kmh</cmt></trkpt>
<trkpt lat="58.868522" lon="05.875121"><ele>30</ele><time>2012-03-31T14:35:26Z</time><cmt>0.7 kmh</cmt></trkpt>
<trkpt lat="58.868523" lon="05.875122"><ele>30</ele><time>2012-03-31T14:35:27Z</time><cmt>0.6 kmh</cmt></trkpt>
<trkpt lat="58.868523" lon="05.875123"><ele>30</ele><time>2012-03-31T14:35:28Z</time><cmt>0.2 kmh</cmt></trkpt>
<trkpt lat="58.868523" lon="05.875123"><ele>30</ele><time>2012-03-31T14:35:29Z</time><cmt>0.0 kmh</cmt></trkpt>
<trkpt lat="58.868523" lon="05.875123"><ele>30</ele><time>2012-03-31T14:35:30Z</time><cmt>0.0 kmh</cmt></trkpt>
<trkpt lat="58.868523" lon="05.875123"><ele>30</ele><time>2012-03-31T14:35:31Z</time><cmt>0.0 kmh</cmt></trkpt>
<trkpt lat="58.868523" lon="05.875123"><ele>29</ele><time>2012-03-31T14:35:32Z</time><cmt>0.0 kmh</cmt></trkpt>
<trkpt lat="58.868522" lon="05.875123"><ele>29</ele><time>2012-03-31T14:35:33Z</time><cmt>0.0 kmh</cmt></trkpt>
<trkpt lat="58.868522" lon="05.875124"><ele>29</ele><time>2012-03-31T14:35:34Z</time><cmt>0.0 kmh</cmt></trkpt>
<trkpt lat="58.868523" lon="05.875124"><ele>29</ele><time>2012-03-31T14:35:35Z</time><cmt>0.0 kmh</cmt></trkpt>
<trkpt lat="58.868523" lon="05.875125"><ele>29</ele><time>2012-03-31T14:35:36Z</time><cmt>0.0 kmh</cmt></trkpt>
<trkpt lat="58.868524" lon="05.875125"><ele>29</ele><time>2012-03-31T14:35:37Z</time><cmt>0.0 kmh</cmt></trkpt>
<trkpt lat="58.868524" lon="05.875126"><ele>29</ele><time>2012-03-31T14:35:38Z</time><cmt>0.0 kmh</cmt></trkpt>
<trkpt lat="58.868525" lon="05.875127"><ele>29</ele><time>2012-03-31T14:35:39Z</time><cmt>0.0 kmh</cmt></trkpt>
<trkpt lat="58.868525" lon="05.875127"><ele>29</ele><time>2012-03-31T14:35:40Z</time><cmt>0.0 kmh</cmt></trkpt>
<trkpt lat="58.868525" lon="05.875128"><ele>29</ele><time>2012-03-31T14:35:41Z</time><cmt>0.0 kmh</cmt></trkpt>
<trkpt lat="58.868525" lon="05.875128"><ele>29</ele><time>2012-03-31T14:35:42Z</time><cmt>0.0 kmh</cmt></trkpt>
<trkpt lat="58.868525" lon="05.875129"><ele>28</ele><time>2012-03-31T14:35:43Z</time><cmt>0.1 kmh</cmt></trkpt>
<trkpt lat="58.868525" lon="05.875129"><ele>28</ele><time>2012-03-31T14:35:44Z</time><cmt>0.4 kmh</cmt></trkpt>
<trkpt lat="58.868525" lon="05.875130"><ele>28</ele><time>2012-03-31T14:35:45Z</time><cmt>0.2 kmh</cmt></trkpt>
<trkpt lat="58.868525" lon="05.875130"><ele>28</ele><time>2012-03-31T14:35:46Z</time><cmt>0.0 kmh</cmt></trkpt>
<trkpt lat="58.868526" lon="05.875131"><ele>28</ele><time>2012-03-31T14:35:47Z</time><cmt>0.0 kmh</cmt></trkpt>
<trkpt lat="58.868526" lon="05.875131"><ele>28</ele><time>2012-03-31T14:35:48Z</time><cmt>0.0 kmh</cmt></trkpt>
<trkpt lat="58.868526" lon="05.875131"><ele>28</ele><time>2012-03-31T14:35:49Z</time><cmt>0.0 kmh</cmt></trkpt>
<trkpt lat="58.868526" lon="05.875131"><ele>28</ele><time>2012-03-31T14:35:50Z</time><cmt>0.0 kmh</cmt></trkpt>
<trkpt lat="58.868526" lon="05.875131"><ele>28</ele><time>2012-03-31T14:35:51Z</time><cmt>0.2 kmh</cmt></trkpt>
<trkpt lat="58.868526" lon="05.875131"><ele>28</ele><time>2012-03-31T14:35:52Z</time><cmt>0.2 kmh</cmt></trkpt>
<trkpt lat="58.868526" lon="05.875132"><ele>28</ele><time>2012-03-31T14:35:53Z</time><cmt>0.0 kmh</cmt></trkpt>
<trkpt lat="58.868526" lon="05.875132"><ele>28</ele><time>2012-03-31T14:35:54Z</time><cmt>0.0 kmh</cmt></trkpt>
<trkpt lat="58.868526" lon="05.875132"><ele>28</ele><time>2012-03-31T14:35:56Z</time><cmt>0.0 kmh</cmt></trkpt>
<trkpt lat="58.868526" lon="05.875132"><ele>28</ele><time>2012-03-31T14:35:57Z</time><cmt>0.2 kmh</cmt></trkpt>
<trkpt lat="58.868526" lon="05.875131"><ele>28</ele><time>2012-03-31T14:35:58Z</time><cmt>0.2 kmh</cmt></trkpt>
<trkpt lat="58.868526" lon="05.875131"><ele>28</ele><time>2012-03-31T14:35:59Z</time><cmt>0.0 kmh</cmt></trkpt>
<trkpt lat="58.868526" lon="05.875131"><ele>28</ele><time>2012-03-31T14:36:00Z</time><cmt>0.0 kmh</cmt></trkpt>
<trkpt lat="58.868526" lon="05.875131"><ele>28</ele><time>2012-03-31T14:36:01Z</time><cmt>0.0 kmh</cmt></trkpt>
<trkpt lat="58.868525" lon="05.875131"><ele>28</ele><time>2012-03-31T14:36:02Z</time><cmt>0.0 kmh</cmt></trkpt>
<trkpt lat="58.868525" lon="05.875131"><ele>28</ele><time>2012-03-31T14:36:03Z</time><cmt>0.0 kmh</cmt></trkpt>
<trkpt lat="58.868525" lon="05.875131"><ele>28</ele><time>2012-03-31T14:36:04Z</time><cmt>0.0 kmh</cmt></trkpt>
<trkpt lat="58.868525" lon="05.875131"><ele>28</ele><time>2012-03-31T14:36:06Z</time><cmt>0.0 kmh</cmt></trkpt>
<trkpt lat="58.868525" lon="05.875131"><ele>28</ele><time>2012-03-31T14:36:07Z</time><cmt>0.1 kmh</cmt></trkpt>
<trkpt lat="58.868525" lon="05.875132"><ele>28</ele><time>2012-03-31T14:36:09Z</time><cmt>0.0 kmh</cmt></trkpt>
<trkpt lat="58.868525" lon="05.875132"><ele>28</ele><time>2012-03-31T14:36:10Z</time><cmt>0.0 kmh</cmt></trkpt>
<trkpt lat="58.868525" lon="05.875132"><ele>28</ele><time>2012-03-31T14:36:11Z</time><cmt>0.0 kmh</cmt></trkpt>
<trkpt lat="58.868525" lon="05.875132"><ele>28</ele><time>2012-03-31T14:36:12Z</time><cmt>0.0 kmh</cmt></trkpt>
<trkpt lat="58.868525" lon="05.875132"><ele>28</ele><time>2012-03-31T14:36:13Z</time><cmt>0.0 kmh</cmt></trkpt>
<trkpt lat="58.868525" lon="05.875132"><ele>28</ele><time>2012-03-31T14:36:14Z</time><cmt>0.0 kmh</cmt></trkpt>
<trkpt lat="58.868524" lon="05.875132"><ele>28</ele><time>2012-03-31T14:36:15Z</time><cmt>0.0 kmh</cmt></trkpt>
<trkpt lat="58.868524" lon="05.875132"><ele>28</ele><time>2012-03-31T14:36:16Z</time><cmt>0.0 kmh</cmt></trkpt>
<trkpt lat="58.868524" lon="05.875132"><ele>28</ele><time>2012-03-31T14:36:17Z</time><cmt>0.0 kmh</cmt></trkpt>
<trkpt lat="58.868524" lon="05.875132"><ele>28</ele><time>2012-03-31T14:36:18Z</time><cmt>0.0 kmh</cmt></trkpt>
<trkpt lat="58.868524" lon="05.875133"><ele>28</ele><time>2012-03-31T14:36:19Z</time><cmt>0.0 kmh</cmt></trkpt>
<trkpt lat="58.868524" lon="05.875133"><ele>28</ele><time>2012-03-31T14:36:20Z</time><cmt>0.0 kmh</cmt></trkpt>
<trkpt lat="58.868523" lon="05.875133"><ele>28</ele><time>2012-03-31T14:36:21Z</time><cmt>0.0 kmh</cmt></trkpt>
<trkpt lat="58.868523" lon="05.875133"><ele>28</ele><time>2012-03-31T14:36:22Z</time><cmt>0.0 kmh</cmt></trkpt>
<trkpt lat="58.868523" lon="05.875133"><ele>28</ele><time>2012-03-31T14:36:23Z</time><cmt>0.0 kmh</cmt></trkpt>
<trkpt lat="58.868523" lon="05.875133"><ele>28</ele><time>2012-03-31T14:36:24Z</time><cmt>0.0 kmh</cmt></trkpt>
<trkpt lat="58.868523" lon="05.875133"><ele>28</ele><time>2012-03-31T14:36:25Z</time><cmt>0.0 kmh</cmt></trkpt>
<trkpt lat="58.868523" lon="05.875133"><ele>28</ele><time>2012-03-31T14:36:26Z</time><cmt>0.0 kmh</cmt></trkpt>
<trkpt lat="58.868523" lon="05.875133"><ele>28</ele><time>2012-03-31T14:36:27Z</time><cmt>0.0 kmh</cmt></trkpt>
<trkpt lat="58.868523" lon="05.875133"><ele>28</ele><time>2012-03-31T14:36:28Z</time><cmt>0.0 kmh</cmt></trkpt>
<trkpt lat="58.868522" lon="05.875133"><ele>28</ele><time>2012-03-31T14:36:29Z</time><cmt>0.0 kmh</cmt></trkpt>
<trkpt lat="58.868522" lon="05.875133"><ele>28</ele><time>2012-03-31T14:36:30Z</time><cmt>0.0 kmh</cmt></trkpt>
<trkpt lat="58.868522" lon="05.875133"><ele>28</ele><time>2012-03-31T14:36:31Z</time><cmt>0.0 kmh</cmt></trkpt>
<trkpt lat="58.868522" lon="05.875133"><ele>28</ele><time>2012-03-31T14:36:32Z</time><cmt>0.1 kmh</cmt></trkpt>
<trkpt lat="58.868522" lon="05.875133"><ele>28</ele><time>2012-03-31T14:36:33Z</time><cmt>0.1 kmh</cmt></trkpt>
<trkpt lat="58.868522" lon="05.875133"><ele>28</ele><time>2012-03-31T14:36:34Z</time><cmt>0.0 kmh</cmt></trkpt>
<trkpt lat="58.868522" lon="05.875133"><ele>28</ele><time>2012-03-31T14:36:35Z</time><cmt>0.0 kmh</cmt></trkpt>
<trkpt lat="58.868521" lon="05.875133"><ele>28</ele><time>2012-03-31T14:36:36Z</time><cmt>0.0 kmh</cmt></trkpt>
<trkpt lat="58.868521" lon="05.875133"><ele>28</ele><time>2012-03-31T14:36:37Z</time><cmt>0.0 kmh</cmt></trkpt>
<trkpt lat="58.868521" lon="05.875133"><ele>28</ele><time>2012-03-31T14:36:38Z</time><cmt>0.0 kmh</cmt></trkpt>
<trkpt lat="58.868521" lon="05.875133"><ele>28</ele><time>2012-03-31T14:36:39Z</time><cmt>0.0 kmh</cmt></trkpt>
<trkpt lat="58.868521" lon="05.875132"><ele>28</ele><time>2012-03-31T14:36:40Z</time><cmt>0.0 kmh</cmt></trkpt>
<trkpt lat="58.868521" lon="05.875132"><ele>28</ele><time>2012-03-31T14:36:41Z</time><cmt>0.0 kmh</cmt></trkpt>
<trkpt lat="58.868521" lon="05.875133"><ele>28</ele><time>2012-03-31T14:36:42Z</time><cmt>0.0 kmh</cmt></trkpt>
<trkpt lat="58.868522" lon="05.875134"><ele>28</ele><time>2012-03-31T14:36:43Z</time><cmt>0.3 kmh</cmt></trkpt>
<trkpt lat="58.868523" lon="05.875135"><ele>28</ele><time>2012-03-31T14:36:44Z</time><cmt>0.4 kmh</cmt></trkpt>
<trkpt lat="58.868524" lon="05.875135"><ele>28</ele><time>2012-03-31T14:36:45Z</time><cmt>0.4 kmh</cmt></trkpt>
<trkpt lat="58.868526" lon="05.875136"><ele>28</ele><time>2012-03-31T14:36:46Z</time><cmt>0.4 kmh</cmt></trkpt>
<trkpt lat="58.868527" lon="05.875137"><ele>28</ele><time>2012-03-31T14:36:47Z</time><cmt>0.5 kmh</cmt></trkpt>
<trkpt lat="58.868528" lon="05.875137"><ele>28</ele><time>2012-03-31T14:36:48Z</time><cmt>0.3 kmh</cmt></trkpt>
<trkpt lat="58.868528" lon="05.875138"><ele>28</ele><time>2012-03-31T14:36:49Z</time><cmt>0.2 kmh</cmt></trkpt>
<trkpt lat="58.868529" lon="05.875138"><ele>27</ele><time>2012-03-31T14:36:50Z</time><cmt>0.4 kmh</cmt></trkpt>
<trkpt lat="58.868530" lon="05.875138"><ele>27</ele><time>2012-03-31T14:36:51Z</time><cmt>0.2 kmh</cmt></trkpt>
<trkpt lat="58.868530" lon="05.875138"><ele>27</ele><time>2012-03-31T14:36:52Z</time><cmt>0.0 kmh</cmt></trkpt>
<trkpt lat="58.868531" lon="05.875138"><ele>27</ele><time>2012-03-31T14:36:53Z</time><cmt>0.0 kmh</cmt></trkpt>
<trkpt lat="58.868531" lon="05.875138"><ele>27</ele><time>2012-03-31T14:36:54Z</time><cmt>0.2 kmh</cmt></trkpt>
<trkpt lat="58.868532" lon="05.875138"><ele>27</ele><time>2012-03-31T14:36:55Z</time><cmt>0.2 kmh</cmt></trkpt>
<trkpt lat="58.868532" lon="05.875138"><ele>27</ele><time>2012-03-31T14:36:56Z</time><cmt>0.0 kmh</cmt></trkpt>
<trkpt lat="58.868533" lon="05.875138"><ele>27</ele><time>2012-03-31T14:36:57Z</time><cmt>0.0 kmh</cmt></trkpt>
<trkpt lat="58.868533" lon="05.875139"><ele>26</ele><time>2012-03-31T14:36:58Z</time><cmt>0.1 kmh</cmt></trkpt>
<trkpt lat="58.868533" lon="05.875140"><ele>26</ele><time>2012-03-31T14:36:59Z</time><cmt>0.4 kmh</cmt></trkpt>
<trkpt lat="58.868534" lon="05.875140"><ele>26</ele><time>2012-03-31T14:37:00Z</time><cmt>0.2 kmh</cmt></trkpt>
<trkpt lat="58.868534" lon="05.875141"><ele>26</ele><time>2012-03-31T14:37:01Z</time><cmt>0.3 kmh</cmt></trkpt>
<trkpt lat="58.868535" lon="05.875142"><ele>26</ele><time>2012-03-31T14:37:02Z</time><cmt>0.5 kmh</cmt></trkpt>
<trkpt lat="58.868535" lon="05.875143"><ele>26</ele><time>2012-03-31T14:37:03Z</time><cmt>0.2 kmh</cmt></trkpt>
<trkpt lat="58.868535" lon="05.875143"><ele>26</ele><time>2012-03-31T14:37:04Z</time><cmt>0.0 kmh</cmt></trkpt>
<trkpt lat="58.868534" lon="05.875143"><ele>26</ele><time>2012-03-31T14:37:05Z</time><cmt>0.0 kmh</cmt></trkpt>
<trkpt lat="58.868534" lon="05.875142"><ele>26</ele><time>2012-03-31T14:37:06Z</time><cmt>0.0 kmh</cmt></trkpt>
<trkpt lat="58.868533" lon="05.875141"><ele>26</ele><time>2012-03-31T14:37:07Z</time><cmt>0.0 kmh</cmt></trkpt>
<trkpt lat="58.868532" lon="05.875141"><ele>26</ele><time>2012-03-31T14:37:08Z</time><cmt>0.2 kmh</cmt></trkpt>
<trkpt lat="58.868532" lon="05.875140"><ele>26</ele><time>2012-03-31T14:37:09Z</time><cmt>0.1 kmh</cmt></trkpt>
<trkpt lat="58.868532" lon="05.875140"><ele>26</ele><time>2012-03-31T14:37:10Z</time><cmt>0.0 kmh</cmt></trkpt>
<trkpt lat="58.868531" lon="05.875139"><ele>26</ele><time>2012-03-31T14:37:11Z</time><cmt>0.2 kmh</cmt></trkpt>
<trkpt lat="58.868531" lon="05.875138"><ele>26</ele><time>2012-03-31T14:37:12Z</time><cmt>0.4 kmh</cmt></trkpt>
<trkpt lat="58.868530" lon="05.875138"><ele>26</ele><time>2012-03-31T14:37:13Z</time><cmt>0.2 kmh</cmt></trkpt>
<trkpt lat="58.868530" lon="05.875138"><ele>26</ele><time>2012-03-31T14:37:14Z</time><cmt>0.0 kmh</cmt></trkpt>
<trkpt lat="58.868530" lon="05.875137"><ele>26</ele><time>2012-03-31T14:37:15Z</time><cmt>0.0 kmh</cmt></trkpt>
<trkpt lat="58.868530" lon="05.875137"><ele>26</ele><time>2012-03-31T14:37:16Z</time><cmt>0.0 kmh</cmt></trkpt>
<trkpt lat="58.868530" lon="05.875136"><ele>26</ele><time>2012-03-31T14:37:17Z</time><cmt>0.0 kmh</cmt></trkpt>
<trkpt lat="58.868529" lon="05.875136"><ele>26</ele><time>2012-03-31T14:37:18Z</time><cmt>0.0 kmh</cmt></trkpt>
<trkpt lat="58.868529" lon="05.875136"><ele>26</ele><time>2012-03-31T14:37:19Z</time><cmt>0.0 kmh</cmt></trkpt>
<trkpt lat="58.868529" lon="05.875135"><ele>26</ele><time>2012-03-31T14:37:20Z</time><cmt>0.0 kmh</cmt></trkpt>
<trkpt lat="58.868528" lon="05.875135"><ele>26</ele><time>2012-03-31T14:37:21Z</time><cmt>0.0 kmh</cmt></trkpt>
<trkpt lat="58.868527" lon="05.875134"><ele>26</ele><time>2012-03-31T14:37:22Z</time><cmt>0.2 kmh</cmt></trkpt>
<trkpt lat="58.868526" lon="05.875134"><ele>26</ele><time>2012-03-31T14:37:23Z</time><cmt>0.3 kmh</cmt></trkpt>
<trkpt lat="58.868526" lon="05.875134"><ele>26</ele><time>2012-03-31T14:37:24Z</time><cmt>0.0 kmh</cmt></trkpt>
<trkpt lat="58.868526" lon="05.875134"><ele>26</ele><time>2012-03-31T14:37:25Z</time><cmt>0.2 kmh</cmt></trkpt>
<trkpt lat="58.868525" lon="05.875133"><ele>26</ele><time>2012-03-31T14:37:26Z</time><cmt>0.2 kmh</cmt></trkpt>
<trkpt lat="58.868525" lon="05.875133"><ele>26</ele><time>2012-03-31T14:37:27Z</time><cmt>0.0 kmh</cmt></trkpt>
<trkpt lat="58.868524" lon="05.875133"><ele>26</ele><time>2012-03-31T14:37:28Z</time><cmt>0.0 kmh</cmt></trkpt>
<trkpt lat="58.868524" lon="05.875133"><ele>26</ele><time>2012-03-31T14:37:29Z</time><cmt>0.0 kmh</cmt></trkpt>
<trkpt lat="58.868524" lon="05.875132"><ele>26</ele><time>2012-03-31T14:37:30Z</time><cmt>0.0 kmh</cmt></trkpt>
<trkpt lat="58.868523" lon="05.875132"><ele>27</ele><time>2012-03-31T14:37:31Z</time><cmt>0.0 kmh</cmt></trkpt>
<trkpt lat="58.868523" lon="05.875132"><ele>27</ele><time>2012-03-31T14:37:32Z</time><cmt>0.0 kmh</cmt></trkpt>
<trkpt lat="58.868522" lon="05.875132"><ele>27</ele><time>2012-03-31T14:37:33Z</time><cmt>0.0 kmh</cmt></trkpt>
<trkpt lat="58.868521" lon="05.875131"><ele>27</ele><time>2012-03-31T14:37:34Z</time><cmt>0.3 kmh</cmt></trkpt>
<trkpt lat="58.868519" lon="05.875129"><ele>27</ele><time>2012-03-31T14:37:35Z</time><cmt>0.6 kmh</cmt></trkpt>
<trkpt lat="58.868517" lon="05.875128"><ele>27</ele><time>2012-03-31T14:37:36Z</time><cmt>0.8 kmh</cmt></trkpt>
<trkpt lat="58.868515" lon="05.875126"><ele>27</ele><time>2012-03-31T14:37:37Z</time><cmt>0.8 kmh</cmt></trkpt>
<trkpt lat="58.868513" lon="05.875125"><ele>28</ele><time>2012-03-31T14:37:38Z</time><cmt>0.7 kmh</cmt></trkpt>
<trkpt lat="58.868511" lon="05.875124"><ele>28</ele><time>2012-03-31T14:37:39Z</time><cmt>0.7 kmh</cmt></trkpt>
<trkpt lat="58.868509" lon="05.875122"><ele>28</ele><time>2012-03-31T14:37:40Z</time><cmt>0.6 kmh</cmt></trkpt>
<trkpt lat="58.868508" lon="05.875121"><ele>29</ele><time>2012-03-31T14:37:41Z</time><cmt>0.6 kmh</cmt></trkpt>
<trkpt lat="58.868506" lon="05.875119"><ele>29</ele><time>2012-03-31T14:37:42Z</time><cmt>0.8 kmh</cmt></trkpt>
<trkpt lat="58.868504" lon="05.875118"><ele>29</ele><time>2012-03-31T14:37:43Z</time><cmt>0.7 kmh</cmt></trkpt>
<trkpt lat="58.868504" lon="05.875117"><ele>29</ele><time>2012-03-31T14:37:44Z</time><cmt>0.4 kmh</cmt></trkpt>
<trkpt lat="58.868504" lon="05.875117"><ele>30</ele><time>2012-03-31T14:37:45Z</time><cmt>0.0 kmh</cmt></trkpt>
<trkpt lat="58.868504" lon="05.875117"><ele>30</ele><time>2012-03-31T14:37:46Z</time><cmt>0.0 kmh</cmt></trkpt>
<trkpt lat="58.868504" lon="05.875116"><ele>30</ele><time>2012-03-31T14:37:47Z</time><cmt>0.0 kmh</cmt></trkpt>
<trkpt lat="58.868504" lon="05.875116"><ele>30</ele><time>2012-03-31T14:37:48Z</time><cmt>0.0 kmh</cmt></trkpt>
<trkpt lat="58.868504" lon="05.875116"><ele>31</ele><time>2012-03-31T14:37:49Z</time><cmt>0.0 kmh</cmt></trkpt>
<trkpt lat="58.868504" lon="05.875116"><ele>31</ele><time>2012-03-31T14:37:50Z</time><cmt>0.2 kmh</cmt></trkpt>
<trkpt lat="58.868505" lon="05.875116"><ele>31</ele><time>2012-03-31T14:37:51Z</time><cmt>0.2 kmh</cmt></trkpt>
<trkpt lat="58.868505" lon="05.875115"><ele>31</ele><time>2012-03-31T14:37:52Z</time><cmt>0.0 kmh</cmt></trkpt>
<trkpt lat="58.868506" lon="05.875115"><ele>31</ele><time>2012-03-31T14:37:53Z</time><cmt>0.0 kmh</cmt></trkpt>
<trkpt lat="58.868506" lon="05.875115"><ele>31</ele><time>2012-03-31T14:37:54Z</time><cmt>0.0 kmh</cmt></trkpt>
<trkpt lat="58.868507" lon="05.875115"><ele>31</ele><time>2012-03-31T14:37:55Z</time><cmt>0.0 kmh</cmt></trkpt>
<trkpt lat="58.868507" lon="05.875115"><ele>31</ele><time>2012-03-31T14:37:56Z</time><cmt>0.0 kmh</cmt></trkpt>
<trkpt lat="58.868507" lon="05.875115"><ele>31</ele><time>2012-03-31T14:37:57Z</time><cmt>0.0 kmh</cmt></trkpt>
<trkpt lat="58.868508" lon="05.875115"><ele>31</ele><time>2012-03-31T14:37:58Z</time><cmt>0.0 kmh</cmt></trkpt>
<trkpt lat="58.868508" lon="05.875114"><ele>31</ele><time>2012-03-31T14:37:59Z</time><cmt>0.1 kmh</cmt></trkpt>
<trkpt lat="58.868508" lon="05.875114"><ele>31</ele><time>2012-03-31T14:38:00Z</time><cmt>0.4 kmh</cmt></trkpt>
<trkpt lat="58.868509" lon="05.875114"><ele>31</ele><time>2012-03-31T14:38:01Z</time><cmt>0.2 kmh</cmt></trkpt>
<trkpt lat="58.868509" lon="05.875114"><ele>31</ele><time>2012-03-31T14:38:02Z</time><cmt>0.0 kmh</cmt></trkpt>
<trkpt lat="58.868509" lon="05.875114"><ele>31</ele><time>2012-03-31T14:38:03Z</time><cmt>0.0 kmh</cmt></trkpt>
<trkpt lat="58.868509" lon="05.875113"><ele>31</ele><time>2012-03-31T14:38:04Z</time><cmt>0.0 kmh</cmt></trkpt>
<trkpt lat="58.868509" lon="05.875113"><ele>31</ele><time>2012-03-31T14:38:05Z</time><cmt>0.0 kmh</cmt></trkpt>
<trkpt lat="58.868509" lon="05.875113"><ele>31</ele><time>2012-03-31T14:38:06Z</time><cmt>0.0 kmh</cmt></trkpt>
<trkpt lat="58.868510" lon="05.875113"><ele>31</ele><time>2012-03-31T14:38:07Z</time><cmt>0.0 kmh</cmt></trkpt>
<trkpt lat="58.868509" lon="05.875113"><ele>31</ele><time>2012-03-31T14:38:09Z</time><cmt>0.0 kmh</cmt></trkpt>
<trkpt lat="58.868509" lon="05.875113"><ele>31</ele><time>2012-03-31T14:38:10Z</time><cmt>0.0 kmh</cmt></trkpt>
<trkpt lat="58.868510" lon="05.875113"><ele>31</ele><time>2012-03-31T14:38:11Z</time><cmt>0.0 kmh</cmt></trkpt>
<trkpt lat="58.868510" lon="05.875113"><ele>31</ele><time>2012-03-31T14:38:13Z</time><cmt>0.0 kmh</cmt></trkpt>
<trkpt lat="58.868510" lon="05.875112"><ele>31</ele><time>2012-03-31T14:38:14Z</time><cmt>0.0 kmh</cmt></trkpt>
<trkpt lat="58.868510" lon="05.875112"><ele>31</ele><time>2012-03-31T14:38:15Z</time><cmt>0.2 kmh</cmt></trkpt>
<trkpt lat="58.868510" lon="05.875112"><ele>31</ele><time>2012-03-31T14:38:16Z</time><cmt>0.2 kmh</cmt></trkpt>
<trkpt lat="58.868510" lon="05.875112"><ele>31</ele><time>2012-03-31T14:38:17Z</time><cmt>0.0 kmh</cmt></trkpt>
<trkpt lat="58.868510" lon="05.875112"><ele>31</ele><time>2012-03-31T14:38:18Z</time><cmt>0.1 kmh</cmt></trkpt>
<trkpt lat="58.868511" lon="05.875112"><ele>31</ele><time>2012-03-31T14:38:19Z</time><cmt>0.2 kmh</cmt></trkpt>
<trkpt lat="58.868511" lon="05.875112"><ele>31</ele><time>2012-03-31T14:38:20Z</time><cmt>0.0 kmh</cmt></trkpt>
<trkpt lat="58.868512" lon="05.875112"><ele>31</ele><time>2012-03-31T14:38:21Z</time><cmt>0.0 kmh</cmt></trkpt>
<trkpt lat="58.868512" lon="05.875112"><ele>31</ele><time>2012-03-31T14:38:22Z</time><cmt>0.2 kmh</cmt></trkpt>
<trkpt lat="58.868513" lon="05.875113"><ele>30</ele><time>2012-03-31T14:38:23Z</time><cmt>0.4 kmh</cmt></trkpt>
<trkpt lat="58.868513" lon="05.875113"><ele>30</ele><time>2012-03-31T14:38:24Z</time><cmt>0.4 kmh</cmt></trkpt>
<trkpt lat="58.868514" lon="05.875113"><ele>30</ele><time>2012-03-31T14:38:25Z</time><cmt>0.4 kmh</cmt></trkpt>
<trkpt lat="58.868514" lon="05.875113"><ele>30</ele><time>2012-03-31T14:38:26Z</time><cmt>0.2 kmh</cmt></trkpt>
<trkpt lat="58.868515" lon="05.875113"><ele>30</ele><time>2012-03-31T14:38:27Z</time><cmt>0.0 kmh</cmt></trkpt>
<trkpt lat="58.868515" lon="05.875113"><ele>30</ele><time>2012-03-31T14:38:28Z</time><cmt>0.0 kmh</cmt></trkpt>
<trkpt lat="58.868516" lon="05.875114"><ele>30</ele><time>2012-03-31T14:38:29Z</time><cmt>0.0 kmh</cmt></trkpt>
<trkpt lat="58.868516" lon="05.875114"><ele>30</ele><time>2012-03-31T14:38:30Z</time><cmt>0.0 kmh</cmt></trkpt>
<trkpt lat="58.868517" lon="05.875114"><ele>30</ele><time>2012-03-31T14:38:31Z</time><cmt>0.0 kmh</cmt></trkpt>
<trkpt lat="58.868517" lon="05.875115"><ele>30</ele><time>2012-03-31T14:38:32Z</time><cmt>0.0 kmh</cmt></trkpt>
<trkpt lat="58.868518" lon="05.875115"><ele>30</ele><time>2012-03-31T14:38:33Z</time><cmt>0.0 kmh</cmt></trkpt>
<trkpt lat="58.868518" lon="05.875115"><ele>30</ele><time>2012-03-31T14:38:34Z</time><cmt>0.0 kmh</cmt></trkpt>
<trkpt lat="58.868518" lon="05.875116"><ele>30</ele><time>2012-03-31T14:38:35Z</time><cmt>0.0 kmh</cmt></trkpt>
<trkpt lat="58.868518" lon="05.875116"><ele>30</ele><time>2012-03-31T14:38:36Z</time><cmt>0.0 kmh</cmt></trkpt>
<trkpt lat="58.868519" lon="05.875117"><ele>29</ele><time>2012-03-31T14:38:37Z</time><cmt>0.0 kmh</cmt></trkpt>
<trkpt lat="58.868519" lon="05.875117"><ele>29</ele><time>2012-03-31T14:38:38Z</time><cmt>0.0 kmh</cmt></trkpt>
<trkpt lat="58.868519" lon="05.875118"><ele>29</ele><time>2012-03-31T14:38:39Z</time><cmt>0.0 kmh</cmt></trkpt>
<trkpt lat="58.868519" lon="05.875118"><ele>29</ele><time>2012-03-31T14:38:40Z</time><cmt>0.0 kmh</cmt></trkpt>
<trkpt lat="58.868520" lon="05.875118"><ele>29</ele><time>2012-03-31T14:38:41Z</time><cmt>0.0 kmh</cmt></trkpt>
<trkpt lat="58.868520" lon="05.875119"><ele>29</ele><time>2012-03-31T14:38:42Z</time><cmt>0.0 kmh</cmt></trkpt>
<trkpt lat="58.868520" lon="05.875119"><ele>29</ele><time>2012-03-31T14:38:43Z</time><cmt>0.0 kmh</cmt></trkpt>
<trkpt lat="58.868520" lon="05.875120"><ele>29</ele><time>2012-03-31T14:38:44Z</time><cmt>0.0 kmh</cmt></trkpt>
<trkpt lat="58.868520" lon="05.875120"><ele>29</ele><time>2012-03-31T14:38:45Z</time><cmt>0.0 kmh</cmt></trkpt>
<trkpt lat="58.868521" lon="05.875120"><ele>29</ele><time>2012-03-31T14:38:46Z</time><cmt>0.0 kmh</cmt></trkpt>
<trkpt lat="58.868521" lon="05.875121"><ele>29</ele><time>2012-03-31T14:38:47Z</time><cmt>0.3 kmh</cmt></trkpt>
<trkpt lat="58.868521" lon="05.875122"><ele>29</ele><time>2012-03-31T14:38:48Z</time><cmt>0.4 kmh</cmt></trkpt>
<trkpt lat="58.868521" lon="05.875123"><ele>29</ele><time>2012-03-31T14:38:49Z</time><cmt>0.4 kmh</cmt></trkpt>
<trkpt lat="58.868521" lon="05.875123"><ele>29</ele><time>2012-03-31T14:38:50Z</time><cmt>0.5 kmh</cmt></trkpt>
<trkpt lat="58.868521" lon="05.875124"><ele>29</ele><time>2012-03-31T14:38:51Z</time><cmt>0.5 kmh</cmt></trkpt>
<trkpt lat="58.868521" lon="05.875125"><ele>29</ele><time>2012-03-31T14:38:52Z</time><cmt>0.5 kmh</cmt></trkpt>
<trkpt lat="58.868521" lon="05.875126"><ele>29</ele><time>2012-03-31T14:38:53Z</time><cmt>0.3 kmh</cmt></trkpt>
<trkpt lat="58.868521" lon="05.875126"><ele>29</ele><time>2012-03-31T14:38:54Z</time><cmt>0.0 kmh</cmt></trkpt>
<trkpt lat="58.868521" lon="05.875127"><ele>29</ele><time>2012-03-31T14:38:55Z</time><cmt>0.1 kmh</cmt></trkpt>
<trkpt lat="58.868521" lon="05.875127"><ele>29</ele><time>2012-03-31T14:38:56Z</time><cmt>0.2 kmh</cmt></trkpt>
<trkpt lat="58.868521" lon="05.875128"><ele>28</ele><time>2012-03-31T14:38:57Z</time><cmt>0.0 kmh</cmt></trkpt>
<trkpt lat="58.868522" lon="05.875128"><ele>28</ele><time>2012-03-31T14:38:58Z</time><cmt>0.0 kmh</cmt></trkpt>
<trkpt lat="58.868522" lon="05.875128"><ele>28</ele><time>2012-03-31T14:38:59Z</time><cmt>0.0 kmh</cmt></trkpt>
<trkpt lat="58.868522" lon="05.875129"><ele>28</ele><time>2012-03-31T14:39:00Z</time><cmt>0.0 kmh</cmt></trkpt>
<trkpt lat="58.868523" lon="05.875129"><ele>28</ele><time>2012-03-31T14:39:01Z</time><cmt>0.0 kmh</cmt></trkpt>
<trkpt lat="58.868523" lon="05.875130"><ele>28</ele><time>2012-03-31T14:39:02Z</time><cmt>0.0 kmh</cmt></trkpt>
<trkpt lat="58.868523" lon="05.875130"><ele>28</ele><time>2012-03-31T14:39:03Z</time><cmt>0.0 kmh</cmt></trkpt>
<trkpt lat="58.868523" lon="05.875131"><ele>28</ele><time>2012-03-31T14:39:04Z</time><cmt>0.0 kmh</cmt></trkpt>
<trkpt lat="58.868523" lon="05.875131"><ele>28</ele><time>2012-03-31T14:39:05Z</time><cmt>0.0 kmh</cmt></trkpt>
<trkpt lat="58.868523" lon="05.875132"><ele>28</ele><time>2012-03-31T14:39:06Z</time><cmt>0.0 kmh</cmt></trkpt>
<trkpt lat="58.868523" lon="05.875133"><ele>28</ele><time>2012-03-31T14:39:07Z</time><cmt>0.0 kmh</cmt></trkpt>
<trkpt lat="58.868523" lon="05.875134"><ele>28</ele><time>2012-03-31T14:39:08Z</time><cmt>0.0 kmh</cmt></trkpt>
<trkpt lat="58.868523" lon="05.875134"><ele>28</ele><time>2012-03-31T14:39:09Z</time><cmt>0.0 kmh</cmt></trkpt>
<trkpt lat="58.868523" lon="05.875135"><ele>28</ele><time>2012-03-31T14:39:10Z</time><cmt>0.0 kmh</cmt></trkpt>
<trkpt lat="58.868523" lon="05.875136"><ele>28</ele><time>2012-03-31T14:39:11Z</time><cmt>0.0 kmh</cmt></trkpt>
<trkpt lat="58.868523" lon="05.875136"><ele>28</ele><time>2012-03-31T14:39:12Z</time><cmt>0.0 kmh</cmt></trkpt>
<trkpt lat="58.868524" lon="05.875137"><ele>27</ele><time>2012-03-31T14:39:13Z</time><cmt>0.0 kmh</cmt></trkpt>
<trkpt lat="58.868524" lon="05.875137"><ele>27</ele><time>2012-03-31T14:39:14Z</time><cmt>0.0 kmh</cmt></trkpt>
<trkpt lat="58.868524" lon="05.875138"><ele>27</ele><time>2012-03-31T14:39:15Z</time><cmt>0.0 kmh</cmt></trkpt>
<trkpt lat="58.868524" lon="05.875138"><ele>27</ele><time>2012-03-31T14:39:16Z</time><cmt>0.0 kmh</cmt></trkpt>
<trkpt lat="58.868524" lon="05.875139"><ele>27</ele><time>2012-03-31T14:39:17Z</time><cmt>0.0 kmh</cmt></trkpt>
<trkpt lat="58.868524" lon="05.875139"><ele>27</ele><time>2012-03-31T14:39:18Z</time><cmt>0.0 kmh</cmt></trkpt>
<trkpt lat="58.868524" lon="05.875140"><ele>27</ele><time>2012-03-31T14:39:19Z</time><cmt>0.0 kmh</cmt></trkpt>
<trkpt lat="58.868525" lon="05.875141"><ele>27</ele><time>2012-03-31T14:39:20Z</time><cmt>0.0 kmh</cmt></trkpt>
<trkpt lat="58.868525" lon="05.875141"><ele>27</ele><time>2012-03-31T14:39:21Z</time><cmt>0.0 kmh</cmt></trkpt>
<trkpt lat="58.868525" lon="05.875142"><ele>27</ele><time>2012-03-31T14:39:22Z</time><cmt>0.0 kmh</cmt></trkpt>
<trkpt lat="58.868525" lon="05.875142"><ele>27</ele><time>2012-03-31T14:39:23Z</time><cmt>0.0 kmh</cmt></trkpt>
<trkpt lat="58.868525" lon="05.875143"><ele>27</ele><time>2012-03-31T14:39:24Z</time><cmt>0.0 kmh</cmt></trkpt>
<trkpt lat="58.868525" lon="05.875144"><ele>27</ele><time>2012-03-31T14:39:25Z</time><cmt>0.1 kmh</cmt></trkpt>
<trkpt lat="58.868525" lon="05.875144"><ele>27</ele><time>2012-03-31T14:39:26Z</time><cmt>0.3 kmh</cmt></trkpt>
<trkpt lat="58.868524" lon="05.875145"><ele>27</ele><time>2012-03-31T14:39:27Z</time><cmt>0.2 kmh</cmt></trkpt>
<trkpt lat="58.868524" lon="05.875146"><ele>27</ele><time>2012-03-31T14:39:28Z</time><cmt>0.0 kmh</cmt></trkpt>
<trkpt lat="58.868524" lon="05.875146"><ele>27</ele><time>2012-03-31T14:39:29Z</time><cmt>0.0 kmh</cmt></trkpt>
<trkpt lat="58.868524" lon="05.875147"><ele>27</ele><time>2012-03-31T14:39:30Z</time><cmt>0.0 kmh</cmt></trkpt>
<trkpt lat="58.868524" lon="05.875147"><ele>27</ele><time>2012-03-31T14:39:31Z</time><cmt>0.0 kmh</cmt></trkpt>
<trkpt lat="58.868524" lon="05.875148"><ele>27</ele><time>2012-03-31T14:39:32Z</time><cmt>0.0 kmh</cmt></trkpt>
<trkpt lat="58.868524" lon="05.875148"><ele>27</ele><time>2012-03-31T14:39:33Z</time><cmt>0.0 kmh</cmt></trkpt>
<trkpt lat="58.868524" lon="05.875149"><ele>27</ele><time>2012-03-31T14:39:34Z</time><cmt>0.0 kmh</cmt></trkpt>
<trkpt lat="58.868524" lon="05.875149"><ele>27</ele><time>2012-03-31T14:39:35Z</time><cmt>0.0 kmh</cmt></trkpt>
<trkpt lat="58.868524" lon="05.875150"><ele>26</ele><time>2012-03-31T14:39:36Z</time><cmt>0.0 kmh</cmt></trkpt>
<trkpt lat="58.868524" lon="05.875150"><ele>26</ele><time>2012-03-31T14:39:37Z</time><cmt>0.0 kmh</cmt></trkpt>
<trkpt lat="58.868523" lon="05.875151"><ele>26</ele><time>2012-03-31T14:39:38Z</time><cmt>0.0 kmh</cmt></trkpt>
<trkpt lat="58.868523" lon="05.875151"><ele>26</ele><time>2012-03-31T14:39:39Z</time><cmt>0.0 kmh</cmt></trkpt>
<trkpt lat="58.868523" lon="05.875152"><ele>26</ele><time>2012-03-31T14:39:40Z</time><cmt>0.0 kmh</cmt></trkpt>
<trkpt lat="58.868523" lon="05.875152"><ele>26</ele><time>2012-03-31T14:39:41Z</time><cmt>0.0 kmh</cmt></trkpt>
<trkpt lat="58.868523" lon="05.875152"><ele>26</ele><time>2012-03-31T14:39:42Z</time><cmt>0.0 kmh</cmt></trkpt>
<trkpt lat="58.868523" lon="05.875153"><ele>26</ele><time>2012-03-31T14:39:43Z</time><cmt>0.0 kmh</cmt></trkpt>
<trkpt lat="58.868523" lon="05.875153"><ele>26</ele><time>2012-03-31T14:39:44Z</time><cmt>0.0 kmh</cmt></trkpt>
<trkpt lat="58.868523" lon="05.875154"><ele>26</ele><time>2012-03-31T14:39:45Z</time><cmt>0.0 kmh</cmt></trkpt>
<trkpt lat="58.868523" lon="05.875154"><ele>26</ele><time>2012-03-31T14:39:46Z</time><cmt>0.0 kmh</cmt></trkpt>
<trkpt lat="58.868522" lon="05.875154"><ele>26</ele><time>2012-03-31T14:39:47Z</time><cmt>0.0 kmh</cmt></trkpt>
<trkpt lat="58.868522" lon="05.875155"><ele>26</ele><time>2012-03-31T14:39:48Z</time><cmt>0.0 kmh</cmt></trkpt>
<trkpt lat="58.868522" lon="05.875155"><ele>26</ele><time>2012-03-31T14:39:49Z</time><cmt>0.0 kmh</cmt></trkpt>
<trkpt lat="58.868522" lon="05.875156"><ele>26</ele><time>2012-03-31T14:39:50Z</time><cmt>0.1 kmh</cmt></trkpt>
<trkpt lat="58.868522" lon="05.875156"><ele>26</ele><time>2012-03-31T14:39:51Z</time><cmt>0.3 kmh</cmt></trkpt>
<trkpt lat="58.868522" lon="05.875156"><ele>26</ele><time>2012-03-31T14:39:52Z</time><cmt>0.2 kmh</cmt></trkpt>
<trkpt lat="58.868522" lon="05.875156"><ele>26</ele><time>2012-03-31T14:39:53Z</time><cmt>0.0 kmh</cmt></trkpt>
<trkpt lat="58.868522" lon="05.875156"><ele>26</ele><time>2012-03-31T14:39:54Z</time><cmt>0.0 kmh</cmt></trkpt>
<trkpt lat="58.868522" lon="05.875156"><ele>26</ele><time>2012-03-31T14:39:55Z</time><cmt>0.2 kmh</cmt></trkpt>
<trkpt lat="58.868522" lon="05.875156"><ele>26</ele><time>2012-03-31T14:39:56Z</time><cmt>0.1 kmh</cmt></trkpt>
<trkpt lat="58.868523" lon="05.875156"><ele>26</ele><time>2012-03-31T14:39:57Z</time><cmt>0.0 kmh</cmt></trkpt>
<trkpt lat="58.868523" lon="05.875156"><ele>26</ele><time>2012-03-31T14:39:58Z</time><cmt>0.0 kmh</cmt></trkpt>
<trkpt lat="58.868523" lon="05.875156"><ele>26</ele><time>2012-03-31T14:39:59Z</time><cmt>0.0 kmh</cmt></trkpt>
<trkpt lat="58.868523" lon="05.875156"><ele>26</ele><time>2012-03-31T14:40:00Z</time><cmt>0.0 kmh</cmt></trkpt>
<trkpt lat="58.868523" lon="05.875156"><ele>26</ele><time>2012-03-31T14:40:01Z</time><cmt>0.2 kmh</cmt></trkpt>
<trkpt lat="58.868523" lon="05.875156"><ele>26</ele><time>2012-03-31T14:40:02Z</time><cmt>0.1 kmh</cmt></trkpt>
<trkpt lat="58.868524" lon="05.875156"><ele>26</ele><time>2012-03-31T14:40:03Z</time><cmt>0.0 kmh</cmt></trkpt>
<trkpt lat="58.868524" lon="05.875156"><ele>26</ele><time>2012-03-31T14:40:04Z</time><cmt>0.0 kmh</cmt></trkpt>
<trkpt lat="58.868524" lon="05.875156"><ele>26</ele><time>2012-03-31T14:40:05Z</time><cmt>0.0 kmh</cmt></trkpt>
<trkpt lat="58.868524" lon="05.875156"><ele>26</ele><time>2012-03-31T14:40:06Z</time><cmt>0.0 kmh</cmt></trkpt>
<trkpt lat="58.868523" lon="05.875156"><ele>26</ele><time>2012-03-31T14:40:07Z</time><cmt>0.0 kmh</cmt></trkpt>
<trkpt lat="58.868523" lon="05.875156"><ele>26</ele><time>2012-03-31T14:40:08Z</time><cmt>0.0 kmh</cmt></trkpt>
<trkpt lat="58.868523" lon="05.875156"><ele>26</ele><time>2012-03-31T14:40:09Z</time><cmt>0.0 kmh</cmt></trkpt>
<trkpt lat="58.868523" lon="05.875156"><ele>26</ele><time>2012-03-31T14:40:10Z</time><cmt>0.0 kmh</cmt></trkpt>
<trkpt lat="58.868523" lon="05.875156"><ele>26</ele><time>2012-03-31T14:40:11Z</time><cmt>0.0 kmh</cmt></trkpt>
<trkpt lat="58.868523" lon="05.875156"><ele>26</ele><time>2012-03-31T14:40:12Z</time><cmt>0.0 kmh</cmt></trkpt>
<trkpt lat="58.868523" lon="05.875157"><ele>26</ele><time>2012-03-31T14:40:13Z</time><cmt>0.0 kmh</cmt></trkpt>
<trkpt lat="58.868523" lon="05.875156"><ele>26</ele><time>2012-03-31T14:40:15Z</time><cmt>0.0 kmh</cmt></trkpt>
<trkpt lat="58.868523" lon="05.875156"><ele>26</ele><time>2012-03-31T14:40:16Z</time><cmt>0.0 kmh</cmt></trkpt>
<trkpt lat="58.868523" lon="05.875155"><ele>25</ele><time>2012-03-31T14:40:17Z</time><cmt>0.0 kmh</cmt></trkpt>
<trkpt lat="58.868523" lon="05.875155"><ele>25</ele><time>2012-03-31T14:40:18Z</time><cmt>0.0 kmh</cmt></trkpt>
<trkpt lat="58.868523" lon="05.875155"><ele>25</ele><time>2012-03-31T14:40:19Z</time><cmt>0.0 kmh</cmt></trkpt>
<trkpt lat="58.868523" lon="05.875154"><ele>25</ele><time>2012-03-31T14:40:20Z</time><cmt>0.0 kmh</cmt></trkpt>
<trkpt lat="58.868524" lon="05.875154"><ele>25</ele><time>2012-03-31T14:40:21Z</time><cmt>0.0 kmh</cmt></trkpt>
<trkpt lat="58.868524" lon="05.875154"><ele>25</ele><time>2012-03-31T14:40:22Z</time><cmt>0.0 kmh</cmt></trkpt>
<trkpt lat="58.868524" lon="05.875153"><ele>25</ele><time>2012-03-31T14:40:23Z</time><cmt>0.0 kmh</cmt></trkpt>
<trkpt lat="58.868524" lon="05.875152"><ele>25</ele><time>2012-03-31T14:40:24Z</time><cmt>0.0 kmh</cmt></trkpt>
<trkpt lat="58.868524" lon="05.875151"><ele>25</ele><time>2012-03-31T14:40:25Z</time><cmt>0.0 kmh</cmt></trkpt>
<trkpt lat="58.868524" lon="05.875150"><ele>25</ele><time>2012-03-31T14:40:26Z</time><cmt>0.3 kmh</cmt></trkpt>
<trkpt lat="58.868524" lon="05.875149"><ele>25</ele><time>2012-03-31T14:40:27Z</time><cmt>0.2 kmh</cmt></trkpt>
<trkpt lat="58.868524" lon="05.875148"><ele>25</ele><time>2012-03-31T14:40:28Z</time><cmt>0.0 kmh</cmt></trkpt>
<trkpt lat="58.868524" lon="05.875148"><ele>25</ele><time>2012-03-31T14:40:29Z</time><cmt>0.0 kmh</cmt></trkpt>
<trkpt lat="58.868525" lon="05.875147"><ele>25</ele><time>2012-03-31T14:40:30Z</time><cmt>0.0 kmh</cmt></trkpt>
<trkpt lat="58.868525" lon="05.875146"><ele>25</ele><time>2012-03-31T14:40:31Z</time><cmt>0.2 kmh</cmt></trkpt>
<trkpt lat="58.868525" lon="05.875146"><ele>24</ele><time>2012-03-31T14:40:32Z</time><cmt>0.4 kmh</cmt></trkpt>
<trkpt lat="58.868525" lon="05.875146"><ele>24</ele><time>2012-03-31T14:40:33Z</time><cmt>0.3 kmh</cmt></trkpt>
<trkpt lat="58.868524" lon="05.875145"><ele>24</ele><time>2012-03-31T14:40:34Z</time><cmt>0.1 kmh</cmt></trkpt>
<trkpt lat="58.868524" lon="05.875145"><ele>24</ele><time>2012-03-31T14:40:35Z</time><cmt>0.0 kmh</cmt></trkpt>
<trkpt lat="58.868524" lon="05.875145"><ele>24</ele><time>2012-03-31T14:40:36Z</time><cmt>0.0 kmh</cmt></trkpt>
<trkpt lat="58.868524" lon="05.875145"><ele>24</ele><time>2012-03-31T14:40:37Z</time><cmt>0.0 kmh</cmt></trkpt>
<trkpt lat="58.868524" lon="05.875145"><ele>24</ele><time>2012-03-31T14:40:38Z</time><cmt>0.0 kmh</cmt></trkpt>
<trkpt lat="58.868524" lon="05.875145"><ele>24</ele><time>2012-03-31T14:40:39Z</time><cmt>0.3 kmh</cmt></trkpt>
<trkpt lat="58.868524" lon="05.875145"><ele>24</ele><time>2012-03-31T14:40:40Z</time><cmt>0.2 kmh</cmt></trkpt>
<trkpt lat="58.868524" lon="05.875144"><ele>24</ele><time>2012-03-31T14:40:41Z</time><cmt>0.0 kmh</cmt></trkpt>
<trkpt lat="58.868524" lon="05.875144"><ele>24</ele><time>2012-03-31T14:40:42Z</time><cmt>0.0 kmh</cmt></trkpt>
<trkpt lat="58.868524" lon="05.875144"><ele>24</ele><time>2012-03-31T14:40:44Z</time><cmt>0.0 kmh</cmt></trkpt>
<trkpt lat="58.868524" lon="05.875144"><ele>24</ele><time>2012-03-31T14:40:46Z</time><cmt>0.0 kmh</cmt></trkpt>
<trkpt lat="58.868524" lon="05.875144"><ele>24</ele><time>2012-03-31T14:40:47Z</time><cmt>0.0 kmh</cmt></trkpt>
<trkpt lat="58.868524" lon="05.875144"><ele>24</ele><time>2012-03-31T14:40:48Z</time><cmt>0.0 kmh</cmt></trkpt>
<trkpt lat="58.868524" lon="05.875144"><ele>24</ele><time>2012-03-31T14:40:49Z</time><cmt>0.0 kmh</cmt></trkpt>
<trkpt lat="58.868523" lon="05.875144"><ele>24</ele><time>2012-03-31T14:40:50Z</time><cmt>0.0 kmh</cmt></trkpt>
<trkpt lat="58.868523" lon="05.875144"><ele>24</ele><time>2012-03-31T14:40:51Z</time><cmt>0.0 kmh</cmt></trkpt>
<trkpt lat="58.868523" lon="05.875144"><ele>24</ele><time>2012-03-31T14:40:52Z</time><cmt>0.0 kmh</cmt></trkpt>
<trkpt lat="58.868523" lon="05.875144"><ele>24</ele><time>2012-03-31T14:40:53Z</time><cmt>0.0 kmh</cmt></trkpt>
<trkpt lat="58.868523" lon="05.875144"><ele>24</ele><time>2012-03-31T14:40:54Z</time><cmt>0.0 kmh</cmt></trkpt>
<trkpt lat="58.868522" lon="05.875145"><ele>24</ele><time>2012-03-31T14:40:55Z</time><cmt>0.0 kmh</cmt></trkpt>
<trkpt lat="58.868522" lon="05.875145"><ele>24</ele><time>2012-03-31T14:40:56Z</time><cmt>0.0 kmh</cmt></trkpt>
<trkpt lat="58.868522" lon="05.875145"><ele>24</ele><time>2012-03-31T14:40:57Z</time><cmt>0.0 kmh</cmt></trkpt>
<trkpt lat="58.868522" lon="05.875145"><ele>24</ele><time>2012-03-31T14:40:58Z</time><cmt>0.0 kmh</cmt></trkpt>
<trkpt lat="58.868522" lon="05.875145"><ele>24</ele><time>2012-03-31T14:40:59Z</time><cmt>0.0 kmh</cmt></trkpt>
<trkpt lat="58.868522" lon="05.875146"><ele>24</ele><time>2012-03-31T14:41:00Z</time><cmt>0.0 kmh</cmt></trkpt>
<trkpt lat="58.868521" lon="05.875146"><ele>24</ele><time>2012-03-31T14:41:01Z</time><cmt>0.0 kmh</cmt></trkpt>
<trkpt lat="58.868521" lon="05.875146"><ele>24</ele><time>2012-03-31T14:41:02Z</time><cmt>0.0 kmh</cmt></trkpt>
<trkpt lat="58.868521" lon="05.875146"><ele>24</ele><time>2012-03-31T14:41:03Z</time><cmt>0.0 kmh</cmt></trkpt>
<trkpt lat="58.868521" lon="05.875146"><ele>24</ele><time>2012-03-31T14:41:04Z</time><cmt>0.0 kmh</cmt></trkpt>
<trkpt lat="58.868520" lon="05.875147"><ele>24</ele><time>2012-03-31T14:41:05Z</time><cmt>0.0 kmh</cmt></trkpt>
<trkpt lat="58.868520" lon="05.875147"><ele>24</ele><time>2012-03-31T14:41:06Z</time><cmt>0.0 kmh</cmt></trkpt>
<trkpt lat="58.868520" lon="05.875147"><ele>24</ele><time>2012-03-31T14:41:07Z</time><cmt>0.2 kmh</cmt></trkpt>
<trkpt lat="58.868520" lon="05.875147"><ele>24</ele><time>2012-03-31T14:41:09Z</time><cmt>0.0 kmh</cmt></trkpt>
<trkpt lat="58.868520" lon="05.875147"><ele>24</ele><time>2012-03-31T14:41:10Z</time><cmt>0.0 kmh</cmt></trkpt>
<trkpt lat="58.868520" lon="05.875147"><ele>24</ele><time>2012-03-31T14:41:12Z</time><cmt>0.0 kmh</cmt></trkpt>
<trkpt lat="58.868520" lon="05.875147"><ele>24</ele><time>2012-03-31T14:41:14Z</time><cmt>0.0 kmh</cmt></trkpt>
<trkpt lat="58.868520" lon="05.875147"><ele>24</ele><time>2012-03-31T14:41:15Z</time><cmt>0.0 kmh</cmt></trkpt>
<trkpt lat="58.868519" lon="05.875147"><ele>24</ele><time>2012-03-31T14:41:16Z</time><cmt>0.0 kmh</cmt></trkpt>
<trkpt lat="58.868519" lon="05.875147"><ele>24</ele><time>2012-03-31T14:41:17Z</time><cmt>0.0 kmh</cmt></trkpt>
<trkpt lat="58.868519" lon="05.875148"><ele>24</ele><time>2012-03-31T14:41:18Z</time><cmt>0.0 kmh</cmt></trkpt>
<trkpt lat="58.868519" lon="05.875148"><ele>24</ele><time>2012-03-31T14:41:19Z</time><cmt>0.0 kmh</cmt></trkpt>
<trkpt lat="58.868518" lon="05.875148"><ele>24</ele><time>2012-03-31T14:41:20Z</time><cmt>0.0 kmh</cmt></trkpt>
<trkpt lat="58.868518" lon="05.875148"><ele>24</ele><time>2012-03-31T14:41:21Z</time><cmt>0.0 kmh</cmt></trkpt>
<trkpt lat="58.868518" lon="05.875148"><ele>24</ele><time>2012-03-31T14:41:22Z</time><cmt>0.0 kmh</cmt></trkpt>
<trkpt lat="58.868518" lon="05.875149"><ele>24</ele><time>2012-03-31T14:41:23Z</time><cmt>0.0 kmh</cmt></trkpt>
<trkpt lat="58.868517" lon="05.875149"><ele>24</ele><time>2012-03-31T14:41:24Z</time><cmt>0.0 kmh</cmt></trkpt>
<trkpt lat="58.868517" lon="05.875149"><ele>24</ele><time>2012-03-31T14:41:25Z</time><cmt>0.0 kmh</cmt></trkpt>
<trkpt lat="58.868517" lon="05.875149"><ele>24</ele><time>2012-03-31T14:41:26Z</time><cmt>0.2 kmh</cmt></trkpt>
<trkpt lat="58.868517" lon="05.875149"><ele>24</ele><time>2012-03-31T14:41:27Z</time><cmt>0.2 kmh</cmt></trkpt>
<trkpt lat="58.868517" lon="05.875149"><ele>24</ele><time>2012-03-31T14:41:28Z</time><cmt>0.0 kmh</cmt></trkpt>
<trkpt lat="58.868516" lon="05.875150"><ele>24</ele><time>2012-03-31T14:41:29Z</time><cmt>0.0 kmh</cmt></trkpt>
<trkpt lat="58.868516" lon="05.875150"><ele>24</ele><time>2012-03-31T14:41:30Z</time><cmt>0.0 kmh</cmt></trkpt>
<trkpt lat="58.868516" lon="05.875150"><ele>24</ele><time>2012-03-31T14:41:31Z</time><cmt>0.0 kmh</cmt></trkpt>
<trkpt lat="58.868516" lon="05.875150"><ele>24</ele><time>2012-03-31T14:41:32Z</time><cmt>0.0 kmh</cmt></trkpt>
<trkpt lat="58.868515" lon="05.875150"><ele>24</ele><time>2012-03-31T14:41:33Z</time><cmt>0.0 kmh</cmt></trkpt>
<trkpt lat="58.868515" lon="05.875150"><ele>24</ele><time>2012-03-31T14:41:34Z</time><cmt>0.0 kmh</cmt></trkpt>
<trkpt lat="58.868515" lon="05.875151"><ele>24</ele><time>2012-03-31T14:41:35Z</time><cmt>0.0 kmh</cmt></trkpt>
<trkpt lat="58.868515" lon="05.875151"><ele>24</ele><time>2012-03-31T14:41:36Z</time><cmt>0.1 kmh</cmt></trkpt>
<trkpt lat="58.868515" lon="05.875151"><ele>24</ele><time>2012-03-31T14:41:37Z</time><cmt>0.2 kmh</cmt></trkpt>
<trkpt lat="58.868514" lon="05.875151"><ele>24</ele><time>2012-03-31T14:41:38Z</time><cmt>0.0 kmh</cmt></trkpt>
<trkpt lat="58.868514" lon="05.875151"><ele>24</ele><time>2012-03-31T14:41:39Z</time><cmt>0.0 kmh</cmt></trkpt>
<trkpt lat="58.868514" lon="05.875151"><ele>24</ele><time>2012-03-31T14:41:40Z</time><cmt>0.0 kmh</cmt></trkpt>
<trkpt lat="58.868514" lon="05.875152"><ele>24</ele><time>2012-03-31T14:41:41Z</time><cmt>0.0 kmh</cmt></trkpt>
<trkpt lat="58.868514" lon="05.875152"><ele>24</ele><time>2012-03-31T14:41:42Z</time><cmt>0.0 kmh</cmt></trkpt>
<trkpt lat="58.868514" lon="05.875152"><ele>24</ele><time>2012-03-31T14:41:49Z</time><cmt>0.0 kmh</cmt></trkpt>
<trkpt lat="58.868514" lon="05.875152"><ele>24</ele><time>2012-03-31T14:41:51Z</time><cmt>0.0 kmh</cmt></trkpt>
<trkpt lat="58.868514" lon="05.875152"><ele>24</ele><time>2012-03-31T14:41:54Z</time><cmt>0.0 kmh</cmt></trkpt>
<trkpt lat="58.868514" lon="05.875152"><ele>24</ele><time>2012-03-31T14:41:56Z</time><cmt>0.0 kmh</cmt></trkpt>
<trkpt lat="58.868514" lon="05.875152"><ele>24</ele><time>2012-03-31T14:41:57Z</time><cmt>0.0 kmh</cmt></trkpt>
<trkpt lat="58.868514" lon="05.875152"><ele>24</ele><time>2012-03-31T14:41:59Z</time><cmt>0.2 kmh</cmt></trkpt>
<trkpt lat="58.868514" lon="05.875152"><ele>24</ele><time>2012-03-31T14:42:01Z</time><cmt>0.1 kmh</cmt></trkpt>
<trkpt lat="58.868514" lon="05.875152"><ele>24</ele><time>2012-03-31T14:42:03Z</time><cmt>0.2 kmh</cmt></trkpt>
<trkpt lat="58.868514" lon="05.875152"><ele>24</ele><time>2012-03-31T14:42:04Z</time><cmt>0.4 kmh</cmt></trkpt>
<trkpt lat="58.868514" lon="05.875152"><ele>24</ele><time>2012-03-31T14:42:06Z</time><cmt>0.1 kmh</cmt></trkpt>
<trkpt lat="58.868514" lon="05.875153"><ele>24</ele><time>2012-03-31T14:42:07Z</time><cmt>0.1 kmh</cmt></trkpt>
<trkpt lat="58.868514" lon="05.875153"><ele>24</ele><time>2012-03-31T14:42:08Z</time><cmt>0.3 kmh</cmt></trkpt>
<trkpt lat="58.868514" lon="05.875153"><ele>24</ele><time>2012-03-31T14:42:09Z</time><cmt>0.5 kmh</cmt></trkpt>
<trkpt lat="58.868514" lon="05.875153"><ele>24</ele><time>2012-03-31T14:42:11Z</time><cmt>0.3 kmh</cmt></trkpt>
<trkpt lat="58.868514" lon="05.875153"><ele>24</ele><time>2012-03-31T14:42:13Z</time><cmt>0.0 kmh</cmt></trkpt>
<trkpt lat="58.868514" lon="05.875153"><ele>24</ele><time>2012-03-31T14:42:15Z</time><cmt>0.0 kmh</cmt></trkpt>
<trkpt lat="58.868514" lon="05.875153"><ele>24</ele><time>2012-03-31T14:42:16Z</time><cmt>0.0 kmh</cmt></trkpt>
<trkpt lat="58.868514" lon="05.875153"><ele>24</ele><time>2012-03-31T14:42:20Z</time><cmt>0.0 kmh</cmt></trkpt>
<trkpt lat="58.868514" lon="05.875153"><ele>24</ele><time>2012-03-31T14:42:23Z</time><cmt>0.0 kmh</cmt></trkpt>
<trkpt lat="58.868515" lon="05.875153"><ele>24</ele><time>2012-03-31T14:42:24Z</time><cmt>0.0 kmh</cmt></trkpt>
<trkpt lat="58.868515" lon="05.875153"><ele>24</ele><time>2012-03-31T14:42:25Z</time><cmt>0.0 kmh</cmt></trkpt>
<trkpt lat="58.868515" lon="05.875153"><ele>24</ele><time>2012-03-31T14:42:26Z</time><cmt>0.0 kmh</cmt></trkpt>
<trkpt lat="58.868515" lon="05.875153"><ele>24</ele><time>2012-03-31T14:42:27Z</time><cmt>0.0 kmh</cmt></trkpt>
<trkpt lat="58.868515" lon="05.875153"><ele>24</ele><time>2012-03-31T14:42:28Z</time><cmt>0.0 kmh</cmt></trkpt>
<trkpt lat="58.868515" lon="05.875153"><ele>24</ele><time>2012-03-31T14:42:29Z</time><cmt>0.0 kmh</cmt></trkpt>
<trkpt lat="58.868515" lon="05.875153"><ele>24</ele><time>2012-03-31T14:42:30Z</time><cmt>0.0 kmh</cmt></trkpt>
<trkpt lat="58.868515" lon="05.875152"><ele>24</ele><time>2012-03-31T14:42:31Z</time><cmt>0.0 kmh</cmt></trkpt>
<trkpt lat="58.868515" lon="05.875152"><ele>24</ele><time>2012-03-31T14:42:32Z</time><cmt>0.0 kmh</cmt></trkpt>
<trkpt lat="58.868515" lon="05.875152"><ele>24</ele><time>2012-03-31T14:42:33Z</time><cmt>0.0 kmh</cmt></trkpt>
<trkpt lat="58.868515" lon="05.875152"><ele>24</ele><time>2012-03-31T14:42:35Z</time><cmt>0.2 kmh</cmt></trkpt>
<trkpt lat="58.868515" lon="05.875152"><ele>24</ele><time>2012-03-31T14:42:36Z</time><cmt>0.2 kmh</cmt></trkpt>
<trkpt lat="58.868515" lon="05.875153"><ele>24</ele><time>2012-03-31T14:42:37Z</time><cmt>0.0 kmh</cmt></trkpt>
<trkpt lat="58.868516" lon="05.875153"><ele>24</ele><time>2012-03-31T14:42:38Z</time><cmt>0.0 kmh</cmt></trkpt>
<trkpt lat="58.868516" lon="05.875153"><ele>24</ele><time>2012-03-31T14:42:39Z</time><cmt>0.0 kmh</cmt></trkpt>
<trkpt lat="58.868516" lon="05.875153"><ele>24</ele><time>2012-03-31T14:42:40Z</time><cmt>0.0 kmh</cmt></trkpt>
<trkpt lat="58.868516" lon="05.875153"><ele>24</ele><time>2012-03-31T14:42:41Z</time><cmt>0.0 kmh</cmt></trkpt>
<trkpt lat="58.868516" lon="05.875153"><ele>24</ele><time>2012-03-31T14:42:42Z</time><cmt>0.0 kmh</cmt></trkpt>
<trkpt lat="58.868516" lon="05.875153"><ele>24</ele><time>2012-03-31T14:42:43Z</time><cmt>0.0 kmh</cmt></trkpt>
<trkpt lat="58.868516" lon="05.875153"><ele>24</ele><time>2012-03-31T14:42:44Z</time><cmt>0.0 kmh</cmt></trkpt>
<trkpt lat="58.868516" lon="05.875154"><ele>24</ele><time>2012-03-31T14:42:45Z</time><cmt>0.1 kmh</cmt></trkpt>
<trkpt lat="58.868516" lon="05.875154"><ele>24</ele><time>2012-03-31T14:42:46Z</time><cmt>0.2 kmh</cmt></trkpt>
<trkpt lat="58.868517" lon="05.875154"><ele>24</ele><time>2012-03-31T14:42:47Z</time><cmt>0.3 kmh</cmt></trkpt>
<trkpt lat="58.868517" lon="05.875154"><ele>24</ele><time>2012-03-31T14:42:48Z</time><cmt>0.3 kmh</cmt></trkpt>
<trkpt lat="58.868517" lon="05.875154"><ele>24</ele><time>2012-03-31T14:42:49Z</time><cmt>0.0 kmh</cmt></trkpt>
<trkpt lat="58.868517" lon="05.875154"><ele>24</ele><time>2012-03-31T14:42:50Z</time><cmt>0.0 kmh</cmt></trkpt>
<trkpt lat="58.868517" lon="05.875155"><ele>24</ele><time>2012-03-31T14:42:51Z</time><cmt>0.0 kmh</cmt></trkpt>
<trkpt lat="58.868517" lon="05.875155"><ele>24</ele><time>2012-03-31T14:42:52Z</time><cmt>0.0 kmh</cmt></trkpt>
<trkpt lat="58.868517" lon="05.875155"><ele>24</ele><time>2012-03-31T14:42:53Z</time><cmt>0.0 kmh</cmt></trkpt>
<trkpt lat="58.868517" lon="05.875155"><ele>24</ele><time>2012-03-31T14:42:54Z</time><cmt>0.0 kmh</cmt></trkpt>
<trkpt lat="58.868518" lon="05.875156"><ele>24</ele><time>2012-03-31T14:42:55Z</time><cmt>0.0 kmh</cmt></trkpt>
<trkpt lat="58.868518" lon="05.875156"><ele>24</ele><time>2012-03-31T14:42:56Z</time><cmt>0.1 kmh</cmt></trkpt>
<trkpt lat="58.868518" lon="05.875156"><ele>24</ele><time>2012-03-31T14:42:57Z</time><cmt>0.3 kmh</cmt></trkpt>
<trkpt lat="58.868518" lon="05.875156"><ele>24</ele><time>2012-03-31T14:42:58Z</time><cmt>0.2 kmh</cmt></trkpt>
<trkpt lat="58.868518" lon="05.875156"><ele>24</ele><time>2012-03-31T14:42:59Z</time><cmt>0.0 kmh</cmt></trkpt>
<trkpt lat="58.868518" lon="05.875156"><ele>24</ele><time>2012-03-31T14:43:00Z</time><cmt>0.0 kmh</cmt></trkpt>
<trkpt lat="58.868519" lon="05.875156"><ele>24</ele><time>2012-03-31T14:43:01Z</time><cmt>0.0 kmh</cmt></trkpt>
<trkpt lat="58.868519" lon="05.875157"><ele>24</ele><time>2012-03-31T14:43:02Z</time><cmt>0.0 kmh</cmt></trkpt>
<trkpt lat="58.868519" lon="05.875157"><ele>24</ele><time>2012-03-31T14:43:03Z</time><cmt>0.0 kmh</cmt></trkpt>
<trkpt lat="58.868519" lon="05.875157"><ele>24</ele><time>2012-03-31T14:43:04Z</time><cmt>0.0 kmh</cmt></trkpt>
<trkpt lat="58.868519" lon="05.875157"><ele>24</ele><time>2012-03-31T14:43:05Z</time><cmt>0.0 kmh</cmt></trkpt>
<trkpt lat="58.868519" lon="05.875157"><ele>24</ele><time>2012-03-31T14:43:06Z</time><cmt>0.0 kmh</cmt></trkpt>
<trkpt lat="58.868519" lon="05.875157"><ele>24</ele><time>2012-03-31T14:43:07Z</time><cmt>0.0 kmh</cmt></trkpt>
<trkpt lat="58.868520" lon="05.875157"><ele>24</ele><time>2012-03-31T14:43:08Z</time><cmt>0.0 kmh</cmt></trkpt>
<trkpt lat="58.868520" lon="05.875157"><ele>24</ele><time>2012-03-31T14:43:09Z</time><cmt>0.1 kmh</cmt></trkpt>
<trkpt lat="58.868520" lon="05.875157"><ele>24</ele><time>2012-03-31T14:43:10Z</time><cmt>0.4 kmh</cmt></trkpt>
<trkpt lat="58.868520" lon="05.875157"><ele>24</ele><time>2012-03-31T14:43:11Z</time><cmt>0.2 kmh</cmt></trkpt>
<trkpt lat="58.868520" lon="05.875157"><ele>24</ele><time>2012-03-31T14:43:12Z</time><cmt>0.0 kmh</cmt></trkpt>
<trkpt lat="58.868520" lon="05.875157"><ele>24</ele><time>2012-03-31T14:43:13Z</time><cmt>0.0 kmh</cmt></trkpt>
<trkpt lat="58.868520" lon="05.875157"><ele>24</ele><time>2012-03-31T14:43:14Z</time><cmt>0.2 kmh</cmt></trkpt>
<trkpt lat="58.868520" lon="05.875157"><ele>24</ele><time>2012-03-31T14:43:15Z</time><cmt>0.1 kmh</cmt></trkpt>
<trkpt lat="58.868521" lon="05.875157"><ele>24</ele><time>2012-03-31T14:43:16Z</time><cmt>0.0 kmh</cmt></trkpt>
<trkpt lat="58.868521" lon="05.875157"><ele>24</ele><time>2012-03-31T14:43:17Z</time><cmt>0.0 kmh</cmt></trkpt>
<trkpt lat="58.868521" lon="05.875157"><ele>24</ele><time>2012-03-31T14:43:18Z</time><cmt>0.0 kmh</cmt></trkpt>
<trkpt lat="58.868521" lon="05.875157"><ele>24</ele><time>2012-03-31T14:43:19Z</time><cmt>0.0 kmh</cmt></trkpt>
<trkpt lat="58.868521" lon="05.875157"><ele>24</ele><time>2012-03-31T14:43:20Z</time><cmt>0.0 kmh</cmt></trkpt>
<trkpt lat="58.868521" lon="05.875157"><ele>24</ele><time>2012-03-31T14:43:21Z</time><cmt>0.1 kmh</cmt></trkpt>
<trkpt lat="58.868521" lon="05.875157"><ele>24</ele><time>2012-03-31T14:43:22Z</time><cmt>0.1 kmh</cmt></trkpt>
<trkpt lat="58.868521" lon="05.875157"><ele>24</ele><time>2012-03-31T14:43:23Z</time><cmt>0.0 kmh</cmt></trkpt>
<trkpt lat="58.868521" lon="05.875157"><ele>24</ele><time>2012-03-31T14:43:24Z</time><cmt>0.0 kmh</cmt></trkpt>
<trkpt lat="58.868521" lon="05.875157"><ele>24</ele><time>2012-03-31T14:43:25Z</time><cmt>0.0 kmh</cmt></trkpt>
<trkpt lat="58.868522" lon="05.875157"><ele>24</ele><time>2012-03-31T14:43:26Z</time><cmt>0.0 kmh</cmt></trkpt>
<trkpt lat="58.868522" lon="05.875157"><ele>24</ele><time>2012-03-31T14:43:27Z</time><cmt>0.0 kmh</cmt></trkpt>
<trkpt lat="58.868522" lon="05.875157"><ele>24</ele><time>2012-03-31T14:43:29Z</time><cmt>0.0 kmh</cmt></trkpt>
<trkpt lat="58.868522" lon="05.875157"><ele>24</ele><time>2012-03-31T14:43:31Z</time><cmt>0.0 kmh</cmt></trkpt>
<trkpt lat="58.868522" lon="05.875157"><ele>24</ele><time>2012-03-31T14:43:34Z</time><cmt>0.0 kmh</cmt></trkpt>
<trkpt lat="58.868522" lon="05.875157"><ele>24</ele><time>2012-03-31T14:43:37Z</time><cmt>0.0 kmh</cmt></trkpt>
<trkpt lat="58.868522" lon="05.875157"><ele>24</ele><time>2012-03-31T14:43:38Z</time><cmt>0.2 kmh</cmt></trkpt>
<trkpt lat="58.868522" lon="05.875157"><ele>24</ele><time>2012-03-31T14:43:39Z</time><cmt>0.4 kmh</cmt></trkpt>
<trkpt lat="58.868522" lon="05.875157"><ele>24</ele><time>2012-03-31T14:43:41Z</time><cmt>0.2 kmh</cmt></trkpt>
<trkpt lat="58.868522" lon="05.875157"><ele>24</ele><time>2012-03-31T14:43:42Z</time><cmt>0.2 kmh</cmt></trkpt>
<trkpt lat="58.868522" lon="05.875157"><ele>24</ele><time>2012-03-31T14:43:43Z</time><cmt>0.0 kmh</cmt></trkpt>
<trkpt lat="58.868523" lon="05.875157"><ele>24</ele><time>2012-03-31T14:43:44Z</time><cmt>0.0 kmh</cmt></trkpt>
<trkpt lat="58.868523" lon="05.875157"><ele>24</ele><time>2012-03-31T14:43:46Z</time><cmt>0.0 kmh</cmt></trkpt>
<trkpt lat="58.868523" lon="05.875157"><ele>24</ele><time>2012-03-31T14:43:47Z</time><cmt>0.0 kmh</cmt></trkpt>
<trkpt lat="58.868523" lon="05.875157"><ele>24</ele><time>2012-03-31T14:43:48Z</time><cmt>0.2 kmh</cmt></trkpt>
<trkpt lat="58.868523" lon="05.875157"><ele>24</ele><time>2012-03-31T14:43:50Z</time><cmt>0.0 kmh</cmt></trkpt>
<trkpt lat="58.868523" lon="05.875157"><ele>24</ele><time>2012-03-31T14:43:52Z</time><cmt>0.0 kmh</cmt></trkpt>
<trkpt lat="58.868523" lon="05.875157"><ele>24</ele><time>2012-03-31T14:43:53Z</time><cmt>0.0 kmh</cmt></trkpt>
<trkpt lat="58.868523" lon="05.875157"><ele>24</ele><time>2012-03-31T14:43:54Z</time><cmt>0.0 kmh</cmt></trkpt>
<trkpt lat="58.868523" lon="05.875157"><ele>24</ele><time>2012-03-31T14:43:56Z</time><cmt>0.0 kmh</cmt></trkpt>
<trkpt lat="58.868523" lon="05.875157"><ele>24</ele><time>2012-03-31T14:43:57Z</time><cmt>0.0 kmh</cmt></trkpt>
<trkpt lat="58.868523" lon="05.875157"><ele>24</ele><time>2012-03-31T14:43:59Z</time><cmt>0.0 kmh</cmt></trkpt>
<trkpt lat="58.868523" lon="05.875157"><ele>24</ele><time>2012-03-31T14:44:01Z</time><cmt>0.0 kmh</cmt></trkpt>
<trkpt lat="58.868523" lon="05.875157"><ele>24</ele><time>2012-03-31T14:44:05Z</time><cmt>0.0 kmh</cmt></trkpt>
<trkpt lat="58.868523" lon="05.875156"><ele>24</ele><time>2012-03-31T14:44:07Z</time><cmt>0.0 kmh</cmt></trkpt>
<trkpt lat="58.868523" lon="05.875156"><ele>24</ele><time>2012-03-31T14:44:09Z</time><cmt>0.0 kmh</cmt></trkpt>
<trkpt lat="58.868523" lon="05.875156"><ele>24</ele><time>2012-03-31T14:44:13Z</time><cmt>0.0 kmh</cmt></trkpt>
<trkpt lat="58.868523" lon="05.875156"><ele>24</ele><time>2012-03-31T14:44:17Z</time><cmt>0.0 kmh</cmt></trkpt>
<trkpt lat="58.868523" lon="05.875156"><ele>24</ele><time>2012-03-31T14:44:19Z</time><cmt>0.0 kmh</cmt></trkpt>
<trkpt lat="58.868523" lon="05.875157"><ele>24</ele><time>2012-03-31T14:44:20Z</time><cmt>0.0 kmh</cmt></trkpt>
<trkpt lat="58.868523" lon="05.875157"><ele>24</ele><time>2012-03-31T14:44:23Z</time><cmt>0.0 kmh</cmt></trkpt>
<trkpt lat="58.868523" lon="05.875157"><ele>24</ele><time>2012-03-31T14:44:26Z</time><cmt>0.0 kmh</cmt></trkpt>
<trkpt lat="58.868523" lon="05.875157"><ele>24</ele><time>2012-03-31T14:44:27Z</time><cmt>0.0 kmh</cmt></trkpt>
<trkpt lat="58.868522" lon="05.875157"><ele>24</ele><time>2012-03-31T14:44:28Z</time><cmt>0.0 kmh</cmt></trkpt>
<trkpt lat="58.868522" lon="05.875157"><ele>24</ele><time>2012-03-31T14:44:30Z</time><cmt>0.0 kmh</cmt></trkpt>
<trkpt lat="58.868522" lon="05.875157"><ele>24</ele><time>2012-03-31T14:44:31Z</time><cmt>0.0 kmh</cmt></trkpt>
<trkpt lat="58.868522" lon="05.875157"><ele>24</ele><time>2012-03-31T14:44:33Z</time><cmt>0.0 kmh</cmt></trkpt>
<trkpt lat="58.868522" lon="05.875157"><ele>24</ele><time>2012-03-31T14:44:35Z</time><cmt>0.1 kmh</cmt></trkpt>
<trkpt lat="58.868522" lon="05.875157"><ele>24</ele><time>2012-03-31T14:44:37Z</time><cmt>0.2 kmh</cmt></trkpt>
<trkpt lat="58.868522" lon="05.875157"><ele>24</ele><time>2012-03-31T14:44:40Z</time><cmt>0.0 kmh</cmt></trkpt>
<trkpt lat="58.868522" lon="05.875157"><ele>24</ele><time>2012-03-31T14:44:43Z</time><cmt>0.0 kmh</cmt></trkpt>
<trkpt lat="58.868522" lon="05.875157"><ele>24</ele><time>2012-03-31T14:44:45Z</time><cmt>0.0 kmh</cmt></trkpt>
<trkpt lat="58.868522" lon="05.875157"><ele>24</ele><time>2012-03-31T14:44:47Z</time><cmt>0.0 kmh</cmt></trkpt>
<trkpt lat="58.868522" lon="05.875157"><ele>24</ele><time>2012-03-31T14:44:50Z</time><cmt>0.2 kmh</cmt></trkpt>
<trkpt lat="58.868522" lon="05.875157"><ele>24</ele><time>2012-03-31T14:44:51Z</time><cmt>0.2 kmh</cmt></trkpt>
<trkpt lat="58.868521" lon="05.875157"><ele>24</ele><time>2012-03-31T14:44:52Z</time><cmt>0.0 kmh</cmt></trkpt>
<trkpt lat="58.868521" lon="05.875157"><ele>24</ele><time>2012-03-31T14:44:54Z</time><cmt>0.0 kmh</cmt></trkpt>
<trkpt lat="58.868521" lon="05.875157"><ele>24</ele><time>2012-03-31T14:44:55Z</time><cmt>0.0 kmh</cmt></trkpt>
<trkpt lat="58.868521" lon="05.875157"><ele>24</ele><time>2012-03-31T14:44:56Z</time><cmt>0.0 kmh</cmt></trkpt>
<trkpt lat="58.868521" lon="05.875157"><ele>24</ele><time>2012-03-31T14:44:57Z</time><cmt>0.0 kmh</cmt></trkpt>
<trkpt lat="58.868521" lon="05.875157"><ele>24</ele><time>2012-03-31T14:44:58Z</time><cmt>0.0 kmh</cmt></trkpt>
<trkpt lat="58.868521" lon="05.875157"><ele>24</ele><time>2012-03-31T14:44:59Z</time><cmt>0.0 kmh</cmt></trkpt>
<trkpt lat="58.868521" lon="05.875158"><ele>24</ele><time>2012-03-31T14:45:00Z</time><cmt>0.0 kmh</cmt></trkpt>
<trkpt lat="58.868521" lon="05.875158"><ele>24</ele><time>2012-03-31T14:45:01Z</time><cmt>0.1 kmh</cmt></trkpt>
<trkpt lat="58.868521" lon="05.875158"><ele>24</ele><time>2012-03-31T14:45:02Z</time><cmt>0.4 kmh</cmt></trkpt>
<trkpt lat="58.868521" lon="05.875158"><ele>24</ele><time>2012-03-31T14:45:03Z</time><cmt>0.4 kmh</cmt></trkpt>
<trkpt lat="58.868521" lon="05.875158"><ele>24</ele><time>2012-03-31T14:45:05Z</time><cmt>0.2 kmh</cmt></trkpt>
<trkpt lat="58.868521" lon="05.875158"><ele>24</ele><time>2012-03-31T14:45:07Z</time><cmt>0.0 kmh</cmt></trkpt>
<trkpt lat="58.868521" lon="05.875158"><ele>24</ele><time>2012-03-31T14:45:10Z</time><cmt>0.0 kmh</cmt></trkpt>
<trkpt lat="58.868521" lon="05.875158"><ele>24</ele><time>2012-03-31T14:45:12Z</time><cmt>0.0 kmh</cmt></trkpt>
<trkpt lat="58.868520" lon="05.875158"><ele>24</ele><time>2012-03-31T14:45:13Z</time><cmt>0.0 kmh</cmt></trkpt>
<trkpt lat="58.868520" lon="05.875158"><ele>24</ele><time>2012-03-31T14:45:14Z</time><cmt>0.0 kmh</cmt></trkpt>
<trkpt lat="58.868520" lon="05.875158"><ele>24</ele><time>2012-03-31T14:45:15Z</time><cmt>0.2 kmh</cmt></trkpt>
<trkpt lat="58.868520" lon="05.875158"><ele>24</ele><time>2012-03-31T14:45:16Z</time><cmt>0.2 kmh</cmt></trkpt>
<trkpt lat="58.868520" lon="05.875158"><ele>24</ele><time>2012-03-31T14:45:17Z</time><cmt>0.0 kmh</cmt></trkpt>
<trkpt lat="58.868520" lon="05.875158"><ele>24</ele><time>2012-03-31T14:45:18Z</time><cmt>0.0 kmh</cmt></trkpt>
<trkpt lat="58.868520" lon="05.875158"><ele>24</ele><time>2012-03-31T14:45:19Z</time><cmt>0.0 kmh</cmt></trkpt>
<trkpt lat="58.868520" lon="05.875157"><ele>24</ele><time>2012-03-31T14:45:20Z</time><cmt>0.0 kmh</cmt></trkpt>
<trkpt lat="58.868519" lon="05.875157"><ele>24</ele><time>2012-03-31T14:45:21Z</time><cmt>0.0 kmh</cmt></trkpt>
<trkpt lat="58.868519" lon="05.875157"><ele>24</ele><time>2012-03-31T14:45:22Z</time><cmt>0.0 kmh</cmt></trkpt>
<trkpt lat="58.868519" lon="05.875157"><ele>24</ele><time>2012-03-31T14:45:23Z</time><cmt>0.0 kmh</cmt></trkpt>
<trkpt lat="58.868519" lon="05.875157"><ele>24</ele><time>2012-03-31T14:45:24Z</time><cmt>0.0 kmh</cmt></trkpt>
<trkpt lat="58.868519" lon="05.875157"><ele>24</ele><time>2012-03-31T14:45:25Z</time><cmt>0.1 kmh</cmt></trkpt>
<trkpt lat="58.868519" lon="05.875157"><ele>24</ele><time>2012-03-31T14:45:26Z</time><cmt>0.3 kmh</cmt></trkpt>
<trkpt lat="58.868519" lon="05.875157"><ele>24</ele><time>2012-03-31T14:45:27Z</time><cmt>0.2 kmh</cmt></trkpt>
<trkpt lat="58.868519" lon="05.875157"><ele>24</ele><time>2012-03-31T14:45:28Z</time><cmt>0.0 kmh</cmt></trkpt>
<trkpt lat="58.868519" lon="05.875157"><ele>24</ele><time>2012-03-31T14:45:29Z</time><cmt>0.0 kmh</cmt></trkpt>
<trkpt lat="58.868518" lon="05.875157"><ele>24</ele><time>2012-03-31T14:45:31Z</time><cmt>0.0 kmh</cmt></trkpt>
<trkpt lat="58.868518" lon="05.875157"><ele>24</ele><time>2012-03-31T14:45:32Z</time><cmt>0.0 kmh</cmt></trkpt>
<trkpt lat="58.868518" lon="05.875157"><ele>24</ele><time>2012-03-31T14:45:33Z</time><cmt>0.2 kmh</cmt></trkpt>
<trkpt lat="58.868518" lon="05.875157"><ele>24</ele><time>2012-03-31T14:45:34Z</time><cmt>0.2 kmh</cmt></trkpt>
<trkpt lat="58.868518" lon="05.875157"><ele>24</ele><time>2012-03-31T14:45:35Z</time><cmt>0.0 kmh</cmt></trkpt>
<trkpt lat="58.868518" lon="05.875157"><ele>24</ele><time>2012-03-31T14:45:36Z</time><cmt>0.0 kmh</cmt></trkpt>
<trkpt lat="58.868518" lon="05.875157"><ele>24</ele><time>2012-03-31T14:45:37Z</time><cmt>0.0 kmh</cmt></trkpt>
<trkpt lat="58.868518" lon="05.875157"><ele>24</ele><time>2012-03-31T14:45:38Z</time><cmt>0.0 kmh</cmt></trkpt>
<trkpt lat="58.868518" lon="05.875157"><ele>24</ele><time>2012-03-31T14:45:39Z</time><cmt>0.0 kmh</cmt></trkpt>
<trkpt lat="58.868518" lon="05.875157"><ele>24</ele><time>2012-03-31T14:45:40Z</time><cmt>0.0 kmh</cmt></trkpt>
<trkpt lat="58.868517" lon="05.875157"><ele>24</ele><time>2012-03-31T14:45:41Z</time><cmt>0.0 kmh</cmt></trkpt>
<trkpt lat="58.868517" lon="05.875157"><ele>24</ele><time>2012-03-31T14:45:42Z</time><cmt>0.0 kmh</cmt></trkpt>
<trkpt lat="58.868517" lon="05.875157"><ele>24</ele><time>2012-03-31T14:45:44Z</time><cmt>0.0 kmh</cmt></trkpt>
<trkpt lat="58.868517" lon="05.875157"><ele>24</ele><time>2012-03-31T14:45:45Z</time><cmt>0.0 kmh</cmt></trkpt>
<trkpt lat="58.868517" lon="05.875157"><ele>24</ele><time>2012-03-31T14:45:47Z</time><cmt>0.0 kmh</cmt></trkpt>
<trkpt lat="58.868517" lon="05.875157"><ele>24</ele><time>2012-03-31T14:45:48Z</time><cmt>0.0 kmh</cmt></trkpt>
<trkpt lat="58.868517" lon="05.875157"><ele>24</ele><time>2012-03-31T14:45:49Z</time><cmt>0.0 kmh</cmt></trkpt>
<trkpt lat="58.868517" lon="05.875157"><ele>24</ele><time>2012-03-31T14:45:51Z</time><cmt>0.0 kmh</cmt></trkpt>
<trkpt lat="58.868517" lon="05.875157"><ele>24</ele><time>2012-03-31T14:45:52Z</time><cmt>0.0 kmh</cmt></trkpt>
<trkpt lat="58.868517" lon="05.875157"><ele>24</ele><time>2012-03-31T14:45:54Z</time><cmt>0.2 kmh</cmt></trkpt>
<trkpt lat="58.868516" lon="05.875157"><ele>24</ele><time>2012-03-31T14:45:55Z</time><cmt>0.4 kmh</cmt></trkpt>
<trkpt lat="58.868516" lon="05.875157"><ele>24</ele><time>2012-03-31T14:45:56Z</time><cmt>0.2 kmh</cmt></trkpt>
<trkpt lat="58.868516" lon="05.875157"><ele>24</ele><time>2012-03-31T14:45:57Z</time><cmt>0.0 kmh</cmt></trkpt>
<trkpt lat="58.868516" lon="05.875157"><ele>24</ele><time>2012-03-31T14:45:58Z</time><cmt>0.0 kmh</cmt></trkpt>
<trkpt lat="58.868516" lon="05.875157"><ele>24</ele><time>2012-03-31T14:46:00Z</time><cmt>0.0 kmh</cmt></trkpt>
<trkpt lat="58.868516" lon="05.875157"><ele>24</ele><time>2012-03-31T14:46:01Z</time><cmt>0.0 kmh</cmt></trkpt>
<trkpt lat="58.868516" lon="05.875157"><ele>24</ele><time>2012-03-31T14:46:03Z</time><cmt>0.0 kmh</cmt></trkpt>
<trkpt lat="58.868516" lon="05.875157"><ele>24</ele><time>2012-03-31T14:46:04Z</time><cmt>0.0 kmh</cmt></trkpt>
<trkpt lat="58.868516" lon="05.875157"><ele>24</ele><time>2012-03-31T14:46:06Z</time><cmt>0.0 kmh</cmt></trkpt>
<trkpt lat="58.868516" lon="05.875157"><ele>24</ele><time>2012-03-31T14:46:08Z</time><cmt>0.0 kmh</cmt></trkpt>
<trkpt lat="58.868516" lon="05.875157"><ele>24</ele><time>2012-03-31T14:46:10Z</time><cmt>0.0 kmh</cmt></trkpt>
<trkpt lat="58.868516" lon="05.875157"><ele>24</ele><time>2012-03-31T14:46:11Z</time><cmt>0.0 kmh</cmt></trkpt>
<trkpt lat="58.868516" lon="05.875157"><ele>24</ele><time>2012-03-31T14:46:14Z</time><cmt>0.0 kmh</cmt></trkpt>
<trkpt lat="58.868515" lon="05.875157"><ele>24</ele><time>2012-03-31T14:46:16Z</time><cmt>0.0 kmh</cmt></trkpt>
<trkpt lat="58.868515" lon="05.875157"><ele>24</ele><time>2012-03-31T14:46:19Z</time><cmt>0.0 kmh</cmt></trkpt>
<trkpt lat="58.868515" lon="05.875157"><ele>24</ele><time>2012-03-31T14:46:20Z</time><cmt>0.0 kmh</cmt></trkpt>
<trkpt lat="58.868515" lon="05.875157"><ele>24</ele><time>2012-03-31T14:46:22Z</time><cmt>0.0 kmh</cmt></trkpt>
<trkpt lat="58.868515" lon="05.875157"><ele>24</ele><time>2012-03-31T14:46:24Z</time><cmt>0.0 kmh</cmt></trkpt>
<trkpt lat="58.868515" lon="05.875157"><ele>24</ele><time>2012-03-31T14:46:25Z</time><cmt>0.0 kmh</cmt></trkpt>
<trkpt lat="58.868515" lon="05.875157"><ele>24</ele><time>2012-03-31T14:46:26Z</time><cmt>0.0 kmh</cmt></trkpt>
<trkpt lat="58.868515" lon="05.875158"><ele>24</ele><time>2012-03-31T14:46:27Z</time><cmt>0.0 kmh</cmt></trkpt>
<trkpt lat="58.868515" lon="05.875158"><ele>24</ele><time>2012-03-31T14:46:29Z</time><cmt>0.0 kmh</cmt></trkpt>
<trkpt lat="58.868516" lon="05.875158"><ele>24</ele><time>2012-03-31T14:46:30Z</time><cmt>0.0 kmh</cmt></trkpt>
<trkpt lat="58.868516" lon="05.875158"><ele>24</ele><time>2012-03-31T14:46:32Z</time><cmt>0.0 kmh</cmt></trkpt>
<trkpt lat="58.868516" lon="05.875158"><ele>24</ele><time>2012-03-31T14:46:33Z</time><cmt>0.0 kmh</cmt></trkpt>
<trkpt lat="58.868516" lon="05.875158"><ele>24</ele><time>2012-03-31T14:46:34Z</time><cmt>0.0 kmh</cmt></trkpt>
<trkpt lat="58.868516" lon="05.875158"><ele>24</ele><time>2012-03-31T14:46:35Z</time><cmt>0.0 kmh</cmt></trkpt>
<trkpt lat="58.868516" lon="05.875159"><ele>24</ele><time>2012-03-31T14:46:36Z</time><cmt>0.0 kmh</cmt></trkpt>
<trkpt lat="58.868516" lon="05.875159"><ele>24</ele><time>2012-03-31T14:46:37Z</time><cmt>0.0 kmh</cmt></trkpt>
<trkpt lat="58.868516" lon="05.875159"><ele>24</ele><time>2012-03-31T14:46:38Z</time><cmt>0.0 kmh</cmt></trkpt>
<trkpt lat="58.868516" lon="05.875159"><ele>24</ele><time>2012-03-31T14:46:39Z</time><cmt>0.0 kmh</cmt></trkpt>
<trkpt lat="58.868517" lon="05.875159"><ele>24</ele><time>2012-03-31T14:46:40Z</time><cmt>0.2 kmh</cmt></trkpt>
<trkpt lat="58.868517" lon="05.875159"><ele>24</ele><time>2012-03-31T14:46:41Z</time><cmt>0.3 kmh</cmt></trkpt>
<trkpt lat="58.868517" lon="05.875160"><ele>24</ele><time>2012-03-31T14:46:42Z</time><cmt>0.0 kmh</cmt></trkpt>
<trkpt lat="58.868517" lon="05.875160"><ele>24</ele><time>2012-03-31T14:46:43Z</time><cmt>0.0 kmh</cmt></trkpt>
<trkpt lat="58.868517" lon="05.875160"><ele>24</ele><time>2012-03-31T14:46:44Z</time><cmt>0.0 kmh</cmt></trkpt>
<trkpt lat="58.868517" lon="05.875160"><ele>24</ele><time>2012-03-31T14:46:45Z</time><cmt>0.0 kmh</cmt></trkpt>
<trkpt lat="58.868517" lon="05.875160"><ele>24</ele><time>2012-03-31T14:46:46Z</time><cmt>0.0 kmh</cmt></trkpt>
<trkpt lat="58.868517" lon="05.875161"><ele>24</ele><time>2012-03-31T14:46:47Z</time><cmt>0.0 kmh</cmt></trkpt>
<trkpt lat="58.868518" lon="05.875161"><ele>24</ele><time>2012-03-31T14:46:48Z</time><cmt>0.0 kmh</cmt></trkpt>
<trkpt lat="58.868518" lon="05.875161"><ele>24</ele><time>2012-03-31T14:46:49Z</time><cmt>0.2 kmh</cmt></trkpt>
<trkpt lat="58.868518" lon="05.875161"><ele>24</ele><time>2012-03-31T14:46:50Z</time><cmt>0.4 kmh</cmt></trkpt>
<trkpt lat="58.868518" lon="05.875162"><ele>24</ele><time>2012-03-31T14:46:51Z</time><cmt>0.1 kmh</cmt></trkpt>
<trkpt lat="58.868518" lon="05.875162"><ele>24</ele><time>2012-03-31T14:46:52Z</time><cmt>0.0 kmh</cmt></trkpt>
<trkpt lat="58.868518" lon="05.875162"><ele>24</ele><time>2012-03-31T14:46:53Z</time><cmt>0.0 kmh</cmt></trkpt>
<trkpt lat="58.868518" lon="05.875162"><ele>24</ele><time>2012-03-31T14:46:54Z</time><cmt>0.0 kmh</cmt></trkpt>
<trkpt lat="58.868519" lon="05.875162"><ele>24</ele><time>2012-03-31T14:46:55Z</time><cmt>0.0 kmh</cmt></trkpt>
<trkpt lat="58.868519" lon="05.875162"><ele>24</ele><time>2012-03-31T14:46:56Z</time><cmt>0.0 kmh</cmt></trkpt>
<trkpt lat="58.868519" lon="05.875162"><ele>24</ele><time>2012-03-31T14:46:57Z</time><cmt>0.0 kmh</cmt></trkpt>
<trkpt lat="58.868519" lon="05.875163"><ele>24</ele><time>2012-03-31T14:46:58Z</time><cmt>0.0 kmh</cmt></trkpt>
<trkpt lat="58.868519" lon="05.875163"><ele>24</ele><time>2012-03-31T14:46:59Z</time><cmt>0.0 kmh</cmt></trkpt>
<trkpt lat="58.868519" lon="05.875163"><ele>24</ele><time>2012-03-31T14:47:00Z</time><cmt>0.0 kmh</cmt></trkpt>
<trkpt lat="58.868520" lon="05.875163"><ele>24</ele><time>2012-03-31T14:47:01Z</time><cmt>0.0 kmh</cmt></trkpt>
<trkpt lat="58.868520" lon="05.875163"><ele>24</ele><time>2012-03-31T14:47:02Z</time><cmt>0.2 kmh</cmt></trkpt>
<trkpt lat="58.868520" lon="05.875163"><ele>24</ele><time>2012-03-31T14:47:03Z</time><cmt>0.4 kmh</cmt></trkpt>
<trkpt lat="58.868520" lon="05.875163"><ele>24</ele><time>2012-03-31T14:47:04Z</time><cmt>0.1 kmh</cmt></trkpt>
<trkpt lat="58.868520" lon="05.875163"><ele>24</ele><time>2012-03-31T14:47:05Z</time><cmt>0.0 kmh</cmt></trkpt>
<trkpt lat="58.868520" lon="05.875163"><ele>24</ele><time>2012-03-31T14:47:06Z</time><cmt>0.0 kmh</cmt></trkpt>
<trkpt lat="58.868520" lon="05.875163"><ele>24</ele><time>2012-03-31T14:47:07Z</time><cmt>0.2 kmh</cmt></trkpt>
<trkpt lat="58.868521" lon="05.875163"><ele>24</ele><time>2012-03-31T14:47:08Z</time><cmt>0.2 kmh</cmt></trkpt>
<trkpt lat="58.868521" lon="05.875162"><ele>24</ele><time>2012-03-31T14:47:09Z</time><cmt>0.0 kmh</cmt></trkpt>
<trkpt lat="58.868521" lon="05.875162"><ele>24</ele><time>2012-03-31T14:47:10Z</time><cmt>0.0 kmh</cmt></trkpt>
<trkpt lat="58.868521" lon="05.875162"><ele>24</ele><time>2012-03-31T14:47:11Z</time><cmt>0.1 kmh</cmt></trkpt>
<trkpt lat="58.868521" lon="05.875162"><ele>24</ele><time>2012-03-31T14:47:12Z</time><cmt>0.2 kmh</cmt></trkpt>
<trkpt lat="58.868521" lon="05.875162"><ele>24</ele><time>2012-03-31T14:47:13Z</time><cmt>0.2 kmh</cmt></trkpt>
<trkpt lat="58.868521" lon="05.875162"><ele>24</ele><time>2012-03-31T14:47:14Z</time><cmt>0.2 kmh</cmt></trkpt>
<trkpt lat="58.868521" lon="05.875162"><ele>24</ele><time>2012-03-31T14:47:15Z</time><cmt>0.0 kmh</cmt></trkpt>
<trkpt lat="58.868521" lon="05.875162"><ele>24</ele><time>2012-03-31T14:47:16Z</time><cmt>0.0 kmh</cmt></trkpt>
<trkpt lat="58.868521" lon="05.875162"><ele>24</ele><time>2012-03-31T14:47:17Z</time><cmt>0.0 kmh</cmt></trkpt>
<trkpt lat="58.868521" lon="05.875162"><ele>24</ele><time>2012-03-31T14:47:18Z</time><cmt>0.0 kmh</cmt></trkpt>
<trkpt lat="58.868522" lon="05.875162"><ele>24</ele><time>2012-03-31T14:47:19Z</time><cmt>0.0 kmh</cmt></trkpt>
<trkpt lat="58.868522" lon="05.875161"><ele>24</ele><time>2012-03-31T14:47:20Z</time><cmt>0.0 kmh</cmt></trkpt>
<trkpt lat="58.868522" lon="05.875161"><ele>24</ele><time>2012-03-31T14:47:21Z</time><cmt>0.0 kmh</cmt></trkpt>
<trkpt lat="58.868522" lon="05.875161"><ele>24</ele><time>2012-03-31T14:47:22Z</time><cmt>0.0 kmh</cmt></trkpt>
<trkpt lat="58.868522" lon="05.875161"><ele>24</ele><time>2012-03-31T14:47:23Z</time><cmt>0.0 kmh</cmt></trkpt>
<trkpt lat="58.868522" lon="05.875161"><ele>24</ele><time>2012-03-31T14:47:24Z</time><cmt>0.0 kmh</cmt></trkpt>
<trkpt lat="58.868522" lon="05.875161"><ele>24</ele><time>2012-03-31T14:47:25Z</time><cmt>0.0 kmh</cmt></trkpt>
<trkpt lat="58.868522" lon="05.875161"><ele>24</ele><time>2012-03-31T14:47:26Z</time><cmt>0.0 kmh</cmt></trkpt>
<trkpt lat="58.868522" lon="05.875160"><ele>24</ele><time>2012-03-31T14:47:27Z</time><cmt>0.0 kmh</cmt></trkpt>
<trkpt lat="58.868522" lon="05.875160"><ele>24</ele><time>2012-03-31T14:47:28Z</time><cmt>0.0 kmh</cmt></trkpt>
<trkpt lat="58.868522" lon="05.875160"><ele>24</ele><time>2012-03-31T14:47:29Z</time><cmt>0.0 kmh</cmt></trkpt>
<trkpt lat="58.868522" lon="05.875160"><ele>24</ele><time>2012-03-31T14:47:30Z</time><cmt>0.0 kmh</cmt></trkpt>
<trkpt lat="58.868522" lon="05.875160"><ele>24</ele><time>2012-03-31T14:47:31Z</time><cmt>0.0 kmh</cmt></trkpt>
<trkpt lat="58.868522" lon="05.875160"><ele>24</ele><time>2012-03-31T14:47:32Z</time><cmt>0.0 kmh</cmt></trkpt>
<trkpt lat="58.868522" lon="05.875160"><ele>24</ele><time>2012-03-31T14:47:33Z</time><cmt>0.0 kmh</cmt></trkpt>
<trkpt lat="58.868522" lon="05.875159"><ele>24</ele><time>2012-03-31T14:47:34Z</time><cmt>0.0 kmh</cmt></trkpt>
<trkpt lat="58.868522" lon="05.875159"><ele>24</ele><time>2012-03-31T14:47:35Z</time><cmt>0.0 kmh</cmt></trkpt>
<trkpt lat="58.868522" lon="05.875159"><ele>24</ele><time>2012-03-31T14:47:37Z</time><cmt>0.2 kmh</cmt></trkpt>
<trkpt lat="58.868522" lon="05.875159"><ele>24</ele><time>2012-03-31T14:47:38Z</time><cmt>0.4 kmh</cmt></trkpt>
<trkpt lat="58.868522" lon="05.875159"><ele>24</ele><time>2012-03-31T14:47:41Z</time><cmt>0.0 kmh</cmt></trkpt>
<trkpt lat="58.868522" lon="05.875159"><ele>24</ele><time>2012-03-31T14:47:42Z</time><cmt>0.0 kmh</cmt></trkpt>
<trkpt lat="58.868523" lon="05.875159"><ele>24</ele><time>2012-03-31T14:47:44Z</time><cmt>0.0 kmh</cmt></trkpt>
<trkpt lat="58.868523" lon="05.875159"><ele>24</ele><time>2012-03-31T14:47:46Z</time><cmt>0.0 kmh</cmt></trkpt>
<trkpt lat="58.868523" lon="05.875159"><ele>25</ele><time>2012-03-31T14:47:49Z</time><cmt>0.0 kmh</cmt></trkpt>
<trkpt lat="58.868523" lon="05.875159"><ele>25</ele><time>2012-03-31T14:47:58Z</time><cmt>0.0 kmh</cmt></trkpt>
<trkpt lat="58.868523" lon="05.875159"><ele>25</ele><time>2012-03-31T14:47:59Z</time><cmt>0.0 kmh</cmt></trkpt>
<trkpt lat="58.868522" lon="05.875160"><ele>25</ele><time>2012-03-31T14:48:00Z</time><cmt>0.0 kmh</cmt></trkpt>
<trkpt lat="58.868522" lon="05.875160"><ele>25</ele><time>2012-03-31T14:48:01Z</time><cmt>0.0 kmh</cmt></trkpt>
<trkpt lat="58.868522" lon="05.875160"><ele>25</ele><time>2012-03-31T14:48:02Z</time><cmt>0.0 kmh</cmt></trkpt>
<trkpt lat="58.868522" lon="05.875160"><ele>25</ele><time>2012-03-31T14:48:06Z</time><cmt>0.0 kmh</cmt></trkpt>
<trkpt lat="58.868522" lon="05.875159"><ele>25</ele><time>2012-03-31T14:48:07Z</time><cmt>0.0 kmh</cmt></trkpt>
<trkpt lat="58.868522" lon="05.875159"><ele>25</ele><time>2012-03-31T14:48:08Z</time><cmt>0.0 kmh</cmt></trkpt>
<trkpt lat="58.868522" lon="05.875159"><ele>25</ele><time>2012-03-31T14:48:09Z</time><cmt>0.2 kmh</cmt></trkpt>
<trkpt lat="58.868522" lon="05.875159"><ele>25</ele><time>2012-03-31T14:48:10Z</time><cmt>0.4 kmh</cmt></trkpt>
<trkpt lat="58.868522" lon="05.875159"><ele>25</ele><time>2012-03-31T14:48:11Z</time><cmt>0.5 kmh</cmt></trkpt>
<trkpt lat="58.868522" lon="05.875158"><ele>25</ele><time>2012-03-31T14:48:12Z</time><cmt>0.4 kmh</cmt></trkpt>
<trkpt lat="58.868522" lon="05.875158"><ele>25</ele><time>2012-03-31T14:48:13Z</time><cmt>0.4 kmh</cmt></trkpt>
<trkpt lat="58.868522" lon="05.875158"><ele>25</ele><time>2012-03-31T14:48:14Z</time><cmt>0.5 kmh</cmt></trkpt>
<trkpt lat="58.868522" lon="05.875158"><ele>25</ele><time>2012-03-31T14:48:15Z</time><cmt>0.5 kmh</cmt></trkpt>
<trkpt lat="58.868522" lon="05.875158"><ele>25</ele><time>2012-03-31T14:48:16Z</time><cmt>0.5 kmh</cmt></trkpt>
<trkpt lat="58.868522" lon="05.875157"><ele>25</ele><time>2012-03-31T14:48:17Z</time><cmt>0.5 kmh</cmt></trkpt>
<trkpt lat="58.868522" lon="05.875157"><ele>25</ele><time>2012-03-31T14:48:18Z</time><cmt>0.4 kmh</cmt></trkpt>
<trkpt lat="58.868522" lon="05.875157"><ele>25</ele><time>2012-03-31T14:48:19Z</time><cmt>0.4 kmh</cmt></trkpt>
<trkpt lat="58.868522" lon="05.875157"><ele>25</ele><time>2012-03-31T14:48:20Z</time><cmt>0.5 kmh</cmt></trkpt>
<trkpt lat="58.868522" lon="05.875157"><ele>25</ele><time>2012-03-31T14:48:21Z</time><cmt>0.5 kmh</cmt></trkpt>
<trkpt lat="58.868522" lon="05.875157"><ele>25</ele><time>2012-03-31T14:48:22Z</time><cmt>0.4 kmh</cmt></trkpt>
<trkpt lat="58.868522" lon="05.875157"><ele>25</ele><time>2012-03-31T14:48:23Z</time><cmt>0.2 kmh</cmt></trkpt>
<trkpt lat="58.868522" lon="05.875157"><ele>25</ele><time>2012-03-31T14:48:25Z</time><cmt>0.0 kmh</cmt></trkpt>
<trkpt lat="58.868522" lon="05.875157"><ele>25</ele><time>2012-03-31T14:48:28Z</time><cmt>0.0 kmh</cmt></trkpt>
<trkpt lat="58.868522" lon="05.875157"><ele>25</ele><time>2012-03-31T14:48:29Z</time><cmt>0.0 kmh</cmt></trkpt>
<trkpt lat="58.868522" lon="05.875157"><ele>25</ele><time>2012-03-31T14:48:31Z</time><cmt>0.0 kmh</cmt></trkpt>
<trkpt lat="58.868523" lon="05.875157"><ele>25</ele><time>2012-03-31T14:48:32Z</time><cmt>0.0 kmh</cmt></trkpt>
<trkpt lat="58.868523" lon="05.875157"><ele>25</ele><time>2012-03-31T14:48:33Z</time><cmt>0.0 kmh</cmt></trkpt>
<trkpt lat="58.868523" lon="05.875157"><ele>25</ele><time>2012-03-31T14:48:34Z</time><cmt>0.0 kmh</cmt></trkpt>
<trkpt lat="58.868523" lon="05.875157"><ele>25</ele><time>2012-03-31T14:48:35Z</time><cmt>0.0 kmh</cmt></trkpt>
<trkpt lat="58.868523" lon="05.875157"><ele>25</ele><time>2012-03-31T14:48:36Z</time><cmt>0.0 kmh</cmt></trkpt>
<trkpt lat="58.868523" lon="05.875158"><ele>25</ele><time>2012-03-31T14:48:38Z</time><cmt>0.0 kmh</cmt></trkpt>
<trkpt lat="58.868523" lon="05.875158"><ele>25</ele><time>2012-03-31T14:48:39Z</time><cmt>0.0 kmh</cmt></trkpt>
<trkpt lat="58.868523" lon="05.875158"><ele>25</ele><time>2012-03-31T14:48:40Z</time><cmt>0.0 kmh</cmt></trkpt>
<trkpt lat="58.868523" lon="05.875158"><ele>25</ele><time>2012-03-31T14:48:41Z</time><cmt>0.0 kmh</cmt></trkpt>
<trkpt lat="58.868523" lon="05.875158"><ele>25</ele><time>2012-03-31T14:48:42Z</time><cmt>0.0 kmh</cmt></trkpt>
<trkpt lat="58.868523" lon="05.875158"><ele>25</ele><time>2012-03-31T14:48:44Z</time><cmt>0.0 kmh</cmt></trkpt>
<trkpt lat="58.868523" lon="05.875158"><ele>25</ele><time>2012-03-31T14:48:47Z</time><cmt>0.2 kmh</cmt></trkpt>
<trkpt lat="58.868523" lon="05.875158"><ele>25</ele><time>2012-03-31T14:48:49Z</time><cmt>0.0 kmh</cmt></trkpt>
<trkpt lat="58.868523" lon="05.875158"><ele>25</ele><time>2012-03-31T14:48:54Z</time><cmt>0.0 kmh</cmt></trkpt>
<trkpt lat="58.868523" lon="05.875158"><ele>25</ele><time>2012-03-31T14:48:56Z</time><cmt>0.0 kmh</cmt></trkpt>
<trkpt lat="58.868523" lon="05.875158"><ele>25</ele><time>2012-03-31T14:48:57Z</time><cmt>0.0 kmh</cmt></trkpt>
<trkpt lat="58.868523" lon="05.875158"><ele>25</ele><time>2012-03-31T14:49:00Z</time><cmt>0.0 kmh</cmt></trkpt>
<trkpt lat="58.868523" lon="05.875158"><ele>25</ele><time>2012-03-31T14:49:03Z</time><cmt>0.0 kmh</cmt></trkpt>
<trkpt lat="58.868523" lon="05.875158"><ele>25</ele><time>2012-03-31T14:49:05Z</time><cmt>0.0 kmh</cmt></trkpt>
<trkpt lat="58.868523" lon="05.875158"><ele>25</ele><time>2012-03-31T14:49:07Z</time><cmt>0.0 kmh</cmt></trkpt>
<trkpt lat="58.868523" lon="05.875158"><ele>25</ele><time>2012-03-31T14:49:10Z</time><cmt>0.0 kmh</cmt></trkpt>
<trkpt lat="58.868523" lon="05.875158"><ele>25</ele><time>2012-03-31T14:49:12Z</time><cmt>0.0 kmh</cmt></trkpt>
<trkpt lat="58.868523" lon="05.875158"><ele>25</ele><time>2012-03-31T14:49:13Z</time><cmt>0.0 kmh</cmt></trkpt>
<trkpt lat="58.868523" lon="05.875158"><ele>25</ele><time>2012-03-31T14:49:14Z</time><cmt>0.0 kmh</cmt></trkpt>
<trkpt lat="58.868523" lon="05.875157"><ele>25</ele><time>2012-03-31T14:49:15Z</time><cmt>0.0 kmh</cmt></trkpt>
<trkpt lat="58.868523" lon="05.875157"><ele>25</ele><time>2012-03-31T14:49:22Z</time><cmt>0.0 kmh</cmt></trkpt>
<trkpt lat="58.868523" lon="05.875157"><ele>25</ele><time>2012-03-31T14:49:25Z</time><cmt>0.0 kmh</cmt></trkpt>
<trkpt lat="58.868523" lon="05.875157"><ele>25</ele><time>2012-03-31T14:49:28Z</time><cmt>0.2 kmh</cmt></trkpt>
<trkpt lat="58.868523" lon="05.875157"><ele>24</ele><time>2012-03-31T14:49:32Z</time><cmt>0.0 kmh</cmt></trkpt>
<trkpt lat="58.868523" lon="05.875157"><ele>24</ele><time>2012-03-31T14:49:33Z</time><cmt>0.0 kmh</cmt></trkpt>
<trkpt lat="58.868523" lon="05.875157"><ele>24</ele><time>2012-03-31T14:49:35Z</time><cmt>0.0 kmh</cmt></trkpt>
<trkpt lat="58.868523" lon="05.875157"><ele>24</ele><time>2012-03-31T14:49:36Z</time><cmt>0.0 kmh</cmt></trkpt>
<trkpt lat="58.868523" lon="05.875158"><ele>24</ele><time>2012-03-31T14:49:37Z</time><cmt>0.0 kmh</cmt></trkpt>
<trkpt lat="58.868522" lon="05.875158"><ele>24</ele><time>2012-03-31T14:49:38Z</time><cmt>0.0 kmh</cmt></trkpt>
<trkpt lat="58.868522" lon="05.875158"><ele>24</ele><time>2012-03-31T14:49:39Z</time><cmt>0.0 kmh</cmt></trkpt>
<trkpt lat="58.868522" lon="05.875158"><ele>24</ele><time>2012-03-31T14:49:40Z</time><cmt>0.0 kmh</cmt></trkpt>
<trkpt lat="58.868522" lon="05.875158"><ele>24</ele><time>2012-03-31T14:49:41Z</time><cmt>0.0 kmh</cmt></trkpt>
<trkpt lat="58.868522" lon="05.875159"><ele>24</ele><time>2012-03-31T14:49:42Z</time><cmt>0.2 kmh</cmt></trkpt>
<trkpt lat="58.868522" lon="05.875159"><ele>24</ele><time>2012-03-31T14:49:43Z</time><cmt>0.4 kmh</cmt></trkpt>
<trkpt lat="58.868522" lon="05.875159"><ele>24</ele><time>2012-03-31T14:49:44Z</time><cmt>0.2 kmh</cmt></trkpt>
<trkpt lat="58.868522" lon="05.875159"><ele>24</ele><time>2012-03-31T14:49:45Z</time><cmt>0.0 kmh</cmt></trkpt>
<trkpt lat="58.868522" lon="05.875159"><ele>24</ele><time>2012-03-31T14:49:46Z</time><cmt>0.1 kmh</cmt></trkpt>
<trkpt lat="58.868522" lon="05.875159"><ele>24</ele><time>2012-03-31T14:49:48Z</time><cmt>0.2 kmh</cmt></trkpt>
<trkpt lat="58.868522" lon="05.875159"><ele>24</ele><time>2012-03-31T14:49:49Z</time><cmt>0.2 kmh</cmt></trkpt>
<trkpt lat="58.868522" lon="05.875159"><ele>24</ele><time>2012-03-31T14:49:50Z</time><cmt>0.0 kmh</cmt></trkpt>
<trkpt lat="58.868522" lon="05.875159"><ele>24</ele><time>2012-03-31T14:49:51Z</time><cmt>0.0 kmh</cmt></trkpt>
<trkpt lat="58.868522" lon="05.875159"><ele>24</ele><time>2012-03-31T14:49:52Z</time><cmt>0.0 kmh</cmt></trkpt>
<trkpt lat="58.868522" lon="05.875158"><ele>24</ele><time>2012-03-31T14:49:53Z</time><cmt>0.0 kmh</cmt></trkpt>
<trkpt lat="58.868522" lon="05.875158"><ele>24</ele><time>2012-03-31T14:49:54Z</time><cmt>0.0 kmh</cmt></trkpt>
<trkpt lat="58.868522" lon="05.875158"><ele>24</ele><time>2012-03-31T14:49:55Z</time><cmt>0.0 kmh</cmt></trkpt>
<trkpt lat="58.868522" lon="05.875158"><ele>24</ele><time>2012-03-31T14:49:56Z</time><cmt>0.0 kmh</cmt></trkpt>
<trkpt lat="58.868522" lon="05.875158"><ele>24</ele><time>2012-03-31T14:49:57Z</time><cmt>0.0 kmh</cmt></trkpt>
<trkpt lat="58.868522" lon="05.875158"><ele>24</ele><time>2012-03-31T14:49:58Z</time><cmt>0.0 kmh</cmt></trkpt>
<trkpt lat="58.868521" lon="05.875158"><ele>24</ele><time>2012-03-31T14:49:59Z</time><cmt>0.0 kmh</cmt></trkpt>
<trkpt lat="58.868521" lon="05.875158"><ele>24</ele><time>2012-03-31T14:50:00Z</time><cmt>0.0 kmh</cmt></trkpt>
<trkpt lat="58.868521" lon="05.875158"><ele>24</ele><time>2012-03-31T14:50:02Z</time><cmt>0.0 kmh</cmt></trkpt>
<trkpt lat="58.868521" lon="05.875158"><ele>24</ele><time>2012-03-31T14:50:03Z</time><cmt>0.0 kmh</cmt></trkpt>
<trkpt lat="58.868521" lon="05.875158"><ele>24</ele><time>2012-03-31T14:50:04Z</time><cmt>0.0 kmh</cmt></trkpt>
<trkpt lat="58.868521" lon="05.875157"><ele>24</ele><time>2012-03-31T14:50:05Z</time><cmt>0.0 kmh</cmt></trkpt>
<trkpt lat="58.868521" lon="05.875157"><ele>24</ele><time>2012-03-31T14:50:06Z</time><cmt>0.0 kmh</cmt></trkpt>
<trkpt lat="58.868521" lon="05.875157"><ele>24</ele><time>2012-03-31T14:50:07Z</time><cmt>0.0 kmh</cmt></trkpt>
<trkpt lat="58.868521" lon="05.875157"><ele>24</ele><time>2012-03-31T14:50:08Z</time><cmt>0.0 kmh</cmt></trkpt>
<trkpt lat="58.868521" lon="05.875157"><ele>24</ele><time>2012-03-31T14:50:09Z</time><cmt>0.0 kmh</cmt></trkpt>
<trkpt lat="58.868521" lon="05.875157"><ele>24</ele><time>2012-03-31T14:50:10Z</time><cmt>0.0 kmh</cmt></trkpt>
<trkpt lat="58.868521" lon="05.875157"><ele>24</ele><time>2012-03-31T14:50:11Z</time><cmt>0.0 kmh</cmt></trkpt>
<trkpt lat="58.868521" lon="05.875157"><ele>24</ele><time>2012-03-31T14:50:12Z</time><cmt>0.0 kmh</cmt></trkpt>
<trkpt lat="58.868520" lon="05.875157"><ele>24</ele><time>2012-03-31T14:50:13Z</time><cmt>0.0 kmh</cmt></trkpt>
<trkpt lat="58.868520" lon="05.875157"><ele>24</ele><time>2012-03-31T14:50:14Z</time><cmt>0.0 kmh</cmt></trkpt>
<trkpt lat="58.868520" lon="05.875157"><ele>24</ele><time>2012-03-31T14:50:15Z</time><cmt>0.2 kmh</cmt></trkpt>
<trkpt lat="58.868520" lon="05.875157"><ele>24</ele><time>2012-03-31T14:50:16Z</time><cmt>0.1 kmh</cmt></trkpt>
<trkpt lat="58.868520" lon="05.875157"><ele>24</ele><time>2012-03-31T14:50:17Z</time><cmt>0.0 kmh</cmt></trkpt>
<trkpt lat="58.868520" lon="05.875157"><ele>24</ele><time>2012-03-31T14:50:19Z</time><cmt>0.0 kmh</cmt></trkpt>
<trkpt lat="58.868520" lon="05.875157"><ele>24</ele><time>2012-03-31T14:50:20Z</time><cmt>0.0 kmh</cmt></trkpt>
<trkpt lat="58.868520" lon="05.875157"><ele>24</ele><time>2012-03-31T14:50:21Z</time><cmt>0.0 kmh</cmt></trkpt>
<trkpt lat="58.868519" lon="05.875157"><ele>24</ele><time>2012-03-31T14:50:22Z</time><cmt>0.0 kmh</cmt></trkpt>
<trkpt lat="58.868519" lon="05.875158"><ele>24</ele><time>2012-03-31T14:50:23Z</time><cmt>0.0 kmh</cmt></trkpt>
<trkpt lat="58.868519" lon="05.875158"><ele>24</ele><time>2012-03-31T14:50:24Z</time><cmt>0.0 kmh</cmt></trkpt>
<trkpt lat="58.868519" lon="05.875158"><ele>24</ele><time>2012-03-31T14:50:25Z</time><cmt>0.0 kmh</cmt></trkpt>
<trkpt lat="58.868519" lon="05.875158"><ele>24</ele><time>2012-03-31T14:50:26Z</time><cmt>0.0 kmh</cmt></trkpt>
<trkpt lat="58.868519" lon="05.875159"><ele>24</ele><time>2012-03-31T14:50:27Z</time><cmt>0.0 kmh</cmt></trkpt>
<trkpt lat="58.868518" lon="05.875159"><ele>24</ele><time>2012-03-31T14:50:28Z</time><cmt>0.0 kmh</cmt></trkpt>
<trkpt lat="58.868518" lon="05.875159"><ele>24</ele><time>2012-03-31T14:50:29Z</time><cmt>0.0 kmh</cmt></trkpt>
<trkpt lat="58.868518" lon="05.875159"><ele>24</ele><time>2012-03-31T14:50:30Z</time><cmt>0.0 kmh</cmt></trkpt>
<trkpt lat="58.868518" lon="05.875159"><ele>24</ele><time>2012-03-31T14:50:32Z</time><cmt>0.2 kmh</cmt></trkpt>
<trkpt lat="58.868518" lon="05.875159"><ele>24</ele><time>2012-03-31T14:50:34Z</time><cmt>0.0 kmh</cmt></trkpt>
<trkpt lat="58.868518" lon="05.875159"><ele>24</ele><time>2012-03-31T14:50:35Z</time><cmt>0.0 kmh</cmt></trkpt>
<trkpt lat="58.868518" lon="05.875159"><ele>24</ele><time>2012-03-31T14:50:36Z</time><cmt>0.0 kmh</cmt></trkpt>
<trkpt lat="58.868518" lon="05.875159"><ele>24</ele><time>2012-03-31T14:50:37Z</time><cmt>0.0 kmh</cmt></trkpt>
<trkpt lat="58.868518" lon="05.875160"><ele>24</ele><time>2012-03-31T14:50:38Z</time><cmt>0.0 kmh</cmt></trkpt>
<trkpt lat="58.868518" lon="05.875160"><ele>24</ele><time>2012-03-31T14:50:39Z</time><cmt>0.0 kmh</cmt></trkpt>
<trkpt lat="58.868518" lon="05.875160"><ele>24</ele><time>2012-03-31T14:50:40Z</time><cmt>0.1 kmh</cmt></trkpt>
<trkpt lat="58.868517" lon="05.875160"><ele>24</ele><time>2012-03-31T14:50:41Z</time><cmt>0.1 kmh</cmt></trkpt>
<trkpt lat="58.868517" lon="05.875160"><ele>24</ele><time>2012-03-31T14:50:42Z</time><cmt>0.0 kmh</cmt></trkpt>
<trkpt lat="58.868517" lon="05.875161"><ele>24</ele><time>2012-03-31T14:50:43Z</time><cmt>0.0 kmh</cmt></trkpt>
<trkpt lat="58.868517" lon="05.875161"><ele>24</ele><time>2012-03-31T14:50:44Z</time><cmt>0.0 kmh</cmt></trkpt>
<trkpt lat="58.868517" lon="05.875161"><ele>24</ele><time>2012-03-31T14:50:45Z</time><cmt>0.0 kmh</cmt></trkpt>
<trkpt lat="58.868517" lon="05.875161"><ele>24</ele><time>2012-03-31T14:50:46Z</time><cmt>0.0 kmh</cmt></trkpt>
<trkpt lat="58.868516" lon="05.875161"><ele>25</ele><time>2012-03-31T14:50:47Z</time><cmt>0.1 kmh</cmt></trkpt>
<trkpt lat="58.868516" lon="05.875161"><ele>25</ele><time>2012-03-31T14:50:48Z</time><cmt>0.3 kmh</cmt></trkpt>
<trkpt lat="58.868516" lon="05.875161"><ele>25</ele><time>2012-03-31T14:50:49Z</time><cmt>0.2 kmh</cmt></trkpt>
<trkpt lat="58.868516" lon="05.875161"><ele>25</ele><time>2012-03-31T14:50:50Z</time><cmt>0.0 kmh</cmt></trkpt>
<trkpt lat="58.868516" lon="05.875161"><ele>25</ele><time>2012-03-31T14:50:51Z</time><cmt>0.0 kmh</cmt></trkpt>
<trkpt lat="58.868516" lon="05.875161"><ele>25</ele><time>2012-03-31T14:50:52Z</time><cmt>0.0 kmh</cmt></trkpt>
<trkpt lat="58.868516" lon="05.875161"><ele>25</ele><time>2012-03-31T14:50:53Z</time><cmt>0.0 kmh</cmt></trkpt>
<trkpt lat="58.868516" lon="05.875160"><ele>25</ele><time>2012-03-31T14:50:54Z</time><cmt>0.0 kmh</cmt></trkpt>
<trkpt lat="58.868516" lon="05.875160"><ele>25</ele><time>2012-03-31T14:50:55Z</time><cmt>0.0 kmh</cmt></trkpt>
<trkpt lat="58.868516" lon="05.875160"><ele>25</ele><time>2012-03-31T14:50:56Z</time><cmt>0.0 kmh</cmt></trkpt>
<trkpt lat="58.868516" lon="05.875160"><ele>25</ele><time>2012-03-31T14:50:57Z</time><cmt>0.0 kmh</cmt></trkpt>
<trkpt lat="58.868516" lon="05.875160"><ele>25</ele><time>2012-03-31T14:50:58Z</time><cmt>0.0 kmh</cmt></trkpt>
<trkpt lat="58.868516" lon="05.875160"><ele>25</ele><time>2012-03-31T14:50:59Z</time><cmt>0.0 kmh</cmt></trkpt>
<trkpt lat="58.868516" lon="05.875160"><ele>25</ele><time>2012-03-31T14:51:00Z</time><cmt>0.0 kmh</cmt></trkpt>
<trkpt lat="58.868516" lon="05.875160"><ele>25</ele><time>2012-03-31T14:51:01Z</time><cmt>0.0 kmh</cmt></trkpt>
<trkpt lat="58.868516" lon="05.875159"><ele>25</ele><time>2012-03-31T14:51:02Z</time><cmt>0.0 kmh</cmt></trkpt>
<trkpt lat="58.868515" lon="05.875160"><ele>25</ele><time>2012-03-31T14:51:03Z</time><cmt>0.0 kmh</cmt></trkpt>
<trkpt lat="58.868515" lon="05.875160"><ele>25</ele><time>2012-03-31T14:51:04Z</time><cmt>0.2 kmh</cmt></trkpt>
<trkpt lat="58.868514" lon="05.875160"><ele>25</ele><time>2012-03-31T14:51:05Z</time><cmt>0.1 kmh</cmt></trkpt>
<trkpt lat="58.868514" lon="05.875159"><ele>25</ele><time>2012-03-31T14:51:06Z</time><cmt>0.0 kmh</cmt></trkpt>
<trkpt lat="58.868514" lon="05.875158"><ele>25</ele><time>2012-03-31T14:51:07Z</time><cmt>0.0 kmh</cmt></trkpt>
<trkpt lat="58.868515" lon="05.875157"><ele>25</ele><time>2012-03-31T14:51:08Z</time><cmt>0.3 kmh</cmt></trkpt>
<trkpt lat="58.868515" lon="05.875155"><ele>25</ele><time>2012-03-31T14:51:09Z</time><cmt>0.5 kmh</cmt></trkpt>
<trkpt lat="58.868515" lon="05.875152"><ele>26</ele><time>2012-03-31T14:51:10Z</time><cmt>0.6 kmh</cmt></trkpt>
<trkpt lat="58.868515" lon="05.875150"><ele>26</ele><time>2012-03-31T14:51:11Z</time><cmt>0.6 kmh</cmt></trkpt>
<trkpt lat="58.868515" lon="05.875148"><ele>26</ele><time>2012-03-31T14:51:12Z</time><cmt>0.5 kmh</cmt></trkpt>
<trkpt lat="58.868515" lon="05.875147"><ele>26</ele><time>2012-03-31T14:51:13Z</time><cmt>0.3 kmh</cmt></trkpt>
<trkpt lat="58.868515" lon="05.875146"><ele>26</ele><time>2012-03-31T14:51:14Z</time><cmt>0.0 kmh</cmt></trkpt>
<trkpt lat="58.868516" lon="05.875146"><ele>26</ele><time>2012-03-31T14:51:15Z</time><cmt>0.0 kmh</cmt></trkpt>
<trkpt lat="58.868517" lon="05.875146"><ele>27</ele><time>2012-03-31T14:51:16Z</time><cmt>0.0 kmh</cmt></trkpt>
<trkpt lat="58.868518" lon="05.875145"><ele>27</ele><time>2012-03-31T14:51:17Z</time><cmt>0.0 kmh</cmt></trkpt>
<trkpt lat="58.868519" lon="05.875145"><ele>27</ele><time>2012-03-31T14:51:18Z</time><cmt>0.2 kmh</cmt></trkpt>
<trkpt lat="58.868520" lon="05.875144"><ele>27</ele><time>2012-03-31T14:51:19Z</time><cmt>0.4 kmh</cmt></trkpt>
<trkpt lat="58.868521" lon="05.875142"><ele>27</ele><time>2012-03-31T14:51:20Z</time><cmt>0.5 kmh</cmt></trkpt>
<trkpt lat="58.868523" lon="05.875141"><ele>27</ele><time>2012-03-31T14:51:21Z</time><cmt>0.4 kmh</cmt></trkpt>
<trkpt lat="58.868524" lon="05.875139"><ele>27</ele><time>2012-03-31T14:51:22Z</time><cmt>0.4 kmh</cmt></trkpt>
<trkpt lat="58.868524" lon="05.875138"><ele>27</ele><time>2012-03-31T14:51:23Z</time><cmt>0.6 kmh</cmt></trkpt>
<trkpt lat="58.868525" lon="05.875136"><ele>27</ele><time>2012-03-31T14:51:24Z</time><cmt>0.5 kmh</cmt></trkpt>
<trkpt lat="58.868526" lon="05.875135"><ele>27</ele><time>2012-03-31T14:51:25Z</time><cmt>0.5 kmh</cmt></trkpt>
<trkpt lat="58.868527" lon="05.875133"><ele>28</ele><time>2012-03-31T14:51:26Z</time><cmt>0.5 kmh</cmt></trkpt>
<trkpt lat="58.868527" lon="05.875131"><ele>28</ele><time>2012-03-31T14:51:27Z</time><cmt>0.5 kmh</cmt></trkpt>
<trkpt lat="58.868528" lon="05.875130"><ele>28</ele><time>2012-03-31T14:51:28Z</time><cmt>0.4 kmh</cmt></trkpt>
<trkpt lat="58.868528" lon="05.875128"><ele>28</ele><time>2012-03-31T14:51:29Z</time><cmt>0.4 kmh</cmt></trkpt>
<trkpt lat="58.868529" lon="05.875127"><ele>28</ele><time>2012-03-31T14:51:30Z</time><cmt>0.2 kmh</cmt></trkpt>
<trkpt lat="58.868529" lon="05.875125"><ele>29</ele><time>2012-03-31T14:51:31Z</time><cmt>0.2 kmh</cmt></trkpt>
<trkpt lat="58.868529" lon="05.875124"><ele>29</ele><time>2012-03-31T14:51:32Z</time><cmt>0.5 kmh</cmt></trkpt>
<trkpt lat="58.868530" lon="05.875122"><ele>29</ele><time>2012-03-31T14:51:33Z</time><cmt>0.3 kmh</cmt></trkpt>
<trkpt lat="58.868530" lon="05.875121"><ele>29</ele><time>2012-03-31T14:51:34Z</time><cmt>0.0 kmh</cmt></trkpt>
<trkpt lat="58.868530" lon="05.875120"><ele>29</ele><time>2012-03-31T14:51:35Z</time><cmt>0.0 kmh</cmt></trkpt>
<trkpt lat="58.868531" lon="05.875118"><ele>30</ele><time>2012-03-31T14:51:36Z</time><cmt>0.1 kmh</cmt></trkpt>
<trkpt lat="58.868531" lon="05.875117"><ele>30</ele><time>2012-03-31T14:51:37Z</time><cmt>0.1 kmh</cmt></trkpt>
<trkpt lat="58.868531" lon="05.875116"><ele>30</ele><time>2012-03-31T14:51:38Z</time><cmt>0.0 kmh</cmt></trkpt>
<trkpt lat="58.868532" lon="05.875115"><ele>30</ele><time>2012-03-31T14:51:39Z</time><cmt>0.0 kmh</cmt></trkpt>
<trkpt lat="58.868532" lon="05.875114"><ele>31</ele><time>2012-03-31T14:51:40Z</time><cmt>0.3 kmh</cmt></trkpt>
<trkpt lat="58.868532" lon="05.875113"><ele>31</ele><time>2012-03-31T14:51:41Z</time><cmt>0.4 kmh</cmt></trkpt>
<trkpt lat="58.868532" lon="05.875112"><ele>31</ele><time>2012-03-31T14:51:42Z</time><cmt>0.1 kmh</cmt></trkpt>
<trkpt lat="58.868532" lon="05.875111"><ele>31</ele><time>2012-03-31T14:51:43Z</time><cmt>0.1 kmh</cmt></trkpt>
<trkpt lat="58.868533" lon="05.875111"><ele>32</ele><time>2012-03-31T14:51:44Z</time><cmt>0.2 kmh</cmt></trkpt>
<trkpt lat="58.868533" lon="05.875110"><ele>32</ele><time>2012-03-31T14:51:45Z</time><cmt>0.0 kmh</cmt></trkpt>
<trkpt lat="58.868533" lon="05.875109"><ele>32</ele><time>2012-03-31T14:51:46Z</time><cmt>0.0 kmh</cmt></trkpt>
<trkpt lat="58.868533" lon="05.875109"><ele>32</ele><time>2012-03-31T14:51:47Z</time><cmt>0.0 kmh</cmt></trkpt>
<trkpt lat="58.868533" lon="05.875109"><ele>33</ele><time>2012-03-31T14:51:48Z</time><cmt>0.0 kmh</cmt></trkpt>
<trkpt lat="58.868533" lon="05.875109"><ele>33</ele><time>2012-03-31T14:51:49Z</time><cmt>0.2 kmh</cmt></trkpt>
<trkpt lat="58.868533" lon="05.875109"><ele>33</ele><time>2012-03-31T14:51:50Z</time><cmt>0.4 kmh</cmt></trkpt>
<trkpt lat="58.868532" lon="05.875109"><ele>33</ele><time>2012-03-31T14:51:51Z</time><cmt>0.2 kmh</cmt></trkpt>
<trkpt lat="58.868532" lon="05.875109"><ele>33</ele><time>2012-03-31T14:51:52Z</time><cmt>0.0 kmh</cmt></trkpt>
<trkpt lat="58.868532" lon="05.875109"><ele>33</ele><time>2012-03-31T14:51:53Z</time><cmt>0.0 kmh</cmt></trkpt>
<trkpt lat="58.868532" lon="05.875109"><ele>34</ele><time>2012-03-31T14:51:54Z</time><cmt>0.0 kmh</cmt></trkpt>
<trkpt lat="58.868532" lon="05.875110"><ele>34</ele><time>2012-03-31T14:51:55Z</time><cmt>0.0 kmh</cmt></trkpt>
<trkpt lat="58.868532" lon="05.875110"><ele>34</ele><time>2012-03-31T14:51:56Z</time><cmt>0.0 kmh</cmt></trkpt>
<trkpt lat="58.868532" lon="05.875111"><ele>34</ele><time>2012-03-31T14:51:57Z</time><cmt>0.0 kmh</cmt></trkpt>
<trkpt lat="58.868531" lon="05.875111"><ele>34</ele><time>2012-03-31T14:51:58Z</time><cmt>0.0 kmh</cmt></trkpt>
<trkpt lat="58.868531" lon="05.875112"><ele>34</ele><time>2012-03-31T14:51:59Z</time><cmt>0.0 kmh</cmt></trkpt>
<trkpt lat="58.868531" lon="05.875112"><ele>34</ele><time>2012-03-31T14:52:00Z</time><cmt>0.0 kmh</cmt></trkpt>
<trkpt lat="58.868531" lon="05.875113"><ele>34</ele><time>2012-03-31T14:52:01Z</time><cmt>0.0 kmh</cmt></trkpt>
<trkpt lat="58.868530" lon="05.875113"><ele>34</ele><time>2012-03-31T14:52:02Z</time><cmt>0.0 kmh</cmt></trkpt>
<trkpt lat="58.868530" lon="05.875113"><ele>34</ele><time>2012-03-31T14:52:03Z</time><cmt>0.0 kmh</cmt></trkpt>
<trkpt lat="58.868530" lon="05.875114"><ele>34</ele><time>2012-03-31T14:52:04Z</time><cmt>0.0 kmh</cmt></trkpt>
<trkpt lat="58.868530" lon="05.875114"><ele>34</ele><time>2012-03-31T14:52:05Z</time><cmt>0.0 kmh</cmt></trkpt>
<trkpt lat="58.868529" lon="05.875115"><ele>34</ele><time>2012-03-31T14:52:06Z</time><cmt>0.0 kmh</cmt></trkpt>
<trkpt lat="58.868529" lon="05.875115"><ele>34</ele><time>2012-03-31T14:52:07Z</time><cmt>0.1 kmh</cmt></trkpt>
<trkpt lat="58.868529" lon="05.875115"><ele>34</ele><time>2012-03-31T14:52:08Z</time><cmt>0.1 kmh</cmt></trkpt>
<trkpt lat="58.868529" lon="05.875116"><ele>34</ele><time>2012-03-31T14:52:09Z</time><cmt>0.0 kmh</cmt></trkpt>
<trkpt lat="58.868528" lon="05.875116"><ele>34</ele><time>2012-03-31T14:52:10Z</time><cmt>0.0 kmh</cmt></trkpt>
<trkpt lat="58.868528" lon="05.875117"><ele>34</ele><time>2012-03-31T14:52:11Z</time><cmt>0.0 kmh</cmt></trkpt>
<trkpt lat="58.868528" lon="05.875118"><ele>34</ele><time>2012-03-31T14:52:12Z</time><cmt>0.0 kmh</cmt></trkpt>
<trkpt lat="58.868528" lon="05.875118"><ele>34</ele><time>2012-03-31T14:52:13Z</time><cmt>0.0 kmh</cmt></trkpt>
<trkpt lat="58.868528" lon="05.875119"><ele>34</ele><time>2012-03-31T14:52:14Z</time><cmt>0.0 kmh</cmt></trkpt>
<trkpt lat="58.868527" lon="05.875119"><ele>34</ele><time>2012-03-31T14:52:15Z</time><cmt>0.0 kmh</cmt></trkpt>
<trkpt lat="58.868527" lon="05.875120"><ele>34</ele><time>2012-03-31T14:52:16Z</time><cmt>0.0 kmh</cmt></trkpt>
<trkpt lat="58.868527" lon="05.875120"><ele>34</ele><time>2012-03-31T14:52:17Z</time><cmt>0.0 kmh</cmt></trkpt>
<trkpt lat="58.868527" lon="05.875121"><ele>34</ele><time>2012-03-31T14:52:18Z</time><cmt>0.0 kmh</cmt></trkpt>
<trkpt lat="58.868527" lon="05.875122"><ele>33</ele><time>2012-03-31T14:52:19Z</time><cmt>0.0 kmh</cmt></trkpt>
<trkpt lat="58.868527" lon="05.875122"><ele>33</ele><time>2012-03-31T14:52:20Z</time><cmt>0.0 kmh</cmt></trkpt>
<trkpt lat="58.868527" lon="05.875123"><ele>33</ele><time>2012-03-31T14:52:21Z</time><cmt>0.0 kmh</cmt></trkpt>
<trkpt lat="58.868527" lon="05.875123"><ele>33</ele><time>2012-03-31T14:52:22Z</time><cmt>0.0 kmh</cmt></trkpt>
<trkpt lat="58.868527" lon="05.875124"><ele>33</ele><time>2012-03-31T14:52:23Z</time><cmt>0.0 kmh</cmt></trkpt>
<trkpt lat="58.868527" lon="05.875124"><ele>33</ele><time>2012-03-31T14:52:24Z</time><cmt>0.0 kmh</cmt></trkpt>
<trkpt lat="58.868527" lon="05.875125"><ele>33</ele><time>2012-03-31T14:52:25Z</time><cmt>0.0 kmh</cmt></trkpt>
<trkpt lat="58.868527" lon="05.875125"><ele>33</ele><time>2012-03-31T14:52:26Z</time><cmt>0.0 kmh</cmt></trkpt>
<trkpt lat="58.868527" lon="05.875126"><ele>33</ele><time>2012-03-31T14:52:27Z</time><cmt>0.0 kmh</cmt></trkpt>
<trkpt lat="58.868527" lon="05.875126"><ele>33</ele><time>2012-03-31T14:52:28Z</time><cmt>0.0 kmh</cmt></trkpt>
<trkpt lat="58.868527" lon="05.875126"><ele>33</ele><time>2012-03-31T14:52:29Z</time><cmt>0.0 kmh</cmt></trkpt>
<trkpt lat="58.868527" lon="05.875127"><ele>32</ele><time>2012-03-31T14:52:30Z</time><cmt>0.0 kmh</cmt></trkpt>
<trkpt lat="58.868527" lon="05.875127"><ele>32</ele><time>2012-03-31T14:52:31Z</time><cmt>0.0 kmh</cmt></trkpt>
<trkpt lat="58.868527" lon="05.875127"><ele>32</ele><time>2012-03-31T14:52:32Z</time><cmt>0.0 kmh</cmt></trkpt>
<trkpt lat="58.868527" lon="05.875128"><ele>32</ele><time>2012-03-31T14:52:33Z</time><cmt>0.1 kmh</cmt></trkpt>
<trkpt lat="58.868527" lon="05.875128"><ele>32</ele><time>2012-03-31T14:52:34Z</time><cmt>0.2 kmh</cmt></trkpt>
<trkpt lat="58.868527" lon="05.875128"><ele>32</ele><time>2012-03-31T14:52:35Z</time><cmt>0.0 kmh</cmt></trkpt>
<trkpt lat="58.868527" lon="05.875128"><ele>32</ele><time>2012-03-31T14:52:36Z</time><cmt>0.0 kmh</cmt></trkpt>
<trkpt lat="58.868527" lon="05.875128"><ele>32</ele><time>2012-03-31T14:52:37Z</time><cmt>0.0 kmh</cmt></trkpt>
<trkpt lat="58.868527" lon="05.875128"><ele>32</ele><time>2012-03-31T14:52:38Z</time><cmt>0.0 kmh</cmt></trkpt>
<trkpt lat="58.868527" lon="05.875128"><ele>32</ele><time>2012-03-31T14:52:39Z</time><cmt>0.0 kmh</cmt></trkpt>
<trkpt lat="58.868527" lon="05.875126"><ele>32</ele><time>2012-03-31T14:52:40Z</time><cmt>0.3 kmh</cmt></trkpt>
<trkpt lat="58.868527" lon="05.875124"><ele>32</ele><time>2012-03-31T14:52:41Z</time><cmt>0.5 kmh</cmt></trkpt>
<trkpt lat="58.868527" lon="05.875123"><ele>32</ele><time>2012-03-31T14:52:42Z</time><cmt>0.3 kmh</cmt></trkpt>
<trkpt lat="58.868527" lon="05.875122"><ele>32</ele><time>2012-03-31T14:52:43Z</time><cmt>0.0 kmh</cmt></trkpt>
<trkpt lat="58.868527" lon="05.875122"><ele>32</ele><time>2012-03-31T14:52:44Z</time><cmt>0.0 kmh</cmt></trkpt>
<trkpt lat="58.868527" lon="05.875123"><ele>32</ele><time>2012-03-31T14:52:45Z</time><cmt>0.1 kmh</cmt></trkpt>
<trkpt lat="58.868527" lon="05.875124"><ele>32</ele><time>2012-03-31T14:52:46Z</time><cmt>0.4 kmh</cmt></trkpt>
<trkpt lat="58.868528" lon="05.875125"><ele>32</ele><time>2012-03-31T14:52:47Z</time><cmt>0.5 kmh</cmt></trkpt>
<trkpt lat="58.868529" lon="05.875127"><ele>32</ele><time>2012-03-31T14:52:48Z</time><cmt>0.6 kmh</cmt></trkpt>
<trkpt lat="58.868530" lon="05.875130"><ele>32</ele><time>2012-03-31T14:52:49Z</time><cmt>0.8 kmh</cmt></trkpt>
<trkpt lat="58.868531" lon="05.875131"><ele>32</ele><time>2012-03-31T14:52:50Z</time><cmt>0.6 kmh</cmt></trkpt>
<trkpt lat="58.868532" lon="05.875133"><ele>32</ele><time>2012-03-31T14:52:51Z</time><cmt>0.4 kmh</cmt></trkpt>
<trkpt lat="58.868533" lon="05.875134"><ele>31</ele><time>2012-03-31T14:52:52Z</time><cmt>0.5 kmh</cmt></trkpt>
<trkpt lat="58.868534" lon="05.875136"><ele>31</ele><time>2012-03-31T14:52:53Z</time><cmt>0.5 kmh</cmt></trkpt>
<trkpt lat="58.868534" lon="05.875137"><ele>31</ele><time>2012-03-31T14:52:54Z</time><cmt>0.4 kmh</cmt></trkpt>
<trkpt lat="58.868535" lon="05.875139"><ele>31</ele><time>2012-03-31T14:52:55Z</time><cmt>0.2 kmh</cmt></trkpt>
<trkpt lat="58.868536" lon="05.875140"><ele>31</ele><time>2012-03-31T14:52:56Z</time><cmt>0.3 kmh</cmt></trkpt>
<trkpt lat="58.868537" lon="05.875142"><ele>30</ele><time>2012-03-31T14:52:57Z</time><cmt>0.5 kmh</cmt></trkpt>
<trkpt lat="58.868537" lon="05.875143"><ele>30</ele><time>2012-03-31T14:52:58Z</time><cmt>0.4 kmh</cmt></trkpt>
<trkpt lat="58.868538" lon="05.875144"><ele>30</ele><time>2012-03-31T14:52:59Z</time><cmt>0.2 kmh</cmt></trkpt>
<trkpt lat="58.868538" lon="05.875144"><ele>30</ele><time>2012-03-31T14:53:00Z</time><cmt>0.0 kmh</cmt></trkpt>
<trkpt lat="58.868538" lon="05.875144"><ele>29</ele><time>2012-03-31T14:53:01Z</time><cmt>0.0 kmh</cmt></trkpt>
<trkpt lat="58.868538" lon="05.875144"><ele>29</ele><time>2012-03-31T14:53:02Z</time><cmt>0.3 kmh</cmt></trkpt>
<trkpt lat="58.868538" lon="05.875143"><ele>29</ele><time>2012-03-31T14:53:03Z</time><cmt>0.4 kmh</cmt></trkpt>
<trkpt lat="58.868538" lon="05.875138"><ele>29</ele><time>2012-03-31T14:53:04Z</time><cmt>0.5 kmh</cmt></trkpt>
<trkpt lat="58.868537" lon="05.875134"><ele>29</ele><time>2012-03-31T14:53:05Z</time><cmt>0.9 kmh</cmt></trkpt>
<trkpt lat="58.868536" lon="05.875133"><ele>29</ele><time>2012-03-31T14:53:06Z</time><cmt>0.7 kmh</cmt></trkpt>
<trkpt lat="58.868533" lon="05.875131"><ele>29</ele><time>2012-03-31T14:53:07Z</time><cmt>1.0 kmh</cmt></trkpt>
<trkpt lat="58.868528" lon="05.875128"><ele>29</ele><time>2012-03-31T14:53:08Z</time><cmt>1.8 kmh</cmt></trkpt>
<trkpt lat="58.868524" lon="05.875126"><ele>30</ele><time>2012-03-31T14:53:09Z</time><cmt>1.6 kmh</cmt></trkpt>
<trkpt lat="58.868520" lon="05.875123"><ele>30</ele><time>2012-03-31T14:53:10Z</time><cmt>1.5 kmh</cmt></trkpt>
<trkpt lat="58.868515" lon="05.875120"><ele>30</ele><time>2012-03-31T14:53:11Z</time><cmt>2.0 kmh</cmt></trkpt>
<trkpt lat="58.868511" lon="05.875117"><ele>30</ele><time>2012-03-31T14:53:12Z</time><cmt>2.1 kmh</cmt></trkpt>
<trkpt lat="58.868508" lon="05.875114"><ele>30</ele><time>2012-03-31T14:53:13Z</time><cmt>1.7 kmh</cmt></trkpt>
<trkpt lat="58.868507" lon="05.875113"><ele>30</ele><time>2012-03-31T14:53:14Z</time><cmt>1.1 kmh</cmt></trkpt>
<trkpt lat="58.868507" lon="05.875112"><ele>30</ele><time>2012-03-31T14:53:15Z</time><cmt>0.4 kmh</cmt></trkpt>
<trkpt lat="58.868507" lon="05.875112"><ele>31</ele><time>2012-03-31T14:53:16Z</time><cmt>0.0 kmh</cmt></trkpt>
<trkpt lat="58.868508" lon="05.875112"><ele>31</ele><time>2012-03-31T14:53:17Z</time><cmt>0.0 kmh</cmt></trkpt>
<trkpt lat="58.868508" lon="05.875113"><ele>31</ele><time>2012-03-31T14:53:18Z</time><cmt>0.3 kmh</cmt></trkpt>
<trkpt lat="58.868509" lon="05.875114"><ele>31</ele><time>2012-03-31T14:53:19Z</time><cmt>0.3 kmh</cmt></trkpt>
<trkpt lat="58.868509" lon="05.875114"><ele>31</ele><time>2012-03-31T14:53:20Z</time><cmt>0.0 kmh</cmt></trkpt>
<trkpt lat="58.868509" lon="05.875112"><ele>31</ele><time>2012-03-31T14:53:21Z</time><cmt>0.2 kmh</cmt></trkpt>
<trkpt lat="58.868510" lon="05.875110"><ele>31</ele><time>2012-03-31T14:53:22Z</time><cmt>0.4 kmh</cmt></trkpt>
<trkpt lat="58.868510" lon="05.875109"><ele>32</ele><time>2012-03-31T14:53:23Z</time><cmt>0.4 kmh</cmt></trkpt>
<trkpt lat="58.868510" lon="05.875109"><ele>32</ele><time>2012-03-31T14:53:24Z</time><cmt>0.2 kmh</cmt></trkpt>
<trkpt lat="58.868509" lon="05.875109"><ele>32</ele><time>2012-03-31T14:53:25Z</time><cmt>0.0 kmh</cmt></trkpt>
<trkpt lat="58.868509" lon="05.875109"><ele>32</ele><time>2012-03-31T14:53:26Z</time><cmt>0.0 kmh</cmt></trkpt>
<trkpt lat="58.868508" lon="05.875109"><ele>32</ele><time>2012-03-31T14:53:27Z</time><cmt>0.0 kmh</cmt></trkpt>
<trkpt lat="58.868508" lon="05.875109"><ele>32</ele><time>2012-03-31T14:53:28Z</time><cmt>0.0 kmh</cmt></trkpt>
<trkpt lat="58.868508" lon="05.875110"><ele>32</ele><time>2012-03-31T14:53:29Z</time><cmt>0.0 kmh</cmt></trkpt>
<trkpt lat="58.868508" lon="05.875110"><ele>32</ele><time>2012-03-31T14:53:30Z</time><cmt>0.0 kmh</cmt></trkpt>
<trkpt lat="58.868508" lon="05.875110"><ele>32</ele><time>2012-03-31T14:53:31Z</time><cmt>0.0 kmh</cmt></trkpt>
<trkpt lat="58.868508" lon="05.875110"><ele>32</ele><time>2012-03-31T14:53:32Z</time><cmt>0.0 kmh</cmt></trkpt>
<trkpt lat="58.868508" lon="05.875111"><ele>32</ele><time>2012-03-31T14:53:33Z</time><cmt>0.2 kmh</cmt></trkpt>
<trkpt lat="58.868509" lon="05.875111"><ele>32</ele><time>2012-03-31T14:53:34Z</time><cmt>0.1 kmh</cmt></trkpt>
<trkpt lat="58.868509" lon="05.875111"><ele>32</ele><time>2012-03-31T14:53:35Z</time><cmt>0.0 kmh</cmt></trkpt>
<trkpt lat="58.868510" lon="05.875111"><ele>32</ele><time>2012-03-31T14:53:36Z</time><cmt>0.0 kmh</cmt></trkpt>
<trkpt lat="58.868510" lon="05.875110"><ele>32</ele><time>2012-03-31T14:53:37Z</time><cmt>0.0 kmh</cmt></trkpt>
<trkpt lat="58.868511" lon="05.875110"><ele>32</ele><time>2012-03-31T14:53:38Z</time><cmt>0.0 kmh</cmt></trkpt>
<trkpt lat="58.868512" lon="05.875109"><ele>32</ele><time>2012-03-31T14:53:39Z</time><cmt>0.0 kmh</cmt></trkpt>
<trkpt lat="58.868512" lon="05.875109"><ele>32</ele><time>2012-03-31T14:53:40Z</time><cmt>0.0 kmh</cmt></trkpt>
<trkpt lat="58.868511" lon="05.875109"><ele>32</ele><time>2012-03-31T14:53:41Z</time><cmt>0.1 kmh</cmt></trkpt>
<trkpt lat="58.868512" lon="05.875109"><ele>32</ele><time>2012-03-31T14:53:42Z</time><cmt>0.2 kmh</cmt></trkpt>
<trkpt lat="58.868513" lon="05.875108"><ele>32</ele><time>2012-03-31T14:53:43Z</time><cmt>0.3 kmh</cmt></trkpt>
<trkpt lat="58.868514" lon="05.875108"><ele>32</ele><time>2012-03-31T14:53:44Z</time><cmt>0.5 kmh</cmt></trkpt>
<trkpt lat="58.868516" lon="05.875107"><ele>32</ele><time>2012-03-31T14:53:45Z</time><cmt>0.7 kmh</cmt></trkpt>
<trkpt lat="58.868519" lon="05.875107"><ele>32</ele><time>2012-03-31T14:53:46Z</time><cmt>0.8 kmh</cmt></trkpt>
<trkpt lat="58.868521" lon="05.875106"><ele>32</ele><time>2012-03-31T14:53:47Z</time><cmt>0.8 kmh</cmt></trkpt>
<trkpt lat="58.868522" lon="05.875105"><ele>32</ele><time>2012-03-31T14:53:48Z</time><cmt>0.7 kmh</cmt></trkpt>
<trkpt lat="58.868524" lon="05.875105"><ele>32</ele><time>2012-03-31T14:53:49Z</time><cmt>0.3 kmh</cmt></trkpt>
<trkpt lat="58.868525" lon="05.875104"><ele>32</ele><time>2012-03-31T14:53:50Z</time><cmt>0.2 kmh</cmt></trkpt>
<trkpt lat="58.868526" lon="05.875104"><ele>32</ele><time>2012-03-31T14:53:51Z</time><cmt>0.4 kmh</cmt></trkpt>
<trkpt lat="58.868527" lon="05.875104"><ele>32</ele><time>2012-03-31T14:53:52Z</time><cmt>0.6 kmh</cmt></trkpt>
<trkpt lat="58.868528" lon="05.875104"><ele>32</ele><time>2012-03-31T14:53:53Z</time><cmt>0.6 kmh</cmt></trkpt>
<trkpt lat="58.868530" lon="05.875106"><ele>32</ele><time>2012-03-31T14:53:54Z</time><cmt>0.6 kmh</cmt></trkpt>
<trkpt lat="58.868531" lon="05.875108"><ele>32</ele><time>2012-03-31T14:53:55Z</time><cmt>0.7 kmh</cmt></trkpt>
<trkpt lat="58.868531" lon="05.875111"><ele>33</ele><time>2012-03-31T14:53:56Z</time><cmt>0.7 kmh</cmt></trkpt>
<trkpt lat="58.868532" lon="05.875114"><ele>33</ele><time>2012-03-31T14:53:57Z</time><cmt>0.7 kmh</cmt></trkpt>
<trkpt lat="58.868532" lon="05.875118"><ele>33</ele><time>2012-03-31T14:53:58Z</time><cmt>0.8 kmh</cmt></trkpt>
<trkpt lat="58.868533" lon="05.875122"><ele>33</ele><time>2012-03-31T14:53:59Z</time><cmt>0.7 kmh</cmt></trkpt>
<trkpt lat="58.868533" lon="05.875126"><ele>33</ele><time>2012-03-31T14:54:00Z</time><cmt>0.8 kmh</cmt></trkpt>
<trkpt lat="58.868534" lon="05.875129"><ele>33</ele><time>2012-03-31T14:54:01Z</time><cmt>0.9 kmh</cmt></trkpt>
<trkpt lat="58.868533" lon="05.875130"><ele>33</ele><time>2012-03-31T14:54:02Z</time><cmt>0.6 kmh</cmt></trkpt>
<trkpt lat="58.868533" lon="05.875131"><ele>33</ele><time>2012-03-31T14:54:03Z</time><cmt>0.2 kmh</cmt></trkpt>
<trkpt lat="58.868532" lon="05.875131"><ele>33</ele><time>2012-03-31T14:54:04Z</time><cmt>0.0 kmh</cmt></trkpt>
<trkpt lat="58.868532" lon="05.875130"><ele>33</ele><time>2012-03-31T14:54:05Z</time><cmt>0.0 kmh</cmt></trkpt>
<trkpt lat="58.868531" lon="05.875127"><ele>33</ele><time>2012-03-31T14:54:06Z</time><cmt>0.3 kmh</cmt></trkpt>
<trkpt lat="58.868528" lon="05.875124"><ele>33</ele><time>2012-03-31T14:54:07Z</time><cmt>1.1 kmh</cmt></trkpt>
<trkpt lat="58.868525" lon="05.875120"><ele>33</ele><time>2012-03-31T14:54:08Z</time><cmt>1.5 kmh</cmt></trkpt>
<trkpt lat="58.868523" lon="05.875116"><ele>33</ele><time>2012-03-31T14:54:09Z</time><cmt>1.4 kmh</cmt></trkpt>
<trkpt lat="58.868520" lon="05.875109"><ele>33</ele><time>2012-03-31T14:54:10Z</time><cmt>1.6 kmh</cmt></trkpt>
<trkpt lat="58.868518" lon="05.875100"><ele>33</ele><time>2012-03-31T14:54:11Z</time><cmt>1.6 kmh</cmt></trkpt>
<trkpt lat="58.868515" lon="05.875093"><ele>33</ele><time>2012-03-31T14:54:12Z</time><cmt>1.6 kmh</cmt></trkpt>
<trkpt lat="58.868513" lon="05.875086"><ele>33</ele><time>2012-03-31T14:54:13Z</time><cmt>1.9 kmh</cmt></trkpt>
<trkpt lat="58.868510" lon="05.875079"><ele>33</ele><time>2012-03-31T14:54:14Z</time><cmt>1.9 kmh</cmt></trkpt>
<trkpt lat="58.868506" lon="05.875073"><ele>32</ele><time>2012-03-31T14:54:15Z</time><cmt>2.0 kmh</cmt></trkpt>
<trkpt lat="58.868502" lon="05.875066"><ele>32</ele><time>2012-03-31T14:54:16Z</time><cmt>2.3 kmh</cmt></trkpt>
<trkpt lat="58.868497" lon="05.875058"><ele>32</ele><time>2012-03-31T14:54:17Z</time><cmt>2.0 kmh</cmt></trkpt>
<trkpt lat="58.868492" lon="05.875050"><ele>32</ele><time>2012-03-31T14:54:18Z</time><cmt>2.3 kmh</cmt></trkpt>
<trkpt lat="58.868485" lon="05.875043"><ele>32</ele><time>2012-03-31T14:54:19Z</time><cmt>3.2 kmh</cmt></trkpt>
<trkpt lat="58.868476" lon="05.875038"><ele>32</ele><time>2012-03-31T14:54:20Z</time><cmt>3.7 kmh</cmt></trkpt>
<trkpt lat="58.868466" lon="05.875034"><ele>32</ele><time>2012-03-31T14:54:21Z</time><cmt>4.2 kmh</cmt></trkpt>
<trkpt lat="58.868455" lon="05.875031"><ele>32</ele><time>2012-03-31T14:54:22Z</time><cmt>4.5 kmh</cmt></trkpt>
<trkpt lat="58.868443" lon="05.875032"><ele>32</ele><time>2012-03-31T14:54:23Z</time><cmt>5.1 kmh</cmt></trkpt>
<trkpt lat="58.868431" lon="05.875037"><ele>32</ele><time>2012-03-31T14:54:24Z</time><cmt>5.3 kmh</cmt></trkpt>
<trkpt lat="58.868419" lon="05.875044"><ele>32</ele><time>2012-03-31T14:54:25Z</time><cmt>5.3 kmh</cmt></trkpt>
<trkpt lat="58.868408" lon="05.875052"><ele>32</ele><time>2012-03-31T14:54:26Z</time><cmt>5.0 kmh</cmt></trkpt>
<trkpt lat="58.868400" lon="05.875059"><ele>32</ele><time>2012-03-31T14:54:27Z</time><cmt>4.3 kmh</cmt></trkpt>
<trkpt lat="58.868394" lon="05.875067"><ele>32</ele><time>2012-03-31T14:54:28Z</time><cmt>3.5 kmh</cmt></trkpt>
<trkpt lat="58.868388" lon="05.875077"><ele>32</ele><time>2012-03-31T14:54:29Z</time><cmt>3.3 kmh</cmt></trkpt>
<trkpt lat="58.868377" lon="05.875119"><ele>31</ele><time>2012-03-31T14:54:32Z</time><cmt>3.0 kmh</cmt></trkpt>
<trkpt lat="58.868372" lon="05.875161"><ele>31</ele><time>2012-03-31T14:54:34Z</time><cmt>5.2 kmh</cmt></trkpt>
<trkpt lat="58.868370" lon="05.875219"><ele>31</ele><time>2012-03-31T14:54:36Z</time><cmt>6.4 kmh</cmt></trkpt>
<trkpt lat="58.868370" lon="05.875271"><ele>31</ele><time>2012-03-31T14:54:38Z</time><cmt>5.1 kmh</cmt></trkpt>
<trkpt lat="58.868370" lon="05.875318"><ele>31</ele><time>2012-03-31T14:54:40Z</time><cmt>5.2 kmh</cmt></trkpt>
<trkpt lat="58.868370" lon="05.875365"><ele>31</ele><time>2012-03-31T14:54:42Z</time><cmt>5.7 kmh</cmt></trkpt>
<trkpt lat="58.868370" lon="05.875416"><ele>31</ele><time>2012-03-31T14:54:44Z</time><cmt>6.7 kmh</cmt></trkpt>
<trkpt lat="58.868371" lon="05.875476"><ele>31</ele><time>2012-03-31T14:54:46Z</time><cmt>6.6 kmh</cmt></trkpt>
<trkpt lat="58.868370" lon="05.875538"><ele>31</ele><time>2012-03-31T14:54:48Z</time><cmt>6.2 kmh</cmt></trkpt>
<trkpt lat="58.868369" lon="05.875591"><ele>31</ele><time>2012-03-31T14:54:50Z</time><cmt>5.4 kmh</cmt></trkpt>
<trkpt lat="58.868366" lon="05.875635"><ele>31</ele><time>2012-03-31T14:54:52Z</time><cmt>5.0 kmh</cmt></trkpt>
<trkpt lat="58.868359" lon="05.875684"><ele>31</ele><time>2012-03-31T14:54:55Z</time><cmt>3.3 kmh</cmt></trkpt>
<trkpt lat="58.868214" lon="05.876009"><ele>30</ele><time>2012-03-31T14:55:50Z</time><cmt>5.0 kmh</cmt></trkpt>
<trkpt lat="58.868202" lon="05.876040"><ele>30</ele><time>2012-03-31T14:55:53Z</time><cmt>2.8 kmh</cmt></trkpt>
<trkpt lat="58.868167" lon="05.876150"><ele>30</ele><time>2012-03-31T14:56:06Z</time><cmt>5.0 kmh</cmt></trkpt>
<trkpt lat="58.868153" lon="05.876199"><ele>30</ele><time>2012-03-31T14:56:10Z</time><cmt>5.0 kmh</cmt></trkpt>
<trkpt lat="58.868147" lon="05.876249"><ele>30</ele><time>2012-03-31T14:56:13Z</time><cmt>3.8 kmh</cmt></trkpt>
<trkpt lat="58.868145" lon="05.876302"><ele>30</ele><time>2012-03-31T14:56:16Z</time><cmt>3.4 kmh</cmt></trkpt>
<trkpt lat="58.868146" lon="05.876360"><ele>30</ele><time>2012-03-31T14:56:19Z</time><cmt>4.3 kmh</cmt></trkpt>
<trkpt lat="58.868138" lon="05.876459"><ele>30</ele><time>2012-03-31T14:56:28Z</time><cmt>5.0 kmh</cmt></trkpt>
<trkpt lat="58.868143" lon="05.876519"><ele>30</ele><time>2012-03-31T14:56:31Z</time><cmt>5.2 kmh</cmt></trkpt>
<trkpt lat="58.868153" lon="05.876572"><ele>30</ele><time>2012-03-31T14:56:33Z</time><cmt>6.0 kmh</cmt></trkpt>
<trkpt lat="58.868167" lon="05.876621"><ele>30</ele><time>2012-03-31T14:56:35Z</time><cmt>6.3 kmh</cmt></trkpt>
<trkpt lat="58.868189" lon="05.876663"><ele>30</ele><time>2012-03-31T14:56:37Z</time><cmt>6.2 kmh</cmt></trkpt>
<trkpt lat="58.868215" lon="05.876695"><ele>30</ele><time>2012-03-31T14:56:39Z</time><cmt>5.9 kmh</cmt></trkpt>
<trkpt lat="58.868244" lon="05.876714"><ele>30</ele><time>2012-03-31T14:56:41Z</time><cmt>6.3 kmh</cmt></trkpt>
<trkpt lat="58.868276" lon="05.876715"><ele>30</ele><time>2012-03-31T14:56:43Z</time><cmt>6.4 kmh</cmt></trkpt>
<trkpt lat="58.868309" lon="05.876705"><ele>30</ele><time>2012-03-31T14:56:45Z</time><cmt>6.7 kmh</cmt></trkpt>
<trkpt lat="58.868327" lon="05.876696"><ele>30</ele><time>2012-03-31T14:56:46Z</time><cmt>7.3 kmh</cmt></trkpt>
<trkpt lat="58.868345" lon="05.876686"><ele>30</ele><time>2012-03-31T14:56:47Z</time><cmt>7.5 kmh</cmt></trkpt>
<trkpt lat="58.868362" lon="05.876676"><ele>30</ele><time>2012-03-31T14:56:48Z</time><cmt>7.3 kmh</cmt></trkpt>
<trkpt lat="58.868381" lon="05.876664"><ele>30</ele><time>2012-03-31T14:56:49Z</time><cmt>7.9 kmh</cmt></trkpt>
<trkpt lat="58.868399" lon="05.876652"><ele>30</ele><time>2012-03-31T14:56:50Z</time><cmt>7.7 kmh</cmt></trkpt>
<trkpt lat="58.868417" lon="05.876639"><ele>30</ele><time>2012-03-31T14:56:51Z</time><cmt>7.9 kmh</cmt></trkpt>
<trkpt lat="58.868437" lon="05.876623"><ele>30</ele><time>2012-03-31T14:56:52Z</time><cmt>8.4 kmh</cmt></trkpt>
<trkpt lat="58.868459" lon="05.876607"><ele>30</ele><time>2012-03-31T14:56:53Z</time><cmt>7.6 kmh</cmt></trkpt>
<trkpt lat="58.868472" lon="05.876597"><ele>30</ele><time>2012-03-31T14:56:54Z</time><cmt>7.0 kmh</cmt></trkpt>
<trkpt lat="58.868487" lon="05.876586"><ele>30</ele><time>2012-03-31T14:56:55Z</time><cmt>6.6 kmh</cmt></trkpt>
<trkpt lat="58.868504" lon="05.876573"><ele>30</ele><time>2012-03-31T14:56:56Z</time><cmt>5.7 kmh</cmt></trkpt>
<trkpt lat="58.868518" lon="05.876565"><ele>30</ele><time>2012-03-31T14:56:57Z</time><cmt>5.2 kmh</cmt></trkpt>
<trkpt lat="58.868532" lon="05.876557"><ele>30</ele><time>2012-03-31T14:56:58Z</time><cmt>5.2 kmh</cmt></trkpt>
<trkpt lat="58.868544" lon="05.876551"><ele>30</ele><time>2012-03-31T14:56:59Z</time><cmt>4.7 kmh</cmt></trkpt>
<trkpt lat="58.868556" lon="05.876545"><ele>30</ele><time>2012-03-31T14:57:00Z</time><cmt>5.0 kmh</cmt></trkpt>
<trkpt lat="58.868567" lon="05.876540"><ele>29</ele><time>2012-03-31T14:57:01Z</time><cmt>5.0 kmh</cmt></trkpt>
<trkpt lat="58.868578" lon="05.876533"><ele>29</ele><time>2012-03-31T14:57:02Z</time><cmt>4.9 kmh</cmt></trkpt>
<trkpt lat="58.868589" lon="05.876527"><ele>29</ele><time>2012-03-31T14:57:03Z</time><cmt>5.0 kmh</cmt></trkpt>
<trkpt lat="58.868600" lon="05.876519"><ele>29</ele><time>2012-03-31T14:57:04Z</time><cmt>4.1 kmh</cmt></trkpt>
<trkpt lat="58.868612" lon="05.876510"><ele>29</ele><time>2012-03-31T14:57:05Z</time><cmt>4.3 kmh</cmt></trkpt>
<trkpt lat="58.868624" lon="05.876503"><ele>29</ele><time>2012-03-31T14:57:06Z</time><cmt>5.0 kmh</cmt></trkpt>
<trkpt lat="58.868635" lon="05.876498"><ele>28</ele><time>2012-03-31T14:57:07Z</time><cmt>5.0 kmh</cmt></trkpt>
<trkpt lat="58.868646" lon="05.876494"><ele>28</ele><time>2012-03-31T14:57:08Z</time><cmt>4.8 kmh</cmt></trkpt>
<trkpt lat="58.868657" lon="05.876489"><ele>28</ele><time>2012-03-31T14:57:09Z</time><cmt>4.9 kmh</cmt></trkpt>
<trkpt lat="58.868669" lon="05.876483"><ele>28</ele><time>2012-03-31T14:57:10Z</time><cmt>5.0 kmh</cmt></trkpt>
<trkpt lat="58.868681" lon="05.876477"><ele>28</ele><time>2012-03-31T14:57:11Z</time><cmt>4.3 kmh</cmt></trkpt>
<trkpt lat="58.868694" lon="05.876472"><ele>28</ele><time>2012-03-31T14:57:12Z</time><cmt>5.1 kmh</cmt></trkpt>
<trkpt lat="58.868706" lon="05.876466"><ele>28</ele><time>2012-03-31T14:57:13Z</time><cmt>5.1 kmh</cmt></trkpt>
<trkpt lat="58.868718" lon="05.876461"><ele>27</ele><time>2012-03-31T14:57:14Z</time><cmt>5.0 kmh</cmt></trkpt>
<trkpt lat="58.868729" lon="05.876453"><ele>27</ele><time>2012-03-31T14:57:15Z</time><cmt>5.0 kmh</cmt></trkpt>
<trkpt lat="58.868740" lon="05.876445"><ele>27</ele><time>2012-03-31T14:57:16Z</time><cmt>5.0 kmh</cmt></trkpt>
<trkpt lat="58.868752" lon="05.876437"><ele>27</ele><time>2012-03-31T14:57:17Z</time><cmt>4.1 kmh</cmt></trkpt>
<trkpt lat="58.868762" lon="05.876429"><ele>27</ele><time>2012-03-31T14:57:18Z</time><cmt>4.1 kmh</cmt></trkpt>
<trkpt lat="58.868774" lon="05.876422"><ele>27</ele><time>2012-03-31T14:57:19Z</time><cmt>5.0 kmh</cmt></trkpt>
<trkpt lat="58.868785" lon="05.876416"><ele>27</ele><time>2012-03-31T14:57:20Z</time><cmt>5.0 kmh</cmt></trkpt>
<trkpt lat="58.868796" lon="05.876409"><ele>26</ele><time>2012-03-31T14:57:21Z</time><cmt>5.0 kmh</cmt></trkpt>
<trkpt lat="58.868806" lon="05.876403"><ele>26</ele><time>2012-03-31T14:57:22Z</time><cmt>4.8 kmh</cmt></trkpt>
<trkpt lat="58.868816" lon="05.876399"><ele>26</ele><time>2012-03-31T14:57:23Z</time><cmt>3.6 kmh</cmt></trkpt>
<trkpt lat="58.868825" lon="05.876394"><ele>26</ele><time>2012-03-31T14:57:24Z</time><cmt>3.5 kmh</cmt></trkpt>
<trkpt lat="58.868835" lon="05.876387"><ele>26</ele><time>2012-03-31T14:57:25Z</time><cmt>4.5 kmh</cmt></trkpt>
<trkpt lat="58.868845" lon="05.876381"><ele>26</ele><time>2012-03-31T14:57:26Z</time><cmt>4.4 kmh</cmt></trkpt>
<trkpt lat="58.868854" lon="05.876374"><ele>26</ele><time>2012-03-31T14:57:27Z</time><cmt>4.2 kmh</cmt></trkpt>
<trkpt lat="58.868862" lon="05.876366"><ele>26</ele><time>2012-03-31T14:57:28Z</time><cmt>4.1 kmh</cmt></trkpt>
<trkpt lat="58.868870" lon="05.876358"><ele>25</ele><time>2012-03-31T14:57:29Z</time><cmt>3.2 kmh</cmt></trkpt>
<trkpt lat="58.868879" lon="05.876351"><ele>25</ele><time>2012-03-31T14:57:30Z</time><cmt>3.2 kmh</cmt></trkpt>
<trkpt lat="58.868887" lon="05.876343"><ele>25</ele><time>2012-03-31T14:57:31Z</time><cmt>4.0 kmh</cmt></trkpt>
<trkpt lat="58.868896" lon="05.876336"><ele>25</ele><time>2012-03-31T14:57:32Z</time><cmt>3.9 kmh</cmt></trkpt>
<trkpt lat="58.868904" lon="05.876329"><ele>25</ele><time>2012-03-31T14:57:33Z</time><cmt>3.8 kmh</cmt></trkpt>
<trkpt lat="58.868912" lon="05.876324"><ele>25</ele><time>2012-03-31T14:57:34Z</time><cmt>3.7 kmh</cmt></trkpt>
<trkpt lat="58.868919" lon="05.876318"><ele>25</ele><time>2012-03-31T14:57:35Z</time><cmt>2.9 kmh</cmt></trkpt>
<trkpt lat="58.868927" lon="05.876314"><ele>25</ele><time>2012-03-31T14:57:36Z</time><cmt>2.7 kmh</cmt></trkpt>
<trkpt lat="58.868933" lon="05.876310"><ele>25</ele><time>2012-03-31T14:57:37Z</time><cmt>3.2 kmh</cmt></trkpt>
<trkpt lat="58.868941" lon="05.876304"><ele>25</ele><time>2012-03-31T14:57:38Z</time><cmt>3.3 kmh</cmt></trkpt>
<trkpt lat="58.868948" lon="05.876297"><ele>25</ele><time>2012-03-31T14:57:39Z</time><cmt>3.5 kmh</cmt></trkpt>
<trkpt lat="58.868956" lon="05.876290"><ele>25</ele><time>2012-03-31T14:57:40Z</time><cmt>3.5 kmh</cmt></trkpt>
<trkpt lat="58.868962" lon="05.876284"><ele>25</ele><time>2012-03-31T14:57:41Z</time><cmt>3.3 kmh</cmt></trkpt>
<trkpt lat="58.868968" lon="05.876279"><ele>25</ele><time>2012-03-31T14:57:42Z</time><cmt>2.4 kmh</cmt></trkpt>
<trkpt lat="58.868974" lon="05.876274"><ele>25</ele><time>2012-03-31T14:57:43Z</time><cmt>2.3 kmh</cmt></trkpt>
<trkpt lat="58.868980" lon="05.876271"><ele>25</ele><time>2012-03-31T14:57:44Z</time><cmt>2.7 kmh</cmt></trkpt>
<trkpt lat="58.868986" lon="05.876268"><ele>25</ele><time>2012-03-31T14:57:45Z</time><cmt>2.7 kmh</cmt></trkpt>
<trkpt lat="58.868993" lon="05.876265"><ele>25</ele><time>2012-03-31T14:57:46Z</time><cmt>2.9 kmh</cmt></trkpt>
<trkpt lat="58.869000" lon="05.876262"><ele>24</ele><time>2012-03-31T14:57:47Z</time><cmt>3.1 kmh</cmt></trkpt>
<trkpt lat="58.869008" lon="05.876258"><ele>24</ele><time>2012-03-31T14:57:48Z</time><cmt>2.6 kmh</cmt></trkpt>
<trkpt lat="58.869016" lon="05.876253"><ele>24</ele><time>2012-03-31T14:57:49Z</time><cmt>2.8 kmh</cmt></trkpt>
<trkpt lat="58.869025" lon="05.876249"><ele>24</ele><time>2012-03-31T14:57:50Z</time><cmt>3.7 kmh</cmt></trkpt>
<trkpt lat="58.869034" lon="05.876243"><ele>24</ele><time>2012-03-31T14:57:51Z</time><cmt>4.0 kmh</cmt></trkpt>
<trkpt lat="58.869044" lon="05.876237"><ele>24</ele><time>2012-03-31T14:57:52Z</time><cmt>4.3 kmh</cmt></trkpt>
<trkpt lat="58.869054" lon="05.876228"><ele>24</ele><time>2012-03-31T14:57:53Z</time><cmt>4.5 kmh</cmt></trkpt>
<trkpt lat="58.869063" lon="05.876218"><ele>24</ele><time>2012-03-31T14:57:54Z</time><cmt>3.8 kmh</cmt></trkpt>
<trkpt lat="58.869073" lon="05.876209"><ele>24</ele><time>2012-03-31T14:57:55Z</time><cmt>3.7 kmh</cmt></trkpt>
<trkpt lat="58.869083" lon="05.876199"><ele>24</ele><time>2012-03-31T14:57:56Z</time><cmt>4.7 kmh</cmt></trkpt>
<trkpt lat="58.869093" lon="05.876189"><ele>24</ele><time>2012-03-31T14:57:57Z</time><cmt>4.8 kmh</cmt></trkpt>
<trkpt lat="58.869103" lon="05.876180"><ele>24</ele><time>2012-03-31T14:57:58Z</time><cmt>4.9 kmh</cmt></trkpt>
<trkpt lat="58.869114" lon="05.876170"><ele>24</ele><time>2012-03-31T14:57:59Z</time><cmt>5.0 kmh</cmt></trkpt>
<trkpt lat="58.869124" lon="05.876160"><ele>24</ele><time>2012-03-31T14:58:00Z</time><cmt>4.0 kmh</cmt></trkpt>
<trkpt lat="58.869134" lon="05.876150"><ele>24</ele><time>2012-03-31T14:58:01Z</time><cmt>3.9 kmh</cmt></trkpt>
<trkpt lat="58.869144" lon="05.876141"><ele>24</ele><time>2012-03-31T14:58:02Z</time><cmt>4.8 kmh</cmt></trkpt>
<trkpt lat="58.869154" lon="05.876131"><ele>24</ele><time>2012-03-31T14:58:03Z</time><cmt>4.8 kmh</cmt></trkpt>
<trkpt lat="58.869165" lon="05.876122"><ele>24</ele><time>2012-03-31T14:58:04Z</time><cmt>5.0 kmh</cmt></trkpt>
<trkpt lat="58.869176" lon="05.876112"><ele>24</ele><time>2012-03-31T14:58:05Z</time><cmt>5.0 kmh</cmt></trkpt>
<trkpt lat="58.869186" lon="05.876102"><ele>24</ele><time>2012-03-31T14:58:06Z</time><cmt>4.1 kmh</cmt></trkpt>
<trkpt lat="58.869197" lon="05.876092"><ele>24</ele><time>2012-03-31T14:58:07Z</time><cmt>4.1 kmh</cmt></trkpt>
<trkpt lat="58.869208" lon="05.876082"><ele>24</ele><time>2012-03-31T14:58:08Z</time><cmt>5.0 kmh</cmt></trkpt>
<trkpt lat="58.869219" lon="05.876071"><ele>24</ele><time>2012-03-31T14:58:09Z</time><cmt>5.1 kmh</cmt></trkpt>
<trkpt lat="58.869230" lon="05.876062"><ele>24</ele><time>2012-03-31T14:58:10Z</time><cmt>5.0 kmh</cmt></trkpt>
<trkpt lat="58.869242" lon="05.876052"><ele>24</ele><time>2012-03-31T14:58:11Z</time><cmt>5.0 kmh</cmt></trkpt>
<trkpt lat="58.869253" lon="05.876042"><ele>24</ele><time>2012-03-31T14:58:12Z</time><cmt>5.0 kmh</cmt></trkpt>
<trkpt lat="58.869265" lon="05.876033"><ele>24</ele><time>2012-03-31T14:58:13Z</time><cmt>4.3 kmh</cmt></trkpt>
<trkpt lat="58.869276" lon="05.876024"><ele>24</ele><time>2012-03-31T14:58:14Z</time><cmt>4.2 kmh</cmt></trkpt>
<trkpt lat="58.869287" lon="05.876014"><ele>24</ele><time>2012-03-31T14:58:15Z</time><cmt>5.1 kmh</cmt></trkpt>
<trkpt lat="58.869299" lon="05.876003"><ele>23</ele><time>2012-03-31T14:58:16Z</time><cmt>5.1 kmh</cmt></trkpt>
<trkpt lat="58.869309" lon="05.875994"><ele>23</ele><time>2012-03-31T14:58:17Z</time><cmt>5.0 kmh</cmt></trkpt>
<trkpt lat="58.869319" lon="05.875984"><ele>23</ele><time>2012-03-31T14:58:18Z</time><cmt>4.9 kmh</cmt></trkpt>
<trkpt lat="58.869329" lon="05.875973"><ele>23</ele><time>2012-03-31T14:58:19Z</time><cmt>4.0 kmh</cmt></trkpt>
<trkpt lat="58.869340" lon="05.875962"><ele>23</ele><time>2012-03-31T14:58:20Z</time><cmt>4.1 kmh</cmt></trkpt>
<trkpt lat="58.869351" lon="05.875952"><ele>23</ele><time>2012-03-31T14:58:21Z</time><cmt>5.0 kmh</cmt></trkpt>
<trkpt lat="58.869361" lon="05.875942"><ele>23</ele><time>2012-03-31T14:58:22Z</time><cmt>5.0 kmh</cmt></trkpt>
<trkpt lat="58.869371" lon="05.875932"><ele>23</ele><time>2012-03-31T14:58:23Z</time><cmt>4.9 kmh</cmt></trkpt>
<trkpt lat="58.869381" lon="05.875922"><ele>23</ele><time>2012-03-31T14:58:24Z</time><cmt>4.9 kmh</cmt></trkpt>
<trkpt lat="58.869392" lon="05.875912"><ele>23</ele><time>2012-03-31T14:58:25Z</time><cmt>4.0 kmh</cmt></trkpt>
<trkpt lat="58.869402" lon="05.875903"><ele>23</ele><time>2012-03-31T14:58:26Z</time><cmt>4.1 kmh</cmt></trkpt>
<trkpt lat="58.869413" lon="05.875894"><ele>23</ele><time>2012-03-31T14:58:27Z</time><cmt>5.0 kmh</cmt></trkpt>
<trkpt lat="58.869424" lon="05.875886"><ele>23</ele><time>2012-03-31T14:58:28Z</time><cmt>5.0 kmh</cmt></trkpt>
<trkpt lat="58.869434" lon="05.875878"><ele>23</ele><time>2012-03-31T14:58:29Z</time><cmt>4.9 kmh</cmt></trkpt>
<trkpt lat="58.869445" lon="05.875870"><ele>23</ele><time>2012-03-31T14:58:30Z</time><cmt>5.0 kmh</cmt></trkpt>
<trkpt lat="58.869456" lon="05.875863"><ele>23</ele><time>2012-03-31T14:58:31Z</time><cmt>3.9 kmh</cmt></trkpt>
<trkpt lat="58.869466" lon="05.875856"><ele>23</ele><time>2012-03-31T14:58:32Z</time><cmt>3.9 kmh</cmt></trkpt>
<trkpt lat="58.869477" lon="05.875847"><ele>23</ele><time>2012-03-31T14:58:33Z</time><cmt>5.0 kmh</cmt></trkpt>
<trkpt lat="58.869489" lon="05.875837"><ele>23</ele><time>2012-03-31T14:58:34Z</time><cmt>5.0 kmh</cmt></trkpt>
<trkpt lat="58.869500" lon="05.875826"><ele>23</ele><time>2012-03-31T14:58:35Z</time><cmt>5.0 kmh</cmt></trkpt>
<trkpt lat="58.869511" lon="05.875817"><ele>23</ele><time>2012-03-31T14:58:36Z</time><cmt>5.0 kmh</cmt></trkpt>
<trkpt lat="58.869522" lon="05.875807"><ele>23</ele><time>2012-03-31T14:58:37Z</time><cmt>5.0 kmh</cmt></trkpt>
<trkpt lat="58.869532" lon="05.875797"><ele>23</ele><time>2012-03-31T14:58:38Z</time><cmt>4.2 kmh</cmt></trkpt>
<trkpt lat="58.869543" lon="05.875786"><ele>23</ele><time>2012-03-31T14:58:39Z</time><cmt>5.1 kmh</cmt></trkpt>
<trkpt lat="58.869555" lon="05.875776"><ele>23</ele><time>2012-03-31T14:58:40Z</time><cmt>5.1 kmh</cmt></trkpt>
<trkpt lat="58.869566" lon="05.875766"><ele>22</ele><time>2012-03-31T14:58:41Z</time><cmt>5.0 kmh</cmt></trkpt>
<trkpt lat="58.869577" lon="05.875755"><ele>22</ele><time>2012-03-31T14:58:42Z</time><cmt>5.0 kmh</cmt></trkpt>
<trkpt lat="58.869588" lon="05.875745"><ele>22</ele><time>2012-03-31T14:58:43Z</time><cmt>5.0 kmh</cmt></trkpt>
<trkpt lat="58.869598" lon="05.875734"><ele>22</ele><time>2012-03-31T14:58:44Z</time><cmt>4.2 kmh</cmt></trkpt>
<trkpt lat="58.869609" lon="05.875723"><ele>22</ele><time>2012-03-31T14:58:45Z</time><cmt>4.2 kmh</cmt></trkpt>
<trkpt lat="58.869619" lon="05.875711"><ele>22</ele><time>2012-03-31T14:58:46Z</time><cmt>5.0 kmh</cmt></trkpt>
<trkpt lat="58.869630" lon="05.875701"><ele>22</ele><time>2012-03-31T14:58:47Z</time><cmt>5.0 kmh</cmt></trkpt>
<trkpt lat="58.869641" lon="05.875690"><ele>22</ele><time>2012-03-31T14:58:48Z</time><cmt>5.0 kmh</cmt></trkpt>
<trkpt lat="58.869651" lon="05.875678"><ele>22</ele><time>2012-03-31T14:58:49Z</time><cmt>5.0 kmh</cmt></trkpt>
<trkpt lat="58.869662" lon="05.875667"><ele>22</ele><time>2012-03-31T14:58:50Z</time><cmt>5.0 kmh</cmt></trkpt>
<trkpt lat="58.869673" lon="05.875656"><ele>22</ele><time>2012-03-31T14:58:51Z</time><cmt>5.0 kmh</cmt></trkpt>
<trkpt lat="58.869684" lon="05.875645"><ele>22</ele><time>2012-03-31T14:58:52Z</time><cmt>5.0 kmh</cmt></trkpt>
<trkpt lat="58.869696" lon="05.875635"><ele>22</ele><time>2012-03-31T14:58:53Z</time><cmt>5.3 kmh</cmt></trkpt>
<trkpt lat="58.869707" lon="05.875625"><ele>22</ele><time>2012-03-31T14:58:54Z</time><cmt>5.2 kmh</cmt></trkpt>
<trkpt lat="58.869719" lon="05.875615"><ele>22</ele><time>2012-03-31T14:58:55Z</time><cmt>5.3 kmh</cmt></trkpt>
<trkpt lat="58.869731" lon="05.875604"><ele>22</ele><time>2012-03-31T14:58:56Z</time><cmt>5.1 kmh</cmt></trkpt>
<trkpt lat="58.869743" lon="05.875593"><ele>22</ele><time>2012-03-31T14:58:57Z</time><cmt>5.4 kmh</cmt></trkpt>
<trkpt lat="58.869755" lon="05.875582"><ele>22</ele><time>2012-03-31T14:58:58Z</time><cmt>5.5 kmh</cmt></trkpt>
<trkpt lat="58.869767" lon="05.875567"><ele>22</ele><time>2012-03-31T14:58:59Z</time><cmt>5.9 kmh</cmt></trkpt>
<trkpt lat="58.869780" lon="05.875552"><ele>22</ele><time>2012-03-31T14:59:00Z</time><cmt>6.0 kmh</cmt></trkpt>
<trkpt lat="58.869791" lon="05.875536"><ele>22</ele><time>2012-03-31T14:59:01Z</time><cmt>6.0 kmh</cmt></trkpt>
<trkpt lat="58.869804" lon="05.875518"><ele>22</ele><time>2012-03-31T14:59:02Z</time><cmt>6.0 kmh</cmt></trkpt>
<trkpt lat="58.869815" lon="05.875500"><ele>22</ele><time>2012-03-31T14:59:03Z</time><cmt>5.8 kmh</cmt></trkpt>
<trkpt lat="58.869826" lon="05.875482"><ele>22</ele><time>2012-03-31T14:59:04Z</time><cmt>5.7 kmh</cmt></trkpt>
<trkpt lat="58.869837" lon="05.875464"><ele>22</ele><time>2012-03-31T14:59:05Z</time><cmt>5.7 kmh</cmt></trkpt>
<trkpt lat="58.869848" lon="05.875445"><ele>22</ele><time>2012-03-31T14:59:06Z</time><cmt>6.1 kmh</cmt></trkpt>
<trkpt lat="58.869859" lon="05.875425"><ele>22</ele><time>2012-03-31T14:59:07Z</time><cmt>6.1 kmh</cmt></trkpt>
<trkpt lat="58.869871" lon="05.875405"><ele>22</ele><time>2012-03-31T14:59:08Z</time><cmt>6.3 kmh</cmt></trkpt>
<trkpt lat="58.869883" lon="05.875385"><ele>22</ele><time>2012-03-31T14:59:09Z</time><cmt>6.7 kmh</cmt></trkpt>
<trkpt lat="58.869894" lon="05.875362"><ele>22</ele><time>2012-03-31T14:59:10Z</time><cmt>6.2 kmh</cmt></trkpt>
<trkpt lat="58.869905" lon="05.875340"><ele>22</ele><time>2012-03-31T14:59:11Z</time><cmt>5.9 kmh</cmt></trkpt>
<trkpt lat="58.869916" lon="05.875319"><ele>22</ele><time>2012-03-31T14:59:12Z</time><cmt>6.3 kmh</cmt></trkpt>
<trkpt lat="58.869927" lon="05.875297"><ele>22</ele><time>2012-03-31T14:59:13Z</time><cmt>6.4 kmh</cmt></trkpt>
<trkpt lat="58.869938" lon="05.875274"><ele>22</ele><time>2012-03-31T14:59:14Z</time><cmt>6.4 kmh</cmt></trkpt>
<trkpt lat="58.869948" lon="05.875251"><ele>22</ele><time>2012-03-31T14:59:15Z</time><cmt>6.3 kmh</cmt></trkpt>
<trkpt lat="58.869959" lon="05.875227"><ele>22</ele><time>2012-03-31T14:59:16Z</time><cmt>6.7 kmh</cmt></trkpt>
<trkpt lat="58.869970" lon="05.875203"><ele>22</ele><time>2012-03-31T14:59:17Z</time><cmt>6.7 kmh</cmt></trkpt>
<trkpt lat="58.869981" lon="05.875180"><ele>22</ele><time>2012-03-31T14:59:18Z</time><cmt>6.1 kmh</cmt></trkpt>
<trkpt lat="58.869991" lon="05.875157"><ele>22</ele><time>2012-03-31T14:59:19Z</time><cmt>6.3 kmh</cmt></trkpt>
<trkpt lat="58.870001" lon="05.875135"><ele>22</ele><time>2012-03-31T14:59:20Z</time><cmt>6.1 kmh</cmt></trkpt>
<trkpt lat="58.870012" lon="05.875113"><ele>22</ele><time>2012-03-31T14:59:21Z</time><cmt>6.2 kmh</cmt></trkpt>
<trkpt lat="58.870022" lon="05.875090"><ele>22</ele><time>2012-03-31T14:59:22Z</time><cmt>6.4 kmh</cmt></trkpt>
<trkpt lat="58.870032" lon="05.875067"><ele>22</ele><time>2012-03-31T14:59:23Z</time><cmt>5.9 kmh</cmt></trkpt>
<trkpt lat="58.870042" lon="05.875046"><ele>22</ele><time>2012-03-31T14:59:24Z</time><cmt>5.7 kmh</cmt></trkpt>
<trkpt lat="58.870051" lon="05.875026"><ele>22</ele><time>2012-03-31T14:59:25Z</time><cmt>5.1 kmh</cmt></trkpt>
<trkpt lat="58.870060" lon="05.875006"><ele>22</ele><time>2012-03-31T14:59:26Z</time><cmt>5.4 kmh</cmt></trkpt>
<trkpt lat="58.870067" lon="05.874986"><ele>22</ele><time>2012-03-31T14:59:27Z</time><cmt>5.1 kmh</cmt></trkpt>
<trkpt lat="58.870074" lon="05.874966"><ele>22</ele><time>2012-03-31T14:59:28Z</time><cmt>5.0 kmh</cmt></trkpt>
<trkpt lat="58.870081" lon="05.874945"><ele>22</ele><time>2012-03-31T14:59:29Z</time><cmt>5.0 kmh</cmt></trkpt>
<trkpt lat="58.870087" lon="05.874925"><ele>22</ele><time>2012-03-31T14:59:30Z</time><cmt>5.0 kmh</cmt></trkpt>
<trkpt lat="58.870094" lon="05.874905"><ele>22</ele><time>2012-03-31T14:59:31Z</time><cmt>5.0 kmh</cmt></trkpt>
<trkpt lat="58.870102" lon="05.874886"><ele>22</ele><time>2012-03-31T14:59:32Z</time><cmt>5.1 kmh</cmt></trkpt>
<trkpt lat="58.870110" lon="05.874867"><ele>22</ele><time>2012-03-31T14:59:33Z</time><cmt>5.1 kmh</cmt></trkpt>
<trkpt lat="58.870118" lon="05.874850"><ele>22</ele><time>2012-03-31T14:59:34Z</time><cmt>4.2 kmh</cmt></trkpt>
<trkpt lat="58.870126" lon="05.874832"><ele>22</ele><time>2012-03-31T14:59:35Z</time><cmt>5.3 kmh</cmt></trkpt>
<trkpt lat="58.870135" lon="05.874814"><ele>22</ele><time>2012-03-31T14:59:36Z</time><cmt>5.1 kmh</cmt></trkpt>
<trkpt lat="58.870144" lon="05.874798"><ele>22</ele><time>2012-03-31T14:59:37Z</time><cmt>5.3 kmh</cmt></trkpt>
<trkpt lat="58.870153" lon="05.874782"><ele>22</ele><time>2012-03-31T14:59:38Z</time><cmt>5.3 kmh</cmt></trkpt>
<trkpt lat="58.870162" lon="05.874766"><ele>22</ele><time>2012-03-31T14:59:39Z</time><cmt>4.2 kmh</cmt></trkpt>
<trkpt lat="58.870170" lon="05.874751"><ele>22</ele><time>2012-03-31T14:59:40Z</time><cmt>4.0 kmh</cmt></trkpt>
<trkpt lat="58.870179" lon="05.874736"><ele>22</ele><time>2012-03-31T14:59:41Z</time><cmt>5.0 kmh</cmt></trkpt>
<trkpt lat="58.870188" lon="05.874721"><ele>22</ele><time>2012-03-31T14:59:42Z</time><cmt>5.0 kmh</cmt></trkpt>
<trkpt lat="58.870196" lon="05.874706"><ele>22</ele><time>2012-03-31T14:59:43Z</time><cmt>5.0 kmh</cmt></trkpt>
<trkpt lat="58.870204" lon="05.874692"><ele>22</ele><time>2012-03-31T14:59:44Z</time><cmt>4.8 kmh</cmt></trkpt>
<trkpt lat="58.870212" lon="05.874679"><ele>22</ele><time>2012-03-31T14:59:45Z</time><cmt>4.6 kmh</cmt></trkpt>
<trkpt lat="58.870219" lon="05.874666"><ele>22</ele><time>2012-03-31T14:59:46Z</time><cmt>3.5 kmh</cmt></trkpt>
<trkpt lat="58.870227" lon="05.874652"><ele>22</ele><time>2012-03-31T14:59:47Z</time><cmt>3.5 kmh</cmt></trkpt>
<trkpt lat="58.870234" lon="05.874638"><ele>22</ele><time>2012-03-31T14:59:48Z</time><cmt>4.4 kmh</cmt></trkpt>
<trkpt lat="58.870242" lon="05.874624"><ele>22</ele><time>2012-03-31T14:59:49Z</time><cmt>4.5 kmh</cmt></trkpt>
<trkpt lat="58.870250" lon="05.874610"><ele>22</ele><time>2012-03-31T14:59:50Z</time><cmt>4.6 kmh</cmt></trkpt>
<trkpt lat="58.870258" lon="05.874596"><ele>22</ele><time>2012-03-31T14:59:51Z</time><cmt>4.7 kmh</cmt></trkpt>
<trkpt lat="58.870266" lon="05.874581"><ele>22</ele><time>2012-03-31T14:59:52Z</time><cmt>3.8 kmh</cmt></trkpt>
<trkpt lat="58.870274" lon="05.874567"><ele>22</ele><time>2012-03-31T14:59:53Z</time><cmt>3.7 kmh</cmt></trkpt>
<trkpt lat="58.870281" lon="05.874552"><ele>22</ele><time>2012-03-31T14:59:54Z</time><cmt>4.7 kmh</cmt></trkpt>
<trkpt lat="58.870290" lon="05.874537"><ele>22</ele><time>2012-03-31T14:59:55Z</time><cmt>4.8 kmh</cmt></trkpt>
<trkpt lat="58.870298" lon="05.874522"><ele>22</ele><time>2012-03-31T14:59:56Z</time><cmt>5.0 kmh</cmt></trkpt>
<trkpt lat="58.870307" lon="05.874507"><ele>22</ele><time>2012-03-31T14:59:57Z</time><cmt>5.0 kmh</cmt></trkpt>
<trkpt lat="58.870316" lon="05.874491"><ele>22</ele><time>2012-03-31T14:59:58Z</time><cmt>5.2 kmh</cmt></trkpt>
<trkpt lat="58.870326" lon="05.874475"><ele>22</ele><time>2012-03-31T14:59:59Z</time><cmt>5.0 kmh</cmt></trkpt>
<trkpt lat="58.870336" lon="05.874459"><ele>22</ele><time>2012-03-31T15:00:00Z</time><cmt>5.2 kmh</cmt></trkpt>
<trkpt lat="58.870345" lon="05.874442"><ele>22</ele><time>2012-03-31T15:00:01Z</time><cmt>5.2 kmh</cmt></trkpt>
<trkpt lat="58.870354" lon="05.874426"><ele>22</ele><time>2012-03-31T15:00:02Z</time><cmt>5.0 kmh</cmt></trkpt>
<trkpt lat="58.870363" lon="05.874410"><ele>22</ele><time>2012-03-31T15:00:03Z</time><cmt>5.1 kmh</cmt></trkpt>
<trkpt lat="58.870372" lon="05.874393"><ele>22</ele><time>2012-03-31T15:00:04Z</time><cmt>5.1 kmh</cmt></trkpt>
<trkpt lat="58.870381" lon="05.874376"><ele>22</ele><time>2012-03-31T15:00:05Z</time><cmt>4.3 kmh</cmt></trkpt>
<trkpt lat="58.870390" lon="05.874359"><ele>22</ele><time>2012-03-31T15:00:06Z</time><cmt>5.0 kmh</cmt></trkpt>
<trkpt lat="58.870398" lon="05.874342"><ele>22</ele><time>2012-03-31T15:00:07Z</time><cmt>5.0 kmh</cmt></trkpt>
<trkpt lat="58.870407" lon="05.874326"><ele>22</ele><time>2012-03-31T15:00:08Z</time><cmt>5.0 kmh</cmt></trkpt>
<trkpt lat="58.870416" lon="05.874309"><ele>22</ele><time>2012-03-31T15:00:09Z</time><cmt>5.0 kmh</cmt></trkpt>
<trkpt lat="58.870426" lon="05.874294"><ele>22</ele><time>2012-03-31T15:00:10Z</time><cmt>4.3 kmh</cmt></trkpt>
<trkpt lat="58.870435" lon="05.874278"><ele>22</ele><time>2012-03-31T15:00:11Z</time><cmt>4.2 kmh</cmt></trkpt>
<trkpt lat="58.870443" lon="05.874264"><ele>22</ele><time>2012-03-31T15:00:12Z</time><cmt>5.0 kmh</cmt></trkpt>
<trkpt lat="58.870452" lon="05.874249"><ele>22</ele><time>2012-03-31T15:00:13Z</time><cmt>4.9 kmh</cmt></trkpt>
<trkpt lat="58.870459" lon="05.874236"><ele>22</ele><time>2012-03-31T15:00:14Z</time><cmt>4.6 kmh</cmt></trkpt>
<trkpt lat="58.870467" lon="05.874224"><ele>22</ele><time>2012-03-31T15:00:15Z</time><cmt>4.3 kmh</cmt></trkpt>
<trkpt lat="58.870474" lon="05.874211"><ele>22</ele><time>2012-03-31T15:00:16Z</time><cmt>4.3 kmh</cmt></trkpt>
<trkpt lat="58.870482" lon="05.874198"><ele>22</ele><time>2012-03-31T15:00:17Z</time><cmt>3.5 kmh</cmt></trkpt>
<trkpt lat="58.870489" lon="05.874187"><ele>22</ele><time>2012-03-31T15:00:18Z</time><cmt>3.4 kmh</cmt></trkpt>
<trkpt lat="58.870496" lon="05.874176"><ele>22</ele><time>2012-03-31T15:00:19Z</time><cmt>4.0 kmh</cmt></trkpt>
<trkpt lat="58.870504" lon="05.874166"><ele>22</ele><time>2012-03-31T15:00:20Z</time><cmt>3.9 kmh</cmt></trkpt>
<trkpt lat="58.870511" lon="05.874154"><ele>22</ele><time>2012-03-31T15:00:21Z</time><cmt>4.0 kmh</cmt></trkpt>
<trkpt lat="58.870518" lon="05.874143"><ele>22</ele><time>2012-03-31T15:00:22Z</time><cmt>4.1 kmh</cmt></trkpt>
<trkpt lat="58.870526" lon="05.874132"><ele>22</ele><time>2012-03-31T15:00:23Z</time><cmt>3.3 kmh</cmt></trkpt>
<trkpt lat="58.870533" lon="05.874120"><ele>22</ele><time>2012-03-31T15:00:24Z</time><cmt>3.3 kmh</cmt></trkpt>
<trkpt lat="58.870539" lon="05.874108"><ele>22</ele><time>2012-03-31T15:00:25Z</time><cmt>3.9 kmh</cmt></trkpt>
<trkpt lat="58.870545" lon="05.874097"><ele>22</ele><time>2012-03-31T15:00:26Z</time><cmt>3.7 kmh</cmt></trkpt>
<trkpt lat="58.870550" lon="05.874086"><ele>22</ele><time>2012-03-31T15:00:27Z</time><cmt>3.4 kmh</cmt></trkpt>
<trkpt lat="58.870556" lon="05.874075"><ele>22</ele><time>2012-03-31T15:00:28Z</time><cmt>3.4 kmh</cmt></trkpt>
<trkpt lat="58.870562" lon="05.874063"><ele>22</ele><time>2012-03-31T15:00:29Z</time><cmt>2.9 kmh</cmt></trkpt>
<trkpt lat="58.870567" lon="05.874050"><ele>22</ele><time>2012-03-31T15:00:30Z</time><cmt>2.9 kmh</cmt></trkpt>
<trkpt lat="58.870572" lon="05.874038"><ele>22</ele><time>2012-03-31T15:00:31Z</time><cmt>3.5 kmh</cmt></trkpt>
<trkpt lat="58.870577" lon="05.874026"><ele>22</ele><time>2012-03-31T15:00:32Z</time><cmt>3.4 kmh</cmt></trkpt>
<trkpt lat="58.870582" lon="05.874013"><ele>22</ele><time>2012-03-31T15:00:33Z</time><cmt>3.6 kmh</cmt></trkpt>
<trkpt lat="58.870587" lon="05.873998"><ele>22</ele><time>2012-03-31T15:00:34Z</time><cmt>3.9 kmh</cmt></trkpt>
<trkpt lat="58.870594" lon="05.873984"><ele>22</ele><time>2012-03-31T15:00:35Z</time><cmt>3.3 kmh</cmt></trkpt>
<trkpt lat="58.870600" lon="05.873969"><ele>22</ele><time>2012-03-31T15:00:36Z</time><cmt>3.4 kmh</cmt></trkpt>
<trkpt lat="58.870608" lon="05.873955"><ele>22</ele><time>2012-03-31T15:00:37Z</time><cmt>4.4 kmh</cmt></trkpt>
<trkpt lat="58.870615" lon="05.873940"><ele>22</ele><time>2012-03-31T15:00:38Z</time><cmt>4.6 kmh</cmt></trkpt>
<trkpt lat="58.870623" lon="05.873923"><ele>22</ele><time>2012-03-31T15:00:39Z</time><cmt>5.3 kmh</cmt></trkpt>
<trkpt lat="58.870631" lon="05.873904"><ele>22</ele><time>2012-03-31T15:00:40Z</time><cmt>5.3 kmh</cmt></trkpt>
<trkpt lat="58.870638" lon="05.873884"><ele>22</ele><time>2012-03-31T15:00:41Z</time><cmt>5.4 kmh</cmt></trkpt>
<trkpt lat="58.870645" lon="05.873863"><ele>22</ele><time>2012-03-31T15:00:42Z</time><cmt>5.4 kmh</cmt></trkpt>
<trkpt lat="58.870651" lon="05.873842"><ele>22</ele><time>2012-03-31T15:00:43Z</time><cmt>5.3 kmh</cmt></trkpt>
<trkpt lat="58.870657" lon="05.873820"><ele>22</ele><time>2012-03-31T15:00:44Z</time><cmt>5.0 kmh</cmt></trkpt>
<trkpt lat="58.870664" lon="05.873801"><ele>22</ele><time>2012-03-31T15:00:45Z</time><cmt>5.0 kmh</cmt></trkpt>
<trkpt lat="58.870670" lon="05.873782"><ele>22</ele><time>2012-03-31T15:00:46Z</time><cmt>5.1 kmh</cmt></trkpt>
<trkpt lat="58.870677" lon="05.873762"><ele>22</ele><time>2012-03-31T15:00:47Z</time><cmt>5.1 kmh</cmt></trkpt>
<trkpt lat="58.870684" lon="05.873744"><ele>22</ele><time>2012-03-31T15:00:48Z</time><cmt>4.2 kmh</cmt></trkpt>
<trkpt lat="58.870692" lon="05.873727"><ele>22</ele><time>2012-03-31T15:00:49Z</time><cmt>4.0 kmh</cmt></trkpt>
<trkpt lat="58.870700" lon="05.873711"><ele>22</ele><time>2012-03-31T15:00:50Z</time><cmt>4.9 kmh</cmt></trkpt>
<trkpt lat="58.870708" lon="05.873693"><ele>22</ele><time>2012-03-31T15:00:51Z</time><cmt>5.0 kmh</cmt></trkpt>
<trkpt lat="58.870716" lon="05.873677"><ele>22</ele><time>2012-03-31T15:00:52Z</time><cmt>5.0 kmh</cmt></trkpt>
<trkpt lat="58.870725" lon="05.873662"><ele>22</ele><time>2012-03-31T15:00:53Z</time><cmt>5.0 kmh</cmt></trkpt>
<trkpt lat="58.870733" lon="05.873647"><ele>22</ele><time>2012-03-31T15:00:54Z</time><cmt>4.0 kmh</cmt></trkpt>
<trkpt lat="58.870742" lon="05.873633"><ele>22</ele><time>2012-03-31T15:00:55Z</time><cmt>4.0 kmh</cmt></trkpt>
<trkpt lat="58.870751" lon="05.873620"><ele>22</ele><time>2012-03-31T15:00:56Z</time><cmt>4.8 kmh</cmt></trkpt>
<trkpt lat="58.870760" lon="05.873606"><ele>22</ele><time>2012-03-31T15:00:57Z</time><cmt>4.9 kmh</cmt></trkpt>
<trkpt lat="58.870770" lon="05.873593"><ele>22</ele><time>2012-03-31T15:00:58Z</time><cmt>5.0 kmh</cmt></trkpt>
<trkpt lat="58.870778" lon="05.873580"><ele>22</ele><time>2012-03-31T15:00:59Z</time><cmt>4.9 kmh</cmt></trkpt>
<trkpt lat="58.870787" lon="05.873567"><ele>22</ele><time>2012-03-31T15:01:00Z</time><cmt>3.7 kmh</cmt></trkpt>
<trkpt lat="58.870795" lon="05.873556"><ele>22</ele><time>2012-03-31T15:01:01Z</time><cmt>3.5 kmh</cmt></trkpt>
<trkpt lat="58.870802" lon="05.873545"><ele>22</ele><time>2012-03-31T15:01:02Z</time><cmt>4.1 kmh</cmt></trkpt>
<trkpt lat="58.870809" lon="05.873534"><ele>22</ele><time>2012-03-31T15:01:03Z</time><cmt>4.0 kmh</cmt></trkpt>
<trkpt lat="58.870816" lon="05.873521"><ele>22</ele><time>2012-03-31T15:01:04Z</time><cmt>4.1 kmh</cmt></trkpt>
<trkpt lat="58.870823" lon="05.873508"><ele>22</ele><time>2012-03-31T15:01:05Z</time><cmt>4.2 kmh</cmt></trkpt>
<trkpt lat="58.870831" lon="05.873495"><ele>22</ele><time>2012-03-31T15:01:06Z</time><cmt>3.4 kmh</cmt></trkpt>
<trkpt lat="58.870839" lon="05.873483"><ele>22</ele><time>2012-03-31T15:01:07Z</time><cmt>3.5 kmh</cmt></trkpt>
<trkpt lat="58.870847" lon="05.873471"><ele>22</ele><time>2012-03-31T15:01:08Z</time><cmt>4.4 kmh</cmt></trkpt>
<trkpt lat="58.870855" lon="05.873458"><ele>22</ele><time>2012-03-31T15:01:09Z</time><cmt>4.4 kmh</cmt></trkpt>
<trkpt lat="58.870864" lon="05.873445"><ele>22</ele><time>2012-03-31T15:01:10Z</time><cmt>4.7 kmh</cmt></trkpt>
<trkpt lat="58.870873" lon="05.873432"><ele>22</ele><time>2012-03-31T15:01:11Z</time><cmt>4.9 kmh</cmt></trkpt>
<trkpt lat="58.870882" lon="05.873420"><ele>22</ele><time>2012-03-31T15:01:12Z</time><cmt>4.0 kmh</cmt></trkpt>
<trkpt lat="58.870892" lon="05.873408"><ele>22</ele><time>2012-03-31T15:01:13Z</time><cmt>3.9 kmh</cmt></trkpt>
<trkpt lat="58.870901" lon="05.873397"><ele>22</ele><time>2012-03-31T15:01:14Z</time><cmt>4.8 kmh</cmt></trkpt>
<trkpt lat="58.870911" lon="05.873386"><ele>22</ele><time>2012-03-31T15:01:15Z</time><cmt>4.8 kmh</cmt></trkpt>
<trkpt lat="58.870921" lon="05.873375"><ele>22</ele><time>2012-03-31T15:01:16Z</time><cmt>5.0 kmh</cmt></trkpt>
<trkpt lat="58.870931" lon="05.873363"><ele>22</ele><time>2012-03-31T15:01:17Z</time><cmt>5.2 kmh</cmt></trkpt>
<trkpt lat="58.870941" lon="05.873351"><ele>22</ele><time>2012-03-31T15:01:18Z</time><cmt>5.0 kmh</cmt></trkpt>
<trkpt lat="58.870952" lon="05.873339"><ele>22</ele><time>2012-03-31T15:01:19Z</time><cmt>5.0 kmh</cmt></trkpt>
<trkpt lat="58.870962" lon="05.873328"><ele>22</ele><time>2012-03-31T15:01:20Z</time><cmt>5.0 kmh</cmt></trkpt>
<trkpt lat="58.870972" lon="05.873316"><ele>22</ele><time>2012-03-31T15:01:21Z</time><cmt>5.1 kmh</cmt></trkpt>
<trkpt lat="58.870982" lon="05.873304"><ele>22</ele><time>2012-03-31T15:01:22Z</time><cmt>5.1 kmh</cmt></trkpt>
<trkpt lat="58.870993" lon="05.873291"><ele>22</ele><time>2012-03-31T15:01:23Z</time><cmt>5.0 kmh</cmt></trkpt>
<trkpt lat="58.871002" lon="05.873277"><ele>22</ele><time>2012-03-31T15:01:24Z</time><cmt>5.0 kmh</cmt></trkpt>
<trkpt lat="58.871011" lon="05.873264"><ele>22</ele><time>2012-03-31T15:01:25Z</time><cmt>4.1 kmh</cmt></trkpt>
<trkpt lat="58.871020" lon="05.873250"><ele>22</ele><time>2012-03-31T15:01:26Z</time><cmt>3.9 kmh</cmt></trkpt>
<trkpt lat="58.871029" lon="05.873237"><ele>22</ele><time>2012-03-31T15:01:27Z</time><cmt>4.8 kmh</cmt></trkpt>
<trkpt lat="58.871038" lon="05.873223"><ele>22</ele><time>2012-03-31T15:01:28Z</time><cmt>4.8 kmh</cmt></trkpt>
<trkpt lat="58.871046" lon="05.873209"><ele>22</ele><time>2012-03-31T15:01:29Z</time><cmt>5.0 kmh</cmt></trkpt>
<trkpt lat="58.871056" lon="05.873194"><ele>22</ele><time>2012-03-31T15:01:30Z</time><cmt>5.0 kmh</cmt></trkpt>
<trkpt lat="58.871065" lon="05.873179"><ele>22</ele><time>2012-03-31T15:01:31Z</time><cmt>5.1 kmh</cmt></trkpt>
<trkpt lat="58.871074" lon="05.873164"><ele>22</ele><time>2012-03-31T15:01:32Z</time><cmt>5.1 kmh</cmt></trkpt>
<trkpt lat="58.871084" lon="05.873149"><ele>22</ele><time>2012-03-31T15:01:33Z</time><cmt>5.2 kmh</cmt></trkpt>
<trkpt lat="58.871093" lon="05.873133"><ele>22</ele><time>2012-03-31T15:01:34Z</time><cmt>5.2 kmh</cmt></trkpt>
<trkpt lat="58.871101" lon="05.873117"><ele>22</ele><time>2012-03-31T15:01:35Z</time><cmt>5.0 kmh</cmt></trkpt>
<trkpt lat="58.871109" lon="05.873101"><ele>22</ele><time>2012-03-31T15:01:36Z</time><cmt>4.9 kmh</cmt></trkpt>
<trkpt lat="58.871117" lon="05.873086"><ele>22</ele><time>2012-03-31T15:01:37Z</time><cmt>4.0 kmh</cmt></trkpt>
<trkpt lat="58.871126" lon="05.873070"><ele>22</ele><time>2012-03-31T15:01:38Z</time><cmt>4.1 kmh</cmt></trkpt>
<trkpt lat="58.871134" lon="05.873055"><ele>22</ele><time>2012-03-31T15:01:39Z</time><cmt>5.0 kmh</cmt></trkpt>
<trkpt lat="58.871141" lon="05.873041"><ele>22</ele><time>2012-03-31T15:01:40Z</time><cmt>4.7 kmh</cmt></trkpt>
<trkpt lat="58.871148" lon="05.873027"><ele>22</ele><time>2012-03-31T15:01:41Z</time><cmt>4.5 kmh</cmt></trkpt>
<trkpt lat="58.871155" lon="05.873013"><ele>22</ele><time>2012-03-31T15:01:42Z</time><cmt>4.3 kmh</cmt></trkpt>
<trkpt lat="58.871162" lon="05.873000"><ele>22</ele><time>2012-03-31T15:01:43Z</time><cmt>3.3 kmh</cmt></trkpt>
<trkpt lat="58.871169" lon="05.872987"><ele>22</ele><time>2012-03-31T15:01:44Z</time><cmt>3.3 kmh</cmt></trkpt>
<trkpt lat="58.871176" lon="05.872974"><ele>22</ele><time>2012-03-31T15:01:45Z</time><cmt>4.2 kmh</cmt></trkpt>
<trkpt lat="58.871183" lon="05.872961"><ele>22</ele><time>2012-03-31T15:01:46Z</time><cmt>4.2 kmh</cmt></trkpt>
<trkpt lat="58.871189" lon="05.872949"><ele>22</ele><time>2012-03-31T15:01:47Z</time><cmt>4.1 kmh</cmt></trkpt>
<trkpt lat="58.871196" lon="05.872937"><ele>22</ele><time>2012-03-31T15:01:48Z</time><cmt>4.0 kmh</cmt></trkpt>
<trkpt lat="58.871202" lon="05.872925"><ele>22</ele><time>2012-03-31T15:01:49Z</time><cmt>3.1 kmh</cmt></trkpt>
<trkpt lat="58.871208" lon="05.872914"><ele>22</ele><time>2012-03-31T15:01:50Z</time><cmt>3.0 kmh</cmt></trkpt>
<trkpt lat="58.871215" lon="05.872902"><ele>22</ele><time>2012-03-31T15:01:51Z</time><cmt>3.7 kmh</cmt></trkpt>
<trkpt lat="58.871220" lon="05.872890"><ele>22</ele><time>2012-03-31T15:01:52Z</time><cmt>3.7 kmh</cmt></trkpt>
<trkpt lat="58.871226" lon="05.872879"><ele>22</ele><time>2012-03-31T15:01:53Z</time><cmt>3.6 kmh</cmt></trkpt>
<trkpt lat="58.871232" lon="05.872869"><ele>22</ele><time>2012-03-31T15:01:54Z</time><cmt>3.4 kmh</cmt></trkpt>
<trkpt lat="58.871236" lon="05.872858"><ele>22</ele><time>2012-03-31T15:01:55Z</time><cmt>3.2 kmh</cmt></trkpt>
<trkpt lat="58.871242" lon="05.872847"><ele>22</ele><time>2012-03-31T15:01:56Z</time><cmt>2.6 kmh</cmt></trkpt>
<trkpt lat="58.871247" lon="05.872836"><ele>22</ele><time>2012-03-31T15:01:57Z</time><cmt>2.7 kmh</cmt></trkpt>
<trkpt lat="58.871253" lon="05.872824"><ele>22</ele><time>2012-03-31T15:01:58Z</time><cmt>3.5 kmh</cmt></trkpt>
<trkpt lat="58.871259" lon="05.872812"><ele>22</ele><time>2012-03-31T15:01:59Z</time><cmt>3.6 kmh</cmt></trkpt>
<trkpt lat="58.871265" lon="05.872800"><ele>22</ele><time>2012-03-31T15:02:00Z</time><cmt>3.7 kmh</cmt></trkpt>
<trkpt lat="58.871271" lon="05.872787"><ele>22</ele><time>2012-03-31T15:02:01Z</time><cmt>3.8 kmh</cmt></trkpt>
<trkpt lat="58.871277" lon="05.872775"><ele>22</ele><time>2012-03-31T15:02:02Z</time><cmt>3.0 kmh</cmt></trkpt>
<trkpt lat="58.871282" lon="05.872762"><ele>22</ele><time>2012-03-31T15:02:03Z</time><cmt>3.0 kmh</cmt></trkpt>
<trkpt lat="58.871288" lon="05.872750"><ele>22</ele><time>2012-03-31T15:02:04Z</time><cmt>3.7 kmh</cmt></trkpt>
<trkpt lat="58.871295" lon="05.872738"><ele>22</ele><time>2012-03-31T15:02:05Z</time><cmt>3.8 kmh</cmt></trkpt>
<trkpt lat="58.871302" lon="05.872724"><ele>22</ele><time>2012-03-31T15:02:06Z</time><cmt>4.1 kmh</cmt></trkpt>
<trkpt lat="58.871310" lon="05.872710"><ele>22</ele><time>2012-03-31T15:02:07Z</time><cmt>4.5 kmh</cmt></trkpt>
<trkpt lat="58.871317" lon="05.872696"><ele>22</ele><time>2012-03-31T15:02:08Z</time><cmt>3.7 kmh</cmt></trkpt>
<trkpt lat="58.871325" lon="05.872683"><ele>22</ele><time>2012-03-31T15:02:09Z</time><cmt>3.6 kmh</cmt></trkpt>
<trkpt lat="58.871333" lon="05.872668"><ele>22</ele><time>2012-03-31T15:02:10Z</time><cmt>4.5 kmh</cmt></trkpt>
<trkpt lat="58.871341" lon="05.872654"><ele>22</ele><time>2012-03-31T15:02:11Z</time><cmt>4.6 kmh</cmt></trkpt>
<trkpt lat="58.871348" lon="05.872640"><ele>22</ele><time>2012-03-31T15:02:12Z</time><cmt>4.6 kmh</cmt></trkpt>
<trkpt lat="58.871356" lon="05.872626"><ele>22</ele><time>2012-03-31T15:02:13Z</time><cmt>4.6 kmh</cmt></trkpt>
<trkpt lat="58.871364" lon="05.872613"><ele>22</ele><time>2012-03-31T15:02:14Z</time><cmt>3.7 kmh</cmt></trkpt>
<trkpt lat="58.871372" lon="05.872599"><ele>22</ele><time>2012-03-31T15:02:15Z</time><cmt>3.7 kmh</cmt></trkpt>
<trkpt lat="58.871380" lon="05.872585"><ele>22</ele><time>2012-03-31T15:02:16Z</time><cmt>4.6 kmh</cmt></trkpt>
<trkpt lat="58.871388" lon="05.872572"><ele>22</ele><time>2012-03-31T15:02:17Z</time><cmt>4.5 kmh</cmt></trkpt>
<trkpt lat="58.871395" lon="05.872559"><ele>22</ele><time>2012-03-31T15:02:18Z</time><cmt>4.5 kmh</cmt></trkpt>
<trkpt lat="58.871404" lon="05.872545"><ele>22</ele><time>2012-03-31T15:02:19Z</time><cmt>4.7 kmh</cmt></trkpt>
<trkpt lat="58.871413" lon="05.872531"><ele>22</ele><time>2012-03-31T15:02:20Z</time><cmt>3.9 kmh</cmt></trkpt>
<trkpt lat="58.871422" lon="05.872519"><ele>22</ele><time>2012-03-31T15:02:21Z</time><cmt>3.9 kmh</cmt></trkpt>
<trkpt lat="58.871431" lon="05.872504"><ele>22</ele><time>2012-03-31T15:02:22Z</time><cmt>5.3 kmh</cmt></trkpt>
<trkpt lat="58.871441" lon="05.872489"><ele>22</ele><time>2012-03-31T15:02:23Z</time><cmt>5.1 kmh</cmt></trkpt>
<trkpt lat="58.871451" lon="05.872474"><ele>22</ele><time>2012-03-31T15:02:24Z</time><cmt>5.1 kmh</cmt></trkpt>
<trkpt lat="58.871460" lon="05.872459"><ele>22</ele><time>2012-03-31T15:02:25Z</time><cmt>5.0 kmh</cmt></trkpt>
<trkpt lat="58.871469" lon="05.872446"><ele>22</ele><time>2012-03-31T15:02:26Z</time><cmt>5.0 kmh</cmt></trkpt>
<trkpt lat="58.871478" lon="05.872432"><ele>22</ele><time>2012-03-31T15:02:27Z</time><cmt>4.0 kmh</cmt></trkpt>
<trkpt lat="58.871487" lon="05.872417"><ele>22</ele><time>2012-03-31T15:02:28Z</time><cmt>4.0 kmh</cmt></trkpt>
<trkpt lat="58.871495" lon="05.872403"><ele>22</ele><time>2012-03-31T15:02:29Z</time><cmt>4.9 kmh</cmt></trkpt>
<trkpt lat="58.871504" lon="05.872388"><ele>22</ele><time>2012-03-31T15:02:30Z</time><cmt>4.9 kmh</cmt></trkpt>
<trkpt lat="58.871512" lon="05.872373"><ele>22</ele><time>2012-03-31T15:02:31Z</time><cmt>4.9 kmh</cmt></trkpt>
<trkpt lat="58.871521" lon="05.872358"><ele>22</ele><time>2012-03-31T15:02:32Z</time><cmt>4.9 kmh</cmt></trkpt>
<trkpt lat="58.871529" lon="05.872344"><ele>22</ele><time>2012-03-31T15:02:33Z</time><cmt>3.9 kmh</cmt></trkpt>
<trkpt lat="58.871538" lon="05.872329"><ele>22</ele><time>2012-03-31T15:02:34Z</time><cmt>3.9 kmh</cmt></trkpt>
<trkpt lat="58.871546" lon="05.872316"><ele>22</ele><time>2012-03-31T15:02:35Z</time><cmt>4.7 kmh</cmt></trkpt>
<trkpt lat="58.871554" lon="05.872300"><ele>22</ele><time>2012-03-31T15:02:36Z</time><cmt>4.8 kmh</cmt></trkpt>
<trkpt lat="58.871562" lon="05.872286"><ele>22</ele><time>2012-03-31T15:02:37Z</time><cmt>4.9 kmh</cmt></trkpt>
<trkpt lat="58.871570" lon="05.872273"><ele>22</ele><time>2012-03-31T15:02:38Z</time><cmt>4.8 kmh</cmt></trkpt>
<trkpt lat="58.871579" lon="05.872258"><ele>22</ele><time>2012-03-31T15:02:39Z</time><cmt>3.8 kmh</cmt></trkpt>
<trkpt lat="58.871587" lon="05.872245"><ele>22</ele><time>2012-03-31T15:02:40Z</time><cmt>3.8 kmh</cmt></trkpt>
<trkpt lat="58.871596" lon="05.872231"><ele>22</ele><time>2012-03-31T15:02:41Z</time><cmt>4.8 kmh</cmt></trkpt>
<trkpt lat="58.871604" lon="05.872216"><ele>22</ele><time>2012-03-31T15:02:42Z</time><cmt>4.9 kmh</cmt></trkpt>
<trkpt lat="58.871613" lon="05.872202"><ele>22</ele><time>2012-03-31T15:02:43Z</time><cmt>4.9 kmh</cmt></trkpt>
<trkpt lat="58.871621" lon="05.872188"><ele>22</ele><time>2012-03-31T15:02:44Z</time><cmt>4.9 kmh</cmt></trkpt>
<trkpt lat="58.871630" lon="05.872174"><ele>22</ele><time>2012-03-31T15:02:45Z</time><cmt>3.9 kmh</cmt></trkpt>
<trkpt lat="58.871640" lon="05.872160"><ele>22</ele><time>2012-03-31T15:02:46Z</time><cmt>5.2 kmh</cmt></trkpt>
<trkpt lat="58.871650" lon="05.872145"><ele>22</ele><time>2012-03-31T15:02:47Z</time><cmt>5.2 kmh</cmt></trkpt>
<trkpt lat="58.871659" lon="05.872130"><ele>22</ele><time>2012-03-31T15:02:48Z</time><cmt>5.0 kmh</cmt></trkpt>
<trkpt lat="58.871668" lon="05.872114"><ele>22</ele><time>2012-03-31T15:02:49Z</time><cmt>5.0 kmh</cmt></trkpt>
<trkpt lat="58.871677" lon="05.872098"><ele>22</ele><time>2012-03-31T15:02:50Z</time><cmt>5.0 kmh</cmt></trkpt>
<trkpt lat="58.871686" lon="05.872083"><ele>22</ele><time>2012-03-31T15:02:51Z</time><cmt>4.2 kmh</cmt></trkpt>
<trkpt lat="58.871695" lon="05.872067"><ele>22</ele><time>2012-03-31T15:02:52Z</time><cmt>4.1 kmh</cmt></trkpt>
<trkpt lat="58.871703" lon="05.872051"><ele>22</ele><time>2012-03-31T15:02:53Z</time><cmt>5.0 kmh</cmt></trkpt>
<trkpt lat="58.871712" lon="05.872036"><ele>22</ele><time>2012-03-31T15:02:54Z</time><cmt>5.0 kmh</cmt></trkpt>
<trkpt lat="58.871720" lon="05.872021"><ele>22</ele><time>2012-03-31T15:02:55Z</time><cmt>5.0 kmh</cmt></trkpt>
<trkpt lat="58.871729" lon="05.872006"><ele>22</ele><time>2012-03-31T15:02:56Z</time><cmt>5.0 kmh</cmt></trkpt>
<trkpt lat="58.871737" lon="05.871991"><ele>22</ele><time>2012-03-31T15:02:57Z</time><cmt>5.0 kmh</cmt></trkpt>
<trkpt lat="58.871746" lon="05.871975"><ele>22</ele><time>2012-03-31T15:02:58Z</time><cmt>4.1 kmh</cmt></trkpt>
<trkpt lat="58.871755" lon="05.871960"><ele>22</ele><time>2012-03-31T15:02:59Z</time><cmt>5.1 kmh</cmt></trkpt>
<trkpt lat="58.871763" lon="05.871945"><ele>22</ele><time>2012-03-31T15:03:00Z</time><cmt>5.1 kmh</cmt></trkpt>
<trkpt lat="58.871772" lon="05.871930"><ele>22</ele><time>2012-03-31T15:03:01Z</time><cmt>5.0 kmh</cmt></trkpt>
<trkpt lat="58.871781" lon="05.871916"><ele>22</ele><time>2012-03-31T15:03:02Z</time><cmt>5.0 kmh</cmt></trkpt>
<trkpt lat="58.871791" lon="05.871901"><ele>22</ele><time>2012-03-31T15:03:03Z</time><cmt>5.0 kmh</cmt></trkpt>
<trkpt lat="58.871800" lon="05.871886"><ele>22</ele><time>2012-03-31T15:03:04Z</time><cmt>5.0 kmh</cmt></trkpt>
<trkpt lat="58.871810" lon="05.871870"><ele>22</ele><time>2012-03-31T15:03:05Z</time><cmt>5.3 kmh</cmt></trkpt>
<trkpt lat="58.871820" lon="05.871854"><ele>22</ele><time>2012-03-31T15:03:06Z</time><cmt>5.4 kmh</cmt></trkpt>
<trkpt lat="58.871830" lon="05.871837"><ele>22</ele><time>2012-03-31T15:03:07Z</time><cmt>5.4 kmh</cmt></trkpt>
<trkpt lat="58.871840" lon="05.871821"><ele>22</ele><time>2012-03-31T15:03:08Z</time><cmt>5.1 kmh</cmt></trkpt>
<trkpt lat="58.871849" lon="05.871804"><ele>22</ele><time>2012-03-31T15:03:09Z</time><cmt>5.1 kmh</cmt></trkpt>
<trkpt lat="58.871858" lon="05.871789"><ele>22</ele><time>2012-03-31T15:03:10Z</time><cmt>5.0 kmh</cmt></trkpt>
<trkpt lat="58.871868" lon="05.871774"><ele>22</ele><time>2012-03-31T15:03:11Z</time><cmt>5.0 kmh</cmt></trkpt>
<trkpt lat="58.871877" lon="05.871758"><ele>22</ele><time>2012-03-31T15:03:12Z</time><cmt>5.0 kmh</cmt></trkpt>
<trkpt lat="58.871886" lon="05.871741"><ele>22</ele><time>2012-03-31T15:03:13Z</time><cmt>5.1 kmh</cmt></trkpt>
<trkpt lat="58.871895" lon="05.871726"><ele>22</ele><time>2012-03-31T15:03:14Z</time><cmt>5.1 kmh</cmt></trkpt>
<trkpt lat="58.871904" lon="05.871712"><ele>22</ele><time>2012-03-31T15:03:15Z</time><cmt>5.0 kmh</cmt></trkpt>
<trkpt lat="58.871913" lon="05.871697"><ele>22</ele><time>2012-03-31T15:03:16Z</time><cmt>4.1 kmh</cmt></trkpt>
<trkpt lat="58.871922" lon="05.871684"><ele>22</ele><time>2012-03-31T15:03:17Z</time><cmt>4.0 kmh</cmt></trkpt>
<trkpt lat="58.871931" lon="05.871671"><ele>22</ele><time>2012-03-31T15:03:18Z</time><cmt>4.8 kmh</cmt></trkpt>
<trkpt lat="58.871939" lon="05.871657"><ele>22</ele><time>2012-03-31T15:03:19Z</time><cmt>4.7 kmh</cmt></trkpt>
<trkpt lat="58.871947" lon="05.871641"><ele>22</ele><time>2012-03-31T15:03:20Z</time><cmt>4.8 kmh</cmt></trkpt>
<trkpt lat="58.871954" lon="05.871625"><ele>22</ele><time>2012-03-31T15:03:21Z</time><cmt>4.8 kmh</cmt></trkpt>
<trkpt lat="58.871960" lon="05.871609"><ele>22</ele><time>2012-03-31T15:03:22Z</time><cmt>3.7 kmh</cmt></trkpt>
<trkpt lat="58.871966" lon="05.871591"><ele>22</ele><time>2012-03-31T15:03:23Z</time><cmt>3.7 kmh</cmt></trkpt>
<trkpt lat="58.871973" lon="05.871574"><ele>22</ele><time>2012-03-31T15:03:24Z</time><cmt>4.7 kmh</cmt></trkpt>
<trkpt lat="58.871980" lon="05.871556"><ele>22</ele><time>2012-03-31T15:03:25Z</time><cmt>4.9 kmh</cmt></trkpt>
<trkpt lat="58.871987" lon="05.871540"><ele>22</ele><time>2012-03-31T15:03:26Z</time><cmt>4.9 kmh</cmt></trkpt>
<trkpt lat="58.871995" lon="05.871524"><ele>22</ele><time>2012-03-31T15:03:27Z</time><cmt>4.9 kmh</cmt></trkpt>
<trkpt lat="58.872003" lon="05.871508"><ele>22</ele><time>2012-03-31T15:03:28Z</time><cmt>4.9 kmh</cmt></trkpt>
<trkpt lat="58.872010" lon="05.871492"><ele>22</ele><time>2012-03-31T15:03:29Z</time><cmt>3.8 kmh</cmt></trkpt>
<trkpt lat="58.872017" lon="05.871478"><ele>22</ele><time>2012-03-31T15:03:30Z</time><cmt>3.6 kmh</cmt></trkpt>
<trkpt lat="58.872024" lon="05.871463"><ele>22</ele><time>2012-03-31T15:03:31Z</time><cmt>4.4 kmh</cmt></trkpt>
<trkpt lat="58.872031" lon="05.871447"><ele>22</ele><time>2012-03-31T15:03:32Z</time><cmt>4.6 kmh</cmt></trkpt>
<trkpt lat="58.872038" lon="05.871432"><ele>22</ele><time>2012-03-31T15:03:33Z</time><cmt>4.7 kmh</cmt></trkpt>
<trkpt lat="58.872046" lon="05.871416"><ele>22</ele><time>2012-03-31T15:03:34Z</time><cmt>4.8 kmh</cmt></trkpt>
<trkpt lat="58.872054" lon="05.871401"><ele>22</ele><time>2012-03-31T15:03:35Z</time><cmt>3.9 kmh</cmt></trkpt>
<trkpt lat="58.872062" lon="05.871387"><ele>22</ele><time>2012-03-31T15:03:36Z</time><cmt>3.8 kmh</cmt></trkpt>
<trkpt lat="58.872070" lon="05.871372"><ele>22</ele><time>2012-03-31T15:03:37Z</time><cmt>4.6 kmh</cmt></trkpt>
<trkpt lat="58.872077" lon="05.871357"><ele>22</ele><time>2012-03-31T15:03:38Z</time><cmt>4.7 kmh</cmt></trkpt>
<trkpt lat="58.872083" lon="05.871342"><ele>22</ele><time>2012-03-31T15:03:39Z</time><cmt>4.5 kmh</cmt></trkpt>
<trkpt lat="58.872090" lon="05.871327"><ele>22</ele><time>2012-03-31T15:03:40Z</time><cmt>4.4 kmh</cmt></trkpt>
<trkpt lat="58.872098" lon="05.871314"><ele>22</ele><time>2012-03-31T15:03:41Z</time><cmt>3.5 kmh</cmt></trkpt>
<trkpt lat="58.872106" lon="05.871298"><ele>22</ele><time>2012-03-31T15:03:42Z</time><cmt>5.0 kmh</cmt></trkpt>
<trkpt lat="58.872114" lon="05.871281"><ele>22</ele><time>2012-03-31T15:03:43Z</time><cmt>5.0 kmh</cmt></trkpt>
<trkpt lat="58.872121" lon="05.871266"><ele>22</ele><time>2012-03-31T15:03:44Z</time><cmt>4.9 kmh</cmt></trkpt>
<trkpt lat="58.872129" lon="05.871252"><ele>22</ele><time>2012-03-31T15:03:45Z</time><cmt>4.6 kmh</cmt></trkpt>
<trkpt lat="58.872137" lon="05.871239"><ele>22</ele><time>2012-03-31T15:03:46Z</time><cmt>4.6 kmh</cmt></trkpt>
<trkpt lat="58.872145" lon="05.871225"><ele>22</ele><time>2012-03-31T15:03:47Z</time><cmt>3.7 kmh</cmt></trkpt>
<trkpt lat="58.872153" lon="05.871211"><ele>22</ele><time>2012-03-31T15:03:48Z</time><cmt>3.7 kmh</cmt></trkpt>
<trkpt lat="58.872161" lon="05.871198"><ele>22</ele><time>2012-03-31T15:03:49Z</time><cmt>4.6 kmh</cmt></trkpt>
<trkpt lat="58.872169" lon="05.871184"><ele>22</ele><time>2012-03-31T15:03:50Z</time><cmt>4.6 kmh</cmt></trkpt>
<trkpt lat="58.872178" lon="05.871171"><ele>22</ele><time>2012-03-31T15:03:51Z</time><cmt>4.7 kmh</cmt></trkpt>
<trkpt lat="58.872187" lon="05.871157"><ele>22</ele><time>2012-03-31T15:03:52Z</time><cmt>4.9 kmh</cmt></trkpt>
<trkpt lat="58.872196" lon="05.871144"><ele>22</ele><time>2012-03-31T15:03:53Z</time><cmt>4.0 kmh</cmt></trkpt>
<trkpt lat="58.872205" lon="05.871133"><ele>22</ele><time>2012-03-31T15:03:54Z</time><cmt>3.8 kmh</cmt></trkpt>
<trkpt lat="58.872213" lon="05.871122"><ele>22</ele><time>2012-03-31T15:03:55Z</time><cmt>4.4 kmh</cmt></trkpt>
<trkpt lat="58.872222" lon="05.871109"><ele>22</ele><time>2012-03-31T15:03:56Z</time><cmt>4.6 kmh</cmt></trkpt>
<trkpt lat="58.872232" lon="05.871095"><ele>22</ele><time>2012-03-31T15:03:57Z</time><cmt>5.1 kmh</cmt></trkpt>
<trkpt lat="58.872241" lon="05.871082"><ele>23</ele><time>2012-03-31T15:03:58Z</time><cmt>5.1 kmh</cmt></trkpt>
<trkpt lat="58.872251" lon="05.871068"><ele>23</ele><time>2012-03-31T15:03:59Z</time><cmt>5.4 kmh</cmt></trkpt>
<trkpt lat="58.872261" lon="05.871053"><ele>23</ele><time>2012-03-31T15:04:00Z</time><cmt>5.2 kmh</cmt></trkpt>
<trkpt lat="58.872271" lon="05.871038"><ele>23</ele><time>2012-03-31T15:04:01Z</time><cmt>5.2 kmh</cmt></trkpt>
<trkpt lat="58.872280" lon="05.871022"><ele>23</ele><time>2012-03-31T15:04:02Z</time><cmt>5.0 kmh</cmt></trkpt>
<trkpt lat="58.872290" lon="05.871006"><ele>23</ele><time>2012-03-31T15:04:03Z</time><cmt>5.0 kmh</cmt></trkpt>
<trkpt lat="58.872299" lon="05.870990"><ele>23</ele><time>2012-03-31T15:04:04Z</time><cmt>5.0 kmh</cmt></trkpt>
<trkpt lat="58.872308" lon="05.870974"><ele>23</ele><time>2012-03-31T15:04:05Z</time><cmt>5.2 kmh</cmt></trkpt>
<trkpt lat="58.872318" lon="05.870958"><ele>23</ele><time>2012-03-31T15:04:06Z</time><cmt>5.1 kmh</cmt></trkpt>
<trkpt lat="58.872328" lon="05.870942"><ele>23</ele><time>2012-03-31T15:04:07Z</time><cmt>5.1 kmh</cmt></trkpt>
<trkpt lat="58.872337" lon="05.870925"><ele>23</ele><time>2012-03-31T15:04:08Z</time><cmt>5.0 kmh</cmt></trkpt>
<trkpt lat="58.872346" lon="05.870909"><ele>23</ele><time>2012-03-31T15:04:09Z</time><cmt>5.0 kmh</cmt></trkpt>
<trkpt lat="58.872355" lon="05.870893"><ele>23</ele><time>2012-03-31T15:04:10Z</time><cmt>5.2 kmh</cmt></trkpt>
<trkpt lat="58.872364" lon="05.870876"><ele>23</ele><time>2012-03-31T15:04:11Z</time><cmt>5.0 kmh</cmt></trkpt>
<trkpt lat="58.872373" lon="05.870860"><ele>23</ele><time>2012-03-31T15:04:12Z</time><cmt>5.1 kmh</cmt></trkpt>
<trkpt lat="58.872382" lon="05.870844"><ele>23</ele><time>2012-03-31T15:04:13Z</time><cmt>5.1 kmh</cmt></trkpt>
<trkpt lat="58.872391" lon="05.870827"><ele>23</ele><time>2012-03-31T15:04:14Z</time><cmt>5.0 kmh</cmt></trkpt>
<trkpt lat="58.872399" lon="05.870812"><ele>23</ele><time>2012-03-31T15:04:15Z</time><cmt>5.0 kmh</cmt></trkpt>
<trkpt lat="58.872408" lon="05.870798"><ele>23</ele><time>2012-03-31T15:04:16Z</time><cmt>4.9 kmh</cmt></trkpt>
<trkpt lat="58.872417" lon="05.870784"><ele>23</ele><time>2012-03-31T15:04:17Z</time><cmt>4.8 kmh</cmt></trkpt>
<trkpt lat="58.872426" lon="05.870770"><ele>23</ele><time>2012-03-31T15:04:18Z</time><cmt>5.0 kmh</cmt></trkpt>
<trkpt lat="58.872436" lon="05.870756"><ele>23</ele><time>2012-03-31T15:04:19Z</time><cmt>5.0 kmh</cmt></trkpt>
<trkpt lat="58.872446" lon="05.870741"><ele>23</ele><time>2012-03-31T15:04:20Z</time><cmt>5.0 kmh</cmt></trkpt>
<trkpt lat="58.872455" lon="05.870726"><ele>23</ele><time>2012-03-31T15:04:21Z</time><cmt>5.1 kmh</cmt></trkpt>
<trkpt lat="58.872465" lon="05.870711"><ele>23</ele><time>2012-03-31T15:04:22Z</time><cmt>5.2 kmh</cmt></trkpt>
<trkpt lat="58.872474" lon="05.870696"><ele>23</ele><time>2012-03-31T15:04:23Z</time><cmt>5.0 kmh</cmt></trkpt>
<trkpt lat="58.872484" lon="05.870681"><ele>23</ele><time>2012-03-31T15:04:24Z</time><cmt>5.0 kmh</cmt></trkpt>
<trkpt lat="58.872494" lon="05.870666"><ele>23</ele><time>2012-03-31T15:04:25Z</time><cmt>5.5 kmh</cmt></trkpt>
<trkpt lat="58.872503" lon="05.870649"><ele>23</ele><time>2012-03-31T15:04:26Z</time><cmt>5.5 kmh</cmt></trkpt>
<trkpt lat="58.872511" lon="05.870634"><ele>23</ele><time>2012-03-31T15:04:27Z</time><cmt>5.0 kmh</cmt></trkpt>
<trkpt lat="58.872519" lon="05.870620"><ele>23</ele><time>2012-03-31T15:04:28Z</time><cmt>4.8 kmh</cmt></trkpt>
<trkpt lat="58.872527" lon="05.870606"><ele>23</ele><time>2012-03-31T15:04:29Z</time><cmt>4.6 kmh</cmt></trkpt>
<trkpt lat="58.872534" lon="05.870592"><ele>23</ele><time>2012-03-31T15:04:30Z</time><cmt>4.5 kmh</cmt></trkpt>
<trkpt lat="58.872542" lon="05.870578"><ele>23</ele><time>2012-03-31T15:04:31Z</time><cmt>3.6 kmh</cmt></trkpt>
<trkpt lat="58.872550" lon="05.870564"><ele>23</ele><time>2012-03-31T15:04:32Z</time><cmt>3.8 kmh</cmt></trkpt>
<trkpt lat="58.872559" lon="05.870548"><ele>23</ele><time>2012-03-31T15:04:33Z</time><cmt>4.9 kmh</cmt></trkpt>
<trkpt lat="58.872567" lon="05.870532"><ele>23</ele><time>2012-03-31T15:04:34Z</time><cmt>5.0 kmh</cmt></trkpt>
<trkpt lat="58.872575" lon="05.870516"><ele>23</ele><time>2012-03-31T15:04:35Z</time><cmt>5.0 kmh</cmt></trkpt>
<trkpt lat="58.872583" lon="05.870499"><ele>23</ele><time>2012-03-31T15:04:36Z</time><cmt>5.0 kmh</cmt></trkpt>
<trkpt lat="58.872590" lon="05.870484"><ele>23</ele><time>2012-03-31T15:04:37Z</time><cmt>3.9 kmh</cmt></trkpt>
<trkpt lat="58.872597" lon="05.870469"><ele>23</ele><time>2012-03-31T15:04:38Z</time><cmt>3.7 kmh</cmt></trkpt>
<trkpt lat="58.872604" lon="05.870453"><ele>23</ele><time>2012-03-31T15:04:39Z</time><cmt>4.6 kmh</cmt></trkpt>
<trkpt lat="58.872612" lon="05.870439"><ele>23</ele><time>2012-03-31T15:04:40Z</time><cmt>4.7 kmh</cmt></trkpt>
<trkpt lat="58.872619" lon="05.870425"><ele>23</ele><time>2012-03-31T15:04:41Z</time><cmt>4.5 kmh</cmt></trkpt>
<trkpt lat="58.872626" lon="05.870413"><ele>23</ele><time>2012-03-31T15:04:42Z</time><cmt>4.2 kmh</cmt></trkpt>
<trkpt lat="58.872633" lon="05.870400"><ele>23</ele><time>2012-03-31T15:04:43Z</time><cmt>3.3 kmh</cmt></trkpt>
<trkpt lat="58.872640" lon="05.870388"><ele>23</ele><time>2012-03-31T15:04:44Z</time><cmt>3.4 kmh</cmt></trkpt>
<trkpt lat="58.872648" lon="05.870375"><ele>23</ele><time>2012-03-31T15:04:45Z</time><cmt>4.3 kmh</cmt></trkpt>
<trkpt lat="58.872656" lon="05.870362"><ele>23</ele><time>2012-03-31T15:04:46Z</time><cmt>4.4 kmh</cmt></trkpt>
<trkpt lat="58.872664" lon="05.870349"><ele>23</ele><time>2012-03-31T15:04:47Z</time><cmt>4.5 kmh</cmt></trkpt>
<trkpt lat="58.872672" lon="05.870335"><ele>23</ele><time>2012-03-31T15:04:48Z</time><cmt>4.5 kmh</cmt></trkpt>
<trkpt lat="58.872680" lon="05.870321"><ele>23</ele><time>2012-03-31T15:04:49Z</time><cmt>3.7 kmh</cmt></trkpt>
<trkpt lat="58.872688" lon="05.870307"><ele>23</ele><time>2012-03-31T15:04:50Z</time><cmt>3.7 kmh</cmt></trkpt>
<trkpt lat="58.872696" lon="05.870292"><ele>23</ele><time>2012-03-31T15:04:51Z</time><cmt>4.8 kmh</cmt></trkpt>
<trkpt lat="58.872703" lon="05.870279"><ele>23</ele><time>2012-03-31T15:04:52Z</time><cmt>4.6 kmh</cmt></trkpt>
<trkpt lat="58.872710" lon="05.870267"><ele>23</ele><time>2012-03-31T15:04:53Z</time><cmt>4.2 kmh</cmt></trkpt>
<trkpt lat="58.872717" lon="05.870255"><ele>23</ele><time>2012-03-31T15:04:54Z</time><cmt>4.0 kmh</cmt></trkpt>
<trkpt lat="58.872723" lon="05.870243"><ele>23</ele><time>2012-03-31T15:04:55Z</time><cmt>3.1 kmh</cmt></trkpt>
<trkpt lat="58.872730" lon="05.870230"><ele>23</ele><time>2012-03-31T15:04:56Z</time><cmt>3.2 kmh</cmt></trkpt>
<trkpt lat="58.872738" lon="05.870215"><ele>23</ele><time>2012-03-31T15:04:57Z</time><cmt>4.4 kmh</cmt></trkpt>
<trkpt lat="58.872745" lon="05.870200"><ele>23</ele><time>2012-03-31T15:04:58Z</time><cmt>4.6 kmh</cmt></trkpt>
<trkpt lat="58.872752" lon="05.870186"><ele>23</ele><time>2012-03-31T15:04:59Z</time><cmt>4.6 kmh</cmt></trkpt>
<trkpt lat="58.872760" lon="05.870172"><ele>23</ele><time>2012-03-31T15:05:00Z</time><cmt>4.6 kmh</cmt></trkpt>
<trkpt lat="58.872769" lon="05.870157"><ele>23</ele><time>2012-03-31T15:05:01Z</time><cmt>3.8 kmh</cmt></trkpt>
<trkpt lat="58.872777" lon="05.870143"><ele>23</ele><time>2012-03-31T15:05:02Z</time><cmt>3.9 kmh</cmt></trkpt>
<trkpt lat="58.872785" lon="05.870127"><ele>23</ele><time>2012-03-31T15:05:03Z</time><cmt>4.8 kmh</cmt></trkpt>
<trkpt lat="58.872792" lon="05.870112"><ele>23</ele><time>2012-03-31T15:05:04Z</time><cmt>4.7 kmh</cmt></trkpt>
<trkpt lat="58.872799" lon="05.870096"><ele>23</ele><time>2012-03-31T15:05:05Z</time><cmt>4.7 kmh</cmt></trkpt>
<trkpt lat="58.872807" lon="05.870081"><ele>24</ele><time>2012-03-31T15:05:06Z</time><cmt>4.7 kmh</cmt></trkpt>
<trkpt lat="58.872814" lon="05.870066"><ele>24</ele><time>2012-03-31T15:05:07Z</time><cmt>4.7 kmh</cmt></trkpt>
<trkpt lat="58.872822" lon="05.870051"><ele>24</ele><time>2012-03-31T15:05:08Z</time><cmt>3.7 kmh</cmt></trkpt>
<trkpt lat="58.872830" lon="05.870036"><ele>24</ele><time>2012-03-31T15:05:09Z</time><cmt>3.8 kmh</cmt></trkpt>
<trkpt lat="58.872838" lon="05.870020"><ele>24</ele><time>2012-03-31T15:05:10Z</time><cmt>4.8 kmh</cmt></trkpt>
<trkpt lat="58.872845" lon="05.870004"><ele>24</ele><time>2012-03-31T15:05:11Z</time><cmt>4.8 kmh</cmt></trkpt>
<trkpt lat="58.872853" lon="05.869989"><ele>24</ele><time>2012-03-31T15:05:12Z</time><cmt>4.8 kmh</cmt></trkpt>
<trkpt lat="58.872861" lon="05.869974"><ele>24</ele><time>2012-03-31T15:05:13Z</time><cmt>4.8 kmh</cmt></trkpt>
<trkpt lat="58.872869" lon="05.869958"><ele>24</ele><time>2012-03-31T15:05:14Z</time><cmt>3.9 kmh</cmt></trkpt>
<trkpt lat="58.872876" lon="05.869942"><ele>24</ele><time>2012-03-31T15:05:15Z</time><cmt>4.0 kmh</cmt></trkpt>
<trkpt lat="58.872884" lon="05.869925"><ele>24</ele><time>2012-03-31T15:05:16Z</time><cmt>5.4 kmh</cmt></trkpt>
<trkpt lat="58.872892" lon="05.869907"><ele>24</ele><time>2012-03-31T15:05:17Z</time><cmt>5.4 kmh</cmt></trkpt>
<trkpt lat="58.872900" lon="05.869889"><ele>24</ele><time>2012-03-31T15:05:18Z</time><cmt>5.0 kmh</cmt></trkpt>
<trkpt lat="58.872907" lon="05.869871"><ele>24</ele><time>2012-03-31T15:05:19Z</time><cmt>5.0 kmh</cmt></trkpt>
<trkpt lat="58.872915" lon="05.869853"><ele>24</ele><time>2012-03-31T15:05:20Z</time><cmt>4.2 kmh</cmt></trkpt>
<trkpt lat="58.872923" lon="05.869834"><ele>24</ele><time>2012-03-31T15:05:21Z</time><cmt>5.0 kmh</cmt></trkpt>
<trkpt lat="58.872932" lon="05.869815"><ele>24</ele><time>2012-03-31T15:05:22Z</time><cmt>5.3 kmh</cmt></trkpt>
<trkpt lat="58.872941" lon="05.869796"><ele>24</ele><time>2012-03-31T15:05:23Z</time><cmt>5.1 kmh</cmt></trkpt>
<trkpt lat="58.872949" lon="05.869777"><ele>24</ele><time>2012-03-31T15:05:24Z</time><cmt>5.4 kmh</cmt></trkpt>
<trkpt lat="58.872958" lon="05.869758"><ele>24</ele><time>2012-03-31T15:05:25Z</time><cmt>5.4 kmh</cmt></trkpt>
<trkpt lat="58.872966" lon="05.869740"><ele>24</ele><time>2012-03-31T15:05:26Z</time><cmt>4.4 kmh</cmt></trkpt>
<trkpt lat="58.872973" lon="05.869723"><ele>24</ele><time>2012-03-31T15:05:27Z</time><cmt>4.1 kmh</cmt></trkpt>
<trkpt lat="58.872981" lon="05.869706"><ele>24</ele><time>2012-03-31T15:05:28Z</time><cmt>5.0 kmh</cmt></trkpt>
<trkpt lat="58.872988" lon="05.869688"><ele>24</ele><time>2012-03-31T15:05:29Z</time><cmt>5.0 kmh</cmt></trkpt>
<trkpt lat="58.872995" lon="05.869670"><ele>24</ele><time>2012-03-31T15:05:30Z</time><cmt>5.0 kmh</cmt></trkpt>
<trkpt lat="58.873003" lon="05.869653"><ele>24</ele><time>2012-03-31T15:05:31Z</time><cmt>5.0 kmh</cmt></trkpt>
<trkpt lat="58.873011" lon="05.869636"><ele>24</ele><time>2012-03-31T15:05:32Z</time><cmt>4.1 kmh</cmt></trkpt>
<trkpt lat="58.873019" lon="05.869621"><ele>24</ele><time>2012-03-31T15:05:33Z</time><cmt>3.9 kmh</cmt></trkpt>
<trkpt lat="58.873026" lon="05.869606"><ele>24</ele><time>2012-03-31T15:05:34Z</time><cmt>4.6 kmh</cmt></trkpt>
<trkpt lat="58.873032" lon="05.869592"><ele>24</ele><time>2012-03-31T15:05:35Z</time><cmt>4.4 kmh</cmt></trkpt>
<trkpt lat="58.873039" lon="05.869579"><ele>24</ele><time>2012-03-31T15:05:36Z</time><cmt>4.3 kmh</cmt></trkpt>
<trkpt lat="58.873046" lon="05.869564"><ele>24</ele><time>2012-03-31T15:05:37Z</time><cmt>4.2 kmh</cmt></trkpt>
<trkpt lat="58.873053" lon="05.869549"><ele>24</ele><time>2012-03-31T15:05:38Z</time><cmt>4.5 kmh</cmt></trkpt>
<trkpt lat="58.873061" lon="05.869533"><ele>24</ele><time>2012-03-31T15:05:39Z</time><cmt>3.8 kmh</cmt></trkpt>
<trkpt lat="58.873069" lon="05.869516"><ele>24</ele><time>2012-03-31T15:05:40Z</time><cmt>4.0 kmh</cmt></trkpt>
<trkpt lat="58.873078" lon="05.869500"><ele>24</ele><time>2012-03-31T15:05:41Z</time><cmt>5.1 kmh</cmt></trkpt>
<trkpt lat="58.873087" lon="05.869483"><ele>24</ele><time>2012-03-31T15:05:42Z</time><cmt>5.2 kmh</cmt></trkpt>
<trkpt lat="58.873096" lon="05.869465"><ele>24</ele><time>2012-03-31T15:05:43Z</time><cmt>5.2 kmh</cmt></trkpt>
<trkpt lat="58.873104" lon="05.869449"><ele>24</ele><time>2012-03-31T15:05:44Z</time><cmt>5.0 kmh</cmt></trkpt>
<trkpt lat="58.873112" lon="05.869434"><ele>24</ele><time>2012-03-31T15:05:45Z</time><cmt>3.9 kmh</cmt></trkpt>
<trkpt lat="58.873119" lon="05.869420"><ele>24</ele><time>2012-03-31T15:05:46Z</time><cmt>3.7 kmh</cmt></trkpt>
<trkpt lat="58.873127" lon="05.869405"><ele>24</ele><time>2012-03-31T15:05:47Z</time><cmt>4.6 kmh</cmt></trkpt>
<trkpt lat="58.873135" lon="05.869389"><ele>24</ele><time>2012-03-31T15:05:48Z</time><cmt>4.8 kmh</cmt></trkpt>
<trkpt lat="58.873143" lon="05.869373"><ele>24</ele><time>2012-03-31T15:05:49Z</time><cmt>4.9 kmh</cmt></trkpt>
<trkpt lat="58.873150" lon="05.869356"><ele>24</ele><time>2012-03-31T15:05:50Z</time><cmt>5.0 kmh</cmt></trkpt>
<trkpt lat="58.873159" lon="05.869339"><ele>24</ele><time>2012-03-31T15:05:51Z</time><cmt>5.3 kmh</cmt></trkpt>
<trkpt lat="58.873167" lon="05.869321"><ele>24</ele><time>2012-03-31T15:05:52Z</time><cmt>5.1 kmh</cmt></trkpt>
<trkpt lat="58.873175" lon="05.869303"><ele>24</ele><time>2012-03-31T15:05:53Z</time><cmt>5.3 kmh</cmt></trkpt>
<trkpt lat="58.873184" lon="05.869283"><ele>24</ele><time>2012-03-31T15:05:54Z</time><cmt>5.3 kmh</cmt></trkpt>
<trkpt lat="58.873192" lon="05.869264"><ele>24</ele><time>2012-03-31T15:05:55Z</time><cmt>5.3 kmh</cmt></trkpt>
<trkpt lat="58.873200" lon="05.869247"><ele>24</ele><time>2012-03-31T15:05:56Z</time><cmt>5.0 kmh</cmt></trkpt>
<trkpt lat="58.873208" lon="05.869229"><ele>24</ele><time>2012-03-31T15:05:57Z</time><cmt>4.1 kmh</cmt></trkpt>
<trkpt lat="58.873215" lon="05.869212"><ele>24</ele><time>2012-03-31T15:05:58Z</time><cmt>4.1 kmh</cmt></trkpt>
<trkpt lat="58.873222" lon="05.869193"><ele>24</ele><time>2012-03-31T15:05:59Z</time><cmt>5.0 kmh</cmt></trkpt>
<trkpt lat="58.873230" lon="05.869174"><ele>24</ele><time>2012-03-31T15:06:00Z</time><cmt>5.0 kmh</cmt></trkpt>
<trkpt lat="58.873237" lon="05.869156"><ele>24</ele><time>2012-03-31T15:06:01Z</time><cmt>5.0 kmh</cmt></trkpt>
<trkpt lat="58.873244" lon="05.869137"><ele>25</ele><time>2012-03-31T15:06:02Z</time><cmt>5.0 kmh</cmt></trkpt>
<trkpt lat="58.873251" lon="05.869118"><ele>25</ele><time>2012-03-31T15:06:03Z</time><cmt>4.2 kmh</cmt></trkpt>
<trkpt lat="58.873258" lon="05.869099"><ele>25</ele><time>2012-03-31T15:06:04Z</time><cmt>4.2 kmh</cmt></trkpt>
<trkpt lat="58.873266" lon="05.869082"><ele>25</ele><time>2012-03-31T15:06:05Z</time><cmt>5.0 kmh</cmt></trkpt>
<trkpt lat="58.873273" lon="05.869067"><ele>25</ele><time>2012-03-31T15:06:06Z</time><cmt>4.8 kmh</cmt></trkpt>
<trkpt lat="58.873280" lon="05.869050"><ele>25</ele><time>2012-03-31T15:06:07Z</time><cmt>4.7 kmh</cmt></trkpt>
<trkpt lat="58.873285" lon="05.869032"><ele>25</ele><time>2012-03-31T15:06:08Z</time><cmt>4.7 kmh</cmt></trkpt>
<trkpt lat="58.873290" lon="05.869014"><ele>25</ele><time>2012-03-31T15:06:09Z</time><cmt>4.6 kmh</cmt></trkpt>
<trkpt lat="58.873295" lon="05.868996"><ele>25</ele><time>2012-03-31T15:06:10Z</time><cmt>3.6 kmh</cmt></trkpt>
<trkpt lat="58.873300" lon="05.868978"><ele>25</ele><time>2012-03-31T15:06:11Z</time><cmt>3.6 kmh</cmt></trkpt>
<trkpt lat="58.873304" lon="05.868960"><ele>25</ele><time>2012-03-31T15:06:12Z</time><cmt>4.5 kmh</cmt></trkpt>
<trkpt lat="58.873309" lon="05.868941"><ele>25</ele><time>2012-03-31T15:06:13Z</time><cmt>4.6 kmh</cmt></trkpt>
<trkpt lat="58.873314" lon="05.868922"><ele>25</ele><time>2012-03-31T15:06:14Z</time><cmt>4.6 kmh</cmt></trkpt>
<trkpt lat="58.873318" lon="05.868904"><ele>25</ele><time>2012-03-31T15:06:15Z</time><cmt>4.6 kmh</cmt></trkpt>
<trkpt lat="58.873324" lon="05.868887"><ele>25</ele><time>2012-03-31T15:06:16Z</time><cmt>3.6 kmh</cmt></trkpt>
<trkpt lat="58.873329" lon="05.868869"><ele>25</ele><time>2012-03-31T15:06:17Z</time><cmt>3.6 kmh</cmt></trkpt>
<trkpt lat="58.873334" lon="05.868852"><ele>25</ele><time>2012-03-31T15:06:18Z</time><cmt>4.4 kmh</cmt></trkpt>
<trkpt lat="58.873338" lon="05.868835"><ele>25</ele><time>2012-03-31T15:06:19Z</time><cmt>4.3 kmh</cmt></trkpt>
<trkpt lat="58.873342" lon="05.868816"><ele>25</ele><time>2012-03-31T15:06:20Z</time><cmt>4.4 kmh</cmt></trkpt>
<trkpt lat="58.873345" lon="05.868796"><ele>25</ele><time>2012-03-31T15:06:21Z</time><cmt>4.5 kmh</cmt></trkpt>
<trkpt lat="58.873349" lon="05.868777"><ele>25</ele><time>2012-03-31T15:06:22Z</time><cmt>3.7 kmh</cmt></trkpt>
<trkpt lat="58.873352" lon="05.868757"><ele>25</ele><time>2012-03-31T15:06:23Z</time><cmt>3.7 kmh</cmt></trkpt>
<trkpt lat="58.873355" lon="05.868737"><ele>25</ele><time>2012-03-31T15:06:24Z</time><cmt>4.6 kmh</cmt></trkpt>
<trkpt lat="58.873358" lon="05.868717"><ele>25</ele><time>2012-03-31T15:06:25Z</time><cmt>4.7 kmh</cmt></trkpt>
<trkpt lat="58.873361" lon="05.868696"><ele>25</ele><time>2012-03-31T15:06:26Z</time><cmt>4.8 kmh</cmt></trkpt>
<trkpt lat="58.873363" lon="05.868675"><ele>25</ele><time>2012-03-31T15:06:27Z</time><cmt>4.8 kmh</cmt></trkpt>
<trkpt lat="58.873366" lon="05.868655"><ele>25</ele><time>2012-03-31T15:06:28Z</time><cmt>3.8 kmh</cmt></trkpt>
<trkpt lat="58.873368" lon="05.868635"><ele>25</ele><time>2012-03-31T15:06:29Z</time><cmt>3.7 kmh</cmt></trkpt>
<trkpt lat="58.873369" lon="05.868614"><ele>25</ele><time>2012-03-31T15:06:30Z</time><cmt>4.6 kmh</cmt></trkpt>
<trkpt lat="58.873373" lon="05.868593"><ele>25</ele><time>2012-03-31T15:06:31Z</time><cmt>4.7 kmh</cmt></trkpt>
<trkpt lat="58.873376" lon="05.868572"><ele>25</ele><time>2012-03-31T15:06:32Z</time><cmt>4.9 kmh</cmt></trkpt>
<trkpt lat="58.873379" lon="05.868552"><ele>25</ele><time>2012-03-31T15:06:33Z</time><cmt>4.9 kmh</cmt></trkpt>
<trkpt lat="58.873382" lon="05.868531"><ele>25</ele><time>2012-03-31T15:06:34Z</time><cmt>4.8 kmh</cmt></trkpt>
<trkpt lat="58.873386" lon="05.868510"><ele>25</ele><time>2012-03-31T15:06:35Z</time><cmt>3.9 kmh</cmt></trkpt>
<trkpt lat="58.873388" lon="05.868489"><ele>25</ele><time>2012-03-31T15:06:36Z</time><cmt>3.9 kmh</cmt></trkpt>
<trkpt lat="58.873392" lon="05.868468"><ele>25</ele><time>2012-03-31T15:06:37Z</time><cmt>4.9 kmh</cmt></trkpt>
<trkpt lat="58.873396" lon="05.868447"><ele>25</ele><time>2012-03-31T15:06:38Z</time><cmt>5.0 kmh</cmt></trkpt>
<trkpt lat="58.873399" lon="05.868426"><ele>25</ele><time>2012-03-31T15:06:39Z</time><cmt>5.0 kmh</cmt></trkpt>
<trkpt lat="58.873403" lon="05.868406"><ele>25</ele><time>2012-03-31T15:06:40Z</time><cmt>4.8 kmh</cmt></trkpt>
<trkpt lat="58.873407" lon="05.868387"><ele>25</ele><time>2012-03-31T15:06:41Z</time><cmt>3.7 kmh</cmt></trkpt>
<trkpt lat="58.873412" lon="05.868370"><ele>25</ele><time>2012-03-31T15:06:42Z</time><cmt>3.6 kmh</cmt></trkpt>
<trkpt lat="58.873417" lon="05.868355"><ele>25</ele><time>2012-03-31T15:06:43Z</time><cmt>4.1 kmh</cmt></trkpt>
<trkpt lat="58.873421" lon="05.868341"><ele>25</ele><time>2012-03-31T15:06:44Z</time><cmt>3.7 kmh</cmt></trkpt>
<trkpt lat="58.873425" lon="05.868328"><ele>25</ele><time>2012-03-31T15:06:45Z</time><cmt>3.5 kmh</cmt></trkpt>
<trkpt lat="58.873429" lon="05.868315"><ele>26</ele><time>2012-03-31T15:06:46Z</time><cmt>3.5 kmh</cmt></trkpt>
<trkpt lat="58.873433" lon="05.868302"><ele>26</ele><time>2012-03-31T15:06:47Z</time><cmt>2.8 kmh</cmt></trkpt>
<trkpt lat="58.873437" lon="05.868289"><ele>26</ele><time>2012-03-31T15:06:48Z</time><cmt>2.7 kmh</cmt></trkpt>
<trkpt lat="58.873441" lon="05.868277"><ele>26</ele><time>2012-03-31T15:06:49Z</time><cmt>3.3 kmh</cmt></trkpt>
<trkpt lat="58.873445" lon="05.868263"><ele>26</ele><time>2012-03-31T15:06:50Z</time><cmt>3.3 kmh</cmt></trkpt>
<trkpt lat="58.873448" lon="05.868248"><ele>26</ele><time>2012-03-31T15:06:51Z</time><cmt>3.5 kmh</cmt></trkpt>
<trkpt lat="58.873452" lon="05.868233"><ele>26</ele><time>2012-03-31T15:06:52Z</time><cmt>3.7 kmh</cmt></trkpt>
<trkpt lat="58.873454" lon="05.868219"><ele>26</ele><time>2012-03-31T15:06:53Z</time><cmt>2.8 kmh</cmt></trkpt>
<trkpt lat="58.873456" lon="05.868204"><ele>26</ele><time>2012-03-31T15:06:54Z</time><cmt>2.8 kmh</cmt></trkpt>
<trkpt lat="58.873460" lon="05.868187"><ele>26</ele><time>2012-03-31T15:06:55Z</time><cmt>3.8 kmh</cmt></trkpt>
<trkpt lat="58.873464" lon="05.868170"><ele>26</ele><time>2012-03-31T15:06:56Z</time><cmt>4.1 kmh</cmt></trkpt>
<trkpt lat="58.873468" lon="05.868153"><ele>26</ele><time>2012-03-31T15:06:57Z</time><cmt>4.1 kmh</cmt></trkpt>
<trkpt lat="58.873472" lon="05.868136"><ele>26</ele><time>2012-03-31T15:06:58Z</time><cmt>4.1 kmh</cmt></trkpt>
<trkpt lat="58.873476" lon="05.868119"><ele>26</ele><time>2012-03-31T15:06:59Z</time><cmt>3.3 kmh</cmt></trkpt>
<trkpt lat="58.873480" lon="05.868103"><ele>26</ele><time>2012-03-31T15:07:00Z</time><cmt>3.3 kmh</cmt></trkpt>
<trkpt lat="58.873484" lon="05.868086"><ele>26</ele><time>2012-03-31T15:07:01Z</time><cmt>4.1 kmh</cmt></trkpt>
<trkpt lat="58.873488" lon="05.868071"><ele>26</ele><time>2012-03-31T15:07:02Z</time><cmt>4.0 kmh</cmt></trkpt>
<trkpt lat="58.873491" lon="05.868056"><ele>26</ele><time>2012-03-31T15:07:03Z</time><cmt>3.8 kmh</cmt></trkpt>
<trkpt lat="58.873495" lon="05.868041"><ele>26</ele><time>2012-03-31T15:07:04Z</time><cmt>3.6 kmh</cmt></trkpt>
<trkpt lat="58.873499" lon="05.868027"><ele>26</ele><time>2012-03-31T15:07:05Z</time><cmt>2.9 kmh</cmt></trkpt>
<trkpt lat="58.873503" lon="05.868013"><ele>26</ele><time>2012-03-31T15:07:06Z</time><cmt>3.0 kmh</cmt></trkpt>
<trkpt lat="58.873508" lon="05.867997"><ele>26</ele><time>2012-03-31T15:07:07Z</time><cmt>3.9 kmh</cmt></trkpt>
<trkpt lat="58.873513" lon="05.867981"><ele>26</ele><time>2012-03-31T15:07:08Z</time><cmt>4.0 kmh</cmt></trkpt>
<trkpt lat="58.873517" lon="05.867966"><ele>26</ele><time>2012-03-31T15:07:09Z</time><cmt>4.0 kmh</cmt></trkpt>
<trkpt lat="58.873522" lon="05.867951"><ele>26</ele><time>2012-03-31T15:07:10Z</time><cmt>4.0 kmh</cmt></trkpt>
<trkpt lat="58.873527" lon="05.867935"><ele>26</ele><time>2012-03-31T15:07:11Z</time><cmt>4.0 kmh</cmt></trkpt>
<trkpt lat="58.873532" lon="05.867920"><ele>26</ele><time>2012-03-31T15:07:12Z</time><cmt>3.2 kmh</cmt></trkpt>
<trkpt lat="58.873537" lon="05.867904"><ele>26</ele><time>2012-03-31T15:07:13Z</time><cmt>3.3 kmh</cmt></trkpt>
<trkpt lat="58.873541" lon="05.867887"><ele>26</ele><time>2012-03-31T15:07:14Z</time><cmt>4.1 kmh</cmt></trkpt>
<trkpt lat="58.873545" lon="05.867871"><ele>26</ele><time>2012-03-31T15:07:15Z</time><cmt>4.1 kmh</cmt></trkpt>
<trkpt lat="58.873549" lon="05.867854"><ele>26</ele><time>2012-03-31T15:07:16Z</time><cmt>4.1 kmh</cmt></trkpt>
<trkpt lat="58.873553" lon="05.867837"><ele>26</ele><time>2012-03-31T15:07:17Z</time><cmt>4.1 kmh</cmt></trkpt>
<trkpt lat="58.873556" lon="05.867819"><ele>26</ele><time>2012-03-31T15:07:18Z</time><cmt>3.3 kmh</cmt></trkpt>
<trkpt lat="58.873560" lon="05.867800"><ele>26</ele><time>2012-03-31T15:07:19Z</time><cmt>3.5 kmh</cmt></trkpt>
<trkpt lat="58.873564" lon="05.867781"><ele>26</ele><time>2012-03-31T15:07:20Z</time><cmt>4.6 kmh</cmt></trkpt>
<trkpt lat="58.873568" lon="05.867763"><ele>26</ele><time>2012-03-31T15:07:21Z</time><cmt>4.5 kmh</cmt></trkpt>
<trkpt lat="58.873572" lon="05.867746"><ele>26</ele><time>2012-03-31T15:07:22Z</time><cmt>4.3 kmh</cmt></trkpt>
<trkpt lat="58.873576" lon="05.867730"><ele>26</ele><time>2012-03-31T15:07:23Z</time><cmt>4.1 kmh</cmt></trkpt>
<trkpt lat="58.873579" lon="05.867715"><ele>26</ele><time>2012-03-31T15:07:24Z</time><cmt>3.0 kmh</cmt></trkpt>
<trkpt lat="58.873582" lon="05.867700"><ele>26</ele><time>2012-03-31T15:07:25Z</time><cmt>2.9 kmh</cmt></trkpt>
<trkpt lat="58.873585" lon="05.867686"><ele>26</ele><time>2012-03-31T15:07:26Z</time><cmt>3.4 kmh</cmt></trkpt>
<trkpt lat="58.873588" lon="05.867673"><ele>26</ele><time>2012-03-31T15:07:27Z</time><cmt>3.3 kmh</cmt></trkpt>
<trkpt lat="58.873591" lon="05.867660"><ele>26</ele><time>2012-03-31T15:07:28Z</time><cmt>3.2 kmh</cmt></trkpt>
<trkpt lat="58.873594" lon="05.867649"><ele>26</ele><time>2012-03-31T15:07:29Z</time><cmt>2.9 kmh</cmt></trkpt>
<trkpt lat="58.873595" lon="05.867639"><ele>26</ele><time>2012-03-31T15:07:30Z</time><cmt>2.0 kmh</cmt></trkpt>
<trkpt lat="58.873596" lon="05.867631"><ele>26</ele><time>2012-03-31T15:07:31Z</time><cmt>1.7 kmh</cmt></trkpt>
<trkpt lat="58.873597" lon="05.867623"><ele>26</ele><time>2012-03-31T15:07:32Z</time><cmt>1.9 kmh</cmt></trkpt>
<trkpt lat="58.873600" lon="05.867614"><ele>26</ele><time>2012-03-31T15:07:33Z</time><cmt>2.1 kmh</cmt></trkpt>
<trkpt lat="58.873604" lon="05.867604"><ele>26</ele><time>2012-03-31T15:07:34Z</time><cmt>2.5 kmh</cmt></trkpt>
<trkpt lat="58.873607" lon="05.867594"><ele>26</ele><time>2012-03-31T15:07:35Z</time><cmt>2.7 kmh</cmt></trkpt>
<trkpt lat="58.873610" lon="05.867584"><ele>26</ele><time>2012-03-31T15:07:36Z</time><cmt>2.2 kmh</cmt></trkpt>
<trkpt lat="58.873613" lon="05.867573"><ele>26</ele><time>2012-03-31T15:07:37Z</time><cmt>2.1 kmh</cmt></trkpt>
<trkpt lat="58.873615" lon="05.867563"><ele>26</ele><time>2012-03-31T15:07:38Z</time><cmt>2.6 kmh</cmt></trkpt>
<trkpt lat="58.873618" lon="05.867554"><ele>26</ele><time>2012-03-31T15:07:39Z</time><cmt>2.4 kmh</cmt></trkpt>
<trkpt lat="58.873620" lon="05.867544"><ele>26</ele><time>2012-03-31T15:07:40Z</time><cmt>2.3 kmh</cmt></trkpt>
<trkpt lat="58.873623" lon="05.867535"><ele>26</ele><time>2012-03-31T15:07:41Z</time><cmt>2.3 kmh</cmt></trkpt>
<trkpt lat="58.873625" lon="05.867527"><ele>26</ele><time>2012-03-31T15:07:42Z</time><cmt>2.2 kmh</cmt></trkpt>
<trkpt lat="58.873627" lon="05.867520"><ele>26</ele><time>2012-03-31T15:07:43Z</time><cmt>1.6 kmh</cmt></trkpt>
<trkpt lat="58.873628" lon="05.867513"><ele>26</ele><time>2012-03-31T15:07:44Z</time><cmt>1.4 kmh</cmt></trkpt>
<trkpt lat="58.873630" lon="05.867507"><ele>26</ele><time>2012-03-31T15:07:45Z</time><cmt>1.6 kmh</cmt></trkpt>
<trkpt lat="58.873632" lon="05.867501"><ele>26</ele><time>2012-03-31T15:07:46Z</time><cmt>1.5 kmh</cmt></trkpt>
<trkpt lat="58.873633" lon="05.867496"><ele>26</ele><time>2012-03-31T15:07:47Z</time><cmt>1.3 kmh</cmt></trkpt>
<trkpt lat="58.873634" lon="05.867492"><ele>26</ele><time>2012-03-31T15:07:48Z</time><cmt>1.1 kmh</cmt></trkpt>
<trkpt lat="58.873636" lon="05.867488"><ele>26</ele><time>2012-03-31T15:07:49Z</time><cmt>0.9 kmh</cmt></trkpt>
<trkpt lat="58.873636" lon="05.867484"><ele>26</ele><time>2012-03-31T15:07:50Z</time><cmt>0.9 kmh</cmt></trkpt>
<trkpt lat="58.873637" lon="05.867478"><ele>26</ele><time>2012-03-31T15:07:51Z</time><cmt>1.2 kmh</cmt></trkpt>
<trkpt lat="58.873638" lon="05.867471"><ele>26</ele><time>2012-03-31T15:07:52Z</time><cmt>1.6 kmh</cmt></trkpt>
<trkpt lat="58.873640" lon="05.867464"><ele>26</ele><time>2012-03-31T15:07:53Z</time><cmt>1.8 kmh</cmt></trkpt>
<trkpt lat="58.873643" lon="05.867457"><ele>26</ele><time>2012-03-31T15:07:54Z</time><cmt>1.8 kmh</cmt></trkpt>
<trkpt lat="58.873644" lon="05.867451"><ele>26</ele><time>2012-03-31T15:07:55Z</time><cmt>1.4 kmh</cmt></trkpt>
<trkpt lat="58.873646" lon="05.867443"><ele>26</ele><time>2012-03-31T15:07:56Z</time><cmt>1.4 kmh</cmt></trkpt>
<trkpt lat="58.873649" lon="05.867435"><ele>26</ele><time>2012-03-31T15:07:57Z</time><cmt>2.1 kmh</cmt></trkpt>
<trkpt lat="58.873653" lon="05.867426"><ele>26</ele><time>2012-03-31T15:07:58Z</time><cmt>2.4 kmh</cmt></trkpt>
<trkpt lat="58.873657" lon="05.867416"><ele>26</ele><time>2012-03-31T15:07:59Z</time><cmt>2.7 kmh</cmt></trkpt>
<trkpt lat="58.873659" lon="05.867405"><ele>26</ele><time>2012-03-31T15:08:00Z</time><cmt>2.7 kmh</cmt></trkpt>
<trkpt lat="58.873662" lon="05.867396"><ele>26</ele><time>2012-03-31T15:08:01Z</time><cmt>2.0 kmh</cmt></trkpt>
<trkpt lat="58.873666" lon="05.867386"><ele>26</ele><time>2012-03-31T15:08:02Z</time><cmt>2.0 kmh</cmt></trkpt>
<trkpt lat="58.873668" lon="05.867376"><ele>26</ele><time>2012-03-31T15:08:03Z</time><cmt>2.5 kmh</cmt></trkpt>
<trkpt lat="58.873671" lon="05.867366"><ele>26</ele><time>2012-03-31T15:08:04Z</time><cmt>2.5 kmh</cmt></trkpt>
<trkpt lat="58.873674" lon="05.867354"><ele>26</ele><time>2012-03-31T15:08:05Z</time><cmt>2.8 kmh</cmt></trkpt>
<trkpt lat="58.873678" lon="05.867342"><ele>26</ele><time>2012-03-31T15:08:06Z</time><cmt>3.1 kmh</cmt></trkpt>
<trkpt lat="58.873683" lon="05.867328"><ele>26</ele><time>2012-03-31T15:08:07Z</time><cmt>3.4 kmh</cmt></trkpt>
<trkpt lat="58.873687" lon="05.867314"><ele>26</ele><time>2012-03-31T15:08:08Z</time><cmt>3.0 kmh</cmt></trkpt>
<trkpt lat="58.873692" lon="05.867298"><ele>26</ele><time>2012-03-31T15:08:09Z</time><cmt>3.1 kmh</cmt></trkpt>
<trkpt lat="58.873697" lon="05.867282"><ele>26</ele><time>2012-03-31T15:08:10Z</time><cmt>4.1 kmh</cmt></trkpt>
<trkpt lat="58.873702" lon="05.867264"><ele>26</ele><time>2012-03-31T15:08:11Z</time><cmt>4.5 kmh</cmt></trkpt>
<trkpt lat="58.873706" lon="05.867245"><ele>26</ele><time>2012-03-31T15:08:12Z</time><cmt>4.6 kmh</cmt></trkpt>
<trkpt lat="58.873710" lon="05.867228"><ele>26</ele><time>2012-03-31T15:08:13Z</time><cmt>4.4 kmh</cmt></trkpt>
<trkpt lat="58.873715" lon="05.867210"><ele>26</ele><time>2012-03-31T15:08:14Z</time><cmt>3.5 kmh</cmt></trkpt>
<trkpt lat="58.873720" lon="05.867192"><ele>26</ele><time>2012-03-31T15:08:15Z</time><cmt>3.6 kmh</cmt></trkpt>
<trkpt lat="58.873725" lon="05.867174"><ele>26</ele><time>2012-03-31T15:08:16Z</time><cmt>4.6 kmh</cmt></trkpt>
<trkpt lat="58.873730" lon="05.867158"><ele>26</ele><time>2012-03-31T15:08:17Z</time><cmt>4.4 kmh</cmt></trkpt>
<trkpt lat="58.873735" lon="05.867141"><ele>26</ele><time>2012-03-31T15:08:18Z</time><cmt>4.2 kmh</cmt></trkpt>
<trkpt lat="58.873740" lon="05.867125"><ele>26</ele><time>2012-03-31T15:08:19Z</time><cmt>4.3 kmh</cmt></trkpt>
<trkpt lat="58.873746" lon="05.867109"><ele>26</ele><time>2012-03-31T15:08:20Z</time><cmt>3.6 kmh</cmt></trkpt>
<trkpt lat="58.873752" lon="05.867091"><ele>26</ele><time>2012-03-31T15:08:21Z</time><cmt>3.6 kmh</cmt></trkpt>
<trkpt lat="58.873756" lon="05.867074"><ele>26</ele><time>2012-03-31T15:08:22Z</time><cmt>4.4 kmh</cmt></trkpt>
<trkpt lat="58.873760" lon="05.867057"><ele>26</ele><time>2012-03-31T15:08:23Z</time><cmt>4.3 kmh</cmt></trkpt>
<trkpt lat="58.873765" lon="05.867041"><ele>26</ele><time>2012-03-31T15:08:24Z</time><cmt>4.1 kmh</cmt></trkpt>
<trkpt lat="58.873768" lon="05.867026"><ele>26</ele><time>2012-03-31T15:08:25Z</time><cmt>3.8 kmh</cmt></trkpt>
<trkpt lat="58.873772" lon="05.867011"><ele>26</ele><time>2012-03-31T15:08:26Z</time><cmt>3.0 kmh</cmt></trkpt>
<trkpt lat="58.873776" lon="05.866996"><ele>26</ele><time>2012-03-31T15:08:27Z</time><cmt>3.0 kmh</cmt></trkpt>
<trkpt lat="58.873780" lon="05.866980"><ele>26</ele><time>2012-03-31T15:08:28Z</time><cmt>3.9 kmh</cmt></trkpt>
<trkpt lat="58.873785" lon="05.866964"><ele>26</ele><time>2012-03-31T15:08:29Z</time><cmt>4.0 kmh</cmt></trkpt>
<trkpt lat="58.873789" lon="05.866948"><ele>26</ele><time>2012-03-31T15:08:30Z</time><cmt>4.0 kmh</cmt></trkpt>
<trkpt lat="58.873793" lon="05.866933"><ele>26</ele><time>2012-03-31T15:08:31Z</time><cmt>4.0 kmh</cmt></trkpt>
<trkpt lat="58.873796" lon="05.866917"><ele>26</ele><time>2012-03-31T15:08:32Z</time><cmt>3.0 kmh</cmt></trkpt>
<trkpt lat="58.873799" lon="05.866902"><ele>26</ele><time>2012-03-31T15:08:33Z</time><cmt>2.9 kmh</cmt></trkpt>
<trkpt lat="58.873801" lon="05.866887"><ele>26</ele><time>2012-03-31T15:08:34Z</time><cmt>3.5 kmh</cmt></trkpt>
<trkpt lat="58.873803" lon="05.866871"><ele>26</ele><time>2012-03-31T15:08:35Z</time><cmt>3.6 kmh</cmt></trkpt>
<trkpt lat="58.873807" lon="05.866854"><ele>26</ele><time>2012-03-31T15:08:36Z</time><cmt>3.9 kmh</cmt></trkpt>
<trkpt lat="58.873811" lon="05.866837"><ele>26</ele><time>2012-03-31T15:08:37Z</time><cmt>4.1 kmh</cmt></trkpt>
<trkpt lat="58.873815" lon="05.866819"><ele>26</ele><time>2012-03-31T15:08:38Z</time><cmt>3.4 kmh</cmt></trkpt>
<trkpt lat="58.873818" lon="05.866802"><ele>26</ele><time>2012-03-31T15:08:39Z</time><cmt>3.3 kmh</cmt></trkpt>
<trkpt lat="58.873821" lon="05.866786"><ele>26</ele><time>2012-03-31T15:08:40Z</time><cmt>4.0 kmh</cmt></trkpt>
<trkpt lat="58.873824" lon="05.866770"><ele>26</ele><time>2012-03-31T15:08:41Z</time><cmt>3.9 kmh</cmt></trkpt>
<trkpt lat="58.873827" lon="05.866754"><ele>26</ele><time>2012-03-31T15:08:42Z</time><cmt>3.8 kmh</cmt></trkpt>
<trkpt lat="58.873830" lon="05.866738"><ele>27</ele><time>2012-03-31T15:08:43Z</time><cmt>3.8 kmh</cmt></trkpt>
<trkpt lat="58.873832" lon="05.866721"><ele>27</ele><time>2012-03-31T15:08:44Z</time><cmt>3.8 kmh</cmt></trkpt>
<trkpt lat="58.873836" lon="05.866705"><ele>27</ele><time>2012-03-31T15:08:45Z</time><cmt>3.1 kmh</cmt></trkpt>
<trkpt lat="58.873839" lon="05.866689"><ele>27</ele><time>2012-03-31T15:08:46Z</time><cmt>3.1 kmh</cmt></trkpt>
<trkpt lat="58.873843" lon="05.866671"><ele>27</ele><time>2012-03-31T15:08:47Z</time><cmt>4.1 kmh</cmt></trkpt>
<trkpt lat="58.873847" lon="05.866653"><ele>27</ele><time>2012-03-31T15:08:48Z</time><cmt>4.3 kmh</cmt></trkpt>
<trkpt lat="58.873850" lon="05.866635"><ele>27</ele><time>2012-03-31T15:08:49Z</time><cmt>4.3 kmh</cmt></trkpt>
<trkpt lat="58.873853" lon="05.866616"><ele>27</ele><time>2012-03-31T15:08:50Z</time><cmt>4.3 kmh</cmt></trkpt>
<trkpt lat="58.873856" lon="05.866597"><ele>27</ele><time>2012-03-31T15:08:51Z</time><cmt>3.5 kmh</cmt></trkpt>
<trkpt lat="58.873860" lon="05.866579"><ele>27</ele><time>2012-03-31T15:08:52Z</time><cmt>3.6 kmh</cmt></trkpt>
<trkpt lat="58.873863" lon="05.866560"><ele>27</ele><time>2012-03-31T15:08:53Z</time><cmt>4.4 kmh</cmt></trkpt>
<trkpt lat="58.873865" lon="05.866541"><ele>28</ele><time>2012-03-31T15:08:54Z</time><cmt>4.4 kmh</cmt></trkpt>
<trkpt lat="58.873867" lon="05.866521"><ele>28</ele><time>2012-03-31T15:08:55Z</time><cmt>4.5 kmh</cmt></trkpt>
<trkpt lat="58.873869" lon="05.866499"><ele>28</ele><time>2012-03-31T15:08:56Z</time><cmt>4.7 kmh</cmt></trkpt>
<trkpt lat="58.873872" lon="05.866477"><ele>28</ele><time>2012-03-31T15:08:57Z</time><cmt>5.0 kmh</cmt></trkpt>
<trkpt lat="58.873875" lon="05.866453"><ele>28</ele><time>2012-03-31T15:08:58Z</time><cmt>5.4 kmh</cmt></trkpt>
<trkpt lat="58.873879" lon="05.866427"><ele>28</ele><time>2012-03-31T15:08:59Z</time><cmt>5.2 kmh</cmt></trkpt>
<trkpt lat="58.873882" lon="05.866402"><ele>28</ele><time>2012-03-31T15:09:00Z</time><cmt>5.1 kmh</cmt></trkpt>
<trkpt lat="58.873885" lon="05.866377"><ele>28</ele><time>2012-03-31T15:09:01Z</time><cmt>5.1 kmh</cmt></trkpt>
<trkpt lat="58.873887" lon="05.866353"><ele>28</ele><time>2012-03-31T15:09:02Z</time><cmt>5.1 kmh</cmt></trkpt>
<trkpt lat="58.873889" lon="05.866329"><ele>28</ele><time>2012-03-31T15:09:03Z</time><cmt>5.1 kmh</cmt></trkpt>
<trkpt lat="58.873891" lon="05.866305"><ele>28</ele><time>2012-03-31T15:09:04Z</time><cmt>5.1 kmh</cmt></trkpt>
<trkpt lat="58.873896" lon="05.866281"><ele>28</ele><time>2012-03-31T15:09:05Z</time><cmt>5.1 kmh</cmt></trkpt>
<trkpt lat="58.873901" lon="05.866258"><ele>28</ele><time>2012-03-31T15:09:06Z</time><cmt>5.0 kmh</cmt></trkpt>
<trkpt lat="58.873905" lon="05.866235"><ele>28</ele><time>2012-03-31T15:09:07Z</time><cmt>5.0 kmh</cmt></trkpt>
<trkpt lat="58.873910" lon="05.866211"><ele>28</ele><time>2012-03-31T15:09:08Z</time><cmt>5.7 kmh</cmt></trkpt>
<trkpt lat="58.873914" lon="05.866187"><ele>28</ele><time>2012-03-31T15:09:09Z</time><cmt>5.1 kmh</cmt></trkpt>
<trkpt lat="58.873918" lon="05.866164"><ele>28</ele><time>2012-03-31T15:09:10Z</time><cmt>5.1 kmh</cmt></trkpt>
<trkpt lat="58.873921" lon="05.866142"><ele>28</ele><time>2012-03-31T15:09:11Z</time><cmt>5.0 kmh</cmt></trkpt>
<trkpt lat="58.873924" lon="05.866121"><ele>28</ele><time>2012-03-31T15:09:12Z</time><cmt>5.0 kmh</cmt></trkpt>
<trkpt lat="58.873927" lon="05.866100"><ele>28</ele><time>2012-03-31T15:09:13Z</time><cmt>4.8 kmh</cmt></trkpt>
<trkpt lat="58.873930" lon="05.866081"><ele>28</ele><time>2012-03-31T15:09:14Z</time><cmt>4.6 kmh</cmt></trkpt>
<trkpt lat="58.873934" lon="05.866063"><ele>28</ele><time>2012-03-31T15:09:15Z</time><cmt>4.4 kmh</cmt></trkpt>
<trkpt lat="58.873938" lon="05.866047"><ele>28</ele><time>2012-03-31T15:09:16Z</time><cmt>3.4 kmh</cmt></trkpt>
<trkpt lat="58.873943" lon="05.866030"><ele>28</ele><time>2012-03-31T15:09:17Z</time><cmt>3.4 kmh</cmt></trkpt>
<trkpt lat="58.873948" lon="05.866013"><ele>28</ele><time>2012-03-31T15:09:18Z</time><cmt>4.4 kmh</cmt></trkpt>
<trkpt lat="58.873953" lon="05.865995"><ele>28</ele><time>2012-03-31T15:09:19Z</time><cmt>4.4 kmh</cmt></trkpt>
<trkpt lat="58.873956" lon="05.865976"><ele>28</ele><time>2012-03-31T15:09:20Z</time><cmt>4.5 kmh</cmt></trkpt>
<trkpt lat="58.873959" lon="05.865957"><ele>28</ele><time>2012-03-31T15:09:21Z</time><cmt>4.5 kmh</cmt></trkpt>
<trkpt lat="58.873962" lon="05.865936"><ele>28</ele><time>2012-03-31T15:09:22Z</time><cmt>3.7 kmh</cmt></trkpt>
<trkpt lat="58.873965" lon="05.865916"><ele>28</ele><time>2012-03-31T15:09:23Z</time><cmt>3.8 kmh</cmt></trkpt>
<trkpt lat="58.873969" lon="05.865895"><ele>28</ele><time>2012-03-31T15:09:24Z</time><cmt>4.9 kmh</cmt></trkpt>
<trkpt lat="58.873974" lon="05.865874"><ele>28</ele><time>2012-03-31T15:09:25Z</time><cmt>5.0 kmh</cmt></trkpt>
<trkpt lat="58.873978" lon="05.865854"><ele>28</ele><time>2012-03-31T15:09:26Z</time><cmt>5.0 kmh</cmt></trkpt>
<trkpt lat="58.873982" lon="05.865834"><ele>28</ele><time>2012-03-31T15:09:27Z</time><cmt>5.0 kmh</cmt></trkpt>
<trkpt lat="58.873985" lon="05.865814"><ele>28</ele><time>2012-03-31T15:09:28Z</time><cmt>3.8 kmh</cmt></trkpt>
<trkpt lat="58.873989" lon="05.865795"><ele>28</ele><time>2012-03-31T15:09:29Z</time><cmt>3.8 kmh</cmt></trkpt>
<trkpt lat="58.873994" lon="05.865775"><ele>28</ele><time>2012-03-31T15:09:30Z</time><cmt>4.7 kmh</cmt></trkpt>
<trkpt lat="58.873998" lon="05.865755"><ele>28</ele><time>2012-03-31T15:09:31Z</time><cmt>4.8 kmh</cmt></trkpt>
<trkpt lat="58.874003" lon="05.865736"><ele>28</ele><time>2012-03-31T15:09:32Z</time><cmt>4.8 kmh</cmt></trkpt>
<trkpt lat="58.874007" lon="05.865717"><ele>28</ele><time>2012-03-31T15:09:33Z</time><cmt>4.8 kmh</cmt></trkpt>
<trkpt lat="58.874012" lon="05.865697"><ele>28</ele><time>2012-03-31T15:09:34Z</time><cmt>3.8 kmh</cmt></trkpt>
<trkpt lat="58.874016" lon="05.865676"><ele>28</ele><time>2012-03-31T15:09:35Z</time><cmt>4.0 kmh</cmt></trkpt>
<trkpt lat="58.874021" lon="05.865656"><ele>28</ele><time>2012-03-31T15:09:36Z</time><cmt>5.0 kmh</cmt></trkpt>
<trkpt lat="58.874025" lon="05.865636"><ele>28</ele><time>2012-03-31T15:09:37Z</time><cmt>4.9 kmh</cmt></trkpt>
<trkpt lat="58.874030" lon="05.865615"><ele>28</ele><time>2012-03-31T15:09:38Z</time><cmt>5.0 kmh</cmt></trkpt>
<trkpt lat="58.874035" lon="05.865595"><ele>28</ele><time>2012-03-31T15:09:39Z</time><cmt>5.0 kmh</cmt></trkpt>
<trkpt lat="58.874040" lon="05.865576"><ele>28</ele><time>2012-03-31T15:09:40Z</time><cmt>3.9 kmh</cmt></trkpt>
<trkpt lat="58.874044" lon="05.865557"><ele>28</ele><time>2012-03-31T15:09:41Z</time><cmt>3.8 kmh</cmt></trkpt>
<trkpt lat="58.874050" lon="05.865536"><ele>28</ele><time>2012-03-31T15:09:42Z</time><cmt>5.1 kmh</cmt></trkpt>
<trkpt lat="58.874055" lon="05.865516"><ele>28</ele><time>2012-03-31T15:09:43Z</time><cmt>5.1 kmh</cmt></trkpt>
<trkpt lat="58.874060" lon="05.865496"><ele>27</ele><time>2012-03-31T15:09:44Z</time><cmt>5.0 kmh</cmt></trkpt>
<trkpt lat="58.874065" lon="05.865478"><ele>27</ele><time>2012-03-31T15:09:45Z</time><cmt>4.8 kmh</cmt></trkpt>
<trkpt lat="58.874070" lon="05.865460"><ele>27</ele><time>2012-03-31T15:09:46Z</time><cmt>4.6 kmh</cmt></trkpt>
<trkpt lat="58.874076" lon="05.865441"><ele>27</ele><time>2012-03-31T15:09:47Z</time><cmt>3.8 kmh</cmt></trkpt>
<trkpt lat="58.874082" lon="05.865424"><ele>27</ele><time>2012-03-31T15:09:48Z</time><cmt>5.1 kmh</cmt></trkpt>
<trkpt lat="58.874088" lon="05.865404"><ele>27</ele><time>2012-03-31T15:09:49Z</time><cmt>5.1 kmh</cmt></trkpt>
<trkpt lat="58.874095" lon="05.865387"><ele>27</ele><time>2012-03-31T15:09:50Z</time><cmt>5.0 kmh</cmt></trkpt>
<trkpt lat="58.874101" lon="05.865370"><ele>27</ele><time>2012-03-31T15:09:51Z</time><cmt>5.0 kmh</cmt></trkpt>
<trkpt lat="58.874109" lon="05.865351"><ele>27</ele><time>2012-03-31T15:09:52Z</time><cmt>5.3 kmh</cmt></trkpt>
<trkpt lat="58.874116" lon="05.865332"><ele>27</ele><time>2012-03-31T15:09:53Z</time><cmt>5.3 kmh</cmt></trkpt>
<trkpt lat="58.874123" lon="05.865314"><ele>27</ele><time>2012-03-31T15:09:54Z</time><cmt>4.2 kmh</cmt></trkpt>
<trkpt lat="58.874131" lon="05.865296"><ele>27</ele><time>2012-03-31T15:09:55Z</time><cmt>5.0 kmh</cmt></trkpt>
<trkpt lat="58.874138" lon="05.865278"><ele>27</ele><time>2012-03-31T15:09:56Z</time><cmt>5.0 kmh</cmt></trkpt>
<trkpt lat="58.874146" lon="05.865259"><ele>27</ele><time>2012-03-31T15:09:57Z</time><cmt>5.5 kmh</cmt></trkpt>
<trkpt lat="58.874153" lon="05.865240"><ele>27</ele><time>2012-03-31T15:09:58Z</time><cmt>5.5 kmh</cmt></trkpt>
<trkpt lat="58.874161" lon="05.865221"><ele>27</ele><time>2012-03-31T15:09:59Z</time><cmt>5.2 kmh</cmt></trkpt>
<trkpt lat="58.874176" lon="05.865183"><ele>27</ele><time>2012-03-31T15:10:01Z</time><cmt>5.2 kmh</cmt></trkpt>
<trkpt lat="58.874194" lon="05.865127"><ele>27</ele><time>2012-03-31T15:10:03Z</time><cmt>5.0 kmh</cmt></trkpt>
<trkpt lat="58.874200" lon="05.865109"><ele>26</ele><time>2012-03-31T15:10:04Z</time><cmt>5.0 kmh</cmt></trkpt>
<trkpt lat="58.874206" lon="05.865090"><ele>26</ele><time>2012-03-31T15:10:05Z</time><cmt>5.0 kmh</cmt></trkpt>
<trkpt lat="58.874213" lon="05.865071"><ele>26</ele><time>2012-03-31T15:10:06Z</time><cmt>5.3 kmh</cmt></trkpt>
<trkpt lat="58.874221" lon="05.865052"><ele>26</ele><time>2012-03-31T15:10:07Z</time><cmt>5.3 kmh</cmt></trkpt>
<trkpt lat="58.874227" lon="05.865034"><ele>26</ele><time>2012-03-31T15:10:08Z</time><cmt>5.0 kmh</cmt></trkpt>
<trkpt lat="58.874234" lon="05.865017"><ele>26</ele><time>2012-03-31T15:10:09Z</time><cmt>4.8 kmh</cmt></trkpt>
<trkpt lat="58.874239" lon="05.865000"><ele>26</ele><time>2012-03-31T15:10:10Z</time><cmt>4.6 kmh</cmt></trkpt>
<trkpt lat="58.874246" lon="05.864982"><ele>26</ele><time>2012-03-31T15:10:11Z</time><cmt>3.8 kmh</cmt></trkpt>
<trkpt lat="58.874252" lon="05.864963"><ele>26</ele><time>2012-03-31T15:10:12Z</time><cmt>3.9 kmh</cmt></trkpt>
<trkpt lat="58.874258" lon="05.864944"><ele>26</ele><time>2012-03-31T15:10:13Z</time><cmt>5.0 kmh</cmt></trkpt>
<trkpt lat="58.874263" lon="05.864927"><ele>26</ele><time>2012-03-31T15:10:14Z</time><cmt>4.7 kmh</cmt></trkpt>
<trkpt lat="58.874268" lon="05.864911"><ele>26</ele><time>2012-03-31T15:10:15Z</time><cmt>4.3 kmh</cmt></trkpt>
<trkpt lat="58.874274" lon="05.864894"><ele>26</ele><time>2012-03-31T15:10:16Z</time><cmt>4.4 kmh</cmt></trkpt>
<trkpt lat="58.874281" lon="05.864876"><ele>26</ele><time>2012-03-31T15:10:17Z</time><cmt>4.8 kmh</cmt></trkpt>
<trkpt lat="58.874287" lon="05.864860"><ele>26</ele><time>2012-03-31T15:10:18Z</time><cmt>3.7 kmh</cmt></trkpt>
<trkpt lat="58.874292" lon="05.864843"><ele>26</ele><time>2012-03-31T15:10:19Z</time><cmt>3.6 kmh</cmt></trkpt>
<trkpt lat="58.874298" lon="05.864826"><ele>26</ele><time>2012-03-31T15:10:20Z</time><cmt>4.5 kmh</cmt></trkpt>
<trkpt lat="58.874303" lon="05.864808"><ele>26</ele><time>2012-03-31T15:10:21Z</time><cmt>4.6 kmh</cmt></trkpt>
<trkpt lat="58.874308" lon="05.864790"><ele>26</ele><time>2012-03-31T15:10:22Z</time><cmt>4.5 kmh</cmt></trkpt>
<trkpt lat="58.874312" lon="05.864772"><ele>26</ele><time>2012-03-31T15:10:23Z</time><cmt>4.4 kmh</cmt></trkpt>
<trkpt lat="58.874316" lon="05.864754"><ele>26</ele><time>2012-03-31T15:10:24Z</time><cmt>3.6 kmh</cmt></trkpt>
<trkpt lat="58.874321" lon="05.864734"><ele>26</ele><time>2012-03-31T15:10:25Z</time><cmt>3.8 kmh</cmt></trkpt>
<trkpt lat="58.874327" lon="05.864714"><ele>26</ele><time>2012-03-31T15:10:26Z</time><cmt>5.0 kmh</cmt></trkpt>
<trkpt lat="58.874333" lon="05.864693"><ele>26</ele><time>2012-03-31T15:10:27Z</time><cmt>5.0 kmh</cmt></trkpt>
<trkpt lat="58.874338" lon="05.864674"><ele>26</ele><time>2012-03-31T15:10:28Z</time><cmt>5.0 kmh</cmt></trkpt>
<trkpt lat="58.874343" lon="05.864654"><ele>26</ele><time>2012-03-31T15:10:29Z</time><cmt>4.9 kmh</cmt></trkpt>
<trkpt lat="58.874348" lon="05.864635"><ele>26</ele><time>2012-03-31T15:10:30Z</time><cmt>3.9 kmh</cmt></trkpt>
<trkpt lat="58.874353" lon="05.864617"><ele>26</ele><time>2012-03-31T15:10:31Z</time><cmt>3.8 kmh</cmt></trkpt>
<trkpt lat="58.874358" lon="05.864600"><ele>26</ele><time>2012-03-31T15:10:32Z</time><cmt>4.5 kmh</cmt></trkpt>
<trkpt lat="58.874363" lon="05.864583"><ele>26</ele><time>2012-03-31T15:10:33Z</time><cmt>4.3 kmh</cmt></trkpt>
<trkpt lat="58.874367" lon="05.864566"><ele>26</ele><time>2012-03-31T15:10:34Z</time><cmt>4.2 kmh</cmt></trkpt>
<trkpt lat="58.874371" lon="05.864550"><ele>26</ele><time>2012-03-31T15:10:35Z</time><cmt>4.1 kmh</cmt></trkpt>
<trkpt lat="58.874376" lon="05.864537"><ele>26</ele><time>2012-03-31T15:10:36Z</time><cmt>3.0 kmh</cmt></trkpt>
<trkpt lat="58.874381" lon="05.864522"><ele>26</ele><time>2012-03-31T15:10:37Z</time><cmt>3.0 kmh</cmt></trkpt>
<trkpt lat="58.874386" lon="05.864508"><ele>26</ele><time>2012-03-31T15:10:38Z</time><cmt>3.9 kmh</cmt></trkpt>
<trkpt lat="58.874390" lon="05.864493"><ele>26</ele><time>2012-03-31T15:10:39Z</time><cmt>3.8 kmh</cmt></trkpt>
<trkpt lat="58.874394" lon="05.864479"><ele>26</ele><time>2012-03-31T15:10:40Z</time><cmt>3.7 kmh</cmt></trkpt>
<trkpt lat="58.874399" lon="05.864467"><ele>26</ele><time>2012-03-31T15:10:41Z</time><cmt>3.4 kmh</cmt></trkpt>
<trkpt lat="58.874403" lon="05.864456"><ele>26</ele><time>2012-03-31T15:10:42Z</time><cmt>2.5 kmh</cmt></trkpt>
<trkpt lat="58.874406" lon="05.864447"><ele>26</ele><time>2012-03-31T15:10:43Z</time><cmt>2.3 kmh</cmt></trkpt>
<trkpt lat="58.874410" lon="05.864438"><ele>26</ele><time>2012-03-31T15:10:44Z</time><cmt>2.6 kmh</cmt></trkpt>
<trkpt lat="58.874414" lon="05.864427"><ele>26</ele><time>2012-03-31T15:10:45Z</time><cmt>2.7 kmh</cmt></trkpt>
<trkpt lat="58.874419" lon="05.864415"><ele>26</ele><time>2012-03-31T15:10:46Z</time><cmt>3.1 kmh</cmt></trkpt>
<trkpt lat="58.874424" lon="05.864402"><ele>26</ele><time>2012-03-31T15:10:47Z</time><cmt>3.5 kmh</cmt></trkpt>
<trkpt lat="58.874429" lon="05.864387"><ele>26</ele><time>2012-03-31T15:10:48Z</time><cmt>3.9 kmh</cmt></trkpt>
<trkpt lat="58.874435" lon="05.864371"><ele>26</ele><time>2012-03-31T15:10:49Z</time><cmt>3.4 kmh</cmt></trkpt>
<trkpt lat="58.874440" lon="05.864355"><ele>26</ele><time>2012-03-31T15:10:50Z</time><cmt>3.3 kmh</cmt></trkpt>
<trkpt lat="58.874445" lon="05.864339"><ele>25</ele><time>2012-03-31T15:10:51Z</time><cmt>4.2 kmh</cmt></trkpt>
<trkpt lat="58.874451" lon="05.864323"><ele>25</ele><time>2012-03-31T15:10:52Z</time><cmt>4.3 kmh</cmt></trkpt>
<trkpt lat="58.874457" lon="05.864308"><ele>25</ele><time>2012-03-31T15:10:53Z</time><cmt>4.3 kmh</cmt></trkpt>
<trkpt lat="58.874464" lon="05.864293"><ele>25</ele><time>2012-03-31T15:10:54Z</time><cmt>4.3 kmh</cmt></trkpt>
<trkpt lat="58.874470" lon="05.864279"><ele>25</ele><time>2012-03-31T15:10:55Z</time><cmt>3.5 kmh</cmt></trkpt>
<trkpt lat="58.874478" lon="05.864262"><ele>25</ele><time>2012-03-31T15:10:56Z</time><cmt>3.7 kmh</cmt></trkpt>
<trkpt lat="58.874485" lon="05.864248"><ele>25</ele><time>2012-03-31T15:10:57Z</time><cmt>4.7 kmh</cmt></trkpt>
<trkpt lat="58.874492" lon="05.864235"><ele>25</ele><time>2012-03-31T15:10:58Z</time><cmt>4.4 kmh</cmt></trkpt>
<trkpt lat="58.874500" lon="05.864222"><ele>25</ele><time>2012-03-31T15:10:59Z</time><cmt>4.3 kmh</cmt></trkpt>
<trkpt lat="58.874508" lon="05.864207"><ele>25</ele><time>2012-03-31T15:11:00Z</time><cmt>4.6 kmh</cmt></trkpt>
<trkpt lat="58.874517" lon="05.864194"><ele>25</ele><time>2012-03-31T15:11:01Z</time><cmt>3.8 kmh</cmt></trkpt>
<trkpt lat="58.874525" lon="05.864180"><ele>25</ele><time>2012-03-31T15:11:02Z</time><cmt>3.8 kmh</cmt></trkpt>
<trkpt lat="58.874534" lon="05.864166"><ele>25</ele><time>2012-03-31T15:11:03Z</time><cmt>4.8 kmh</cmt></trkpt>
<trkpt lat="58.874542" lon="05.864151"><ele>25</ele><time>2012-03-31T15:11:04Z</time><cmt>4.9 kmh</cmt></trkpt>
<trkpt lat="58.874551" lon="05.864136"><ele>25</ele><time>2012-03-31T15:11:05Z</time><cmt>5.0 kmh</cmt></trkpt>
<trkpt lat="58.874559" lon="05.864122"><ele>25</ele><time>2012-03-31T15:11:06Z</time><cmt>4.9 kmh</cmt></trkpt>
<trkpt lat="58.874567" lon="05.864107"><ele>25</ele><time>2012-03-31T15:11:07Z</time><cmt>3.8 kmh</cmt></trkpt>
<trkpt lat="58.874575" lon="05.864093"><ele>25</ele><time>2012-03-31T15:11:08Z</time><cmt>3.8 kmh</cmt></trkpt>
<trkpt lat="58.874583" lon="05.864079"><ele>25</ele><time>2012-03-31T15:11:09Z</time><cmt>4.7 kmh</cmt></trkpt>
<trkpt lat="58.874592" lon="05.864063"><ele>25</ele><time>2012-03-31T15:11:10Z</time><cmt>4.9 kmh</cmt></trkpt>
<trkpt lat="58.874601" lon="05.864048"><ele>25</ele><time>2012-03-31T15:11:11Z</time><cmt>5.0 kmh</cmt></trkpt>
<trkpt lat="58.874609" lon="05.864033"><ele>25</ele><time>2012-03-31T15:11:12Z</time><cmt>5.0 kmh</cmt></trkpt>
<trkpt lat="58.874618" lon="05.864017"><ele>25</ele><time>2012-03-31T15:11:13Z</time><cmt>4.1 kmh</cmt></trkpt>
<trkpt lat="58.874627" lon="05.864003"><ele>25</ele><time>2012-03-31T15:11:14Z</time><cmt>5.1 kmh</cmt></trkpt>
<trkpt lat="58.874636" lon="05.863987"><ele>25</ele><time>2012-03-31T15:11:15Z</time><cmt>5.3 kmh</cmt></trkpt>
<trkpt lat="58.874645" lon="05.863972"><ele>25</ele><time>2012-03-31T15:11:16Z</time><cmt>5.3 kmh</cmt></trkpt>
<trkpt lat="58.874653" lon="05.863956"><ele>25</ele><time>2012-03-31T15:11:17Z</time><cmt>5.0 kmh</cmt></trkpt>
<trkpt lat="58.874662" lon="05.863941"><ele>25</ele><time>2012-03-31T15:11:18Z</time><cmt>4.9 kmh</cmt></trkpt>
<trkpt lat="58.874669" lon="05.863927"><ele>25</ele><time>2012-03-31T15:11:19Z</time><cmt>3.8 kmh</cmt></trkpt>
<trkpt lat="58.874677" lon="05.863912"><ele>25</ele><time>2012-03-31T15:11:20Z</time><cmt>3.7 kmh</cmt></trkpt>
<trkpt lat="58.874684" lon="05.863898"><ele>25</ele><time>2012-03-31T15:11:21Z</time><cmt>4.5 kmh</cmt></trkpt>
<trkpt lat="58.874691" lon="05.863884"><ele>25</ele><time>2012-03-31T15:11:22Z</time><cmt>4.4 kmh</cmt></trkpt>
<trkpt lat="58.874699" lon="05.863870"><ele>25</ele><time>2012-03-31T15:11:23Z</time><cmt>4.5 kmh</cmt></trkpt>
<trkpt lat="58.874706" lon="05.863856"><ele>25</ele><time>2012-03-31T15:11:24Z</time><cmt>4.4 kmh</cmt></trkpt>
<trkpt lat="58.874713" lon="05.863844"><ele>25</ele><time>2012-03-31T15:11:25Z</time><cmt>4.1 kmh</cmt></trkpt>
<trkpt lat="58.874719" lon="05.863835"><ele>25</ele><time>2012-03-31T15:11:26Z</time><cmt>3.0 kmh</cmt></trkpt>
<trkpt lat="58.874726" lon="05.863827"><ele>25</ele><time>2012-03-31T15:11:27Z</time><cmt>2.8 kmh</cmt></trkpt>
<trkpt lat="58.874733" lon="05.863818"><ele>25</ele><time>2012-03-31T15:11:28Z</time><cmt>3.5 kmh</cmt></trkpt>
<trkpt lat="58.874740" lon="05.863809"><ele>25</ele><time>2012-03-31T15:11:29Z</time><cmt>3.6 kmh</cmt></trkpt>
<trkpt lat="58.874747" lon="05.863800"><ele>25</ele><time>2012-03-31T15:11:30Z</time><cmt>3.7 kmh</cmt></trkpt>
<trkpt lat="58.874755" lon="05.863788"><ele>25</ele><time>2012-03-31T15:11:31Z</time><cmt>4.1 kmh</cmt></trkpt>
<trkpt lat="58.874763" lon="05.863775"><ele>25</ele><time>2012-03-31T15:11:32Z</time><cmt>3.6 kmh</cmt></trkpt>
<trkpt lat="58.874771" lon="05.863762"><ele>25</ele><time>2012-03-31T15:11:33Z</time><cmt>3.6 kmh</cmt></trkpt>
<trkpt lat="58.874779" lon="05.863748"><ele>25</ele><time>2012-03-31T15:11:34Z</time><cmt>4.5 kmh</cmt></trkpt>
<trkpt lat="58.874787" lon="05.863735"><ele>25</ele><time>2012-03-31T15:11:35Z</time><cmt>4.6 kmh</cmt></trkpt>
<trkpt lat="58.874795" lon="05.863721"><ele>25</ele><time>2012-03-31T15:11:36Z</time><cmt>4.7 kmh</cmt></trkpt>
<trkpt lat="58.874803" lon="05.863707"><ele>25</ele><time>2012-03-31T15:11:37Z</time><cmt>4.6 kmh</cmt></trkpt>
<trkpt lat="58.874811" lon="05.863692"><ele>25</ele><time>2012-03-31T15:11:38Z</time><cmt>3.8 kmh</cmt></trkpt>
<trkpt lat="58.874818" lon="05.863678"><ele>25</ele><time>2012-03-31T15:11:39Z</time><cmt>3.7 kmh</cmt></trkpt>
<trkpt lat="58.874825" lon="05.863665"><ele>25</ele><time>2012-03-31T15:11:40Z</time><cmt>4.3 kmh</cmt></trkpt>
<trkpt lat="58.874831" lon="05.863652"><ele>25</ele><time>2012-03-31T15:11:41Z</time><cmt>4.0 kmh</cmt></trkpt>
<trkpt lat="58.874837" lon="05.863639"><ele>25</ele><time>2012-03-31T15:11:42Z</time><cmt>3.9 kmh</cmt></trkpt>
<trkpt lat="58.874843" lon="05.863628"><ele>25</ele><time>2012-03-31T15:11:43Z</time><cmt>3.7 kmh</cmt></trkpt>
<trkpt lat="58.874849" lon="05.863616"><ele>25</ele><time>2012-03-31T15:11:44Z</time><cmt>3.0 kmh</cmt></trkpt>
<trkpt lat="58.874855" lon="05.863603"><ele>25</ele><time>2012-03-31T15:11:45Z</time><cmt>3.1 kmh</cmt></trkpt>
<trkpt lat="58.874861" lon="05.863591"><ele>25</ele><time>2012-03-31T15:11:46Z</time><cmt>3.7 kmh</cmt></trkpt>
<trkpt lat="58.874866" lon="05.863579"><ele>25</ele><time>2012-03-31T15:11:47Z</time><cmt>3.5 kmh</cmt></trkpt>
<trkpt lat="58.874871" lon="05.863568"><ele>25</ele><time>2012-03-31T15:11:48Z</time><cmt>3.4 kmh</cmt></trkpt>
<trkpt lat="58.874877" lon="05.863556"><ele>25</ele><time>2012-03-31T15:11:49Z</time><cmt>3.5 kmh</cmt></trkpt>
<trkpt lat="58.874883" lon="05.863544"><ele>25</ele><time>2012-03-31T15:11:50Z</time><cmt>3.6 kmh</cmt></trkpt>
<trkpt lat="58.874888" lon="05.863533"><ele>25</ele><time>2012-03-31T15:11:51Z</time><cmt>2.8 kmh</cmt></trkpt>
<trkpt lat="58.874893" lon="05.863522"><ele>25</ele><time>2012-03-31T15:11:52Z</time><cmt>2.7 kmh</cmt></trkpt>
<trkpt lat="58.874899" lon="05.863511"><ele>25</ele><time>2012-03-31T15:11:53Z</time><cmt>3.4 kmh</cmt></trkpt>
<trkpt lat="58.874904" lon="05.863501"><ele>25</ele><time>2012-03-31T15:11:54Z</time><cmt>3.3 kmh</cmt></trkpt>
<trkpt lat="58.874909" lon="05.863491"><ele>25</ele><time>2012-03-31T15:11:55Z</time><cmt>3.2 kmh</cmt></trkpt>
<trkpt lat="58.874914" lon="05.863482"><ele>25</ele><time>2012-03-31T15:11:56Z</time><cmt>3.0 kmh</cmt></trkpt>
<trkpt lat="58.874919" lon="05.863474"><ele>25</ele><time>2012-03-31T15:11:57Z</time><cmt>2.3 kmh</cmt></trkpt>
<trkpt lat="58.874923" lon="05.863465"><ele>25</ele><time>2012-03-31T15:11:58Z</time><cmt>2.2 kmh</cmt></trkpt>
<trkpt lat="58.874927" lon="05.863456"><ele>25</ele><time>2012-03-31T15:11:59Z</time><cmt>2.8 kmh</cmt></trkpt>
<trkpt lat="58.874932" lon="05.863446"><ele>25</ele><time>2012-03-31T15:12:00Z</time><cmt>2.9 kmh</cmt></trkpt>
<trkpt lat="58.874937" lon="05.863434"><ele>25</ele><time>2012-03-31T15:12:01Z</time><cmt>3.1 kmh</cmt></trkpt>
<trkpt lat="58.874941" lon="05.863422"><ele>25</ele><time>2012-03-31T15:12:02Z</time><cmt>3.4 kmh</cmt></trkpt>
<trkpt lat="58.874946" lon="05.863408"><ele>25</ele><time>2012-03-31T15:12:03Z</time><cmt>2.9 kmh</cmt></trkpt>
<trkpt lat="58.874951" lon="05.863393"><ele>25</ele><time>2012-03-31T15:12:04Z</time><cmt>3.1 kmh</cmt></trkpt>
<trkpt lat="58.874956" lon="05.863378"><ele>25</ele><time>2012-03-31T15:12:05Z</time><cmt>3.9 kmh</cmt></trkpt>
<trkpt lat="58.874961" lon="05.863363"><ele>25</ele><time>2012-03-31T15:12:06Z</time><cmt>3.9 kmh</cmt></trkpt>
<trkpt lat="58.874966" lon="05.863349"><ele>25</ele><time>2012-03-31T15:12:07Z</time><cmt>3.8 kmh</cmt></trkpt>
<trkpt lat="58.874971" lon="05.863336"><ele>25</ele><time>2012-03-31T15:12:08Z</time><cmt>3.7 kmh</cmt></trkpt>
<trkpt lat="58.874976" lon="05.863325"><ele>25</ele><time>2012-03-31T15:12:09Z</time><cmt>2.9 kmh</cmt></trkpt>
<trkpt lat="58.874981" lon="05.863314"><ele>25</ele><time>2012-03-31T15:12:10Z</time><cmt>2.7 kmh</cmt></trkpt>
<trkpt lat="58.874987" lon="05.863302"><ele>25</ele><time>2012-03-31T15:12:11Z</time><cmt>3.5 kmh</cmt></trkpt>
<trkpt lat="58.874992" lon="05.863292"><ele>25</ele><time>2012-03-31T15:12:12Z</time><cmt>3.4 kmh</cmt></trkpt>
<trkpt lat="58.874997" lon="05.863279"><ele>25</ele><time>2012-03-31T15:12:13Z</time><cmt>3.3 kmh</cmt></trkpt>
<trkpt lat="58.875002" lon="05.863267"><ele>25</ele><time>2012-03-31T15:12:14Z</time><cmt>3.3 kmh</cmt></trkpt>
<trkpt lat="58.875006" lon="05.863256"><ele>25</ele><time>2012-03-31T15:12:15Z</time><cmt>2.5 kmh</cmt></trkpt>
<trkpt lat="58.875011" lon="05.863245"><ele>25</ele><time>2012-03-31T15:12:16Z</time><cmt>2.5 kmh</cmt></trkpt>
<trkpt lat="58.875015" lon="05.863232"><ele>25</ele><time>2012-03-31T15:12:17Z</time><cmt>3.3 kmh</cmt></trkpt>
<trkpt lat="58.875019" lon="05.863220"><ele>25</ele><time>2012-03-31T15:12:18Z</time><cmt>3.4 kmh</cmt></trkpt>
<trkpt lat="58.875024" lon="05.863207"><ele>25</ele><time>2012-03-31T15:12:19Z</time><cmt>3.4 kmh</cmt></trkpt>
<trkpt lat="58.875029" lon="05.863195"><ele>25</ele><time>2012-03-31T15:12:20Z</time><cmt>3.5 kmh</cmt></trkpt>
<trkpt lat="58.875034" lon="05.863181"><ele>25</ele><time>2012-03-31T15:12:21Z</time><cmt>2.9 kmh</cmt></trkpt>
<trkpt lat="58.875038" lon="05.863168"><ele>25</ele><time>2012-03-31T15:12:22Z</time><cmt>2.9 kmh</cmt></trkpt>
<trkpt lat="58.875042" lon="05.863154"><ele>25</ele><time>2012-03-31T15:12:23Z</time><cmt>3.5 kmh</cmt></trkpt>
<trkpt lat="58.875046" lon="05.863141"><ele>25</ele><time>2012-03-31T15:12:24Z</time><cmt>3.5 kmh</cmt></trkpt>
<trkpt lat="58.875050" lon="05.863126"><ele>25</ele><time>2012-03-31T15:12:25Z</time><cmt>3.6 kmh</cmt></trkpt>
<trkpt lat="58.875055" lon="05.863112"><ele>25</ele><time>2012-03-31T15:12:26Z</time><cmt>3.6 kmh</cmt></trkpt>
<trkpt lat="58.875058" lon="05.863099"><ele>25</ele><time>2012-03-31T15:12:27Z</time><cmt>3.5 kmh</cmt></trkpt>
<trkpt lat="58.875063" lon="05.863086"><ele>25</ele><time>2012-03-31T15:12:28Z</time><cmt>2.8 kmh</cmt></trkpt>
<trkpt lat="58.875067" lon="05.863072"><ele>25</ele><time>2012-03-31T15:12:29Z</time><cmt>2.9 kmh</cmt></trkpt>
<trkpt lat="58.875073" lon="05.863058"><ele>25</ele><time>2012-03-31T15:12:30Z</time><cmt>3.7 kmh</cmt></trkpt>
<trkpt lat="58.875078" lon="05.863044"><ele>25</ele><time>2012-03-31T15:12:31Z</time><cmt>3.8 kmh</cmt></trkpt>
<trkpt lat="58.875083" lon="05.863029"><ele>25</ele><time>2012-03-31T15:12:32Z</time><cmt>3.9 kmh</cmt></trkpt>
<trkpt lat="58.875088" lon="05.863013"><ele>25</ele><time>2012-03-31T15:12:33Z</time><cmt>4.1 kmh</cmt></trkpt>
<trkpt lat="58.875093" lon="05.862997"><ele>25</ele><time>2012-03-31T15:12:34Z</time><cmt>3.4 kmh</cmt></trkpt>
<trkpt lat="58.875099" lon="05.862981"><ele>25</ele><time>2012-03-31T15:12:35Z</time><cmt>3.5 kmh</cmt></trkpt>
<trkpt lat="58.875105" lon="05.862965"><ele>25</ele><time>2012-03-31T15:12:36Z</time><cmt>4.4 kmh</cmt></trkpt>
<trkpt lat="58.875111" lon="05.862949"><ele>25</ele><time>2012-03-31T15:12:37Z</time><cmt>4.4 kmh</cmt></trkpt>
<trkpt lat="58.875117" lon="05.862935"><ele>25</ele><time>2012-03-31T15:12:38Z</time><cmt>4.2 kmh</cmt></trkpt>
<trkpt lat="58.875122" lon="05.862921"><ele>25</ele><time>2012-03-31T15:12:39Z</time><cmt>3.9 kmh</cmt></trkpt>
<trkpt lat="58.875128" lon="05.862908"><ele>25</ele><time>2012-03-31T15:12:40Z</time><cmt>3.1 kmh</cmt></trkpt>
<trkpt lat="58.875134" lon="05.862895"><ele>25</ele><time>2012-03-31T15:12:41Z</time><cmt>3.1 kmh</cmt></trkpt>
<trkpt lat="58.875139" lon="05.862882"><ele>25</ele><time>2012-03-31T15:12:42Z</time><cmt>3.8 kmh</cmt></trkpt>
<trkpt lat="58.875145" lon="05.862871"><ele>25</ele><time>2012-03-31T15:12:43Z</time><cmt>3.7 kmh</cmt></trkpt>
<trkpt lat="58.875151" lon="05.862859"><ele>25</ele><time>2012-03-31T15:12:44Z</time><cmt>3.6 kmh</cmt></trkpt>
<trkpt lat="58.875156" lon="05.862846"><ele>25</ele><time>2012-03-31T15:12:45Z</time><cmt>3.7 kmh</cmt></trkpt>
<trkpt lat="58.875162" lon="05.862833"><ele>25</ele><time>2012-03-31T15:12:46Z</time><cmt>3.1 kmh</cmt></trkpt>
<trkpt lat="58.875168" lon="05.862821"><ele>25</ele><time>2012-03-31T15:12:47Z</time><cmt>3.1 kmh</cmt></trkpt>
<trkpt lat="58.875175" lon="05.862808"><ele>25</ele><time>2012-03-31T15:12:48Z</time><cmt>3.9 kmh</cmt></trkpt>
<trkpt lat="58.875182" lon="05.862795"><ele>25</ele><time>2012-03-31T15:12:49Z</time><cmt>4.1 kmh</cmt></trkpt>
<trkpt lat="58.875188" lon="05.862782"><ele>25</ele><time>2012-03-31T15:12:50Z</time><cmt>4.0 kmh</cmt></trkpt>
<trkpt lat="58.875194" lon="05.862770"><ele>25</ele><time>2012-03-31T15:12:51Z</time><cmt>3.9 kmh</cmt></trkpt>
<trkpt lat="58.875202" lon="05.862756"><ele>25</ele><time>2012-03-31T15:12:52Z</time><cmt>3.4 kmh</cmt></trkpt>
<trkpt lat="58.875209" lon="05.862740"><ele>25</ele><time>2012-03-31T15:12:53Z</time><cmt>3.6 kmh</cmt></trkpt>
<trkpt lat="58.875216" lon="05.862726"><ele>25</ele><time>2012-03-31T15:12:54Z</time><cmt>4.6 kmh</cmt></trkpt>
<trkpt lat="58.875223" lon="05.862710"><ele>25</ele><time>2012-03-31T15:12:55Z</time><cmt>4.6 kmh</cmt></trkpt>
<trkpt lat="58.875231" lon="05.862694"><ele>25</ele><time>2012-03-31T15:12:56Z</time><cmt>4.7 kmh</cmt></trkpt>
<trkpt lat="58.875237" lon="05.862678"><ele>25</ele><time>2012-03-31T15:12:57Z</time><cmt>4.8 kmh</cmt></trkpt>
<trkpt lat="58.875245" lon="05.862660"><ele>25</ele><time>2012-03-31T15:12:58Z</time><cmt>4.8 kmh</cmt></trkpt>
<trkpt lat="58.875252" lon="05.862642"><ele>25</ele><time>2012-03-31T15:12:59Z</time><cmt>4.1 kmh</cmt></trkpt>
<trkpt lat="58.875260" lon="05.862626"><ele>25</ele><time>2012-03-31T15:13:00Z</time><cmt>4.1 kmh</cmt></trkpt>
<trkpt lat="58.875268" lon="05.862610"><ele>25</ele><time>2012-03-31T15:13:01Z</time><cmt>4.9 kmh</cmt></trkpt>
<trkpt lat="58.875276" lon="05.862595"><ele>25</ele><time>2012-03-31T15:13:02Z</time><cmt>4.9 kmh</cmt></trkpt>
<trkpt lat="58.875284" lon="05.862578"><ele>25</ele><time>2012-03-31T15:13:03Z</time><cmt>4.9 kmh</cmt></trkpt>
<trkpt lat="58.875292" lon="05.862562"><ele>25</ele><time>2012-03-31T15:13:04Z</time><cmt>5.0 kmh</cmt></trkpt>
<trkpt lat="58.875301" lon="05.862545"><ele>25</ele><time>2012-03-31T15:13:05Z</time><cmt>4.1 kmh</cmt></trkpt>
<trkpt lat="58.875309" lon="05.862529"><ele>25</ele><time>2012-03-31T15:13:06Z</time><cmt>4.1 kmh</cmt></trkpt>
<trkpt lat="58.875317" lon="05.862513"><ele>25</ele><time>2012-03-31T15:13:07Z</time><cmt>5.0 kmh</cmt></trkpt>
<trkpt lat="58.875325" lon="05.862496"><ele>25</ele><time>2012-03-31T15:13:08Z</time><cmt>5.0 kmh</cmt></trkpt>
<trkpt lat="58.875332" lon="05.862479"><ele>25</ele><time>2012-03-31T15:13:09Z</time><cmt>5.0 kmh</cmt></trkpt>
<trkpt lat="58.875340" lon="05.862462"><ele>25</ele><time>2012-03-31T15:13:10Z</time><cmt>4.9 kmh</cmt></trkpt>
<trkpt lat="58.875348" lon="05.862446"><ele>25</ele><time>2012-03-31T15:13:11Z</time><cmt>4.0 kmh</cmt></trkpt>
<trkpt lat="58.875355" lon="05.862429"><ele>25</ele><time>2012-03-31T15:13:12Z</time><cmt>3.9 kmh</cmt></trkpt>
<trkpt lat="58.875361" lon="05.862412"><ele>25</ele><time>2012-03-31T15:13:13Z</time><cmt>4.8 kmh</cmt></trkpt>
<trkpt lat="58.875368" lon="05.862397"><ele>25</ele><time>2012-03-31T15:13:14Z</time><cmt>4.7 kmh</cmt></trkpt>
<trkpt lat="58.875375" lon="05.862381"><ele>25</ele><time>2012-03-31T15:13:15Z</time><cmt>4.6 kmh</cmt></trkpt>
<trkpt lat="58.875382" lon="05.862366"><ele>25</ele><time>2012-03-31T15:13:16Z</time><cmt>4.6 kmh</cmt></trkpt>
<trkpt lat="58.875389" lon="05.862350"><ele>25</ele><time>2012-03-31T15:13:17Z</time><cmt>3.7 kmh</cmt></trkpt>
<trkpt lat="58.875396" lon="05.862334"><ele>25</ele><time>2012-03-31T15:13:18Z</time><cmt>3.8 kmh</cmt></trkpt>
<trkpt lat="58.875403" lon="05.862317"><ele>25</ele><time>2012-03-31T15:13:19Z</time><cmt>4.8 kmh</cmt></trkpt>
<trkpt lat="58.875409" lon="05.862300"><ele>25</ele><time>2012-03-31T15:13:20Z</time><cmt>4.7 kmh</cmt></trkpt>
<trkpt lat="58.875415" lon="05.862284"><ele>25</ele><time>2012-03-31T15:13:21Z</time><cmt>4.6 kmh</cmt></trkpt>
<trkpt lat="58.875422" lon="05.862267"><ele>25</ele><time>2012-03-31T15:13:22Z</time><cmt>4.6 kmh</cmt></trkpt>
<trkpt lat="58.875428" lon="05.862250"><ele>25</ele><time>2012-03-31T15:13:23Z</time><cmt>3.8 kmh</cmt></trkpt>
<trkpt lat="58.875435" lon="05.862232"><ele>25</ele><time>2012-03-31T15:13:24Z</time><cmt>3.9 kmh</cmt></trkpt>
<trkpt lat="58.875441" lon="05.862213"><ele>25</ele><time>2012-03-31T15:13:25Z</time><cmt>5.0 kmh</cmt></trkpt>
<trkpt lat="58.875448" lon="05.862194"><ele>25</ele><time>2012-03-31T15:13:26Z</time><cmt>5.0 kmh</cmt></trkpt>
<trkpt lat="58.875454" lon="05.862175"><ele>25</ele><time>2012-03-31T15:13:27Z</time><cmt>5.0 kmh</cmt></trkpt>
<trkpt lat="58.875461" lon="05.862156"><ele>25</ele><time>2012-03-31T15:13:28Z</time><cmt>5.0 kmh</cmt></trkpt>
<trkpt lat="58.875468" lon="05.862137"><ele>25</ele><time>2012-03-31T15:13:29Z</time><cmt>5.0 kmh</cmt></trkpt>
<trkpt lat="58.875474" lon="05.862118"><ele>25</ele><time>2012-03-31T15:13:30Z</time><cmt>5.0 kmh</cmt></trkpt>
<trkpt lat="58.875480" lon="05.862100"><ele>25</ele><time>2012-03-31T15:13:31Z</time><cmt>3.9 kmh</cmt></trkpt>
<trkpt lat="58.875485" lon="05.862084"><ele>25</ele><time>2012-03-31T15:13:32Z</time><cmt>4.5 kmh</cmt></trkpt>
<trkpt lat="58.875490" lon="05.862068"><ele>25</ele><time>2012-03-31T15:13:33Z</time><cmt>4.2 kmh</cmt></trkpt>
<trkpt lat="58.875495" lon="05.862052"><ele>25</ele><time>2012-03-31T15:13:34Z</time><cmt>4.1 kmh</cmt></trkpt>
<trkpt lat="58.875501" lon="05.862037"><ele>25</ele><time>2012-03-31T15:13:35Z</time><cmt>4.2 kmh</cmt></trkpt>
<trkpt lat="58.875507" lon="05.862020"><ele>25</ele><time>2012-03-31T15:13:36Z</time><cmt>3.5 kmh</cmt></trkpt>
<trkpt lat="58.875513" lon="05.862003"><ele>25</ele><time>2012-03-31T15:13:37Z</time><cmt>3.7 kmh</cmt></trkpt>
<trkpt lat="58.875519" lon="05.861987"><ele>25</ele><time>2012-03-31T15:13:38Z</time><cmt>4.5 kmh</cmt></trkpt>
<trkpt lat="58.875524" lon="05.861973"><ele>25</ele><time>2012-03-31T15:13:39Z</time><cmt>4.2 kmh</cmt></trkpt>
<trkpt lat="58.875529" lon="05.861959"><ele>25</ele><time>2012-03-31T15:13:40Z</time><cmt>3.8 kmh</cmt></trkpt>
<trkpt lat="58.875535" lon="05.861945"><ele>25</ele><time>2012-03-31T15:13:41Z</time><cmt>3.9 kmh</cmt></trkpt>
<trkpt lat="58.875541" lon="05.861932"><ele>25</ele><time>2012-03-31T15:13:42Z</time><cmt>3.2 kmh</cmt></trkpt>
<trkpt lat="58.875548" lon="05.861917"><ele>25</ele><time>2012-03-31T15:13:43Z</time><cmt>3.4 kmh</cmt></trkpt>
<trkpt lat="58.875556" lon="05.861902"><ele>25</ele><time>2012-03-31T15:13:44Z</time><cmt>4.5 kmh</cmt></trkpt>
<trkpt lat="58.875563" lon="05.861887"><ele>25</ele><time>2012-03-31T15:13:45Z</time><cmt>4.7 kmh</cmt></trkpt>
<trkpt lat="58.875571" lon="05.861872"><ele>25</ele><time>2012-03-31T15:13:46Z</time><cmt>4.7 kmh</cmt></trkpt>
<trkpt lat="58.875577" lon="05.861858"><ele>25</ele><time>2012-03-31T15:13:47Z</time><cmt>4.4 kmh</cmt></trkpt>
<trkpt lat="58.875583" lon="05.861844"><ele>25</ele><time>2012-03-31T15:13:48Z</time><cmt>3.3 kmh</cmt></trkpt>
<trkpt lat="58.875589" lon="05.861830"><ele>25</ele><time>2012-03-31T15:13:49Z</time><cmt>3.2 kmh</cmt></trkpt>
<trkpt lat="58.875596" lon="05.861818"><ele>25</ele><time>2012-03-31T15:13:50Z</time><cmt>4.0 kmh</cmt></trkpt>
<trkpt lat="58.875602" lon="05.861805"><ele>25</ele><time>2012-03-31T15:13:51Z</time><cmt>4.0 kmh</cmt></trkpt>
<trkpt lat="58.875607" lon="05.861793"><ele>25</ele><time>2012-03-31T15:13:52Z</time><cmt>3.7 kmh</cmt></trkpt>
<trkpt lat="58.875612" lon="05.861780"><ele>25</ele><time>2012-03-31T15:13:53Z</time><cmt>3.5 kmh</cmt></trkpt>
<trkpt lat="58.875618" lon="05.861766"><ele>25</ele><time>2012-03-31T15:13:54Z</time><cmt>3.1 kmh</cmt></trkpt>
<trkpt lat="58.875624" lon="05.861751"><ele>25</ele><time>2012-03-31T15:13:55Z</time><cmt>3.3 kmh</cmt></trkpt>
<trkpt lat="58.875631" lon="05.861736"><ele>25</ele><time>2012-03-31T15:13:56Z</time><cmt>4.4 kmh</cmt></trkpt>
<trkpt lat="58.875638" lon="05.861720"><ele>25</ele><time>2012-03-31T15:13:57Z</time><cmt>4.5 kmh</cmt></trkpt>
<trkpt lat="58.875644" lon="05.861705"><ele>25</ele><time>2012-03-31T15:13:58Z</time><cmt>4.4 kmh</cmt></trkpt>
<trkpt lat="58.875650" lon="05.861691"><ele>25</ele><time>2012-03-31T15:13:59Z</time><cmt>4.2 kmh</cmt></trkpt>
<trkpt lat="58.875656" lon="05.861677"><ele>25</ele><time>2012-03-31T15:14:00Z</time><cmt>3.2 kmh</cmt></trkpt>
<trkpt lat="58.875662" lon="05.861662"><ele>25</ele><time>2012-03-31T15:14:01Z</time><cmt>3.3 kmh</cmt></trkpt>
<trkpt lat="58.875668" lon="05.861646"><ele>25</ele><time>2012-03-31T15:14:02Z</time><cmt>4.3 kmh</cmt></trkpt>
<trkpt lat="58.875674" lon="05.861629"><ele>25</ele><time>2012-03-31T15:14:03Z</time><cmt>4.5 kmh</cmt></trkpt>
<trkpt lat="58.875681" lon="05.861611"><ele>25</ele><time>2012-03-31T15:14:04Z</time><cmt>5.0 kmh</cmt></trkpt>
<trkpt lat="58.875688" lon="05.861594"><ele>25</ele><time>2012-03-31T15:14:05Z</time><cmt>5.0 kmh</cmt></trkpt>
<trkpt lat="58.875693" lon="05.861577"><ele>25</ele><time>2012-03-31T15:14:06Z</time><cmt>4.8 kmh</cmt></trkpt>
<trkpt lat="58.875698" lon="05.861560"><ele>25</ele><time>2012-03-31T15:14:07Z</time><cmt>3.6 kmh</cmt></trkpt>
<trkpt lat="58.875703" lon="05.861544"><ele>25</ele><time>2012-03-31T15:14:08Z</time><cmt>3.3 kmh</cmt></trkpt>
<trkpt lat="58.875707" lon="05.861529"><ele>25</ele><time>2012-03-31T15:14:09Z</time><cmt>3.9 kmh</cmt></trkpt>
<trkpt lat="58.875711" lon="05.861515"><ele>25</ele><time>2012-03-31T15:14:10Z</time><cmt>3.7 kmh</cmt></trkpt>
<trkpt lat="58.875715" lon="05.861501"><ele>25</ele><time>2012-03-31T15:14:11Z</time><cmt>3.6 kmh</cmt></trkpt>
<trkpt lat="58.875719" lon="05.861487"><ele>25</ele><time>2012-03-31T15:14:12Z</time><cmt>3.6 kmh</cmt></trkpt>
<trkpt lat="58.875723" lon="05.861473"><ele>25</ele><time>2012-03-31T15:14:13Z</time><cmt>2.9 kmh</cmt></trkpt>
<trkpt lat="58.875727" lon="05.861458"><ele>25</ele><time>2012-03-31T15:14:14Z</time><cmt>2.9 kmh</cmt></trkpt>
<trkpt lat="58.875730" lon="05.861445"><ele>25</ele><time>2012-03-31T15:14:15Z</time><cmt>3.5 kmh</cmt></trkpt>
<trkpt lat="58.875733" lon="05.861432"><ele>25</ele><time>2012-03-31T15:14:16Z</time><cmt>3.1 kmh</cmt></trkpt>
<trkpt lat="58.875736" lon="05.861420"><ele>25</ele><time>2012-03-31T15:14:17Z</time><cmt>3.0 kmh</cmt></trkpt>
<trkpt lat="58.875740" lon="05.861407"><ele>25</ele><time>2012-03-31T15:14:18Z</time><cmt>3.3 kmh</cmt></trkpt>
<trkpt lat="58.875743" lon="05.861391"><ele>25</ele><time>2012-03-31T15:14:19Z</time><cmt>2.9 kmh</cmt></trkpt>
<trkpt lat="58.875747" lon="05.861374"><ele>25</ele><time>2012-03-31T15:14:20Z</time><cmt>3.2 kmh</cmt></trkpt>
<trkpt lat="58.875752" lon="05.861357"><ele>25</ele><time>2012-03-31T15:14:21Z</time><cmt>4.2 kmh</cmt></trkpt>
<trkpt lat="58.875757" lon="05.861338"><ele>25</ele><time>2012-03-31T15:14:22Z</time><cmt>4.5 kmh</cmt></trkpt>
<trkpt lat="58.875761" lon="05.861320"><ele>25</ele><time>2012-03-31T15:14:23Z</time><cmt>4.6 kmh</cmt></trkpt>
<trkpt lat="58.875766" lon="05.861302"><ele>25</ele><time>2012-03-31T15:14:24Z</time><cmt>4.5 kmh</cmt></trkpt>
<trkpt lat="58.875771" lon="05.861284"><ele>25</ele><time>2012-03-31T15:14:25Z</time><cmt>3.7 kmh</cmt></trkpt>
<trkpt lat="58.875775" lon="05.861267"><ele>26</ele><time>2012-03-31T15:14:26Z</time><cmt>3.6 kmh</cmt></trkpt>
<trkpt lat="58.875779" lon="05.861251"><ele>26</ele><time>2012-03-31T15:14:27Z</time><cmt>4.1 kmh</cmt></trkpt>
<trkpt lat="58.875784" lon="05.861238"><ele>26</ele><time>2012-03-31T15:14:28Z</time><cmt>3.7 kmh</cmt></trkpt>
<trkpt lat="58.875787" lon="05.861228"><ele>26</ele><time>2012-03-31T15:14:29Z</time><cmt>3.1 kmh</cmt></trkpt>
<trkpt lat="58.875791" lon="05.861219"><ele>26</ele><time>2012-03-31T15:14:30Z</time><cmt>2.6 kmh</cmt></trkpt>
<trkpt lat="58.875794" lon="05.861211"><ele>26</ele><time>2012-03-31T15:14:31Z</time><cmt>2.4 kmh</cmt></trkpt>
<trkpt lat="58.875798" lon="05.861202"><ele>26</ele><time>2012-03-31T15:14:32Z</time><cmt>2.0 kmh</cmt></trkpt>
<trkpt lat="58.875802" lon="05.861193"><ele>26</ele><time>2012-03-31T15:14:33Z</time><cmt>2.1 kmh</cmt></trkpt>
<trkpt lat="58.875807" lon="05.861186"><ele>26</ele><time>2012-03-31T15:14:34Z</time><cmt>2.5 kmh</cmt></trkpt>
<trkpt lat="58.875811" lon="05.861179"><ele>26</ele><time>2012-03-31T15:14:35Z</time><cmt>2.4 kmh</cmt></trkpt>
<trkpt lat="58.875816" lon="05.861169"><ele>26</ele><time>2012-03-31T15:14:36Z</time><cmt>2.8 kmh</cmt></trkpt>
<trkpt lat="58.875820" lon="05.861159"><ele>26</ele><time>2012-03-31T15:14:37Z</time><cmt>3.1 kmh</cmt></trkpt>
<trkpt lat="58.875824" lon="05.861150"><ele>26</ele><time>2012-03-31T15:14:38Z</time><cmt>2.2 kmh</cmt></trkpt>
<trkpt lat="58.875828" lon="05.861141"><ele>26</ele><time>2012-03-31T15:14:39Z</time><cmt>2.1 kmh</cmt></trkpt>
<trkpt lat="58.875832" lon="05.861130"><ele>26</ele><time>2012-03-31T15:14:40Z</time><cmt>2.7 kmh</cmt></trkpt>
<trkpt lat="58.875835" lon="05.861120"><ele>26</ele><time>2012-03-31T15:14:41Z</time><cmt>2.8 kmh</cmt></trkpt>
<trkpt lat="58.875838" lon="05.861109"><ele>26</ele><time>2012-03-31T15:14:42Z</time><cmt>2.8 kmh</cmt></trkpt>
<trkpt lat="58.875842" lon="05.861098"><ele>26</ele><time>2012-03-31T15:14:43Z</time><cmt>2.8 kmh</cmt></trkpt>
<trkpt lat="58.875845" lon="05.861086"><ele>27</ele><time>2012-03-31T15:14:44Z</time><cmt>2.3 kmh</cmt></trkpt>
<trkpt lat="58.875848" lon="05.861074"><ele>27</ele><time>2012-03-31T15:14:45Z</time><cmt>2.3 kmh</cmt></trkpt>
<trkpt lat="58.875850" lon="05.861060"><ele>27</ele><time>2012-03-31T15:14:46Z</time><cmt>3.1 kmh</cmt></trkpt>
<trkpt lat="58.875854" lon="05.861045"><ele>27</ele><time>2012-03-31T15:14:47Z</time><cmt>3.5 kmh</cmt></trkpt>
<trkpt lat="58.875857" lon="05.861030"><ele>27</ele><time>2012-03-31T15:14:48Z</time><cmt>3.6 kmh</cmt></trkpt>
<trkpt lat="58.875860" lon="05.861016"><ele>27</ele><time>2012-03-31T15:14:49Z</time><cmt>3.5 kmh</cmt></trkpt>
<trkpt lat="58.875863" lon="05.861001"><ele>27</ele><time>2012-03-31T15:14:50Z</time><cmt>2.8 kmh</cmt></trkpt>
<trkpt lat="58.875866" lon="05.860987"><ele>27</ele><time>2012-03-31T15:14:51Z</time><cmt>2.7 kmh</cmt></trkpt>
<trkpt lat="58.875868" lon="05.860974"><ele>27</ele><time>2012-03-31T15:14:52Z</time><cmt>3.2 kmh</cmt></trkpt>
<trkpt lat="58.875870" lon="05.860962"><ele>27</ele><time>2012-03-31T15:14:53Z</time><cmt>3.0 kmh</cmt></trkpt>
<trkpt lat="58.875872" lon="05.860949"><ele>27</ele><time>2012-03-31T15:14:54Z</time><cmt>2.9 kmh</cmt></trkpt>
<trkpt lat="58.875875" lon="05.860937"><ele>27</ele><time>2012-03-31T15:14:55Z</time><cmt>3.0 kmh</cmt></trkpt>
<trkpt lat="58.875878" lon="05.860923"><ele>27</ele><time>2012-03-31T15:14:56Z</time><cmt>2.5 kmh</cmt></trkpt>
<trkpt lat="58.875881" lon="05.860909"><ele>27</ele><time>2012-03-31T15:14:57Z</time><cmt>2.7 kmh</cmt></trkpt>
<trkpt lat="58.875884" lon="05.860896"><ele>27</ele><time>2012-03-31T15:14:58Z</time><cmt>3.3 kmh</cmt></trkpt>
<trkpt lat="58.875888" lon="05.860881"><ele>27</ele><time>2012-03-31T15:14:59Z</time><cmt>3.5 kmh</cmt></trkpt>
<trkpt lat="58.875891" lon="05.860865"><ele>27</ele><time>2012-03-31T15:15:00Z</time><cmt>3.7 kmh</cmt></trkpt>
<trkpt lat="58.875895" lon="05.860850"><ele>27</ele><time>2012-03-31T15:15:01Z</time><cmt>3.8 kmh</cmt></trkpt>
<trkpt lat="58.875899" lon="05.860834"><ele>27</ele><time>2012-03-31T15:15:02Z</time><cmt>3.1 kmh</cmt></trkpt>
<trkpt lat="58.875903" lon="05.860819"><ele>27</ele><time>2012-03-31T15:15:03Z</time><cmt>3.1 kmh</cmt></trkpt>
<trkpt lat="58.875907" lon="05.860802"><ele>27</ele><time>2012-03-31T15:15:04Z</time><cmt>3.9 kmh</cmt></trkpt>
<trkpt lat="58.875910" lon="05.860786"><ele>27</ele><time>2012-03-31T15:15:05Z</time><cmt>4.0 kmh</cmt></trkpt>
<trkpt lat="58.875914" lon="05.860773"><ele>27</ele><time>2012-03-31T15:15:06Z</time><cmt>3.7 kmh</cmt></trkpt>
<trkpt lat="58.875918" lon="05.860759"><ele>27</ele><time>2012-03-31T15:15:07Z</time><cmt>3.5 kmh</cmt></trkpt>
<trkpt lat="58.875922" lon="05.860744"><ele>27</ele><time>2012-03-31T15:15:08Z</time><cmt>3.7 kmh</cmt></trkpt>
<trkpt lat="58.875927" lon="05.860727"><ele>27</ele><time>2012-03-31T15:15:09Z</time><cmt>3.2 kmh</cmt></trkpt>
<trkpt lat="58.875931" lon="05.860711"><ele>27</ele><time>2012-03-31T15:15:10Z</time><cmt>3.3 kmh</cmt></trkpt>
<trkpt lat="58.875936" lon="05.860694"><ele>27</ele><time>2012-03-31T15:15:11Z</time><cmt>4.2 kmh</cmt></trkpt>
<trkpt lat="58.875941" lon="05.860679"><ele>27</ele><time>2012-03-31T15:15:12Z</time><cmt>4.1 kmh</cmt></trkpt>
<trkpt lat="58.875946" lon="05.860664"><ele>27</ele><time>2012-03-31T15:15:13Z</time><cmt>4.1 kmh</cmt></trkpt>
<trkpt lat="58.875952" lon="05.860648"><ele>27</ele><time>2012-03-31T15:15:14Z</time><cmt>4.2 kmh</cmt></trkpt>
<trkpt lat="58.875957" lon="05.860632"><ele>27</ele><time>2012-03-31T15:15:15Z</time><cmt>3.4 kmh</cmt></trkpt>
<trkpt lat="58.875962" lon="05.860618"><ele>27</ele><time>2012-03-31T15:15:16Z</time><cmt>3.2 kmh</cmt></trkpt>
<trkpt lat="58.875967" lon="05.860605"><ele>27</ele><time>2012-03-31T15:15:17Z</time><cmt>3.6 kmh</cmt></trkpt>
<trkpt lat="58.875972" lon="05.860590"><ele>27</ele><time>2012-03-31T15:15:18Z</time><cmt>3.7 kmh</cmt></trkpt>
<trkpt lat="58.875976" lon="05.860576"><ele>27</ele><time>2012-03-31T15:15:19Z</time><cmt>3.8 kmh</cmt></trkpt>
<trkpt lat="58.875980" lon="05.860563"><ele>26</ele><time>2012-03-31T15:15:20Z</time><cmt>3.6 kmh</cmt></trkpt>
<trkpt lat="58.875985" lon="05.860547"><ele>26</ele><time>2012-03-31T15:15:21Z</time><cmt>3.0 kmh</cmt></trkpt>
<trkpt lat="58.875991" lon="05.860530"><ele>26</ele><time>2012-03-31T15:15:22Z</time><cmt>3.4 kmh</cmt></trkpt>
<trkpt lat="58.875998" lon="05.860514"><ele>26</ele><time>2012-03-31T15:15:23Z</time><cmt>4.7 kmh</cmt></trkpt>
<trkpt lat="58.876004" lon="05.860499"><ele>26</ele><time>2012-03-31T15:15:24Z</time><cmt>4.4 kmh</cmt></trkpt>
<trkpt lat="58.876010" lon="05.860485"><ele>26</ele><time>2012-03-31T15:15:25Z</time><cmt>4.2 kmh</cmt></trkpt>
<trkpt lat="58.876017" lon="05.860472"><ele>26</ele><time>2012-03-31T15:15:26Z</time><cmt>4.2 kmh</cmt></trkpt>
<trkpt lat="58.876024" lon="05.860460"><ele>26</ele><time>2012-03-31T15:15:27Z</time><cmt>3.4 kmh</cmt></trkpt>
<trkpt lat="58.876032" lon="05.860448"><ele>26</ele><time>2012-03-31T15:15:28Z</time><cmt>3.4 kmh</cmt></trkpt>
<trkpt lat="58.876039" lon="05.860437"><ele>26</ele><time>2012-03-31T15:15:29Z</time><cmt>4.1 kmh</cmt></trkpt>
<trkpt lat="58.876046" lon="05.860427"><ele>26</ele><time>2012-03-31T15:15:30Z</time><cmt>3.9 kmh</cmt></trkpt>
<trkpt lat="58.876053" lon="05.860418"><ele>26</ele><time>2012-03-31T15:15:31Z</time><cmt>3.7 kmh</cmt></trkpt>
<trkpt lat="58.876061" lon="05.860409"><ele>26</ele><time>2012-03-31T15:15:32Z</time><cmt>3.7 kmh</cmt></trkpt>
<trkpt lat="58.876069" lon="05.860401"><ele>26</ele><time>2012-03-31T15:15:33Z</time><cmt>3.1 kmh</cmt></trkpt>
<trkpt lat="58.876076" lon="05.860393"><ele>26</ele><time>2012-03-31T15:15:34Z</time><cmt>3.0 kmh</cmt></trkpt>
<trkpt lat="58.876084" lon="05.860385"><ele>26</ele><time>2012-03-31T15:15:35Z</time><cmt>3.7 kmh</cmt></trkpt>
<trkpt lat="58.876091" lon="05.860379"><ele>26</ele><time>2012-03-31T15:15:36Z</time><cmt>3.7 kmh</cmt></trkpt>
<trkpt lat="58.876099" lon="05.860371"><ele>26</ele><time>2012-03-31T15:15:37Z</time><cmt>3.7 kmh</cmt></trkpt>
<trkpt lat="58.876107" lon="05.860362"><ele>26</ele><time>2012-03-31T15:15:38Z</time><cmt>4.0 kmh</cmt></trkpt>
<trkpt lat="58.876116" lon="05.860355"><ele>26</ele><time>2012-03-31T15:15:39Z</time><cmt>4.0 kmh</cmt></trkpt>
<trkpt lat="58.876124" lon="05.860346"><ele>26</ele><time>2012-03-31T15:15:40Z</time><cmt>3.3 kmh</cmt></trkpt>
<trkpt lat="58.876134" lon="05.860338"><ele>26</ele><time>2012-03-31T15:15:41Z</time><cmt>3.4 kmh</cmt></trkpt>
<trkpt lat="58.876143" lon="05.860331"><ele>26</ele><time>2012-03-31T15:15:42Z</time><cmt>4.4 kmh</cmt></trkpt>
<trkpt lat="58.876152" lon="05.860323"><ele>26</ele><time>2012-03-31T15:15:43Z</time><cmt>4.3 kmh</cmt></trkpt>
<trkpt lat="58.876162" lon="05.860316"><ele>26</ele><time>2012-03-31T15:15:44Z</time><cmt>4.3 kmh</cmt></trkpt>
<trkpt lat="58.876170" lon="05.860310"><ele>26</ele><time>2012-03-31T15:15:45Z</time><cmt>4.2 kmh</cmt></trkpt>
<trkpt lat="58.876179" lon="05.860303"><ele>26</ele><time>2012-03-31T15:15:46Z</time><cmt>3.3 kmh</cmt></trkpt>
<trkpt lat="58.876189" lon="05.860296"><ele>26</ele><time>2012-03-31T15:15:47Z</time><cmt>3.4 kmh</cmt></trkpt>
<trkpt lat="58.876198" lon="05.860288"><ele>26</ele><time>2012-03-31T15:15:48Z</time><cmt>4.4 kmh</cmt></trkpt>
<trkpt lat="58.876207" lon="05.860281"><ele>26</ele><time>2012-03-31T15:15:49Z</time><cmt>4.3 kmh</cmt></trkpt>
<trkpt lat="58.876216" lon="05.860273"><ele>26</ele><time>2012-03-31T15:15:50Z</time><cmt>4.2 kmh</cmt></trkpt>
<trkpt lat="58.876225" lon="05.860266"><ele>26</ele><time>2012-03-31T15:15:51Z</time><cmt>4.2 kmh</cmt></trkpt>
<trkpt lat="58.876233" lon="05.860258"><ele>26</ele><time>2012-03-31T15:15:52Z</time><cmt>3.3 kmh</cmt></trkpt>
<trkpt lat="58.876242" lon="05.860251"><ele>26</ele><time>2012-03-31T15:15:53Z</time><cmt>3.3 kmh</cmt></trkpt>
<trkpt lat="58.876251" lon="05.860243"><ele>26</ele><time>2012-03-31T15:15:54Z</time><cmt>4.1 kmh</cmt></trkpt>
<trkpt lat="58.876260" lon="05.860237"><ele>26</ele><time>2012-03-31T15:15:55Z</time><cmt>4.1 kmh</cmt></trkpt>
<trkpt lat="58.876269" lon="05.860230"><ele>26</ele><time>2012-03-31T15:15:56Z</time><cmt>4.1 kmh</cmt></trkpt>
<trkpt lat="58.876277" lon="05.860223"><ele>25</ele><time>2012-03-31T15:15:57Z</time><cmt>4.2 kmh</cmt></trkpt>
<trkpt lat="58.876287" lon="05.860215"><ele>25</ele><time>2012-03-31T15:15:58Z</time><cmt>3.4 kmh</cmt></trkpt>
<trkpt lat="58.876296" lon="05.860207"><ele>25</ele><time>2012-03-31T15:15:59Z</time><cmt>3.6 kmh</cmt></trkpt>
<trkpt lat="58.876307" lon="05.860198"><ele>25</ele><time>2012-03-31T15:16:00Z</time><cmt>4.7 kmh</cmt></trkpt>
<trkpt lat="58.876317" lon="05.860188"><ele>25</ele><time>2012-03-31T15:16:01Z</time><cmt>4.9 kmh</cmt></trkpt>
<trkpt lat="58.876327" lon="05.860179"><ele>25</ele><time>2012-03-31T15:16:02Z</time><cmt>4.8 kmh</cmt></trkpt>
<trkpt lat="58.876336" lon="05.860170"><ele>25</ele><time>2012-03-31T15:16:03Z</time><cmt>4.7 kmh</cmt></trkpt>
<trkpt lat="58.876346" lon="05.860161"><ele>25</ele><time>2012-03-31T15:16:04Z</time><cmt>3.7 kmh</cmt></trkpt>
<trkpt lat="58.876355" lon="05.860152"><ele>25</ele><time>2012-03-31T15:16:05Z</time><cmt>3.6 kmh</cmt></trkpt>
<trkpt lat="58.876364" lon="05.860143"><ele>25</ele><time>2012-03-31T15:16:06Z</time><cmt>4.3 kmh</cmt></trkpt>
<trkpt lat="58.876373" lon="05.860135"><ele>25</ele><time>2012-03-31T15:16:07Z</time><cmt>4.3 kmh</cmt></trkpt>
<trkpt lat="58.876382" lon="05.860126"><ele>25</ele><time>2012-03-31T15:16:08Z</time><cmt>4.4 kmh</cmt></trkpt>
<trkpt lat="58.876390" lon="05.860117"><ele>25</ele><time>2012-03-31T15:16:09Z</time><cmt>4.3 kmh</cmt></trkpt>
<trkpt lat="58.876399" lon="05.860108"><ele>25</ele><time>2012-03-31T15:16:10Z</time><cmt>4.1 kmh</cmt></trkpt>
<trkpt lat="58.876407" lon="05.860099"><ele>25</ele><time>2012-03-31T15:16:11Z</time><cmt>3.2 kmh</cmt></trkpt>
<trkpt lat="58.876415" lon="05.860090"><ele>25</ele><time>2012-03-31T15:16:12Z</time><cmt>3.2 kmh</cmt></trkpt>
<trkpt lat="58.876423" lon="05.860081"><ele>25</ele><time>2012-03-31T15:16:13Z</time><cmt>4.1 kmh</cmt></trkpt>
<trkpt lat="58.876431" lon="05.860072"><ele>25</ele><time>2012-03-31T15:16:14Z</time><cmt>4.1 kmh</cmt></trkpt>
<trkpt lat="58.876439" lon="05.860062"><ele>25</ele><time>2012-03-31T15:16:15Z</time><cmt>4.1 kmh</cmt></trkpt>
<trkpt lat="58.876447" lon="05.860053"><ele>25</ele><time>2012-03-31T15:16:16Z</time><cmt>4.1 kmh</cmt></trkpt>
<trkpt lat="58.876455" lon="05.860043"><ele>25</ele><time>2012-03-31T15:16:17Z</time><cmt>3.3 kmh</cmt></trkpt>
<trkpt lat="58.876464" lon="05.860034"><ele>25</ele><time>2012-03-31T15:16:18Z</time><cmt>3.3 kmh</cmt></trkpt>
<trkpt lat="58.876472" lon="05.860024"><ele>25</ele><time>2012-03-31T15:16:19Z</time><cmt>4.2 kmh</cmt></trkpt>
<trkpt lat="58.876481" lon="05.860014"><ele>25</ele><time>2012-03-31T15:16:20Z</time><cmt>4.3 kmh</cmt></trkpt>
<trkpt lat="58.876489" lon="05.860003"><ele>25</ele><time>2012-03-31T15:16:21Z</time><cmt>4.3 kmh</cmt></trkpt>
<trkpt lat="58.876497" lon="05.859992"><ele>25</ele><time>2012-03-31T15:16:22Z</time><cmt>4.4 kmh</cmt></trkpt>
<trkpt lat="58.876506" lon="05.859980"><ele>25</ele><time>2012-03-31T15:16:23Z</time><cmt>3.5 kmh</cmt></trkpt>
<trkpt lat="58.876514" lon="05.859969"><ele>25</ele><time>2012-03-31T15:16:24Z</time><cmt>3.5 kmh</cmt></trkpt>
<trkpt lat="58.876522" lon="05.859959"><ele>25</ele><time>2012-03-31T15:16:25Z</time><cmt>4.2 kmh</cmt></trkpt>
<trkpt lat="58.876530" lon="05.859948"><ele>25</ele><time>2012-03-31T15:16:26Z</time><cmt>4.3 kmh</cmt></trkpt>
<trkpt lat="58.876539" lon="05.859937"><ele>25</ele><time>2012-03-31T15:16:27Z</time><cmt>4.4 kmh</cmt></trkpt>
<trkpt lat="58.876547" lon="05.859927"><ele>25</ele><time>2012-03-31T15:16:28Z</time><cmt>4.4 kmh</cmt></trkpt>
<trkpt lat="58.876555" lon="05.859917"><ele>25</ele><time>2012-03-31T15:16:29Z</time><cmt>3.3 kmh</cmt></trkpt>
<trkpt lat="58.876563" lon="05.859908"><ele>25</ele><time>2012-03-31T15:16:30Z</time><cmt>3.3 kmh</cmt></trkpt>
<trkpt lat="58.876571" lon="05.859898"><ele>25</ele><time>2012-03-31T15:16:31Z</time><cmt>4.0 kmh</cmt></trkpt>
<trkpt lat="58.876579" lon="05.859889"><ele>25</ele><time>2012-03-31T15:16:32Z</time><cmt>3.9 kmh</cmt></trkpt>
<trkpt lat="58.876587" lon="05.859881"><ele>25</ele><time>2012-03-31T15:16:33Z</time><cmt>3.9 kmh</cmt></trkpt>
<trkpt lat="58.876595" lon="05.859873"><ele>25</ele><time>2012-03-31T15:16:34Z</time><cmt>4.0 kmh</cmt></trkpt>
<trkpt lat="58.876603" lon="05.859864"><ele>25</ele><time>2012-03-31T15:16:35Z</time><cmt>3.2 kmh</cmt></trkpt>
<trkpt lat="58.876612" lon="05.859856"><ele>25</ele><time>2012-03-31T15:16:36Z</time><cmt>3.3 kmh</cmt></trkpt>
<trkpt lat="58.876620" lon="05.859848"><ele>25</ele><time>2012-03-31T15:16:37Z</time><cmt>4.2 kmh</cmt></trkpt>
<trkpt lat="58.876629" lon="05.859839"><ele>25</ele><time>2012-03-31T15:16:38Z</time><cmt>4.2 kmh</cmt></trkpt>
<trkpt lat="58.876638" lon="05.859829"><ele>25</ele><time>2012-03-31T15:16:39Z</time><cmt>4.3 kmh</cmt></trkpt>
<trkpt lat="58.876646" lon="05.859818"><ele>25</ele><time>2012-03-31T15:16:40Z</time><cmt>4.3 kmh</cmt></trkpt>
<trkpt lat="58.876654" lon="05.859808"><ele>25</ele><time>2012-03-31T15:16:41Z</time><cmt>4.2 kmh</cmt></trkpt>
<trkpt lat="58.876661" lon="05.859797"><ele>25</ele><time>2012-03-31T15:16:42Z</time><cmt>3.2 kmh</cmt></trkpt>
<trkpt lat="58.876668" lon="05.859785"><ele>25</ele><time>2012-03-31T15:16:43Z</time><cmt>3.2 kmh</cmt></trkpt>
<trkpt lat="58.876675" lon="05.859775"><ele>25</ele><time>2012-03-31T15:16:44Z</time><cmt>3.9 kmh</cmt></trkpt>
<trkpt lat="58.876681" lon="05.859764"><ele>25</ele><time>2012-03-31T15:16:45Z</time><cmt>3.7 kmh</cmt></trkpt>
<trkpt lat="58.876688" lon="05.859752"><ele>25</ele><time>2012-03-31T15:16:46Z</time><cmt>3.8 kmh</cmt></trkpt>
<trkpt lat="58.876694" lon="05.859742"><ele>25</ele><time>2012-03-31T15:16:47Z</time><cmt>3.7 kmh</cmt></trkpt>
<trkpt lat="58.876709" lon="05.859715"><ele>25</ele><time>2012-03-31T15:16:50Z</time><cmt>2.5 kmh</cmt></trkpt>
<trkpt lat="58.876729" lon="05.859679"><ele>25</ele><time>2012-03-31T15:16:53Z</time><cmt>4.0 kmh</cmt></trkpt>
<trkpt lat="58.876743" lon="05.859654"><ele>25</ele><time>2012-03-31T15:16:55Z</time><cmt>3.3 kmh</cmt></trkpt>
<trkpt lat="58.876758" lon="05.859628"><ele>25</ele><time>2012-03-31T15:16:57Z</time><cmt>5.0 kmh</cmt></trkpt>
<trkpt lat="58.876774" lon="05.859600"><ele>25</ele><time>2012-03-31T15:16:59Z</time><cmt>4.5 kmh</cmt></trkpt>
<trkpt lat="58.876793" lon="05.859572"><ele>25</ele><time>2012-03-31T15:17:02Z</time><cmt>3.0 kmh</cmt></trkpt>
<trkpt lat="58.876813" lon="05.859543"><ele>25</ele><time>2012-03-31T15:17:05Z</time><cmt>3.5 kmh</cmt></trkpt>
<trkpt lat="58.876832" lon="05.859512"><ele>25</ele><time>2012-03-31T15:17:08Z</time><cmt>3.1 kmh</cmt></trkpt>
<trkpt lat="58.876855" lon="05.859482"><ele>24</ele><time>2012-03-31T15:17:11Z</time><cmt>3.9 kmh</cmt></trkpt>
<trkpt lat="58.876879" lon="05.859460"><ele>24</ele><time>2012-03-31T15:17:14Z</time><cmt>3.4 kmh</cmt></trkpt>
<trkpt lat="58.876901" lon="05.859447"><ele>24</ele><time>2012-03-31T15:17:17Z</time><cmt>3.3 kmh</cmt></trkpt>
<trkpt lat="58.876925" lon="05.859441"><ele>24</ele><time>2012-03-31T15:17:20Z</time><cmt>2.9 kmh</cmt></trkpt>
<trkpt lat="58.876953" lon="05.859432"><ele>24</ele><time>2012-03-31T15:17:23Z</time><cmt>4.1 kmh</cmt></trkpt>
<trkpt lat="58.876973" lon="05.859422"><ele>24</ele><time>2012-03-31T15:17:25Z</time><cmt>5.0 kmh</cmt></trkpt>
<trkpt lat="58.876997" lon="05.859408"><ele>24</ele><time>2012-03-31T15:17:28Z</time><cmt>3.6 kmh</cmt></trkpt>
<trkpt lat="58.877019" lon="05.859392"><ele>24</ele><time>2012-03-31T15:17:31Z</time><cmt>3.0 kmh</cmt></trkpt>
<trkpt lat="58.877038" lon="05.859376"><ele>24</ele><time>2012-03-31T15:17:33Z</time><cmt>5.3 kmh</cmt></trkpt>
<trkpt lat="58.877056" lon="05.859360"><ele>24</ele><time>2012-03-31T15:17:35Z</time><cmt>5.3 kmh</cmt></trkpt>
<trkpt lat="58.877073" lon="05.859342"><ele>24</ele><time>2012-03-31T15:17:37Z</time><cmt>3.8 kmh</cmt></trkpt>
<trkpt lat="58.877091" lon="05.859324"><ele>24</ele><time>2012-03-31T15:17:39Z</time><cmt>3.8 kmh</cmt></trkpt>
<trkpt lat="58.877111" lon="05.859306"><ele>24</ele><time>2012-03-31T15:17:41Z</time><cmt>4.5 kmh</cmt></trkpt>
<trkpt lat="58.877130" lon="05.859287"><ele>24</ele><time>2012-03-31T15:17:43Z</time><cmt>4.7 kmh</cmt></trkpt>
<trkpt lat="58.877148" lon="05.859269"><ele>24</ele><time>2012-03-31T15:17:45Z</time><cmt>3.6 kmh</cmt></trkpt>
<trkpt lat="58.877166" lon="05.859249"><ele>24</ele><time>2012-03-31T15:17:47Z</time><cmt>5.0 kmh</cmt></trkpt>
<trkpt lat="58.877182" lon="05.859231"><ele>24</ele><time>2012-03-31T15:17:49Z</time><cmt>4.2 kmh</cmt></trkpt>
<trkpt lat="58.877208" lon="05.859202"><ele>24</ele><time>2012-03-31T15:17:52Z</time><cmt>3.6 kmh</cmt></trkpt>
<trkpt lat="58.877213" lon="05.859196"><ele>24</ele><time>2012-03-31T15:17:53Z</time><cmt>5.0 kmh</cmt></trkpt>
<trkpt lat="58.877220" lon="05.859189"><ele>24</ele><time>2012-03-31T15:17:54Z</time><cmt>2.9 kmh</cmt></trkpt>
<trkpt lat="58.877226" lon="05.859181"><ele>24</ele><time>2012-03-31T15:17:55Z</time><cmt>3.2 kmh</cmt></trkpt>
<trkpt lat="58.877233" lon="05.859173"><ele>24</ele><time>2012-03-31T15:17:56Z</time><cmt>2.8 kmh</cmt></trkpt>
<trkpt lat="58.877241" lon="05.859165"><ele>24</ele><time>2012-03-31T15:17:57Z</time><cmt>2.9 kmh</cmt></trkpt>
<trkpt lat="58.877248" lon="05.859157"><ele>24</ele><time>2012-03-31T15:17:58Z</time><cmt>3.7 kmh</cmt></trkpt>
<trkpt lat="58.877256" lon="05.859149"><ele>24</ele><time>2012-03-31T15:17:59Z</time><cmt>3.7 kmh</cmt></trkpt>
<trkpt lat="58.877263" lon="05.859140"><ele>24</ele><time>2012-03-31T15:18:00Z</time><cmt>3.8 kmh</cmt></trkpt>
<trkpt lat="58.877270" lon="05.859132"><ele>24</ele><time>2012-03-31T15:18:01Z</time><cmt>3.7 kmh</cmt></trkpt>
<trkpt lat="58.877277" lon="05.859124"><ele>24</ele><time>2012-03-31T15:18:02Z</time><cmt>2.8 kmh</cmt></trkpt>
<trkpt lat="58.877284" lon="05.859116"><ele>24</ele><time>2012-03-31T15:18:03Z</time><cmt>2.8 kmh</cmt></trkpt>
<trkpt lat="58.877291" lon="05.859109"><ele>24</ele><time>2012-03-31T15:18:04Z</time><cmt>3.5 kmh</cmt></trkpt>
<trkpt lat="58.877298" lon="05.859100"><ele>24</ele><time>2012-03-31T15:18:05Z</time><cmt>3.6 kmh</cmt></trkpt>
<trkpt lat="58.877306" lon="05.859091"><ele>24</ele><time>2012-03-31T15:18:06Z</time><cmt>3.8 kmh</cmt></trkpt>
<trkpt lat="58.877313" lon="05.859081"><ele>24</ele><time>2012-03-31T15:18:07Z</time><cmt>3.9 kmh</cmt></trkpt>
<trkpt lat="58.877321" lon="05.859072"><ele>24</ele><time>2012-03-31T15:18:08Z</time><cmt>3.0 kmh</cmt></trkpt>
<trkpt lat="58.877328" lon="05.859064"><ele>24</ele><time>2012-03-31T15:18:09Z</time><cmt>3.0 kmh</cmt></trkpt>
<trkpt lat="58.877335" lon="05.859056"><ele>24</ele><time>2012-03-31T15:18:10Z</time><cmt>3.5 kmh</cmt></trkpt>
<trkpt lat="58.877342" lon="05.859047"><ele>24</ele><time>2012-03-31T15:18:11Z</time><cmt>3.5 kmh</cmt></trkpt>
<trkpt lat="58.877350" lon="05.859037"><ele>24</ele><time>2012-03-31T15:18:12Z</time><cmt>3.9 kmh</cmt></trkpt>
<trkpt lat="58.877358" lon="05.859027"><ele>24</ele><time>2012-03-31T15:18:13Z</time><cmt>4.1 kmh</cmt></trkpt>
<trkpt lat="58.877364" lon="05.859018"><ele>24</ele><time>2012-03-31T15:18:14Z</time><cmt>3.8 kmh</cmt></trkpt>
<trkpt lat="58.877370" lon="05.859009"><ele>24</ele><time>2012-03-31T15:18:15Z</time><cmt>2.7 kmh</cmt></trkpt>
<trkpt lat="58.877375" lon="05.859000"><ele>24</ele><time>2012-03-31T15:18:16Z</time><cmt>2.5 kmh</cmt></trkpt>
<trkpt lat="58.877379" lon="05.858991"><ele>24</ele><time>2012-03-31T15:18:17Z</time><cmt>2.8 kmh</cmt></trkpt>
<trkpt lat="58.877392" lon="05.858959"><ele>24</ele><time>2012-03-31T15:18:21Z</time><cmt>2.0 kmh</cmt></trkpt>
<trkpt lat="58.877406" lon="05.858926"><ele>24</ele><time>2012-03-31T15:18:24Z</time><cmt>3.1 kmh</cmt></trkpt>
<trkpt lat="58.877419" lon="05.858894"><ele>24</ele><time>2012-03-31T15:18:27Z</time><cmt>2.6 kmh</cmt></trkpt>
<trkpt lat="58.877443" lon="05.858843"><ele>24</ele><time>2012-03-31T15:18:32Z</time><cmt>5.0 kmh</cmt></trkpt>
<trkpt lat="58.877455" lon="05.858806"><ele>24</ele><time>2012-03-31T15:18:35Z</time><cmt>2.7 kmh</cmt></trkpt>
<trkpt lat="58.877470" lon="05.858770"><ele>24</ele><time>2012-03-31T15:18:39Z</time><cmt>2.3 kmh</cmt></trkpt>
<trkpt lat="58.877487" lon="05.858740"><ele>24</ele><time>2012-03-31T15:18:42Z</time><cmt>3.3 kmh</cmt></trkpt>
<trkpt lat="58.877508" lon="05.858709"><ele>24</ele><time>2012-03-31T15:18:45Z</time><cmt>3.8 kmh</cmt></trkpt>
<trkpt lat="58.877530" lon="05.858679"><ele>24</ele><time>2012-03-31T15:18:48Z</time><cmt>3.3 kmh</cmt></trkpt>
<trkpt lat="58.877549" lon="05.858654"><ele>24</ele><time>2012-03-31T15:18:51Z</time><cmt>3.3 kmh</cmt></trkpt>
<trkpt lat="58.877571" lon="05.858625"><ele>24</ele><time>2012-03-31T15:18:55Z</time><cmt>3.8 kmh</cmt></trkpt>
<trkpt lat="58.877587" lon="05.858598"><ele>24</ele><time>2012-03-31T15:18:58Z</time><cmt>2.6 kmh</cmt></trkpt>
<trkpt lat="58.877602" lon="05.858555"><ele>24</ele><time>2012-03-31T15:19:02Z</time><cmt>2.9 kmh</cmt></trkpt>
<trkpt lat="58.877615" lon="05.858513"><ele>24</ele><time>2012-03-31T15:19:05Z</time><cmt>3.2 kmh</cmt></trkpt>
<trkpt lat="58.877633" lon="05.858459"><ele>24</ele><time>2012-03-31T15:19:08Z</time><cmt>5.2 kmh</cmt></trkpt>
<trkpt lat="58.877652" lon="05.858410"><ele>24</ele><time>2012-03-31T15:19:11Z</time><cmt>3.9 kmh</cmt></trkpt>
<trkpt lat="58.877668" lon="05.858375"><ele>24</ele><time>2012-03-31T15:19:14Z</time><cmt>3.5 kmh</cmt></trkpt>
<trkpt lat="58.877685" lon="05.858316"><ele>24</ele><time>2012-03-31T15:19:31Z</time><cmt>6.0 kmh</cmt></trkpt>
<trkpt lat="58.877695" lon="05.858268"><ele>24</ele><time>2012-03-31T15:19:33Z</time><cmt>6.3 kmh</cmt></trkpt>
<trkpt lat="58.877705" lon="05.858210"><ele>24</ele><time>2012-03-31T15:19:35Z</time><cmt>7.3 kmh</cmt></trkpt>
<trkpt lat="58.877716" lon="05.858147"><ele>24</ele><time>2012-03-31T15:19:37Z</time><cmt>7.4 kmh</cmt></trkpt>
<trkpt lat="58.877730" lon="05.858079"><ele>24</ele><time>2012-03-31T15:19:39Z</time><cmt>7.5 kmh</cmt></trkpt>
<trkpt lat="58.877740" lon="05.858013"><ele>24</ele><time>2012-03-31T15:19:41Z</time><cmt>7.2 kmh</cmt></trkpt>
<trkpt lat="58.877747" lon="05.857955"><ele>24</ele><time>2012-03-31T15:19:43Z</time><cmt>7.1 kmh</cmt></trkpt>
<trkpt lat="58.877756" lon="05.857895"><ele>24</ele><time>2012-03-31T15:19:45Z</time><cmt>6.7 kmh</cmt></trkpt>
<trkpt lat="58.877768" lon="05.857832"><ele>24</ele><time>2012-03-31T15:19:47Z</time><cmt>7.1 kmh</cmt></trkpt>
<trkpt lat="58.877782" lon="05.857772"><ele>24</ele><time>2012-03-31T15:19:49Z</time><cmt>6.5 kmh</cmt></trkpt>
<trkpt lat="58.877798" lon="05.857711"><ele>24</ele><time>2012-03-31T15:19:51Z</time><cmt>6.7 kmh</cmt></trkpt>
<trkpt lat="58.877823" lon="05.857639"><ele>24</ele><time>2012-03-31T15:19:54Z</time><cmt>5.3 kmh</cmt></trkpt>
<trkpt lat="58.877849" lon="05.857574"><ele>25</ele><time>2012-03-31T15:19:57Z</time><cmt>5.9 kmh</cmt></trkpt>
<trkpt lat="58.877874" lon="05.857490"><ele>25</ele><time>2012-03-31T15:20:01Z</time><cmt>5.0 kmh</cmt></trkpt>
<trkpt lat="58.877888" lon="05.857356"><ele>26</ele><time>2012-03-31T15:20:15Z</time><cmt>5.0 kmh</cmt></trkpt>
<trkpt lat="58.877915" lon="05.857277"><ele>27</ele><time>2012-03-31T15:20:21Z</time><cmt>4.7 kmh</cmt></trkpt>
<trkpt lat="58.877973" lon="05.857193"><ele>28</ele><time>2012-03-31T15:20:31Z</time><cmt>5.0 kmh</cmt></trkpt>
<trkpt lat="58.878012" lon="05.857095"><ele>29</ele><time>2012-03-31T15:20:37Z</time><cmt>6.6 kmh</cmt></trkpt>
<trkpt lat="58.878051" lon="05.856976"><ele>29</ele><time>2012-03-31T15:20:42Z</time><cmt>6.1 kmh</cmt></trkpt>
<trkpt lat="58.878082" lon="05.856873"><ele>29</ele><time>2012-03-31T15:20:46Z</time><cmt>6.6 kmh</cmt></trkpt>
<trkpt lat="58.878107" lon="05.856771"><ele>30</ele><time>2012-03-31T15:20:50Z</time><cmt>5.3 kmh</cmt></trkpt>
<trkpt lat="58.878135" lon="05.856667"><ele>30</ele><time>2012-03-31T15:20:54Z</time><cmt>6.0 kmh</cmt></trkpt>
<trkpt lat="58.878161" lon="05.856572"><ele>30</ele><time>2012-03-31T15:20:58Z</time><cmt>5.3 kmh</cmt></trkpt>
<trkpt lat="58.878183" lon="05.856471"><ele>30</ele><time>2012-03-31T15:21:02Z</time><cmt>5.4 kmh</cmt></trkpt>
<trkpt lat="58.878212" lon="05.856368"><ele>30</ele><time>2012-03-31T15:21:06Z</time><cmt>5.3 kmh</cmt></trkpt>
<trkpt lat="58.878242" lon="05.856263"><ele>30</ele><time>2012-03-31T15:21:10Z</time><cmt>6.3 kmh</cmt></trkpt>
<trkpt lat="58.878268" lon="05.856161"><ele>30</ele><time>2012-03-31T15:21:14Z</time><cmt>5.9 kmh</cmt></trkpt>
<trkpt lat="58.878298" lon="05.856036"><ele>30</ele><time>2012-03-31T15:21:19Z</time><cmt>6.1 kmh</cmt></trkpt>
<trkpt lat="58.878322" lon="05.855931"><ele>30</ele><time>2012-03-31T15:21:23Z</time><cmt>5.7 kmh</cmt></trkpt>
<trkpt lat="58.878352" lon="05.855806"><ele>29</ele><time>2012-03-31T15:21:28Z</time><cmt>5.3 kmh</cmt></trkpt>
<trkpt lat="58.878389" lon="05.855707"><ele>29</ele><time>2012-03-31T15:21:32Z</time><cmt>5.4 kmh</cmt></trkpt>
<trkpt lat="58.878427" lon="05.855604"><ele>29</ele><time>2012-03-31T15:21:37Z</time><cmt>5.1 kmh</cmt></trkpt>
<trkpt lat="58.878464" lon="05.855505"><ele>30</ele><time>2012-03-31T15:21:42Z</time><cmt>5.2 kmh</cmt></trkpt>
<trkpt lat="58.878500" lon="05.855385"><ele>30</ele><time>2012-03-31T15:21:48Z</time><cmt>5.0 kmh</cmt></trkpt>
<trkpt lat="58.878527" lon="05.855250"><ele>31</ele><time>2012-03-31T15:21:54Z</time><cmt>5.6 kmh</cmt></trkpt>
<trkpt lat="58.878553" lon="05.855142"><ele>31</ele><time>2012-03-31T15:21:59Z</time><cmt>5.0 kmh</cmt></trkpt>
<trkpt lat="58.878578" lon="05.855032"><ele>31</ele><time>2012-03-31T15:22:05Z</time><cmt>5.0 kmh</cmt></trkpt>
<trkpt lat="58.878613" lon="05.854912"><ele>31</ele><time>2012-03-31T15:22:14Z</time><cmt>5.0 kmh</cmt></trkpt>
<trkpt lat="58.878659" lon="05.854810"><ele>31</ele><time>2012-03-31T15:22:21Z</time><cmt>5.0 kmh</cmt></trkpt>
<trkpt lat="58.878692" lon="05.854689"><ele>30</ele><time>2012-03-31T15:22:28Z</time><cmt>5.0 kmh</cmt></trkpt>
<trkpt lat="58.878744" lon="05.854572"><ele>30</ele><time>2012-03-31T15:22:34Z</time><cmt>5.3 kmh</cmt></trkpt>
<trkpt lat="58.878786" lon="05.854456"><ele>30</ele><time>2012-03-31T15:22:40Z</time><cmt>5.0 kmh</cmt></trkpt>
<trkpt lat="58.878832" lon="05.854322"><ele>29</ele><time>2012-03-31T15:22:47Z</time><cmt>5.1 kmh</cmt></trkpt>
<trkpt lat="58.878882" lon="05.854199"><ele>29</ele><time>2012-03-31T15:22:53Z</time><cmt>6.1 kmh</cmt></trkpt>
<trkpt lat="58.878941" lon="05.854068"><ele>29</ele><time>2012-03-31T15:22:59Z</time><cmt>7.0 kmh</cmt></trkpt>
<trkpt lat="58.878997" lon="05.853938"><ele>29</ele><time>2012-03-31T15:23:05Z</time><cmt>5.4 kmh</cmt></trkpt>
<trkpt lat="58.879039" lon="05.853814"><ele>29</ele><time>2012-03-31T15:23:11Z</time><cmt>5.3 kmh</cmt></trkpt>
<trkpt lat="58.879072" lon="05.853670"><ele>29</ele><time>2012-03-31T15:23:18Z</time><cmt>5.3 kmh</cmt></trkpt>
<trkpt lat="58.879121" lon="05.853540"><ele>29</ele><time>2012-03-31T15:23:25Z</time><cmt>5.1 kmh</cmt></trkpt>
<trkpt lat="58.879164" lon="05.853409"><ele>29</ele><time>2012-03-31T15:23:31Z</time><cmt>5.4 kmh</cmt></trkpt>
<trkpt lat="58.879212" lon="05.853274"><ele>29</ele><time>2012-03-31T15:23:37Z</time><cmt>6.8 kmh</cmt></trkpt>
<trkpt lat="58.879264" lon="05.853142"><ele>29</ele><time>2012-03-31T15:23:43Z</time><cmt>5.7 kmh</cmt></trkpt>
<trkpt lat="58.879317" lon="05.853015"><ele>29</ele><time>2012-03-31T15:23:49Z</time><cmt>6.3 kmh</cmt></trkpt>
<trkpt lat="58.879368" lon="05.852882"><ele>30</ele><time>2012-03-31T15:23:56Z</time><cmt>5.9 kmh</cmt></trkpt>
<trkpt lat="58.879420" lon="05.852750"><ele>30</ele><time>2012-03-31T15:24:03Z</time><cmt>6.3 kmh</cmt></trkpt>
<trkpt lat="58.879471" lon="05.852605"><ele>30</ele><time>2012-03-31T15:24:11Z</time><cmt>5.0 kmh</cmt></trkpt>
<trkpt lat="58.879521" lon="05.852476"><ele>30</ele><time>2012-03-31T15:24:18Z</time><cmt>5.5 kmh</cmt></trkpt>
<trkpt lat="58.879566" lon="05.852338"><ele>30</ele><time>2012-03-31T15:24:26Z</time><cmt>5.5 kmh</cmt></trkpt>
<trkpt lat="58.879605" lon="05.852189"><ele>29</ele><time>2012-03-31T15:24:35Z</time><cmt>5.3 kmh</cmt></trkpt>
<trkpt lat="58.879650" lon="05.852050"><ele>29</ele><time>2012-03-31T15:24:42Z</time><cmt>5.0 kmh</cmt></trkpt>
<trkpt lat="58.879687" lon="05.851922"><ele>29</ele><time>2012-03-31T15:24:49Z</time><cmt>5.0 kmh</cmt></trkpt>
<trkpt lat="58.879722" lon="05.851793"><ele>29</ele><time>2012-03-31T15:24:56Z</time><cmt>5.0 kmh</cmt></trkpt>
<trkpt lat="58.879747" lon="05.851655"><ele>29</ele><time>2012-03-31T15:25:03Z</time><cmt>5.2 kmh</cmt></trkpt>
<trkpt lat="58.879770" lon="05.851516"><ele>30</ele><time>2012-03-31T15:25:09Z</time><cmt>5.1 kmh</cmt></trkpt>
<trkpt lat="58.879784" lon="05.851370"><ele>30</ele><time>2012-03-31T15:25:15Z</time><cmt>5.3 kmh</cmt></trkpt>
<trkpt lat="58.879793" lon="05.851219"><ele>30</ele><time>2012-03-31T15:25:21Z</time><cmt>5.0 kmh</cmt></trkpt>
<trkpt lat="58.879784" lon="05.851055"><ele>30</ele><time>2012-03-31T15:25:27Z</time><cmt>5.7 kmh</cmt></trkpt>
<trkpt lat="58.879773" lon="05.850898"><ele>30</ele><time>2012-03-31T15:25:33Z</time><cmt>5.3 kmh</cmt></trkpt>
<trkpt lat="58.879764" lon="05.850758"><ele>30</ele><time>2012-03-31T15:25:38Z</time><cmt>6.1 kmh</cmt></trkpt>
<trkpt lat="58.879759" lon="05.850618"><ele>30</ele><time>2012-03-31T15:25:43Z</time><cmt>5.7 kmh</cmt></trkpt>
<trkpt lat="58.879761" lon="05.850450"><ele>30</ele><time>2012-03-31T15:25:49Z</time><cmt>5.7 kmh</cmt></trkpt>
<trkpt lat="58.879757" lon="05.850282"><ele>30</ele><time>2012-03-31T15:25:55Z</time><cmt>6.0 kmh</cmt></trkpt>
<trkpt lat="58.879743" lon="05.850141"><ele>30</ele><time>2012-03-31T15:26:00Z</time><cmt>5.9 kmh</cmt></trkpt>
<trkpt lat="58.879735" lon="05.849971"><ele>30</ele><time>2012-03-31T15:26:06Z</time><cmt>5.9 kmh</cmt></trkpt>
<trkpt lat="58.879729" lon="05.849814"><ele>30</ele><time>2012-03-31T15:26:12Z</time><cmt>5.7 kmh</cmt></trkpt>
<trkpt lat="58.879728" lon="05.849654"><ele>30</ele><time>2012-03-31T15:26:18Z</time><cmt>6.0 kmh</cmt></trkpt>
<trkpt lat="58.879721" lon="05.849478"><ele>31</ele><time>2012-03-31T15:26:24Z</time><cmt>6.5 kmh</cmt></trkpt>
<trkpt lat="58.879714" lon="05.849296"><ele>31</ele><time>2012-03-31T15:26:30Z</time><cmt>6.2 kmh</cmt></trkpt>
<trkpt lat="58.879713" lon="05.849141"><ele>31</ele><time>2012-03-31T15:26:35Z</time><cmt>6.4 kmh</cmt></trkpt>
<trkpt lat="58.879709" lon="05.848959"><ele>31</ele><time>2012-03-31T15:26:41Z</time><cmt>6.2 kmh</cmt></trkpt>
<trkpt lat="58.879706" lon="05.848780"><ele>31</ele><time>2012-03-31T15:26:47Z</time><cmt>6.3 kmh</cmt></trkpt>
<trkpt lat="58.879694" lon="05.848610"><ele>31</ele><time>2012-03-31T15:26:53Z</time><cmt>5.6 kmh</cmt></trkpt>
<trkpt lat="58.879691" lon="05.848443"><ele>31</ele><time>2012-03-31T15:26:59Z</time><cmt>5.8 kmh</cmt></trkpt>
<trkpt lat="58.879676" lon="05.848282"><ele>31</ele><time>2012-03-31T15:27:05Z</time><cmt>5.8 kmh</cmt></trkpt>
<trkpt lat="58.879677" lon="05.848108"><ele>31</ele><time>2012-03-31T15:27:11Z</time><cmt>6.6 kmh</cmt></trkpt>
<trkpt lat="58.879677" lon="05.847933"><ele>30</ele><time>2012-03-31T15:27:17Z</time><cmt>6.0 kmh</cmt></trkpt>
<trkpt lat="58.879677" lon="05.847750"><ele>30</ele><time>2012-03-31T15:27:23Z</time><cmt>6.8 kmh</cmt></trkpt>
<trkpt lat="58.879684" lon="05.847571"><ele>30</ele><time>2012-03-31T15:27:29Z</time><cmt>6.0 kmh</cmt></trkpt>
<trkpt lat="58.879692" lon="05.847403"><ele>30</ele><time>2012-03-31T15:27:35Z</time><cmt>5.6 kmh</cmt></trkpt>
<trkpt lat="58.879705" lon="05.847244"><ele>31</ele><time>2012-03-31T15:27:43Z</time><cmt>5.0 kmh</cmt></trkpt>
<trkpt lat="58.879709" lon="05.847079"><ele>31</ele><time>2012-03-31T15:27:52Z</time><cmt>5.0 kmh</cmt></trkpt>
<trkpt lat="58.879692" lon="05.846909"><ele>31</ele><time>2012-03-31T15:28:02Z</time><cmt>5.4 kmh</cmt></trkpt>
<trkpt lat="58.879672" lon="05.846749"><ele>31</ele><time>2012-03-31T15:28:09Z</time><cmt>5.1 kmh</cmt></trkpt>
<trkpt lat="58.879645" lon="05.846595"><ele>31</ele><time>2012-03-31T15:28:15Z</time><cmt>5.3 kmh</cmt></trkpt>
<trkpt lat="58.879630" lon="05.846439"><ele>31</ele><time>2012-03-31T15:28:22Z</time><cmt>5.0 kmh</cmt></trkpt>
<trkpt lat="58.879619" lon="05.846260"><ele>31</ele><time>2012-03-31T15:28:29Z</time><cmt>5.9 kmh</cmt></trkpt>
<trkpt lat="58.879603" lon="05.846095"><ele>31</ele><time>2012-03-31T15:28:35Z</time><cmt>5.8 kmh</cmt></trkpt>
<trkpt lat="58.879572" lon="05.845925"><ele>31</ele><time>2012-03-31T15:28:41Z</time><cmt>6.3 kmh</cmt></trkpt>
<trkpt lat="58.879538" lon="05.845783"><ele>31</ele><time>2012-03-31T15:28:46Z</time><cmt>6.0 kmh</cmt></trkpt>
<trkpt lat="58.879505" lon="05.845660"><ele>31</ele><time>2012-03-31T15:28:51Z</time><cmt>5.5 kmh</cmt></trkpt>
<trkpt lat="58.879474" lon="05.845527"><ele>31</ele><time>2012-03-31T15:28:56Z</time><cmt>6.0 kmh</cmt></trkpt>
<trkpt lat="58.879426" lon="05.845400"><ele>31</ele><time>2012-03-31T15:29:01Z</time><cmt>6.3 kmh</cmt></trkpt>
<trkpt lat="58.879367" lon="05.845287"><ele>30</ele><time>2012-03-31T15:29:06Z</time><cmt>6.5 kmh</cmt></trkpt>
<trkpt lat="58.879307" lon="05.845175"><ele>30</ele><time>2012-03-31T15:29:11Z</time><cmt>6.8 kmh</cmt></trkpt>
<trkpt lat="58.879240" lon="05.845069"><ele>30</ele><time>2012-03-31T15:29:16Z</time><cmt>6.9 kmh</cmt></trkpt>
<trkpt lat="58.879164" lon="05.844977"><ele>30</ele><time>2012-03-31T15:29:21Z</time><cmt>7.2 kmh</cmt></trkpt>
<trkpt lat="58.879093" lon="05.844893"><ele>30</ele><time>2012-03-31T15:29:26Z</time><cmt>5.9 kmh</cmt></trkpt>
<trkpt lat="58.879020" lon="05.844801"><ele>30</ele><time>2012-03-31T15:29:32Z</time><cmt>5.8 kmh</cmt></trkpt>
<trkpt lat="58.878947" lon="05.844708"><ele>29</ele><time>2012-03-31T15:29:37Z</time><cmt>7.6 kmh</cmt></trkpt>
<trkpt lat="58.878874" lon="05.844640"><ele>29</ele><time>2012-03-31T15:29:42Z</time><cmt>6.0 kmh</cmt></trkpt>
<trkpt lat="58.878805" lon="05.844613"><ele>29</ele><time>2012-03-31T15:29:48Z</time><cmt>5.0 kmh</cmt></trkpt>
<trkpt lat="58.878717" lon="05.844602"><ele>29</ele><time>2012-03-31T15:30:03Z</time><cmt>5.0 kmh</cmt></trkpt>
<trkpt lat="58.878663" lon="05.844647"><ele>29</ele><time>2012-03-31T15:30:11Z</time><cmt>5.0 kmh</cmt></trkpt>
<trkpt lat="58.878617" lon="05.844696"><ele>29</ele><time>2012-03-31T15:30:16Z</time><cmt>5.0 kmh</cmt></trkpt>
<trkpt lat="58.877862" lon="05.844581"><ele>25</ele><time>2012-03-31T15:33:22Z</time><cmt>5.0 kmh</cmt></trkpt>
<trkpt lat="58.877840" lon="05.844557"><ele>25</ele><time>2012-03-31T15:33:25Z</time><cmt>5.3 kmh</cmt></trkpt>
<trkpt lat="58.877818" lon="05.844528"><ele>25</ele><time>2012-03-31T15:33:27Z</time><cmt>6.0 kmh</cmt></trkpt>
<trkpt lat="58.877788" lon="05.844497"><ele>25</ele><time>2012-03-31T15:33:30Z</time><cmt>5.4 kmh</cmt></trkpt>
<trkpt lat="58.877751" lon="05.844488"><ele>25</ele><time>2012-03-31T15:33:33Z</time><cmt>6.2 kmh</cmt></trkpt>
<trkpt lat="58.877718" lon="05.844486"><ele>25</ele><time>2012-03-31T15:33:35Z</time><cmt>7.0 kmh</cmt></trkpt>
<trkpt lat="58.877682" lon="05.844483"><ele>25</ele><time>2012-03-31T15:33:37Z</time><cmt>7.7 kmh</cmt></trkpt>
<trkpt lat="58.877643" lon="05.844480"><ele>25</ele><time>2012-03-31T15:33:39Z</time><cmt>7.8 kmh</cmt></trkpt>
<trkpt lat="58.877605" lon="05.844473"><ele>25</ele><time>2012-03-31T15:33:41Z</time><cmt>7.3 kmh</cmt></trkpt>
<trkpt lat="58.877571" lon="05.844467"><ele>25</ele><time>2012-03-31T15:33:43Z</time><cmt>7.1 kmh</cmt></trkpt>
<trkpt lat="58.877535" lon="05.844467"><ele>25</ele><time>2012-03-31T15:33:45Z</time><cmt>7.4 kmh</cmt></trkpt>
<trkpt lat="58.877498" lon="05.844469"><ele>25</ele><time>2012-03-31T15:33:47Z</time><cmt>7.5 kmh</cmt></trkpt>
<trkpt lat="58.877460" lon="05.844470"><ele>25</ele><time>2012-03-31T15:33:49Z</time><cmt>7.6 kmh</cmt></trkpt>
<trkpt lat="58.877421" lon="05.844469"><ele>25</ele><time>2012-03-31T15:33:51Z</time><cmt>8.0 kmh</cmt></trkpt>
<trkpt lat="58.877382" lon="05.844468"><ele>25</ele><time>2012-03-31T15:33:53Z</time><cmt>7.8 kmh</cmt></trkpt>
<trkpt lat="58.877343" lon="05.844464"><ele>25</ele><time>2012-03-31T15:33:55Z</time><cmt>7.7 kmh</cmt></trkpt>
<trkpt lat="58.877306" lon="05.844461"><ele>24</ele><time>2012-03-31T15:33:57Z</time><cmt>7.4 kmh</cmt></trkpt>
<trkpt lat="58.877272" lon="05.844458"><ele>24</ele><time>2012-03-31T15:33:59Z</time><cmt>6.6 kmh</cmt></trkpt>
<trkpt lat="58.877241" lon="05.844453"><ele>24</ele><time>2012-03-31T15:34:01Z</time><cmt>5.9 kmh</cmt></trkpt>
<trkpt lat="58.877213" lon="05.844445"><ele>24</ele><time>2012-03-31T15:34:03Z</time><cmt>5.4 kmh</cmt></trkpt>
<trkpt lat="58.877176" lon="05.844427"><ele>24</ele><time>2012-03-31T15:34:06Z</time><cmt>5.2 kmh</cmt></trkpt>
<trkpt lat="58.877144" lon="05.844401"><ele>24</ele><time>2012-03-31T15:34:09Z</time><cmt>4.3 kmh</cmt></trkpt>
<trkpt lat="58.877108" lon="05.844370"><ele>24</ele><time>2012-03-31T15:34:12Z</time><cmt>5.5 kmh</cmt></trkpt>
<trkpt lat="58.877081" lon="05.844349"><ele>24</ele><time>2012-03-31T15:34:14Z</time><cmt>6.2 kmh</cmt></trkpt>
<trkpt lat="58.877052" lon="05.844329"><ele>24</ele><time>2012-03-31T15:34:16Z</time><cmt>6.4 kmh</cmt></trkpt>
<trkpt lat="58.877019" lon="05.844304"><ele>24</ele><time>2012-03-31T15:34:18Z</time><cmt>7.5 kmh</cmt></trkpt>
<trkpt lat="58.876985" lon="05.844278"><ele>24</ele><time>2012-03-31T15:34:20Z</time><cmt>7.5 kmh</cmt></trkpt>
<trkpt lat="58.876950" lon="05.844252"><ele>24</ele><time>2012-03-31T15:34:22Z</time><cmt>7.6 kmh</cmt></trkpt>
<trkpt lat="58.876914" lon="05.844221"><ele>24</ele><time>2012-03-31T15:34:24Z</time><cmt>7.8 kmh</cmt></trkpt>
<trkpt lat="58.876879" lon="05.844191"><ele>24</ele><time>2012-03-31T15:34:26Z</time><cmt>7.2 kmh</cmt></trkpt>
<trkpt lat="58.876848" lon="05.844167"><ele>24</ele><time>2012-03-31T15:34:28Z</time><cmt>6.4 kmh</cmt></trkpt>
<trkpt lat="58.876815" lon="05.844150"><ele>24</ele><time>2012-03-31T15:34:30Z</time><cmt>6.9 kmh</cmt></trkpt>
<trkpt lat="58.876780" lon="05.844140"><ele>24</ele><time>2012-03-31T15:34:32Z</time><cmt>7.6 kmh</cmt></trkpt>
<trkpt lat="58.876745" lon="05.844133"><ele>23</ele><time>2012-03-31T15:34:34Z</time><cmt>7.1 kmh</cmt></trkpt>
<trkpt lat="58.876711" lon="05.844120"><ele>23</ele><time>2012-03-31T15:34:36Z</time><cmt>6.9 kmh</cmt></trkpt>
<trkpt lat="58.876679" lon="05.844102"><ele>23</ele><time>2012-03-31T15:34:38Z</time><cmt>6.3 kmh</cmt></trkpt>
<trkpt lat="58.876648" lon="05.844082"><ele>23</ele><time>2012-03-31T15:34:40Z</time><cmt>6.5 kmh</cmt></trkpt>
<trkpt lat="58.876619" lon="05.844059"><ele>23</ele><time>2012-03-31T15:34:42Z</time><cmt>5.8 kmh</cmt></trkpt>
<trkpt lat="58.876591" lon="05.844035"><ele>23</ele><time>2012-03-31T15:34:44Z</time><cmt>6.3 kmh</cmt></trkpt>
<trkpt lat="58.876565" lon="05.844007"><ele>23</ele><time>2012-03-31T15:34:46Z</time><cmt>5.2 kmh</cmt></trkpt>
<trkpt lat="58.876532" lon="05.843973"><ele>23</ele><time>2012-03-31T15:34:49Z</time><cmt>5.0 kmh</cmt></trkpt>
<trkpt lat="58.876500" lon="05.843947"><ele>23</ele><time>2012-03-31T15:34:52Z</time><cmt>4.2 kmh</cmt></trkpt>
<trkpt lat="58.876471" lon="05.843926"><ele>23</ele><time>2012-03-31T15:34:55Z</time><cmt>4.5 kmh</cmt></trkpt>
<trkpt lat="58.876439" lon="05.843910"><ele>23</ele><time>2012-03-31T15:34:58Z</time><cmt>4.7 kmh</cmt></trkpt>
<trkpt lat="58.876404" lon="05.843896"><ele>23</ele><time>2012-03-31T15:35:01Z</time><cmt>5.6 kmh</cmt></trkpt>
<trkpt lat="58.876376" lon="05.843883"><ele>23</ele><time>2012-03-31T15:35:03Z</time><cmt>6.0 kmh</cmt></trkpt>
<trkpt lat="58.876345" lon="05.843867"><ele>23</ele><time>2012-03-31T15:35:05Z</time><cmt>6.3 kmh</cmt></trkpt>
<trkpt lat="58.876317" lon="05.843850"><ele>23</ele><time>2012-03-31T15:35:07Z</time><cmt>5.7 kmh</cmt></trkpt>
<trkpt lat="58.876279" lon="05.843822"><ele>23</ele><time>2012-03-31T15:35:10Z</time><cmt>5.3 kmh</cmt></trkpt>
<trkpt lat="58.876248" lon="05.843793"><ele>23</ele><time>2012-03-31T15:35:13Z</time><cmt>4.2 kmh</cmt></trkpt>
<trkpt lat="58.876217" lon="05.843756"><ele>23</ele><time>2012-03-31T15:35:17Z</time><cmt>3.6 kmh</cmt></trkpt>
<trkpt lat="58.876188" lon="05.843712"><ele>23</ele><time>2012-03-31T15:35:21Z</time><cmt>4.0 kmh</cmt></trkpt>
<trkpt lat="58.876162" lon="05.843684"><ele>23</ele><time>2012-03-31T15:35:24Z</time><cmt>3.7 kmh</cmt></trkpt>
<trkpt lat="58.876133" lon="05.843659"><ele>23</ele><time>2012-03-31T15:35:27Z</time><cmt>4.5 kmh</cmt></trkpt>
<trkpt lat="58.876102" lon="05.843636"><ele>23</ele><time>2012-03-31T15:35:30Z</time><cmt>4.1 kmh</cmt></trkpt>
<trkpt lat="58.876063" lon="05.843606"><ele>23</ele><time>2012-03-31T15:35:33Z</time><cmt>5.9 kmh</cmt></trkpt>
<trkpt lat="58.876036" lon="05.843584"><ele>23</ele><time>2012-03-31T15:35:35Z</time><cmt>5.7 kmh</cmt></trkpt>
<trkpt lat="58.876010" lon="05.843558"><ele>23</ele><time>2012-03-31T15:35:37Z</time><cmt>5.4 kmh</cmt></trkpt>
<trkpt lat="58.875974" lon="05.843528"><ele>23</ele><time>2012-03-31T15:35:40Z</time><cmt>5.1 kmh</cmt></trkpt>
<trkpt lat="58.875934" lon="05.843502"><ele>23</ele><time>2012-03-31T15:35:43Z</time><cmt>5.8 kmh</cmt></trkpt>
<trkpt lat="58.875905" lon="05.843486"><ele>23</ele><time>2012-03-31T15:35:45Z</time><cmt>6.0 kmh</cmt></trkpt>
<trkpt lat="58.875874" lon="05.843470"><ele>23</ele><time>2012-03-31T15:35:47Z</time><cmt>6.7 kmh</cmt></trkpt>
<trkpt lat="58.875842" lon="05.843454"><ele>23</ele><time>2012-03-31T15:35:49Z</time><cmt>6.4 kmh</cmt></trkpt>
<trkpt lat="58.875808" lon="05.843436"><ele>23</ele><time>2012-03-31T15:35:51Z</time><cmt>7.0 kmh</cmt></trkpt>
<trkpt lat="58.875773" lon="05.843413"><ele>23</ele><time>2012-03-31T15:35:53Z</time><cmt>7.1 kmh</cmt></trkpt>
<trkpt lat="58.875737" lon="05.843389"><ele>23</ele><time>2012-03-31T15:35:55Z</time><cmt>7.6 kmh</cmt></trkpt>
<trkpt lat="58.875703" lon="05.843366"><ele>23</ele><time>2012-03-31T15:35:57Z</time><cmt>7.3 kmh</cmt></trkpt>
<trkpt lat="58.875669" lon="05.843345"><ele>23</ele><time>2012-03-31T15:35:59Z</time><cmt>6.6 kmh</cmt></trkpt>
<trkpt lat="58.875633" lon="05.843318"><ele>23</ele><time>2012-03-31T15:36:01Z</time><cmt>7.1 kmh</cmt></trkpt>
<trkpt lat="58.875598" lon="05.843293"><ele>23</ele><time>2012-03-31T15:36:03Z</time><cmt>6.7 kmh</cmt></trkpt>
<trkpt lat="58.875568" lon="05.843266"><ele>23</ele><time>2012-03-31T15:36:05Z</time><cmt>6.2 kmh</cmt></trkpt>
<trkpt lat="58.875539" lon="05.843241"><ele>23</ele><time>2012-03-31T15:36:07Z</time><cmt>5.9 kmh</cmt></trkpt>
<trkpt lat="58.875510" lon="05.843217"><ele>23</ele><time>2012-03-31T15:36:09Z</time><cmt>6.2 kmh</cmt></trkpt>
<trkpt lat="58.875479" lon="05.843194"><ele>23</ele><time>2012-03-31T15:36:11Z</time><cmt>6.7 kmh</cmt></trkpt>
<trkpt lat="58.875447" lon="05.843174"><ele>23</ele><time>2012-03-31T15:36:13Z</time><cmt>6.5 kmh</cmt></trkpt>
<trkpt lat="58.875416" lon="05.843154"><ele>23</ele><time>2012-03-31T15:36:15Z</time><cmt>6.2 kmh</cmt></trkpt>
<trkpt lat="58.875387" lon="05.843137"><ele>23</ele><time>2012-03-31T15:36:17Z</time><cmt>5.8 kmh</cmt></trkpt>
<trkpt lat="58.875360" lon="05.843120"><ele>23</ele><time>2012-03-31T15:36:19Z</time><cmt>5.2 kmh</cmt></trkpt>
<trkpt lat="58.875322" lon="05.843098"><ele>23</ele><time>2012-03-31T15:36:22Z</time><cmt>5.0 kmh</cmt></trkpt>
<trkpt lat="58.875288" lon="05.843083"><ele>23</ele><time>2012-03-31T15:36:25Z</time><cmt>5.0 kmh</cmt></trkpt>
<trkpt lat="58.875256" lon="05.843073"><ele>23</ele><time>2012-03-31T15:36:28Z</time><cmt>4.7 kmh</cmt></trkpt>
<trkpt lat="58.875227" lon="05.843063"><ele>23</ele><time>2012-03-31T15:36:31Z</time><cmt>4.2 kmh</cmt></trkpt>
<trkpt lat="58.875192" lon="05.843053"><ele>23</ele><time>2012-03-31T15:36:35Z</time><cmt>5.0 kmh</cmt></trkpt>
<trkpt lat="58.875163" lon="05.843045"><ele>23</ele><time>2012-03-31T15:36:38Z</time><cmt>3.7 kmh</cmt></trkpt>
<trkpt lat="58.875125" lon="05.843026"><ele>23</ele><time>2012-03-31T15:36:41Z</time><cmt>5.9 kmh</cmt></trkpt>
<trkpt lat="58.875097" lon="05.843005"><ele>23</ele><time>2012-03-31T15:36:43Z</time><cmt>5.7 kmh</cmt></trkpt>
<trkpt lat="58.875066" lon="05.842978"><ele>23</ele><time>2012-03-31T15:36:45Z</time><cmt>6.1 kmh</cmt></trkpt>
<trkpt lat="58.875036" lon="05.842951"><ele>23</ele><time>2012-03-31T15:36:47Z</time><cmt>6.4 kmh</cmt></trkpt>
<trkpt lat="58.875006" lon="05.842926"><ele>23</ele><time>2012-03-31T15:36:49Z</time><cmt>6.2 kmh</cmt></trkpt>
<trkpt lat="58.874976" lon="05.842899"><ele>23</ele><time>2012-03-31T15:36:51Z</time><cmt>6.3 kmh</cmt></trkpt>
<trkpt lat="58.874948" lon="05.842876"><ele>23</ele><time>2012-03-31T15:36:53Z</time><cmt>6.6 kmh</cmt></trkpt>
<trkpt lat="58.874918" lon="05.842848"><ele>23</ele><time>2012-03-31T15:36:55Z</time><cmt>6.2 kmh</cmt></trkpt>
<trkpt lat="58.874888" lon="05.842822"><ele>23</ele><time>2012-03-31T15:36:57Z</time><cmt>6.3 kmh</cmt></trkpt>
<trkpt lat="58.874858" lon="05.842796"><ele>23</ele><time>2012-03-31T15:36:59Z</time><cmt>6.3 kmh</cmt></trkpt>
<trkpt lat="58.874827" lon="05.842771"><ele>23</ele><time>2012-03-31T15:37:01Z</time><cmt>6.4 kmh</cmt></trkpt>
<trkpt lat="58.874796" lon="05.842746"><ele>23</ele><time>2012-03-31T15:37:03Z</time><cmt>6.5 kmh</cmt></trkpt>
<trkpt lat="58.874765" lon="05.842722"><ele>23</ele><time>2012-03-31T15:37:05Z</time><cmt>5.9 kmh</cmt></trkpt>
<trkpt lat="58.874734" lon="05.842700"><ele>23</ele><time>2012-03-31T15:37:07Z</time><cmt>6.3 kmh</cmt></trkpt>
<trkpt lat="58.874705" lon="05.842682"><ele>23</ele><time>2012-03-31T15:37:09Z</time><cmt>6.0 kmh</cmt></trkpt>
<trkpt lat="58.874676" lon="05.842667"><ele>23</ele><time>2012-03-31T15:37:11Z</time><cmt>6.2 kmh</cmt></trkpt>
<trkpt lat="58.874646" lon="05.842649"><ele>23</ele><time>2012-03-31T15:37:13Z</time><cmt>6.6 kmh</cmt></trkpt>
<trkpt lat="58.874614" lon="05.842628"><ele>23</ele><time>2012-03-31T15:37:15Z</time><cmt>6.4 kmh</cmt></trkpt>
<trkpt lat="58.874580" lon="05.842607"><ele>23</ele><time>2012-03-31T15:37:17Z</time><cmt>6.9 kmh</cmt></trkpt>
<trkpt lat="58.874547" lon="05.842587"><ele>23</ele><time>2012-03-31T15:37:19Z</time><cmt>6.8 kmh</cmt></trkpt>
<trkpt lat="58.874516" lon="05.842568"><ele>23</ele><time>2012-03-31T15:37:21Z</time><cmt>6.2 kmh</cmt></trkpt>
<trkpt lat="58.874483" lon="05.842550"><ele>23</ele><time>2012-03-31T15:37:23Z</time><cmt>6.9 kmh</cmt></trkpt>
<trkpt lat="58.874451" lon="05.842532"><ele>23</ele><time>2012-03-31T15:37:25Z</time><cmt>6.3 kmh</cmt></trkpt>
<trkpt lat="58.874422" lon="05.842516"><ele>23</ele><time>2012-03-31T15:37:27Z</time><cmt>5.7 kmh</cmt></trkpt>
<trkpt lat="58.874381" lon="05.842494"><ele>23</ele><time>2012-03-31T15:37:30Z</time><cmt>5.2 kmh</cmt></trkpt>
<trkpt lat="58.874343" lon="05.842466"><ele>23</ele><time>2012-03-31T15:37:33Z</time><cmt>5.1 kmh</cmt></trkpt>
<trkpt lat="58.874308" lon="05.842438"><ele>23</ele><time>2012-03-31T15:37:36Z</time><cmt>4.7 kmh</cmt></trkpt>
<trkpt lat="58.874278" lon="05.842418"><ele>23</ele><time>2012-03-31T15:37:39Z</time><cmt>4.6 kmh</cmt></trkpt>
<trkpt lat="58.874251" lon="05.842403"><ele>23</ele><time>2012-03-31T15:37:41Z</time><cmt>4.8 kmh</cmt></trkpt>
<trkpt lat="58.874218" lon="05.842378"><ele>23</ele><time>2012-03-31T15:37:44Z</time><cmt>5.0 kmh</cmt></trkpt>
<trkpt lat="58.874196" lon="05.842363"><ele>23</ele><time>2012-03-31T15:37:46Z</time><cmt>5.0 kmh</cmt></trkpt>
<trkpt lat="58.874174" lon="05.842348"><ele>23</ele><time>2012-03-31T15:37:48Z</time><cmt>4.5 kmh</cmt></trkpt>
<trkpt lat="58.874152" lon="05.842336"><ele>23</ele><time>2012-03-31T15:37:50Z</time><cmt>5.0 kmh</cmt></trkpt>
<trkpt lat="58.874130" lon="05.842322"><ele>23</ele><time>2012-03-31T15:37:52Z</time><cmt>4.4 kmh</cmt></trkpt>
<trkpt lat="58.874102" lon="05.842303"><ele>23</ele><time>2012-03-31T15:37:54Z</time><cmt>5.0 kmh</cmt></trkpt>
<trkpt lat="58.874092" lon="05.842296"><ele>23</ele><time>2012-03-31T15:37:55Z</time><cmt>5.0 kmh</cmt></trkpt>
<trkpt lat="58.874081" lon="05.842289"><ele>23</ele><time>2012-03-31T15:37:56Z</time><cmt>4.8 kmh</cmt></trkpt>
<trkpt lat="58.874070" lon="05.842282"><ele>23</ele><time>2012-03-31T15:37:57Z</time><cmt>5.0 kmh</cmt></trkpt>
<trkpt lat="58.874058" lon="05.842275"><ele>23</ele><time>2012-03-31T15:37:58Z</time><cmt>5.1 kmh</cmt></trkpt>
<trkpt lat="58.874046" lon="05.842268"><ele>23</ele><time>2012-03-31T15:37:59Z</time><cmt>5.3 kmh</cmt></trkpt>
<trkpt lat="58.874035" lon="05.842259"><ele>23</ele><time>2012-03-31T15:38:00Z</time><cmt>5.1 kmh</cmt></trkpt>
<trkpt lat="58.874023" lon="05.842250"><ele>23</ele><time>2012-03-31T15:38:01Z</time><cmt>5.1 kmh</cmt></trkpt>
<trkpt lat="58.874011" lon="05.842240"><ele>23</ele><time>2012-03-31T15:38:02Z</time><cmt>5.3 kmh</cmt></trkpt>
<trkpt lat="58.873998" lon="05.842230"><ele>23</ele><time>2012-03-31T15:38:03Z</time><cmt>5.5 kmh</cmt></trkpt>
<trkpt lat="58.873986" lon="05.842220"><ele>23</ele><time>2012-03-31T15:38:05Z</time><cmt>5.4 kmh</cmt></trkpt>
<trkpt lat="58.873973" lon="05.842210"><ele>23</ele><time>2012-03-31T15:38:05Z</time><cmt>5.6 kmh</cmt></trkpt>
<trkpt lat="58.873960" lon="05.842201"><ele>23</ele><time>2012-03-31T15:38:06Z</time><cmt>5.4 kmh</cmt></trkpt>
<trkpt lat="58.873947" lon="05.842192"><ele>23</ele><time>2012-03-31T15:38:07Z</time><cmt>5.2 kmh</cmt></trkpt>
<trkpt lat="58.873935" lon="05.842184"><ele>23</ele><time>2012-03-31T15:38:08Z</time><cmt>5.2 kmh</cmt></trkpt>
<trkpt lat="58.873922" lon="05.842174"><ele>23</ele><time>2012-03-31T15:38:09Z</time><cmt>5.5 kmh</cmt></trkpt>
<trkpt lat="58.873909" lon="05.842165"><ele>23</ele><time>2012-03-31T15:38:10Z</time><cmt>5.4 kmh</cmt></trkpt>
<trkpt lat="58.873896" lon="05.842156"><ele>23</ele><time>2012-03-31T15:38:11Z</time><cmt>5.7 kmh</cmt></trkpt>
<trkpt lat="58.873882" lon="05.842147"><ele>23</ele><time>2012-03-31T15:38:12Z</time><cmt>5.4 kmh</cmt></trkpt>
<trkpt lat="58.873869" lon="05.842139"><ele>23</ele><time>2012-03-31T15:38:13Z</time><cmt>5.4 kmh</cmt></trkpt>
<trkpt lat="58.873856" lon="05.842131"><ele>23</ele><time>2012-03-31T15:38:14Z</time><cmt>5.3 kmh</cmt></trkpt>
<trkpt lat="58.873843" lon="05.842124"><ele>23</ele><time>2012-03-31T15:38:15Z</time><cmt>5.3 kmh</cmt></trkpt>
<trkpt lat="58.873830" lon="05.842116"><ele>23</ele><time>2012-03-31T15:38:16Z</time><cmt>5.3 kmh</cmt></trkpt>
<trkpt lat="58.873817" lon="05.842109"><ele>23</ele><time>2012-03-31T15:38:17Z</time><cmt>5.3 kmh</cmt></trkpt>
<trkpt lat="58.873803" lon="05.842103"><ele>23</ele><time>2012-03-31T15:38:18Z</time><cmt>5.5 kmh</cmt></trkpt>
<trkpt lat="58.873790" lon="05.842098"><ele>23</ele><time>2012-03-31T15:38:19Z</time><cmt>5.4 kmh</cmt></trkpt>
<trkpt lat="58.873776" lon="05.842092"><ele>23</ele><time>2012-03-31T15:38:20Z</time><cmt>5.5 kmh</cmt></trkpt>
<trkpt lat="58.873763" lon="05.842086"><ele>23</ele><time>2012-03-31T15:38:21Z</time><cmt>5.5 kmh</cmt></trkpt>
<trkpt lat="58.873749" lon="05.842080"><ele>24</ele><time>2012-03-31T15:38:22Z</time><cmt>5.5 kmh</cmt></trkpt>
<trkpt lat="58.873735" lon="05.842075"><ele>24</ele><time>2012-03-31T15:38:23Z</time><cmt>5.5 kmh</cmt></trkpt>
<trkpt lat="58.873722" lon="05.842070"><ele>24</ele><time>2012-03-31T15:38:24Z</time><cmt>5.3 kmh</cmt></trkpt>
<trkpt lat="58.873709" lon="05.842065"><ele>24</ele><time>2012-03-31T15:38:25Z</time><cmt>5.0 kmh</cmt></trkpt>
<trkpt lat="58.873697" lon="05.842060"><ele>24</ele><time>2012-03-31T15:38:26Z</time><cmt>5.0 kmh</cmt></trkpt>
<trkpt lat="58.873685" lon="05.842055"><ele>24</ele><time>2012-03-31T15:38:27Z</time><cmt>5.0 kmh</cmt></trkpt>
<trkpt lat="58.873673" lon="05.842050"><ele>24</ele><time>2012-03-31T15:38:28Z</time><cmt>5.0 kmh</cmt></trkpt>
<trkpt lat="58.873661" lon="05.842046"><ele>24</ele><time>2012-03-31T15:38:29Z</time><cmt>5.1 kmh</cmt></trkpt>
<trkpt lat="58.873648" lon="05.842041"><ele>24</ele><time>2012-03-31T15:38:30Z</time><cmt>5.3 kmh</cmt></trkpt>
<trkpt lat="58.873635" lon="05.842037"><ele>24</ele><time>2012-03-31T15:38:31Z</time><cmt>5.4 kmh</cmt></trkpt>
<trkpt lat="58.873621" lon="05.842033"><ele>24</ele><time>2012-03-31T15:38:32Z</time><cmt>5.3 kmh</cmt></trkpt>
<trkpt lat="58.873609" lon="05.842029"><ele>24</ele><time>2012-03-31T15:38:33Z</time><cmt>5.3 kmh</cmt></trkpt>
<trkpt lat="58.873596" lon="05.842026"><ele>24</ele><time>2012-03-31T15:38:34Z</time><cmt>5.4 kmh</cmt></trkpt>
<trkpt lat="58.873582" lon="05.842022"><ele>24</ele><time>2012-03-31T15:38:35Z</time><cmt>5.4 kmh</cmt></trkpt>
<trkpt lat="58.873569" lon="05.842018"><ele>24</ele><time>2012-03-31T15:38:36Z</time><cmt>5.3 kmh</cmt></trkpt>
<trkpt lat="58.873556" lon="05.842014"><ele>24</ele><time>2012-03-31T15:38:37Z</time><cmt>5.3 kmh</cmt></trkpt>
<trkpt lat="58.873543" lon="05.842010"><ele>24</ele><time>2012-03-31T15:38:38Z</time><cmt>5.5 kmh</cmt></trkpt>
<trkpt lat="58.873529" lon="05.842006"><ele>24</ele><time>2012-03-31T15:38:39Z</time><cmt>5.1 kmh</cmt></trkpt>
<trkpt lat="58.873517" lon="05.842002"><ele>24</ele><time>2012-03-31T15:38:40Z</time><cmt>5.1 kmh</cmt></trkpt>
<trkpt lat="58.873505" lon="05.841999"><ele>24</ele><time>2012-03-31T15:38:41Z</time><cmt>5.0 kmh</cmt></trkpt>
<trkpt lat="58.873493" lon="05.841995"><ele>24</ele><time>2012-03-31T15:38:42Z</time><cmt>4.1 kmh</cmt></trkpt>
<trkpt lat="58.873482" lon="05.841992"><ele>24</ele><time>2012-03-31T15:38:43Z</time><cmt>4.0 kmh</cmt></trkpt>
<trkpt lat="58.873471" lon="05.841990"><ele>24</ele><time>2012-03-31T15:38:44Z</time><cmt>4.8 kmh</cmt></trkpt>
<trkpt lat="58.873461" lon="05.841987"><ele>24</ele><time>2012-03-31T15:38:45Z</time><cmt>4.7 kmh</cmt></trkpt>
<trkpt lat="58.873450" lon="05.841982"><ele>24</ele><time>2012-03-31T15:38:46Z</time><cmt>4.8 kmh</cmt></trkpt>
<trkpt lat="58.873439" lon="05.841979"><ele>24</ele><time>2012-03-31T15:38:47Z</time><cmt>4.8 kmh</cmt></trkpt>
<trkpt lat="58.873427" lon="05.841974"><ele>24</ele><time>2012-03-31T15:38:48Z</time><cmt>3.9 kmh</cmt></trkpt>
<trkpt lat="58.873416" lon="05.841969"><ele>24</ele><time>2012-03-31T15:38:49Z</time><cmt>4.1 kmh</cmt></trkpt>
<trkpt lat="58.873404" lon="05.841965"><ele>24</ele><time>2012-03-31T15:38:50Z</time><cmt>5.0 kmh</cmt></trkpt>
<trkpt lat="58.873392" lon="05.841960"><ele>24</ele><time>2012-03-31T15:38:51Z</time><cmt>5.1 kmh</cmt></trkpt>
<trkpt lat="58.873380" lon="05.841954"><ele>24</ele><time>2012-03-31T15:38:52Z</time><cmt>5.4 kmh</cmt></trkpt>
<trkpt lat="58.873367" lon="05.841946"><ele>24</ele><time>2012-03-31T15:38:53Z</time><cmt>5.6 kmh</cmt></trkpt>
<trkpt lat="58.873353" lon="05.841937"><ele>24</ele><time>2012-03-31T15:38:54Z</time><cmt>5.7 kmh</cmt></trkpt>
<trkpt lat="58.873340" lon="05.841930"><ele>24</ele><time>2012-03-31T15:38:55Z</time><cmt>5.7 kmh</cmt></trkpt>
<trkpt lat="58.873326" lon="05.841922"><ele>24</ele><time>2012-03-31T15:38:56Z</time><cmt>5.9 kmh</cmt></trkpt>
<trkpt lat="58.873312" lon="05.841914"><ele>24</ele><time>2012-03-31T15:38:57Z</time><cmt>5.9 kmh</cmt></trkpt>
<trkpt lat="58.873298" lon="05.841906"><ele>24</ele><time>2012-03-31T15:38:58Z</time><cmt>6.2 kmh</cmt></trkpt>
<trkpt lat="58.873284" lon="05.841897"><ele>24</ele><time>2012-03-31T15:38:59Z</time><cmt>6.0 kmh</cmt></trkpt>
<trkpt lat="58.873270" lon="05.841889"><ele>24</ele><time>2012-03-31T15:39:00Z</time><cmt>5.7 kmh</cmt></trkpt>
<trkpt lat="58.873256" lon="05.841882"><ele>24</ele><time>2012-03-31T15:39:01Z</time><cmt>5.4 kmh</cmt></trkpt>
<trkpt lat="58.873244" lon="05.841874"><ele>24</ele><time>2012-03-31T15:39:02Z</time><cmt>5.2 kmh</cmt></trkpt>
<trkpt lat="58.873232" lon="05.841865"><ele>24</ele><time>2012-03-31T15:39:03Z</time><cmt>5.2 kmh</cmt></trkpt>
<trkpt lat="58.873220" lon="05.841856"><ele>24</ele><time>2012-03-31T15:39:04Z</time><cmt>5.2 kmh</cmt></trkpt>
<trkpt lat="58.873209" lon="05.841847"><ele>24</ele><time>2012-03-31T15:39:05Z</time><cmt>5.2 kmh</cmt></trkpt>
<trkpt lat="58.873197" lon="05.841838"><ele>24</ele><time>2012-03-31T15:39:06Z</time><cmt>5.2 kmh</cmt></trkpt>
<trkpt lat="58.873186" lon="05.841831"><ele>24</ele><time>2012-03-31T15:39:07Z</time><cmt>4.1 kmh</cmt></trkpt>
<trkpt lat="58.873176" lon="05.841823"><ele>24</ele><time>2012-03-31T15:39:08Z</time><cmt>4.0 kmh</cmt></trkpt>
<trkpt lat="58.873164" lon="05.841816"><ele>24</ele><time>2012-03-31T15:39:09Z</time><cmt>5.0 kmh</cmt></trkpt>
<trkpt lat="58.873152" lon="05.841807"><ele>24</ele><time>2012-03-31T15:39:10Z</time><cmt>5.2 kmh</cmt></trkpt>
<trkpt lat="58.873140" lon="05.841799"><ele>24</ele><time>2012-03-31T15:39:11Z</time><cmt>5.5 kmh</cmt></trkpt>
<trkpt lat="58.873127" lon="05.841790"><ele>24</ele><time>2012-03-31T15:39:12Z</time><cmt>6.0 kmh</cmt></trkpt>
<trkpt lat="58.873113" lon="05.841781"><ele>24</ele><time>2012-03-31T15:39:13Z</time><cmt>6.1 kmh</cmt></trkpt>
<trkpt lat="58.873099" lon="05.841771"><ele>24</ele><time>2012-03-31T15:39:14Z</time><cmt>6.4 kmh</cmt></trkpt>
<trkpt lat="58.873084" lon="05.841761"><ele>24</ele><time>2012-03-31T15:39:15Z</time><cmt>6.3 kmh</cmt></trkpt>
<trkpt lat="58.873069" lon="05.841750"><ele>24</ele><time>2012-03-31T15:39:16Z</time><cmt>6.6 kmh</cmt></trkpt>
<trkpt lat="58.873053" lon="05.841739"><ele>24</ele><time>2012-03-31T15:39:17Z</time><cmt>6.4 kmh</cmt></trkpt>
<trkpt lat="58.873038" lon="05.841729"><ele>24</ele><time>2012-03-31T15:39:18Z</time><cmt>6.8 kmh</cmt></trkpt>
<trkpt lat="58.873022" lon="05.841719"><ele>24</ele><time>2012-03-31T15:39:19Z</time><cmt>6.7 kmh</cmt></trkpt>
<trkpt lat="58.873006" lon="05.841710"><ele>24</ele><time>2012-03-31T15:39:20Z</time><cmt>6.7 kmh</cmt></trkpt>
<trkpt lat="58.872989" lon="05.841701"><ele>24</ele><time>2012-03-31T15:39:21Z</time><cmt>6.6 kmh</cmt></trkpt>
<trkpt lat="58.872973" lon="05.841694"><ele>23</ele><time>2012-03-31T15:39:22Z</time><cmt>6.5 kmh</cmt></trkpt>
<trkpt lat="58.872958" lon="05.841687"><ele>23</ele><time>2012-03-31T15:39:23Z</time><cmt>6.3 kmh</cmt></trkpt>
<trkpt lat="58.872942" lon="05.841680"><ele>23</ele><time>2012-03-31T15:39:24Z</time><cmt>6.2 kmh</cmt></trkpt>
<trkpt lat="58.872927" lon="05.841673"><ele>23</ele><time>2012-03-31T15:39:25Z</time><cmt>6.0 kmh</cmt></trkpt>
<trkpt lat="58.872912" lon="05.841665"><ele>23</ele><time>2012-03-31T15:39:26Z</time><cmt>6.4 kmh</cmt></trkpt>
<trkpt lat="58.872897" lon="05.841657"><ele>23</ele><time>2012-03-31T15:39:27Z</time><cmt>6.4 kmh</cmt></trkpt>
<trkpt lat="58.872882" lon="05.841647"><ele>23</ele><time>2012-03-31T15:39:28Z</time><cmt>6.3 kmh</cmt></trkpt>
<trkpt lat="58.872867" lon="05.841637"><ele>23</ele><time>2012-03-31T15:39:29Z</time><cmt>6.2 kmh</cmt></trkpt>
<trkpt lat="58.872853" lon="05.841625"><ele>23</ele><time>2012-03-31T15:39:30Z</time><cmt>6.0 kmh</cmt></trkpt>
<trkpt lat="58.872839" lon="05.841612"><ele>23</ele><time>2012-03-31T15:39:31Z</time><cmt>5.8 kmh</cmt></trkpt>
<trkpt lat="58.872826" lon="05.841599"><ele>23</ele><time>2012-03-31T15:39:32Z</time><cmt>6.0 kmh</cmt></trkpt>
<trkpt lat="58.872813" lon="05.841586"><ele>23</ele><time>2012-03-31T15:39:33Z</time><cmt>5.4 kmh</cmt></trkpt>
<trkpt lat="58.872801" lon="05.841573"><ele>23</ele><time>2012-03-31T15:39:34Z</time><cmt>5.2 kmh</cmt></trkpt>
<trkpt lat="58.872790" lon="05.841561"><ele>23</ele><time>2012-03-31T15:39:35Z</time><cmt>5.2 kmh</cmt></trkpt>
<trkpt lat="58.872780" lon="05.841551"><ele>23</ele><time>2012-03-31T15:39:36Z</time><cmt>5.0 kmh</cmt></trkpt>
<trkpt lat="58.872771" lon="05.841544"><ele>23</ele><time>2012-03-31T15:39:37Z</time><cmt>4.6 kmh</cmt></trkpt>
<trkpt lat="58.872761" lon="05.841539"><ele>23</ele><time>2012-03-31T15:39:38Z</time><cmt>3.4 kmh</cmt></trkpt>
<trkpt lat="58.872752" lon="05.841535"><ele>23</ele><time>2012-03-31T15:39:39Z</time><cmt>3.4 kmh</cmt></trkpt>
<trkpt lat="58.872742" lon="05.841529"><ele>23</ele><time>2012-03-31T15:39:40Z</time><cmt>4.3 kmh</cmt></trkpt>
<trkpt lat="58.872732" lon="05.841523"><ele>23</ele><time>2012-03-31T15:39:41Z</time><cmt>4.5 kmh</cmt></trkpt>
<trkpt lat="58.872721" lon="05.841518"><ele>23</ele><time>2012-03-31T15:39:42Z</time><cmt>4.7 kmh</cmt></trkpt>
<trkpt lat="58.872710" lon="05.841513"><ele>23</ele><time>2012-03-31T15:39:43Z</time><cmt>4.8 kmh</cmt></trkpt>
<trkpt lat="58.872699" lon="05.841508"><ele>23</ele><time>2012-03-31T15:39:44Z</time><cmt>4.0 kmh</cmt></trkpt>
<trkpt lat="58.872688" lon="05.841502"><ele>23</ele><time>2012-03-31T15:39:45Z</time><cmt>4.0 kmh</cmt></trkpt>
<trkpt lat="58.872677" lon="05.841497"><ele>23</ele><time>2012-03-31T15:39:46Z</time><cmt>5.0 kmh</cmt></trkpt>
<trkpt lat="58.872665" lon="05.841491"><ele>23</ele><time>2012-03-31T15:39:47Z</time><cmt>5.1 kmh</cmt></trkpt>
<trkpt lat="58.872653" lon="05.841484"><ele>23</ele><time>2012-03-31T15:39:48Z</time><cmt>5.1 kmh</cmt></trkpt>
<trkpt lat="58.872641" lon="05.841476"><ele>23</ele><time>2012-03-31T15:39:49Z</time><cmt>5.0 kmh</cmt></trkpt>
<trkpt lat="58.872629" lon="05.841467"><ele>23</ele><time>2012-03-31T15:39:50Z</time><cmt>5.3 kmh</cmt></trkpt>
<trkpt lat="58.872616" lon="05.841459"><ele>23</ele><time>2012-03-31T15:39:51Z</time><cmt>5.1 kmh</cmt></trkpt>
<trkpt lat="58.872604" lon="05.841451"><ele>22</ele><time>2012-03-31T15:39:52Z</time><cmt>5.6 kmh</cmt></trkpt>
<trkpt lat="58.872590" lon="05.841443"><ele>22</ele><time>2012-03-31T15:39:53Z</time><cmt>5.3 kmh</cmt></trkpt>
<trkpt lat="58.872578" lon="05.841436"><ele>22</ele><time>2012-03-31T15:39:54Z</time><cmt>5.1 kmh</cmt></trkpt>
<trkpt lat="58.872565" lon="05.841428"><ele>22</ele><time>2012-03-31T15:39:55Z</time><cmt>5.1 kmh</cmt></trkpt>
<trkpt lat="58.872553" lon="05.841422"><ele>22</ele><time>2012-03-31T15:39:56Z</time><cmt>5.1 kmh</cmt></trkpt>
<trkpt lat="58.872542" lon="05.841416"><ele>22</ele><time>2012-03-31T15:39:57Z</time><cmt>4.1 kmh</cmt></trkpt>
<trkpt lat="58.872532" lon="05.841412"><ele>22</ele><time>2012-03-31T15:39:58Z</time><cmt>4.8 kmh</cmt></trkpt>
<trkpt lat="58.872523" lon="05.841409"><ele>22</ele><time>2012-03-31T15:39:59Z</time><cmt>4.3 kmh</cmt></trkpt>
<trkpt lat="58.872514" lon="05.841406"><ele>22</ele><time>2012-03-31T15:40:00Z</time><cmt>3.9 kmh</cmt></trkpt>
<trkpt lat="58.872505" lon="05.841403"><ele>22</ele><time>2012-03-31T15:40:01Z</time><cmt>3.9 kmh</cmt></trkpt>
<trkpt lat="58.872495" lon="05.841398"><ele>22</ele><time>2012-03-31T15:40:02Z</time><cmt>3.3 kmh</cmt></trkpt>
<trkpt lat="58.872485" lon="05.841391"><ele>22</ele><time>2012-03-31T15:40:03Z</time><cmt>3.7 kmh</cmt></trkpt>
<trkpt lat="58.872475" lon="05.841383"><ele>22</ele><time>2012-03-31T15:40:04Z</time><cmt>4.7 kmh</cmt></trkpt>
<trkpt lat="58.872464" lon="05.841376"><ele>22</ele><time>2012-03-31T15:40:05Z</time><cmt>4.7 kmh</cmt></trkpt>
<trkpt lat="58.872454" lon="05.841368"><ele>22</ele><time>2012-03-31T15:40:06Z</time><cmt>4.8 kmh</cmt></trkpt>
<trkpt lat="58.872443" lon="05.841361"><ele>22</ele><time>2012-03-31T15:40:07Z</time><cmt>4.9 kmh</cmt></trkpt>
<trkpt lat="58.872432" lon="05.841354"><ele>22</ele><time>2012-03-31T15:40:08Z</time><cmt>5.0 kmh</cmt></trkpt>
<trkpt lat="58.872421" lon="05.841347"><ele>22</ele><time>2012-03-31T15:40:09Z</time><cmt>4.0 kmh</cmt></trkpt>
<trkpt lat="58.872410" lon="05.841340"><ele>22</ele><time>2012-03-31T15:40:10Z</time><cmt>4.0 kmh</cmt></trkpt>
<trkpt lat="58.872399" lon="05.841332"><ele>22</ele><time>2012-03-31T15:40:11Z</time><cmt>5.0 kmh</cmt></trkpt>
<trkpt lat="58.872388" lon="05.841325"><ele>22</ele><time>2012-03-31T15:40:12Z</time><cmt>5.0 kmh</cmt></trkpt>
<trkpt lat="58.872377" lon="05.841318"><ele>22</ele><time>2012-03-31T15:40:13Z</time><cmt>5.0 kmh</cmt></trkpt>
<trkpt lat="58.872366" lon="05.841313"><ele>22</ele><time>2012-03-31T15:40:14Z</time><cmt>4.8 kmh</cmt></trkpt>
<trkpt lat="58.872357" lon="05.841306"><ele>22</ele><time>2012-03-31T15:40:15Z</time><cmt>3.7 kmh</cmt></trkpt>
<trkpt lat="58.872346" lon="05.841298"><ele>22</ele><time>2012-03-31T15:40:16Z</time><cmt>3.7 kmh</cmt></trkpt>
<trkpt lat="58.872336" lon="05.841289"><ele>22</ele><time>2012-03-31T15:40:17Z</time><cmt>4.8 kmh</cmt></trkpt>
<trkpt lat="58.872325" lon="05.841281"><ele>22</ele><time>2012-03-31T15:40:18Z</time><cmt>4.9 kmh</cmt></trkpt>
<trkpt lat="58.872314" lon="05.841271"><ele>22</ele><time>2012-03-31T15:40:19Z</time><cmt>5.0 kmh</cmt></trkpt>
<trkpt lat="58.872303" lon="05.841262"><ele>22</ele><time>2012-03-31T15:40:20Z</time><cmt>5.1 kmh</cmt></trkpt>
<trkpt lat="58.872291" lon="05.841253"><ele>22</ele><time>2012-03-31T15:40:21Z</time><cmt>5.2 kmh</cmt></trkpt>
<trkpt lat="58.872279" lon="05.841243"><ele>22</ele><time>2012-03-31T15:40:22Z</time><cmt>5.2 kmh</cmt></trkpt>
<trkpt lat="58.872267" lon="05.841236"><ele>22</ele><time>2012-03-31T15:40:23Z</time><cmt>5.2 kmh</cmt></trkpt>
<trkpt lat="58.872256" lon="05.841230"><ele>22</ele><time>2012-03-31T15:40:24Z</time><cmt>5.0 kmh</cmt></trkpt>
<trkpt lat="58.872244" lon="05.841223"><ele>22</ele><time>2012-03-31T15:40:25Z</time><cmt>5.0 kmh</cmt></trkpt>
<trkpt lat="58.872232" lon="05.841217"><ele>22</ele><time>2012-03-31T15:40:26Z</time><cmt>5.0 kmh</cmt></trkpt>
<trkpt lat="58.872220" lon="05.841211"><ele>22</ele><time>2012-03-31T15:40:27Z</time><cmt>5.0 kmh</cmt></trkpt>
<trkpt lat="58.872208" lon="05.841204"><ele>22</ele><time>2012-03-31T15:40:28Z</time><cmt>5.4 kmh</cmt></trkpt>
<trkpt lat="58.872195" lon="05.841196"><ele>22</ele><time>2012-03-31T15:40:29Z</time><cmt>5.1 kmh</cmt></trkpt>
<trkpt lat="58.872183" lon="05.841188"><ele>22</ele><time>2012-03-31T15:40:30Z</time><cmt>5.2 kmh</cmt></trkpt>
<trkpt lat="58.872170" lon="05.841180"><ele>22</ele><time>2012-03-31T15:40:31Z</time><cmt>5.1 kmh</cmt></trkpt>
<trkpt lat="58.872158" lon="05.841172"><ele>22</ele><time>2012-03-31T15:40:32Z</time><cmt>5.1 kmh</cmt></trkpt>
<trkpt lat="58.872147" lon="05.841163"><ele>22</ele><time>2012-03-31T15:40:33Z</time><cmt>4.4 kmh</cmt></trkpt>
<trkpt lat="58.872135" lon="05.841153"><ele>22</ele><time>2012-03-31T15:40:34Z</time><cmt>4.3 kmh</cmt></trkpt>
<trkpt lat="58.872124" lon="05.841144"><ele>22</ele><time>2012-03-31T15:40:35Z</time><cmt>5.4 kmh</cmt></trkpt>
<trkpt lat="58.872111" lon="05.841136"><ele>22</ele><time>2012-03-31T15:40:36Z</time><cmt>5.2 kmh</cmt></trkpt>
<trkpt lat="58.872099" lon="05.841127"><ele>22</ele><time>2012-03-31T15:40:37Z</time><cmt>5.4 kmh</cmt></trkpt>
<trkpt lat="58.872085" lon="05.841117"><ele>22</ele><time>2012-03-31T15:40:38Z</time><cmt>5.9 kmh</cmt></trkpt>
<trkpt lat="58.872071" lon="05.841106"><ele>22</ele><time>2012-03-31T15:40:39Z</time><cmt>5.7 kmh</cmt></trkpt>
<trkpt lat="58.872058" lon="05.841096"><ele>22</ele><time>2012-03-31T15:40:40Z</time><cmt>5.7 kmh</cmt></trkpt>
<trkpt lat="58.872045" lon="05.841084"><ele>22</ele><time>2012-03-31T15:40:41Z</time><cmt>5.8 kmh</cmt></trkpt>
<trkpt lat="58.872032" lon="05.841073"><ele>22</ele><time>2012-03-31T15:40:42Z</time><cmt>5.8 kmh</cmt></trkpt>
<trkpt lat="58.872019" lon="05.841062"><ele>22</ele><time>2012-03-31T15:40:43Z</time><cmt>5.5 kmh</cmt></trkpt>
<trkpt lat="58.872005" lon="05.841052"><ele>22</ele><time>2012-03-31T15:40:44Z</time><cmt>5.5 kmh</cmt></trkpt>
<trkpt lat="58.871993" lon="05.841042"><ele>22</ele><time>2012-03-31T15:40:45Z</time><cmt>5.2 kmh</cmt></trkpt>
<trkpt lat="58.871980" lon="05.841033"><ele>22</ele><time>2012-03-31T15:40:46Z</time><cmt>5.4 kmh</cmt></trkpt>
<trkpt lat="58.871968" lon="05.841023"><ele>22</ele><time>2012-03-31T15:40:47Z</time><cmt>5.3 kmh</cmt></trkpt>
<trkpt lat="58.871955" lon="05.841014"><ele>22</ele><time>2012-03-31T15:40:48Z</time><cmt>5.4 kmh</cmt></trkpt>
<trkpt lat="58.871943" lon="05.841004"><ele>22</ele><time>2012-03-31T15:40:49Z</time><cmt>5.4 kmh</cmt></trkpt>
<trkpt lat="58.871930" lon="05.840995"><ele>22</ele><time>2012-03-31T15:40:50Z</time><cmt>5.2 kmh</cmt></trkpt>
<trkpt lat="58.871919" lon="05.840986"><ele>22</ele><time>2012-03-31T15:40:51Z</time><cmt>5.0 kmh</cmt></trkpt>
<trkpt lat="58.871907" lon="05.840977"><ele>22</ele><time>2012-03-31T15:40:52Z</time><cmt>5.1 kmh</cmt></trkpt>
<trkpt lat="58.871895" lon="05.840968"><ele>22</ele><time>2012-03-31T15:40:53Z</time><cmt>5.0 kmh</cmt></trkpt>
<trkpt lat="58.871884" lon="05.840957"><ele>22</ele><time>2012-03-31T15:40:54Z</time><cmt>5.1 kmh</cmt></trkpt>
<trkpt lat="58.871872" lon="05.840945"><ele>22</ele><time>2012-03-31T15:40:55Z</time><cmt>5.3 kmh</cmt></trkpt>
<trkpt lat="58.871860" lon="05.840935"><ele>22</ele><time>2012-03-31T15:40:56Z</time><cmt>5.5 kmh</cmt></trkpt>
<trkpt lat="58.871848" lon="05.840924"><ele>23</ele><time>2012-03-31T15:40:57Z</time><cmt>5.5 kmh</cmt></trkpt>
<trkpt lat="58.871837" lon="05.840912"><ele>23</ele><time>2012-03-31T15:40:58Z</time><cmt>5.2 kmh</cmt></trkpt>
<trkpt lat="58.871826" lon="05.840901"><ele>23</ele><time>2012-03-31T15:40:59Z</time><cmt>5.1 kmh</cmt></trkpt>
<trkpt lat="58.871816" lon="05.840889"><ele>23</ele><time>2012-03-31T15:41:00Z</time><cmt>5.1 kmh</cmt></trkpt>
<trkpt lat="58.871806" lon="05.840877"><ele>23</ele><time>2012-03-31T15:41:01Z</time><cmt>5.1 kmh</cmt></trkpt>
<trkpt lat="58.871795" lon="05.840865"><ele>23</ele><time>2012-03-31T15:41:02Z</time><cmt>5.1 kmh</cmt></trkpt>
<trkpt lat="58.871786" lon="05.840854"><ele>23</ele><time>2012-03-31T15:41:03Z</time><cmt>5.0 kmh</cmt></trkpt>
<trkpt lat="58.871776" lon="05.840844"><ele>23</ele><time>2012-03-31T15:41:04Z</time><cmt>3.9 kmh</cmt></trkpt>
<trkpt lat="58.871765" lon="05.840833"><ele>23</ele><time>2012-03-31T15:41:05Z</time><cmt>5.2 kmh</cmt></trkpt>
<trkpt lat="58.871753" lon="05.840823"><ele>24</ele><time>2012-03-31T15:41:06Z</time><cmt>5.1 kmh</cmt></trkpt>
<trkpt lat="58.871738" lon="05.840805"><ele>24</ele><time>2012-03-31T15:41:08Z</time><cmt>5.1 kmh</cmt></trkpt>
<trkpt lat="58.871719" lon="05.840782"><ele>24</ele><time>2012-03-31T15:41:10Z</time><cmt>4.3 kmh</cmt></trkpt>
<trkpt lat="58.871701" lon="05.840758"><ele>25</ele><time>2012-03-31T15:41:12Z</time><cmt>3.8 kmh</cmt></trkpt>
<trkpt lat="58.871681" lon="05.840719"><ele>25</ele><time>2012-03-31T15:41:15Z</time><cmt>4.0 kmh</cmt></trkpt>
<trkpt lat="58.871666" lon="05.840677"><ele>26</ele><time>2012-03-31T15:41:18Z</time><cmt>3.2 kmh</cmt></trkpt>
<trkpt lat="58.871652" lon="05.840637"><ele>28</ele><time>2012-03-31T15:41:21Z</time><cmt>3.7 kmh</cmt></trkpt>
<trkpt lat="58.871639" lon="05.840600"><ele>29</ele><time>2012-03-31T15:41:24Z</time><cmt>2.8 kmh</cmt></trkpt>
<trkpt lat="58.871608" lon="05.840504"><ele>33</ele><time>2012-03-31T15:41:34Z</time><cmt>5.0 kmh</cmt></trkpt>
<trkpt lat="58.871515" lon="05.840216"><ele>38</ele><time>2012-03-31T15:42:05Z</time><cmt>5.0 kmh</cmt></trkpt>
<trkpt lat="58.871496" lon="05.840164"><ele>38</ele><time>2012-03-31T15:42:09Z</time><cmt>4.7 kmh</cmt></trkpt>
<trkpt lat="58.871390" lon="05.840022"><ele>33</ele><time>2012-03-31T15:42:30Z</time><cmt>5.0 kmh</cmt></trkpt>
<trkpt lat="58.871383" lon="05.840012"><ele>32</ele><time>2012-03-31T15:42:31Z</time><cmt>5.0 kmh</cmt></trkpt>
<trkpt lat="58.871376" lon="05.840000"><ele>32</ele><time>2012-03-31T15:42:32Z</time><cmt>3.0 kmh</cmt></trkpt>
<trkpt lat="58.871369" lon="05.839986"><ele>32</ele><time>2012-03-31T15:42:33Z</time><cmt>4.3 kmh</cmt></trkpt>
<trkpt lat="58.871361" lon="05.839972"><ele>32</ele><time>2012-03-31T15:42:34Z</time><cmt>4.6 kmh</cmt></trkpt>
<trkpt lat="58.871353" lon="05.839957"><ele>31</ele><time>2012-03-31T15:42:35Z</time><cmt>4.8 kmh</cmt></trkpt>
<trkpt lat="58.871345" lon="05.839942"><ele>31</ele><time>2012-03-31T15:42:36Z</time><cmt>4.9 kmh</cmt></trkpt>
<trkpt lat="58.871336" lon="05.839927"><ele>31</ele><time>2012-03-31T15:42:37Z</time><cmt>4.0 kmh</cmt></trkpt>
<trkpt lat="58.871327" lon="05.839913"><ele>31</ele><time>2012-03-31T15:42:38Z</time><cmt>3.9 kmh</cmt></trkpt>
<trkpt lat="58.871318" lon="05.839900"><ele>31</ele><time>2012-03-31T15:42:39Z</time><cmt>4.9 kmh</cmt></trkpt>
<trkpt lat="58.871308" lon="05.839887"><ele>30</ele><time>2012-03-31T15:42:40Z</time><cmt>5.0 kmh</cmt></trkpt>
<trkpt lat="58.871299" lon="05.839875"><ele>30</ele><time>2012-03-31T15:42:41Z</time><cmt>5.0 kmh</cmt></trkpt>
<trkpt lat="58.871289" lon="05.839862"><ele>30</ele><time>2012-03-31T15:42:42Z</time><cmt>5.0 kmh</cmt></trkpt>
<trkpt lat="58.871279" lon="05.839850"><ele>30</ele><time>2012-03-31T15:42:43Z</time><cmt>5.0 kmh</cmt></trkpt>
<trkpt lat="58.871269" lon="05.839840"><ele>30</ele><time>2012-03-31T15:42:44Z</time><cmt>3.9 kmh</cmt></trkpt>
<trkpt lat="58.871259" lon="05.839831"><ele>29</ele><time>2012-03-31T15:42:45Z</time><cmt>3.8 kmh</cmt></trkpt>
<trkpt lat="58.871250" lon="05.839822"><ele>29</ele><time>2012-03-31T15:42:46Z</time><cmt>4.6 kmh</cmt></trkpt>
<trkpt lat="58.871241" lon="05.839814"><ele>29</ele><time>2012-03-31T15:42:47Z</time><cmt>4.5 kmh</cmt></trkpt>
<trkpt lat="58.871232" lon="05.839806"><ele>29</ele><time>2012-03-31T15:42:48Z</time><cmt>4.2 kmh</cmt></trkpt>
<trkpt lat="58.871224" lon="05.839798"><ele>29</ele><time>2012-03-31T15:42:49Z</time><cmt>4.0 kmh</cmt></trkpt>
<trkpt lat="58.871218" lon="05.839789"><ele>29</ele><time>2012-03-31T15:42:50Z</time><cmt>3.0 kmh</cmt></trkpt>
<trkpt lat="58.871211" lon="05.839781"><ele>28</ele><time>2012-03-31T15:42:51Z</time><cmt>2.8 kmh</cmt></trkpt>
<trkpt lat="58.871204" lon="05.839774"><ele>28</ele><time>2012-03-31T15:42:52Z</time><cmt>3.3 kmh</cmt></trkpt>
<trkpt lat="58.871198" lon="05.839766"><ele>28</ele><time>2012-03-31T15:42:53Z</time><cmt>3.4 kmh</cmt></trkpt>
<trkpt lat="58.871190" lon="05.839756"><ele>28</ele><time>2012-03-31T15:42:54Z</time><cmt>3.6 kmh</cmt></trkpt>
<trkpt lat="58.871183" lon="05.839747"><ele>28</ele><time>2012-03-31T15:42:55Z</time><cmt>3.8 kmh</cmt></trkpt>
<trkpt lat="58.871176" lon="05.839737"><ele>28</ele><time>2012-03-31T15:42:56Z</time><cmt>3.0 kmh</cmt></trkpt>
<trkpt lat="58.871169" lon="05.839726"><ele>28</ele><time>2012-03-31T15:42:57Z</time><cmt>2.9 kmh</cmt></trkpt>
<trkpt lat="58.871163" lon="05.839716"><ele>27</ele><time>2012-03-31T15:42:58Z</time><cmt>3.5 kmh</cmt></trkpt>
<trkpt lat="58.871158" lon="05.839707"><ele>27</ele><time>2012-03-31T15:42:59Z</time><cmt>3.3 kmh</cmt></trkpt>
<trkpt lat="58.871152" lon="05.839698"><ele>27</ele><time>2012-03-31T15:43:00Z</time><cmt>3.2 kmh</cmt></trkpt>
<trkpt lat="58.871146" lon="05.839689"><ele>27</ele><time>2012-03-31T15:43:01Z</time><cmt>3.2 kmh</cmt></trkpt>
<trkpt lat="58.871141" lon="05.839679"><ele>27</ele><time>2012-03-31T15:43:02Z</time><cmt>2.6 kmh</cmt></trkpt>
<trkpt lat="58.871136" lon="05.839669"><ele>27</ele><time>2012-03-31T15:43:03Z</time><cmt>2.6 kmh</cmt></trkpt>
<trkpt lat="58.871130" lon="05.839659"><ele>27</ele><time>2012-03-31T15:43:04Z</time><cmt>3.3 kmh</cmt></trkpt>
<trkpt lat="58.871124" lon="05.839647"><ele>27</ele><time>2012-03-31T15:43:05Z</time><cmt>3.5 kmh</cmt></trkpt>
<trkpt lat="58.871118" lon="05.839635"><ele>26</ele><time>2012-03-31T15:43:06Z</time><cmt>3.6 kmh</cmt></trkpt>
<trkpt lat="58.871112" lon="05.839622"><ele>26</ele><time>2012-03-31T15:43:07Z</time><cmt>3.9 kmh</cmt></trkpt>
<trkpt lat="58.871105" lon="05.839609"><ele>26</ele><time>2012-03-31T15:43:08Z</time><cmt>3.3 kmh</cmt></trkpt>
<trkpt lat="58.871098" lon="05.839595"><ele>26</ele><time>2012-03-31T15:43:09Z</time><cmt>3.4 kmh</cmt></trkpt>
<trkpt lat="58.871090" lon="05.839582"><ele>26</ele><time>2012-03-31T15:43:10Z</time><cmt>4.3 kmh</cmt></trkpt>
<trkpt lat="58.871082" lon="05.839570"><ele>26</ele><time>2012-03-31T15:43:11Z</time><cmt>4.6 kmh</cmt></trkpt>
<trkpt lat="58.871073" lon="05.839556"><ele>26</ele><time>2012-03-31T15:43:12Z</time><cmt>4.8 kmh</cmt></trkpt>
<trkpt lat="58.871063" lon="05.839540"><ele>26</ele><time>2012-03-31T15:43:13Z</time><cmt>5.9 kmh</cmt></trkpt>
<trkpt lat="58.871051" lon="05.839523"><ele>26</ele><time>2012-03-31T15:43:15Z</time><cmt>6.4 kmh</cmt></trkpt>
<trkpt lat="58.871038" lon="05.839504"><ele>26</ele><time>2012-03-31T15:43:15Z</time><cmt>5.8 kmh</cmt></trkpt>
<trkpt lat="58.871027" lon="05.839484"><ele>26</ele><time>2012-03-31T15:43:16Z</time><cmt>5.3 kmh</cmt></trkpt>
<trkpt lat="58.871018" lon="05.839466"><ele>26</ele><time>2012-03-31T15:43:17Z</time><cmt>5.3 kmh</cmt></trkpt>
<trkpt lat="58.871010" lon="05.839449"><ele>26</ele><time>2012-03-31T15:43:18Z</time><cmt>5.0 kmh</cmt></trkpt>
<trkpt lat="58.871002" lon="05.839434"><ele>26</ele><time>2012-03-31T15:43:19Z</time><cmt>5.0 kmh</cmt></trkpt>
<trkpt lat="58.870993" lon="05.839420"><ele>26</ele><time>2012-03-31T15:43:20Z</time><cmt>4.8 kmh</cmt></trkpt>
<trkpt lat="58.870984" lon="05.839404"><ele>26</ele><time>2012-03-31T15:43:21Z</time><cmt>4.0 kmh</cmt></trkpt>
<trkpt lat="58.870975" lon="05.839386"><ele>26</ele><time>2012-03-31T15:43:22Z</time><cmt>5.2 kmh</cmt></trkpt>
<trkpt lat="58.870966" lon="05.839366"><ele>26</ele><time>2012-03-31T15:43:23Z</time><cmt>5.7 kmh</cmt></trkpt>
<trkpt lat="58.870956" lon="05.839344"><ele>26</ele><time>2012-03-31T15:43:24Z</time><cmt>6.0 kmh</cmt></trkpt>
<trkpt lat="58.870946" lon="05.839320"><ele>25</ele><time>2012-03-31T15:43:25Z</time><cmt>6.8 kmh</cmt></trkpt>
<trkpt lat="58.870936" lon="05.839293"><ele>25</ele><time>2012-03-31T15:43:26Z</time><cmt>6.9 kmh</cmt></trkpt>
<trkpt lat="58.870928" lon="05.839265"><ele>25</ele><time>2012-03-31T15:43:27Z</time><cmt>6.4 kmh</cmt></trkpt>
<trkpt lat="58.870922" lon="05.839238"><ele>25</ele><time>2012-03-31T15:43:28Z</time><cmt>6.4 kmh</cmt></trkpt>
<trkpt lat="58.870919" lon="05.839215"><ele>25</ele><time>2012-03-31T15:43:29Z</time><cmt>5.0 kmh</cmt></trkpt>
<trkpt lat="58.870917" lon="05.839195"><ele>25</ele><time>2012-03-31T15:43:30Z</time><cmt>4.9 kmh</cmt></trkpt>
<trkpt lat="58.870915" lon="05.839181"><ele>25</ele><time>2012-03-31T15:43:31Z</time><cmt>3.9 kmh</cmt></trkpt>
<trkpt lat="58.870911" lon="05.839168"><ele>25</ele><time>2012-03-31T15:43:32Z</time><cmt>3.2 kmh</cmt></trkpt>
<trkpt lat="58.870908" lon="05.839156"><ele>25</ele><time>2012-03-31T15:43:33Z</time><cmt>2.5 kmh</cmt></trkpt>
<trkpt lat="58.870905" lon="05.839142"><ele>25</ele><time>2012-03-31T15:43:34Z</time><cmt>2.6 kmh</cmt></trkpt>
<trkpt lat="58.870901" lon="05.839126"><ele>25</ele><time>2012-03-31T15:43:35Z</time><cmt>3.7 kmh</cmt></trkpt>
<trkpt lat="58.870897" lon="05.839108"><ele>25</ele><time>2012-03-31T15:43:36Z</time><cmt>4.2 kmh</cmt></trkpt>
<trkpt lat="58.870892" lon="05.839089"><ele>25</ele><time>2012-03-31T15:43:37Z</time><cmt>4.6 kmh</cmt></trkpt>
<trkpt lat="58.870887" lon="05.839068"><ele>25</ele><time>2012-03-31T15:43:38Z</time><cmt>5.0 kmh</cmt></trkpt>
<trkpt lat="58.870882" lon="05.839045"><ele>25</ele><time>2012-03-31T15:43:39Z</time><cmt>5.0 kmh</cmt></trkpt>
<trkpt lat="58.870874" lon="05.839025"><ele>25</ele><time>2012-03-31T15:43:40Z</time><cmt>5.5 kmh</cmt></trkpt>
<trkpt lat="58.870864" lon="05.839002"><ele>25</ele><time>2012-03-31T15:43:41Z</time><cmt>6.8 kmh</cmt></trkpt>
<trkpt lat="58.870855" lon="05.838973"><ele>25</ele><time>2012-03-31T15:43:42Z</time><cmt>7.6 kmh</cmt></trkpt>
<trkpt lat="58.870845" lon="05.838943"><ele>25</ele><time>2012-03-31T15:43:43Z</time><cmt>8.0 kmh</cmt></trkpt>
<trkpt lat="58.870832" lon="05.838914"><ele>25</ele><time>2012-03-31T15:43:44Z</time><cmt>7.3 kmh</cmt></trkpt>
<trkpt lat="58.870819" lon="05.838892"><ele>25</ele><time>2012-03-31T15:43:46Z</time><cmt>6.3 kmh</cmt></trkpt>
<trkpt lat="58.870806" lon="05.838877"><ele>25</ele><time>2012-03-31T15:43:46Z</time><cmt>5.2 kmh</cmt></trkpt>
<trkpt lat="58.870794" lon="05.838870"><ele>25</ele><time>2012-03-31T15:43:47Z</time><cmt>5.2 kmh</cmt></trkpt>
<trkpt lat="58.870783" lon="05.838866"><ele>25</ele><time>2012-03-31T15:43:48Z</time><cmt>5.0 kmh</cmt></trkpt>
<trkpt lat="58.870773" lon="05.838862"><ele>25</ele><time>2012-03-31T15:43:49Z</time><cmt>4.7 kmh</cmt></trkpt>
<trkpt lat="58.870766" lon="05.838858"><ele>25</ele><time>2012-03-31T15:43:50Z</time><cmt>3.8 kmh</cmt></trkpt>
<trkpt lat="58.870763" lon="05.838854"><ele>25</ele><time>2012-03-31T15:43:51Z</time><cmt>2.3 kmh</cmt></trkpt>
<trkpt lat="58.870762" lon="05.838850"><ele>25</ele><time>2012-03-31T15:43:52Z</time><cmt>1.0 kmh</cmt></trkpt>
<trkpt lat="58.870760" lon="05.838844"><ele>25</ele><time>2012-03-31T15:43:53Z</time><cmt>1.1 kmh</cmt></trkpt>
<trkpt lat="58.870756" lon="05.838837"><ele>25</ele><time>2012-03-31T15:43:54Z</time><cmt>2.0 kmh</cmt></trkpt>
<trkpt lat="58.870750" lon="05.838831"><ele>25</ele><time>2012-03-31T15:43:55Z</time><cmt>2.5 kmh</cmt></trkpt>
<trkpt lat="58.870744" lon="05.838825"><ele>25</ele><time>2012-03-31T15:43:56Z</time><cmt>2.9 kmh</cmt></trkpt>
<trkpt lat="58.870737" lon="05.838814"><ele>25</ele><time>2012-03-31T15:43:57Z</time><cmt>3.4 kmh</cmt></trkpt>
<trkpt lat="58.870730" lon="05.838801"><ele>25</ele><time>2012-03-31T15:43:58Z</time><cmt>3.1 kmh</cmt></trkpt>
<trkpt lat="58.870723" lon="05.838787"><ele>25</ele><time>2012-03-31T15:43:59Z</time><cmt>3.6 kmh</cmt></trkpt>
<trkpt lat="58.870715" lon="05.838770"><ele>25</ele><time>2012-03-31T15:44:00Z</time><cmt>4.7 kmh</cmt></trkpt>
<trkpt lat="58.870706" lon="05.838752"><ele>25</ele><time>2012-03-31T15:44:01Z</time><cmt>6.0 kmh</cmt></trkpt>
<trkpt lat="58.870697" lon="05.838731"><ele>25</ele><time>2012-03-31T15:44:02Z</time><cmt>5.3 kmh</cmt></trkpt>
<trkpt lat="58.870689" lon="05.838711"><ele>25</ele><time>2012-03-31T15:44:03Z</time><cmt>5.3 kmh</cmt></trkpt>
<trkpt lat="58.870682" lon="05.838693"><ele>25</ele><time>2012-03-31T15:44:04Z</time><cmt>4.3 kmh</cmt></trkpt>
<trkpt lat="58.870676" lon="05.838675"><ele>25</ele><time>2012-03-31T15:44:05Z</time><cmt>3.9 kmh</cmt></trkpt>
<trkpt lat="58.870670" lon="05.838657"><ele>25</ele><time>2012-03-31T15:44:06Z</time><cmt>4.7 kmh</cmt></trkpt>
<trkpt lat="58.870664" lon="05.838640"><ele>25</ele><time>2012-03-31T15:44:07Z</time><cmt>4.7 kmh</cmt></trkpt>
<trkpt lat="58.870656" lon="05.838621"><ele>25</ele><time>2012-03-31T15:44:08Z</time><cmt>5.4 kmh</cmt></trkpt>
<trkpt lat="58.870649" lon="05.838598"><ele>25</ele><time>2012-03-31T15:44:09Z</time><cmt>5.8 kmh</cmt></trkpt>
<trkpt lat="58.870631" lon="05.838554"><ele>25</ele><time>2012-03-31T15:44:11Z</time><cmt>6.8 kmh</cmt></trkpt>
<trkpt lat="58.870609" lon="05.838500"><ele>24</ele><time>2012-03-31T15:44:13Z</time><cmt>6.9 kmh</cmt></trkpt>
<trkpt lat="58.870588" lon="05.838442"><ele>24</ele><time>2012-03-31T15:44:15Z</time><cmt>6.5 kmh</cmt></trkpt>
<trkpt lat="58.870579" lon="05.838421"><ele>24</ele><time>2012-03-31T15:44:17Z</time><cmt>6.4 kmh</cmt></trkpt>
<trkpt lat="58.870569" lon="05.838398"><ele>24</ele><time>2012-03-31T15:44:17Z</time><cmt>6.4 kmh</cmt></trkpt>
<trkpt lat="58.870559" lon="05.838376"><ele>24</ele><time>2012-03-31T15:44:18Z</time><cmt>6.1 kmh</cmt></trkpt>
<trkpt lat="58.870550" lon="05.838355"><ele>24</ele><time>2012-03-31T15:44:19Z</time><cmt>5.8 kmh</cmt></trkpt>
<trkpt lat="58.870540" lon="05.838335"><ele>24</ele><time>2012-03-31T15:44:20Z</time><cmt>5.4 kmh</cmt></trkpt>
<trkpt lat="58.870532" lon="05.838316"><ele>24</ele><time>2012-03-31T15:44:21Z</time><cmt>5.1 kmh</cmt></trkpt>
<trkpt lat="58.870523" lon="05.838298"><ele>24</ele><time>2012-03-31T15:44:22Z</time><cmt>5.1 kmh</cmt></trkpt>
<trkpt lat="58.870515" lon="05.838282"><ele>24</ele><time>2012-03-31T15:44:23Z</time><cmt>4.2 kmh</cmt></trkpt>
<trkpt lat="58.870507" lon="05.838268"><ele>24</ele><time>2012-03-31T15:44:24Z</time><cmt>3.9 kmh</cmt></trkpt>
<trkpt lat="58.870499" lon="05.838256"><ele>24</ele><time>2012-03-31T15:44:25Z</time><cmt>4.6 kmh</cmt></trkpt>
<trkpt lat="58.870490" lon="05.838246"><ele>24</ele><time>2012-03-31T15:44:26Z</time><cmt>4.4 kmh</cmt></trkpt>
<trkpt lat="58.870482" lon="05.838236"><ele>24</ele><time>2012-03-31T15:44:27Z</time><cmt>4.3 kmh</cmt></trkpt>
<trkpt lat="58.870472" lon="05.838226"><ele>24</ele><time>2012-03-31T15:44:28Z</time><cmt>4.5 kmh</cmt></trkpt>
<trkpt lat="58.870462" lon="05.838216"><ele>24</ele><time>2012-03-31T15:44:29Z</time><cmt>3.9 kmh</cmt></trkpt>
<trkpt lat="58.870452" lon="05.838207"><ele>24</ele><time>2012-03-31T15:44:30Z</time><cmt>3.9 kmh</cmt></trkpt>
<trkpt lat="58.870442" lon="05.838197"><ele>24</ele><time>2012-03-31T15:44:31Z</time><cmt>4.9 kmh</cmt></trkpt>
<trkpt lat="58.870432" lon="05.838187"><ele>24</ele><time>2012-03-31T15:44:32Z</time><cmt>4.8 kmh</cmt></trkpt>
<trkpt lat="58.870423" lon="05.838178"><ele>24</ele><time>2012-03-31T15:44:33Z</time><cmt>4.6 kmh</cmt></trkpt>
<trkpt lat="58.870414" lon="05.838169"><ele>24</ele><time>2012-03-31T15:44:34Z</time><cmt>4.4 kmh</cmt></trkpt>
<trkpt lat="58.870406" lon="05.838162"><ele>24</ele><time>2012-03-31T15:44:35Z</time><cmt>3.2 kmh</cmt></trkpt>
<trkpt lat="58.870398" lon="05.838155"><ele>24</ele><time>2012-03-31T15:44:36Z</time><cmt>3.1 kmh</cmt></trkpt>
<trkpt lat="58.870389" lon="05.838149"><ele>24</ele><time>2012-03-31T15:44:37Z</time><cmt>3.9 kmh</cmt></trkpt>
<trkpt lat="58.870380" lon="05.838143"><ele>24</ele><time>2012-03-31T15:44:38Z</time><cmt>4.1 kmh</cmt></trkpt>
<trkpt lat="58.870371" lon="05.838136"><ele>24</ele><time>2012-03-31T15:44:39Z</time><cmt>4.2 kmh</cmt></trkpt>
<trkpt lat="58.870362" lon="05.838129"><ele>24</ele><time>2012-03-31T15:44:40Z</time><cmt>4.3 kmh</cmt></trkpt>
<trkpt lat="58.870352" lon="05.838122"><ele>24</ele><time>2012-03-31T15:44:41Z</time><cmt>3.5 kmh</cmt></trkpt>
<trkpt lat="58.870342" lon="05.838114"><ele>24</ele><time>2012-03-31T15:44:42Z</time><cmt>3.6 kmh</cmt></trkpt>
<trkpt lat="58.870332" lon="05.838107"><ele>24</ele><time>2012-03-31T15:44:43Z</time><cmt>4.8 kmh</cmt></trkpt>
<trkpt lat="58.870321" lon="05.838099"><ele>24</ele><time>2012-03-31T15:44:44Z</time><cmt>5.0 kmh</cmt></trkpt>
<trkpt lat="58.870309" lon="05.838092"><ele>24</ele><time>2012-03-31T15:44:45Z</time><cmt>5.0 kmh</cmt></trkpt>
<trkpt lat="58.870298" lon="05.838085"><ele>24</ele><time>2012-03-31T15:44:46Z</time><cmt>5.1 kmh</cmt></trkpt>
<trkpt lat="58.870286" lon="05.838079"><ele>24</ele><time>2012-03-31T15:44:48Z</time><cmt>5.1 kmh</cmt></trkpt>
<trkpt lat="58.870274" lon="05.838072"><ele>24</ele><time>2012-03-31T15:44:48Z</time><cmt>5.1 kmh</cmt></trkpt>
<trkpt lat="58.870263" lon="05.838067"><ele>24</ele><time>2012-03-31T15:44:49Z</time><cmt>5.1 kmh</cmt></trkpt>
<trkpt lat="58.870250" lon="05.838062"><ele>24</ele><time>2012-03-31T15:44:50Z</time><cmt>5.1 kmh</cmt></trkpt>
<trkpt lat="58.870238" lon="05.838059"><ele>24</ele><time>2012-03-31T15:44:51Z</time><cmt>5.1 kmh</cmt></trkpt>
<trkpt lat="58.870226" lon="05.838058"><ele>24</ele><time>2012-03-31T15:44:52Z</time><cmt>5.0 kmh</cmt></trkpt>
<trkpt lat="58.870213" lon="05.838057"><ele>24</ele><time>2012-03-31T15:44:53Z</time><cmt>5.3 kmh</cmt></trkpt>
<trkpt lat="58.870200" lon="05.838059"><ele>24</ele><time>2012-03-31T15:44:54Z</time><cmt>5.4 kmh</cmt></trkpt>
<trkpt lat="58.870186" lon="05.838061"><ele>24</ele><time>2012-03-31T15:44:55Z</time><cmt>5.5 kmh</cmt></trkpt>
<trkpt lat="58.870173" lon="05.838065"><ele>24</ele><time>2012-03-31T15:44:56Z</time><cmt>5.5 kmh</cmt></trkpt>
<trkpt lat="58.870159" lon="05.838071"><ele>24</ele><time>2012-03-31T15:44:57Z</time><cmt>5.4 kmh</cmt></trkpt>
<trkpt lat="58.870146" lon="05.838078"><ele>24</ele><time>2012-03-31T15:44:58Z</time><cmt>5.7 kmh</cmt></trkpt>
<trkpt lat="58.870132" lon="05.838085"><ele>24</ele><time>2012-03-31T15:44:59Z</time><cmt>5.7 kmh</cmt></trkpt>
<trkpt lat="58.870120" lon="05.838093"><ele>24</ele><time>2012-03-31T15:45:00Z</time><cmt>5.1 kmh</cmt></trkpt>
<trkpt lat="58.870107" lon="05.838100"><ele>24</ele><time>2012-03-31T15:45:01Z</time><cmt>5.1 kmh</cmt></trkpt>
<trkpt lat="58.870096" lon="05.838106"><ele>24</ele><time>2012-03-31T15:45:02Z</time><cmt>5.0 kmh</cmt></trkpt>
<trkpt lat="58.870084" lon="05.838111"><ele>24</ele><time>2012-03-31T15:45:03Z</time><cmt>5.0 kmh</cmt></trkpt>
<trkpt lat="58.870074" lon="05.838117"><ele>24</ele><time>2012-03-31T15:45:04Z</time><cmt>5.0 kmh</cmt></trkpt>
<trkpt lat="58.870063" lon="05.838124"><ele>24</ele><time>2012-03-31T15:45:05Z</time><cmt>4.9 kmh</cmt></trkpt>
<trkpt lat="58.870053" lon="05.838132"><ele>24</ele><time>2012-03-31T15:45:06Z</time><cmt>3.8 kmh</cmt></trkpt>
<trkpt lat="58.870044" lon="05.838140"><ele>24</ele><time>2012-03-31T15:45:07Z</time><cmt>3.6 kmh</cmt></trkpt>
<trkpt lat="58.870035" lon="05.838148"><ele>24</ele><time>2012-03-31T15:45:08Z</time><cmt>4.2 kmh</cmt></trkpt>
<trkpt lat="58.870027" lon="05.838157"><ele>24</ele><time>2012-03-31T15:45:09Z</time><cmt>4.0 kmh</cmt></trkpt>
<trkpt lat="58.870020" lon="05.838166"><ele>24</ele><time>2012-03-31T15:45:10Z</time><cmt>3.9 kmh</cmt></trkpt>
<trkpt lat="58.870012" lon="05.838176"><ele>24</ele><time>2012-03-31T15:45:11Z</time><cmt>3.9 kmh</cmt></trkpt>
<trkpt lat="58.870005" lon="05.838186"><ele>24</ele><time>2012-03-31T15:45:12Z</time><cmt>3.2 kmh</cmt></trkpt>
<trkpt lat="58.869998" lon="05.838196"><ele>24</ele><time>2012-03-31T15:45:13Z</time><cmt>3.0 kmh</cmt></trkpt>
<trkpt lat="58.869993" lon="05.838207"><ele>24</ele><time>2012-03-31T15:45:14Z</time><cmt>3.5 kmh</cmt></trkpt>
<trkpt lat="58.869980" lon="05.838234"><ele>24</ele><time>2012-03-31T15:45:17Z</time><cmt>2.7 kmh</cmt></trkpt>
<trkpt lat="58.869942" lon="05.838367"><ele>24</ele><time>2012-03-31T15:45:30Z</time><cmt>5.0 kmh</cmt></trkpt>
<trkpt lat="58.869940" lon="05.838375"><ele>24</ele><time>2012-03-31T15:45:31Z</time><cmt>5.0 kmh</cmt></trkpt>
<trkpt lat="58.869939" lon="05.838383"><ele>24</ele><time>2012-03-31T15:45:32Z</time><cmt>1.5 kmh</cmt></trkpt>
<trkpt lat="58.869938" lon="05.838392"><ele>24</ele><time>2012-03-31T15:45:33Z</time><cmt>2.0 kmh</cmt></trkpt>
<trkpt lat="58.869936" lon="05.838402"><ele>24</ele><time>2012-03-31T15:45:34Z</time><cmt>2.2 kmh</cmt></trkpt>
<trkpt lat="58.869933" lon="05.838415"><ele>24</ele><time>2012-03-31T15:45:35Z</time><cmt>2.8 kmh</cmt></trkpt>
<trkpt lat="58.869930" lon="05.838433"><ele>24</ele><time>2012-03-31T15:45:36Z</time><cmt>3.7 kmh</cmt></trkpt>
<trkpt lat="58.869926" lon="05.838454"><ele>24</ele><time>2012-03-31T15:45:37Z</time><cmt>5.9 kmh</cmt></trkpt>
<trkpt lat="58.869920" lon="05.838481"><ele>24</ele><time>2012-03-31T15:45:38Z</time><cmt>6.2 kmh</cmt></trkpt>
<trkpt lat="58.869912" lon="05.838507"><ele>24</ele><time>2012-03-31T15:45:39Z</time><cmt>6.6 kmh</cmt></trkpt>
<trkpt lat="58.869903" lon="05.838535"><ele>24</ele><time>2012-03-31T15:45:40Z</time><cmt>7.3 kmh</cmt></trkpt>
<trkpt lat="58.869892" lon="05.838562"><ele>24</ele><time>2012-03-31T15:45:41Z</time><cmt>7.1 kmh</cmt></trkpt>
<trkpt lat="58.869879" lon="05.838585"><ele>24</ele><time>2012-03-31T15:45:42Z</time><cmt>7.2 kmh</cmt></trkpt>
<trkpt lat="58.869864" lon="05.838605"><ele>24</ele><time>2012-03-31T15:45:43Z</time><cmt>7.1 kmh</cmt></trkpt>
<trkpt lat="58.869848" lon="05.838620"><ele>24</ele><time>2012-03-31T15:45:44Z</time><cmt>7.0 kmh</cmt></trkpt>
<trkpt lat="58.869831" lon="05.838632"><ele>24</ele><time>2012-03-31T15:45:45Z</time><cmt>7.3 kmh</cmt></trkpt>
<trkpt lat="58.869813" lon="05.838639"><ele>24</ele><time>2012-03-31T15:45:46Z</time><cmt>6.9 kmh</cmt></trkpt>
<trkpt lat="58.869795" lon="05.838642"><ele>24</ele><time>2012-03-31T15:45:47Z</time><cmt>7.2 kmh</cmt></trkpt>
<trkpt lat="58.869777" lon="05.838644"><ele>24</ele><time>2012-03-31T15:45:48Z</time><cmt>7.2 kmh</cmt></trkpt>
<trkpt lat="58.869758" lon="05.838643"><ele>24</ele><time>2012-03-31T15:45:49Z</time><cmt>7.7 kmh</cmt></trkpt>
<trkpt lat="58.869738" lon="05.838643"><ele>24</ele><time>2012-03-31T15:45:50Z</time><cmt>8.1 kmh</cmt></trkpt>
<trkpt lat="58.869718" lon="05.838641"><ele>24</ele><time>2012-03-31T15:45:51Z</time><cmt>7.9 kmh</cmt></trkpt>
<trkpt lat="58.869698" lon="05.838640"><ele>24</ele><time>2012-03-31T15:45:52Z</time><cmt>7.6 kmh</cmt></trkpt>
<trkpt lat="58.869678" lon="05.838637"><ele>24</ele><time>2012-03-31T15:45:53Z</time><cmt>8.0 kmh</cmt></trkpt>
<trkpt lat="58.869657" lon="05.838634"><ele>24</ele><time>2012-03-31T15:45:54Z</time><cmt>8.3 kmh</cmt></trkpt>
<trkpt lat="58.869636" lon="05.838631"><ele>24</ele><time>2012-03-31T15:45:55Z</time><cmt>8.0 kmh</cmt></trkpt>
<trkpt lat="58.869616" lon="05.838626"><ele>24</ele><time>2012-03-31T15:45:56Z</time><cmt>8.1 kmh</cmt></trkpt>
<trkpt lat="58.869595" lon="05.838621"><ele>24</ele><time>2012-03-31T15:45:57Z</time><cmt>8.4 kmh</cmt></trkpt>
<trkpt lat="58.869574" lon="05.838616"><ele>24</ele><time>2012-03-31T15:45:58Z</time><cmt>8.0 kmh</cmt></trkpt>
<trkpt lat="58.869555" lon="05.838612"><ele>24</ele><time>2012-03-31T15:45:59Z</time><cmt>8.6 kmh</cmt></trkpt>
<trkpt lat="58.869534" lon="05.838607"><ele>24</ele><time>2012-03-31T15:46:00Z</time><cmt>8.2 kmh</cmt></trkpt>
<trkpt lat="58.869512" lon="05.838602"><ele>24</ele><time>2012-03-31T15:46:01Z</time><cmt>8.2 kmh</cmt></trkpt>
<trkpt lat="58.869492" lon="05.838597"><ele>24</ele><time>2012-03-31T15:46:02Z</time><cmt>8.2 kmh</cmt></trkpt>
<trkpt lat="58.869471" lon="05.838591"><ele>24</ele><time>2012-03-31T15:46:03Z</time><cmt>8.1 kmh</cmt></trkpt>
<trkpt lat="58.869450" lon="05.838586"><ele>24</ele><time>2012-03-31T15:46:04Z</time><cmt>8.5 kmh</cmt></trkpt>
<trkpt lat="58.869429" lon="05.838582"><ele>24</ele><time>2012-03-31T15:46:05Z</time><cmt>8.2 kmh</cmt></trkpt>
<trkpt lat="58.869409" lon="05.838578"><ele>24</ele><time>2012-03-31T15:46:06Z</time><cmt>8.1 kmh</cmt></trkpt>
<trkpt lat="58.869390" lon="05.838576"><ele>24</ele><time>2012-03-31T15:46:07Z</time><cmt>7.8 kmh</cmt></trkpt>
<trkpt lat="58.869370" lon="05.838574"><ele>24</ele><time>2012-03-31T15:46:08Z</time><cmt>8.0 kmh</cmt></trkpt>
<trkpt lat="58.869351" lon="05.838573"><ele>24</ele><time>2012-03-31T15:46:09Z</time><cmt>7.8 kmh</cmt></trkpt>
<trkpt lat="58.869331" lon="05.838573"><ele>24</ele><time>2012-03-31T15:46:10Z</time><cmt>8.0 kmh</cmt></trkpt>
<trkpt lat="58.869310" lon="05.838573"><ele>24</ele><time>2012-03-31T15:46:11Z</time><cmt>8.0 kmh</cmt></trkpt>
<trkpt lat="58.869290" lon="05.838574"><ele>24</ele><time>2012-03-31T15:46:12Z</time><cmt>8.2 kmh</cmt></trkpt>
<trkpt lat="58.869269" lon="05.838577"><ele>24</ele><time>2012-03-31T15:46:13Z</time><cmt>8.2 kmh</cmt></trkpt>
<trkpt lat="58.869248" lon="05.838579"><ele>24</ele><time>2012-03-31T15:46:14Z</time><cmt>8.4 kmh</cmt></trkpt>
<trkpt lat="58.869226" lon="05.838584"><ele>24</ele><time>2012-03-31T15:46:15Z</time><cmt>8.5 kmh</cmt></trkpt>
<trkpt lat="58.869202" lon="05.838589"><ele>24</ele><time>2012-03-31T15:46:16Z</time><cmt>8.3 kmh</cmt></trkpt>
<trkpt lat="58.869183" lon="05.838592"><ele>24</ele><time>2012-03-31T15:46:17Z</time><cmt>8.5 kmh</cmt></trkpt>
<trkpt lat="58.869162" lon="05.838596"><ele>24</ele><time>2012-03-31T15:46:18Z</time><cmt>8.5 kmh</cmt></trkpt>
<trkpt lat="58.869141" lon="05.838599"><ele>24</ele><time>2012-03-31T15:46:19Z</time><cmt>8.4 kmh</cmt></trkpt>
<trkpt lat="58.869120" lon="05.838602"><ele>24</ele><time>2012-03-31T15:46:20Z</time><cmt>8.4 kmh</cmt></trkpt>
<trkpt lat="58.869099" lon="05.838605"><ele>24</ele><time>2012-03-31T15:46:21Z</time><cmt>8.2 kmh</cmt></trkpt>
<trkpt lat="58.869078" lon="05.838608"><ele>24</ele><time>2012-03-31T15:46:22Z</time><cmt>8.4 kmh</cmt></trkpt>
<trkpt lat="58.869057" lon="05.838609"><ele>24</ele><time>2012-03-31T15:46:23Z</time><cmt>8.2 kmh</cmt></trkpt>
<trkpt lat="58.869036" lon="05.838609"><ele>24</ele><time>2012-03-31T15:46:24Z</time><cmt>8.4 kmh</cmt></trkpt>
<trkpt lat="58.869015" lon="05.838609"><ele>24</ele><time>2012-03-31T15:46:25Z</time><cmt>7.7 kmh</cmt></trkpt>
<trkpt lat="58.868996" lon="05.838607"><ele>24</ele><time>2012-03-31T15:46:26Z</time><cmt>7.5 kmh</cmt></trkpt>
<trkpt lat="58.868978" lon="05.838602"><ele>24</ele><time>2012-03-31T15:46:27Z</time><cmt>6.7 kmh</cmt></trkpt>
<trkpt lat="58.868960" lon="05.838596"><ele>24</ele><time>2012-03-31T15:46:28Z</time><cmt>7.2 kmh</cmt></trkpt>
<trkpt lat="58.868942" lon="05.838590"><ele>24</ele><time>2012-03-31T15:46:29Z</time><cmt>6.9 kmh</cmt></trkpt>
<trkpt lat="58.868926" lon="05.838583"><ele>24</ele><time>2012-03-31T15:46:30Z</time><cmt>5.8 kmh</cmt></trkpt>
<trkpt lat="58.868911" lon="05.838579"><ele>24</ele><time>2012-03-31T15:46:31Z</time><cmt>6.1 kmh</cmt></trkpt>
<trkpt lat="58.868895" lon="05.838577"><ele>24</ele><time>2012-03-31T15:46:32Z</time><cmt>6.2 kmh</cmt></trkpt>
<trkpt lat="58.868880" lon="05.838577"><ele>24</ele><time>2012-03-31T15:46:33Z</time><cmt>6.4 kmh</cmt></trkpt>
<trkpt lat="58.868863" lon="05.838577"><ele>24</ele><time>2012-03-31T15:46:34Z</time><cmt>6.6 kmh</cmt></trkpt>
<trkpt lat="58.868847" lon="05.838579"><ele>24</ele><time>2012-03-31T15:46:35Z</time><cmt>6.7 kmh</cmt></trkpt>
<trkpt lat="58.868830" lon="05.838581"><ele>24</ele><time>2012-03-31T15:46:36Z</time><cmt>6.7 kmh</cmt></trkpt>
<trkpt lat="58.868813" lon="05.838584"><ele>24</ele><time>2012-03-31T15:46:37Z</time><cmt>6.5 kmh</cmt></trkpt>
<trkpt lat="58.868796" lon="05.838587"><ele>24</ele><time>2012-03-31T15:46:38Z</time><cmt>6.8 kmh</cmt></trkpt>
<trkpt lat="58.868779" lon="05.838591"><ele>24</ele><time>2012-03-31T15:46:39Z</time><cmt>7.0 kmh</cmt></trkpt>
<trkpt lat="58.868761" lon="05.838593"><ele>24</ele><time>2012-03-31T15:46:40Z</time><cmt>6.9 kmh</cmt></trkpt>
<trkpt lat="58.868743" lon="05.838595"><ele>24</ele><time>2012-03-31T15:46:41Z</time><cmt>7.0 kmh</cmt></trkpt>
<trkpt lat="58.868725" lon="05.838596"><ele>24</ele><time>2012-03-31T15:46:42Z</time><cmt>7.3 kmh</cmt></trkpt>
<trkpt lat="58.868707" lon="05.838597"><ele>24</ele><time>2012-03-31T15:46:43Z</time><cmt>7.2 kmh</cmt></trkpt>
<trkpt lat="58.868688" lon="05.838598"><ele>24</ele><time>2012-03-31T15:46:44Z</time><cmt>7.5 kmh</cmt></trkpt>
<trkpt lat="58.868669" lon="05.838599"><ele>24</ele><time>2012-03-31T15:46:45Z</time><cmt>7.5 kmh</cmt></trkpt>
<trkpt lat="58.868651" lon="05.838601"><ele>24</ele><time>2012-03-31T15:46:46Z</time><cmt>7.4 kmh</cmt></trkpt>
<trkpt lat="58.868632" lon="05.838603"><ele>24</ele><time>2012-03-31T15:46:47Z</time><cmt>7.3 kmh</cmt></trkpt>
<trkpt lat="58.868614" lon="05.838605"><ele>24</ele><time>2012-03-31T15:46:48Z</time><cmt>7.0 kmh</cmt></trkpt>
<trkpt lat="58.868596" lon="05.838607"><ele>24</ele><time>2012-03-31T15:46:49Z</time><cmt>7.1 kmh</cmt></trkpt>
<trkpt lat="58.868579" lon="05.838610"><ele>24</ele><time>2012-03-31T15:46:50Z</time><cmt>7.1 kmh</cmt></trkpt>
<trkpt lat="58.868561" lon="05.838613"><ele>24</ele><time>2012-03-31T15:46:51Z</time><cmt>6.6 kmh</cmt></trkpt>
<trkpt lat="58.868545" lon="05.838616"><ele>24</ele><time>2012-03-31T15:46:52Z</time><cmt>6.2 kmh</cmt></trkpt>
<trkpt lat="58.868530" lon="05.838618"><ele>24</ele><time>2012-03-31T15:46:53Z</time><cmt>5.9 kmh</cmt></trkpt>
<trkpt lat="58.868515" lon="05.838620"><ele>24</ele><time>2012-03-31T15:46:54Z</time><cmt>5.3 kmh</cmt></trkpt>
<trkpt lat="58.868503" lon="05.838623"><ele>24</ele><time>2012-03-31T15:46:55Z</time><cmt>5.3 kmh</cmt></trkpt>
<trkpt lat="58.868492" lon="05.838627"><ele>24</ele><time>2012-03-31T15:46:56Z</time><cmt>5.0 kmh</cmt></trkpt>
<trkpt lat="58.868483" lon="05.838630"><ele>24</ele><time>2012-03-31T15:46:57Z</time><cmt>4.3 kmh</cmt></trkpt>
<trkpt lat="58.868475" lon="05.838631"><ele>24</ele><time>2012-03-31T15:46:58Z</time><cmt>2.9 kmh</cmt></trkpt>
<trkpt lat="58.868469" lon="05.838633"><ele>24</ele><time>2012-03-31T15:46:59Z</time><cmt>2.4 kmh</cmt></trkpt>
<trkpt lat="58.868465" lon="05.838638"><ele>24</ele><time>2012-03-31T15:47:00Z</time><cmt>2.3 kmh</cmt></trkpt>
<trkpt lat="58.868463" lon="05.838643"><ele>24</ele><time>2012-03-31T15:47:01Z</time><cmt>1.8 kmh</cmt></trkpt>
<trkpt lat="58.868461" lon="05.838647"><ele>24</ele><time>2012-03-31T15:47:02Z</time><cmt>1.3 kmh</cmt></trkpt>
<trkpt lat="58.868459" lon="05.838650"><ele>24</ele><time>2012-03-31T15:47:03Z</time><cmt>1.1 kmh</cmt></trkpt>
<trkpt lat="58.868457" lon="05.838652"><ele>24</ele><time>2012-03-31T15:47:04Z</time><cmt>0.8 kmh</cmt></trkpt>
<trkpt lat="58.868455" lon="05.838655"><ele>24</ele><time>2012-03-31T15:47:05Z</time><cmt>0.8 kmh</cmt></trkpt>
<trkpt lat="58.868453" lon="05.838658"><ele>24</ele><time>2012-03-31T15:47:06Z</time><cmt>1.0 kmh</cmt></trkpt>
<trkpt lat="58.868451" lon="05.838662"><ele>24</ele><time>2012-03-31T15:47:07Z</time><cmt>1.2 kmh</cmt></trkpt>
<trkpt lat="58.868449" lon="05.838666"><ele>24</ele><time>2012-03-31T15:47:08Z</time><cmt>1.2 kmh</cmt></trkpt>
<trkpt lat="58.868448" lon="05.838670"><ele>24</ele><time>2012-03-31T15:47:09Z</time><cmt>1.0 kmh</cmt></trkpt>
<trkpt lat="58.868446" lon="05.838675"><ele>24</ele><time>2012-03-31T15:47:10Z</time><cmt>0.9 kmh</cmt></trkpt>
<trkpt lat="58.868443" lon="05.838680"><ele>24</ele><time>2012-03-31T15:47:11Z</time><cmt>1.2 kmh</cmt></trkpt>
<trkpt lat="58.868442" lon="05.838686"><ele>24</ele><time>2012-03-31T15:47:12Z</time><cmt>1.6 kmh</cmt></trkpt>
<trkpt lat="58.868441" lon="05.838691"><ele>24</ele><time>2012-03-31T15:47:13Z</time><cmt>1.2 kmh</cmt></trkpt>
<trkpt lat="58.868441" lon="05.838694"><ele>24</ele><time>2012-03-31T15:47:14Z</time><cmt>0.8 kmh</cmt></trkpt>
<trkpt lat="58.868441" lon="05.838697"><ele>24</ele><time>2012-03-31T15:47:15Z</time><cmt>0.6 kmh</cmt></trkpt>
<trkpt lat="58.868441" lon="05.838699"><ele>24</ele><time>2012-03-31T15:47:16Z</time><cmt>0.4 kmh</cmt></trkpt>
<trkpt lat="58.868442" lon="05.838701"><ele>24</ele><time>2012-03-31T15:47:17Z</time><cmt>0.2 kmh</cmt></trkpt>
<trkpt lat="58.868442" lon="05.838702"><ele>24</ele><time>2012-03-31T15:47:18Z</time><cmt>0.0 kmh</cmt></trkpt>
<trkpt lat="58.868442" lon="05.838704"><ele>24</ele><time>2012-03-31T15:47:19Z</time><cmt>0.0 kmh</cmt></trkpt>
<trkpt lat="58.868441" lon="05.838705"><ele>24</ele><time>2012-03-31T15:47:20Z</time><cmt>0.0 kmh</cmt></trkpt>
<trkpt lat="58.868441" lon="05.838707"><ele>24</ele><time>2012-03-31T15:47:21Z</time><cmt>0.3 kmh</cmt></trkpt>
<trkpt lat="58.868440" lon="05.838710"><ele>24</ele><time>2012-03-31T15:47:22Z</time><cmt>0.6 kmh</cmt></trkpt>
<trkpt lat="58.868439" lon="05.838712"><ele>24</ele><time>2012-03-31T15:47:23Z</time><cmt>0.5 kmh</cmt></trkpt>
<trkpt lat="58.868439" lon="05.838713"><ele>24</ele><time>2012-03-31T15:47:24Z</time><cmt>0.5 kmh</cmt></trkpt>
<trkpt lat="58.868438" lon="05.838715"><ele>24</ele><time>2012-03-31T15:47:25Z</time><cmt>0.5 kmh</cmt></trkpt>
<trkpt lat="58.868438" lon="05.838717"><ele>24</ele><time>2012-03-31T15:47:26Z</time><cmt>0.4 kmh</cmt></trkpt>
<trkpt lat="58.868437" lon="05.838718"><ele>24</ele><time>2012-03-31T15:47:27Z</time><cmt>0.2 kmh</cmt></trkpt>
<trkpt lat="58.868437" lon="05.838719"><ele>24</ele><time>2012-03-31T15:47:28Z</time><cmt>0.2 kmh</cmt></trkpt>
<trkpt lat="58.868436" lon="05.838720"><ele>24</ele><time>2012-03-31T15:47:29Z</time><cmt>0.1 kmh</cmt></trkpt>
<trkpt lat="58.868435" lon="05.838720"><ele>24</ele><time>2012-03-31T15:47:30Z</time><cmt>0.1 kmh</cmt></trkpt>
<trkpt lat="58.868434" lon="05.838721"><ele>24</ele><time>2012-03-31T15:47:31Z</time><cmt>0.5 kmh</cmt></trkpt>
<trkpt lat="58.868433" lon="05.838723"><ele>24</ele><time>2012-03-31T15:47:32Z</time><cmt>0.7 kmh</cmt></trkpt>
<trkpt lat="58.868433" lon="05.838725"><ele>24</ele><time>2012-03-31T15:47:33Z</time><cmt>0.6 kmh</cmt></trkpt>
<trkpt lat="58.868433" lon="05.838727"><ele>24</ele><time>2012-03-31T15:47:34Z</time><cmt>0.4 kmh</cmt></trkpt>
<trkpt lat="58.868433" lon="05.838727"><ele>24</ele><time>2012-03-31T15:47:35Z</time><cmt>0.1 kmh</cmt></trkpt>
<trkpt lat="58.868432" lon="05.838727"><ele>24</ele><time>2012-03-31T15:47:36Z</time><cmt>0.0 kmh</cmt></trkpt>
<trkpt lat="58.868431" lon="05.838728"><ele>24</ele><time>2012-03-31T15:47:37Z</time><cmt>0.2 kmh</cmt></trkpt>
<trkpt lat="58.868430" lon="05.838727"><ele>24</ele><time>2012-03-31T15:47:38Z</time><cmt>0.2 kmh</cmt></trkpt>
<trkpt lat="58.868431" lon="05.838723"><ele>24</ele><time>2012-03-31T15:47:39Z</time><cmt>0.4 kmh</cmt></trkpt>
<trkpt lat="58.868432" lon="05.838719"><ele>24</ele><time>2012-03-31T15:47:40Z</time><cmt>0.6 kmh</cmt></trkpt>
<trkpt lat="58.868431" lon="05.838717"><ele>24</ele><time>2012-03-31T15:47:41Z</time><cmt>0.6 kmh</cmt></trkpt>
<trkpt lat="58.868430" lon="05.838717"><ele>24</ele><time>2012-03-31T15:47:42Z</time><cmt>0.2 kmh</cmt></trkpt>
<trkpt lat="58.868430" lon="05.838717"><ele>24</ele><time>2012-03-31T15:47:43Z</time><cmt>0.0 kmh</cmt></trkpt>
<trkpt lat="58.868427" lon="05.838714"><ele>24</ele><time>2012-03-31T15:47:44Z</time><cmt>0.4 kmh</cmt></trkpt>
<trkpt lat="58.868425" lon="05.838711"><ele>24</ele><time>2012-03-31T15:47:45Z</time><cmt>0.9 kmh</cmt></trkpt>
<trkpt lat="58.868423" lon="05.838709"><ele>24</ele><time>2012-03-31T15:47:46Z</time><cmt>1.2 kmh</cmt></trkpt>
<trkpt lat="58.868420" lon="05.838709"><ele>24</ele><time>2012-03-31T15:47:47Z</time><cmt>0.8 kmh</cmt></trkpt>
<trkpt lat="58.868417" lon="05.838710"><ele>24</ele><time>2012-03-31T15:47:48Z</time><cmt>0.9 kmh</cmt></trkpt>
<trkpt lat="58.868415" lon="05.838711"><ele>24</ele><time>2012-03-31T15:47:50Z</time><cmt>1.3 kmh</cmt></trkpt>
<trkpt lat="58.868412" lon="05.838714"><ele>24</ele><time>2012-03-31T15:47:50Z</time><cmt>1.3 kmh</cmt></trkpt>
<trkpt lat="58.868410" lon="05.838716"><ele>24</ele><time>2012-03-31T15:47:51Z</time><cmt>1.2 kmh</cmt></trkpt>
<trkpt lat="58.868407" lon="05.838718"><ele>25</ele><time>2012-03-31T15:47:52Z</time><cmt>1.2 kmh</cmt></trkpt>
<trkpt lat="58.868404" lon="05.838720"><ele>25</ele><time>2012-03-31T15:47:53Z</time><cmt>1.1 kmh</cmt></trkpt>
<trkpt lat="58.868401" lon="05.838722"><ele>25</ele><time>2012-03-31T15:47:54Z</time><cmt>1.1 kmh</cmt></trkpt>
<trkpt lat="58.868398" lon="05.838724"><ele>25</ele><time>2012-03-31T15:47:55Z</time><cmt>1.3 kmh</cmt></trkpt>
<trkpt lat="58.868395" lon="05.838726"><ele>25</ele><time>2012-03-31T15:47:56Z</time><cmt>1.4 kmh</cmt></trkpt>
<trkpt lat="58.868392" lon="05.838728"><ele>25</ele><time>2012-03-31T15:47:57Z</time><cmt>1.4 kmh</cmt></trkpt>
<trkpt lat="58.868389" lon="05.838731"><ele>25</ele><time>2012-03-31T15:47:58Z</time><cmt>1.4 kmh</cmt></trkpt>
<trkpt lat="58.868386" lon="05.838734"><ele>25</ele><time>2012-03-31T15:47:59Z</time><cmt>1.5 kmh</cmt></trkpt>
<trkpt lat="58.868383" lon="05.838737"><ele>25</ele><time>2012-03-31T15:48:00Z</time><cmt>1.3 kmh</cmt></trkpt>
<trkpt lat="58.868379" lon="05.838741"><ele>25</ele><time>2012-03-31T15:48:01Z</time><cmt>1.3 kmh</cmt></trkpt>
<trkpt lat="58.868376" lon="05.838745"><ele>25</ele><time>2012-03-31T15:48:02Z</time><cmt>1.6 kmh</cmt></trkpt>
<trkpt lat="58.868374" lon="05.838749"><ele>25</ele><time>2012-03-31T15:48:03Z</time><cmt>1.5 kmh</cmt></trkpt>
<trkpt lat="58.868371" lon="05.838752"><ele>25</ele><time>2012-03-31T15:48:04Z</time><cmt>1.4 kmh</cmt></trkpt>
<trkpt lat="58.868368" lon="05.838755"><ele>25</ele><time>2012-03-31T15:48:05Z</time><cmt>1.3 kmh</cmt></trkpt>
<trkpt lat="58.868366" lon="05.838759"><ele>25</ele><time>2012-03-31T15:48:06Z</time><cmt>0.9 kmh</cmt></trkpt>
<trkpt lat="58.868364" lon="05.838762"><ele>25</ele><time>2012-03-31T15:48:07Z</time><cmt>0.9 kmh</cmt></trkpt>
<trkpt lat="58.868362" lon="05.838766"><ele>25</ele><time>2012-03-31T15:48:08Z</time><cmt>1.3 kmh</cmt></trkpt>
<trkpt lat="58.868359" lon="05.838771"><ele>25</ele><time>2012-03-31T15:48:09Z</time><cmt>1.5 kmh</cmt></trkpt>
<trkpt lat="58.868357" lon="05.838776"><ele>25</ele><time>2012-03-31T15:48:10Z</time><cmt>1.6 kmh</cmt></trkpt>
<trkpt lat="58.868353" lon="05.838781"><ele>25</ele><time>2012-03-31T15:48:11Z</time><cmt>1.8 kmh</cmt></trkpt>
<trkpt lat="58.868350" lon="05.838786"><ele>25</ele><time>2012-03-31T15:48:12Z</time><cmt>1.5 kmh</cmt></trkpt>
<trkpt lat="58.868346" lon="05.838791"><ele>25</ele><time>2012-03-31T15:48:13Z</time><cmt>1.5 kmh</cmt></trkpt>
<trkpt lat="58.868343" lon="05.838796"><ele>25</ele><time>2012-03-31T15:48:14Z</time><cmt>1.8 kmh</cmt></trkpt>
<trkpt lat="58.868340" lon="05.838801"><ele>25</ele><time>2012-03-31T15:48:15Z</time><cmt>1.7 kmh</cmt></trkpt>
<trkpt lat="58.868337" lon="05.838804"><ele>25</ele><time>2012-03-31T15:48:16Z</time><cmt>1.5 kmh</cmt></trkpt>
<trkpt lat="58.868335" lon="05.838806"><ele>25</ele><time>2012-03-31T15:48:17Z</time><cmt>1.3 kmh</cmt></trkpt>
<trkpt lat="58.868332" lon="05.838807"><ele>25</ele><time>2012-03-31T15:48:18Z</time><cmt>1.0 kmh</cmt></trkpt>
<trkpt lat="58.868329" lon="05.838809"><ele>25</ele><time>2012-03-31T15:48:19Z</time><cmt>1.0 kmh</cmt></trkpt>
<trkpt lat="58.868327" lon="05.838811"><ele>25</ele><time>2012-03-31T15:48:20Z</time><cmt>1.1 kmh</cmt></trkpt>
<trkpt lat="58.868325" lon="05.838812"><ele>25</ele><time>2012-03-31T15:48:21Z</time><cmt>1.0 kmh</cmt></trkpt>
<trkpt lat="58.868322" lon="05.838814"><ele>25</ele><time>2012-03-31T15:48:22Z</time><cmt>1.1 kmh</cmt></trkpt>
<trkpt lat="58.868319" lon="05.838816"><ele>25</ele><time>2012-03-31T15:48:23Z</time><cmt>1.4 kmh</cmt></trkpt>
<trkpt lat="58.868315" lon="05.838818"><ele>25</ele><time>2012-03-31T15:48:24Z</time><cmt>1.2 kmh</cmt></trkpt>
<trkpt lat="58.868312" lon="05.838819"><ele>25</ele><time>2012-03-31T15:48:25Z</time><cmt>1.1 kmh</cmt></trkpt>
<trkpt lat="58.868309" lon="05.838820"><ele>25</ele><time>2012-03-31T15:48:26Z</time><cmt>1.3 kmh</cmt></trkpt>
<trkpt lat="58.868307" lon="05.838822"><ele>25</ele><time>2012-03-31T15:48:27Z</time><cmt>1.3 kmh</cmt></trkpt>
<trkpt lat="58.868304" lon="05.838823"><ele>25</ele><time>2012-03-31T15:48:28Z</time><cmt>1.2 kmh</cmt></trkpt>
<trkpt lat="58.868301" lon="05.838824"><ele>25</ele><time>2012-03-31T15:48:29Z</time><cmt>1.2 kmh</cmt></trkpt>
<trkpt lat="58.868299" lon="05.838826"><ele>25</ele><time>2012-03-31T15:48:30Z</time><cmt>1.1 kmh</cmt></trkpt>
<trkpt lat="58.868297" lon="05.838827"><ele>25</ele><time>2012-03-31T15:48:31Z</time><cmt>0.8 kmh</cmt></trkpt>
<trkpt lat="58.868294" lon="05.838828"><ele>25</ele><time>2012-03-31T15:48:32Z</time><cmt>0.9 kmh</cmt></trkpt>
<trkpt lat="58.868292" lon="05.838830"><ele>25</ele><time>2012-03-31T15:48:33Z</time><cmt>1.1 kmh</cmt></trkpt>
<trkpt lat="58.868289" lon="05.838832"><ele>25</ele><time>2012-03-31T15:48:34Z</time><cmt>1.1 kmh</cmt></trkpt>
<trkpt lat="58.868287" lon="05.838834"><ele>25</ele><time>2012-03-31T15:48:35Z</time><cmt>1.0 kmh</cmt></trkpt>
<trkpt lat="58.868285" lon="05.838836"><ele>25</ele><time>2012-03-31T15:48:36Z</time><cmt>1.1 kmh</cmt></trkpt>
<trkpt lat="58.868282" lon="05.838836"><ele>25</ele><time>2012-03-31T15:48:37Z</time><cmt>0.9 kmh</cmt></trkpt>
<trkpt lat="58.868280" lon="05.838836"><ele>25</ele><time>2012-03-31T15:48:38Z</time><cmt>0.8 kmh</cmt></trkpt>
<trkpt lat="58.868277" lon="05.838837"><ele>25</ele><time>2012-03-31T15:48:39Z</time><cmt>0.9 kmh</cmt></trkpt>
<trkpt lat="58.868275" lon="05.838838"><ele>25</ele><time>2012-03-31T15:48:40Z</time><cmt>1.0 kmh</cmt></trkpt>
<trkpt lat="58.868272" lon="05.838839"><ele>25</ele><time>2012-03-31T15:48:41Z</time><cmt>1.1 kmh</cmt></trkpt>
<trkpt lat="58.868269" lon="05.838841"><ele>25</ele><time>2012-03-31T15:48:42Z</time><cmt>1.2 kmh</cmt></trkpt>
<trkpt lat="58.868267" lon="05.838844"><ele>25</ele><time>2012-03-31T15:48:43Z</time><cmt>1.0 kmh</cmt></trkpt>
<trkpt lat="58.868264" lon="05.838845"><ele>25</ele><time>2012-03-31T15:48:44Z</time><cmt>1.0 kmh</cmt></trkpt>
<trkpt lat="58.868261" lon="05.838847"><ele>25</ele><time>2012-03-31T15:48:45Z</time><cmt>1.2 kmh</cmt></trkpt>
<trkpt lat="58.868258" lon="05.838848"><ele>25</ele><time>2012-03-31T15:48:46Z</time><cmt>1.2 kmh</cmt></trkpt>
<trkpt lat="58.868255" lon="05.838850"><ele>25</ele><time>2012-03-31T15:48:47Z</time><cmt>1.2 kmh</cmt></trkpt>
<trkpt lat="58.868252" lon="05.838852"><ele>25</ele><time>2012-03-31T15:48:48Z</time><cmt>1.3 kmh</cmt></trkpt>
<trkpt lat="58.868250" lon="05.838854"><ele>25</ele><time>2012-03-31T15:48:49Z</time><cmt>1.0 kmh</cmt></trkpt>
<trkpt lat="58.868247" lon="05.838856"><ele>25</ele><time>2012-03-31T15:48:50Z</time><cmt>1.0 kmh</cmt></trkpt>
<trkpt lat="58.868244" lon="05.838858"><ele>25</ele><time>2012-03-31T15:48:51Z</time><cmt>1.2 kmh</cmt></trkpt>
<trkpt lat="58.868242" lon="05.838859"><ele>25</ele><time>2012-03-31T15:48:52Z</time><cmt>1.2 kmh</cmt></trkpt>
<trkpt lat="58.868239" lon="05.838861"><ele>25</ele><time>2012-03-31T15:48:53Z</time><cmt>1.2 kmh</cmt></trkpt>
<trkpt lat="58.868236" lon="05.838863"><ele>25</ele><time>2012-03-31T15:48:54Z</time><cmt>1.3 kmh</cmt></trkpt>
<trkpt lat="58.868234" lon="05.838864"><ele>25</ele><time>2012-03-31T15:48:55Z</time><cmt>1.0 kmh</cmt></trkpt>
<trkpt lat="58.868231" lon="05.838866"><ele>25</ele><time>2012-03-31T15:48:56Z</time><cmt>1.1 kmh</cmt></trkpt>
<trkpt lat="58.868228" lon="05.838867"><ele>25</ele><time>2012-03-31T15:48:57Z</time><cmt>1.3 kmh</cmt></trkpt>
<trkpt lat="58.868226" lon="05.838867"><ele>25</ele><time>2012-03-31T15:48:58Z</time><cmt>1.0 kmh</cmt></trkpt>
<trkpt lat="58.868225" lon="05.838867"><ele>25</ele><time>2012-03-31T15:48:59Z</time><cmt>0.6 kmh</cmt></trkpt>
<trkpt lat="58.868224" lon="05.838865"><ele>25</ele><time>2012-03-31T15:49:00Z</time><cmt>0.5 kmh</cmt></trkpt>
<trkpt lat="58.868223" lon="05.838864"><ele>25</ele><time>2012-03-31T15:49:01Z</time><cmt>0.4 kmh</cmt></trkpt>
<trkpt lat="58.868223" lon="05.838863"><ele>25</ele><time>2012-03-31T15:49:02Z</time><cmt>0.4 kmh</cmt></trkpt>
<trkpt lat="58.868222" lon="05.838861"><ele>25</ele><time>2012-03-31T15:49:03Z</time><cmt>0.5 kmh</cmt></trkpt>
<trkpt lat="58.868222" lon="05.838858"><ele>25</ele><time>2012-03-31T15:49:04Z</time><cmt>0.6 kmh</cmt></trkpt>
<trkpt lat="58.868221" lon="05.838857"><ele>25</ele><time>2012-03-31T15:49:05Z</time><cmt>0.4 kmh</cmt></trkpt>
<trkpt lat="58.868221" lon="05.838856"><ele>25</ele><time>2012-03-31T15:49:06Z</time><cmt>0.4 kmh</cmt></trkpt>
<trkpt lat="58.868220" lon="05.838854"><ele>25</ele><time>2012-03-31T15:49:07Z</time><cmt>0.3 kmh</cmt></trkpt>
<trkpt lat="58.868218" lon="05.838851"><ele>25</ele><time>2012-03-31T15:49:08Z</time><cmt>0.3 kmh</cmt></trkpt>
<trkpt lat="58.868217" lon="05.838850"><ele>25</ele><time>2012-03-31T15:49:09Z</time><cmt>0.5 kmh</cmt></trkpt>
<trkpt lat="58.868216" lon="05.838849"><ele>25</ele><time>2012-03-31T15:49:10Z</time><cmt>0.6 kmh</cmt></trkpt>
<trkpt lat="58.868214" lon="05.838849"><ele>25</ele><time>2012-03-31T15:49:11Z</time><cmt>0.7 kmh</cmt></trkpt>
<trkpt lat="58.868213" lon="05.838849"><ele>25</ele><time>2012-03-31T15:49:12Z</time><cmt>0.7 kmh</cmt></trkpt>
<trkpt lat="58.868212" lon="05.838849"><ele>25</ele><time>2012-03-31T15:49:13Z</time><cmt>0.6 kmh</cmt></trkpt>
<trkpt lat="58.868210" lon="05.838850"><ele>25</ele><time>2012-03-31T15:49:14Z</time><cmt>0.4 kmh</cmt></trkpt>
<trkpt lat="58.868209" lon="05.838850"><ele>25</ele><time>2012-03-31T15:49:15Z</time><cmt>0.5 kmh</cmt></trkpt>
<trkpt lat="58.868207" lon="05.838852"><ele>25</ele><time>2012-03-31T15:49:16Z</time><cmt>0.8 kmh</cmt></trkpt>
<trkpt lat="58.868205" lon="05.838855"><ele>25</ele><time>2012-03-31T15:49:17Z</time><cmt>1.0 kmh</cmt></trkpt>
<trkpt lat="58.868203" lon="05.838857"><ele>25</ele><time>2012-03-31T15:49:18Z</time><cmt>0.9 kmh</cmt></trkpt>
<trkpt lat="58.868202" lon="05.838858"><ele>25</ele><time>2012-03-31T15:49:19Z</time><cmt>0.6 kmh</cmt></trkpt>
<trkpt lat="58.868201" lon="05.838858"><ele>25</ele><time>2012-03-31T15:49:20Z</time><cmt>0.4 kmh</cmt></trkpt>
<trkpt lat="58.868200" lon="05.838859"><ele>25</ele><time>2012-03-31T15:49:21Z</time><cmt>0.4 kmh</cmt></trkpt>
<trkpt lat="58.868199" lon="05.838860"><ele>25</ele><time>2012-03-31T15:49:22Z</time><cmt>0.5 kmh</cmt></trkpt>
<trkpt lat="58.868197" lon="05.838861"><ele>25</ele><time>2012-03-31T15:49:23Z</time><cmt>0.5 kmh</cmt></trkpt>
<trkpt lat="58.868196" lon="05.838861"><ele>25</ele><time>2012-03-31T15:49:24Z</time><cmt>0.5 kmh</cmt></trkpt>
<trkpt lat="58.868195" lon="05.838861"><ele>25</ele><time>2012-03-31T15:49:25Z</time><cmt>0.5 kmh</cmt></trkpt>
<trkpt lat="58.868194" lon="05.838861"><ele>25</ele><time>2012-03-31T15:49:26Z</time><cmt>0.2 kmh</cmt></trkpt>
<trkpt lat="58.868192" lon="05.838863"><ele>25</ele><time>2012-03-31T15:49:27Z</time><cmt>0.2 kmh</cmt></trkpt>
<trkpt lat="58.868191" lon="05.838864"><ele>25</ele><time>2012-03-31T15:49:28Z</time><cmt>0.6 kmh</cmt></trkpt>
<trkpt lat="58.868190" lon="05.838863"><ele>25</ele><time>2012-03-31T15:49:29Z</time><cmt>0.3 kmh</cmt></trkpt>
<trkpt lat="58.868189" lon="05.838862"><ele>25</ele><time>2012-03-31T15:49:31Z</time><cmt>0.2 kmh</cmt></trkpt>
<trkpt lat="58.868189" lon="05.838860"><ele>25</ele><time>2012-03-31T15:49:31Z</time><cmt>0.2 kmh</cmt></trkpt>
<trkpt lat="58.868189" lon="05.838859"><ele>25</ele><time>2012-03-31T15:49:32Z</time><cmt>0.0 kmh</cmt></trkpt>
<trkpt lat="58.868188" lon="05.838859"><ele>25</ele><time>2012-03-31T15:49:33Z</time><cmt>0.0 kmh</cmt></trkpt>
<trkpt lat="58.868188" lon="05.838859"><ele>25</ele><time>2012-03-31T15:49:34Z</time><cmt>0.0 kmh</cmt></trkpt>
<trkpt lat="58.868187" lon="05.838859"><ele>25</ele><time>2012-03-31T15:49:35Z</time><cmt>0.2 kmh</cmt></trkpt>
<trkpt lat="58.868187" lon="05.838860"><ele>25</ele><time>2012-03-31T15:49:36Z</time><cmt>0.2 kmh</cmt></trkpt>
<trkpt lat="58.868186" lon="05.838861"><ele>25</ele><time>2012-03-31T15:49:37Z</time><cmt>0.0 kmh</cmt></trkpt>
<trkpt lat="58.868185" lon="05.838862"><ele>25</ele><time>2012-03-31T15:49:38Z</time><cmt>0.2 kmh</cmt></trkpt>
<trkpt lat="58.868185" lon="05.838863"><ele>25</ele><time>2012-03-31T15:49:39Z</time><cmt>0.3 kmh</cmt></trkpt>
<trkpt lat="58.868184" lon="05.838864"><ele>25</ele><time>2012-03-31T15:49:40Z</time><cmt>0.4 kmh</cmt></trkpt>
<trkpt lat="58.868182" lon="05.838866"><ele>25</ele><time>2012-03-31T15:49:41Z</time><cmt>0.5 kmh</cmt></trkpt>
<trkpt lat="58.868181" lon="05.838867"><ele>25</ele><time>2012-03-31T15:49:42Z</time><cmt>0.6 kmh</cmt></trkpt>
<trkpt lat="58.868180" lon="05.838869"><ele>25</ele><time>2012-03-31T15:49:43Z</time><cmt>0.7 kmh</cmt></trkpt>
<trkpt lat="58.868179" lon="05.838871"><ele>25</ele><time>2012-03-31T15:49:44Z</time><cmt>0.7 kmh</cmt></trkpt>
<trkpt lat="58.868178" lon="05.838872"><ele>25</ele><time>2012-03-31T15:49:45Z</time><cmt>0.6 kmh</cmt></trkpt>
<trkpt lat="58.868176" lon="05.838874"><ele>25</ele><time>2012-03-31T15:49:46Z</time><cmt>0.6 kmh</cmt></trkpt>
<trkpt lat="58.868175" lon="05.838876"><ele>25</ele><time>2012-03-31T15:49:47Z</time><cmt>0.7 kmh</cmt></trkpt></trkseg></trk></gpx>